<?xml version="1.0" encoding="UTF-8" standalone="no" ?>
<gpx xmlns="http://www.topografix.com/GPX/1/1" xmlns:xsi="http://www.w3.org/2001/XMLSchema-instance" xsi:schemaLocation="http://www.topografix.com/GPX/1/1 http://www.topografix.com/GPX/1/1/gpx.xsd" version="1.1" creator="VisuGPX - https://www.visugpx.com">
  <metadata>
    <name>Les Cluots</name>
    <desc><![CDATA[Rando Raquettes au départ de la station de Roubion (Les Buisses). Paysages grandioses: le Blanc Nature!]]></desc>
  </metadata>
  <trk>
    <name><![CDATA[Les Cluots_1]]></name>
    <trkseg>
      <trkpt lat="44.08284" lon="7.04183">
        <ele>1426.571044</ele>
        <time>2012-12-28T08:11:55Z</time>
      </trkpt>
      <trkpt lat="44.08283" lon="7.04183">
        <ele>1426.759033</ele>
        <time>2012-12-28T08:12:46Z</time>
      </trkpt>
      <trkpt lat="44.08282" lon="7.04183">
        <ele>1426.979003</ele>
        <time>2012-12-28T08:12:47Z</time>
      </trkpt>
      <trkpt lat="44.08281" lon="7.04183">
        <ele>1426.5</ele>
        <time>2012-12-28T08:13:47Z</time>
      </trkpt>
      <trkpt lat="44.08281" lon="7.04183">
        <ele>1426.5</ele>
        <time>2012-12-28T08:13:48Z</time>
      </trkpt>
      <trkpt lat="44.08281" lon="7.04184">
        <ele>1426.7</ele>
        <time>2012-12-28T08:13:49Z</time>
      </trkpt>
      <trkpt lat="44.08281" lon="7.04184">
        <ele>1426.2</ele>
        <time>2012-12-28T08:13:50Z</time>
      </trkpt>
      <trkpt lat="44.0828" lon="7.04184">
        <ele>1426.1</ele>
        <time>2012-12-28T08:13:51Z</time>
      </trkpt>
      <trkpt lat="44.0828" lon="7.04184">
        <ele>1426.1</ele>
        <time>2012-12-28T08:13:52Z</time>
      </trkpt>
      <trkpt lat="44.0828" lon="7.04184">
        <ele>1426.1</ele>
        <time>2012-12-28T08:13:53Z</time>
      </trkpt>
      <trkpt lat="44.0828" lon="7.04184">
        <ele>1426.1</ele>
        <time>2012-12-28T08:13:54Z</time>
      </trkpt>
      <trkpt lat="44.0828" lon="7.04184">
        <ele>1426.1</ele>
        <time>2012-12-28T08:13:55Z</time>
      </trkpt>
      <trkpt lat="44.0828" lon="7.04184">
        <ele>1426.1</ele>
        <time>2012-12-28T08:13:56Z</time>
      </trkpt>
      <trkpt lat="44.0828" lon="7.04185">
        <ele>1426.1</ele>
        <time>2012-12-28T08:13:57Z</time>
      </trkpt>
      <trkpt lat="44.08281" lon="7.04185">
        <ele>1425.8</ele>
        <time>2012-12-28T08:13:58Z</time>
      </trkpt>
      <trkpt lat="44.08281" lon="7.04185">
        <ele>1425.8</ele>
        <time>2012-12-28T08:13:59Z</time>
      </trkpt>
      <trkpt lat="44.08281" lon="7.04185">
        <ele>1426.1</ele>
        <time>2012-12-28T08:14:00Z</time>
      </trkpt>
      <trkpt lat="44.08282" lon="7.04184">
        <ele>1425.8</ele>
        <time>2012-12-28T08:14:01Z</time>
      </trkpt>
      <trkpt lat="44.08282" lon="7.04184">
        <ele>1425.7</ele>
        <time>2012-12-28T08:14:02Z</time>
      </trkpt>
      <trkpt lat="44.08282" lon="7.04184">
        <ele>1425.7</ele>
        <time>2012-12-28T08:14:03Z</time>
      </trkpt>
      <trkpt lat="44.08282" lon="7.04184">
        <ele>1425.7</ele>
        <time>2012-12-28T08:14:04Z</time>
      </trkpt>
      <trkpt lat="44.08282" lon="7.04184">
        <ele>1425.7</ele>
        <time>2012-12-28T08:14:05Z</time>
      </trkpt>
      <trkpt lat="44.08282" lon="7.04184">
        <ele>1425.7</ele>
        <time>2012-12-28T08:14:06Z</time>
      </trkpt>
      <trkpt lat="44.08282" lon="7.04184">
        <ele>1425.7</ele>
        <time>2012-12-28T08:14:07Z</time>
      </trkpt>
      <trkpt lat="44.08282" lon="7.04184">
        <ele>1425.7</ele>
        <time>2012-12-28T08:14:08Z</time>
      </trkpt>
      <trkpt lat="44.08282" lon="7.04184">
        <ele>1425.7</ele>
        <time>2012-12-28T08:14:09Z</time>
      </trkpt>
      <trkpt lat="44.08282" lon="7.04184">
        <ele>1425.7</ele>
        <time>2012-12-28T08:14:10Z</time>
      </trkpt>
      <trkpt lat="44.08282" lon="7.04184">
        <ele>1425.7</ele>
        <time>2012-12-28T08:14:11Z</time>
      </trkpt>
      <trkpt lat="44.08282" lon="7.04184">
        <ele>1425.7</ele>
        <time>2012-12-28T08:14:12Z</time>
      </trkpt>
      <trkpt lat="44.08282" lon="7.04184">
        <ele>1425.7</ele>
        <time>2012-12-28T08:14:13Z</time>
      </trkpt>
      <trkpt lat="44.08282" lon="7.04184">
        <ele>1425.7</ele>
        <time>2012-12-28T08:14:14Z</time>
      </trkpt>
      <trkpt lat="44.08282" lon="7.04184">
        <ele>1425.7</ele>
        <time>2012-12-28T08:14:15Z</time>
      </trkpt>
      <trkpt lat="44.08282" lon="7.04184">
        <ele>1425.7</ele>
        <time>2012-12-28T08:14:16Z</time>
      </trkpt>
      <trkpt lat="44.08282" lon="7.04184">
        <ele>1425.7</ele>
        <time>2012-12-28T08:14:17Z</time>
      </trkpt>
      <trkpt lat="44.08282" lon="7.04184">
        <ele>1425.7</ele>
        <time>2012-12-28T08:14:18Z</time>
      </trkpt>
      <trkpt lat="44.08282" lon="7.04184">
        <ele>1425.7</ele>
        <time>2012-12-28T08:14:19Z</time>
      </trkpt>
      <trkpt lat="44.08282" lon="7.04184">
        <ele>1425.7</ele>
        <time>2012-12-28T08:14:20Z</time>
      </trkpt>
      <trkpt lat="44.08282" lon="7.04184">
        <ele>1425.7</ele>
        <time>2012-12-28T08:14:21Z</time>
      </trkpt>
      <trkpt lat="44.08282" lon="7.04184">
        <ele>1425.7</ele>
        <time>2012-12-28T08:14:22Z</time>
      </trkpt>
      <trkpt lat="44.08282" lon="7.04184">
        <ele>1425.7</ele>
        <time>2012-12-28T08:14:23Z</time>
      </trkpt>
      <trkpt lat="44.08282" lon="7.04184">
        <ele>1425.7</ele>
        <time>2012-12-28T08:14:24Z</time>
      </trkpt>
      <trkpt lat="44.08282" lon="7.04184">
        <ele>1425.7</ele>
        <time>2012-12-28T08:14:25Z</time>
      </trkpt>
      <trkpt lat="44.08282" lon="7.04184">
        <ele>1425.7</ele>
        <time>2012-12-28T08:14:26Z</time>
      </trkpt>
      <trkpt lat="44.08282" lon="7.04184">
        <ele>1425.7</ele>
        <time>2012-12-28T08:14:27Z</time>
      </trkpt>
      <trkpt lat="44.08282" lon="7.04183">
        <ele>1425.9</ele>
        <time>2012-12-28T08:14:28Z</time>
      </trkpt>
      <trkpt lat="44.08282" lon="7.04183">
        <ele>1425.9</ele>
        <time>2012-12-28T08:14:29Z</time>
      </trkpt>
      <trkpt lat="44.08282" lon="7.04184">
        <ele>1425.7</ele>
        <time>2012-12-28T08:14:30Z</time>
      </trkpt>
      <trkpt lat="44.08282" lon="7.04185">
        <ele>1425.3</ele>
        <time>2012-12-28T08:14:31Z</time>
      </trkpt>
      <trkpt lat="44.08282" lon="7.04185">
        <ele>1425.3</ele>
        <time>2012-12-28T08:14:32Z</time>
      </trkpt>
      <trkpt lat="44.08282" lon="7.04185">
        <ele>1425.3</ele>
        <time>2012-12-28T08:14:33Z</time>
      </trkpt>
      <trkpt lat="44.08282" lon="7.04185">
        <ele>1425.6</ele>
        <time>2012-12-28T08:14:34Z</time>
      </trkpt>
      <trkpt lat="44.08281" lon="7.04184">
        <ele>1425.3</ele>
        <time>2012-12-28T08:14:35Z</time>
      </trkpt>
      <trkpt lat="44.0828" lon="7.04183">
        <ele>1425.3</ele>
        <time>2012-12-28T08:14:36Z</time>
      </trkpt>
      <trkpt lat="44.08279" lon="7.04183">
        <ele>1425.7</ele>
        <time>2012-12-28T08:14:37Z</time>
      </trkpt>
      <trkpt lat="44.08279" lon="7.04183">
        <ele>1425.7</ele>
        <time>2012-12-28T08:14:38Z</time>
      </trkpt>
      <trkpt lat="44.08278" lon="7.04182">
        <ele>1425.7</ele>
        <time>2012-12-28T08:14:39Z</time>
      </trkpt>
      <trkpt lat="44.08277" lon="7.04181">
        <ele>1425.5</ele>
        <time>2012-12-28T08:14:40Z</time>
      </trkpt>
      <trkpt lat="44.08276" lon="7.04181">
        <ele>1425.4</ele>
        <time>2012-12-28T08:14:41Z</time>
      </trkpt>
      <trkpt lat="44.08276" lon="7.0418">
        <ele>1425.2</ele>
        <time>2012-12-28T08:14:42Z</time>
      </trkpt>
      <trkpt lat="44.08273" lon="7.04177">
        <ele>1425.3</ele>
        <time>2012-12-28T08:14:46Z</time>
      </trkpt>
      <trkpt lat="44.08272" lon="7.04177">
        <ele>1425</ele>
        <time>2012-12-28T08:14:47Z</time>
      </trkpt>
      <trkpt lat="44.08271" lon="7.04177">
        <ele>1424.7</ele>
        <time>2012-12-28T08:14:48Z</time>
      </trkpt>
      <trkpt lat="44.08268" lon="7.04175">
        <ele>1424.7</ele>
        <time>2012-12-28T08:14:52Z</time>
      </trkpt>
      <trkpt lat="44.08267" lon="7.04174">
        <ele>1424.5</ele>
        <time>2012-12-28T08:14:53Z</time>
      </trkpt>
      <trkpt lat="44.08263" lon="7.04174">
        <ele>1424.8</ele>
        <time>2012-12-28T08:15:00Z</time>
      </trkpt>
      <trkpt lat="44.08263" lon="7.04174">
        <ele>1424.8</ele>
        <time>2012-12-28T08:15:01Z</time>
      </trkpt>
      <trkpt lat="44.08263" lon="7.04173">
        <ele>1425</ele>
        <time>2012-12-28T08:15:02Z</time>
      </trkpt>
      <trkpt lat="44.08251" lon="7.04142">
        <ele>1425.6</ele>
        <time>2012-12-28T08:20:07Z</time>
      </trkpt>
      <trkpt lat="44.08251" lon="7.04141">
        <ele>1425.7</ele>
        <time>2012-12-28T08:20:08Z</time>
      </trkpt>
      <trkpt lat="44.08249" lon="7.04137">
        <ele>1425.9</ele>
        <time>2012-12-28T08:20:12Z</time>
      </trkpt>
      <trkpt lat="44.08247" lon="7.04135">
        <ele>1425.7</ele>
        <time>2012-12-28T08:20:14Z</time>
      </trkpt>
      <trkpt lat="44.08246" lon="7.04134">
        <ele>1425.7</ele>
        <time>2012-12-28T08:20:15Z</time>
      </trkpt>
      <trkpt lat="44.08242" lon="7.04124">
        <ele>1426.3</ele>
        <time>2012-12-28T08:20:26Z</time>
      </trkpt>
      <trkpt lat="44.08241" lon="7.04122">
        <ele>1425.7</ele>
        <time>2012-12-28T08:20:27Z</time>
      </trkpt>
      <trkpt lat="44.08241" lon="7.04122">
        <ele>1425.7</ele>
        <time>2012-12-28T08:20:28Z</time>
      </trkpt>
      <trkpt lat="44.08241" lon="7.04121">
        <ele>1425.5</ele>
        <time>2012-12-28T08:20:29Z</time>
      </trkpt>
      <trkpt lat="44.08241" lon="7.0412">
        <ele>1425.5</ele>
        <time>2012-12-28T08:20:30Z</time>
      </trkpt>
      <trkpt lat="44.0824" lon="7.04118">
        <ele>1425.6</ele>
        <time>2012-12-28T08:20:31Z</time>
      </trkpt>
      <trkpt lat="44.0824" lon="7.04117">
        <ele>1425.7</ele>
        <time>2012-12-28T08:20:32Z</time>
      </trkpt>
      <trkpt lat="44.08239" lon="7.04113">
        <ele>1425.5</ele>
        <time>2012-12-28T08:20:34Z</time>
      </trkpt>
      <trkpt lat="44.08239" lon="7.04112">
        <ele>1425.2</ele>
        <time>2012-12-28T08:20:35Z</time>
      </trkpt>
      <trkpt lat="44.08239" lon="7.0411">
        <ele>1425.2</ele>
        <time>2012-12-28T08:20:36Z</time>
      </trkpt>
      <trkpt lat="44.08238" lon="7.04108">
        <ele>1425.1</ele>
        <time>2012-12-28T08:20:37Z</time>
      </trkpt>
      <trkpt lat="44.08237" lon="7.04103">
        <ele>1425.1</ele>
        <time>2012-12-28T08:20:41Z</time>
      </trkpt>
      <trkpt lat="44.08236" lon="7.04099">
        <ele>1424.9</ele>
        <time>2012-12-28T08:20:43Z</time>
      </trkpt>
      <trkpt lat="44.08236" lon="7.04098">
        <ele>1424.7</ele>
        <time>2012-12-28T08:20:44Z</time>
      </trkpt>
      <trkpt lat="44.08235" lon="7.04097">
        <ele>1424.6</ele>
        <time>2012-12-28T08:20:45Z</time>
      </trkpt>
      <trkpt lat="44.08235" lon="7.04096">
        <ele>1424.6</ele>
        <time>2012-12-28T08:20:46Z</time>
      </trkpt>
      <trkpt lat="44.08234" lon="7.04094">
        <ele>1424.9</ele>
        <time>2012-12-28T08:20:47Z</time>
      </trkpt>
      <trkpt lat="44.08234" lon="7.04093">
        <ele>1425.1</ele>
        <time>2012-12-28T08:20:48Z</time>
      </trkpt>
      <trkpt lat="44.08233" lon="7.04092">
        <ele>1425</ele>
        <time>2012-12-28T08:20:49Z</time>
      </trkpt>
      <trkpt lat="44.08227" lon="7.04085">
        <ele>1426.5</ele>
        <time>2012-12-28T08:20:59Z</time>
      </trkpt>
      <trkpt lat="44.08224" lon="7.04083">
        <ele>1427.2</ele>
        <time>2012-12-28T08:21:02Z</time>
      </trkpt>
      <trkpt lat="44.08224" lon="7.04083">
        <ele>1427.2</ele>
        <time>2012-12-28T08:21:03Z</time>
      </trkpt>
      <trkpt lat="44.08223" lon="7.04083">
        <ele>1427.7</ele>
        <time>2012-12-28T08:21:04Z</time>
      </trkpt>
      <trkpt lat="44.08222" lon="7.04083">
        <ele>1428.1</ele>
        <time>2012-12-28T08:21:05Z</time>
      </trkpt>
      <trkpt lat="44.08221" lon="7.04082">
        <ele>1428.1</ele>
        <time>2012-12-28T08:21:06Z</time>
      </trkpt>
      <trkpt lat="44.0822" lon="7.04081">
        <ele>1428.3</ele>
        <time>2012-12-28T08:21:07Z</time>
      </trkpt>
      <trkpt lat="44.08219" lon="7.0408">
        <ele>1428.3</ele>
        <time>2012-12-28T08:21:08Z</time>
      </trkpt>
      <trkpt lat="44.08218" lon="7.04079">
        <ele>1428.3</ele>
        <time>2012-12-28T08:21:09Z</time>
      </trkpt>
      <trkpt lat="44.08217" lon="7.04078">
        <ele>1428.6</ele>
        <time>2012-12-28T08:21:10Z</time>
      </trkpt>
      <trkpt lat="44.08212" lon="7.04075">
        <ele>1428.9</ele>
        <time>2012-12-28T08:21:16Z</time>
      </trkpt>
      <trkpt lat="44.08212" lon="7.04075">
        <ele>1429</ele>
        <time>2012-12-28T08:21:17Z</time>
      </trkpt>
      <trkpt lat="44.08211" lon="7.04074">
        <ele>1428.9</ele>
        <time>2012-12-28T08:21:18Z</time>
      </trkpt>
      <trkpt lat="44.0821" lon="7.04074">
        <ele>1428.7</ele>
        <time>2012-12-28T08:21:19Z</time>
      </trkpt>
      <trkpt lat="44.08209" lon="7.04074">
        <ele>1429</ele>
        <time>2012-12-28T08:21:20Z</time>
      </trkpt>
      <trkpt lat="44.08207" lon="7.04072">
        <ele>1429.3</ele>
        <time>2012-12-28T08:21:25Z</time>
      </trkpt>
      <trkpt lat="44.08206" lon="7.04071">
        <ele>1429.5</ele>
        <time>2012-12-28T08:21:27Z</time>
      </trkpt>
      <trkpt lat="44.08205" lon="7.04071">
        <ele>1429.8</ele>
        <time>2012-12-28T08:21:28Z</time>
      </trkpt>
      <trkpt lat="44.08205" lon="7.04071">
        <ele>1430.1</ele>
        <time>2012-12-28T08:21:30Z</time>
      </trkpt>
      <trkpt lat="44.08204" lon="7.0407">
        <ele>1430.1</ele>
        <time>2012-12-28T08:21:31Z</time>
      </trkpt>
      <trkpt lat="44.08203" lon="7.04069">
        <ele>1430.1</ele>
        <time>2012-12-28T08:21:32Z</time>
      </trkpt>
      <trkpt lat="44.08201" lon="7.04069">
        <ele>1429.9</ele>
        <time>2012-12-28T08:21:33Z</time>
      </trkpt>
      <trkpt lat="44.082" lon="7.04068">
        <ele>1429.8</ele>
        <time>2012-12-28T08:21:34Z</time>
      </trkpt>
      <trkpt lat="44.08199" lon="7.04068">
        <ele>1429.6</ele>
        <time>2012-12-28T08:21:35Z</time>
      </trkpt>
      <trkpt lat="44.08199" lon="7.04068">
        <ele>1429.4</ele>
        <time>2012-12-28T08:21:36Z</time>
      </trkpt>
      <trkpt lat="44.08198" lon="7.04067">
        <ele>1429.2</ele>
        <time>2012-12-28T08:21:37Z</time>
      </trkpt>
      <trkpt lat="44.0819" lon="7.04054">
        <ele>1430.9</ele>
        <time>2012-12-28T08:21:58Z</time>
      </trkpt>
      <trkpt lat="44.0819" lon="7.04053">
        <ele>1431.1</ele>
        <time>2012-12-28T08:22:02Z</time>
      </trkpt>
      <trkpt lat="44.08189" lon="7.04053">
        <ele>1431.4</ele>
        <time>2012-12-28T08:22:04Z</time>
      </trkpt>
      <trkpt lat="44.08189" lon="7.04049">
        <ele>1432.8</ele>
        <time>2012-12-28T08:22:07Z</time>
      </trkpt>
      <trkpt lat="44.08189" lon="7.04048">
        <ele>1433.1</ele>
        <time>2012-12-28T08:22:08Z</time>
      </trkpt>
      <trkpt lat="44.08188" lon="7.04047">
        <ele>1433.6</ele>
        <time>2012-12-28T08:22:09Z</time>
      </trkpt>
      <trkpt lat="44.08188" lon="7.04046">
        <ele>1433.4</ele>
        <time>2012-12-28T08:22:10Z</time>
      </trkpt>
      <trkpt lat="44.08186" lon="7.04045">
        <ele>1433.6</ele>
        <time>2012-12-28T08:22:13Z</time>
      </trkpt>
      <trkpt lat="44.08186" lon="7.04045">
        <ele>1433.6</ele>
        <time>2012-12-28T08:22:14Z</time>
      </trkpt>
      <trkpt lat="44.08186" lon="7.04043">
        <ele>1433.3</ele>
        <time>2012-12-28T08:22:15Z</time>
      </trkpt>
      <trkpt lat="44.08186" lon="7.04043">
        <ele>1433.3</ele>
        <time>2012-12-28T08:22:16Z</time>
      </trkpt>
      <trkpt lat="44.08186" lon="7.04043">
        <ele>1433.4</ele>
        <time>2012-12-28T08:22:17Z</time>
      </trkpt>
      <trkpt lat="44.08185" lon="7.04037">
        <ele>1432.8</ele>
        <time>2012-12-28T08:22:22Z</time>
      </trkpt>
      <trkpt lat="44.08185" lon="7.04035">
        <ele>1432.1</ele>
        <time>2012-12-28T08:22:23Z</time>
      </trkpt>
      <trkpt lat="44.08184" lon="7.04033">
        <ele>1432</ele>
        <time>2012-12-28T08:22:40Z</time>
      </trkpt>
      <trkpt lat="44.08183" lon="7.04032">
        <ele>1432.3</ele>
        <time>2012-12-28T08:22:41Z</time>
      </trkpt>
      <trkpt lat="44.08182" lon="7.04031">
        <ele>1432.2</ele>
        <time>2012-12-28T08:22:42Z</time>
      </trkpt>
      <trkpt lat="44.08182" lon="7.0403">
        <ele>1432.5</ele>
        <time>2012-12-28T08:22:43Z</time>
      </trkpt>
      <trkpt lat="44.08181" lon="7.04029">
        <ele>1432.4</ele>
        <time>2012-12-28T08:22:44Z</time>
      </trkpt>
      <trkpt lat="44.0818" lon="7.04027">
        <ele>1432.7</ele>
        <time>2012-12-28T08:22:45Z</time>
      </trkpt>
      <trkpt lat="44.0818" lon="7.04026">
        <ele>1432.2</ele>
        <time>2012-12-28T08:22:46Z</time>
      </trkpt>
      <trkpt lat="44.08179" lon="7.04025">
        <ele>1432.1</ele>
        <time>2012-12-28T08:22:47Z</time>
      </trkpt>
      <trkpt lat="44.08172" lon="7.04016">
        <ele>1432.4</ele>
        <time>2012-12-28T08:22:59Z</time>
      </trkpt>
      <trkpt lat="44.08171" lon="7.04015">
        <ele>1432.2</ele>
        <time>2012-12-28T08:23:00Z</time>
      </trkpt>
      <trkpt lat="44.0817" lon="7.04014">
        <ele>1432.3</ele>
        <time>2012-12-28T08:23:01Z</time>
      </trkpt>
      <trkpt lat="44.0817" lon="7.04014">
        <ele>1432.3</ele>
        <time>2012-12-28T08:23:02Z</time>
      </trkpt>
      <trkpt lat="44.0817" lon="7.04014">
        <ele>1432.7</ele>
        <time>2012-12-28T08:23:03Z</time>
      </trkpt>
      <trkpt lat="44.08168" lon="7.04014">
        <ele>1432.4</ele>
        <time>2012-12-28T08:23:04Z</time>
      </trkpt>
      <trkpt lat="44.08166" lon="7.04012">
        <ele>1432.8</ele>
        <time>2012-12-28T08:23:06Z</time>
      </trkpt>
      <trkpt lat="44.08165" lon="7.04012">
        <ele>1432.7</ele>
        <time>2012-12-28T08:23:07Z</time>
      </trkpt>
      <trkpt lat="44.08164" lon="7.04012">
        <ele>1432.9</ele>
        <time>2012-12-28T08:23:08Z</time>
      </trkpt>
      <trkpt lat="44.08163" lon="7.04011">
        <ele>1432.7</ele>
        <time>2012-12-28T08:23:09Z</time>
      </trkpt>
      <trkpt lat="44.0816" lon="7.0401">
        <ele>1432.5</ele>
        <time>2012-12-28T08:23:11Z</time>
      </trkpt>
      <trkpt lat="44.08159" lon="7.04009">
        <ele>1432.5</ele>
        <time>2012-12-28T08:23:12Z</time>
      </trkpt>
      <trkpt lat="44.08156" lon="7.04007">
        <ele>1432</ele>
        <time>2012-12-28T08:23:16Z</time>
      </trkpt>
      <trkpt lat="44.08155" lon="7.04007">
        <ele>1432.3</ele>
        <time>2012-12-28T08:23:17Z</time>
      </trkpt>
      <trkpt lat="44.08152" lon="7.04006">
        <ele>1433.1</ele>
        <time>2012-12-28T08:23:20Z</time>
      </trkpt>
      <trkpt lat="44.08151" lon="7.04005">
        <ele>1433.1</ele>
        <time>2012-12-28T08:23:21Z</time>
      </trkpt>
      <trkpt lat="44.08151" lon="7.04004">
        <ele>1433.2</ele>
        <time>2012-12-28T08:23:22Z</time>
      </trkpt>
      <trkpt lat="44.08151" lon="7.04004">
        <ele>1433.2</ele>
        <time>2012-12-28T08:23:23Z</time>
      </trkpt>
      <trkpt lat="44.0815" lon="7.04004">
        <ele>1433.4</ele>
        <time>2012-12-28T08:23:24Z</time>
      </trkpt>
      <trkpt lat="44.0815" lon="7.04004">
        <ele>1433.5</ele>
        <time>2012-12-28T08:23:25Z</time>
      </trkpt>
      <trkpt lat="44.08148" lon="7.04003">
        <ele>1434</ele>
        <time>2012-12-28T08:23:27Z</time>
      </trkpt>
      <trkpt lat="44.08147" lon="7.04002">
        <ele>1434.5</ele>
        <time>2012-12-28T08:23:28Z</time>
      </trkpt>
      <trkpt lat="44.08144" lon="7.03998">
        <ele>1436</ele>
        <time>2012-12-28T08:23:38Z</time>
      </trkpt>
      <trkpt lat="44.08144" lon="7.03997">
        <ele>1435.7</ele>
        <time>2012-12-28T08:23:39Z</time>
      </trkpt>
      <trkpt lat="44.08143" lon="7.03997">
        <ele>1435.7</ele>
        <time>2012-12-28T08:23:40Z</time>
      </trkpt>
      <trkpt lat="44.08143" lon="7.03996">
        <ele>1435.6</ele>
        <time>2012-12-28T08:23:41Z</time>
      </trkpt>
      <trkpt lat="44.08142" lon="7.03996">
        <ele>1435.5</ele>
        <time>2012-12-28T08:23:42Z</time>
      </trkpt>
      <trkpt lat="44.08136" lon="7.0399">
        <ele>1435.1</ele>
        <time>2012-12-28T08:23:54Z</time>
      </trkpt>
      <trkpt lat="44.08135" lon="7.03989">
        <ele>1435</ele>
        <time>2012-12-28T08:23:55Z</time>
      </trkpt>
      <trkpt lat="44.08134" lon="7.03988">
        <ele>1435.1</ele>
        <time>2012-12-28T08:23:56Z</time>
      </trkpt>
      <trkpt lat="44.08133" lon="7.03988">
        <ele>1435.3</ele>
        <time>2012-12-28T08:23:57Z</time>
      </trkpt>
      <trkpt lat="44.08133" lon="7.03988">
        <ele>1435.3</ele>
        <time>2012-12-28T08:23:58Z</time>
      </trkpt>
      <trkpt lat="44.08132" lon="7.03988">
        <ele>1435.4</ele>
        <time>2012-12-28T08:23:59Z</time>
      </trkpt>
      <trkpt lat="44.08118" lon="7.03986">
        <ele>1437.8</ele>
        <time>2012-12-28T08:24:17Z</time>
      </trkpt>
      <trkpt lat="44.08117" lon="7.03986">
        <ele>1438</ele>
        <time>2012-12-28T08:24:18Z</time>
      </trkpt>
      <trkpt lat="44.08116" lon="7.03986">
        <ele>1438</ele>
        <time>2012-12-28T08:24:19Z</time>
      </trkpt>
      <trkpt lat="44.08113" lon="7.03986">
        <ele>1438.2</ele>
        <time>2012-12-28T08:24:21Z</time>
      </trkpt>
      <trkpt lat="44.0811" lon="7.03985">
        <ele>1439.8</ele>
        <time>2012-12-28T08:25:08Z</time>
      </trkpt>
      <trkpt lat="44.08109" lon="7.03984">
        <ele>1439.7</ele>
        <time>2012-12-28T08:25:09Z</time>
      </trkpt>
      <trkpt lat="44.08108" lon="7.03983">
        <ele>1439.8</ele>
        <time>2012-12-28T08:25:10Z</time>
      </trkpt>
      <trkpt lat="44.08108" lon="7.03982">
        <ele>1440</ele>
        <time>2012-12-28T08:25:11Z</time>
      </trkpt>
      <trkpt lat="44.08107" lon="7.03981">
        <ele>1440.4</ele>
        <time>2012-12-28T08:25:12Z</time>
      </trkpt>
      <trkpt lat="44.08106" lon="7.0398">
        <ele>1440.5</ele>
        <time>2012-12-28T08:25:13Z</time>
      </trkpt>
      <trkpt lat="44.08105" lon="7.03979">
        <ele>1440.4</ele>
        <time>2012-12-28T08:25:14Z</time>
      </trkpt>
      <trkpt lat="44.08105" lon="7.03978">
        <ele>1440.6</ele>
        <time>2012-12-28T08:25:15Z</time>
      </trkpt>
      <trkpt lat="44.08104" lon="7.03977">
        <ele>1440.4</ele>
        <time>2012-12-28T08:25:16Z</time>
      </trkpt>
      <trkpt lat="44.08103" lon="7.03976">
        <ele>1440.8</ele>
        <time>2012-12-28T08:25:17Z</time>
      </trkpt>
      <trkpt lat="44.08102" lon="7.03976">
        <ele>1440.9</ele>
        <time>2012-12-28T08:25:18Z</time>
      </trkpt>
      <trkpt lat="44.08101" lon="7.03975">
        <ele>1440.6</ele>
        <time>2012-12-28T08:25:19Z</time>
      </trkpt>
      <trkpt lat="44.08098" lon="7.03971">
        <ele>1440.2</ele>
        <time>2012-12-28T08:25:24Z</time>
      </trkpt>
      <trkpt lat="44.08098" lon="7.03971">
        <ele>1440.2</ele>
        <time>2012-12-28T08:25:25Z</time>
      </trkpt>
      <trkpt lat="44.08098" lon="7.03971">
        <ele>1440.4</ele>
        <time>2012-12-28T08:25:26Z</time>
      </trkpt>
      <trkpt lat="44.08095" lon="7.03965">
        <ele>1440.3</ele>
        <time>2012-12-28T08:25:31Z</time>
      </trkpt>
      <trkpt lat="44.08094" lon="7.03964">
        <ele>1440.7</ele>
        <time>2012-12-28T08:25:32Z</time>
      </trkpt>
      <trkpt lat="44.08093" lon="7.0396">
        <ele>1441</ele>
        <time>2012-12-28T08:25:38Z</time>
      </trkpt>
      <trkpt lat="44.08093" lon="7.0396">
        <ele>1441</ele>
        <time>2012-12-28T08:25:39Z</time>
      </trkpt>
      <trkpt lat="44.08092" lon="7.0396">
        <ele>1440.9</ele>
        <time>2012-12-28T08:25:40Z</time>
      </trkpt>
      <trkpt lat="44.08092" lon="7.0396">
        <ele>1440.9</ele>
        <time>2012-12-28T08:25:41Z</time>
      </trkpt>
      <trkpt lat="44.08092" lon="7.03959">
        <ele>1440.9</ele>
        <time>2012-12-28T08:25:42Z</time>
      </trkpt>
      <trkpt lat="44.08091" lon="7.03957">
        <ele>1440.9</ele>
        <time>2012-12-28T08:25:44Z</time>
      </trkpt>
      <trkpt lat="44.08091" lon="7.03957">
        <ele>1440.9</ele>
        <time>2012-12-28T08:25:45Z</time>
      </trkpt>
      <trkpt lat="44.0809" lon="7.03956">
        <ele>1441.3</ele>
        <time>2012-12-28T08:25:46Z</time>
      </trkpt>
      <trkpt lat="44.0809" lon="7.03955">
        <ele>1441.3</ele>
        <time>2012-12-28T08:25:47Z</time>
      </trkpt>
      <trkpt lat="44.08089" lon="7.03953">
        <ele>1441.6</ele>
        <time>2012-12-28T08:25:48Z</time>
      </trkpt>
      <trkpt lat="44.08089" lon="7.03953">
        <ele>1441.6</ele>
        <time>2012-12-28T08:25:49Z</time>
      </trkpt>
      <trkpt lat="44.08088" lon="7.03953">
        <ele>1441.4</ele>
        <time>2012-12-28T08:25:50Z</time>
      </trkpt>
      <trkpt lat="44.08085" lon="7.0395">
        <ele>1442.2</ele>
        <time>2012-12-28T08:25:56Z</time>
      </trkpt>
      <trkpt lat="44.08085" lon="7.0395">
        <ele>1442.2</ele>
        <time>2012-12-28T08:25:57Z</time>
      </trkpt>
      <trkpt lat="44.08085" lon="7.03949">
        <ele>1442.2</ele>
        <time>2012-12-28T08:25:58Z</time>
      </trkpt>
      <trkpt lat="44.08084" lon="7.03947">
        <ele>1442.3</ele>
        <time>2012-12-28T08:25:59Z</time>
      </trkpt>
      <trkpt lat="44.08083" lon="7.03946">
        <ele>1442.6</ele>
        <time>2012-12-28T08:26:00Z</time>
      </trkpt>
      <trkpt lat="44.08082" lon="7.03945">
        <ele>1442.8</ele>
        <time>2012-12-28T08:26:02Z</time>
      </trkpt>
      <trkpt lat="44.08079" lon="7.03942">
        <ele>1443.5</ele>
        <time>2012-12-28T08:26:05Z</time>
      </trkpt>
      <trkpt lat="44.08076" lon="7.03938">
        <ele>1443.9</ele>
        <time>2012-12-28T08:26:09Z</time>
      </trkpt>
      <trkpt lat="44.08075" lon="7.03936">
        <ele>1443.9</ele>
        <time>2012-12-28T08:26:10Z</time>
      </trkpt>
      <trkpt lat="44.08074" lon="7.03935">
        <ele>1444.1</ele>
        <time>2012-12-28T08:26:11Z</time>
      </trkpt>
      <trkpt lat="44.08072" lon="7.03933">
        <ele>1444.5</ele>
        <time>2012-12-28T08:26:14Z</time>
      </trkpt>
      <trkpt lat="44.08071" lon="7.03933">
        <ele>1444.5</ele>
        <time>2012-12-28T08:26:15Z</time>
      </trkpt>
      <trkpt lat="44.0807" lon="7.03932">
        <ele>1444.9</ele>
        <time>2012-12-28T08:26:16Z</time>
      </trkpt>
      <trkpt lat="44.08065" lon="7.03924">
        <ele>1447.1</ele>
        <time>2012-12-28T08:26:24Z</time>
      </trkpt>
      <trkpt lat="44.08062" lon="7.03921">
        <ele>1447.9</ele>
        <time>2012-12-28T08:26:31Z</time>
      </trkpt>
      <trkpt lat="44.08061" lon="7.03921">
        <ele>1448</ele>
        <time>2012-12-28T08:26:32Z</time>
      </trkpt>
      <trkpt lat="44.0806" lon="7.0392">
        <ele>1448.2</ele>
        <time>2012-12-28T08:26:33Z</time>
      </trkpt>
      <trkpt lat="44.08059" lon="7.0392">
        <ele>1448.2</ele>
        <time>2012-12-28T08:26:34Z</time>
      </trkpt>
      <trkpt lat="44.08058" lon="7.0392">
        <ele>1448.2</ele>
        <time>2012-12-28T08:26:35Z</time>
      </trkpt>
      <trkpt lat="44.08058" lon="7.0392">
        <ele>1448.2</ele>
        <time>2012-12-28T08:26:36Z</time>
      </trkpt>
      <trkpt lat="44.08058" lon="7.03919">
        <ele>1448.1</ele>
        <time>2012-12-28T08:26:37Z</time>
      </trkpt>
      <trkpt lat="44.08058" lon="7.03919">
        <ele>1448.1</ele>
        <time>2012-12-28T08:26:38Z</time>
      </trkpt>
      <trkpt lat="44.08057" lon="7.03919">
        <ele>1448.1</ele>
        <time>2012-12-28T08:26:39Z</time>
      </trkpt>
      <trkpt lat="44.08052" lon="7.03915">
        <ele>1448.1</ele>
        <time>2012-12-28T08:27:03Z</time>
      </trkpt>
      <trkpt lat="44.08052" lon="7.03914">
        <ele>1448.1</ele>
        <time>2012-12-28T08:27:04Z</time>
      </trkpt>
      <trkpt lat="44.08052" lon="7.03912">
        <ele>1447.9</ele>
        <time>2012-12-28T08:27:05Z</time>
      </trkpt>
      <trkpt lat="44.08051" lon="7.0391">
        <ele>1447.7</ele>
        <time>2012-12-28T08:27:06Z</time>
      </trkpt>
      <trkpt lat="44.0805" lon="7.0391">
        <ele>1447.5</ele>
        <time>2012-12-28T08:27:07Z</time>
      </trkpt>
      <trkpt lat="44.08048" lon="7.03909">
        <ele>1447.7</ele>
        <time>2012-12-28T08:27:08Z</time>
      </trkpt>
      <trkpt lat="44.08047" lon="7.03909">
        <ele>1447.9</ele>
        <time>2012-12-28T08:27:09Z</time>
      </trkpt>
      <trkpt lat="44.08047" lon="7.03909">
        <ele>1447.9</ele>
        <time>2012-12-28T08:27:10Z</time>
      </trkpt>
      <trkpt lat="44.08047" lon="7.03909">
        <ele>1447.9</ele>
        <time>2012-12-28T08:27:11Z</time>
      </trkpt>
      <trkpt lat="44.08047" lon="7.03908">
        <ele>1447.2</ele>
        <time>2012-12-28T08:27:12Z</time>
      </trkpt>
      <trkpt lat="44.08046" lon="7.03906">
        <ele>1447</ele>
        <time>2012-12-28T08:27:13Z</time>
      </trkpt>
      <trkpt lat="44.08045" lon="7.03905">
        <ele>1446.9</ele>
        <time>2012-12-28T08:27:14Z</time>
      </trkpt>
      <trkpt lat="44.08041" lon="7.03902">
        <ele>1446.6</ele>
        <time>2012-12-28T08:27:18Z</time>
      </trkpt>
      <trkpt lat="44.0804" lon="7.03901">
        <ele>1446.9</ele>
        <time>2012-12-28T08:27:19Z</time>
      </trkpt>
      <trkpt lat="44.0804" lon="7.03901">
        <ele>1446.9</ele>
        <time>2012-12-28T08:27:20Z</time>
      </trkpt>
      <trkpt lat="44.08039" lon="7.039">
        <ele>1446.9</ele>
        <time>2012-12-28T08:27:21Z</time>
      </trkpt>
      <trkpt lat="44.08039" lon="7.039">
        <ele>1446.9</ele>
        <time>2012-12-28T08:27:22Z</time>
      </trkpt>
      <trkpt lat="44.08039" lon="7.039">
        <ele>1446.9</ele>
        <time>2012-12-28T08:27:23Z</time>
      </trkpt>
      <trkpt lat="44.08039" lon="7.03899">
        <ele>1447</ele>
        <time>2012-12-28T08:27:24Z</time>
      </trkpt>
      <trkpt lat="44.08038" lon="7.03896">
        <ele>1447.6</ele>
        <time>2012-12-28T08:27:26Z</time>
      </trkpt>
      <trkpt lat="44.08031" lon="7.03886">
        <ele>1448.8</ele>
        <time>2012-12-28T08:27:40Z</time>
      </trkpt>
      <trkpt lat="44.08031" lon="7.03886">
        <ele>1448.8</ele>
        <time>2012-12-28T08:27:41Z</time>
      </trkpt>
      <trkpt lat="44.0803" lon="7.03885">
        <ele>1449</ele>
        <time>2012-12-28T08:27:42Z</time>
      </trkpt>
      <trkpt lat="44.08029" lon="7.03884">
        <ele>1449.5</ele>
        <time>2012-12-28T08:27:43Z</time>
      </trkpt>
      <trkpt lat="44.08027" lon="7.03884">
        <ele>1449.4</ele>
        <time>2012-12-28T08:27:44Z</time>
      </trkpt>
      <trkpt lat="44.08026" lon="7.03884">
        <ele>1449.9</ele>
        <time>2012-12-28T08:27:45Z</time>
      </trkpt>
      <trkpt lat="44.08024" lon="7.03884">
        <ele>1450.1</ele>
        <time>2012-12-28T08:27:46Z</time>
      </trkpt>
      <trkpt lat="44.08024" lon="7.03884">
        <ele>1450.1</ele>
        <time>2012-12-28T08:27:47Z</time>
      </trkpt>
      <trkpt lat="44.08024" lon="7.03884">
        <ele>1450.4</ele>
        <time>2012-12-28T08:27:48Z</time>
      </trkpt>
      <trkpt lat="44.08023" lon="7.03883">
        <ele>1450.9</ele>
        <time>2012-12-28T08:27:49Z</time>
      </trkpt>
      <trkpt lat="44.08022" lon="7.03883">
        <ele>1451.8</ele>
        <time>2012-12-28T08:27:50Z</time>
      </trkpt>
      <trkpt lat="44.08021" lon="7.03884">
        <ele>1452.1</ele>
        <time>2012-12-28T08:27:51Z</time>
      </trkpt>
      <trkpt lat="44.08021" lon="7.03884">
        <ele>1452.1</ele>
        <time>2012-12-28T08:27:52Z</time>
      </trkpt>
      <trkpt lat="44.0802" lon="7.03883">
        <ele>1451.9</ele>
        <time>2012-12-28T08:27:53Z</time>
      </trkpt>
      <trkpt lat="44.08019" lon="7.03883">
        <ele>1452</ele>
        <time>2012-12-28T08:27:54Z</time>
      </trkpt>
      <trkpt lat="44.08018" lon="7.03882">
        <ele>1452.2</ele>
        <time>2012-12-28T08:27:55Z</time>
      </trkpt>
      <trkpt lat="44.08006" lon="7.03875">
        <ele>1453.3</ele>
        <time>2012-12-28T08:28:13Z</time>
      </trkpt>
      <trkpt lat="44.08005" lon="7.03874">
        <ele>1453.2</ele>
        <time>2012-12-28T08:28:14Z</time>
      </trkpt>
      <trkpt lat="44.08" lon="7.03871">
        <ele>1453.9</ele>
        <time>2012-12-28T08:28:22Z</time>
      </trkpt>
      <trkpt lat="44.08" lon="7.03871">
        <ele>1453.9</ele>
        <time>2012-12-28T08:28:23Z</time>
      </trkpt>
      <trkpt lat="44.08" lon="7.03871">
        <ele>1454</ele>
        <time>2012-12-28T08:28:24Z</time>
      </trkpt>
      <trkpt lat="44.08" lon="7.03871">
        <ele>1454</ele>
        <time>2012-12-28T08:28:25Z</time>
      </trkpt>
      <trkpt lat="44.08" lon="7.03871">
        <ele>1454</ele>
        <time>2012-12-28T08:28:26Z</time>
      </trkpt>
      <trkpt lat="44.08" lon="7.03871">
        <ele>1454</ele>
        <time>2012-12-28T08:28:27Z</time>
      </trkpt>
      <trkpt lat="44.08" lon="7.03871">
        <ele>1454</ele>
        <time>2012-12-28T08:28:28Z</time>
      </trkpt>
      <trkpt lat="44.08" lon="7.03871">
        <ele>1454</ele>
        <time>2012-12-28T08:28:29Z</time>
      </trkpt>
      <trkpt lat="44.08" lon="7.03871">
        <ele>1454</ele>
        <time>2012-12-28T08:28:30Z</time>
      </trkpt>
      <trkpt lat="44.07999" lon="7.0387">
        <ele>1453.9</ele>
        <time>2012-12-28T08:28:31Z</time>
      </trkpt>
      <trkpt lat="44.07999" lon="7.0387">
        <ele>1453.9</ele>
        <time>2012-12-28T08:28:32Z</time>
      </trkpt>
      <trkpt lat="44.07999" lon="7.0387">
        <ele>1453.9</ele>
        <time>2012-12-28T08:28:33Z</time>
      </trkpt>
      <trkpt lat="44.07999" lon="7.0387">
        <ele>1453.8</ele>
        <time>2012-12-28T08:28:34Z</time>
      </trkpt>
      <trkpt lat="44.07999" lon="7.0387">
        <ele>1453.8</ele>
        <time>2012-12-28T08:28:35Z</time>
      </trkpt>
      <trkpt lat="44.07999" lon="7.0387">
        <ele>1453.8</ele>
        <time>2012-12-28T08:28:36Z</time>
      </trkpt>
      <trkpt lat="44.07999" lon="7.0387">
        <ele>1453.8</ele>
        <time>2012-12-28T08:28:37Z</time>
      </trkpt>
      <trkpt lat="44.07999" lon="7.0387">
        <ele>1453.8</ele>
        <time>2012-12-28T08:28:38Z</time>
      </trkpt>
      <trkpt lat="44.07999" lon="7.0387">
        <ele>1453.8</ele>
        <time>2012-12-28T08:28:39Z</time>
      </trkpt>
      <trkpt lat="44.07999" lon="7.0387">
        <ele>1453.8</ele>
        <time>2012-12-28T08:28:40Z</time>
      </trkpt>
      <trkpt lat="44.07999" lon="7.0387">
        <ele>1453.8</ele>
        <time>2012-12-28T08:28:41Z</time>
      </trkpt>
      <trkpt lat="44.07999" lon="7.0387">
        <ele>1453.8</ele>
        <time>2012-12-28T08:28:42Z</time>
      </trkpt>
      <trkpt lat="44.07999" lon="7.0387">
        <ele>1453.8</ele>
        <time>2012-12-28T08:28:43Z</time>
      </trkpt>
      <trkpt lat="44.07999" lon="7.0387">
        <ele>1453.8</ele>
        <time>2012-12-28T08:28:44Z</time>
      </trkpt>
      <trkpt lat="44.07999" lon="7.0387">
        <ele>1453.8</ele>
        <time>2012-12-28T08:28:45Z</time>
      </trkpt>
      <trkpt lat="44.07999" lon="7.0387">
        <ele>1453.8</ele>
        <time>2012-12-28T08:28:46Z</time>
      </trkpt>
      <trkpt lat="44.07998" lon="7.0387">
        <ele>1454</ele>
        <time>2012-12-28T08:28:47Z</time>
      </trkpt>
      <trkpt lat="44.07997" lon="7.03869">
        <ele>1454</ele>
        <time>2012-12-28T08:28:48Z</time>
      </trkpt>
      <trkpt lat="44.07996" lon="7.03868">
        <ele>1454.2</ele>
        <time>2012-12-28T08:28:49Z</time>
      </trkpt>
      <trkpt lat="44.07993" lon="7.03866">
        <ele>1454.7</ele>
        <time>2012-12-28T08:28:58Z</time>
      </trkpt>
      <trkpt lat="44.07992" lon="7.03865">
        <ele>1454.8</ele>
        <time>2012-12-28T08:28:59Z</time>
      </trkpt>
      <trkpt lat="44.07992" lon="7.03865">
        <ele>1454.8</ele>
        <time>2012-12-28T08:29:00Z</time>
      </trkpt>
      <trkpt lat="44.07992" lon="7.03865">
        <ele>1454.8</ele>
        <time>2012-12-28T08:29:01Z</time>
      </trkpt>
      <trkpt lat="44.07991" lon="7.03865">
        <ele>1454.5</ele>
        <time>2012-12-28T08:29:02Z</time>
      </trkpt>
      <trkpt lat="44.0799" lon="7.03864">
        <ele>1454.2</ele>
        <time>2012-12-28T08:29:03Z</time>
      </trkpt>
      <trkpt lat="44.07989" lon="7.03864">
        <ele>1454.3</ele>
        <time>2012-12-28T08:29:04Z</time>
      </trkpt>
      <trkpt lat="44.07988" lon="7.03863">
        <ele>1454.5</ele>
        <time>2012-12-28T08:29:05Z</time>
      </trkpt>
      <trkpt lat="44.07986" lon="7.03862">
        <ele>1454.9</ele>
        <time>2012-12-28T08:29:06Z</time>
      </trkpt>
      <trkpt lat="44.07985" lon="7.03861">
        <ele>1455</ele>
        <time>2012-12-28T08:29:07Z</time>
      </trkpt>
      <trkpt lat="44.07985" lon="7.03861">
        <ele>1455</ele>
        <time>2012-12-28T08:29:08Z</time>
      </trkpt>
      <trkpt lat="44.07985" lon="7.03861">
        <ele>1455</ele>
        <time>2012-12-28T08:29:09Z</time>
      </trkpt>
      <trkpt lat="44.07984" lon="7.0386">
        <ele>1455</ele>
        <time>2012-12-28T08:29:10Z</time>
      </trkpt>
      <trkpt lat="44.07984" lon="7.0386">
        <ele>1455</ele>
        <time>2012-12-28T08:29:11Z</time>
      </trkpt>
      <trkpt lat="44.07984" lon="7.0386">
        <ele>1455.1</ele>
        <time>2012-12-28T08:29:12Z</time>
      </trkpt>
      <trkpt lat="44.07984" lon="7.0386">
        <ele>1455.1</ele>
        <time>2012-12-28T08:29:13Z</time>
      </trkpt>
      <trkpt lat="44.07983" lon="7.03859">
        <ele>1455.5</ele>
        <time>2012-12-28T08:29:14Z</time>
      </trkpt>
      <trkpt lat="44.07983" lon="7.03859">
        <ele>1455.5</ele>
        <time>2012-12-28T08:29:15Z</time>
      </trkpt>
      <trkpt lat="44.07983" lon="7.03859">
        <ele>1455.5</ele>
        <time>2012-12-28T08:29:16Z</time>
      </trkpt>
      <trkpt lat="44.07982" lon="7.03858">
        <ele>1456.2</ele>
        <time>2012-12-28T08:29:17Z</time>
      </trkpt>
      <trkpt lat="44.07981" lon="7.03857">
        <ele>1456.8</ele>
        <time>2012-12-28T08:29:18Z</time>
      </trkpt>
      <trkpt lat="44.0798" lon="7.03856">
        <ele>1457.6</ele>
        <time>2012-12-28T08:29:19Z</time>
      </trkpt>
      <trkpt lat="44.0798" lon="7.03856">
        <ele>1457.6</ele>
        <time>2012-12-28T08:29:20Z</time>
      </trkpt>
      <trkpt lat="44.07979" lon="7.03855">
        <ele>1457.9</ele>
        <time>2012-12-28T08:29:21Z</time>
      </trkpt>
      <trkpt lat="44.07978" lon="7.03854">
        <ele>1458.6</ele>
        <time>2012-12-28T08:29:22Z</time>
      </trkpt>
      <trkpt lat="44.07976" lon="7.03851">
        <ele>1459.8</ele>
        <time>2012-12-28T08:29:24Z</time>
      </trkpt>
      <trkpt lat="44.07976" lon="7.03851">
        <ele>1459.8</ele>
        <time>2012-12-28T08:29:25Z</time>
      </trkpt>
      <trkpt lat="44.07976" lon="7.03851">
        <ele>1459.8</ele>
        <time>2012-12-28T08:29:26Z</time>
      </trkpt>
      <trkpt lat="44.07975" lon="7.03851">
        <ele>1459.9</ele>
        <time>2012-12-28T08:29:27Z</time>
      </trkpt>
      <trkpt lat="44.07974" lon="7.0385">
        <ele>1460.4</ele>
        <time>2012-12-28T08:29:28Z</time>
      </trkpt>
      <trkpt lat="44.07973" lon="7.03849">
        <ele>1460.2</ele>
        <time>2012-12-28T08:29:29Z</time>
      </trkpt>
      <trkpt lat="44.07972" lon="7.03848">
        <ele>1460.5</ele>
        <time>2012-12-28T08:29:30Z</time>
      </trkpt>
      <trkpt lat="44.07972" lon="7.03847">
        <ele>1460.6</ele>
        <time>2012-12-28T08:29:31Z</time>
      </trkpt>
      <trkpt lat="44.07971" lon="7.03845">
        <ele>1460.6</ele>
        <time>2012-12-28T08:29:32Z</time>
      </trkpt>
      <trkpt lat="44.0797" lon="7.03844">
        <ele>1460.7</ele>
        <time>2012-12-28T08:29:33Z</time>
      </trkpt>
      <trkpt lat="44.07968" lon="7.03844">
        <ele>1460.9</ele>
        <time>2012-12-28T08:29:34Z</time>
      </trkpt>
      <trkpt lat="44.07967" lon="7.03843">
        <ele>1461.4</ele>
        <time>2012-12-28T08:29:35Z</time>
      </trkpt>
      <trkpt lat="44.07967" lon="7.03843">
        <ele>1461.4</ele>
        <time>2012-12-28T08:29:36Z</time>
      </trkpt>
      <trkpt lat="44.07966" lon="7.03842">
        <ele>1461.8</ele>
        <time>2012-12-28T08:29:37Z</time>
      </trkpt>
      <trkpt lat="44.07966" lon="7.03842">
        <ele>1461.8</ele>
        <time>2012-12-28T08:29:38Z</time>
      </trkpt>
      <trkpt lat="44.07966" lon="7.03842">
        <ele>1461.8</ele>
        <time>2012-12-28T08:29:39Z</time>
      </trkpt>
      <trkpt lat="44.07965" lon="7.03842">
        <ele>1461.6</ele>
        <time>2012-12-28T08:29:40Z</time>
      </trkpt>
      <trkpt lat="44.07965" lon="7.03842">
        <ele>1461.6</ele>
        <time>2012-12-28T08:29:41Z</time>
      </trkpt>
      <trkpt lat="44.07965" lon="7.03842">
        <ele>1461.6</ele>
        <time>2012-12-28T08:29:42Z</time>
      </trkpt>
      <trkpt lat="44.07965" lon="7.03842">
        <ele>1461.6</ele>
        <time>2012-12-28T08:29:43Z</time>
      </trkpt>
      <trkpt lat="44.07964" lon="7.0384">
        <ele>1461.2</ele>
        <time>2012-12-28T08:29:44Z</time>
      </trkpt>
      <trkpt lat="44.07963" lon="7.03839">
        <ele>1461.7</ele>
        <time>2012-12-28T08:29:45Z</time>
      </trkpt>
      <trkpt lat="44.07962" lon="7.03839">
        <ele>1461.7</ele>
        <time>2012-12-28T08:29:46Z</time>
      </trkpt>
      <trkpt lat="44.07962" lon="7.03839">
        <ele>1461.7</ele>
        <time>2012-12-28T08:29:47Z</time>
      </trkpt>
      <trkpt lat="44.07962" lon="7.03839">
        <ele>1461.7</ele>
        <time>2012-12-28T08:29:48Z</time>
      </trkpt>
      <trkpt lat="44.07962" lon="7.03839">
        <ele>1461.7</ele>
        <time>2012-12-28T08:29:49Z</time>
      </trkpt>
      <trkpt lat="44.07962" lon="7.03839">
        <ele>1461.7</ele>
        <time>2012-12-28T08:29:50Z</time>
      </trkpt>
      <trkpt lat="44.07962" lon="7.03839">
        <ele>1461.7</ele>
        <time>2012-12-28T08:29:51Z</time>
      </trkpt>
      <trkpt lat="44.07962" lon="7.03839">
        <ele>1461.7</ele>
        <time>2012-12-28T08:29:52Z</time>
      </trkpt>
      <trkpt lat="44.07962" lon="7.03839">
        <ele>1461.7</ele>
        <time>2012-12-28T08:29:53Z</time>
      </trkpt>
      <trkpt lat="44.07962" lon="7.03839">
        <ele>1461.7</ele>
        <time>2012-12-28T08:29:54Z</time>
      </trkpt>
      <trkpt lat="44.07962" lon="7.03839">
        <ele>1461.7</ele>
        <time>2012-12-28T08:29:55Z</time>
      </trkpt>
      <trkpt lat="44.07962" lon="7.03839">
        <ele>1461.7</ele>
        <time>2012-12-28T08:29:56Z</time>
      </trkpt>
      <trkpt lat="44.07961" lon="7.03839">
        <ele>1462.1</ele>
        <time>2012-12-28T08:29:57Z</time>
      </trkpt>
      <trkpt lat="44.0796" lon="7.03838">
        <ele>1462.7</ele>
        <time>2012-12-28T08:29:58Z</time>
      </trkpt>
      <trkpt lat="44.07959" lon="7.03837">
        <ele>1463</ele>
        <time>2012-12-28T08:29:59Z</time>
      </trkpt>
      <trkpt lat="44.07958" lon="7.03837">
        <ele>1463</ele>
        <time>2012-12-28T08:30:00Z</time>
      </trkpt>
      <trkpt lat="44.07957" lon="7.03836">
        <ele>1463.1</ele>
        <time>2012-12-28T08:30:01Z</time>
      </trkpt>
      <trkpt lat="44.07956" lon="7.03835">
        <ele>1462.8</ele>
        <time>2012-12-28T08:30:02Z</time>
      </trkpt>
      <trkpt lat="44.07956" lon="7.03835">
        <ele>1462.8</ele>
        <time>2012-12-28T08:30:03Z</time>
      </trkpt>
      <trkpt lat="44.07956" lon="7.03835">
        <ele>1462.8</ele>
        <time>2012-12-28T08:30:04Z</time>
      </trkpt>
      <trkpt lat="44.07956" lon="7.03835">
        <ele>1462.8</ele>
        <time>2012-12-28T08:30:05Z</time>
      </trkpt>
      <trkpt lat="44.07956" lon="7.03835">
        <ele>1462.8</ele>
        <time>2012-12-28T08:30:06Z</time>
      </trkpt>
      <trkpt lat="44.07956" lon="7.03835">
        <ele>1462.8</ele>
        <time>2012-12-28T08:30:07Z</time>
      </trkpt>
      <trkpt lat="44.07956" lon="7.03835">
        <ele>1462.8</ele>
        <time>2012-12-28T08:30:08Z</time>
      </trkpt>
      <trkpt lat="44.07956" lon="7.03835">
        <ele>1462.8</ele>
        <time>2012-12-28T08:30:09Z</time>
      </trkpt>
      <trkpt lat="44.07956" lon="7.03835">
        <ele>1462.8</ele>
        <time>2012-12-28T08:30:10Z</time>
      </trkpt>
      <trkpt lat="44.07956" lon="7.03835">
        <ele>1462.8</ele>
        <time>2012-12-28T08:30:11Z</time>
      </trkpt>
      <trkpt lat="44.07956" lon="7.03835">
        <ele>1463.1</ele>
        <time>2012-12-28T08:30:12Z</time>
      </trkpt>
      <trkpt lat="44.07951" lon="7.03833">
        <ele>1464.4</ele>
        <time>2012-12-28T08:30:16Z</time>
      </trkpt>
      <trkpt lat="44.0795" lon="7.03832">
        <ele>1464.3</ele>
        <time>2012-12-28T08:30:17Z</time>
      </trkpt>
      <trkpt lat="44.07948" lon="7.03831">
        <ele>1464.6</ele>
        <time>2012-12-28T08:30:18Z</time>
      </trkpt>
      <trkpt lat="44.07946" lon="7.0383">
        <ele>1464.8</ele>
        <time>2012-12-28T08:30:20Z</time>
      </trkpt>
      <trkpt lat="44.07945" lon="7.03829">
        <ele>1465.1</ele>
        <time>2012-12-28T08:30:21Z</time>
      </trkpt>
      <trkpt lat="44.07944" lon="7.03829">
        <ele>1464.9</ele>
        <time>2012-12-28T08:30:22Z</time>
      </trkpt>
      <trkpt lat="44.07941" lon="7.03828">
        <ele>1464.9</ele>
        <time>2012-12-28T08:30:24Z</time>
      </trkpt>
      <trkpt lat="44.0794" lon="7.03828">
        <ele>1465.2</ele>
        <time>2012-12-28T08:30:25Z</time>
      </trkpt>
      <trkpt lat="44.07936" lon="7.03827">
        <ele>1465.2</ele>
        <time>2012-12-28T08:30:28Z</time>
      </trkpt>
      <trkpt lat="44.07924" lon="7.03817">
        <ele>1469.4</ele>
        <time>2012-12-28T08:30:45Z</time>
      </trkpt>
      <trkpt lat="44.07923" lon="7.03816">
        <ele>1469.3</ele>
        <time>2012-12-28T08:30:46Z</time>
      </trkpt>
      <trkpt lat="44.07922" lon="7.03816">
        <ele>1469.3</ele>
        <time>2012-12-28T08:30:47Z</time>
      </trkpt>
      <trkpt lat="44.07921" lon="7.03815">
        <ele>1469.3</ele>
        <time>2012-12-28T08:30:48Z</time>
      </trkpt>
      <trkpt lat="44.07921" lon="7.03814">
        <ele>1469.5</ele>
        <time>2012-12-28T08:30:49Z</time>
      </trkpt>
      <trkpt lat="44.07921" lon="7.03812">
        <ele>1470</ele>
        <time>2012-12-28T08:30:50Z</time>
      </trkpt>
      <trkpt lat="44.0792" lon="7.03811">
        <ele>1470.2</ele>
        <time>2012-12-28T08:30:51Z</time>
      </trkpt>
      <trkpt lat="44.07919" lon="7.0381">
        <ele>1470.3</ele>
        <time>2012-12-28T08:30:52Z</time>
      </trkpt>
      <trkpt lat="44.07919" lon="7.03809">
        <ele>1470.5</ele>
        <time>2012-12-28T08:30:53Z</time>
      </trkpt>
      <trkpt lat="44.07918" lon="7.03808">
        <ele>1471</ele>
        <time>2012-12-28T08:30:54Z</time>
      </trkpt>
      <trkpt lat="44.07917" lon="7.03806">
        <ele>1471.6</ele>
        <time>2012-12-28T08:30:55Z</time>
      </trkpt>
      <trkpt lat="44.07912" lon="7.03791">
        <ele>1474.4</ele>
        <time>2012-12-28T08:31:10Z</time>
      </trkpt>
      <trkpt lat="44.0791" lon="7.03786">
        <ele>1474.8</ele>
        <time>2012-12-28T08:31:16Z</time>
      </trkpt>
      <trkpt lat="44.07909" lon="7.03785">
        <ele>1474.4</ele>
        <time>2012-12-28T08:31:17Z</time>
      </trkpt>
      <trkpt lat="44.07908" lon="7.03784">
        <ele>1474.9</ele>
        <time>2012-12-28T08:31:18Z</time>
      </trkpt>
      <trkpt lat="44.07907" lon="7.03783">
        <ele>1474.6</ele>
        <time>2012-12-28T08:31:19Z</time>
      </trkpt>
      <trkpt lat="44.07906" lon="7.03782">
        <ele>1474.6</ele>
        <time>2012-12-28T08:31:20Z</time>
      </trkpt>
      <trkpt lat="44.07905" lon="7.03781">
        <ele>1475</ele>
        <time>2012-12-28T08:31:21Z</time>
      </trkpt>
      <trkpt lat="44.07905" lon="7.03781">
        <ele>1475</ele>
        <time>2012-12-28T08:31:22Z</time>
      </trkpt>
      <trkpt lat="44.07905" lon="7.0378">
        <ele>1475.1</ele>
        <time>2012-12-28T08:31:23Z</time>
      </trkpt>
      <trkpt lat="44.07903" lon="7.03773">
        <ele>1474.7</ele>
        <time>2012-12-28T08:31:29Z</time>
      </trkpt>
      <trkpt lat="44.07901" lon="7.03772">
        <ele>1474.9</ele>
        <time>2012-12-28T08:31:30Z</time>
      </trkpt>
      <trkpt lat="44.07901" lon="7.03771">
        <ele>1474.8</ele>
        <time>2012-12-28T08:31:31Z</time>
      </trkpt>
      <trkpt lat="44.07901" lon="7.0377">
        <ele>1474.8</ele>
        <time>2012-12-28T08:31:32Z</time>
      </trkpt>
      <trkpt lat="44.07901" lon="7.0377">
        <ele>1474.8</ele>
        <time>2012-12-28T08:31:33Z</time>
      </trkpt>
      <trkpt lat="44.07901" lon="7.03769">
        <ele>1474.5</ele>
        <time>2012-12-28T08:31:34Z</time>
      </trkpt>
      <trkpt lat="44.079" lon="7.03768">
        <ele>1474.4</ele>
        <time>2012-12-28T08:31:35Z</time>
      </trkpt>
      <trkpt lat="44.07899" lon="7.03766">
        <ele>1474.5</ele>
        <time>2012-12-28T08:31:36Z</time>
      </trkpt>
      <trkpt lat="44.07899" lon="7.03766">
        <ele>1474.6</ele>
        <time>2012-12-28T08:31:37Z</time>
      </trkpt>
      <trkpt lat="44.07899" lon="7.03765">
        <ele>1475.1</ele>
        <time>2012-12-28T08:31:38Z</time>
      </trkpt>
      <trkpt lat="44.079" lon="7.03763">
        <ele>1475.1</ele>
        <time>2012-12-28T08:31:39Z</time>
      </trkpt>
      <trkpt lat="44.07899" lon="7.03761">
        <ele>1474.8</ele>
        <time>2012-12-28T08:31:40Z</time>
      </trkpt>
      <trkpt lat="44.07899" lon="7.03761">
        <ele>1474.8</ele>
        <time>2012-12-28T08:31:41Z</time>
      </trkpt>
      <trkpt lat="44.07899" lon="7.0376">
        <ele>1474.9</ele>
        <time>2012-12-28T08:31:42Z</time>
      </trkpt>
      <trkpt lat="44.07899" lon="7.03759">
        <ele>1475</ele>
        <time>2012-12-28T08:31:43Z</time>
      </trkpt>
      <trkpt lat="44.07899" lon="7.03757">
        <ele>1475.2</ele>
        <time>2012-12-28T08:31:44Z</time>
      </trkpt>
      <trkpt lat="44.07899" lon="7.03756">
        <ele>1475.2</ele>
        <time>2012-12-28T08:31:45Z</time>
      </trkpt>
      <trkpt lat="44.079" lon="7.03753">
        <ele>1475.4</ele>
        <time>2012-12-28T08:31:47Z</time>
      </trkpt>
      <trkpt lat="44.079" lon="7.03752">
        <ele>1475.2</ele>
        <time>2012-12-28T08:31:48Z</time>
      </trkpt>
      <trkpt lat="44.07899" lon="7.0375">
        <ele>1474.9</ele>
        <time>2012-12-28T08:31:49Z</time>
      </trkpt>
      <trkpt lat="44.07896" lon="7.03741">
        <ele>1475.4</ele>
        <time>2012-12-28T08:31:56Z</time>
      </trkpt>
      <trkpt lat="44.07896" lon="7.03739">
        <ele>1475.8</ele>
        <time>2012-12-28T08:31:57Z</time>
      </trkpt>
      <trkpt lat="44.07894" lon="7.03732">
        <ele>1476.7</ele>
        <time>2012-12-28T08:32:02Z</time>
      </trkpt>
      <trkpt lat="44.07893" lon="7.03731">
        <ele>1476.9</ele>
        <time>2012-12-28T08:32:03Z</time>
      </trkpt>
      <trkpt lat="44.07892" lon="7.03729">
        <ele>1477.6</ele>
        <time>2012-12-28T08:32:06Z</time>
      </trkpt>
      <trkpt lat="44.07892" lon="7.03728">
        <ele>1477.9</ele>
        <time>2012-12-28T08:32:07Z</time>
      </trkpt>
      <trkpt lat="44.07891" lon="7.03726">
        <ele>1477.8</ele>
        <time>2012-12-28T08:32:08Z</time>
      </trkpt>
      <trkpt lat="44.07891" lon="7.03725">
        <ele>1477.9</ele>
        <time>2012-12-28T08:32:09Z</time>
      </trkpt>
      <trkpt lat="44.0789" lon="7.03723">
        <ele>1478</ele>
        <time>2012-12-28T08:32:10Z</time>
      </trkpt>
      <trkpt lat="44.0789" lon="7.03722">
        <ele>1478.2</ele>
        <time>2012-12-28T08:32:11Z</time>
      </trkpt>
      <trkpt lat="44.07888" lon="7.03718">
        <ele>1478.8</ele>
        <time>2012-12-28T08:32:16Z</time>
      </trkpt>
      <trkpt lat="44.07887" lon="7.03718">
        <ele>1478.9</ele>
        <time>2012-12-28T08:32:17Z</time>
      </trkpt>
      <trkpt lat="44.07887" lon="7.03716">
        <ele>1478.8</ele>
        <time>2012-12-28T08:32:18Z</time>
      </trkpt>
      <trkpt lat="44.07887" lon="7.03716">
        <ele>1478.8</ele>
        <time>2012-12-28T08:32:19Z</time>
      </trkpt>
      <trkpt lat="44.07887" lon="7.03716">
        <ele>1478.8</ele>
        <time>2012-12-28T08:32:20Z</time>
      </trkpt>
      <trkpt lat="44.07886" lon="7.03711">
        <ele>1480.1</ele>
        <time>2012-12-28T08:32:25Z</time>
      </trkpt>
      <trkpt lat="44.07886" lon="7.03707">
        <ele>1481</ele>
        <time>2012-12-28T08:32:29Z</time>
      </trkpt>
      <trkpt lat="44.07886" lon="7.03706">
        <ele>1480.8</ele>
        <time>2012-12-28T08:32:30Z</time>
      </trkpt>
      <trkpt lat="44.07884" lon="7.03701">
        <ele>1481.4</ele>
        <time>2012-12-28T08:32:35Z</time>
      </trkpt>
      <trkpt lat="44.07884" lon="7.03699">
        <ele>1481.3</ele>
        <time>2012-12-28T08:32:36Z</time>
      </trkpt>
      <trkpt lat="44.07884" lon="7.03698">
        <ele>1481.3</ele>
        <time>2012-12-28T08:32:37Z</time>
      </trkpt>
      <trkpt lat="44.07883" lon="7.03697">
        <ele>1481</ele>
        <time>2012-12-28T08:32:38Z</time>
      </trkpt>
      <trkpt lat="44.0788" lon="7.03686">
        <ele>1481.2</ele>
        <time>2012-12-28T08:32:51Z</time>
      </trkpt>
      <trkpt lat="44.07879" lon="7.03685">
        <ele>1481.4</ele>
        <time>2012-12-28T08:32:52Z</time>
      </trkpt>
      <trkpt lat="44.07877" lon="7.03678">
        <ele>1481.4</ele>
        <time>2012-12-28T08:32:59Z</time>
      </trkpt>
      <trkpt lat="44.07877" lon="7.03677">
        <ele>1481</ele>
        <time>2012-12-28T08:33:00Z</time>
      </trkpt>
      <trkpt lat="44.07876" lon="7.03676">
        <ele>1480.8</ele>
        <time>2012-12-28T08:33:01Z</time>
      </trkpt>
      <trkpt lat="44.07876" lon="7.03675">
        <ele>1480.5</ele>
        <time>2012-12-28T08:33:02Z</time>
      </trkpt>
      <trkpt lat="44.07875" lon="7.03674">
        <ele>1480.5</ele>
        <time>2012-12-28T08:33:03Z</time>
      </trkpt>
      <trkpt lat="44.07875" lon="7.03673">
        <ele>1480.6</ele>
        <time>2012-12-28T08:33:04Z</time>
      </trkpt>
      <trkpt lat="44.07875" lon="7.03672">
        <ele>1480.6</ele>
        <time>2012-12-28T08:33:05Z</time>
      </trkpt>
      <trkpt lat="44.07874" lon="7.03665">
        <ele>1481.8</ele>
        <time>2012-12-28T08:33:21Z</time>
      </trkpt>
      <trkpt lat="44.07874" lon="7.03664">
        <ele>1482</ele>
        <time>2012-12-28T08:33:22Z</time>
      </trkpt>
      <trkpt lat="44.07874" lon="7.03664">
        <ele>1482</ele>
        <time>2012-12-28T08:33:23Z</time>
      </trkpt>
      <trkpt lat="44.07874" lon="7.03664">
        <ele>1482</ele>
        <time>2012-12-28T08:33:24Z</time>
      </trkpt>
      <trkpt lat="44.07874" lon="7.03663">
        <ele>1482.1</ele>
        <time>2012-12-28T08:33:25Z</time>
      </trkpt>
      <trkpt lat="44.07873" lon="7.03661">
        <ele>1482.3</ele>
        <time>2012-12-28T08:33:26Z</time>
      </trkpt>
      <trkpt lat="44.07873" lon="7.03661">
        <ele>1482.3</ele>
        <time>2012-12-28T08:33:27Z</time>
      </trkpt>
      <trkpt lat="44.07873" lon="7.03661">
        <ele>1482.7</ele>
        <time>2012-12-28T08:33:28Z</time>
      </trkpt>
      <trkpt lat="44.07873" lon="7.0366">
        <ele>1482.9</ele>
        <time>2012-12-28T08:33:29Z</time>
      </trkpt>
      <trkpt lat="44.07873" lon="7.03659">
        <ele>1482.8</ele>
        <time>2012-12-28T08:33:30Z</time>
      </trkpt>
      <trkpt lat="44.07873" lon="7.03659">
        <ele>1482.8</ele>
        <time>2012-12-28T08:33:31Z</time>
      </trkpt>
      <trkpt lat="44.07873" lon="7.03658">
        <ele>1483.1</ele>
        <time>2012-12-28T08:33:32Z</time>
      </trkpt>
      <trkpt lat="44.07872" lon="7.03656">
        <ele>1483.1</ele>
        <time>2012-12-28T08:33:33Z</time>
      </trkpt>
      <trkpt lat="44.07871" lon="7.03655">
        <ele>1483</ele>
        <time>2012-12-28T08:33:34Z</time>
      </trkpt>
      <trkpt lat="44.07871" lon="7.03654">
        <ele>1483.5</ele>
        <time>2012-12-28T08:33:35Z</time>
      </trkpt>
      <trkpt lat="44.07871" lon="7.03652">
        <ele>1483.9</ele>
        <time>2012-12-28T08:33:36Z</time>
      </trkpt>
      <trkpt lat="44.0787" lon="7.03651">
        <ele>1484.2</ele>
        <time>2012-12-28T08:33:37Z</time>
      </trkpt>
      <trkpt lat="44.0787" lon="7.0365">
        <ele>1484.7</ele>
        <time>2012-12-28T08:33:38Z</time>
      </trkpt>
      <trkpt lat="44.07869" lon="7.03649">
        <ele>1484.6</ele>
        <time>2012-12-28T08:33:39Z</time>
      </trkpt>
      <trkpt lat="44.07869" lon="7.03648">
        <ele>1484.2</ele>
        <time>2012-12-28T08:33:40Z</time>
      </trkpt>
      <trkpt lat="44.07869" lon="7.03647">
        <ele>1484.3</ele>
        <time>2012-12-28T08:33:41Z</time>
      </trkpt>
      <trkpt lat="44.07869" lon="7.03647">
        <ele>1484.3</ele>
        <time>2012-12-28T08:33:42Z</time>
      </trkpt>
      <trkpt lat="44.07869" lon="7.03646">
        <ele>1484.6</ele>
        <time>2012-12-28T08:33:43Z</time>
      </trkpt>
      <trkpt lat="44.07869" lon="7.03645">
        <ele>1485.2</ele>
        <time>2012-12-28T08:33:44Z</time>
      </trkpt>
      <trkpt lat="44.07868" lon="7.03644">
        <ele>1485.5</ele>
        <time>2012-12-28T08:33:45Z</time>
      </trkpt>
      <trkpt lat="44.07868" lon="7.03642">
        <ele>1485.3</ele>
        <time>2012-12-28T08:33:46Z</time>
      </trkpt>
      <trkpt lat="44.07868" lon="7.03641">
        <ele>1485.6</ele>
        <time>2012-12-28T08:33:47Z</time>
      </trkpt>
      <trkpt lat="44.07867" lon="7.03639">
        <ele>1485.8</ele>
        <time>2012-12-28T08:33:48Z</time>
      </trkpt>
      <trkpt lat="44.07867" lon="7.03638">
        <ele>1485.4</ele>
        <time>2012-12-28T08:33:49Z</time>
      </trkpt>
      <trkpt lat="44.07866" lon="7.03633">
        <ele>1485.9</ele>
        <time>2012-12-28T08:33:53Z</time>
      </trkpt>
      <trkpt lat="44.07865" lon="7.03631">
        <ele>1485.5</ele>
        <time>2012-12-28T08:33:54Z</time>
      </trkpt>
      <trkpt lat="44.07863" lon="7.0362">
        <ele>1486.5</ele>
        <time>2012-12-28T08:34:07Z</time>
      </trkpt>
      <trkpt lat="44.07862" lon="7.03619">
        <ele>1486.8</ele>
        <time>2012-12-28T08:34:08Z</time>
      </trkpt>
      <trkpt lat="44.07862" lon="7.03618">
        <ele>1487.1</ele>
        <time>2012-12-28T08:34:09Z</time>
      </trkpt>
      <trkpt lat="44.07862" lon="7.03617">
        <ele>1487.2</ele>
        <time>2012-12-28T08:34:10Z</time>
      </trkpt>
      <trkpt lat="44.07861" lon="7.03614">
        <ele>1487.8</ele>
        <time>2012-12-28T08:34:12Z</time>
      </trkpt>
      <trkpt lat="44.07861" lon="7.03613">
        <ele>1488</ele>
        <time>2012-12-28T08:34:13Z</time>
      </trkpt>
      <trkpt lat="44.0786" lon="7.0361">
        <ele>1488.6</ele>
        <time>2012-12-28T08:34:15Z</time>
      </trkpt>
      <trkpt lat="44.0786" lon="7.03609">
        <ele>1488.8</ele>
        <time>2012-12-28T08:34:16Z</time>
      </trkpt>
      <trkpt lat="44.0786" lon="7.03607">
        <ele>1488.8</ele>
        <time>2012-12-28T08:34:17Z</time>
      </trkpt>
      <trkpt lat="44.07859" lon="7.03603">
        <ele>1488.8</ele>
        <time>2012-12-28T08:34:22Z</time>
      </trkpt>
      <trkpt lat="44.07858" lon="7.03602">
        <ele>1488.8</ele>
        <time>2012-12-28T08:34:23Z</time>
      </trkpt>
      <trkpt lat="44.07858" lon="7.03601">
        <ele>1488.6</ele>
        <time>2012-12-28T08:34:24Z</time>
      </trkpt>
      <trkpt lat="44.07857" lon="7.036">
        <ele>1488.7</ele>
        <time>2012-12-28T08:34:25Z</time>
      </trkpt>
      <trkpt lat="44.07852" lon="7.03581">
        <ele>1493</ele>
        <time>2012-12-28T08:34:47Z</time>
      </trkpt>
      <trkpt lat="44.07852" lon="7.0358">
        <ele>1493.2</ele>
        <time>2012-12-28T08:34:48Z</time>
      </trkpt>
      <trkpt lat="44.07852" lon="7.03577">
        <ele>1493.9</ele>
        <time>2012-12-28T08:34:54Z</time>
      </trkpt>
      <trkpt lat="44.07852" lon="7.03575">
        <ele>1494.1</ele>
        <time>2012-12-28T08:34:55Z</time>
      </trkpt>
      <trkpt lat="44.07852" lon="7.03574">
        <ele>1494.2</ele>
        <time>2012-12-28T08:34:56Z</time>
      </trkpt>
      <trkpt lat="44.07851" lon="7.03569">
        <ele>1495.7</ele>
        <time>2012-12-28T08:35:05Z</time>
      </trkpt>
      <trkpt lat="44.07851" lon="7.03568">
        <ele>1496.1</ele>
        <time>2012-12-28T08:35:06Z</time>
      </trkpt>
      <trkpt lat="44.0785" lon="7.03556">
        <ele>1498</ele>
        <time>2012-12-28T08:35:22Z</time>
      </trkpt>
      <trkpt lat="44.0785" lon="7.03552">
        <ele>1498.6</ele>
        <time>2012-12-28T08:35:25Z</time>
      </trkpt>
      <trkpt lat="44.07849" lon="7.0355">
        <ele>1498.7</ele>
        <time>2012-12-28T08:35:26Z</time>
      </trkpt>
      <trkpt lat="44.07849" lon="7.03549">
        <ele>1498.9</ele>
        <time>2012-12-28T08:35:27Z</time>
      </trkpt>
      <trkpt lat="44.07849" lon="7.03547">
        <ele>1498.8</ele>
        <time>2012-12-28T08:35:28Z</time>
      </trkpt>
      <trkpt lat="44.07849" lon="7.03546">
        <ele>1499</ele>
        <time>2012-12-28T08:35:29Z</time>
      </trkpt>
      <trkpt lat="44.07849" lon="7.03545">
        <ele>1499.3</ele>
        <time>2012-12-28T08:35:30Z</time>
      </trkpt>
      <trkpt lat="44.07849" lon="7.03543">
        <ele>1499.6</ele>
        <time>2012-12-28T08:35:31Z</time>
      </trkpt>
      <trkpt lat="44.07849" lon="7.03542">
        <ele>1499.6</ele>
        <time>2012-12-28T08:35:32Z</time>
      </trkpt>
      <trkpt lat="44.07849" lon="7.03538">
        <ele>1500.6</ele>
        <time>2012-12-28T08:35:39Z</time>
      </trkpt>
      <trkpt lat="44.07849" lon="7.03536">
        <ele>1500.7</ele>
        <time>2012-12-28T08:35:40Z</time>
      </trkpt>
      <trkpt lat="44.07848" lon="7.03535">
        <ele>1501.3</ele>
        <time>2012-12-28T08:35:41Z</time>
      </trkpt>
      <trkpt lat="44.07849" lon="7.03534">
        <ele>1501.5</ele>
        <time>2012-12-28T08:35:42Z</time>
      </trkpt>
      <trkpt lat="44.07848" lon="7.03533">
        <ele>1501.2</ele>
        <time>2012-12-28T08:35:43Z</time>
      </trkpt>
      <trkpt lat="44.07848" lon="7.03533">
        <ele>1501.2</ele>
        <time>2012-12-28T08:35:44Z</time>
      </trkpt>
      <trkpt lat="44.07848" lon="7.03532">
        <ele>1501.4</ele>
        <time>2012-12-28T08:35:45Z</time>
      </trkpt>
      <trkpt lat="44.07848" lon="7.03532">
        <ele>1501.4</ele>
        <time>2012-12-28T08:35:46Z</time>
      </trkpt>
      <trkpt lat="44.07848" lon="7.03532">
        <ele>1501.4</ele>
        <time>2012-12-28T08:35:47Z</time>
      </trkpt>
      <trkpt lat="44.07848" lon="7.03532">
        <ele>1501.4</ele>
        <time>2012-12-28T08:35:48Z</time>
      </trkpt>
      <trkpt lat="44.07848" lon="7.03532">
        <ele>1501.4</ele>
        <time>2012-12-28T08:35:49Z</time>
      </trkpt>
      <trkpt lat="44.07848" lon="7.03532">
        <ele>1501.4</ele>
        <time>2012-12-28T08:35:50Z</time>
      </trkpt>
      <trkpt lat="44.07848" lon="7.03532">
        <ele>1501.4</ele>
        <time>2012-12-28T08:35:51Z</time>
      </trkpt>
      <trkpt lat="44.07848" lon="7.03532">
        <ele>1501.4</ele>
        <time>2012-12-28T08:35:52Z</time>
      </trkpt>
      <trkpt lat="44.07848" lon="7.03532">
        <ele>1501.4</ele>
        <time>2012-12-28T08:35:53Z</time>
      </trkpt>
      <trkpt lat="44.07848" lon="7.03532">
        <ele>1501.4</ele>
        <time>2012-12-28T08:35:54Z</time>
      </trkpt>
      <trkpt lat="44.07848" lon="7.03532">
        <ele>1501.4</ele>
        <time>2012-12-28T08:35:55Z</time>
      </trkpt>
      <trkpt lat="44.07848" lon="7.03532">
        <ele>1501.4</ele>
        <time>2012-12-28T08:35:56Z</time>
      </trkpt>
      <trkpt lat="44.07848" lon="7.03532">
        <ele>1501.4</ele>
        <time>2012-12-28T08:35:57Z</time>
      </trkpt>
      <trkpt lat="44.07848" lon="7.03532">
        <ele>1501.4</ele>
        <time>2012-12-28T08:35:58Z</time>
      </trkpt>
      <trkpt lat="44.07848" lon="7.03532">
        <ele>1501.4</ele>
        <time>2012-12-28T08:35:59Z</time>
      </trkpt>
      <trkpt lat="44.07848" lon="7.03532">
        <ele>1501.4</ele>
        <time>2012-12-28T08:36:00Z</time>
      </trkpt>
      <trkpt lat="44.07848" lon="7.03532">
        <ele>1501.4</ele>
        <time>2012-12-28T08:36:01Z</time>
      </trkpt>
      <trkpt lat="44.07848" lon="7.03532">
        <ele>1501.4</ele>
        <time>2012-12-28T08:36:02Z</time>
      </trkpt>
      <trkpt lat="44.07848" lon="7.03532">
        <ele>1501.4</ele>
        <time>2012-12-28T08:36:03Z</time>
      </trkpt>
      <trkpt lat="44.07848" lon="7.03532">
        <ele>1501.4</ele>
        <time>2012-12-28T08:36:04Z</time>
      </trkpt>
      <trkpt lat="44.07848" lon="7.03532">
        <ele>1501.4</ele>
        <time>2012-12-28T08:36:05Z</time>
      </trkpt>
      <trkpt lat="44.07848" lon="7.03532">
        <ele>1501.4</ele>
        <time>2012-12-28T08:36:06Z</time>
      </trkpt>
      <trkpt lat="44.07848" lon="7.03532">
        <ele>1501.4</ele>
        <time>2012-12-28T08:36:07Z</time>
      </trkpt>
      <trkpt lat="44.07848" lon="7.03532">
        <ele>1501.4</ele>
        <time>2012-12-28T08:36:08Z</time>
      </trkpt>
      <trkpt lat="44.07848" lon="7.03532">
        <ele>1501.4</ele>
        <time>2012-12-28T08:36:09Z</time>
      </trkpt>
      <trkpt lat="44.07848" lon="7.03532">
        <ele>1501.4</ele>
        <time>2012-12-28T08:36:10Z</time>
      </trkpt>
      <trkpt lat="44.07848" lon="7.03532">
        <ele>1501.4</ele>
        <time>2012-12-28T08:36:11Z</time>
      </trkpt>
      <trkpt lat="44.07848" lon="7.03532">
        <ele>1501.4</ele>
        <time>2012-12-28T08:36:12Z</time>
      </trkpt>
      <trkpt lat="44.07848" lon="7.03532">
        <ele>1501.4</ele>
        <time>2012-12-28T08:36:13Z</time>
      </trkpt>
      <trkpt lat="44.07848" lon="7.03532">
        <ele>1501.4</ele>
        <time>2012-12-28T08:36:14Z</time>
      </trkpt>
      <trkpt lat="44.07848" lon="7.03532">
        <ele>1501.4</ele>
        <time>2012-12-28T08:36:15Z</time>
      </trkpt>
      <trkpt lat="44.07848" lon="7.03532">
        <ele>1501.4</ele>
        <time>2012-12-28T08:36:16Z</time>
      </trkpt>
      <trkpt lat="44.07848" lon="7.03532">
        <ele>1501.4</ele>
        <time>2012-12-28T08:36:17Z</time>
      </trkpt>
      <trkpt lat="44.07848" lon="7.03532">
        <ele>1501.4</ele>
        <time>2012-12-28T08:36:18Z</time>
      </trkpt>
      <trkpt lat="44.07848" lon="7.03532">
        <ele>1501.4</ele>
        <time>2012-12-28T08:36:19Z</time>
      </trkpt>
      <trkpt lat="44.07848" lon="7.03532">
        <ele>1501.4</ele>
        <time>2012-12-28T08:36:20Z</time>
      </trkpt>
      <trkpt lat="44.07848" lon="7.03532">
        <ele>1501.4</ele>
        <time>2012-12-28T08:36:21Z</time>
      </trkpt>
      <trkpt lat="44.07848" lon="7.03532">
        <ele>1501.4</ele>
        <time>2012-12-28T08:36:22Z</time>
      </trkpt>
      <trkpt lat="44.07848" lon="7.03532">
        <ele>1501.4</ele>
        <time>2012-12-28T08:36:23Z</time>
      </trkpt>
      <trkpt lat="44.07848" lon="7.03532">
        <ele>1501.4</ele>
        <time>2012-12-28T08:36:24Z</time>
      </trkpt>
      <trkpt lat="44.07848" lon="7.03532">
        <ele>1501.4</ele>
        <time>2012-12-28T08:36:25Z</time>
      </trkpt>
      <trkpt lat="44.07848" lon="7.03532">
        <ele>1501.4</ele>
        <time>2012-12-28T08:36:26Z</time>
      </trkpt>
      <trkpt lat="44.07848" lon="7.03532">
        <ele>1501.4</ele>
        <time>2012-12-28T08:36:27Z</time>
      </trkpt>
      <trkpt lat="44.07848" lon="7.03532">
        <ele>1501.4</ele>
        <time>2012-12-28T08:36:28Z</time>
      </trkpt>
      <trkpt lat="44.07848" lon="7.03532">
        <ele>1501.4</ele>
        <time>2012-12-28T08:36:29Z</time>
      </trkpt>
      <trkpt lat="44.07848" lon="7.03532">
        <ele>1501.4</ele>
        <time>2012-12-28T08:36:30Z</time>
      </trkpt>
      <trkpt lat="44.07848" lon="7.03532">
        <ele>1501.4</ele>
        <time>2012-12-28T08:36:31Z</time>
      </trkpt>
      <trkpt lat="44.07848" lon="7.03532">
        <ele>1501.4</ele>
        <time>2012-12-28T08:36:32Z</time>
      </trkpt>
      <trkpt lat="44.07848" lon="7.03532">
        <ele>1501.4</ele>
        <time>2012-12-28T08:36:33Z</time>
      </trkpt>
      <trkpt lat="44.07848" lon="7.03532">
        <ele>1501.4</ele>
        <time>2012-12-28T08:36:34Z</time>
      </trkpt>
      <trkpt lat="44.07848" lon="7.03532">
        <ele>1501.4</ele>
        <time>2012-12-28T08:36:35Z</time>
      </trkpt>
      <trkpt lat="44.07848" lon="7.03532">
        <ele>1501.4</ele>
        <time>2012-12-28T08:36:36Z</time>
      </trkpt>
      <trkpt lat="44.07848" lon="7.03532">
        <ele>1501.4</ele>
        <time>2012-12-28T08:36:37Z</time>
      </trkpt>
      <trkpt lat="44.07848" lon="7.03532">
        <ele>1501.4</ele>
        <time>2012-12-28T08:36:38Z</time>
      </trkpt>
      <trkpt lat="44.07848" lon="7.03532">
        <ele>1501.4</ele>
        <time>2012-12-28T08:36:39Z</time>
      </trkpt>
      <trkpt lat="44.07848" lon="7.03532">
        <ele>1501.4</ele>
        <time>2012-12-28T08:36:40Z</time>
      </trkpt>
      <trkpt lat="44.07848" lon="7.03532">
        <ele>1501.4</ele>
        <time>2012-12-28T08:36:41Z</time>
      </trkpt>
      <trkpt lat="44.07848" lon="7.03532">
        <ele>1501.4</ele>
        <time>2012-12-28T08:36:42Z</time>
      </trkpt>
      <trkpt lat="44.07848" lon="7.03532">
        <ele>1501.4</ele>
        <time>2012-12-28T08:36:43Z</time>
      </trkpt>
      <trkpt lat="44.07848" lon="7.03532">
        <ele>1501.4</ele>
        <time>2012-12-28T08:36:44Z</time>
      </trkpt>
      <trkpt lat="44.07848" lon="7.03532">
        <ele>1501.4</ele>
        <time>2012-12-28T08:36:45Z</time>
      </trkpt>
      <trkpt lat="44.07848" lon="7.03532">
        <ele>1501.4</ele>
        <time>2012-12-28T08:36:46Z</time>
      </trkpt>
      <trkpt lat="44.07848" lon="7.03532">
        <ele>1501.4</ele>
        <time>2012-12-28T08:36:47Z</time>
      </trkpt>
      <trkpt lat="44.07848" lon="7.03532">
        <ele>1501.4</ele>
        <time>2012-12-28T08:36:48Z</time>
      </trkpt>
      <trkpt lat="44.07848" lon="7.03532">
        <ele>1501.4</ele>
        <time>2012-12-28T08:36:49Z</time>
      </trkpt>
      <trkpt lat="44.07848" lon="7.03532">
        <ele>1501.4</ele>
        <time>2012-12-28T08:36:50Z</time>
      </trkpt>
      <trkpt lat="44.07848" lon="7.03532">
        <ele>1501.4</ele>
        <time>2012-12-28T08:36:51Z</time>
      </trkpt>
      <trkpt lat="44.07848" lon="7.03532">
        <ele>1501.4</ele>
        <time>2012-12-28T08:36:52Z</time>
      </trkpt>
      <trkpt lat="44.07848" lon="7.03532">
        <ele>1501.4</ele>
        <time>2012-12-28T08:36:53Z</time>
      </trkpt>
      <trkpt lat="44.07848" lon="7.03532">
        <ele>1501.4</ele>
        <time>2012-12-28T08:36:54Z</time>
      </trkpt>
      <trkpt lat="44.07848" lon="7.03532">
        <ele>1501.4</ele>
        <time>2012-12-28T08:36:55Z</time>
      </trkpt>
      <trkpt lat="44.07848" lon="7.03532">
        <ele>1501.4</ele>
        <time>2012-12-28T08:36:56Z</time>
      </trkpt>
      <trkpt lat="44.07848" lon="7.03532">
        <ele>1501.4</ele>
        <time>2012-12-28T08:36:57Z</time>
      </trkpt>
      <trkpt lat="44.07848" lon="7.03532">
        <ele>1501.4</ele>
        <time>2012-12-28T08:36:58Z</time>
      </trkpt>
      <trkpt lat="44.07848" lon="7.03532">
        <ele>1501.4</ele>
        <time>2012-12-28T08:36:59Z</time>
      </trkpt>
      <trkpt lat="44.07848" lon="7.03532">
        <ele>1501.4</ele>
        <time>2012-12-28T08:37:00Z</time>
      </trkpt>
      <trkpt lat="44.07848" lon="7.03532">
        <ele>1501.4</ele>
        <time>2012-12-28T08:37:01Z</time>
      </trkpt>
      <trkpt lat="44.07848" lon="7.03532">
        <ele>1501.4</ele>
        <time>2012-12-28T08:37:02Z</time>
      </trkpt>
      <trkpt lat="44.07848" lon="7.03532">
        <ele>1501.4</ele>
        <time>2012-12-28T08:37:03Z</time>
      </trkpt>
      <trkpt lat="44.07848" lon="7.03532">
        <ele>1501.4</ele>
        <time>2012-12-28T08:37:04Z</time>
      </trkpt>
      <trkpt lat="44.07848" lon="7.03532">
        <ele>1501.4</ele>
        <time>2012-12-28T08:37:05Z</time>
      </trkpt>
      <trkpt lat="44.07848" lon="7.03532">
        <ele>1501.4</ele>
        <time>2012-12-28T08:37:06Z</time>
      </trkpt>
      <trkpt lat="44.07848" lon="7.03532">
        <ele>1501.4</ele>
        <time>2012-12-28T08:37:07Z</time>
      </trkpt>
      <trkpt lat="44.07848" lon="7.03532">
        <ele>1501.4</ele>
        <time>2012-12-28T08:37:08Z</time>
      </trkpt>
      <trkpt lat="44.07848" lon="7.03532">
        <ele>1501.4</ele>
        <time>2012-12-28T08:37:09Z</time>
      </trkpt>
      <trkpt lat="44.07848" lon="7.03532">
        <ele>1501.4</ele>
        <time>2012-12-28T08:37:10Z</time>
      </trkpt>
      <trkpt lat="44.07848" lon="7.03532">
        <ele>1501.4</ele>
        <time>2012-12-28T08:37:11Z</time>
      </trkpt>
      <trkpt lat="44.07848" lon="7.03532">
        <ele>1501.4</ele>
        <time>2012-12-28T08:37:12Z</time>
      </trkpt>
      <trkpt lat="44.07848" lon="7.03532">
        <ele>1501.4</ele>
        <time>2012-12-28T08:37:13Z</time>
      </trkpt>
      <trkpt lat="44.07848" lon="7.03532">
        <ele>1501.4</ele>
        <time>2012-12-28T08:37:14Z</time>
      </trkpt>
      <trkpt lat="44.07848" lon="7.03532">
        <ele>1501.4</ele>
        <time>2012-12-28T08:37:15Z</time>
      </trkpt>
      <trkpt lat="44.07848" lon="7.03532">
        <ele>1501.4</ele>
        <time>2012-12-28T08:37:16Z</time>
      </trkpt>
      <trkpt lat="44.07848" lon="7.03532">
        <ele>1501.4</ele>
        <time>2012-12-28T08:37:17Z</time>
      </trkpt>
      <trkpt lat="44.07848" lon="7.03532">
        <ele>1501.4</ele>
        <time>2012-12-28T08:37:18Z</time>
      </trkpt>
      <trkpt lat="44.07848" lon="7.03532">
        <ele>1501.4</ele>
        <time>2012-12-28T08:37:19Z</time>
      </trkpt>
      <trkpt lat="44.07848" lon="7.03532">
        <ele>1501.4</ele>
        <time>2012-12-28T08:37:20Z</time>
      </trkpt>
      <trkpt lat="44.07848" lon="7.03532">
        <ele>1501.4</ele>
        <time>2012-12-28T08:37:21Z</time>
      </trkpt>
      <trkpt lat="44.07848" lon="7.03532">
        <ele>1501.4</ele>
        <time>2012-12-28T08:37:22Z</time>
      </trkpt>
      <trkpt lat="44.07848" lon="7.03532">
        <ele>1501.4</ele>
        <time>2012-12-28T08:37:23Z</time>
      </trkpt>
      <trkpt lat="44.07848" lon="7.03532">
        <ele>1501.4</ele>
        <time>2012-12-28T08:37:24Z</time>
      </trkpt>
      <trkpt lat="44.07848" lon="7.03532">
        <ele>1501.4</ele>
        <time>2012-12-28T08:37:25Z</time>
      </trkpt>
      <trkpt lat="44.07848" lon="7.03532">
        <ele>1501.4</ele>
        <time>2012-12-28T08:37:26Z</time>
      </trkpt>
      <trkpt lat="44.07848" lon="7.03532">
        <ele>1501.4</ele>
        <time>2012-12-28T08:37:27Z</time>
      </trkpt>
      <trkpt lat="44.07848" lon="7.03532">
        <ele>1501.4</ele>
        <time>2012-12-28T08:37:28Z</time>
      </trkpt>
      <trkpt lat="44.07848" lon="7.03532">
        <ele>1501.4</ele>
        <time>2012-12-28T08:37:29Z</time>
      </trkpt>
      <trkpt lat="44.07848" lon="7.03532">
        <ele>1501.4</ele>
        <time>2012-12-28T08:37:30Z</time>
      </trkpt>
      <trkpt lat="44.07848" lon="7.03532">
        <ele>1501.4</ele>
        <time>2012-12-28T08:37:31Z</time>
      </trkpt>
      <trkpt lat="44.07848" lon="7.03532">
        <ele>1501.4</ele>
        <time>2012-12-28T08:37:32Z</time>
      </trkpt>
      <trkpt lat="44.07848" lon="7.03532">
        <ele>1501.4</ele>
        <time>2012-12-28T08:37:33Z</time>
      </trkpt>
      <trkpt lat="44.07848" lon="7.03532">
        <ele>1501.4</ele>
        <time>2012-12-28T08:37:34Z</time>
      </trkpt>
      <trkpt lat="44.07848" lon="7.03532">
        <ele>1501.4</ele>
        <time>2012-12-28T08:37:35Z</time>
      </trkpt>
      <trkpt lat="44.07848" lon="7.03532">
        <ele>1501.4</ele>
        <time>2012-12-28T08:37:36Z</time>
      </trkpt>
      <trkpt lat="44.07848" lon="7.03532">
        <ele>1501.4</ele>
        <time>2012-12-28T08:37:37Z</time>
      </trkpt>
      <trkpt lat="44.07848" lon="7.03532">
        <ele>1501.4</ele>
        <time>2012-12-28T08:37:38Z</time>
      </trkpt>
      <trkpt lat="44.07848" lon="7.03532">
        <ele>1501.4</ele>
        <time>2012-12-28T08:37:39Z</time>
      </trkpt>
      <trkpt lat="44.07848" lon="7.03532">
        <ele>1501.4</ele>
        <time>2012-12-28T08:37:40Z</time>
      </trkpt>
      <trkpt lat="44.07848" lon="7.03532">
        <ele>1501.4</ele>
        <time>2012-12-28T08:37:41Z</time>
      </trkpt>
      <trkpt lat="44.07848" lon="7.03532">
        <ele>1501.4</ele>
        <time>2012-12-28T08:37:42Z</time>
      </trkpt>
      <trkpt lat="44.07848" lon="7.03532">
        <ele>1501.4</ele>
        <time>2012-12-28T08:37:43Z</time>
      </trkpt>
      <trkpt lat="44.07848" lon="7.03532">
        <ele>1501.4</ele>
        <time>2012-12-28T08:37:44Z</time>
      </trkpt>
      <trkpt lat="44.07848" lon="7.03532">
        <ele>1501.4</ele>
        <time>2012-12-28T08:37:45Z</time>
      </trkpt>
      <trkpt lat="44.07848" lon="7.03532">
        <ele>1501.4</ele>
        <time>2012-12-28T08:37:46Z</time>
      </trkpt>
      <trkpt lat="44.07848" lon="7.03532">
        <ele>1501.4</ele>
        <time>2012-12-28T08:37:47Z</time>
      </trkpt>
      <trkpt lat="44.07848" lon="7.03532">
        <ele>1501.4</ele>
        <time>2012-12-28T08:37:48Z</time>
      </trkpt>
      <trkpt lat="44.07848" lon="7.03532">
        <ele>1501.4</ele>
        <time>2012-12-28T08:37:49Z</time>
      </trkpt>
      <trkpt lat="44.07848" lon="7.03532">
        <ele>1501.4</ele>
        <time>2012-12-28T08:37:50Z</time>
      </trkpt>
      <trkpt lat="44.07848" lon="7.03532">
        <ele>1501.4</ele>
        <time>2012-12-28T08:37:51Z</time>
      </trkpt>
      <trkpt lat="44.07848" lon="7.03532">
        <ele>1501.4</ele>
        <time>2012-12-28T08:37:52Z</time>
      </trkpt>
      <trkpt lat="44.07848" lon="7.03532">
        <ele>1501.4</ele>
        <time>2012-12-28T08:37:53Z</time>
      </trkpt>
      <trkpt lat="44.07848" lon="7.03532">
        <ele>1501.4</ele>
        <time>2012-12-28T08:37:54Z</time>
      </trkpt>
      <trkpt lat="44.07848" lon="7.03532">
        <ele>1501.4</ele>
        <time>2012-12-28T08:37:55Z</time>
      </trkpt>
      <trkpt lat="44.07848" lon="7.03532">
        <ele>1501.4</ele>
        <time>2012-12-28T08:37:56Z</time>
      </trkpt>
      <trkpt lat="44.07848" lon="7.03532">
        <ele>1501.4</ele>
        <time>2012-12-28T08:37:57Z</time>
      </trkpt>
      <trkpt lat="44.07848" lon="7.03532">
        <ele>1501.4</ele>
        <time>2012-12-28T08:37:58Z</time>
      </trkpt>
      <trkpt lat="44.07848" lon="7.03532">
        <ele>1501.4</ele>
        <time>2012-12-28T08:37:59Z</time>
      </trkpt>
      <trkpt lat="44.07848" lon="7.03532">
        <ele>1501.4</ele>
        <time>2012-12-28T08:38:00Z</time>
      </trkpt>
      <trkpt lat="44.07848" lon="7.03532">
        <ele>1501.4</ele>
        <time>2012-12-28T08:38:01Z</time>
      </trkpt>
      <trkpt lat="44.07848" lon="7.03532">
        <ele>1501.4</ele>
        <time>2012-12-28T08:38:02Z</time>
      </trkpt>
      <trkpt lat="44.07848" lon="7.03532">
        <ele>1501.4</ele>
        <time>2012-12-28T08:38:03Z</time>
      </trkpt>
      <trkpt lat="44.07848" lon="7.03532">
        <ele>1501.4</ele>
        <time>2012-12-28T08:38:04Z</time>
      </trkpt>
      <trkpt lat="44.07848" lon="7.03532">
        <ele>1501.4</ele>
        <time>2012-12-28T08:38:05Z</time>
      </trkpt>
      <trkpt lat="44.07848" lon="7.03532">
        <ele>1501.4</ele>
        <time>2012-12-28T08:38:06Z</time>
      </trkpt>
      <trkpt lat="44.07848" lon="7.03532">
        <ele>1501.4</ele>
        <time>2012-12-28T08:38:07Z</time>
      </trkpt>
      <trkpt lat="44.07848" lon="7.03532">
        <ele>1501.4</ele>
        <time>2012-12-28T08:38:08Z</time>
      </trkpt>
      <trkpt lat="44.07848" lon="7.03532">
        <ele>1501.4</ele>
        <time>2012-12-28T08:38:09Z</time>
      </trkpt>
      <trkpt lat="44.07848" lon="7.03532">
        <ele>1501.4</ele>
        <time>2012-12-28T08:38:10Z</time>
      </trkpt>
      <trkpt lat="44.07848" lon="7.03532">
        <ele>1501.4</ele>
        <time>2012-12-28T08:38:11Z</time>
      </trkpt>
      <trkpt lat="44.07848" lon="7.03532">
        <ele>1501.4</ele>
        <time>2012-12-28T08:38:12Z</time>
      </trkpt>
      <trkpt lat="44.07848" lon="7.03532">
        <ele>1501.4</ele>
        <time>2012-12-28T08:38:13Z</time>
      </trkpt>
      <trkpt lat="44.07848" lon="7.03532">
        <ele>1501.4</ele>
        <time>2012-12-28T08:38:14Z</time>
      </trkpt>
      <trkpt lat="44.07848" lon="7.03532">
        <ele>1501.4</ele>
        <time>2012-12-28T08:38:15Z</time>
      </trkpt>
      <trkpt lat="44.07848" lon="7.03532">
        <ele>1501.4</ele>
        <time>2012-12-28T08:38:16Z</time>
      </trkpt>
      <trkpt lat="44.07848" lon="7.03532">
        <ele>1501.4</ele>
        <time>2012-12-28T08:38:17Z</time>
      </trkpt>
      <trkpt lat="44.07848" lon="7.03532">
        <ele>1501.4</ele>
        <time>2012-12-28T08:38:18Z</time>
      </trkpt>
      <trkpt lat="44.07848" lon="7.03532">
        <ele>1501.4</ele>
        <time>2012-12-28T08:38:19Z</time>
      </trkpt>
      <trkpt lat="44.07848" lon="7.03532">
        <ele>1501.4</ele>
        <time>2012-12-28T08:38:20Z</time>
      </trkpt>
      <trkpt lat="44.07848" lon="7.03532">
        <ele>1501.4</ele>
        <time>2012-12-28T08:38:21Z</time>
      </trkpt>
      <trkpt lat="44.07848" lon="7.03532">
        <ele>1501.4</ele>
        <time>2012-12-28T08:38:22Z</time>
      </trkpt>
      <trkpt lat="44.07848" lon="7.03532">
        <ele>1501.4</ele>
        <time>2012-12-28T08:38:23Z</time>
      </trkpt>
      <trkpt lat="44.07848" lon="7.03532">
        <ele>1501.4</ele>
        <time>2012-12-28T08:38:24Z</time>
      </trkpt>
      <trkpt lat="44.07848" lon="7.03532">
        <ele>1501.4</ele>
        <time>2012-12-28T08:38:25Z</time>
      </trkpt>
      <trkpt lat="44.07848" lon="7.03532">
        <ele>1501.4</ele>
        <time>2012-12-28T08:38:26Z</time>
      </trkpt>
      <trkpt lat="44.07848" lon="7.03532">
        <ele>1501.4</ele>
        <time>2012-12-28T08:38:27Z</time>
      </trkpt>
      <trkpt lat="44.07848" lon="7.03532">
        <ele>1501.4</ele>
        <time>2012-12-28T08:38:28Z</time>
      </trkpt>
      <trkpt lat="44.07848" lon="7.03532">
        <ele>1501.4</ele>
        <time>2012-12-28T08:38:29Z</time>
      </trkpt>
      <trkpt lat="44.07848" lon="7.03532">
        <ele>1501.4</ele>
        <time>2012-12-28T08:38:30Z</time>
      </trkpt>
      <trkpt lat="44.07848" lon="7.03532">
        <ele>1501.4</ele>
        <time>2012-12-28T08:38:31Z</time>
      </trkpt>
      <trkpt lat="44.07848" lon="7.03532">
        <ele>1501.4</ele>
        <time>2012-12-28T08:38:32Z</time>
      </trkpt>
      <trkpt lat="44.07848" lon="7.03532">
        <ele>1501.4</ele>
        <time>2012-12-28T08:38:33Z</time>
      </trkpt>
      <trkpt lat="44.07848" lon="7.03532">
        <ele>1501.4</ele>
        <time>2012-12-28T08:38:34Z</time>
      </trkpt>
      <trkpt lat="44.07848" lon="7.03532">
        <ele>1501.4</ele>
        <time>2012-12-28T08:38:35Z</time>
      </trkpt>
      <trkpt lat="44.07848" lon="7.03532">
        <ele>1501.4</ele>
        <time>2012-12-28T08:38:36Z</time>
      </trkpt>
      <trkpt lat="44.07848" lon="7.03532">
        <ele>1501.4</ele>
        <time>2012-12-28T08:38:37Z</time>
      </trkpt>
      <trkpt lat="44.07848" lon="7.03532">
        <ele>1501.4</ele>
        <time>2012-12-28T08:38:38Z</time>
      </trkpt>
      <trkpt lat="44.07848" lon="7.03532">
        <ele>1501.4</ele>
        <time>2012-12-28T08:38:39Z</time>
      </trkpt>
      <trkpt lat="44.07848" lon="7.03532">
        <ele>1501.4</ele>
        <time>2012-12-28T08:38:40Z</time>
      </trkpt>
      <trkpt lat="44.07848" lon="7.03532">
        <ele>1501.4</ele>
        <time>2012-12-28T08:38:41Z</time>
      </trkpt>
      <trkpt lat="44.07848" lon="7.03532">
        <ele>1501.4</ele>
        <time>2012-12-28T08:38:42Z</time>
      </trkpt>
      <trkpt lat="44.07848" lon="7.03532">
        <ele>1501.4</ele>
        <time>2012-12-28T08:38:43Z</time>
      </trkpt>
      <trkpt lat="44.07848" lon="7.03532">
        <ele>1501.4</ele>
        <time>2012-12-28T08:38:44Z</time>
      </trkpt>
      <trkpt lat="44.07848" lon="7.03532">
        <ele>1501.4</ele>
        <time>2012-12-28T08:38:45Z</time>
      </trkpt>
      <trkpt lat="44.07848" lon="7.03532">
        <ele>1501.4</ele>
        <time>2012-12-28T08:38:46Z</time>
      </trkpt>
      <trkpt lat="44.07848" lon="7.03532">
        <ele>1501.4</ele>
        <time>2012-12-28T08:38:47Z</time>
      </trkpt>
      <trkpt lat="44.07848" lon="7.03532">
        <ele>1501.4</ele>
        <time>2012-12-28T08:38:48Z</time>
      </trkpt>
      <trkpt lat="44.07848" lon="7.03532">
        <ele>1501.4</ele>
        <time>2012-12-28T08:38:49Z</time>
      </trkpt>
      <trkpt lat="44.07848" lon="7.03532">
        <ele>1501.4</ele>
        <time>2012-12-28T08:38:50Z</time>
      </trkpt>
      <trkpt lat="44.07848" lon="7.03532">
        <ele>1501.4</ele>
        <time>2012-12-28T08:38:51Z</time>
      </trkpt>
      <trkpt lat="44.07848" lon="7.03532">
        <ele>1501.4</ele>
        <time>2012-12-28T08:38:52Z</time>
      </trkpt>
      <trkpt lat="44.07848" lon="7.03532">
        <ele>1501.4</ele>
        <time>2012-12-28T08:38:53Z</time>
      </trkpt>
      <trkpt lat="44.07848" lon="7.03532">
        <ele>1501.4</ele>
        <time>2012-12-28T08:38:54Z</time>
      </trkpt>
      <trkpt lat="44.07848" lon="7.03532">
        <ele>1501.4</ele>
        <time>2012-12-28T08:38:55Z</time>
      </trkpt>
      <trkpt lat="44.07848" lon="7.03532">
        <ele>1501.4</ele>
        <time>2012-12-28T08:38:56Z</time>
      </trkpt>
      <trkpt lat="44.07848" lon="7.03532">
        <ele>1501.4</ele>
        <time>2012-12-28T08:38:57Z</time>
      </trkpt>
      <trkpt lat="44.07848" lon="7.03532">
        <ele>1501.4</ele>
        <time>2012-12-28T08:38:58Z</time>
      </trkpt>
      <trkpt lat="44.07848" lon="7.03532">
        <ele>1501.4</ele>
        <time>2012-12-28T08:38:59Z</time>
      </trkpt>
      <trkpt lat="44.07848" lon="7.03532">
        <ele>1501.4</ele>
        <time>2012-12-28T08:39:00Z</time>
      </trkpt>
      <trkpt lat="44.07848" lon="7.03532">
        <ele>1501.4</ele>
        <time>2012-12-28T08:39:01Z</time>
      </trkpt>
      <trkpt lat="44.07848" lon="7.03532">
        <ele>1501.4</ele>
        <time>2012-12-28T08:39:02Z</time>
      </trkpt>
      <trkpt lat="44.07848" lon="7.03532">
        <ele>1501.4</ele>
        <time>2012-12-28T08:39:03Z</time>
      </trkpt>
      <trkpt lat="44.07848" lon="7.03532">
        <ele>1501.4</ele>
        <time>2012-12-28T08:39:04Z</time>
      </trkpt>
      <trkpt lat="44.07848" lon="7.03532">
        <ele>1501.4</ele>
        <time>2012-12-28T08:39:05Z</time>
      </trkpt>
      <trkpt lat="44.07848" lon="7.03532">
        <ele>1501.4</ele>
        <time>2012-12-28T08:39:06Z</time>
      </trkpt>
      <trkpt lat="44.07848" lon="7.03532">
        <ele>1501.4</ele>
        <time>2012-12-28T08:39:07Z</time>
      </trkpt>
      <trkpt lat="44.07848" lon="7.03532">
        <ele>1501.4</ele>
        <time>2012-12-28T08:39:08Z</time>
      </trkpt>
      <trkpt lat="44.07848" lon="7.03532">
        <ele>1501.4</ele>
        <time>2012-12-28T08:39:09Z</time>
      </trkpt>
      <trkpt lat="44.07848" lon="7.03532">
        <ele>1501.4</ele>
        <time>2012-12-28T08:39:10Z</time>
      </trkpt>
      <trkpt lat="44.07848" lon="7.03532">
        <ele>1501.4</ele>
        <time>2012-12-28T08:39:11Z</time>
      </trkpt>
      <trkpt lat="44.07848" lon="7.03532">
        <ele>1501.4</ele>
        <time>2012-12-28T08:39:12Z</time>
      </trkpt>
      <trkpt lat="44.07848" lon="7.03532">
        <ele>1501.4</ele>
        <time>2012-12-28T08:39:13Z</time>
      </trkpt>
      <trkpt lat="44.07848" lon="7.03532">
        <ele>1501.4</ele>
        <time>2012-12-28T08:39:14Z</time>
      </trkpt>
      <trkpt lat="44.07848" lon="7.03532">
        <ele>1501.4</ele>
        <time>2012-12-28T08:39:15Z</time>
      </trkpt>
      <trkpt lat="44.07848" lon="7.03532">
        <ele>1501.4</ele>
        <time>2012-12-28T08:39:16Z</time>
      </trkpt>
      <trkpt lat="44.07848" lon="7.03532">
        <ele>1501.4</ele>
        <time>2012-12-28T08:39:17Z</time>
      </trkpt>
      <trkpt lat="44.07848" lon="7.03532">
        <ele>1501.4</ele>
        <time>2012-12-28T08:39:18Z</time>
      </trkpt>
      <trkpt lat="44.07848" lon="7.03532">
        <ele>1501.4</ele>
        <time>2012-12-28T08:39:19Z</time>
      </trkpt>
      <trkpt lat="44.07848" lon="7.03532">
        <ele>1501.4</ele>
        <time>2012-12-28T08:39:20Z</time>
      </trkpt>
      <trkpt lat="44.07848" lon="7.03532">
        <ele>1501.4</ele>
        <time>2012-12-28T08:39:21Z</time>
      </trkpt>
      <trkpt lat="44.07848" lon="7.03532">
        <ele>1501.4</ele>
        <time>2012-12-28T08:39:22Z</time>
      </trkpt>
      <trkpt lat="44.07848" lon="7.03532">
        <ele>1501.4</ele>
        <time>2012-12-28T08:39:23Z</time>
      </trkpt>
      <trkpt lat="44.07848" lon="7.03532">
        <ele>1501.4</ele>
        <time>2012-12-28T08:39:24Z</time>
      </trkpt>
      <trkpt lat="44.07848" lon="7.03532">
        <ele>1501.4</ele>
        <time>2012-12-28T08:39:25Z</time>
      </trkpt>
      <trkpt lat="44.07848" lon="7.03532">
        <ele>1501.4</ele>
        <time>2012-12-28T08:39:26Z</time>
      </trkpt>
      <trkpt lat="44.07848" lon="7.03532">
        <ele>1501.4</ele>
        <time>2012-12-28T08:39:27Z</time>
      </trkpt>
      <trkpt lat="44.07848" lon="7.03532">
        <ele>1501.4</ele>
        <time>2012-12-28T08:39:28Z</time>
      </trkpt>
      <trkpt lat="44.07848" lon="7.03532">
        <ele>1501.4</ele>
        <time>2012-12-28T08:39:29Z</time>
      </trkpt>
      <trkpt lat="44.07848" lon="7.03532">
        <ele>1501.4</ele>
        <time>2012-12-28T08:39:30Z</time>
      </trkpt>
      <trkpt lat="44.07848" lon="7.03532">
        <ele>1501.4</ele>
        <time>2012-12-28T08:39:31Z</time>
      </trkpt>
      <trkpt lat="44.07848" lon="7.03532">
        <ele>1501.4</ele>
        <time>2012-12-28T08:39:32Z</time>
      </trkpt>
      <trkpt lat="44.07848" lon="7.03532">
        <ele>1501.4</ele>
        <time>2012-12-28T08:39:33Z</time>
      </trkpt>
      <trkpt lat="44.07848" lon="7.03532">
        <ele>1501.4</ele>
        <time>2012-12-28T08:39:34Z</time>
      </trkpt>
      <trkpt lat="44.07848" lon="7.03532">
        <ele>1501.4</ele>
        <time>2012-12-28T08:39:35Z</time>
      </trkpt>
      <trkpt lat="44.07848" lon="7.03532">
        <ele>1501.4</ele>
        <time>2012-12-28T08:39:36Z</time>
      </trkpt>
      <trkpt lat="44.07848" lon="7.03532">
        <ele>1501.4</ele>
        <time>2012-12-28T08:39:37Z</time>
      </trkpt>
      <trkpt lat="44.07848" lon="7.03532">
        <ele>1501.4</ele>
        <time>2012-12-28T08:39:38Z</time>
      </trkpt>
      <trkpt lat="44.07848" lon="7.03532">
        <ele>1501.4</ele>
        <time>2012-12-28T08:39:39Z</time>
      </trkpt>
      <trkpt lat="44.07848" lon="7.03532">
        <ele>1501.4</ele>
        <time>2012-12-28T08:39:40Z</time>
      </trkpt>
      <trkpt lat="44.07848" lon="7.03532">
        <ele>1501.4</ele>
        <time>2012-12-28T08:39:41Z</time>
      </trkpt>
      <trkpt lat="44.07848" lon="7.03532">
        <ele>1501.4</ele>
        <time>2012-12-28T08:39:42Z</time>
      </trkpt>
      <trkpt lat="44.07848" lon="7.03532">
        <ele>1501.4</ele>
        <time>2012-12-28T08:39:43Z</time>
      </trkpt>
      <trkpt lat="44.07848" lon="7.03532">
        <ele>1501.4</ele>
        <time>2012-12-28T08:39:44Z</time>
      </trkpt>
      <trkpt lat="44.07848" lon="7.03532">
        <ele>1501.4</ele>
        <time>2012-12-28T08:39:45Z</time>
      </trkpt>
      <trkpt lat="44.07848" lon="7.03532">
        <ele>1501.4</ele>
        <time>2012-12-28T08:39:46Z</time>
      </trkpt>
      <trkpt lat="44.07848" lon="7.03532">
        <ele>1501.4</ele>
        <time>2012-12-28T08:39:47Z</time>
      </trkpt>
      <trkpt lat="44.07848" lon="7.03532">
        <ele>1501.4</ele>
        <time>2012-12-28T08:39:48Z</time>
      </trkpt>
      <trkpt lat="44.07848" lon="7.03532">
        <ele>1501.4</ele>
        <time>2012-12-28T08:39:49Z</time>
      </trkpt>
      <trkpt lat="44.07848" lon="7.03532">
        <ele>1501.4</ele>
        <time>2012-12-28T08:39:50Z</time>
      </trkpt>
      <trkpt lat="44.07848" lon="7.03532">
        <ele>1501.4</ele>
        <time>2012-12-28T08:39:51Z</time>
      </trkpt>
      <trkpt lat="44.07848" lon="7.03532">
        <ele>1501.4</ele>
        <time>2012-12-28T08:39:52Z</time>
      </trkpt>
      <trkpt lat="44.07848" lon="7.03532">
        <ele>1501.4</ele>
        <time>2012-12-28T08:39:53Z</time>
      </trkpt>
      <trkpt lat="44.07848" lon="7.03532">
        <ele>1501.4</ele>
        <time>2012-12-28T08:39:54Z</time>
      </trkpt>
      <trkpt lat="44.07848" lon="7.03532">
        <ele>1501.4</ele>
        <time>2012-12-28T08:39:55Z</time>
      </trkpt>
      <trkpt lat="44.07848" lon="7.03532">
        <ele>1501.4</ele>
        <time>2012-12-28T08:39:56Z</time>
      </trkpt>
      <trkpt lat="44.07848" lon="7.03532">
        <ele>1501.4</ele>
        <time>2012-12-28T08:39:57Z</time>
      </trkpt>
      <trkpt lat="44.07848" lon="7.03532">
        <ele>1501.4</ele>
        <time>2012-12-28T08:39:58Z</time>
      </trkpt>
      <trkpt lat="44.07848" lon="7.03532">
        <ele>1501.4</ele>
        <time>2012-12-28T08:39:59Z</time>
      </trkpt>
      <trkpt lat="44.07848" lon="7.03532">
        <ele>1501.4</ele>
        <time>2012-12-28T08:40:00Z</time>
      </trkpt>
      <trkpt lat="44.07848" lon="7.03532">
        <ele>1501.4</ele>
        <time>2012-12-28T08:40:01Z</time>
      </trkpt>
      <trkpt lat="44.07848" lon="7.03532">
        <ele>1501.4</ele>
        <time>2012-12-28T08:40:02Z</time>
      </trkpt>
      <trkpt lat="44.07848" lon="7.03531">
        <ele>1501.4</ele>
        <time>2012-12-28T08:40:03Z</time>
      </trkpt>
      <trkpt lat="44.07848" lon="7.0353">
        <ele>1501.5</ele>
        <time>2012-12-28T08:40:04Z</time>
      </trkpt>
      <trkpt lat="44.07847" lon="7.03525">
        <ele>1502</ele>
        <time>2012-12-28T08:40:08Z</time>
      </trkpt>
      <trkpt lat="44.07847" lon="7.03524">
        <ele>1502.2</ele>
        <time>2012-12-28T08:40:09Z</time>
      </trkpt>
      <trkpt lat="44.07847" lon="7.03523">
        <ele>1502.2</ele>
        <time>2012-12-28T08:40:10Z</time>
      </trkpt>
      <trkpt lat="44.07845" lon="7.03516">
        <ele>1503.2</ele>
        <time>2012-12-28T08:40:23Z</time>
      </trkpt>
      <trkpt lat="44.07846" lon="7.03514">
        <ele>1503.4</ele>
        <time>2012-12-28T08:40:24Z</time>
      </trkpt>
      <trkpt lat="44.07846" lon="7.03513">
        <ele>1503.5</ele>
        <time>2012-12-28T08:40:25Z</time>
      </trkpt>
      <trkpt lat="44.07846" lon="7.03512">
        <ele>1503.6</ele>
        <time>2012-12-28T08:40:26Z</time>
      </trkpt>
      <trkpt lat="44.07846" lon="7.0351">
        <ele>1503.6</ele>
        <time>2012-12-28T08:40:27Z</time>
      </trkpt>
      <trkpt lat="44.07845" lon="7.03508">
        <ele>1503.7</ele>
        <time>2012-12-28T08:40:28Z</time>
      </trkpt>
      <trkpt lat="44.07844" lon="7.03505">
        <ele>1503.7</ele>
        <time>2012-12-28T08:40:30Z</time>
      </trkpt>
      <trkpt lat="44.07843" lon="7.03504">
        <ele>1504.2</ele>
        <time>2012-12-28T08:40:31Z</time>
      </trkpt>
      <trkpt lat="44.07843" lon="7.03503">
        <ele>1504.1</ele>
        <time>2012-12-28T08:40:32Z</time>
      </trkpt>
      <trkpt lat="44.07841" lon="7.03499">
        <ele>1505.1</ele>
        <time>2012-12-28T08:40:35Z</time>
      </trkpt>
      <trkpt lat="44.0784" lon="7.03498">
        <ele>1505.6</ele>
        <time>2012-12-28T08:40:36Z</time>
      </trkpt>
      <trkpt lat="44.07839" lon="7.03495">
        <ele>1505.7</ele>
        <time>2012-12-28T08:40:38Z</time>
      </trkpt>
      <trkpt lat="44.07837" lon="7.03489">
        <ele>1506.1</ele>
        <time>2012-12-28T08:40:45Z</time>
      </trkpt>
      <trkpt lat="44.07837" lon="7.03487">
        <ele>1506.4</ele>
        <time>2012-12-28T08:40:46Z</time>
      </trkpt>
      <trkpt lat="44.07836" lon="7.03486">
        <ele>1506.4</ele>
        <time>2012-12-28T08:40:47Z</time>
      </trkpt>
      <trkpt lat="44.07835" lon="7.03485">
        <ele>1506.3</ele>
        <time>2012-12-28T08:40:48Z</time>
      </trkpt>
      <trkpt lat="44.07834" lon="7.03482">
        <ele>1506.7</ele>
        <time>2012-12-28T08:40:50Z</time>
      </trkpt>
      <trkpt lat="44.07831" lon="7.03462">
        <ele>1511.7</ele>
        <time>2012-12-28T08:41:13Z</time>
      </trkpt>
      <trkpt lat="44.07832" lon="7.0346">
        <ele>1512.1</ele>
        <time>2012-12-28T08:41:14Z</time>
      </trkpt>
      <trkpt lat="44.07828" lon="7.03451">
        <ele>1513.6</ele>
        <time>2012-12-28T08:41:24Z</time>
      </trkpt>
      <trkpt lat="44.07827" lon="7.0345">
        <ele>1513.7</ele>
        <time>2012-12-28T08:41:25Z</time>
      </trkpt>
      <trkpt lat="44.07819" lon="7.03438">
        <ele>1518.7</ele>
        <time>2012-12-28T08:41:42Z</time>
      </trkpt>
      <trkpt lat="44.07819" lon="7.03437">
        <ele>1518.8</ele>
        <time>2012-12-28T08:41:43Z</time>
      </trkpt>
      <trkpt lat="44.07818" lon="7.03433">
        <ele>1520.1</ele>
        <time>2012-12-28T08:41:48Z</time>
      </trkpt>
      <trkpt lat="44.07811" lon="7.03428">
        <ele>1521.8</ele>
        <time>2012-12-28T08:42:02Z</time>
      </trkpt>
      <trkpt lat="44.0781" lon="7.03428">
        <ele>1521.7</ele>
        <time>2012-12-28T08:42:03Z</time>
      </trkpt>
      <trkpt lat="44.0781" lon="7.03428">
        <ele>1521.7</ele>
        <time>2012-12-28T08:42:04Z</time>
      </trkpt>
      <trkpt lat="44.0781" lon="7.03428">
        <ele>1521.7</ele>
        <time>2012-12-28T08:42:05Z</time>
      </trkpt>
      <trkpt lat="44.07809" lon="7.03427">
        <ele>1521.8</ele>
        <time>2012-12-28T08:42:06Z</time>
      </trkpt>
      <trkpt lat="44.07809" lon="7.03426">
        <ele>1521.9</ele>
        <time>2012-12-28T08:42:07Z</time>
      </trkpt>
      <trkpt lat="44.07808" lon="7.03426">
        <ele>1522.1</ele>
        <time>2012-12-28T08:42:08Z</time>
      </trkpt>
      <trkpt lat="44.07807" lon="7.03424">
        <ele>1522.2</ele>
        <time>2012-12-28T08:42:10Z</time>
      </trkpt>
      <trkpt lat="44.07806" lon="7.03424">
        <ele>1522.2</ele>
        <time>2012-12-28T08:42:11Z</time>
      </trkpt>
      <trkpt lat="44.07775" lon="7.03407">
        <ele>1527.7</ele>
        <time>2012-12-28T08:43:16Z</time>
      </trkpt>
      <trkpt lat="44.07774" lon="7.03406">
        <ele>1528</ele>
        <time>2012-12-28T08:43:17Z</time>
      </trkpt>
      <trkpt lat="44.07774" lon="7.03405">
        <ele>1528</ele>
        <time>2012-12-28T08:43:18Z</time>
      </trkpt>
      <trkpt lat="44.07773" lon="7.03405">
        <ele>1528.2</ele>
        <time>2012-12-28T08:43:19Z</time>
      </trkpt>
      <trkpt lat="44.07772" lon="7.03405">
        <ele>1528.8</ele>
        <time>2012-12-28T08:43:20Z</time>
      </trkpt>
      <trkpt lat="44.07772" lon="7.03405">
        <ele>1528.8</ele>
        <time>2012-12-28T08:43:21Z</time>
      </trkpt>
      <trkpt lat="44.07772" lon="7.03404">
        <ele>1529.1</ele>
        <time>2012-12-28T08:43:22Z</time>
      </trkpt>
      <trkpt lat="44.07771" lon="7.03402">
        <ele>1529.4</ele>
        <time>2012-12-28T08:43:23Z</time>
      </trkpt>
      <trkpt lat="44.0777" lon="7.03403">
        <ele>1530.4</ele>
        <time>2012-12-28T08:43:24Z</time>
      </trkpt>
      <trkpt lat="44.07769" lon="7.03403">
        <ele>1530.6</ele>
        <time>2012-12-28T08:43:25Z</time>
      </trkpt>
      <trkpt lat="44.07769" lon="7.03403">
        <ele>1530.6</ele>
        <time>2012-12-28T08:43:26Z</time>
      </trkpt>
      <trkpt lat="44.07769" lon="7.03402">
        <ele>1530.8</ele>
        <time>2012-12-28T08:43:27Z</time>
      </trkpt>
      <trkpt lat="44.07769" lon="7.03402">
        <ele>1530.8</ele>
        <time>2012-12-28T08:43:28Z</time>
      </trkpt>
      <trkpt lat="44.07768" lon="7.03401">
        <ele>1531.2</ele>
        <time>2012-12-28T08:43:29Z</time>
      </trkpt>
      <trkpt lat="44.07768" lon="7.03401">
        <ele>1531.2</ele>
        <time>2012-12-28T08:43:30Z</time>
      </trkpt>
      <trkpt lat="44.07768" lon="7.03401">
        <ele>1531.2</ele>
        <time>2012-12-28T08:43:31Z</time>
      </trkpt>
      <trkpt lat="44.07768" lon="7.03401">
        <ele>1531.7</ele>
        <time>2012-12-28T08:43:32Z</time>
      </trkpt>
      <trkpt lat="44.07768" lon="7.03401">
        <ele>1531.7</ele>
        <time>2012-12-28T08:43:33Z</time>
      </trkpt>
      <trkpt lat="44.07768" lon="7.03401">
        <ele>1531.7</ele>
        <time>2012-12-28T08:43:34Z</time>
      </trkpt>
      <trkpt lat="44.07768" lon="7.03401">
        <ele>1531.7</ele>
        <time>2012-12-28T08:43:35Z</time>
      </trkpt>
      <trkpt lat="44.07767" lon="7.03401">
        <ele>1531.8</ele>
        <time>2012-12-28T08:43:36Z</time>
      </trkpt>
      <trkpt lat="44.07766" lon="7.034">
        <ele>1531.6</ele>
        <time>2012-12-28T08:43:37Z</time>
      </trkpt>
      <trkpt lat="44.07752" lon="7.03391">
        <ele>1535</ele>
        <time>2012-12-28T08:43:57Z</time>
      </trkpt>
      <trkpt lat="44.07751" lon="7.03391">
        <ele>1535.4</ele>
        <time>2012-12-28T08:43:58Z</time>
      </trkpt>
      <trkpt lat="44.07738" lon="7.03385">
        <ele>1539.9</ele>
        <time>2012-12-28T08:44:19Z</time>
      </trkpt>
      <trkpt lat="44.07738" lon="7.03385">
        <ele>1539.9</ele>
        <time>2012-12-28T08:44:20Z</time>
      </trkpt>
      <trkpt lat="44.07737" lon="7.03385">
        <ele>1540.4</ele>
        <time>2012-12-28T08:44:21Z</time>
      </trkpt>
      <trkpt lat="44.07737" lon="7.03385">
        <ele>1540.1</ele>
        <time>2012-12-28T08:44:22Z</time>
      </trkpt>
      <trkpt lat="44.07736" lon="7.03384">
        <ele>1540.4</ele>
        <time>2012-12-28T08:44:23Z</time>
      </trkpt>
      <trkpt lat="44.07735" lon="7.03383">
        <ele>1539.9</ele>
        <time>2012-12-28T08:44:24Z</time>
      </trkpt>
      <trkpt lat="44.07735" lon="7.03383">
        <ele>1539.9</ele>
        <time>2012-12-28T08:44:25Z</time>
      </trkpt>
      <trkpt lat="44.07734" lon="7.03383">
        <ele>1539.9</ele>
        <time>2012-12-28T08:44:26Z</time>
      </trkpt>
      <trkpt lat="44.07727" lon="7.03379">
        <ele>1541.3</ele>
        <time>2012-12-28T08:44:41Z</time>
      </trkpt>
      <trkpt lat="44.07727" lon="7.03379">
        <ele>1541.3</ele>
        <time>2012-12-28T08:44:42Z</time>
      </trkpt>
      <trkpt lat="44.07726" lon="7.03379">
        <ele>1541.7</ele>
        <time>2012-12-28T08:44:43Z</time>
      </trkpt>
      <trkpt lat="44.07725" lon="7.03378">
        <ele>1542</ele>
        <time>2012-12-28T08:44:44Z</time>
      </trkpt>
      <trkpt lat="44.07725" lon="7.03378">
        <ele>1542</ele>
        <time>2012-12-28T08:44:45Z</time>
      </trkpt>
      <trkpt lat="44.07725" lon="7.03378">
        <ele>1542.5</ele>
        <time>2012-12-28T08:44:46Z</time>
      </trkpt>
      <trkpt lat="44.07725" lon="7.03378">
        <ele>1542.5</ele>
        <time>2012-12-28T08:44:47Z</time>
      </trkpt>
      <trkpt lat="44.07724" lon="7.03378">
        <ele>1542.9</ele>
        <time>2012-12-28T08:44:48Z</time>
      </trkpt>
      <trkpt lat="44.07722" lon="7.03379">
        <ele>1543.5</ele>
        <time>2012-12-28T08:44:49Z</time>
      </trkpt>
      <trkpt lat="44.07721" lon="7.03378">
        <ele>1544.1</ele>
        <time>2012-12-28T08:44:50Z</time>
      </trkpt>
      <trkpt lat="44.07721" lon="7.03378">
        <ele>1544.1</ele>
        <time>2012-12-28T08:44:51Z</time>
      </trkpt>
      <trkpt lat="44.07721" lon="7.03377">
        <ele>1544.7</ele>
        <time>2012-12-28T08:44:52Z</time>
      </trkpt>
      <trkpt lat="44.0772" lon="7.03376">
        <ele>1544.7</ele>
        <time>2012-12-28T08:44:53Z</time>
      </trkpt>
      <trkpt lat="44.07719" lon="7.03376">
        <ele>1545</ele>
        <time>2012-12-28T08:44:54Z</time>
      </trkpt>
      <trkpt lat="44.07709" lon="7.03375">
        <ele>1545.1</ele>
        <time>2012-12-28T08:45:20Z</time>
      </trkpt>
      <trkpt lat="44.07707" lon="7.03374">
        <ele>1545.1</ele>
        <time>2012-12-28T08:45:22Z</time>
      </trkpt>
      <trkpt lat="44.07706" lon="7.03374">
        <ele>1545</ele>
        <time>2012-12-28T08:45:23Z</time>
      </trkpt>
      <trkpt lat="44.07701" lon="7.0337">
        <ele>1547</ele>
        <time>2012-12-28T08:45:32Z</time>
      </trkpt>
      <trkpt lat="44.07701" lon="7.0337">
        <ele>1547</ele>
        <time>2012-12-28T08:45:33Z</time>
      </trkpt>
      <trkpt lat="44.07701" lon="7.0337">
        <ele>1547.5</ele>
        <time>2012-12-28T08:45:34Z</time>
      </trkpt>
      <trkpt lat="44.07701" lon="7.0337">
        <ele>1547.5</ele>
        <time>2012-12-28T08:45:35Z</time>
      </trkpt>
      <trkpt lat="44.077" lon="7.0337">
        <ele>1547.8</ele>
        <time>2012-12-28T08:45:36Z</time>
      </trkpt>
      <trkpt lat="44.07699" lon="7.03369">
        <ele>1547.9</ele>
        <time>2012-12-28T08:45:37Z</time>
      </trkpt>
      <trkpt lat="44.07699" lon="7.03369">
        <ele>1547.9</ele>
        <time>2012-12-28T08:45:38Z</time>
      </trkpt>
      <trkpt lat="44.07699" lon="7.03369">
        <ele>1548.4</ele>
        <time>2012-12-28T08:45:39Z</time>
      </trkpt>
      <trkpt lat="44.07698" lon="7.03368">
        <ele>1548.8</ele>
        <time>2012-12-28T08:45:40Z</time>
      </trkpt>
      <trkpt lat="44.07697" lon="7.03368">
        <ele>1549.5</ele>
        <time>2012-12-28T08:45:41Z</time>
      </trkpt>
      <trkpt lat="44.07696" lon="7.03367">
        <ele>1550</ele>
        <time>2012-12-28T08:45:42Z</time>
      </trkpt>
      <trkpt lat="44.07695" lon="7.03367">
        <ele>1550.7</ele>
        <time>2012-12-28T08:45:43Z</time>
      </trkpt>
      <trkpt lat="44.07695" lon="7.03367">
        <ele>1550.7</ele>
        <time>2012-12-28T08:45:44Z</time>
      </trkpt>
      <trkpt lat="44.07695" lon="7.03367">
        <ele>1550.7</ele>
        <time>2012-12-28T08:45:45Z</time>
      </trkpt>
      <trkpt lat="44.07695" lon="7.03366">
        <ele>1551.5</ele>
        <time>2012-12-28T08:45:46Z</time>
      </trkpt>
      <trkpt lat="44.07695" lon="7.03366">
        <ele>1551.5</ele>
        <time>2012-12-28T08:45:47Z</time>
      </trkpt>
      <trkpt lat="44.07694" lon="7.03366">
        <ele>1551.9</ele>
        <time>2012-12-28T08:45:48Z</time>
      </trkpt>
      <trkpt lat="44.07694" lon="7.03365">
        <ele>1552.1</ele>
        <time>2012-12-28T08:45:49Z</time>
      </trkpt>
      <trkpt lat="44.07681" lon="7.03359">
        <ele>1556.1</ele>
        <time>2012-12-28T08:46:25Z</time>
      </trkpt>
      <trkpt lat="44.07679" lon="7.03359">
        <ele>1556.3</ele>
        <time>2012-12-28T08:46:26Z</time>
      </trkpt>
      <trkpt lat="44.07671" lon="7.03353">
        <ele>1558.6</ele>
        <time>2012-12-28T08:46:44Z</time>
      </trkpt>
      <trkpt lat="44.0767" lon="7.03352">
        <ele>1558.5</ele>
        <time>2012-12-28T08:46:45Z</time>
      </trkpt>
      <trkpt lat="44.0767" lon="7.03352">
        <ele>1558.9</ele>
        <time>2012-12-28T08:46:46Z</time>
      </trkpt>
      <trkpt lat="44.0767" lon="7.03352">
        <ele>1558.9</ele>
        <time>2012-12-28T08:46:47Z</time>
      </trkpt>
      <trkpt lat="44.07669" lon="7.03351">
        <ele>1559</ele>
        <time>2012-12-28T08:46:48Z</time>
      </trkpt>
      <trkpt lat="44.07667" lon="7.03351">
        <ele>1559.4</ele>
        <time>2012-12-28T08:46:49Z</time>
      </trkpt>
      <trkpt lat="44.07667" lon="7.0335">
        <ele>1559.7</ele>
        <time>2012-12-28T08:46:50Z</time>
      </trkpt>
      <trkpt lat="44.07666" lon="7.0335">
        <ele>1560.2</ele>
        <time>2012-12-28T08:46:51Z</time>
      </trkpt>
      <trkpt lat="44.07664" lon="7.03349">
        <ele>1560.7</ele>
        <time>2012-12-28T08:46:56Z</time>
      </trkpt>
      <trkpt lat="44.07663" lon="7.0335">
        <ele>1560.8</ele>
        <time>2012-12-28T08:46:57Z</time>
      </trkpt>
      <trkpt lat="44.07661" lon="7.03349">
        <ele>1561</ele>
        <time>2012-12-28T08:46:58Z</time>
      </trkpt>
      <trkpt lat="44.0766" lon="7.03349">
        <ele>1561.3</ele>
        <time>2012-12-28T08:46:59Z</time>
      </trkpt>
      <trkpt lat="44.07658" lon="7.03348">
        <ele>1561.5</ele>
        <time>2012-12-28T08:47:00Z</time>
      </trkpt>
      <trkpt lat="44.07657" lon="7.03348">
        <ele>1561.9</ele>
        <time>2012-12-28T08:47:01Z</time>
      </trkpt>
      <trkpt lat="44.07656" lon="7.03347">
        <ele>1562.3</ele>
        <time>2012-12-28T08:47:02Z</time>
      </trkpt>
      <trkpt lat="44.07656" lon="7.03347">
        <ele>1562.3</ele>
        <time>2012-12-28T08:47:03Z</time>
      </trkpt>
      <trkpt lat="44.07655" lon="7.03347">
        <ele>1563</ele>
        <time>2012-12-28T08:47:04Z</time>
      </trkpt>
      <trkpt lat="44.07655" lon="7.03346">
        <ele>1562.8</ele>
        <time>2012-12-28T08:47:05Z</time>
      </trkpt>
      <trkpt lat="44.0765" lon="7.03342">
        <ele>1563.4</ele>
        <time>2012-12-28T08:47:13Z</time>
      </trkpt>
      <trkpt lat="44.07649" lon="7.03342">
        <ele>1563.8</ele>
        <time>2012-12-28T08:47:14Z</time>
      </trkpt>
      <trkpt lat="44.07649" lon="7.03342">
        <ele>1563.8</ele>
        <time>2012-12-28T08:47:15Z</time>
      </trkpt>
      <trkpt lat="44.07648" lon="7.03341">
        <ele>1564.1</ele>
        <time>2012-12-28T08:47:16Z</time>
      </trkpt>
      <trkpt lat="44.07647" lon="7.0334">
        <ele>1564</ele>
        <time>2012-12-28T08:47:17Z</time>
      </trkpt>
      <trkpt lat="44.07646" lon="7.03339">
        <ele>1564.3</ele>
        <time>2012-12-28T08:47:18Z</time>
      </trkpt>
      <trkpt lat="44.07646" lon="7.03339">
        <ele>1564.3</ele>
        <time>2012-12-28T08:47:19Z</time>
      </trkpt>
      <trkpt lat="44.07646" lon="7.03339">
        <ele>1564.3</ele>
        <time>2012-12-28T08:47:20Z</time>
      </trkpt>
      <trkpt lat="44.07632" lon="7.0332">
        <ele>1568.3</ele>
        <time>2012-12-28T08:47:52Z</time>
      </trkpt>
      <trkpt lat="44.07631" lon="7.03319">
        <ele>1568.6</ele>
        <time>2012-12-28T08:47:53Z</time>
      </trkpt>
      <trkpt lat="44.07625" lon="7.03305">
        <ele>1571.5</ele>
        <time>2012-12-28T08:48:07Z</time>
      </trkpt>
      <trkpt lat="44.07625" lon="7.03304">
        <ele>1571.3</ele>
        <time>2012-12-28T08:48:08Z</time>
      </trkpt>
      <trkpt lat="44.07624" lon="7.03302">
        <ele>1571.9</ele>
        <time>2012-12-28T08:48:09Z</time>
      </trkpt>
      <trkpt lat="44.07624" lon="7.03302">
        <ele>1571.9</ele>
        <time>2012-12-28T08:48:10Z</time>
      </trkpt>
      <trkpt lat="44.07624" lon="7.03302">
        <ele>1571.9</ele>
        <time>2012-12-28T08:48:11Z</time>
      </trkpt>
      <trkpt lat="44.07624" lon="7.03302">
        <ele>1571.9</ele>
        <time>2012-12-28T08:48:12Z</time>
      </trkpt>
      <trkpt lat="44.07624" lon="7.03302">
        <ele>1571.9</ele>
        <time>2012-12-28T08:48:13Z</time>
      </trkpt>
      <trkpt lat="44.07624" lon="7.03302">
        <ele>1571.9</ele>
        <time>2012-12-28T08:48:14Z</time>
      </trkpt>
      <trkpt lat="44.07624" lon="7.03302">
        <ele>1572.1</ele>
        <time>2012-12-28T08:48:15Z</time>
      </trkpt>
      <trkpt lat="44.07624" lon="7.03302">
        <ele>1572.1</ele>
        <time>2012-12-28T08:48:16Z</time>
      </trkpt>
      <trkpt lat="44.07624" lon="7.03301">
        <ele>1572.4</ele>
        <time>2012-12-28T08:48:17Z</time>
      </trkpt>
      <trkpt lat="44.07623" lon="7.033">
        <ele>1572.6</ele>
        <time>2012-12-28T08:48:18Z</time>
      </trkpt>
      <trkpt lat="44.07623" lon="7.03298">
        <ele>1572.5</ele>
        <time>2012-12-28T08:48:19Z</time>
      </trkpt>
      <trkpt lat="44.07623" lon="7.03298">
        <ele>1572.8</ele>
        <time>2012-12-28T08:48:20Z</time>
      </trkpt>
      <trkpt lat="44.07621" lon="7.03296">
        <ele>1573.8</ele>
        <time>2012-12-28T08:48:23Z</time>
      </trkpt>
      <trkpt lat="44.0762" lon="7.03296">
        <ele>1574.5</ele>
        <time>2012-12-28T08:48:24Z</time>
      </trkpt>
      <trkpt lat="44.07619" lon="7.03296">
        <ele>1574.9</ele>
        <time>2012-12-28T08:48:25Z</time>
      </trkpt>
      <trkpt lat="44.07619" lon="7.03296">
        <ele>1574.9</ele>
        <time>2012-12-28T08:48:26Z</time>
      </trkpt>
      <trkpt lat="44.07619" lon="7.03296">
        <ele>1574.9</ele>
        <time>2012-12-28T08:48:27Z</time>
      </trkpt>
      <trkpt lat="44.07619" lon="7.03296">
        <ele>1574.9</ele>
        <time>2012-12-28T08:48:28Z</time>
      </trkpt>
      <trkpt lat="44.07619" lon="7.03296">
        <ele>1574.9</ele>
        <time>2012-12-28T08:48:29Z</time>
      </trkpt>
      <trkpt lat="44.07619" lon="7.03296">
        <ele>1574.9</ele>
        <time>2012-12-28T08:48:30Z</time>
      </trkpt>
      <trkpt lat="44.07619" lon="7.03296">
        <ele>1574.9</ele>
        <time>2012-12-28T08:48:31Z</time>
      </trkpt>
      <trkpt lat="44.07619" lon="7.03296">
        <ele>1574.9</ele>
        <time>2012-12-28T08:48:32Z</time>
      </trkpt>
      <trkpt lat="44.07619" lon="7.03295">
        <ele>1574.8</ele>
        <time>2012-12-28T08:48:33Z</time>
      </trkpt>
      <trkpt lat="44.07619" lon="7.03295">
        <ele>1574.5</ele>
        <time>2012-12-28T08:48:34Z</time>
      </trkpt>
      <trkpt lat="44.07617" lon="7.03295">
        <ele>1574.7</ele>
        <time>2012-12-28T08:48:35Z</time>
      </trkpt>
      <trkpt lat="44.07617" lon="7.03295">
        <ele>1574.7</ele>
        <time>2012-12-28T08:48:36Z</time>
      </trkpt>
      <trkpt lat="44.07617" lon="7.03295">
        <ele>1574.8</ele>
        <time>2012-12-28T08:48:37Z</time>
      </trkpt>
      <trkpt lat="44.07617" lon="7.03295">
        <ele>1574.8</ele>
        <time>2012-12-28T08:48:38Z</time>
      </trkpt>
      <trkpt lat="44.07616" lon="7.03294">
        <ele>1575.2</ele>
        <time>2012-12-28T08:48:39Z</time>
      </trkpt>
      <trkpt lat="44.07616" lon="7.03294">
        <ele>1575.4</ele>
        <time>2012-12-28T08:48:40Z</time>
      </trkpt>
      <trkpt lat="44.07615" lon="7.03293">
        <ele>1575.8</ele>
        <time>2012-12-28T08:48:41Z</time>
      </trkpt>
      <trkpt lat="44.07614" lon="7.03293">
        <ele>1576.4</ele>
        <time>2012-12-28T08:48:42Z</time>
      </trkpt>
      <trkpt lat="44.07613" lon="7.03292">
        <ele>1576.8</ele>
        <time>2012-12-28T08:48:43Z</time>
      </trkpt>
      <trkpt lat="44.07613" lon="7.03292">
        <ele>1576.8</ele>
        <time>2012-12-28T08:48:44Z</time>
      </trkpt>
      <trkpt lat="44.07613" lon="7.03292">
        <ele>1576.8</ele>
        <time>2012-12-28T08:48:45Z</time>
      </trkpt>
      <trkpt lat="44.07613" lon="7.03292">
        <ele>1576.9</ele>
        <time>2012-12-28T08:48:46Z</time>
      </trkpt>
      <trkpt lat="44.07612" lon="7.03291">
        <ele>1577.2</ele>
        <time>2012-12-28T08:48:47Z</time>
      </trkpt>
      <trkpt lat="44.07612" lon="7.03291">
        <ele>1577.2</ele>
        <time>2012-12-28T08:48:48Z</time>
      </trkpt>
      <trkpt lat="44.07611" lon="7.03291">
        <ele>1577.2</ele>
        <time>2012-12-28T08:48:49Z</time>
      </trkpt>
      <trkpt lat="44.0761" lon="7.03289">
        <ele>1577.5</ele>
        <time>2012-12-28T08:48:50Z</time>
      </trkpt>
      <trkpt lat="44.0761" lon="7.03289">
        <ele>1577.9</ele>
        <time>2012-12-28T08:48:51Z</time>
      </trkpt>
      <trkpt lat="44.07609" lon="7.03288">
        <ele>1578</ele>
        <time>2012-12-28T08:48:52Z</time>
      </trkpt>
      <trkpt lat="44.07608" lon="7.03287">
        <ele>1578</ele>
        <time>2012-12-28T08:48:53Z</time>
      </trkpt>
      <trkpt lat="44.07608" lon="7.03285">
        <ele>1578.2</ele>
        <time>2012-12-28T08:48:54Z</time>
      </trkpt>
      <trkpt lat="44.07603" lon="7.03275">
        <ele>1580</ele>
        <time>2012-12-28T08:49:13Z</time>
      </trkpt>
      <trkpt lat="44.07602" lon="7.03274">
        <ele>1580.5</ele>
        <time>2012-12-28T08:49:14Z</time>
      </trkpt>
      <trkpt lat="44.07601" lon="7.03273">
        <ele>1581</ele>
        <time>2012-12-28T08:49:15Z</time>
      </trkpt>
      <trkpt lat="44.07601" lon="7.03273">
        <ele>1581.3</ele>
        <time>2012-12-28T08:49:16Z</time>
      </trkpt>
      <trkpt lat="44.076" lon="7.03271">
        <ele>1581.6</ele>
        <time>2012-12-28T08:49:17Z</time>
      </trkpt>
      <trkpt lat="44.076" lon="7.0327">
        <ele>1581.7</ele>
        <time>2012-12-28T08:49:18Z</time>
      </trkpt>
      <trkpt lat="44.076" lon="7.0327">
        <ele>1581.7</ele>
        <time>2012-12-28T08:49:19Z</time>
      </trkpt>
      <trkpt lat="44.076" lon="7.03269">
        <ele>1581.7</ele>
        <time>2012-12-28T08:49:20Z</time>
      </trkpt>
      <trkpt lat="44.07599" lon="7.03269">
        <ele>1581.8</ele>
        <time>2012-12-28T08:49:21Z</time>
      </trkpt>
      <trkpt lat="44.07598" lon="7.03268">
        <ele>1582</ele>
        <time>2012-12-28T08:49:22Z</time>
      </trkpt>
      <trkpt lat="44.07588" lon="7.03254">
        <ele>1585</ele>
        <time>2012-12-28T08:49:49Z</time>
      </trkpt>
      <trkpt lat="44.07587" lon="7.03253">
        <ele>1585.3</ele>
        <time>2012-12-28T08:49:50Z</time>
      </trkpt>
      <trkpt lat="44.07587" lon="7.03253">
        <ele>1585.3</ele>
        <time>2012-12-28T08:49:51Z</time>
      </trkpt>
      <trkpt lat="44.07586" lon="7.03252">
        <ele>1585.6</ele>
        <time>2012-12-28T08:49:52Z</time>
      </trkpt>
      <trkpt lat="44.07579" lon="7.03239">
        <ele>1589</ele>
        <time>2012-12-28T08:50:10Z</time>
      </trkpt>
      <trkpt lat="44.07578" lon="7.03239">
        <ele>1588.9</ele>
        <time>2012-12-28T08:50:11Z</time>
      </trkpt>
      <trkpt lat="44.07578" lon="7.03237">
        <ele>1588.8</ele>
        <time>2012-12-28T08:50:12Z</time>
      </trkpt>
      <trkpt lat="44.07578" lon="7.03237">
        <ele>1588.8</ele>
        <time>2012-12-28T08:50:13Z</time>
      </trkpt>
      <trkpt lat="44.07577" lon="7.03237">
        <ele>1588.7</ele>
        <time>2012-12-28T08:50:14Z</time>
      </trkpt>
      <trkpt lat="44.07577" lon="7.03236">
        <ele>1588.9</ele>
        <time>2012-12-28T08:50:15Z</time>
      </trkpt>
      <trkpt lat="44.07576" lon="7.03235">
        <ele>1589</ele>
        <time>2012-12-28T08:50:16Z</time>
      </trkpt>
      <trkpt lat="44.07575" lon="7.03235">
        <ele>1589.5</ele>
        <time>2012-12-28T08:50:17Z</time>
      </trkpt>
      <trkpt lat="44.07573" lon="7.03234">
        <ele>1589.7</ele>
        <time>2012-12-28T08:50:18Z</time>
      </trkpt>
      <trkpt lat="44.07572" lon="7.03234">
        <ele>1589.5</ele>
        <time>2012-12-28T08:50:19Z</time>
      </trkpt>
      <trkpt lat="44.07572" lon="7.03233">
        <ele>1589.6</ele>
        <time>2012-12-28T08:50:20Z</time>
      </trkpt>
      <trkpt lat="44.07571" lon="7.03233">
        <ele>1590</ele>
        <time>2012-12-28T08:50:21Z</time>
      </trkpt>
      <trkpt lat="44.0757" lon="7.03233">
        <ele>1590.5</ele>
        <time>2012-12-28T08:50:22Z</time>
      </trkpt>
      <trkpt lat="44.07569" lon="7.03233">
        <ele>1591.2</ele>
        <time>2012-12-28T08:50:23Z</time>
      </trkpt>
      <trkpt lat="44.07569" lon="7.03233">
        <ele>1591.9</ele>
        <time>2012-12-28T08:50:24Z</time>
      </trkpt>
      <trkpt lat="44.07569" lon="7.03233">
        <ele>1593.3</ele>
        <time>2012-12-28T08:50:25Z</time>
      </trkpt>
      <trkpt lat="44.07567" lon="7.03232">
        <ele>1594.5</ele>
        <time>2012-12-28T08:50:28Z</time>
      </trkpt>
      <trkpt lat="44.07566" lon="7.0323">
        <ele>1595.1</ele>
        <time>2012-12-28T08:50:31Z</time>
      </trkpt>
      <trkpt lat="44.07565" lon="7.03229">
        <ele>1594.8</ele>
        <time>2012-12-28T08:50:32Z</time>
      </trkpt>
      <trkpt lat="44.07565" lon="7.03229">
        <ele>1594.8</ele>
        <time>2012-12-28T08:50:33Z</time>
      </trkpt>
      <trkpt lat="44.07565" lon="7.03229">
        <ele>1594.8</ele>
        <time>2012-12-28T08:50:34Z</time>
      </trkpt>
      <trkpt lat="44.07565" lon="7.03229">
        <ele>1594.8</ele>
        <time>2012-12-28T08:50:35Z</time>
      </trkpt>
      <trkpt lat="44.07564" lon="7.03228">
        <ele>1595</ele>
        <time>2012-12-28T08:50:36Z</time>
      </trkpt>
      <trkpt lat="44.07564" lon="7.03228">
        <ele>1595</ele>
        <time>2012-12-28T08:50:37Z</time>
      </trkpt>
      <trkpt lat="44.07564" lon="7.03228">
        <ele>1595.4</ele>
        <time>2012-12-28T08:50:38Z</time>
      </trkpt>
      <trkpt lat="44.07564" lon="7.03227">
        <ele>1596</ele>
        <time>2012-12-28T08:50:39Z</time>
      </trkpt>
      <trkpt lat="44.07564" lon="7.03227">
        <ele>1596</ele>
        <time>2012-12-28T08:50:40Z</time>
      </trkpt>
      <trkpt lat="44.07564" lon="7.03227">
        <ele>1596.5</ele>
        <time>2012-12-28T08:50:41Z</time>
      </trkpt>
      <trkpt lat="44.0756" lon="7.03224">
        <ele>1596.6</ele>
        <time>2012-12-28T08:51:26Z</time>
      </trkpt>
      <trkpt lat="44.07559" lon="7.03224">
        <ele>1596.8</ele>
        <time>2012-12-28T08:51:27Z</time>
      </trkpt>
      <trkpt lat="44.07559" lon="7.03223">
        <ele>1597.4</ele>
        <time>2012-12-28T08:51:28Z</time>
      </trkpt>
      <trkpt lat="44.07558" lon="7.03223">
        <ele>1597.8</ele>
        <time>2012-12-28T08:51:29Z</time>
      </trkpt>
      <trkpt lat="44.07558" lon="7.03222">
        <ele>1597.5</ele>
        <time>2012-12-28T08:51:30Z</time>
      </trkpt>
      <trkpt lat="44.07558" lon="7.03222">
        <ele>1597.8</ele>
        <time>2012-12-28T08:51:31Z</time>
      </trkpt>
      <trkpt lat="44.07558" lon="7.03222">
        <ele>1597.8</ele>
        <time>2012-12-28T08:51:32Z</time>
      </trkpt>
      <trkpt lat="44.07558" lon="7.03222">
        <ele>1597.8</ele>
        <time>2012-12-28T08:51:33Z</time>
      </trkpt>
      <trkpt lat="44.07558" lon="7.03221">
        <ele>1598.1</ele>
        <time>2012-12-28T08:51:34Z</time>
      </trkpt>
      <trkpt lat="44.07558" lon="7.03221">
        <ele>1598.1</ele>
        <time>2012-12-28T08:51:35Z</time>
      </trkpt>
      <trkpt lat="44.07558" lon="7.03221">
        <ele>1598.1</ele>
        <time>2012-12-28T08:51:36Z</time>
      </trkpt>
      <trkpt lat="44.07557" lon="7.03221">
        <ele>1598.5</ele>
        <time>2012-12-28T08:51:37Z</time>
      </trkpt>
      <trkpt lat="44.07557" lon="7.03221">
        <ele>1598.5</ele>
        <time>2012-12-28T08:51:38Z</time>
      </trkpt>
      <trkpt lat="44.07557" lon="7.0322">
        <ele>1598.7</ele>
        <time>2012-12-28T08:51:39Z</time>
      </trkpt>
      <trkpt lat="44.07557" lon="7.0322">
        <ele>1598.7</ele>
        <time>2012-12-28T08:51:40Z</time>
      </trkpt>
      <trkpt lat="44.07557" lon="7.0322">
        <ele>1598.7</ele>
        <time>2012-12-28T08:51:41Z</time>
      </trkpt>
      <trkpt lat="44.07557" lon="7.0322">
        <ele>1598.7</ele>
        <time>2012-12-28T08:51:42Z</time>
      </trkpt>
      <trkpt lat="44.07557" lon="7.03219">
        <ele>1599.2</ele>
        <time>2012-12-28T08:51:43Z</time>
      </trkpt>
      <trkpt lat="44.07557" lon="7.03219">
        <ele>1599.2</ele>
        <time>2012-12-28T08:51:44Z</time>
      </trkpt>
      <trkpt lat="44.07556" lon="7.03219">
        <ele>1599.6</ele>
        <time>2012-12-28T08:51:45Z</time>
      </trkpt>
      <trkpt lat="44.07555" lon="7.03218">
        <ele>1600</ele>
        <time>2012-12-28T08:51:46Z</time>
      </trkpt>
      <trkpt lat="44.07555" lon="7.03218">
        <ele>1600</ele>
        <time>2012-12-28T08:51:47Z</time>
      </trkpt>
      <trkpt lat="44.07554" lon="7.03217">
        <ele>1600.2</ele>
        <time>2012-12-28T08:51:48Z</time>
      </trkpt>
      <trkpt lat="44.07553" lon="7.03217">
        <ele>1600.8</ele>
        <time>2012-12-28T08:51:49Z</time>
      </trkpt>
      <trkpt lat="44.07551" lon="7.03215">
        <ele>1601.4</ele>
        <time>2012-12-28T08:51:50Z</time>
      </trkpt>
      <trkpt lat="44.07551" lon="7.03215">
        <ele>1601.7</ele>
        <time>2012-12-28T08:51:51Z</time>
      </trkpt>
      <trkpt lat="44.07551" lon="7.03215">
        <ele>1601.7</ele>
        <time>2012-12-28T08:51:52Z</time>
      </trkpt>
      <trkpt lat="44.07551" lon="7.03215">
        <ele>1601.7</ele>
        <time>2012-12-28T08:51:53Z</time>
      </trkpt>
      <trkpt lat="44.07549" lon="7.03214">
        <ele>1602.6</ele>
        <time>2012-12-28T08:51:54Z</time>
      </trkpt>
      <trkpt lat="44.07548" lon="7.03213">
        <ele>1603</ele>
        <time>2012-12-28T08:51:55Z</time>
      </trkpt>
      <trkpt lat="44.07547" lon="7.03212">
        <ele>1603.4</ele>
        <time>2012-12-28T08:51:56Z</time>
      </trkpt>
      <trkpt lat="44.07543" lon="7.0321">
        <ele>1602.5</ele>
        <time>2012-12-28T08:52:06Z</time>
      </trkpt>
      <trkpt lat="44.07542" lon="7.0321">
        <ele>1603</ele>
        <time>2012-12-28T08:52:07Z</time>
      </trkpt>
      <trkpt lat="44.07541" lon="7.0321">
        <ele>1603.2</ele>
        <time>2012-12-28T08:52:08Z</time>
      </trkpt>
      <trkpt lat="44.0754" lon="7.03209">
        <ele>1603.2</ele>
        <time>2012-12-28T08:52:09Z</time>
      </trkpt>
      <trkpt lat="44.0754" lon="7.03208">
        <ele>1602.7</ele>
        <time>2012-12-28T08:52:10Z</time>
      </trkpt>
      <trkpt lat="44.07539" lon="7.03208">
        <ele>1602.6</ele>
        <time>2012-12-28T08:52:11Z</time>
      </trkpt>
      <trkpt lat="44.07538" lon="7.03208">
        <ele>1602.7</ele>
        <time>2012-12-28T08:52:12Z</time>
      </trkpt>
      <trkpt lat="44.07538" lon="7.03208">
        <ele>1602.7</ele>
        <time>2012-12-28T08:52:13Z</time>
      </trkpt>
      <trkpt lat="44.07538" lon="7.03208">
        <ele>1602.7</ele>
        <time>2012-12-28T08:52:14Z</time>
      </trkpt>
      <trkpt lat="44.07538" lon="7.03208">
        <ele>1602.7</ele>
        <time>2012-12-28T08:52:15Z</time>
      </trkpt>
      <trkpt lat="44.07538" lon="7.03207">
        <ele>1602.6</ele>
        <time>2012-12-28T08:52:16Z</time>
      </trkpt>
      <trkpt lat="44.07537" lon="7.03207">
        <ele>1602.6</ele>
        <time>2012-12-28T08:52:17Z</time>
      </trkpt>
      <trkpt lat="44.07537" lon="7.03206">
        <ele>1602.1</ele>
        <time>2012-12-28T08:52:18Z</time>
      </trkpt>
      <trkpt lat="44.07537" lon="7.03206">
        <ele>1602.1</ele>
        <time>2012-12-28T08:52:19Z</time>
      </trkpt>
      <trkpt lat="44.07536" lon="7.03205">
        <ele>1602.1</ele>
        <time>2012-12-28T08:52:20Z</time>
      </trkpt>
      <trkpt lat="44.07536" lon="7.03205">
        <ele>1602.1</ele>
        <time>2012-12-28T08:52:21Z</time>
      </trkpt>
      <trkpt lat="44.07535" lon="7.03205">
        <ele>1602.3</ele>
        <time>2012-12-28T08:52:22Z</time>
      </trkpt>
      <trkpt lat="44.07535" lon="7.03205">
        <ele>1602.3</ele>
        <time>2012-12-28T08:52:23Z</time>
      </trkpt>
      <trkpt lat="44.07535" lon="7.03204">
        <ele>1602.4</ele>
        <time>2012-12-28T08:52:24Z</time>
      </trkpt>
      <trkpt lat="44.07535" lon="7.03204">
        <ele>1603.2</ele>
        <time>2012-12-28T08:52:25Z</time>
      </trkpt>
      <trkpt lat="44.07534" lon="7.03203">
        <ele>1603.3</ele>
        <time>2012-12-28T08:52:26Z</time>
      </trkpt>
      <trkpt lat="44.07533" lon="7.03203">
        <ele>1603.7</ele>
        <time>2012-12-28T08:52:27Z</time>
      </trkpt>
      <trkpt lat="44.07532" lon="7.03202">
        <ele>1604</ele>
        <time>2012-12-28T08:52:28Z</time>
      </trkpt>
      <trkpt lat="44.07532" lon="7.03201">
        <ele>1604.8</ele>
        <time>2012-12-28T08:52:29Z</time>
      </trkpt>
      <trkpt lat="44.07532" lon="7.03201">
        <ele>1604.8</ele>
        <time>2012-12-28T08:52:30Z</time>
      </trkpt>
      <trkpt lat="44.07531" lon="7.03201">
        <ele>1605.2</ele>
        <time>2012-12-28T08:52:31Z</time>
      </trkpt>
      <trkpt lat="44.07531" lon="7.03201">
        <ele>1605.2</ele>
        <time>2012-12-28T08:52:32Z</time>
      </trkpt>
      <trkpt lat="44.07531" lon="7.03201">
        <ele>1605.8</ele>
        <time>2012-12-28T08:52:33Z</time>
      </trkpt>
      <trkpt lat="44.0753" lon="7.032">
        <ele>1606.2</ele>
        <time>2012-12-28T08:52:34Z</time>
      </trkpt>
      <trkpt lat="44.0753" lon="7.03199">
        <ele>1606.4</ele>
        <time>2012-12-28T08:52:35Z</time>
      </trkpt>
      <trkpt lat="44.0753" lon="7.03199">
        <ele>1606.4</ele>
        <time>2012-12-28T08:52:36Z</time>
      </trkpt>
      <trkpt lat="44.0753" lon="7.03199">
        <ele>1606.4</ele>
        <time>2012-12-28T08:52:37Z</time>
      </trkpt>
      <trkpt lat="44.07529" lon="7.03199">
        <ele>1606.9</ele>
        <time>2012-12-28T08:52:38Z</time>
      </trkpt>
      <trkpt lat="44.07529" lon="7.03199">
        <ele>1606.9</ele>
        <time>2012-12-28T08:52:39Z</time>
      </trkpt>
      <trkpt lat="44.07529" lon="7.03198">
        <ele>1607.3</ele>
        <time>2012-12-28T08:52:40Z</time>
      </trkpt>
      <trkpt lat="44.07528" lon="7.03198">
        <ele>1607.7</ele>
        <time>2012-12-28T08:52:41Z</time>
      </trkpt>
      <trkpt lat="44.07527" lon="7.03197">
        <ele>1608.3</ele>
        <time>2012-12-28T08:52:42Z</time>
      </trkpt>
      <trkpt lat="44.07524" lon="7.03194">
        <ele>1609.8</ele>
        <time>2012-12-28T08:54:03Z</time>
      </trkpt>
      <trkpt lat="44.07524" lon="7.03194">
        <ele>1609.8</ele>
        <time>2012-12-28T08:54:04Z</time>
      </trkpt>
      <trkpt lat="44.07524" lon="7.03194">
        <ele>1609.8</ele>
        <time>2012-12-28T08:54:05Z</time>
      </trkpt>
      <trkpt lat="44.07524" lon="7.03193">
        <ele>1610</ele>
        <time>2012-12-28T08:54:06Z</time>
      </trkpt>
      <trkpt lat="44.07524" lon="7.03192">
        <ele>1610.6</ele>
        <time>2012-12-28T08:54:07Z</time>
      </trkpt>
      <trkpt lat="44.07524" lon="7.03191">
        <ele>1611.3</ele>
        <time>2012-12-28T08:54:08Z</time>
      </trkpt>
      <trkpt lat="44.07524" lon="7.03191">
        <ele>1611.3</ele>
        <time>2012-12-28T08:54:09Z</time>
      </trkpt>
      <trkpt lat="44.07524" lon="7.03191">
        <ele>1612.1</ele>
        <time>2012-12-28T08:54:10Z</time>
      </trkpt>
      <trkpt lat="44.07524" lon="7.03191">
        <ele>1612.1</ele>
        <time>2012-12-28T08:54:11Z</time>
      </trkpt>
      <trkpt lat="44.07523" lon="7.0319">
        <ele>1612.5</ele>
        <time>2012-12-28T08:54:12Z</time>
      </trkpt>
      <trkpt lat="44.07523" lon="7.0319">
        <ele>1612.5</ele>
        <time>2012-12-28T08:54:13Z</time>
      </trkpt>
      <trkpt lat="44.07523" lon="7.0319">
        <ele>1612.5</ele>
        <time>2012-12-28T08:54:14Z</time>
      </trkpt>
      <trkpt lat="44.07523" lon="7.0319">
        <ele>1612.5</ele>
        <time>2012-12-28T08:54:15Z</time>
      </trkpt>
      <trkpt lat="44.07523" lon="7.0319">
        <ele>1612.5</ele>
        <time>2012-12-28T08:54:16Z</time>
      </trkpt>
      <trkpt lat="44.07522" lon="7.0319">
        <ele>1612.9</ele>
        <time>2012-12-28T08:54:17Z</time>
      </trkpt>
      <trkpt lat="44.0752" lon="7.03188">
        <ele>1612.9</ele>
        <time>2012-12-28T08:54:18Z</time>
      </trkpt>
      <trkpt lat="44.0752" lon="7.03188">
        <ele>1612.9</ele>
        <time>2012-12-28T08:54:19Z</time>
      </trkpt>
      <trkpt lat="44.07521" lon="7.03188">
        <ele>1613.2</ele>
        <time>2012-12-28T08:54:20Z</time>
      </trkpt>
      <trkpt lat="44.07521" lon="7.03188">
        <ele>1613.2</ele>
        <time>2012-12-28T08:54:21Z</time>
      </trkpt>
      <trkpt lat="44.0752" lon="7.03188">
        <ele>1614.3</ele>
        <time>2012-12-28T08:54:22Z</time>
      </trkpt>
      <trkpt lat="44.07519" lon="7.03188">
        <ele>1615.5</ele>
        <time>2012-12-28T08:54:24Z</time>
      </trkpt>
      <trkpt lat="44.07519" lon="7.03187">
        <ele>1615.9</ele>
        <time>2012-12-28T08:54:25Z</time>
      </trkpt>
      <trkpt lat="44.07519" lon="7.03187">
        <ele>1615.9</ele>
        <time>2012-12-28T08:54:26Z</time>
      </trkpt>
      <trkpt lat="44.07518" lon="7.03187">
        <ele>1616.7</ele>
        <time>2012-12-28T08:54:27Z</time>
      </trkpt>
      <trkpt lat="44.07518" lon="7.03186">
        <ele>1617.8</ele>
        <time>2012-12-28T08:54:28Z</time>
      </trkpt>
      <trkpt lat="44.07517" lon="7.03186">
        <ele>1618.2</ele>
        <time>2012-12-28T08:54:29Z</time>
      </trkpt>
      <trkpt lat="44.07518" lon="7.03185">
        <ele>1619.2</ele>
        <time>2012-12-28T08:54:30Z</time>
      </trkpt>
      <trkpt lat="44.07517" lon="7.03183">
        <ele>1619.4</ele>
        <time>2012-12-28T08:54:31Z</time>
      </trkpt>
      <trkpt lat="44.07517" lon="7.03182">
        <ele>1619.6</ele>
        <time>2012-12-28T08:54:32Z</time>
      </trkpt>
      <trkpt lat="44.07517" lon="7.03182">
        <ele>1619.6</ele>
        <time>2012-12-28T08:54:33Z</time>
      </trkpt>
      <trkpt lat="44.07517" lon="7.03182">
        <ele>1619.6</ele>
        <time>2012-12-28T08:54:34Z</time>
      </trkpt>
      <trkpt lat="44.07517" lon="7.03182">
        <ele>1619.6</ele>
        <time>2012-12-28T08:54:35Z</time>
      </trkpt>
      <trkpt lat="44.07517" lon="7.03182">
        <ele>1619.7</ele>
        <time>2012-12-28T08:54:36Z</time>
      </trkpt>
      <trkpt lat="44.07516" lon="7.03181">
        <ele>1619.9</ele>
        <time>2012-12-28T08:54:37Z</time>
      </trkpt>
      <trkpt lat="44.07515" lon="7.03179">
        <ele>1620</ele>
        <time>2012-12-28T08:54:38Z</time>
      </trkpt>
      <trkpt lat="44.07515" lon="7.03179">
        <ele>1620</ele>
        <time>2012-12-28T08:54:39Z</time>
      </trkpt>
      <trkpt lat="44.07514" lon="7.03178">
        <ele>1620</ele>
        <time>2012-12-28T08:54:40Z</time>
      </trkpt>
      <trkpt lat="44.07513" lon="7.03177">
        <ele>1620.1</ele>
        <time>2012-12-28T08:54:41Z</time>
      </trkpt>
      <trkpt lat="44.07513" lon="7.03177">
        <ele>1620.1</ele>
        <time>2012-12-28T08:54:42Z</time>
      </trkpt>
      <trkpt lat="44.07513" lon="7.03177">
        <ele>1620.2</ele>
        <time>2012-12-28T08:54:43Z</time>
      </trkpt>
      <trkpt lat="44.07512" lon="7.03176">
        <ele>1620.6</ele>
        <time>2012-12-28T08:54:44Z</time>
      </trkpt>
      <trkpt lat="44.07512" lon="7.03176">
        <ele>1620.6</ele>
        <time>2012-12-28T08:54:45Z</time>
      </trkpt>
      <trkpt lat="44.07512" lon="7.03176">
        <ele>1620.6</ele>
        <time>2012-12-28T08:54:46Z</time>
      </trkpt>
      <trkpt lat="44.07512" lon="7.03176">
        <ele>1620.6</ele>
        <time>2012-12-28T08:54:47Z</time>
      </trkpt>
      <trkpt lat="44.07512" lon="7.03175">
        <ele>1620.7</ele>
        <time>2012-12-28T08:54:48Z</time>
      </trkpt>
      <trkpt lat="44.07511" lon="7.03174">
        <ele>1620.9</ele>
        <time>2012-12-28T08:54:49Z</time>
      </trkpt>
      <trkpt lat="44.0751" lon="7.03173">
        <ele>1620.9</ele>
        <time>2012-12-28T08:54:50Z</time>
      </trkpt>
      <trkpt lat="44.07509" lon="7.03172">
        <ele>1621.2</ele>
        <time>2012-12-28T08:54:51Z</time>
      </trkpt>
      <trkpt lat="44.07509" lon="7.03172">
        <ele>1621.2</ele>
        <time>2012-12-28T08:54:52Z</time>
      </trkpt>
      <trkpt lat="44.07509" lon="7.03172">
        <ele>1621.2</ele>
        <time>2012-12-28T08:54:53Z</time>
      </trkpt>
      <trkpt lat="44.07509" lon="7.03171">
        <ele>1621.4</ele>
        <time>2012-12-28T08:54:54Z</time>
      </trkpt>
      <trkpt lat="44.07508" lon="7.0317">
        <ele>1621</ele>
        <time>2012-12-28T08:54:55Z</time>
      </trkpt>
      <trkpt lat="44.07507" lon="7.0317">
        <ele>1620.8</ele>
        <time>2012-12-28T08:54:56Z</time>
      </trkpt>
      <trkpt lat="44.07505" lon="7.03168">
        <ele>1620.8</ele>
        <time>2012-12-28T08:54:57Z</time>
      </trkpt>
      <trkpt lat="44.07504" lon="7.03167">
        <ele>1621.1</ele>
        <time>2012-12-28T08:54:58Z</time>
      </trkpt>
      <trkpt lat="44.07504" lon="7.03167">
        <ele>1621.1</ele>
        <time>2012-12-28T08:54:59Z</time>
      </trkpt>
      <trkpt lat="44.07504" lon="7.03167">
        <ele>1621.1</ele>
        <time>2012-12-28T08:55:00Z</time>
      </trkpt>
      <trkpt lat="44.07504" lon="7.03167">
        <ele>1621.1</ele>
        <time>2012-12-28T08:55:01Z</time>
      </trkpt>
      <trkpt lat="44.07504" lon="7.03167">
        <ele>1621.1</ele>
        <time>2012-12-28T08:55:02Z</time>
      </trkpt>
      <trkpt lat="44.07503" lon="7.03166">
        <ele>1620.9</ele>
        <time>2012-12-28T08:55:03Z</time>
      </trkpt>
      <trkpt lat="44.07503" lon="7.03166">
        <ele>1620.9</ele>
        <time>2012-12-28T08:55:04Z</time>
      </trkpt>
      <trkpt lat="44.07503" lon="7.03165">
        <ele>1620.9</ele>
        <time>2012-12-28T08:55:05Z</time>
      </trkpt>
      <trkpt lat="44.07502" lon="7.03164">
        <ele>1620.8</ele>
        <time>2012-12-28T08:55:06Z</time>
      </trkpt>
      <trkpt lat="44.07501" lon="7.03164">
        <ele>1620.2</ele>
        <time>2012-12-28T08:55:07Z</time>
      </trkpt>
      <trkpt lat="44.07501" lon="7.03163">
        <ele>1620</ele>
        <time>2012-12-28T08:55:08Z</time>
      </trkpt>
      <trkpt lat="44.07501" lon="7.03162">
        <ele>1620.6</ele>
        <time>2012-12-28T08:55:09Z</time>
      </trkpt>
      <trkpt lat="44.07501" lon="7.03162">
        <ele>1620.6</ele>
        <time>2012-12-28T08:55:10Z</time>
      </trkpt>
      <trkpt lat="44.075" lon="7.03161">
        <ele>1620.5</ele>
        <time>2012-12-28T08:55:11Z</time>
      </trkpt>
      <trkpt lat="44.075" lon="7.0316">
        <ele>1620.4</ele>
        <time>2012-12-28T08:55:12Z</time>
      </trkpt>
      <trkpt lat="44.075" lon="7.0316">
        <ele>1620.4</ele>
        <time>2012-12-28T08:55:13Z</time>
      </trkpt>
      <trkpt lat="44.07499" lon="7.03159">
        <ele>1620.3</ele>
        <time>2012-12-28T08:55:14Z</time>
      </trkpt>
      <trkpt lat="44.07499" lon="7.03159">
        <ele>1620.3</ele>
        <time>2012-12-28T08:55:15Z</time>
      </trkpt>
      <trkpt lat="44.07499" lon="7.03158">
        <ele>1620.6</ele>
        <time>2012-12-28T08:55:16Z</time>
      </trkpt>
      <trkpt lat="44.07497" lon="7.03156">
        <ele>1621</ele>
        <time>2012-12-28T08:55:17Z</time>
      </trkpt>
      <trkpt lat="44.07496" lon="7.03155">
        <ele>1621.4</ele>
        <time>2012-12-28T08:55:18Z</time>
      </trkpt>
      <trkpt lat="44.07495" lon="7.03154">
        <ele>1621.8</ele>
        <time>2012-12-28T08:55:19Z</time>
      </trkpt>
      <trkpt lat="44.07494" lon="7.03153">
        <ele>1621.9</ele>
        <time>2012-12-28T08:55:20Z</time>
      </trkpt>
      <trkpt lat="44.07493" lon="7.03152">
        <ele>1621.7</ele>
        <time>2012-12-28T08:55:21Z</time>
      </trkpt>
      <trkpt lat="44.07486" lon="7.03145">
        <ele>1623</ele>
        <time>2012-12-28T08:55:40Z</time>
      </trkpt>
      <trkpt lat="44.07486" lon="7.03145">
        <ele>1623</ele>
        <time>2012-12-28T08:55:41Z</time>
      </trkpt>
      <trkpt lat="44.07486" lon="7.03144">
        <ele>1623.5</ele>
        <time>2012-12-28T08:55:42Z</time>
      </trkpt>
      <trkpt lat="44.07485" lon="7.03144">
        <ele>1623.8</ele>
        <time>2012-12-28T08:55:43Z</time>
      </trkpt>
      <trkpt lat="44.07485" lon="7.03143">
        <ele>1624.1</ele>
        <time>2012-12-28T08:55:44Z</time>
      </trkpt>
      <trkpt lat="44.07484" lon="7.03142">
        <ele>1624.5</ele>
        <time>2012-12-28T08:55:45Z</time>
      </trkpt>
      <trkpt lat="44.07484" lon="7.03142">
        <ele>1625</ele>
        <time>2012-12-28T08:55:46Z</time>
      </trkpt>
      <trkpt lat="44.07484" lon="7.03142">
        <ele>1625</ele>
        <time>2012-12-28T08:55:47Z</time>
      </trkpt>
      <trkpt lat="44.07484" lon="7.03141">
        <ele>1625.2</ele>
        <time>2012-12-28T08:55:48Z</time>
      </trkpt>
      <trkpt lat="44.07484" lon="7.03141">
        <ele>1625.2</ele>
        <time>2012-12-28T08:55:49Z</time>
      </trkpt>
      <trkpt lat="44.07483" lon="7.0314">
        <ele>1625.6</ele>
        <time>2012-12-28T08:55:50Z</time>
      </trkpt>
      <trkpt lat="44.07482" lon="7.03139">
        <ele>1625.8</ele>
        <time>2012-12-28T08:55:51Z</time>
      </trkpt>
      <trkpt lat="44.07482" lon="7.03139">
        <ele>1626.2</ele>
        <time>2012-12-28T08:55:52Z</time>
      </trkpt>
      <trkpt lat="44.07482" lon="7.03138">
        <ele>1626.3</ele>
        <time>2012-12-28T08:55:53Z</time>
      </trkpt>
      <trkpt lat="44.07482" lon="7.03138">
        <ele>1626.4</ele>
        <time>2012-12-28T08:55:54Z</time>
      </trkpt>
      <trkpt lat="44.07482" lon="7.03138">
        <ele>1626.4</ele>
        <time>2012-12-28T08:55:55Z</time>
      </trkpt>
      <trkpt lat="44.07481" lon="7.03137">
        <ele>1626.1</ele>
        <time>2012-12-28T08:55:56Z</time>
      </trkpt>
      <trkpt lat="44.07481" lon="7.03136">
        <ele>1626.6</ele>
        <time>2012-12-28T08:55:57Z</time>
      </trkpt>
      <trkpt lat="44.0748" lon="7.03135">
        <ele>1626.8</ele>
        <time>2012-12-28T08:55:58Z</time>
      </trkpt>
      <trkpt lat="44.07479" lon="7.03134">
        <ele>1626.4</ele>
        <time>2012-12-28T08:55:59Z</time>
      </trkpt>
      <trkpt lat="44.07479" lon="7.03134">
        <ele>1626.4</ele>
        <time>2012-12-28T08:56:00Z</time>
      </trkpt>
      <trkpt lat="44.07479" lon="7.03134">
        <ele>1626.4</ele>
        <time>2012-12-28T08:56:01Z</time>
      </trkpt>
      <trkpt lat="44.07479" lon="7.03133">
        <ele>1626.2</ele>
        <time>2012-12-28T08:56:02Z</time>
      </trkpt>
      <trkpt lat="44.07479" lon="7.03132">
        <ele>1626.5</ele>
        <time>2012-12-28T08:56:03Z</time>
      </trkpt>
      <trkpt lat="44.07478" lon="7.03131">
        <ele>1627.2</ele>
        <time>2012-12-28T08:56:04Z</time>
      </trkpt>
      <trkpt lat="44.07478" lon="7.03131">
        <ele>1627.2</ele>
        <time>2012-12-28T08:56:05Z</time>
      </trkpt>
      <trkpt lat="44.07478" lon="7.03131">
        <ele>1627.4</ele>
        <time>2012-12-28T08:56:06Z</time>
      </trkpt>
      <trkpt lat="44.07478" lon="7.0313">
        <ele>1627.5</ele>
        <time>2012-12-28T08:56:07Z</time>
      </trkpt>
      <trkpt lat="44.07478" lon="7.0313">
        <ele>1627.5</ele>
        <time>2012-12-28T08:56:08Z</time>
      </trkpt>
      <trkpt lat="44.07477" lon="7.03129">
        <ele>1627.7</ele>
        <time>2012-12-28T08:56:09Z</time>
      </trkpt>
      <trkpt lat="44.07477" lon="7.03129">
        <ele>1627.8</ele>
        <time>2012-12-28T08:56:10Z</time>
      </trkpt>
      <trkpt lat="44.07476" lon="7.03128">
        <ele>1627.9</ele>
        <time>2012-12-28T08:56:11Z</time>
      </trkpt>
      <trkpt lat="44.07476" lon="7.03127">
        <ele>1628</ele>
        <time>2012-12-28T08:56:12Z</time>
      </trkpt>
      <trkpt lat="44.07476" lon="7.03127">
        <ele>1628</ele>
        <time>2012-12-28T08:56:13Z</time>
      </trkpt>
      <trkpt lat="44.07476" lon="7.03126">
        <ele>1628.5</ele>
        <time>2012-12-28T08:56:14Z</time>
      </trkpt>
      <trkpt lat="44.07476" lon="7.03125">
        <ele>1628.7</ele>
        <time>2012-12-28T08:56:15Z</time>
      </trkpt>
      <trkpt lat="44.07475" lon="7.03124">
        <ele>1629.1</ele>
        <time>2012-12-28T08:56:16Z</time>
      </trkpt>
      <trkpt lat="44.07473" lon="7.03121">
        <ele>1629.8</ele>
        <time>2012-12-28T08:56:19Z</time>
      </trkpt>
      <trkpt lat="44.07472" lon="7.0312">
        <ele>1630.3</ele>
        <time>2012-12-28T08:56:20Z</time>
      </trkpt>
      <trkpt lat="44.07464" lon="7.03095">
        <ele>1635.5</ele>
        <time>2012-12-28T08:57:19Z</time>
      </trkpt>
      <trkpt lat="44.07464" lon="7.03095">
        <ele>1635.5</ele>
        <time>2012-12-28T08:57:20Z</time>
      </trkpt>
      <trkpt lat="44.07464" lon="7.03095">
        <ele>1635.7</ele>
        <time>2012-12-28T08:57:21Z</time>
      </trkpt>
      <trkpt lat="44.07464" lon="7.03095">
        <ele>1635.7</ele>
        <time>2012-12-28T08:57:22Z</time>
      </trkpt>
      <trkpt lat="44.07464" lon="7.03095">
        <ele>1635.7</ele>
        <time>2012-12-28T08:57:23Z</time>
      </trkpt>
      <trkpt lat="44.07464" lon="7.03094">
        <ele>1636</ele>
        <time>2012-12-28T08:57:24Z</time>
      </trkpt>
      <trkpt lat="44.07464" lon="7.03094">
        <ele>1636</ele>
        <time>2012-12-28T08:57:25Z</time>
      </trkpt>
      <trkpt lat="44.07464" lon="7.03094">
        <ele>1636</ele>
        <time>2012-12-28T08:57:26Z</time>
      </trkpt>
      <trkpt lat="44.07464" lon="7.03094">
        <ele>1636</ele>
        <time>2012-12-28T08:57:27Z</time>
      </trkpt>
      <trkpt lat="44.07464" lon="7.03094">
        <ele>1636</ele>
        <time>2012-12-28T08:57:28Z</time>
      </trkpt>
      <trkpt lat="44.07463" lon="7.03093">
        <ele>1636.8</ele>
        <time>2012-12-28T08:57:29Z</time>
      </trkpt>
      <trkpt lat="44.07463" lon="7.03092">
        <ele>1637.9</ele>
        <time>2012-12-28T08:57:30Z</time>
      </trkpt>
      <trkpt lat="44.07463" lon="7.03091">
        <ele>1638.5</ele>
        <time>2012-12-28T08:57:31Z</time>
      </trkpt>
      <trkpt lat="44.07463" lon="7.0309">
        <ele>1639.1</ele>
        <time>2012-12-28T08:57:32Z</time>
      </trkpt>
      <trkpt lat="44.07463" lon="7.03088">
        <ele>1639.9</ele>
        <time>2012-12-28T08:57:33Z</time>
      </trkpt>
      <trkpt lat="44.07463" lon="7.03087">
        <ele>1640.7</ele>
        <time>2012-12-28T08:57:34Z</time>
      </trkpt>
      <trkpt lat="44.07463" lon="7.03087">
        <ele>1640.7</ele>
        <time>2012-12-28T08:57:35Z</time>
      </trkpt>
      <trkpt lat="44.07463" lon="7.03086">
        <ele>1641.2</ele>
        <time>2012-12-28T08:57:36Z</time>
      </trkpt>
      <trkpt lat="44.07462" lon="7.03085">
        <ele>1642.2</ele>
        <time>2012-12-28T08:57:37Z</time>
      </trkpt>
      <trkpt lat="44.07462" lon="7.03084">
        <ele>1642.8</ele>
        <time>2012-12-28T08:57:38Z</time>
      </trkpt>
      <trkpt lat="44.07462" lon="7.03084">
        <ele>1643.2</ele>
        <time>2012-12-28T08:57:39Z</time>
      </trkpt>
      <trkpt lat="44.07461" lon="7.03083">
        <ele>1643.7</ele>
        <time>2012-12-28T08:57:40Z</time>
      </trkpt>
      <trkpt lat="44.07461" lon="7.03083">
        <ele>1643.7</ele>
        <time>2012-12-28T08:57:41Z</time>
      </trkpt>
      <trkpt lat="44.07461" lon="7.03083">
        <ele>1643.7</ele>
        <time>2012-12-28T08:57:42Z</time>
      </trkpt>
      <trkpt lat="44.07461" lon="7.03083">
        <ele>1643.7</ele>
        <time>2012-12-28T08:57:43Z</time>
      </trkpt>
      <trkpt lat="44.07461" lon="7.03083">
        <ele>1643.7</ele>
        <time>2012-12-28T08:57:44Z</time>
      </trkpt>
      <trkpt lat="44.07461" lon="7.03083">
        <ele>1643.7</ele>
        <time>2012-12-28T08:57:45Z</time>
      </trkpt>
      <trkpt lat="44.07461" lon="7.03083">
        <ele>1643.7</ele>
        <time>2012-12-28T08:57:46Z</time>
      </trkpt>
      <trkpt lat="44.07461" lon="7.03083">
        <ele>1643.7</ele>
        <time>2012-12-28T08:57:47Z</time>
      </trkpt>
      <trkpt lat="44.07461" lon="7.03083">
        <ele>1643.7</ele>
        <time>2012-12-28T08:57:48Z</time>
      </trkpt>
      <trkpt lat="44.07461" lon="7.03083">
        <ele>1643.7</ele>
        <time>2012-12-28T08:57:49Z</time>
      </trkpt>
      <trkpt lat="44.07461" lon="7.03083">
        <ele>1643.7</ele>
        <time>2012-12-28T08:57:50Z</time>
      </trkpt>
      <trkpt lat="44.07461" lon="7.03083">
        <ele>1643.7</ele>
        <time>2012-12-28T08:57:51Z</time>
      </trkpt>
      <trkpt lat="44.07461" lon="7.03083">
        <ele>1643.7</ele>
        <time>2012-12-28T08:57:52Z</time>
      </trkpt>
      <trkpt lat="44.07461" lon="7.03083">
        <ele>1643.7</ele>
        <time>2012-12-28T08:57:53Z</time>
      </trkpt>
      <trkpt lat="44.07461" lon="7.03083">
        <ele>1643.7</ele>
        <time>2012-12-28T08:57:54Z</time>
      </trkpt>
      <trkpt lat="44.07461" lon="7.03083">
        <ele>1643.7</ele>
        <time>2012-12-28T08:57:55Z</time>
      </trkpt>
      <trkpt lat="44.07461" lon="7.03083">
        <ele>1643.7</ele>
        <time>2012-12-28T08:57:56Z</time>
      </trkpt>
      <trkpt lat="44.07461" lon="7.03083">
        <ele>1643.7</ele>
        <time>2012-12-28T08:57:57Z</time>
      </trkpt>
      <trkpt lat="44.07461" lon="7.03083">
        <ele>1643.7</ele>
        <time>2012-12-28T08:57:58Z</time>
      </trkpt>
      <trkpt lat="44.07461" lon="7.03083">
        <ele>1643.7</ele>
        <time>2012-12-28T08:57:59Z</time>
      </trkpt>
      <trkpt lat="44.07461" lon="7.03083">
        <ele>1643.7</ele>
        <time>2012-12-28T08:58:00Z</time>
      </trkpt>
      <trkpt lat="44.07461" lon="7.03083">
        <ele>1643.7</ele>
        <time>2012-12-28T08:58:01Z</time>
      </trkpt>
      <trkpt lat="44.07461" lon="7.03083">
        <ele>1643.7</ele>
        <time>2012-12-28T08:58:02Z</time>
      </trkpt>
      <trkpt lat="44.07461" lon="7.03083">
        <ele>1643.7</ele>
        <time>2012-12-28T08:58:03Z</time>
      </trkpt>
      <trkpt lat="44.07461" lon="7.03083">
        <ele>1643.7</ele>
        <time>2012-12-28T08:58:04Z</time>
      </trkpt>
      <trkpt lat="44.07461" lon="7.03083">
        <ele>1643.7</ele>
        <time>2012-12-28T08:58:05Z</time>
      </trkpt>
      <trkpt lat="44.07461" lon="7.03083">
        <ele>1643.7</ele>
        <time>2012-12-28T08:58:06Z</time>
      </trkpt>
      <trkpt lat="44.07461" lon="7.03083">
        <ele>1643.7</ele>
        <time>2012-12-28T08:58:07Z</time>
      </trkpt>
      <trkpt lat="44.07461" lon="7.03083">
        <ele>1643.7</ele>
        <time>2012-12-28T08:58:08Z</time>
      </trkpt>
      <trkpt lat="44.07461" lon="7.03083">
        <ele>1643.7</ele>
        <time>2012-12-28T08:58:09Z</time>
      </trkpt>
      <trkpt lat="44.07461" lon="7.03083">
        <ele>1643.7</ele>
        <time>2012-12-28T08:58:10Z</time>
      </trkpt>
      <trkpt lat="44.07461" lon="7.03083">
        <ele>1643.7</ele>
        <time>2012-12-28T08:58:11Z</time>
      </trkpt>
      <trkpt lat="44.07461" lon="7.03083">
        <ele>1643.7</ele>
        <time>2012-12-28T08:58:12Z</time>
      </trkpt>
      <trkpt lat="44.07462" lon="7.03082">
        <ele>1644.3</ele>
        <time>2012-12-28T08:58:13Z</time>
      </trkpt>
      <trkpt lat="44.07462" lon="7.03082">
        <ele>1644.3</ele>
        <time>2012-12-28T08:58:14Z</time>
      </trkpt>
      <trkpt lat="44.07462" lon="7.03081">
        <ele>1644.6</ele>
        <time>2012-12-28T08:58:15Z</time>
      </trkpt>
      <trkpt lat="44.07462" lon="7.03081">
        <ele>1644.6</ele>
        <time>2012-12-28T08:58:16Z</time>
      </trkpt>
      <trkpt lat="44.07462" lon="7.0308">
        <ele>1644.7</ele>
        <time>2012-12-28T08:58:17Z</time>
      </trkpt>
      <trkpt lat="44.07462" lon="7.0308">
        <ele>1644.7</ele>
        <time>2012-12-28T08:58:18Z</time>
      </trkpt>
      <trkpt lat="44.07461" lon="7.0308">
        <ele>1645.3</ele>
        <time>2012-12-28T08:58:19Z</time>
      </trkpt>
      <trkpt lat="44.07461" lon="7.0308">
        <ele>1645.3</ele>
        <time>2012-12-28T08:58:20Z</time>
      </trkpt>
      <trkpt lat="44.07461" lon="7.03079">
        <ele>1645.4</ele>
        <time>2012-12-28T08:58:21Z</time>
      </trkpt>
      <trkpt lat="44.0746" lon="7.03077">
        <ele>1645.4</ele>
        <time>2012-12-28T08:58:22Z</time>
      </trkpt>
      <trkpt lat="44.0746" lon="7.03075">
        <ele>1645.4</ele>
        <time>2012-12-28T08:58:23Z</time>
      </trkpt>
      <trkpt lat="44.07453" lon="7.03046">
        <ele>1651.4</ele>
        <time>2012-12-28T08:59:09Z</time>
      </trkpt>
      <trkpt lat="44.07452" lon="7.03045">
        <ele>1651.6</ele>
        <time>2012-12-28T08:59:10Z</time>
      </trkpt>
      <trkpt lat="44.07452" lon="7.03045">
        <ele>1651.6</ele>
        <time>2012-12-28T08:59:11Z</time>
      </trkpt>
      <trkpt lat="44.07451" lon="7.03045">
        <ele>1651.6</ele>
        <time>2012-12-28T08:59:12Z</time>
      </trkpt>
      <trkpt lat="44.07451" lon="7.03045">
        <ele>1651.6</ele>
        <time>2012-12-28T08:59:13Z</time>
      </trkpt>
      <trkpt lat="44.07451" lon="7.03045">
        <ele>1651.6</ele>
        <time>2012-12-28T08:59:14Z</time>
      </trkpt>
      <trkpt lat="44.07451" lon="7.03045">
        <ele>1651.6</ele>
        <time>2012-12-28T08:59:15Z</time>
      </trkpt>
      <trkpt lat="44.0745" lon="7.03044">
        <ele>1651.6</ele>
        <time>2012-12-28T08:59:16Z</time>
      </trkpt>
      <trkpt lat="44.0745" lon="7.03043">
        <ele>1651.7</ele>
        <time>2012-12-28T08:59:17Z</time>
      </trkpt>
      <trkpt lat="44.07449" lon="7.03041">
        <ele>1651.3</ele>
        <time>2012-12-28T08:59:18Z</time>
      </trkpt>
      <trkpt lat="44.07443" lon="7.03034">
        <ele>1653</ele>
        <time>2012-12-28T08:59:38Z</time>
      </trkpt>
      <trkpt lat="44.07441" lon="7.03034">
        <ele>1653.4</ele>
        <time>2012-12-28T08:59:39Z</time>
      </trkpt>
      <trkpt lat="44.07436" lon="7.03028">
        <ele>1654.5</ele>
        <time>2012-12-28T08:59:45Z</time>
      </trkpt>
      <trkpt lat="44.07435" lon="7.03028">
        <ele>1654.9</ele>
        <time>2012-12-28T08:59:46Z</time>
      </trkpt>
      <trkpt lat="44.07435" lon="7.03027">
        <ele>1655.2</ele>
        <time>2012-12-28T08:59:47Z</time>
      </trkpt>
      <trkpt lat="44.07434" lon="7.03026">
        <ele>1655.6</ele>
        <time>2012-12-28T08:59:48Z</time>
      </trkpt>
      <trkpt lat="44.07433" lon="7.03026">
        <ele>1656</ele>
        <time>2012-12-28T08:59:49Z</time>
      </trkpt>
      <trkpt lat="44.07433" lon="7.03025">
        <ele>1656.3</ele>
        <time>2012-12-28T08:59:50Z</time>
      </trkpt>
      <trkpt lat="44.07433" lon="7.03025">
        <ele>1656.3</ele>
        <time>2012-12-28T08:59:51Z</time>
      </trkpt>
      <trkpt lat="44.07433" lon="7.03025">
        <ele>1656.8</ele>
        <time>2012-12-28T08:59:52Z</time>
      </trkpt>
      <trkpt lat="44.07433" lon="7.03024">
        <ele>1656.9</ele>
        <time>2012-12-28T08:59:53Z</time>
      </trkpt>
      <trkpt lat="44.07433" lon="7.03024">
        <ele>1656.9</ele>
        <time>2012-12-28T08:59:54Z</time>
      </trkpt>
      <trkpt lat="44.07432" lon="7.03024">
        <ele>1657.5</ele>
        <time>2012-12-28T08:59:55Z</time>
      </trkpt>
      <trkpt lat="44.07432" lon="7.03024">
        <ele>1657.5</ele>
        <time>2012-12-28T08:59:56Z</time>
      </trkpt>
      <trkpt lat="44.07432" lon="7.03023">
        <ele>1658.2</ele>
        <time>2012-12-28T08:59:57Z</time>
      </trkpt>
      <trkpt lat="44.07432" lon="7.03023">
        <ele>1658.2</ele>
        <time>2012-12-28T08:59:58Z</time>
      </trkpt>
      <trkpt lat="44.07432" lon="7.03023">
        <ele>1658.2</ele>
        <time>2012-12-28T08:59:59Z</time>
      </trkpt>
      <trkpt lat="44.07432" lon="7.03023">
        <ele>1658.2</ele>
        <time>2012-12-28T09:00:00Z</time>
      </trkpt>
      <trkpt lat="44.07432" lon="7.03023">
        <ele>1658.4</ele>
        <time>2012-12-28T09:00:01Z</time>
      </trkpt>
      <trkpt lat="44.07431" lon="7.03022">
        <ele>1658.3</ele>
        <time>2012-12-28T09:00:02Z</time>
      </trkpt>
      <trkpt lat="44.07431" lon="7.03021">
        <ele>1658.2</ele>
        <time>2012-12-28T09:00:03Z</time>
      </trkpt>
      <trkpt lat="44.0743" lon="7.03021">
        <ele>1658.5</ele>
        <time>2012-12-28T09:00:04Z</time>
      </trkpt>
      <trkpt lat="44.0743" lon="7.03021">
        <ele>1658.5</ele>
        <time>2012-12-28T09:00:05Z</time>
      </trkpt>
      <trkpt lat="44.0743" lon="7.0302">
        <ele>1659.2</ele>
        <time>2012-12-28T09:00:06Z</time>
      </trkpt>
      <trkpt lat="44.07429" lon="7.03019">
        <ele>1659.3</ele>
        <time>2012-12-28T09:00:07Z</time>
      </trkpt>
      <trkpt lat="44.07428" lon="7.03019">
        <ele>1659.5</ele>
        <time>2012-12-28T09:00:08Z</time>
      </trkpt>
      <trkpt lat="44.07428" lon="7.03018">
        <ele>1659.7</ele>
        <time>2012-12-28T09:00:09Z</time>
      </trkpt>
      <trkpt lat="44.07427" lon="7.03018">
        <ele>1659.9</ele>
        <time>2012-12-28T09:00:10Z</time>
      </trkpt>
      <trkpt lat="44.07427" lon="7.03018">
        <ele>1659.9</ele>
        <time>2012-12-28T09:00:11Z</time>
      </trkpt>
      <trkpt lat="44.07427" lon="7.03018">
        <ele>1660</ele>
        <time>2012-12-28T09:00:12Z</time>
      </trkpt>
      <trkpt lat="44.07427" lon="7.03018">
        <ele>1660</ele>
        <time>2012-12-28T09:00:13Z</time>
      </trkpt>
      <trkpt lat="44.07427" lon="7.03017">
        <ele>1660.3</ele>
        <time>2012-12-28T09:00:14Z</time>
      </trkpt>
      <trkpt lat="44.07427" lon="7.03017">
        <ele>1660.3</ele>
        <time>2012-12-28T09:00:15Z</time>
      </trkpt>
      <trkpt lat="44.07427" lon="7.03016">
        <ele>1660.1</ele>
        <time>2012-12-28T09:00:16Z</time>
      </trkpt>
      <trkpt lat="44.07427" lon="7.03016">
        <ele>1660.1</ele>
        <time>2012-12-28T09:00:17Z</time>
      </trkpt>
      <trkpt lat="44.07426" lon="7.03016">
        <ele>1660.1</ele>
        <time>2012-12-28T09:00:18Z</time>
      </trkpt>
      <trkpt lat="44.07426" lon="7.03016">
        <ele>1660.1</ele>
        <time>2012-12-28T09:00:19Z</time>
      </trkpt>
      <trkpt lat="44.07426" lon="7.03016">
        <ele>1660.1</ele>
        <time>2012-12-28T09:00:20Z</time>
      </trkpt>
      <trkpt lat="44.07426" lon="7.03016">
        <ele>1660</ele>
        <time>2012-12-28T09:00:21Z</time>
      </trkpt>
      <trkpt lat="44.07426" lon="7.03016">
        <ele>1660</ele>
        <time>2012-12-28T09:00:22Z</time>
      </trkpt>
      <trkpt lat="44.07425" lon="7.03015">
        <ele>1660.1</ele>
        <time>2012-12-28T09:00:23Z</time>
      </trkpt>
      <trkpt lat="44.07424" lon="7.03014">
        <ele>1659.9</ele>
        <time>2012-12-28T09:00:24Z</time>
      </trkpt>
      <trkpt lat="44.07424" lon="7.03014">
        <ele>1659.9</ele>
        <time>2012-12-28T09:00:25Z</time>
      </trkpt>
      <trkpt lat="44.07424" lon="7.03014">
        <ele>1660.1</ele>
        <time>2012-12-28T09:00:26Z</time>
      </trkpt>
      <trkpt lat="44.07424" lon="7.03013">
        <ele>1660.5</ele>
        <time>2012-12-28T09:00:27Z</time>
      </trkpt>
      <trkpt lat="44.07424" lon="7.03013">
        <ele>1660.9</ele>
        <time>2012-12-28T09:00:28Z</time>
      </trkpt>
      <trkpt lat="44.07424" lon="7.03013">
        <ele>1660.9</ele>
        <time>2012-12-28T09:00:29Z</time>
      </trkpt>
      <trkpt lat="44.07423" lon="7.03012">
        <ele>1661.2</ele>
        <time>2012-12-28T09:00:30Z</time>
      </trkpt>
      <trkpt lat="44.07423" lon="7.03012">
        <ele>1661.2</ele>
        <time>2012-12-28T09:00:31Z</time>
      </trkpt>
      <trkpt lat="44.07423" lon="7.03012">
        <ele>1661.2</ele>
        <time>2012-12-28T09:00:32Z</time>
      </trkpt>
      <trkpt lat="44.07423" lon="7.03012">
        <ele>1661.2</ele>
        <time>2012-12-28T09:00:33Z</time>
      </trkpt>
      <trkpt lat="44.07423" lon="7.03012">
        <ele>1661.2</ele>
        <time>2012-12-28T09:00:34Z</time>
      </trkpt>
      <trkpt lat="44.07422" lon="7.03011">
        <ele>1661.2</ele>
        <time>2012-12-28T09:00:35Z</time>
      </trkpt>
      <trkpt lat="44.07422" lon="7.03011">
        <ele>1661.3</ele>
        <time>2012-12-28T09:00:36Z</time>
      </trkpt>
      <trkpt lat="44.07421" lon="7.0301">
        <ele>1661.2</ele>
        <time>2012-12-28T09:00:37Z</time>
      </trkpt>
      <trkpt lat="44.0742" lon="7.03009">
        <ele>1661.3</ele>
        <time>2012-12-28T09:00:38Z</time>
      </trkpt>
      <trkpt lat="44.0742" lon="7.03008">
        <ele>1661.5</ele>
        <time>2012-12-28T09:00:39Z</time>
      </trkpt>
      <trkpt lat="44.0742" lon="7.03008">
        <ele>1661.5</ele>
        <time>2012-12-28T09:00:40Z</time>
      </trkpt>
      <trkpt lat="44.07419" lon="7.03008">
        <ele>1661.7</ele>
        <time>2012-12-28T09:00:41Z</time>
      </trkpt>
      <trkpt lat="44.07414" lon="7.03003">
        <ele>1662.9</ele>
        <time>2012-12-28T09:00:55Z</time>
      </trkpt>
      <trkpt lat="44.07414" lon="7.03002">
        <ele>1663</ele>
        <time>2012-12-28T09:00:56Z</time>
      </trkpt>
      <trkpt lat="44.07412" lon="7.03001">
        <ele>1663.2</ele>
        <time>2012-12-28T09:00:57Z</time>
      </trkpt>
      <trkpt lat="44.07409" lon="7.02999">
        <ele>1663.4</ele>
        <time>2012-12-28T09:01:00Z</time>
      </trkpt>
      <trkpt lat="44.07399" lon="7.0299">
        <ele>1665.8</ele>
        <time>2012-12-28T09:01:10Z</time>
      </trkpt>
      <trkpt lat="44.07397" lon="7.02989">
        <ele>1665.8</ele>
        <time>2012-12-28T09:01:11Z</time>
      </trkpt>
      <trkpt lat="44.07396" lon="7.02988">
        <ele>1666.8</ele>
        <time>2012-12-28T09:01:17Z</time>
      </trkpt>
      <trkpt lat="44.07395" lon="7.02987">
        <ele>1667.1</ele>
        <time>2012-12-28T09:01:18Z</time>
      </trkpt>
      <trkpt lat="44.07395" lon="7.02987">
        <ele>1667.1</ele>
        <time>2012-12-28T09:01:19Z</time>
      </trkpt>
      <trkpt lat="44.07394" lon="7.02987">
        <ele>1666.9</ele>
        <time>2012-12-28T09:01:20Z</time>
      </trkpt>
      <trkpt lat="44.07394" lon="7.02987">
        <ele>1666.9</ele>
        <time>2012-12-28T09:01:21Z</time>
      </trkpt>
      <trkpt lat="44.07394" lon="7.02986">
        <ele>1667.1</ele>
        <time>2012-12-28T09:01:22Z</time>
      </trkpt>
      <trkpt lat="44.07393" lon="7.02985">
        <ele>1667.4</ele>
        <time>2012-12-28T09:01:23Z</time>
      </trkpt>
      <trkpt lat="44.07392" lon="7.02984">
        <ele>1667.7</ele>
        <time>2012-12-28T09:01:24Z</time>
      </trkpt>
      <trkpt lat="44.07391" lon="7.02983">
        <ele>1667.8</ele>
        <time>2012-12-28T09:01:25Z</time>
      </trkpt>
      <trkpt lat="44.07391" lon="7.02982">
        <ele>1668.1</ele>
        <time>2012-12-28T09:01:26Z</time>
      </trkpt>
      <trkpt lat="44.0739" lon="7.02982">
        <ele>1668.3</ele>
        <time>2012-12-28T09:01:27Z</time>
      </trkpt>
      <trkpt lat="44.0739" lon="7.02981">
        <ele>1669.4</ele>
        <time>2012-12-28T09:01:28Z</time>
      </trkpt>
      <trkpt lat="44.07389" lon="7.0298">
        <ele>1669.9</ele>
        <time>2012-12-28T09:01:29Z</time>
      </trkpt>
      <trkpt lat="44.07388" lon="7.0298">
        <ele>1670.4</ele>
        <time>2012-12-28T09:01:30Z</time>
      </trkpt>
      <trkpt lat="44.07387" lon="7.02979">
        <ele>1670.7</ele>
        <time>2012-12-28T09:01:31Z</time>
      </trkpt>
      <trkpt lat="44.07386" lon="7.02977">
        <ele>1671.1</ele>
        <time>2012-12-28T09:01:32Z</time>
      </trkpt>
      <trkpt lat="44.07386" lon="7.02976">
        <ele>1671.3</ele>
        <time>2012-12-28T09:01:33Z</time>
      </trkpt>
      <trkpt lat="44.07385" lon="7.02975">
        <ele>1671.4</ele>
        <time>2012-12-28T09:01:34Z</time>
      </trkpt>
      <trkpt lat="44.07382" lon="7.02972">
        <ele>1673.3</ele>
        <time>2012-12-28T09:01:43Z</time>
      </trkpt>
      <trkpt lat="44.07381" lon="7.02971">
        <ele>1673.5</ele>
        <time>2012-12-28T09:01:44Z</time>
      </trkpt>
      <trkpt lat="44.07381" lon="7.02971">
        <ele>1673.5</ele>
        <time>2012-12-28T09:01:45Z</time>
      </trkpt>
      <trkpt lat="44.07381" lon="7.02971">
        <ele>1673.3</ele>
        <time>2012-12-28T09:01:46Z</time>
      </trkpt>
      <trkpt lat="44.0738" lon="7.0297">
        <ele>1673.5</ele>
        <time>2012-12-28T09:01:47Z</time>
      </trkpt>
      <trkpt lat="44.0738" lon="7.02969">
        <ele>1673.6</ele>
        <time>2012-12-28T09:01:48Z</time>
      </trkpt>
      <trkpt lat="44.0738" lon="7.02969">
        <ele>1673.6</ele>
        <time>2012-12-28T09:01:49Z</time>
      </trkpt>
      <trkpt lat="44.0738" lon="7.02968">
        <ele>1674.4</ele>
        <time>2012-12-28T09:01:50Z</time>
      </trkpt>
      <trkpt lat="44.07379" lon="7.02967">
        <ele>1674.6</ele>
        <time>2012-12-28T09:01:51Z</time>
      </trkpt>
      <trkpt lat="44.07378" lon="7.02966">
        <ele>1674.5</ele>
        <time>2012-12-28T09:01:52Z</time>
      </trkpt>
      <trkpt lat="44.07375" lon="7.02964">
        <ele>1675.1</ele>
        <time>2012-12-28T09:01:56Z</time>
      </trkpt>
      <trkpt lat="44.07375" lon="7.02963">
        <ele>1675.3</ele>
        <time>2012-12-28T09:01:57Z</time>
      </trkpt>
      <trkpt lat="44.07375" lon="7.02963">
        <ele>1675.9</ele>
        <time>2012-12-28T09:01:58Z</time>
      </trkpt>
      <trkpt lat="44.07374" lon="7.02962">
        <ele>1676.3</ele>
        <time>2012-12-28T09:01:59Z</time>
      </trkpt>
      <trkpt lat="44.07374" lon="7.02962">
        <ele>1676.6</ele>
        <time>2012-12-28T09:02:00Z</time>
      </trkpt>
      <trkpt lat="44.07374" lon="7.02961">
        <ele>1676.9</ele>
        <time>2012-12-28T09:02:01Z</time>
      </trkpt>
      <trkpt lat="44.07374" lon="7.02961">
        <ele>1676.9</ele>
        <time>2012-12-28T09:02:02Z</time>
      </trkpt>
      <trkpt lat="44.07374" lon="7.0296">
        <ele>1677.1</ele>
        <time>2012-12-28T09:02:03Z</time>
      </trkpt>
      <trkpt lat="44.07374" lon="7.0296">
        <ele>1677.1</ele>
        <time>2012-12-28T09:02:04Z</time>
      </trkpt>
      <trkpt lat="44.07373" lon="7.0296">
        <ele>1677.1</ele>
        <time>2012-12-28T09:02:05Z</time>
      </trkpt>
      <trkpt lat="44.07368" lon="7.02954">
        <ele>1677.1</ele>
        <time>2012-12-28T09:02:13Z</time>
      </trkpt>
      <trkpt lat="44.07367" lon="7.02953">
        <ele>1677.1</ele>
        <time>2012-12-28T09:02:14Z</time>
      </trkpt>
      <trkpt lat="44.07366" lon="7.02953">
        <ele>1677.5</ele>
        <time>2012-12-28T09:02:15Z</time>
      </trkpt>
      <trkpt lat="44.07364" lon="7.0295">
        <ele>1678.6</ele>
        <time>2012-12-28T09:02:18Z</time>
      </trkpt>
      <trkpt lat="44.07364" lon="7.0295">
        <ele>1678.6</ele>
        <time>2012-12-28T09:02:19Z</time>
      </trkpt>
      <trkpt lat="44.07364" lon="7.02949">
        <ele>1678.4</ele>
        <time>2012-12-28T09:02:20Z</time>
      </trkpt>
      <trkpt lat="44.07363" lon="7.02948">
        <ele>1678.7</ele>
        <time>2012-12-28T09:02:21Z</time>
      </trkpt>
      <trkpt lat="44.07363" lon="7.02948">
        <ele>1678.7</ele>
        <time>2012-12-28T09:02:22Z</time>
      </trkpt>
      <trkpt lat="44.07363" lon="7.02948">
        <ele>1678.9</ele>
        <time>2012-12-28T09:02:23Z</time>
      </trkpt>
      <trkpt lat="44.07362" lon="7.02947">
        <ele>1679</ele>
        <time>2012-12-28T09:02:24Z</time>
      </trkpt>
      <trkpt lat="44.07362" lon="7.02947">
        <ele>1679</ele>
        <time>2012-12-28T09:02:25Z</time>
      </trkpt>
      <trkpt lat="44.07362" lon="7.02946">
        <ele>1678.8</ele>
        <time>2012-12-28T09:02:26Z</time>
      </trkpt>
      <trkpt lat="44.07361" lon="7.02945">
        <ele>1679</ele>
        <time>2012-12-28T09:02:27Z</time>
      </trkpt>
      <trkpt lat="44.07361" lon="7.02945">
        <ele>1678.9</ele>
        <time>2012-12-28T09:02:28Z</time>
      </trkpt>
      <trkpt lat="44.0736" lon="7.02944">
        <ele>1679.2</ele>
        <time>2012-12-28T09:02:29Z</time>
      </trkpt>
      <trkpt lat="44.07359" lon="7.02943">
        <ele>1679.2</ele>
        <time>2012-12-28T09:02:30Z</time>
      </trkpt>
      <trkpt lat="44.07359" lon="7.02942">
        <ele>1678.6</ele>
        <time>2012-12-28T09:02:31Z</time>
      </trkpt>
      <trkpt lat="44.07359" lon="7.02941">
        <ele>1678.8</ele>
        <time>2012-12-28T09:02:32Z</time>
      </trkpt>
      <trkpt lat="44.07359" lon="7.02941">
        <ele>1678.8</ele>
        <time>2012-12-28T09:02:33Z</time>
      </trkpt>
      <trkpt lat="44.07358" lon="7.0294">
        <ele>1679.1</ele>
        <time>2012-12-28T09:02:34Z</time>
      </trkpt>
      <trkpt lat="44.07358" lon="7.02939">
        <ele>1679.6</ele>
        <time>2012-12-28T09:02:35Z</time>
      </trkpt>
      <trkpt lat="44.07358" lon="7.02938">
        <ele>1680</ele>
        <time>2012-12-28T09:02:36Z</time>
      </trkpt>
      <trkpt lat="44.07358" lon="7.02937">
        <ele>1680.4</ele>
        <time>2012-12-28T09:02:37Z</time>
      </trkpt>
      <trkpt lat="44.07357" lon="7.02936">
        <ele>1680.5</ele>
        <time>2012-12-28T09:02:38Z</time>
      </trkpt>
      <trkpt lat="44.07357" lon="7.02936">
        <ele>1680.5</ele>
        <time>2012-12-28T09:02:39Z</time>
      </trkpt>
      <trkpt lat="44.07357" lon="7.02936">
        <ele>1680.5</ele>
        <time>2012-12-28T09:02:40Z</time>
      </trkpt>
      <trkpt lat="44.07357" lon="7.02936">
        <ele>1680</ele>
        <time>2012-12-28T09:02:41Z</time>
      </trkpt>
      <trkpt lat="44.07356" lon="7.02935">
        <ele>1679.9</ele>
        <time>2012-12-28T09:02:42Z</time>
      </trkpt>
      <trkpt lat="44.07356" lon="7.02935">
        <ele>1679.9</ele>
        <time>2012-12-28T09:02:43Z</time>
      </trkpt>
      <trkpt lat="44.07356" lon="7.02934">
        <ele>1680</ele>
        <time>2012-12-28T09:02:44Z</time>
      </trkpt>
      <trkpt lat="44.07356" lon="7.02932">
        <ele>1680.2</ele>
        <time>2012-12-28T09:02:45Z</time>
      </trkpt>
      <trkpt lat="44.07356" lon="7.02931">
        <ele>1680.4</ele>
        <time>2012-12-28T09:02:46Z</time>
      </trkpt>
      <trkpt lat="44.07355" lon="7.0293">
        <ele>1680.7</ele>
        <time>2012-12-28T09:02:47Z</time>
      </trkpt>
      <trkpt lat="44.07351" lon="7.02909">
        <ele>1683</ele>
        <time>2012-12-28T09:03:07Z</time>
      </trkpt>
      <trkpt lat="44.0735" lon="7.02908">
        <ele>1683.1</ele>
        <time>2012-12-28T09:03:08Z</time>
      </trkpt>
      <trkpt lat="44.0735" lon="7.02906">
        <ele>1683.4</ele>
        <time>2012-12-28T09:03:13Z</time>
      </trkpt>
      <trkpt lat="44.07339" lon="7.02884">
        <ele>1688.1</ele>
        <time>2012-12-28T09:03:33Z</time>
      </trkpt>
      <trkpt lat="44.07336" lon="7.02879">
        <ele>1690</ele>
        <time>2012-12-28T09:03:38Z</time>
      </trkpt>
      <trkpt lat="44.07336" lon="7.02878">
        <ele>1690.2</ele>
        <time>2012-12-28T09:03:39Z</time>
      </trkpt>
      <trkpt lat="44.07335" lon="7.02877">
        <ele>1690.5</ele>
        <time>2012-12-28T09:03:40Z</time>
      </trkpt>
      <trkpt lat="44.07319" lon="7.02864">
        <ele>1692.2</ele>
        <time>2012-12-28T09:04:26Z</time>
      </trkpt>
      <trkpt lat="44.07318" lon="7.02863">
        <ele>1692.4</ele>
        <time>2012-12-28T09:04:27Z</time>
      </trkpt>
      <trkpt lat="44.07317" lon="7.02863">
        <ele>1692.6</ele>
        <time>2012-12-28T09:04:28Z</time>
      </trkpt>
      <trkpt lat="44.07316" lon="7.02862">
        <ele>1692.8</ele>
        <time>2012-12-28T09:04:29Z</time>
      </trkpt>
      <trkpt lat="44.07315" lon="7.02862">
        <ele>1693.1</ele>
        <time>2012-12-28T09:04:30Z</time>
      </trkpt>
      <trkpt lat="44.07315" lon="7.02861">
        <ele>1693.3</ele>
        <time>2012-12-28T09:04:31Z</time>
      </trkpt>
      <trkpt lat="44.07314" lon="7.02861">
        <ele>1693.3</ele>
        <time>2012-12-28T09:04:32Z</time>
      </trkpt>
      <trkpt lat="44.07313" lon="7.0286">
        <ele>1693.9</ele>
        <time>2012-12-28T09:04:33Z</time>
      </trkpt>
      <trkpt lat="44.07312" lon="7.02859">
        <ele>1694</ele>
        <time>2012-12-28T09:04:34Z</time>
      </trkpt>
      <trkpt lat="44.07311" lon="7.02859">
        <ele>1694.3</ele>
        <time>2012-12-28T09:04:35Z</time>
      </trkpt>
      <trkpt lat="44.07311" lon="7.02859">
        <ele>1694.3</ele>
        <time>2012-12-28T09:04:36Z</time>
      </trkpt>
      <trkpt lat="44.0731" lon="7.02859">
        <ele>1694.2</ele>
        <time>2012-12-28T09:04:37Z</time>
      </trkpt>
      <trkpt lat="44.0731" lon="7.02859">
        <ele>1694.4</ele>
        <time>2012-12-28T09:04:38Z</time>
      </trkpt>
      <trkpt lat="44.0731" lon="7.02859">
        <ele>1694.4</ele>
        <time>2012-12-28T09:04:39Z</time>
      </trkpt>
      <trkpt lat="44.07309" lon="7.02859">
        <ele>1694.6</ele>
        <time>2012-12-28T09:04:40Z</time>
      </trkpt>
      <trkpt lat="44.07308" lon="7.02858">
        <ele>1694.5</ele>
        <time>2012-12-28T09:04:41Z</time>
      </trkpt>
      <trkpt lat="44.07308" lon="7.02858">
        <ele>1694.3</ele>
        <time>2012-12-28T09:04:42Z</time>
      </trkpt>
      <trkpt lat="44.07307" lon="7.02858">
        <ele>1694.4</ele>
        <time>2012-12-28T09:04:43Z</time>
      </trkpt>
      <trkpt lat="44.07306" lon="7.02857">
        <ele>1694.6</ele>
        <time>2012-12-28T09:04:44Z</time>
      </trkpt>
      <trkpt lat="44.07306" lon="7.02857">
        <ele>1694.6</ele>
        <time>2012-12-28T09:04:45Z</time>
      </trkpt>
      <trkpt lat="44.07306" lon="7.02857">
        <ele>1694.6</ele>
        <time>2012-12-28T09:04:46Z</time>
      </trkpt>
      <trkpt lat="44.07306" lon="7.02857">
        <ele>1694.6</ele>
        <time>2012-12-28T09:04:47Z</time>
      </trkpt>
      <trkpt lat="44.07305" lon="7.02857">
        <ele>1695.2</ele>
        <time>2012-12-28T09:04:48Z</time>
      </trkpt>
      <trkpt lat="44.07304" lon="7.02856">
        <ele>1695.5</ele>
        <time>2012-12-28T09:04:49Z</time>
      </trkpt>
      <trkpt lat="44.07304" lon="7.02856">
        <ele>1695.9</ele>
        <time>2012-12-28T09:04:50Z</time>
      </trkpt>
      <trkpt lat="44.07304" lon="7.02856">
        <ele>1695.9</ele>
        <time>2012-12-28T09:04:51Z</time>
      </trkpt>
      <trkpt lat="44.07303" lon="7.02855">
        <ele>1696.2</ele>
        <time>2012-12-28T09:04:52Z</time>
      </trkpt>
      <trkpt lat="44.07303" lon="7.02855">
        <ele>1696.2</ele>
        <time>2012-12-28T09:04:53Z</time>
      </trkpt>
      <trkpt lat="44.07303" lon="7.02855">
        <ele>1696.3</ele>
        <time>2012-12-28T09:04:54Z</time>
      </trkpt>
      <trkpt lat="44.07302" lon="7.02854">
        <ele>1696.8</ele>
        <time>2012-12-28T09:04:55Z</time>
      </trkpt>
      <trkpt lat="44.07301" lon="7.02854">
        <ele>1696.9</ele>
        <time>2012-12-28T09:04:56Z</time>
      </trkpt>
      <trkpt lat="44.07301" lon="7.02855">
        <ele>1697</ele>
        <time>2012-12-28T09:04:57Z</time>
      </trkpt>
      <trkpt lat="44.07301" lon="7.02855">
        <ele>1697</ele>
        <time>2012-12-28T09:04:58Z</time>
      </trkpt>
      <trkpt lat="44.07301" lon="7.02855">
        <ele>1697</ele>
        <time>2012-12-28T09:04:59Z</time>
      </trkpt>
      <trkpt lat="44.07301" lon="7.02855">
        <ele>1697</ele>
        <time>2012-12-28T09:05:00Z</time>
      </trkpt>
      <trkpt lat="44.07301" lon="7.02855">
        <ele>1697</ele>
        <time>2012-12-28T09:05:01Z</time>
      </trkpt>
      <trkpt lat="44.07301" lon="7.02855">
        <ele>1697</ele>
        <time>2012-12-28T09:05:02Z</time>
      </trkpt>
      <trkpt lat="44.073" lon="7.02854">
        <ele>1697</ele>
        <time>2012-12-28T09:05:03Z</time>
      </trkpt>
      <trkpt lat="44.07299" lon="7.02854">
        <ele>1696.4</ele>
        <time>2012-12-28T09:05:04Z</time>
      </trkpt>
      <trkpt lat="44.07298" lon="7.02854">
        <ele>1696.2</ele>
        <time>2012-12-28T09:05:05Z</time>
      </trkpt>
      <trkpt lat="44.07298" lon="7.02854">
        <ele>1696.2</ele>
        <time>2012-12-28T09:05:06Z</time>
      </trkpt>
      <trkpt lat="44.07298" lon="7.02854">
        <ele>1696.2</ele>
        <time>2012-12-28T09:05:07Z</time>
      </trkpt>
      <trkpt lat="44.07297" lon="7.02854">
        <ele>1696.4</ele>
        <time>2012-12-28T09:05:08Z</time>
      </trkpt>
      <trkpt lat="44.07297" lon="7.02854">
        <ele>1696.4</ele>
        <time>2012-12-28T09:05:09Z</time>
      </trkpt>
      <trkpt lat="44.07296" lon="7.02854">
        <ele>1696.6</ele>
        <time>2012-12-28T09:05:10Z</time>
      </trkpt>
      <trkpt lat="44.07296" lon="7.02854">
        <ele>1696.6</ele>
        <time>2012-12-28T09:05:11Z</time>
      </trkpt>
      <trkpt lat="44.07296" lon="7.02854">
        <ele>1696.6</ele>
        <time>2012-12-28T09:05:12Z</time>
      </trkpt>
      <trkpt lat="44.07295" lon="7.02854">
        <ele>1696.8</ele>
        <time>2012-12-28T09:05:13Z</time>
      </trkpt>
      <trkpt lat="44.07294" lon="7.02854">
        <ele>1696.5</ele>
        <time>2012-12-28T09:05:14Z</time>
      </trkpt>
      <trkpt lat="44.07273" lon="7.02847">
        <ele>1699.9</ele>
        <time>2012-12-28T09:05:42Z</time>
      </trkpt>
      <trkpt lat="44.07273" lon="7.02847">
        <ele>1699.9</ele>
        <time>2012-12-28T09:05:43Z</time>
      </trkpt>
      <trkpt lat="44.07273" lon="7.02846">
        <ele>1700</ele>
        <time>2012-12-28T09:05:44Z</time>
      </trkpt>
      <trkpt lat="44.07272" lon="7.02846">
        <ele>1700.1</ele>
        <time>2012-12-28T09:05:45Z</time>
      </trkpt>
      <trkpt lat="44.07264" lon="7.02842">
        <ele>1701.9</ele>
        <time>2012-12-28T09:05:56Z</time>
      </trkpt>
      <trkpt lat="44.07263" lon="7.02842">
        <ele>1702.5</ele>
        <time>2012-12-28T09:05:57Z</time>
      </trkpt>
      <trkpt lat="44.07262" lon="7.02842">
        <ele>1703.1</ele>
        <time>2012-12-28T09:05:58Z</time>
      </trkpt>
      <trkpt lat="44.07256" lon="7.02838">
        <ele>1704.6</ele>
        <time>2012-12-28T09:06:59Z</time>
      </trkpt>
      <trkpt lat="44.07255" lon="7.02837">
        <ele>1704.7</ele>
        <time>2012-12-28T09:07:00Z</time>
      </trkpt>
      <trkpt lat="44.07255" lon="7.02838">
        <ele>1704.4</ele>
        <time>2012-12-28T09:09:49Z</time>
      </trkpt>
      <trkpt lat="44.07255" lon="7.02838">
        <ele>1704.4</ele>
        <time>2012-12-28T09:09:50Z</time>
      </trkpt>
      <trkpt lat="44.07255" lon="7.02844">
        <ele>1704.4</ele>
        <time>2012-12-28T09:16:27Z</time>
      </trkpt>
      <trkpt lat="44.07255" lon="7.02845">
        <ele>1704.6</ele>
        <time>2012-12-28T09:16:28Z</time>
      </trkpt>
      <trkpt lat="44.07254" lon="7.02845">
        <ele>1704.9</ele>
        <time>2012-12-28T09:16:29Z</time>
      </trkpt>
      <trkpt lat="44.07254" lon="7.02846">
        <ele>1704.9</ele>
        <time>2012-12-28T09:16:30Z</time>
      </trkpt>
      <trkpt lat="44.07254" lon="7.02847">
        <ele>1705.1</ele>
        <time>2012-12-28T09:16:31Z</time>
      </trkpt>
      <trkpt lat="44.07254" lon="7.02848">
        <ele>1705.4</ele>
        <time>2012-12-28T09:16:32Z</time>
      </trkpt>
      <trkpt lat="44.07254" lon="7.02849">
        <ele>1705.7</ele>
        <time>2012-12-28T09:16:33Z</time>
      </trkpt>
      <trkpt lat="44.07254" lon="7.0285">
        <ele>1705.4</ele>
        <time>2012-12-28T09:16:34Z</time>
      </trkpt>
      <trkpt lat="44.07254" lon="7.0285">
        <ele>1705.6</ele>
        <time>2012-12-28T09:16:35Z</time>
      </trkpt>
      <trkpt lat="44.07254" lon="7.02851">
        <ele>1705.6</ele>
        <time>2012-12-28T09:16:36Z</time>
      </trkpt>
      <trkpt lat="44.07253" lon="7.02852">
        <ele>1705.7</ele>
        <time>2012-12-28T09:16:37Z</time>
      </trkpt>
      <trkpt lat="44.07253" lon="7.02852">
        <ele>1705.9</ele>
        <time>2012-12-28T09:16:38Z</time>
      </trkpt>
      <trkpt lat="44.07243" lon="7.02854">
        <ele>1707.7</ele>
        <time>2012-12-28T09:17:00Z</time>
      </trkpt>
      <trkpt lat="44.07243" lon="7.02854">
        <ele>1707.7</ele>
        <time>2012-12-28T09:17:01Z</time>
      </trkpt>
      <trkpt lat="44.07243" lon="7.02854">
        <ele>1707.7</ele>
        <time>2012-12-28T09:17:02Z</time>
      </trkpt>
      <trkpt lat="44.07242" lon="7.02854">
        <ele>1707.9</ele>
        <time>2012-12-28T09:17:03Z</time>
      </trkpt>
      <trkpt lat="44.07241" lon="7.02854">
        <ele>1708.1</ele>
        <time>2012-12-28T09:17:04Z</time>
      </trkpt>
      <trkpt lat="44.07241" lon="7.02854">
        <ele>1708.1</ele>
        <time>2012-12-28T09:17:05Z</time>
      </trkpt>
      <trkpt lat="44.07241" lon="7.02854">
        <ele>1708.1</ele>
        <time>2012-12-28T09:17:06Z</time>
      </trkpt>
      <trkpt lat="44.07241" lon="7.02854">
        <ele>1708.2</ele>
        <time>2012-12-28T09:17:07Z</time>
      </trkpt>
      <trkpt lat="44.07241" lon="7.02854">
        <ele>1708.2</ele>
        <time>2012-12-28T09:17:08Z</time>
      </trkpt>
      <trkpt lat="44.0724" lon="7.02854">
        <ele>1708.5</ele>
        <time>2012-12-28T09:17:09Z</time>
      </trkpt>
      <trkpt lat="44.07239" lon="7.02854">
        <ele>1708.8</ele>
        <time>2012-12-28T09:17:10Z</time>
      </trkpt>
      <trkpt lat="44.07238" lon="7.02854">
        <ele>1709</ele>
        <time>2012-12-28T09:17:11Z</time>
      </trkpt>
      <trkpt lat="44.07237" lon="7.02855">
        <ele>1709.1</ele>
        <time>2012-12-28T09:17:12Z</time>
      </trkpt>
      <trkpt lat="44.0723" lon="7.02855">
        <ele>1710.6</ele>
        <time>2012-12-28T09:17:22Z</time>
      </trkpt>
      <trkpt lat="44.07229" lon="7.02855">
        <ele>1710.8</ele>
        <time>2012-12-28T09:17:26Z</time>
      </trkpt>
      <trkpt lat="44.07228" lon="7.02855">
        <ele>1711.1</ele>
        <time>2012-12-28T09:17:27Z</time>
      </trkpt>
      <trkpt lat="44.07227" lon="7.02856">
        <ele>1711.4</ele>
        <time>2012-12-28T09:17:28Z</time>
      </trkpt>
      <trkpt lat="44.07227" lon="7.02856">
        <ele>1711.4</ele>
        <time>2012-12-28T09:17:29Z</time>
      </trkpt>
      <trkpt lat="44.07227" lon="7.02856">
        <ele>1711.4</ele>
        <time>2012-12-28T09:17:30Z</time>
      </trkpt>
      <trkpt lat="44.07227" lon="7.02856">
        <ele>1711.4</ele>
        <time>2012-12-28T09:17:31Z</time>
      </trkpt>
      <trkpt lat="44.07227" lon="7.02856">
        <ele>1711.4</ele>
        <time>2012-12-28T09:17:32Z</time>
      </trkpt>
      <trkpt lat="44.07227" lon="7.02856">
        <ele>1711.4</ele>
        <time>2012-12-28T09:17:33Z</time>
      </trkpt>
      <trkpt lat="44.07227" lon="7.02856">
        <ele>1711.4</ele>
        <time>2012-12-28T09:17:34Z</time>
      </trkpt>
      <trkpt lat="44.07227" lon="7.02856">
        <ele>1711.4</ele>
        <time>2012-12-28T09:17:35Z</time>
      </trkpt>
      <trkpt lat="44.07227" lon="7.02856">
        <ele>1711.4</ele>
        <time>2012-12-28T09:17:36Z</time>
      </trkpt>
      <trkpt lat="44.07226" lon="7.02856">
        <ele>1711.4</ele>
        <time>2012-12-28T09:17:37Z</time>
      </trkpt>
      <trkpt lat="44.07224" lon="7.02857">
        <ele>1711.6</ele>
        <time>2012-12-28T09:17:41Z</time>
      </trkpt>
      <trkpt lat="44.07223" lon="7.02858">
        <ele>1711.9</ele>
        <time>2012-12-28T09:17:42Z</time>
      </trkpt>
      <trkpt lat="44.07221" lon="7.02858">
        <ele>1711.6</ele>
        <time>2012-12-28T09:17:43Z</time>
      </trkpt>
      <trkpt lat="44.0722" lon="7.02859">
        <ele>1711.7</ele>
        <time>2012-12-28T09:17:44Z</time>
      </trkpt>
      <trkpt lat="44.07219" lon="7.0286">
        <ele>1711.9</ele>
        <time>2012-12-28T09:17:45Z</time>
      </trkpt>
      <trkpt lat="44.07219" lon="7.0286">
        <ele>1712</ele>
        <time>2012-12-28T09:17:46Z</time>
      </trkpt>
      <trkpt lat="44.07219" lon="7.0286">
        <ele>1712</ele>
        <time>2012-12-28T09:17:47Z</time>
      </trkpt>
      <trkpt lat="44.07218" lon="7.02861">
        <ele>1712</ele>
        <time>2012-12-28T09:17:48Z</time>
      </trkpt>
      <trkpt lat="44.07217" lon="7.02862">
        <ele>1712.2</ele>
        <time>2012-12-28T09:17:49Z</time>
      </trkpt>
      <trkpt lat="44.07216" lon="7.02863">
        <ele>1712.3</ele>
        <time>2012-12-28T09:17:50Z</time>
      </trkpt>
      <trkpt lat="44.07216" lon="7.02863">
        <ele>1712.3</ele>
        <time>2012-12-28T09:17:51Z</time>
      </trkpt>
      <trkpt lat="44.07215" lon="7.02863">
        <ele>1712.8</ele>
        <time>2012-12-28T09:17:52Z</time>
      </trkpt>
      <trkpt lat="44.07215" lon="7.02863">
        <ele>1712.8</ele>
        <time>2012-12-28T09:17:53Z</time>
      </trkpt>
      <trkpt lat="44.07214" lon="7.02863">
        <ele>1713</ele>
        <time>2012-12-28T09:17:54Z</time>
      </trkpt>
      <trkpt lat="44.07213" lon="7.02862">
        <ele>1713</ele>
        <time>2012-12-28T09:17:57Z</time>
      </trkpt>
      <trkpt lat="44.07212" lon="7.02862">
        <ele>1713</ele>
        <time>2012-12-28T09:17:58Z</time>
      </trkpt>
      <trkpt lat="44.0721" lon="7.02861">
        <ele>1713</ele>
        <time>2012-12-28T09:17:59Z</time>
      </trkpt>
      <trkpt lat="44.07209" lon="7.0286">
        <ele>1713.2</ele>
        <time>2012-12-28T09:18:00Z</time>
      </trkpt>
      <trkpt lat="44.07208" lon="7.0286">
        <ele>1713.1</ele>
        <time>2012-12-28T09:18:01Z</time>
      </trkpt>
      <trkpt lat="44.07207" lon="7.02859">
        <ele>1713.3</ele>
        <time>2012-12-28T09:18:02Z</time>
      </trkpt>
      <trkpt lat="44.07206" lon="7.02859">
        <ele>1713.5</ele>
        <time>2012-12-28T09:18:03Z</time>
      </trkpt>
      <trkpt lat="44.07199" lon="7.02856">
        <ele>1715</ele>
        <time>2012-12-28T09:18:13Z</time>
      </trkpt>
      <trkpt lat="44.07198" lon="7.02856">
        <ele>1715.1</ele>
        <time>2012-12-28T09:18:14Z</time>
      </trkpt>
      <trkpt lat="44.07196" lon="7.02855">
        <ele>1715.8</ele>
        <time>2012-12-28T09:18:20Z</time>
      </trkpt>
      <trkpt lat="44.07194" lon="7.02853">
        <ele>1716.1</ele>
        <time>2012-12-28T09:18:24Z</time>
      </trkpt>
      <trkpt lat="44.07192" lon="7.02853">
        <ele>1716.5</ele>
        <time>2012-12-28T09:18:29Z</time>
      </trkpt>
      <trkpt lat="44.07191" lon="7.02852">
        <ele>1716.8</ele>
        <time>2012-12-28T09:18:30Z</time>
      </trkpt>
      <trkpt lat="44.07191" lon="7.02852">
        <ele>1716.8</ele>
        <time>2012-12-28T09:18:31Z</time>
      </trkpt>
      <trkpt lat="44.07191" lon="7.02852">
        <ele>1716.8</ele>
        <time>2012-12-28T09:18:32Z</time>
      </trkpt>
      <trkpt lat="44.07191" lon="7.02852">
        <ele>1716.8</ele>
        <time>2012-12-28T09:18:33Z</time>
      </trkpt>
      <trkpt lat="44.07191" lon="7.02852">
        <ele>1716.8</ele>
        <time>2012-12-28T09:18:34Z</time>
      </trkpt>
      <trkpt lat="44.07191" lon="7.02852">
        <ele>1716.8</ele>
        <time>2012-12-28T09:18:35Z</time>
      </trkpt>
      <trkpt lat="44.0719" lon="7.02852">
        <ele>1717.2</ele>
        <time>2012-12-28T09:18:36Z</time>
      </trkpt>
      <trkpt lat="44.07189" lon="7.02851">
        <ele>1717.6</ele>
        <time>2012-12-28T09:18:37Z</time>
      </trkpt>
      <trkpt lat="44.07188" lon="7.02851">
        <ele>1717.8</ele>
        <time>2012-12-28T09:18:38Z</time>
      </trkpt>
      <trkpt lat="44.07188" lon="7.02851">
        <ele>1717.8</ele>
        <time>2012-12-28T09:18:39Z</time>
      </trkpt>
      <trkpt lat="44.07188" lon="7.0285">
        <ele>1718.1</ele>
        <time>2012-12-28T09:18:40Z</time>
      </trkpt>
      <trkpt lat="44.07188" lon="7.0285">
        <ele>1718.1</ele>
        <time>2012-12-28T09:18:41Z</time>
      </trkpt>
      <trkpt lat="44.07187" lon="7.0285">
        <ele>1718.2</ele>
        <time>2012-12-28T09:18:42Z</time>
      </trkpt>
      <trkpt lat="44.07187" lon="7.0285">
        <ele>1718.2</ele>
        <time>2012-12-28T09:18:43Z</time>
      </trkpt>
      <trkpt lat="44.07186" lon="7.0285">
        <ele>1718.4</ele>
        <time>2012-12-28T09:18:44Z</time>
      </trkpt>
      <trkpt lat="44.07186" lon="7.0285">
        <ele>1718.4</ele>
        <time>2012-12-28T09:18:45Z</time>
      </trkpt>
      <trkpt lat="44.07186" lon="7.0285">
        <ele>1718.2</ele>
        <time>2012-12-28T09:18:46Z</time>
      </trkpt>
      <trkpt lat="44.07173" lon="7.02841">
        <ele>1722.7</ele>
        <time>2012-12-28T09:19:12Z</time>
      </trkpt>
      <trkpt lat="44.07172" lon="7.02841">
        <ele>1722.7</ele>
        <time>2012-12-28T09:19:13Z</time>
      </trkpt>
      <trkpt lat="44.07171" lon="7.02841">
        <ele>1723</ele>
        <time>2012-12-28T09:19:14Z</time>
      </trkpt>
      <trkpt lat="44.07171" lon="7.02841">
        <ele>1723</ele>
        <time>2012-12-28T09:19:15Z</time>
      </trkpt>
      <trkpt lat="44.07171" lon="7.02841">
        <ele>1723</ele>
        <time>2012-12-28T09:19:16Z</time>
      </trkpt>
      <trkpt lat="44.0717" lon="7.0284">
        <ele>1723</ele>
        <time>2012-12-28T09:19:17Z</time>
      </trkpt>
      <trkpt lat="44.0717" lon="7.0284">
        <ele>1723.3</ele>
        <time>2012-12-28T09:19:18Z</time>
      </trkpt>
      <trkpt lat="44.07169" lon="7.02839">
        <ele>1723.6</ele>
        <time>2012-12-28T09:19:19Z</time>
      </trkpt>
      <trkpt lat="44.07168" lon="7.02839">
        <ele>1724.2</ele>
        <time>2012-12-28T09:19:20Z</time>
      </trkpt>
      <trkpt lat="44.07167" lon="7.02838">
        <ele>1724.3</ele>
        <time>2012-12-28T09:19:21Z</time>
      </trkpt>
      <trkpt lat="44.07167" lon="7.02838">
        <ele>1724.3</ele>
        <time>2012-12-28T09:19:22Z</time>
      </trkpt>
      <trkpt lat="44.07167" lon="7.02838">
        <ele>1724.3</ele>
        <time>2012-12-28T09:19:23Z</time>
      </trkpt>
      <trkpt lat="44.07167" lon="7.02838">
        <ele>1724.3</ele>
        <time>2012-12-28T09:19:24Z</time>
      </trkpt>
      <trkpt lat="44.07167" lon="7.02838">
        <ele>1724.4</ele>
        <time>2012-12-28T09:19:25Z</time>
      </trkpt>
      <trkpt lat="44.07167" lon="7.02838">
        <ele>1724.4</ele>
        <time>2012-12-28T09:19:26Z</time>
      </trkpt>
      <trkpt lat="44.07166" lon="7.02838">
        <ele>1724.4</ele>
        <time>2012-12-28T09:19:27Z</time>
      </trkpt>
      <trkpt lat="44.07165" lon="7.02838">
        <ele>1724.7</ele>
        <time>2012-12-28T09:19:28Z</time>
      </trkpt>
      <trkpt lat="44.07165" lon="7.02838">
        <ele>1724.6</ele>
        <time>2012-12-28T09:19:29Z</time>
      </trkpt>
      <trkpt lat="44.07164" lon="7.02838">
        <ele>1724.7</ele>
        <time>2012-12-28T09:19:30Z</time>
      </trkpt>
      <trkpt lat="44.07164" lon="7.02838">
        <ele>1724.7</ele>
        <time>2012-12-28T09:19:31Z</time>
      </trkpt>
      <trkpt lat="44.07163" lon="7.02838">
        <ele>1724.7</ele>
        <time>2012-12-28T09:19:32Z</time>
      </trkpt>
      <trkpt lat="44.07163" lon="7.02838">
        <ele>1724.7</ele>
        <time>2012-12-28T09:19:33Z</time>
      </trkpt>
      <trkpt lat="44.07163" lon="7.02838">
        <ele>1724.7</ele>
        <time>2012-12-28T09:19:34Z</time>
      </trkpt>
      <trkpt lat="44.07163" lon="7.02838">
        <ele>1725</ele>
        <time>2012-12-28T09:19:35Z</time>
      </trkpt>
      <trkpt lat="44.07163" lon="7.02838">
        <ele>1725</ele>
        <time>2012-12-28T09:19:36Z</time>
      </trkpt>
      <trkpt lat="44.07163" lon="7.02838">
        <ele>1725</ele>
        <time>2012-12-28T09:19:37Z</time>
      </trkpt>
      <trkpt lat="44.07162" lon="7.02838">
        <ele>1725.1</ele>
        <time>2012-12-28T09:19:38Z</time>
      </trkpt>
      <trkpt lat="44.07162" lon="7.02838">
        <ele>1725.1</ele>
        <time>2012-12-28T09:19:39Z</time>
      </trkpt>
      <trkpt lat="44.07161" lon="7.02837">
        <ele>1725.3</ele>
        <time>2012-12-28T09:19:40Z</time>
      </trkpt>
      <trkpt lat="44.07161" lon="7.02837">
        <ele>1725.3</ele>
        <time>2012-12-28T09:19:41Z</time>
      </trkpt>
      <trkpt lat="44.07161" lon="7.02837">
        <ele>1725.3</ele>
        <time>2012-12-28T09:19:42Z</time>
      </trkpt>
      <trkpt lat="44.07161" lon="7.02837">
        <ele>1725.3</ele>
        <time>2012-12-28T09:19:43Z</time>
      </trkpt>
      <trkpt lat="44.07161" lon="7.02837">
        <ele>1725.4</ele>
        <time>2012-12-28T09:19:44Z</time>
      </trkpt>
      <trkpt lat="44.07158" lon="7.02836">
        <ele>1726.1</ele>
        <time>2012-12-28T09:19:50Z</time>
      </trkpt>
      <trkpt lat="44.07157" lon="7.02836">
        <ele>1726.7</ele>
        <time>2012-12-28T09:19:51Z</time>
      </trkpt>
      <trkpt lat="44.07157" lon="7.02836">
        <ele>1726.7</ele>
        <time>2012-12-28T09:19:52Z</time>
      </trkpt>
      <trkpt lat="44.07156" lon="7.02835">
        <ele>1727.1</ele>
        <time>2012-12-28T09:19:53Z</time>
      </trkpt>
      <trkpt lat="44.07156" lon="7.02835">
        <ele>1727.1</ele>
        <time>2012-12-28T09:19:54Z</time>
      </trkpt>
      <trkpt lat="44.07156" lon="7.02835">
        <ele>1727.4</ele>
        <time>2012-12-28T09:19:55Z</time>
      </trkpt>
      <trkpt lat="44.07156" lon="7.02835">
        <ele>1727.4</ele>
        <time>2012-12-28T09:19:56Z</time>
      </trkpt>
      <trkpt lat="44.07156" lon="7.02835">
        <ele>1727.4</ele>
        <time>2012-12-28T09:19:57Z</time>
      </trkpt>
      <trkpt lat="44.07156" lon="7.02835">
        <ele>1727.4</ele>
        <time>2012-12-28T09:19:58Z</time>
      </trkpt>
      <trkpt lat="44.07155" lon="7.02835">
        <ele>1727.5</ele>
        <time>2012-12-28T09:19:59Z</time>
      </trkpt>
      <trkpt lat="44.07155" lon="7.02835">
        <ele>1727.6</ele>
        <time>2012-12-28T09:20:00Z</time>
      </trkpt>
      <trkpt lat="44.07154" lon="7.02834">
        <ele>1728</ele>
        <time>2012-12-28T09:20:01Z</time>
      </trkpt>
      <trkpt lat="44.07154" lon="7.02834">
        <ele>1728</ele>
        <time>2012-12-28T09:20:02Z</time>
      </trkpt>
      <trkpt lat="44.07154" lon="7.02834">
        <ele>1728</ele>
        <time>2012-12-28T09:20:03Z</time>
      </trkpt>
      <trkpt lat="44.07154" lon="7.02834">
        <ele>1728</ele>
        <time>2012-12-28T09:20:04Z</time>
      </trkpt>
      <trkpt lat="44.07153" lon="7.02834">
        <ele>1728.3</ele>
        <time>2012-12-28T09:20:05Z</time>
      </trkpt>
      <trkpt lat="44.07152" lon="7.02834">
        <ele>1728.7</ele>
        <time>2012-12-28T09:20:06Z</time>
      </trkpt>
      <trkpt lat="44.07151" lon="7.02834">
        <ele>1729</ele>
        <time>2012-12-28T09:20:07Z</time>
      </trkpt>
      <trkpt lat="44.07151" lon="7.02834">
        <ele>1729</ele>
        <time>2012-12-28T09:20:08Z</time>
      </trkpt>
      <trkpt lat="44.0715" lon="7.02834">
        <ele>1729.4</ele>
        <time>2012-12-28T09:20:09Z</time>
      </trkpt>
      <trkpt lat="44.0715" lon="7.02834">
        <ele>1729.4</ele>
        <time>2012-12-28T09:20:10Z</time>
      </trkpt>
      <trkpt lat="44.07149" lon="7.02834">
        <ele>1729.6</ele>
        <time>2012-12-28T09:20:11Z</time>
      </trkpt>
      <trkpt lat="44.07149" lon="7.02834">
        <ele>1729.6</ele>
        <time>2012-12-28T09:20:12Z</time>
      </trkpt>
      <trkpt lat="44.07149" lon="7.02834">
        <ele>1729.6</ele>
        <time>2012-12-28T09:20:13Z</time>
      </trkpt>
      <trkpt lat="44.07149" lon="7.02834">
        <ele>1729.6</ele>
        <time>2012-12-28T09:20:14Z</time>
      </trkpt>
      <trkpt lat="44.07149" lon="7.02834">
        <ele>1729.6</ele>
        <time>2012-12-28T09:20:15Z</time>
      </trkpt>
      <trkpt lat="44.07148" lon="7.02834">
        <ele>1730.1</ele>
        <time>2012-12-28T09:20:16Z</time>
      </trkpt>
      <trkpt lat="44.07148" lon="7.02834">
        <ele>1730.1</ele>
        <time>2012-12-28T09:20:17Z</time>
      </trkpt>
      <trkpt lat="44.07147" lon="7.02833">
        <ele>1730.5</ele>
        <time>2012-12-28T09:20:18Z</time>
      </trkpt>
      <trkpt lat="44.07147" lon="7.02833">
        <ele>1730.5</ele>
        <time>2012-12-28T09:20:19Z</time>
      </trkpt>
      <trkpt lat="44.07146" lon="7.02833">
        <ele>1730.8</ele>
        <time>2012-12-28T09:20:20Z</time>
      </trkpt>
      <trkpt lat="44.07145" lon="7.02833">
        <ele>1730.8</ele>
        <time>2012-12-28T09:20:21Z</time>
      </trkpt>
      <trkpt lat="44.07144" lon="7.02833">
        <ele>1731.1</ele>
        <time>2012-12-28T09:20:22Z</time>
      </trkpt>
      <trkpt lat="44.07144" lon="7.02833">
        <ele>1731.1</ele>
        <time>2012-12-28T09:20:23Z</time>
      </trkpt>
      <trkpt lat="44.07144" lon="7.02833">
        <ele>1731.1</ele>
        <time>2012-12-28T09:20:24Z</time>
      </trkpt>
      <trkpt lat="44.07144" lon="7.02833">
        <ele>1731.2</ele>
        <time>2012-12-28T09:20:25Z</time>
      </trkpt>
      <trkpt lat="44.07144" lon="7.02833">
        <ele>1731.2</ele>
        <time>2012-12-28T09:20:26Z</time>
      </trkpt>
      <trkpt lat="44.07144" lon="7.02833">
        <ele>1731.2</ele>
        <time>2012-12-28T09:20:27Z</time>
      </trkpt>
      <trkpt lat="44.07143" lon="7.02832">
        <ele>1731.2</ele>
        <time>2012-12-28T09:20:28Z</time>
      </trkpt>
      <trkpt lat="44.07143" lon="7.02832">
        <ele>1731.2</ele>
        <time>2012-12-28T09:20:29Z</time>
      </trkpt>
      <trkpt lat="44.07143" lon="7.02832">
        <ele>1731.2</ele>
        <time>2012-12-28T09:20:30Z</time>
      </trkpt>
      <trkpt lat="44.07142" lon="7.02832">
        <ele>1731.6</ele>
        <time>2012-12-28T09:20:31Z</time>
      </trkpt>
      <trkpt lat="44.07141" lon="7.02832">
        <ele>1732</ele>
        <time>2012-12-28T09:20:32Z</time>
      </trkpt>
      <trkpt lat="44.07141" lon="7.02832">
        <ele>1732</ele>
        <time>2012-12-28T09:20:33Z</time>
      </trkpt>
      <trkpt lat="44.0714" lon="7.02832">
        <ele>1731.8</ele>
        <time>2012-12-28T09:20:34Z</time>
      </trkpt>
      <trkpt lat="44.07139" lon="7.02832">
        <ele>1732.3</ele>
        <time>2012-12-28T09:20:35Z</time>
      </trkpt>
      <trkpt lat="44.07138" lon="7.02832">
        <ele>1732.6</ele>
        <time>2012-12-28T09:20:36Z</time>
      </trkpt>
      <trkpt lat="44.07137" lon="7.02832">
        <ele>1733.1</ele>
        <time>2012-12-28T09:20:37Z</time>
      </trkpt>
      <trkpt lat="44.07137" lon="7.02832">
        <ele>1733.1</ele>
        <time>2012-12-28T09:20:38Z</time>
      </trkpt>
      <trkpt lat="44.07136" lon="7.02831">
        <ele>1732.8</ele>
        <time>2012-12-28T09:20:39Z</time>
      </trkpt>
      <trkpt lat="44.07136" lon="7.02831">
        <ele>1732.8</ele>
        <time>2012-12-28T09:20:40Z</time>
      </trkpt>
      <trkpt lat="44.07135" lon="7.02831">
        <ele>1733.1</ele>
        <time>2012-12-28T09:20:41Z</time>
      </trkpt>
      <trkpt lat="44.07135" lon="7.02831">
        <ele>1733.1</ele>
        <time>2012-12-28T09:20:42Z</time>
      </trkpt>
      <trkpt lat="44.07134" lon="7.02831">
        <ele>1732.9</ele>
        <time>2012-12-28T09:20:43Z</time>
      </trkpt>
      <trkpt lat="44.07134" lon="7.02831">
        <ele>1732.9</ele>
        <time>2012-12-28T09:20:44Z</time>
      </trkpt>
      <trkpt lat="44.07133" lon="7.02831">
        <ele>1733</ele>
        <time>2012-12-28T09:20:45Z</time>
      </trkpt>
      <trkpt lat="44.07094" lon="7.02824">
        <ele>1747.2</ele>
        <time>2012-12-28T09:23:09Z</time>
      </trkpt>
      <trkpt lat="44.07093" lon="7.02824">
        <ele>1747.4</ele>
        <time>2012-12-28T09:23:10Z</time>
      </trkpt>
      <trkpt lat="44.07093" lon="7.02823">
        <ele>1747.7</ele>
        <time>2012-12-28T09:23:11Z</time>
      </trkpt>
      <trkpt lat="44.07093" lon="7.02823">
        <ele>1747.7</ele>
        <time>2012-12-28T09:23:12Z</time>
      </trkpt>
      <trkpt lat="44.07092" lon="7.02823">
        <ele>1747.9</ele>
        <time>2012-12-28T09:23:13Z</time>
      </trkpt>
      <trkpt lat="44.07092" lon="7.02823">
        <ele>1748.6</ele>
        <time>2012-12-28T09:23:14Z</time>
      </trkpt>
      <trkpt lat="44.07092" lon="7.02823">
        <ele>1748.6</ele>
        <time>2012-12-28T09:23:15Z</time>
      </trkpt>
      <trkpt lat="44.07092" lon="7.02823">
        <ele>1748.6</ele>
        <time>2012-12-28T09:23:16Z</time>
      </trkpt>
      <trkpt lat="44.07091" lon="7.02823">
        <ele>1748.9</ele>
        <time>2012-12-28T09:23:17Z</time>
      </trkpt>
      <trkpt lat="44.0709" lon="7.02822">
        <ele>1748.9</ele>
        <time>2012-12-28T09:23:18Z</time>
      </trkpt>
      <trkpt lat="44.07089" lon="7.02822">
        <ele>1749</ele>
        <time>2012-12-28T09:23:19Z</time>
      </trkpt>
      <trkpt lat="44.07089" lon="7.02822">
        <ele>1749</ele>
        <time>2012-12-28T09:23:20Z</time>
      </trkpt>
      <trkpt lat="44.07089" lon="7.02822">
        <ele>1749</ele>
        <time>2012-12-28T09:23:21Z</time>
      </trkpt>
      <trkpt lat="44.07089" lon="7.02822">
        <ele>1748.8</ele>
        <time>2012-12-28T09:23:22Z</time>
      </trkpt>
      <trkpt lat="44.07089" lon="7.02822">
        <ele>1748.8</ele>
        <time>2012-12-28T09:23:23Z</time>
      </trkpt>
      <trkpt lat="44.07089" lon="7.02822">
        <ele>1748.8</ele>
        <time>2012-12-28T09:23:24Z</time>
      </trkpt>
      <trkpt lat="44.07089" lon="7.02822">
        <ele>1749</ele>
        <time>2012-12-28T09:23:25Z</time>
      </trkpt>
      <trkpt lat="44.07089" lon="7.02822">
        <ele>1749</ele>
        <time>2012-12-28T09:23:26Z</time>
      </trkpt>
      <trkpt lat="44.07088" lon="7.02822">
        <ele>1749.4</ele>
        <time>2012-12-28T09:23:27Z</time>
      </trkpt>
      <trkpt lat="44.07088" lon="7.02822">
        <ele>1749.7</ele>
        <time>2012-12-28T09:23:28Z</time>
      </trkpt>
      <trkpt lat="44.07088" lon="7.02822">
        <ele>1749.7</ele>
        <time>2012-12-28T09:23:29Z</time>
      </trkpt>
      <trkpt lat="44.07088" lon="7.02822">
        <ele>1749.7</ele>
        <time>2012-12-28T09:23:30Z</time>
      </trkpt>
      <trkpt lat="44.07088" lon="7.02822">
        <ele>1749.7</ele>
        <time>2012-12-28T09:23:31Z</time>
      </trkpt>
      <trkpt lat="44.07088" lon="7.02822">
        <ele>1749.7</ele>
        <time>2012-12-28T09:23:32Z</time>
      </trkpt>
      <trkpt lat="44.07088" lon="7.02822">
        <ele>1749.7</ele>
        <time>2012-12-28T09:23:33Z</time>
      </trkpt>
      <trkpt lat="44.07088" lon="7.02822">
        <ele>1750.2</ele>
        <time>2012-12-28T09:23:34Z</time>
      </trkpt>
      <trkpt lat="44.07087" lon="7.02821">
        <ele>1750.6</ele>
        <time>2012-12-28T09:23:35Z</time>
      </trkpt>
      <trkpt lat="44.07087" lon="7.02821">
        <ele>1750.6</ele>
        <time>2012-12-28T09:23:36Z</time>
      </trkpt>
      <trkpt lat="44.07087" lon="7.0282">
        <ele>1750.9</ele>
        <time>2012-12-28T09:23:37Z</time>
      </trkpt>
      <trkpt lat="44.07086" lon="7.0282">
        <ele>1751.5</ele>
        <time>2012-12-28T09:23:38Z</time>
      </trkpt>
      <trkpt lat="44.07086" lon="7.0282">
        <ele>1751.5</ele>
        <time>2012-12-28T09:23:39Z</time>
      </trkpt>
      <trkpt lat="44.07086" lon="7.0282">
        <ele>1751.5</ele>
        <time>2012-12-28T09:23:40Z</time>
      </trkpt>
      <trkpt lat="44.07086" lon="7.0282">
        <ele>1751.5</ele>
        <time>2012-12-28T09:23:41Z</time>
      </trkpt>
      <trkpt lat="44.07085" lon="7.02819">
        <ele>1752</ele>
        <time>2012-12-28T09:23:42Z</time>
      </trkpt>
      <trkpt lat="44.07085" lon="7.02819">
        <ele>1752</ele>
        <time>2012-12-28T09:23:43Z</time>
      </trkpt>
      <trkpt lat="44.07085" lon="7.02819">
        <ele>1752</ele>
        <time>2012-12-28T09:23:44Z</time>
      </trkpt>
      <trkpt lat="44.07084" lon="7.02819">
        <ele>1752.2</ele>
        <time>2012-12-28T09:23:45Z</time>
      </trkpt>
      <trkpt lat="44.07084" lon="7.02819">
        <ele>1752.2</ele>
        <time>2012-12-28T09:23:46Z</time>
      </trkpt>
      <trkpt lat="44.07084" lon="7.02819">
        <ele>1752.4</ele>
        <time>2012-12-28T09:23:47Z</time>
      </trkpt>
      <trkpt lat="44.07084" lon="7.02819">
        <ele>1752.4</ele>
        <time>2012-12-28T09:23:48Z</time>
      </trkpt>
      <trkpt lat="44.07084" lon="7.02819">
        <ele>1752.4</ele>
        <time>2012-12-28T09:23:49Z</time>
      </trkpt>
      <trkpt lat="44.07083" lon="7.02818">
        <ele>1752.8</ele>
        <time>2012-12-28T09:23:50Z</time>
      </trkpt>
      <trkpt lat="44.07083" lon="7.02818">
        <ele>1752.8</ele>
        <time>2012-12-28T09:23:51Z</time>
      </trkpt>
      <trkpt lat="44.07082" lon="7.02818">
        <ele>1753.1</ele>
        <time>2012-12-28T09:23:52Z</time>
      </trkpt>
      <trkpt lat="44.07082" lon="7.02818">
        <ele>1753.1</ele>
        <time>2012-12-28T09:23:53Z</time>
      </trkpt>
      <trkpt lat="44.07082" lon="7.02818">
        <ele>1753.1</ele>
        <time>2012-12-28T09:23:54Z</time>
      </trkpt>
      <trkpt lat="44.07082" lon="7.02818">
        <ele>1753.1</ele>
        <time>2012-12-28T09:23:55Z</time>
      </trkpt>
      <trkpt lat="44.07082" lon="7.02818">
        <ele>1753.3</ele>
        <time>2012-12-28T09:23:56Z</time>
      </trkpt>
      <trkpt lat="44.07082" lon="7.02818">
        <ele>1753.3</ele>
        <time>2012-12-28T09:23:57Z</time>
      </trkpt>
      <trkpt lat="44.07081" lon="7.02818">
        <ele>1753.8</ele>
        <time>2012-12-28T09:23:58Z</time>
      </trkpt>
      <trkpt lat="44.07081" lon="7.02818">
        <ele>1753.8</ele>
        <time>2012-12-28T09:23:59Z</time>
      </trkpt>
      <trkpt lat="44.07081" lon="7.02818">
        <ele>1753.8</ele>
        <time>2012-12-28T09:24:00Z</time>
      </trkpt>
      <trkpt lat="44.0708" lon="7.02817">
        <ele>1754.1</ele>
        <time>2012-12-28T09:24:01Z</time>
      </trkpt>
      <trkpt lat="44.0708" lon="7.02817">
        <ele>1754.6</ele>
        <time>2012-12-28T09:24:02Z</time>
      </trkpt>
      <trkpt lat="44.07079" lon="7.02816">
        <ele>1754.8</ele>
        <time>2012-12-28T09:24:03Z</time>
      </trkpt>
      <trkpt lat="44.07079" lon="7.02816">
        <ele>1754.8</ele>
        <time>2012-12-28T09:24:04Z</time>
      </trkpt>
      <trkpt lat="44.07078" lon="7.02816">
        <ele>1755</ele>
        <time>2012-12-28T09:24:05Z</time>
      </trkpt>
      <trkpt lat="44.07078" lon="7.02816">
        <ele>1755</ele>
        <time>2012-12-28T09:24:06Z</time>
      </trkpt>
      <trkpt lat="44.07078" lon="7.02816">
        <ele>1755</ele>
        <time>2012-12-28T09:24:07Z</time>
      </trkpt>
      <trkpt lat="44.07078" lon="7.02816">
        <ele>1755.2</ele>
        <time>2012-12-28T09:24:08Z</time>
      </trkpt>
      <trkpt lat="44.07078" lon="7.02816">
        <ele>1755.2</ele>
        <time>2012-12-28T09:24:09Z</time>
      </trkpt>
      <trkpt lat="44.07077" lon="7.02816">
        <ele>1755.8</ele>
        <time>2012-12-28T09:24:10Z</time>
      </trkpt>
      <trkpt lat="44.07077" lon="7.02816">
        <ele>1755.8</ele>
        <time>2012-12-28T09:24:11Z</time>
      </trkpt>
      <trkpt lat="44.07077" lon="7.02816">
        <ele>1755.8</ele>
        <time>2012-12-28T09:24:12Z</time>
      </trkpt>
      <trkpt lat="44.07076" lon="7.02815">
        <ele>1756.6</ele>
        <time>2012-12-28T09:24:13Z</time>
      </trkpt>
      <trkpt lat="44.07075" lon="7.02815">
        <ele>1757.3</ele>
        <time>2012-12-28T09:24:17Z</time>
      </trkpt>
      <trkpt lat="44.07075" lon="7.02815">
        <ele>1757.3</ele>
        <time>2012-12-28T09:24:21Z</time>
      </trkpt>
      <trkpt lat="44.07074" lon="7.02814">
        <ele>1757.6</ele>
        <time>2012-12-28T09:24:22Z</time>
      </trkpt>
      <trkpt lat="44.07072" lon="7.02813">
        <ele>1757.7</ele>
        <time>2012-12-28T09:24:23Z</time>
      </trkpt>
      <trkpt lat="44.07071" lon="7.02813">
        <ele>1757.8</ele>
        <time>2012-12-28T09:24:24Z</time>
      </trkpt>
      <trkpt lat="44.07065" lon="7.02809">
        <ele>1760.3</ele>
        <time>2012-12-28T09:24:42Z</time>
      </trkpt>
      <trkpt lat="44.07064" lon="7.02808">
        <ele>1760.6</ele>
        <time>2012-12-28T09:24:43Z</time>
      </trkpt>
      <trkpt lat="44.07063" lon="7.02807">
        <ele>1760.9</ele>
        <time>2012-12-28T09:24:44Z</time>
      </trkpt>
      <trkpt lat="44.07063" lon="7.02807">
        <ele>1760.9</ele>
        <time>2012-12-28T09:24:45Z</time>
      </trkpt>
      <trkpt lat="44.07063" lon="7.02807">
        <ele>1760.9</ele>
        <time>2012-12-28T09:24:46Z</time>
      </trkpt>
      <trkpt lat="44.07063" lon="7.02807">
        <ele>1760.9</ele>
        <time>2012-12-28T09:24:47Z</time>
      </trkpt>
      <trkpt lat="44.07062" lon="7.02806">
        <ele>1761</ele>
        <time>2012-12-28T09:24:48Z</time>
      </trkpt>
      <trkpt lat="44.07062" lon="7.02806">
        <ele>1761</ele>
        <time>2012-12-28T09:24:49Z</time>
      </trkpt>
      <trkpt lat="44.07062" lon="7.02806">
        <ele>1761</ele>
        <time>2012-12-28T09:24:50Z</time>
      </trkpt>
      <trkpt lat="44.07061" lon="7.02805">
        <ele>1761.3</ele>
        <time>2012-12-28T09:24:51Z</time>
      </trkpt>
      <trkpt lat="44.07061" lon="7.02805">
        <ele>1761.3</ele>
        <time>2012-12-28T09:24:52Z</time>
      </trkpt>
      <trkpt lat="44.07061" lon="7.02805">
        <ele>1761.3</ele>
        <time>2012-12-28T09:24:53Z</time>
      </trkpt>
      <trkpt lat="44.07061" lon="7.02805">
        <ele>1761.3</ele>
        <time>2012-12-28T09:24:54Z</time>
      </trkpt>
      <trkpt lat="44.07061" lon="7.02805">
        <ele>1761.5</ele>
        <time>2012-12-28T09:24:55Z</time>
      </trkpt>
      <trkpt lat="44.07057" lon="7.028">
        <ele>1764.5</ele>
        <time>2012-12-28T09:25:18Z</time>
      </trkpt>
      <trkpt lat="44.07056" lon="7.02799">
        <ele>1764.9</ele>
        <time>2012-12-28T09:25:19Z</time>
      </trkpt>
      <trkpt lat="44.07056" lon="7.02799">
        <ele>1764.9</ele>
        <time>2012-12-28T09:25:20Z</time>
      </trkpt>
      <trkpt lat="44.07056" lon="7.02799">
        <ele>1764.9</ele>
        <time>2012-12-28T09:25:21Z</time>
      </trkpt>
      <trkpt lat="44.07055" lon="7.02799">
        <ele>1765.4</ele>
        <time>2012-12-28T09:25:22Z</time>
      </trkpt>
      <trkpt lat="44.07055" lon="7.02799">
        <ele>1765.5</ele>
        <time>2012-12-28T09:25:23Z</time>
      </trkpt>
      <trkpt lat="44.07055" lon="7.02799">
        <ele>1765.5</ele>
        <time>2012-12-28T09:25:24Z</time>
      </trkpt>
      <trkpt lat="44.07054" lon="7.02798">
        <ele>1765.9</ele>
        <time>2012-12-28T09:25:25Z</time>
      </trkpt>
      <trkpt lat="44.07054" lon="7.02798">
        <ele>1765.9</ele>
        <time>2012-12-28T09:25:26Z</time>
      </trkpt>
      <trkpt lat="44.07054" lon="7.02798">
        <ele>1765.9</ele>
        <time>2012-12-28T09:25:27Z</time>
      </trkpt>
      <trkpt lat="44.07053" lon="7.02798">
        <ele>1766.3</ele>
        <time>2012-12-28T09:25:28Z</time>
      </trkpt>
      <trkpt lat="44.07053" lon="7.02798">
        <ele>1766.3</ele>
        <time>2012-12-28T09:25:29Z</time>
      </trkpt>
      <trkpt lat="44.07053" lon="7.02798">
        <ele>1766.3</ele>
        <time>2012-12-28T09:25:30Z</time>
      </trkpt>
      <trkpt lat="44.07053" lon="7.02797">
        <ele>1766.8</ele>
        <time>2012-12-28T09:25:31Z</time>
      </trkpt>
      <trkpt lat="44.07053" lon="7.02797">
        <ele>1766.8</ele>
        <time>2012-12-28T09:25:32Z</time>
      </trkpt>
      <trkpt lat="44.07052" lon="7.02797">
        <ele>1767.1</ele>
        <time>2012-12-28T09:25:33Z</time>
      </trkpt>
      <trkpt lat="44.07052" lon="7.02797">
        <ele>1767.1</ele>
        <time>2012-12-28T09:25:34Z</time>
      </trkpt>
      <trkpt lat="44.07052" lon="7.02796">
        <ele>1767.3</ele>
        <time>2012-12-28T09:25:35Z</time>
      </trkpt>
      <trkpt lat="44.07051" lon="7.02796">
        <ele>1767.6</ele>
        <time>2012-12-28T09:25:36Z</time>
      </trkpt>
      <trkpt lat="44.07051" lon="7.02796">
        <ele>1767.6</ele>
        <time>2012-12-28T09:25:37Z</time>
      </trkpt>
      <trkpt lat="44.0705" lon="7.02795">
        <ele>1767.5</ele>
        <time>2012-12-28T09:25:38Z</time>
      </trkpt>
      <trkpt lat="44.0705" lon="7.02795">
        <ele>1767.9</ele>
        <time>2012-12-28T09:25:39Z</time>
      </trkpt>
      <trkpt lat="44.07049" lon="7.02794">
        <ele>1767.4</ele>
        <time>2012-12-28T09:25:40Z</time>
      </trkpt>
      <trkpt lat="44.07049" lon="7.02794">
        <ele>1767.4</ele>
        <time>2012-12-28T09:25:41Z</time>
      </trkpt>
      <trkpt lat="44.07049" lon="7.02793">
        <ele>1767.9</ele>
        <time>2012-12-28T09:25:42Z</time>
      </trkpt>
      <trkpt lat="44.07049" lon="7.02793">
        <ele>1767.9</ele>
        <time>2012-12-28T09:25:43Z</time>
      </trkpt>
      <trkpt lat="44.07049" lon="7.02792">
        <ele>1768.4</ele>
        <time>2012-12-28T09:25:44Z</time>
      </trkpt>
      <trkpt lat="44.07048" lon="7.02792">
        <ele>1769.3</ele>
        <time>2012-12-28T09:25:45Z</time>
      </trkpt>
      <trkpt lat="44.07047" lon="7.0279">
        <ele>1769.2</ele>
        <time>2012-12-28T09:25:46Z</time>
      </trkpt>
      <trkpt lat="44.07047" lon="7.0279">
        <ele>1769.2</ele>
        <time>2012-12-28T09:25:47Z</time>
      </trkpt>
      <trkpt lat="44.07047" lon="7.0279">
        <ele>1769.2</ele>
        <time>2012-12-28T09:25:48Z</time>
      </trkpt>
      <trkpt lat="44.07046" lon="7.0279">
        <ele>1769.1</ele>
        <time>2012-12-28T09:25:49Z</time>
      </trkpt>
      <trkpt lat="44.07046" lon="7.0279">
        <ele>1769.1</ele>
        <time>2012-12-28T09:25:50Z</time>
      </trkpt>
      <trkpt lat="44.07046" lon="7.0279">
        <ele>1769</ele>
        <time>2012-12-28T09:25:51Z</time>
      </trkpt>
      <trkpt lat="44.07046" lon="7.0279">
        <ele>1769</ele>
        <time>2012-12-28T09:25:52Z</time>
      </trkpt>
      <trkpt lat="44.07045" lon="7.02789">
        <ele>1769.7</ele>
        <time>2012-12-28T09:25:53Z</time>
      </trkpt>
      <trkpt lat="44.07045" lon="7.02789">
        <ele>1769.7</ele>
        <time>2012-12-28T09:25:54Z</time>
      </trkpt>
      <trkpt lat="44.07045" lon="7.02789">
        <ele>1769.7</ele>
        <time>2012-12-28T09:25:55Z</time>
      </trkpt>
      <trkpt lat="44.07044" lon="7.02789">
        <ele>1769.7</ele>
        <time>2012-12-28T09:25:56Z</time>
      </trkpt>
      <trkpt lat="44.07044" lon="7.02789">
        <ele>1769.7</ele>
        <time>2012-12-28T09:25:57Z</time>
      </trkpt>
      <trkpt lat="44.07044" lon="7.02789">
        <ele>1769.7</ele>
        <time>2012-12-28T09:25:58Z</time>
      </trkpt>
      <trkpt lat="44.07043" lon="7.02788">
        <ele>1770.2</ele>
        <time>2012-12-28T09:25:59Z</time>
      </trkpt>
      <trkpt lat="44.07043" lon="7.02788">
        <ele>1770.2</ele>
        <time>2012-12-28T09:26:00Z</time>
      </trkpt>
      <trkpt lat="44.07043" lon="7.02788">
        <ele>1770.2</ele>
        <time>2012-12-28T09:26:01Z</time>
      </trkpt>
      <trkpt lat="44.07043" lon="7.02788">
        <ele>1770.2</ele>
        <time>2012-12-28T09:26:02Z</time>
      </trkpt>
      <trkpt lat="44.07043" lon="7.02788">
        <ele>1770.2</ele>
        <time>2012-12-28T09:26:03Z</time>
      </trkpt>
      <trkpt lat="44.07043" lon="7.02788">
        <ele>1770.2</ele>
        <time>2012-12-28T09:26:04Z</time>
      </trkpt>
      <trkpt lat="44.07043" lon="7.02788">
        <ele>1770.2</ele>
        <time>2012-12-28T09:26:05Z</time>
      </trkpt>
      <trkpt lat="44.07043" lon="7.02788">
        <ele>1770.2</ele>
        <time>2012-12-28T09:26:06Z</time>
      </trkpt>
      <trkpt lat="44.07042" lon="7.02788">
        <ele>1770.5</ele>
        <time>2012-12-28T09:26:07Z</time>
      </trkpt>
      <trkpt lat="44.07042" lon="7.02788">
        <ele>1770.5</ele>
        <time>2012-12-28T09:26:08Z</time>
      </trkpt>
      <trkpt lat="44.07042" lon="7.02788">
        <ele>1770.5</ele>
        <time>2012-12-28T09:26:09Z</time>
      </trkpt>
      <trkpt lat="44.07041" lon="7.02788">
        <ele>1770.8</ele>
        <time>2012-12-28T09:26:10Z</time>
      </trkpt>
      <trkpt lat="44.07041" lon="7.02788">
        <ele>1770.8</ele>
        <time>2012-12-28T09:26:11Z</time>
      </trkpt>
      <trkpt lat="44.07041" lon="7.02788">
        <ele>1770.8</ele>
        <time>2012-12-28T09:26:12Z</time>
      </trkpt>
      <trkpt lat="44.07041" lon="7.02788">
        <ele>1770.8</ele>
        <time>2012-12-28T09:26:13Z</time>
      </trkpt>
      <trkpt lat="44.07041" lon="7.02787">
        <ele>1771</ele>
        <time>2012-12-28T09:26:14Z</time>
      </trkpt>
      <trkpt lat="44.07041" lon="7.02787">
        <ele>1771</ele>
        <time>2012-12-28T09:26:15Z</time>
      </trkpt>
      <trkpt lat="44.07041" lon="7.02787">
        <ele>1771</ele>
        <time>2012-12-28T09:26:16Z</time>
      </trkpt>
      <trkpt lat="44.0704" lon="7.02787">
        <ele>1771.4</ele>
        <time>2012-12-28T09:26:17Z</time>
      </trkpt>
      <trkpt lat="44.07039" lon="7.02786">
        <ele>1771.9</ele>
        <time>2012-12-28T09:26:18Z</time>
      </trkpt>
      <trkpt lat="44.07039" lon="7.02786">
        <ele>1771.9</ele>
        <time>2012-12-28T09:26:19Z</time>
      </trkpt>
      <trkpt lat="44.07039" lon="7.02786">
        <ele>1771.9</ele>
        <time>2012-12-28T09:26:20Z</time>
      </trkpt>
      <trkpt lat="44.07039" lon="7.02786">
        <ele>1771.9</ele>
        <time>2012-12-28T09:26:21Z</time>
      </trkpt>
      <trkpt lat="44.07039" lon="7.02786">
        <ele>1772</ele>
        <time>2012-12-28T09:26:22Z</time>
      </trkpt>
      <trkpt lat="44.07038" lon="7.02786">
        <ele>1772.4</ele>
        <time>2012-12-28T09:26:23Z</time>
      </trkpt>
      <trkpt lat="44.07038" lon="7.02786">
        <ele>1772.4</ele>
        <time>2012-12-28T09:26:24Z</time>
      </trkpt>
      <trkpt lat="44.07038" lon="7.02786">
        <ele>1772.4</ele>
        <time>2012-12-28T09:26:25Z</time>
      </trkpt>
      <trkpt lat="44.07038" lon="7.02786">
        <ele>1772.4</ele>
        <time>2012-12-28T09:26:26Z</time>
      </trkpt>
      <trkpt lat="44.07038" lon="7.02785">
        <ele>1772.7</ele>
        <time>2012-12-28T09:26:27Z</time>
      </trkpt>
      <trkpt lat="44.07036" lon="7.02784">
        <ele>1773.5</ele>
        <time>2012-12-28T09:26:38Z</time>
      </trkpt>
      <trkpt lat="44.07035" lon="7.02784">
        <ele>1774.1</ele>
        <time>2012-12-28T09:26:39Z</time>
      </trkpt>
      <trkpt lat="44.07033" lon="7.02783">
        <ele>1774.5</ele>
        <time>2012-12-28T09:26:40Z</time>
      </trkpt>
      <trkpt lat="44.07032" lon="7.02782">
        <ele>1774.7</ele>
        <time>2012-12-28T09:26:41Z</time>
      </trkpt>
      <trkpt lat="44.07031" lon="7.02782">
        <ele>1774.7</ele>
        <time>2012-12-28T09:26:42Z</time>
      </trkpt>
      <trkpt lat="44.0703" lon="7.02781">
        <ele>1774.5</ele>
        <time>2012-12-28T09:26:43Z</time>
      </trkpt>
      <trkpt lat="44.07029" lon="7.0278">
        <ele>1774.6</ele>
        <time>2012-12-28T09:26:44Z</time>
      </trkpt>
      <trkpt lat="44.07028" lon="7.0278">
        <ele>1774.5</ele>
        <time>2012-12-28T09:26:45Z</time>
      </trkpt>
      <trkpt lat="44.07027" lon="7.0278">
        <ele>1774.7</ele>
        <time>2012-12-28T09:26:46Z</time>
      </trkpt>
      <trkpt lat="44.07027" lon="7.0278">
        <ele>1774.7</ele>
        <time>2012-12-28T09:26:47Z</time>
      </trkpt>
      <trkpt lat="44.07026" lon="7.02779">
        <ele>1774.9</ele>
        <time>2012-12-28T09:26:48Z</time>
      </trkpt>
      <trkpt lat="44.07025" lon="7.02779">
        <ele>1775.2</ele>
        <time>2012-12-28T09:26:49Z</time>
      </trkpt>
      <trkpt lat="44.07024" lon="7.02779">
        <ele>1775.4</ele>
        <time>2012-12-28T09:26:50Z</time>
      </trkpt>
      <trkpt lat="44.07023" lon="7.02778">
        <ele>1775.7</ele>
        <time>2012-12-28T09:26:51Z</time>
      </trkpt>
      <trkpt lat="44.07022" lon="7.02778">
        <ele>1776.2</ele>
        <time>2012-12-28T09:26:52Z</time>
      </trkpt>
      <trkpt lat="44.07021" lon="7.02778">
        <ele>1776.9</ele>
        <time>2012-12-28T09:26:53Z</time>
      </trkpt>
      <trkpt lat="44.07021" lon="7.02778">
        <ele>1776.9</ele>
        <time>2012-12-28T09:26:54Z</time>
      </trkpt>
      <trkpt lat="44.07021" lon="7.02778">
        <ele>1776.9</ele>
        <time>2012-12-28T09:26:55Z</time>
      </trkpt>
      <trkpt lat="44.07021" lon="7.02778">
        <ele>1776.9</ele>
        <time>2012-12-28T09:26:56Z</time>
      </trkpt>
      <trkpt lat="44.07021" lon="7.02778">
        <ele>1776.9</ele>
        <time>2012-12-28T09:26:57Z</time>
      </trkpt>
      <trkpt lat="44.07021" lon="7.02778">
        <ele>1776.9</ele>
        <time>2012-12-28T09:26:58Z</time>
      </trkpt>
      <trkpt lat="44.07021" lon="7.02778">
        <ele>1776.9</ele>
        <time>2012-12-28T09:26:59Z</time>
      </trkpt>
      <trkpt lat="44.07021" lon="7.02778">
        <ele>1776.9</ele>
        <time>2012-12-28T09:27:00Z</time>
      </trkpt>
      <trkpt lat="44.07021" lon="7.02778">
        <ele>1776.9</ele>
        <time>2012-12-28T09:27:01Z</time>
      </trkpt>
      <trkpt lat="44.07021" lon="7.02778">
        <ele>1776.9</ele>
        <time>2012-12-28T09:27:02Z</time>
      </trkpt>
      <trkpt lat="44.07021" lon="7.02778">
        <ele>1776.9</ele>
        <time>2012-12-28T09:27:03Z</time>
      </trkpt>
      <trkpt lat="44.07021" lon="7.02778">
        <ele>1776.9</ele>
        <time>2012-12-28T09:27:04Z</time>
      </trkpt>
      <trkpt lat="44.07021" lon="7.02778">
        <ele>1776.9</ele>
        <time>2012-12-28T09:27:05Z</time>
      </trkpt>
      <trkpt lat="44.07021" lon="7.02778">
        <ele>1776.9</ele>
        <time>2012-12-28T09:27:06Z</time>
      </trkpt>
      <trkpt lat="44.07021" lon="7.02778">
        <ele>1776.9</ele>
        <time>2012-12-28T09:27:07Z</time>
      </trkpt>
      <trkpt lat="44.07021" lon="7.02778">
        <ele>1776.9</ele>
        <time>2012-12-28T09:27:08Z</time>
      </trkpt>
      <trkpt lat="44.07021" lon="7.02778">
        <ele>1776.9</ele>
        <time>2012-12-28T09:27:09Z</time>
      </trkpt>
      <trkpt lat="44.07021" lon="7.02778">
        <ele>1776.9</ele>
        <time>2012-12-28T09:27:10Z</time>
      </trkpt>
      <trkpt lat="44.0702" lon="7.02777">
        <ele>1777.3</ele>
        <time>2012-12-28T09:27:11Z</time>
      </trkpt>
      <trkpt lat="44.0702" lon="7.02777">
        <ele>1777.3</ele>
        <time>2012-12-28T09:27:12Z</time>
      </trkpt>
      <trkpt lat="44.07019" lon="7.02777">
        <ele>1777.5</ele>
        <time>2012-12-28T09:27:13Z</time>
      </trkpt>
      <trkpt lat="44.07019" lon="7.02777">
        <ele>1777.8</ele>
        <time>2012-12-28T09:27:14Z</time>
      </trkpt>
      <trkpt lat="44.07018" lon="7.02777">
        <ele>1777.9</ele>
        <time>2012-12-28T09:27:15Z</time>
      </trkpt>
      <trkpt lat="44.07018" lon="7.02777">
        <ele>1777.9</ele>
        <time>2012-12-28T09:27:16Z</time>
      </trkpt>
      <trkpt lat="44.07017" lon="7.02776">
        <ele>1778.1</ele>
        <time>2012-12-28T09:27:17Z</time>
      </trkpt>
      <trkpt lat="44.07017" lon="7.02776">
        <ele>1778.1</ele>
        <time>2012-12-28T09:27:18Z</time>
      </trkpt>
      <trkpt lat="44.07016" lon="7.02776">
        <ele>1778.4</ele>
        <time>2012-12-28T09:27:19Z</time>
      </trkpt>
      <trkpt lat="44.07015" lon="7.02775">
        <ele>1778.6</ele>
        <time>2012-12-28T09:27:20Z</time>
      </trkpt>
      <trkpt lat="44.07014" lon="7.02774">
        <ele>1779</ele>
        <time>2012-12-28T09:27:21Z</time>
      </trkpt>
      <trkpt lat="44.07014" lon="7.02774">
        <ele>1779</ele>
        <time>2012-12-28T09:27:22Z</time>
      </trkpt>
      <trkpt lat="44.07014" lon="7.02774">
        <ele>1779</ele>
        <time>2012-12-28T09:27:23Z</time>
      </trkpt>
      <trkpt lat="44.07014" lon="7.02774">
        <ele>1779</ele>
        <time>2012-12-28T09:27:24Z</time>
      </trkpt>
      <trkpt lat="44.07014" lon="7.02774">
        <ele>1779</ele>
        <time>2012-12-28T09:27:25Z</time>
      </trkpt>
      <trkpt lat="44.07014" lon="7.02774">
        <ele>1779</ele>
        <time>2012-12-28T09:27:26Z</time>
      </trkpt>
      <trkpt lat="44.07014" lon="7.02774">
        <ele>1779</ele>
        <time>2012-12-28T09:27:27Z</time>
      </trkpt>
      <trkpt lat="44.07014" lon="7.02774">
        <ele>1779.3</ele>
        <time>2012-12-28T09:27:28Z</time>
      </trkpt>
      <trkpt lat="44.07014" lon="7.02774">
        <ele>1779.3</ele>
        <time>2012-12-28T09:27:29Z</time>
      </trkpt>
      <trkpt lat="44.07014" lon="7.02774">
        <ele>1779.3</ele>
        <time>2012-12-28T09:27:30Z</time>
      </trkpt>
      <trkpt lat="44.07013" lon="7.02774">
        <ele>1779.9</ele>
        <time>2012-12-28T09:27:31Z</time>
      </trkpt>
      <trkpt lat="44.07013" lon="7.02774">
        <ele>1779.9</ele>
        <time>2012-12-28T09:27:32Z</time>
      </trkpt>
      <trkpt lat="44.07013" lon="7.02774">
        <ele>1779.9</ele>
        <time>2012-12-28T09:27:33Z</time>
      </trkpt>
      <trkpt lat="44.07013" lon="7.02774">
        <ele>1779.9</ele>
        <time>2012-12-28T09:27:34Z</time>
      </trkpt>
      <trkpt lat="44.07012" lon="7.02774">
        <ele>1780.2</ele>
        <time>2012-12-28T09:27:35Z</time>
      </trkpt>
      <trkpt lat="44.07012" lon="7.02774">
        <ele>1780.2</ele>
        <time>2012-12-28T09:27:36Z</time>
      </trkpt>
      <trkpt lat="44.07011" lon="7.02773">
        <ele>1780.6</ele>
        <time>2012-12-28T09:27:37Z</time>
      </trkpt>
      <trkpt lat="44.07011" lon="7.02773">
        <ele>1780.6</ele>
        <time>2012-12-28T09:27:38Z</time>
      </trkpt>
      <trkpt lat="44.07011" lon="7.02773">
        <ele>1780.6</ele>
        <time>2012-12-28T09:27:39Z</time>
      </trkpt>
      <trkpt lat="44.0701" lon="7.02773">
        <ele>1780.8</ele>
        <time>2012-12-28T09:27:40Z</time>
      </trkpt>
      <trkpt lat="44.0701" lon="7.02773">
        <ele>1780.8</ele>
        <time>2012-12-28T09:27:41Z</time>
      </trkpt>
      <trkpt lat="44.0701" lon="7.02773">
        <ele>1780.8</ele>
        <time>2012-12-28T09:27:42Z</time>
      </trkpt>
      <trkpt lat="44.07009" lon="7.02773">
        <ele>1781.2</ele>
        <time>2012-12-28T09:27:43Z</time>
      </trkpt>
      <trkpt lat="44.07009" lon="7.02773">
        <ele>1781.2</ele>
        <time>2012-12-28T09:27:44Z</time>
      </trkpt>
      <trkpt lat="44.07008" lon="7.02773">
        <ele>1781.9</ele>
        <time>2012-12-28T09:27:45Z</time>
      </trkpt>
      <trkpt lat="44.07008" lon="7.02772">
        <ele>1782.4</ele>
        <time>2012-12-28T09:27:46Z</time>
      </trkpt>
      <trkpt lat="44.07007" lon="7.02772">
        <ele>1783.5</ele>
        <time>2012-12-28T09:27:47Z</time>
      </trkpt>
      <trkpt lat="44.07006" lon="7.02771">
        <ele>1784.1</ele>
        <time>2012-12-28T09:27:48Z</time>
      </trkpt>
      <trkpt lat="44.07005" lon="7.0277">
        <ele>1784.5</ele>
        <time>2012-12-28T09:27:49Z</time>
      </trkpt>
      <trkpt lat="44.07004" lon="7.0277">
        <ele>1785.1</ele>
        <time>2012-12-28T09:27:50Z</time>
      </trkpt>
      <trkpt lat="44.07003" lon="7.02769">
        <ele>1785.6</ele>
        <time>2012-12-28T09:27:51Z</time>
      </trkpt>
      <trkpt lat="44.07003" lon="7.02769">
        <ele>1785.6</ele>
        <time>2012-12-28T09:27:52Z</time>
      </trkpt>
      <trkpt lat="44.07002" lon="7.02769">
        <ele>1785.8</ele>
        <time>2012-12-28T09:27:53Z</time>
      </trkpt>
      <trkpt lat="44.07002" lon="7.02769">
        <ele>1785.8</ele>
        <time>2012-12-28T09:27:54Z</time>
      </trkpt>
      <trkpt lat="44.07002" lon="7.02769">
        <ele>1785.9</ele>
        <time>2012-12-28T09:27:55Z</time>
      </trkpt>
      <trkpt lat="44.07002" lon="7.02769">
        <ele>1785.9</ele>
        <time>2012-12-28T09:27:56Z</time>
      </trkpt>
      <trkpt lat="44.07001" lon="7.02769">
        <ele>1786.1</ele>
        <time>2012-12-28T09:27:57Z</time>
      </trkpt>
      <trkpt lat="44.07001" lon="7.02769">
        <ele>1786.1</ele>
        <time>2012-12-28T09:27:58Z</time>
      </trkpt>
      <trkpt lat="44.07001" lon="7.02769">
        <ele>1786</ele>
        <time>2012-12-28T09:27:59Z</time>
      </trkpt>
      <trkpt lat="44.07" lon="7.02768">
        <ele>1785.7</ele>
        <time>2012-12-28T09:28:00Z</time>
      </trkpt>
      <trkpt lat="44.07" lon="7.02768">
        <ele>1785.7</ele>
        <time>2012-12-28T09:28:01Z</time>
      </trkpt>
      <trkpt lat="44.06999" lon="7.02768">
        <ele>1785.9</ele>
        <time>2012-12-28T09:28:02Z</time>
      </trkpt>
      <trkpt lat="44.06999" lon="7.02768">
        <ele>1785.9</ele>
        <time>2012-12-28T09:28:03Z</time>
      </trkpt>
      <trkpt lat="44.06999" lon="7.02768">
        <ele>1785.9</ele>
        <time>2012-12-28T09:28:04Z</time>
      </trkpt>
      <trkpt lat="44.06998" lon="7.02768">
        <ele>1786.4</ele>
        <time>2012-12-28T09:28:05Z</time>
      </trkpt>
      <trkpt lat="44.06998" lon="7.02768">
        <ele>1786.4</ele>
        <time>2012-12-28T09:28:06Z</time>
      </trkpt>
      <trkpt lat="44.06998" lon="7.02768">
        <ele>1786.4</ele>
        <time>2012-12-28T09:28:07Z</time>
      </trkpt>
      <trkpt lat="44.06998" lon="7.02768">
        <ele>1786.4</ele>
        <time>2012-12-28T09:28:08Z</time>
      </trkpt>
      <trkpt lat="44.06997" lon="7.02768">
        <ele>1786.3</ele>
        <time>2012-12-28T09:28:09Z</time>
      </trkpt>
      <trkpt lat="44.06997" lon="7.02768">
        <ele>1786.3</ele>
        <time>2012-12-28T09:28:10Z</time>
      </trkpt>
      <trkpt lat="44.06997" lon="7.02768">
        <ele>1786.3</ele>
        <time>2012-12-28T09:28:11Z</time>
      </trkpt>
      <trkpt lat="44.06997" lon="7.02767">
        <ele>1786.2</ele>
        <time>2012-12-28T09:28:12Z</time>
      </trkpt>
      <trkpt lat="44.06996" lon="7.02767">
        <ele>1786.6</ele>
        <time>2012-12-28T09:28:13Z</time>
      </trkpt>
      <trkpt lat="44.06996" lon="7.02767">
        <ele>1786.6</ele>
        <time>2012-12-28T09:28:14Z</time>
      </trkpt>
      <trkpt lat="44.06995" lon="7.02767">
        <ele>1787</ele>
        <time>2012-12-28T09:28:15Z</time>
      </trkpt>
      <trkpt lat="44.06994" lon="7.02766">
        <ele>1787.2</ele>
        <time>2012-12-28T09:28:16Z</time>
      </trkpt>
      <trkpt lat="44.06994" lon="7.02766">
        <ele>1787.2</ele>
        <time>2012-12-28T09:28:17Z</time>
      </trkpt>
      <trkpt lat="44.06994" lon="7.02766">
        <ele>1787.5</ele>
        <time>2012-12-28T09:28:18Z</time>
      </trkpt>
      <trkpt lat="44.06994" lon="7.02766">
        <ele>1787.5</ele>
        <time>2012-12-28T09:28:19Z</time>
      </trkpt>
      <trkpt lat="44.06994" lon="7.02766">
        <ele>1787.5</ele>
        <time>2012-12-28T09:28:20Z</time>
      </trkpt>
      <trkpt lat="44.06993" lon="7.02766">
        <ele>1787.8</ele>
        <time>2012-12-28T09:28:21Z</time>
      </trkpt>
      <trkpt lat="44.06993" lon="7.02766">
        <ele>1787.8</ele>
        <time>2012-12-28T09:28:22Z</time>
      </trkpt>
      <trkpt lat="44.06993" lon="7.02766">
        <ele>1787.8</ele>
        <time>2012-12-28T09:28:23Z</time>
      </trkpt>
      <trkpt lat="44.06992" lon="7.02766">
        <ele>1787.9</ele>
        <time>2012-12-28T09:28:24Z</time>
      </trkpt>
      <trkpt lat="44.06992" lon="7.02766">
        <ele>1787.9</ele>
        <time>2012-12-28T09:28:25Z</time>
      </trkpt>
      <trkpt lat="44.06992" lon="7.02766">
        <ele>1787.9</ele>
        <time>2012-12-28T09:28:26Z</time>
      </trkpt>
      <trkpt lat="44.06992" lon="7.02766">
        <ele>1787.9</ele>
        <time>2012-12-28T09:28:27Z</time>
      </trkpt>
      <trkpt lat="44.06991" lon="7.02766">
        <ele>1788</ele>
        <time>2012-12-28T09:28:28Z</time>
      </trkpt>
      <trkpt lat="44.06991" lon="7.02766">
        <ele>1788</ele>
        <time>2012-12-28T09:28:29Z</time>
      </trkpt>
      <trkpt lat="44.06991" lon="7.02765">
        <ele>1788.4</ele>
        <time>2012-12-28T09:28:30Z</time>
      </trkpt>
      <trkpt lat="44.06991" lon="7.02765">
        <ele>1788.4</ele>
        <time>2012-12-28T09:28:31Z</time>
      </trkpt>
      <trkpt lat="44.06991" lon="7.02765">
        <ele>1788.4</ele>
        <time>2012-12-28T09:28:32Z</time>
      </trkpt>
      <trkpt lat="44.06991" lon="7.02765">
        <ele>1788.4</ele>
        <time>2012-12-28T09:28:33Z</time>
      </trkpt>
      <trkpt lat="44.0699" lon="7.02765">
        <ele>1788.6</ele>
        <time>2012-12-28T09:28:34Z</time>
      </trkpt>
      <trkpt lat="44.0699" lon="7.02765">
        <ele>1788.6</ele>
        <time>2012-12-28T09:28:35Z</time>
      </trkpt>
      <trkpt lat="44.0699" lon="7.02765">
        <ele>1788.6</ele>
        <time>2012-12-28T09:28:36Z</time>
      </trkpt>
      <trkpt lat="44.0699" lon="7.02765">
        <ele>1788.8</ele>
        <time>2012-12-28T09:28:37Z</time>
      </trkpt>
      <trkpt lat="44.0699" lon="7.02765">
        <ele>1788.8</ele>
        <time>2012-12-28T09:28:38Z</time>
      </trkpt>
      <trkpt lat="44.0699" lon="7.02765">
        <ele>1788.8</ele>
        <time>2012-12-28T09:28:39Z</time>
      </trkpt>
      <trkpt lat="44.0699" lon="7.02765">
        <ele>1788.8</ele>
        <time>2012-12-28T09:28:40Z</time>
      </trkpt>
      <trkpt lat="44.0699" lon="7.02765">
        <ele>1788.8</ele>
        <time>2012-12-28T09:28:41Z</time>
      </trkpt>
      <trkpt lat="44.06989" lon="7.02765">
        <ele>1789.1</ele>
        <time>2012-12-28T09:28:42Z</time>
      </trkpt>
      <trkpt lat="44.06989" lon="7.02765">
        <ele>1789.1</ele>
        <time>2012-12-28T09:28:43Z</time>
      </trkpt>
      <trkpt lat="44.06988" lon="7.02764">
        <ele>1789</ele>
        <time>2012-12-28T09:28:44Z</time>
      </trkpt>
      <trkpt lat="44.06988" lon="7.02764">
        <ele>1789</ele>
        <time>2012-12-28T09:28:45Z</time>
      </trkpt>
      <trkpt lat="44.06987" lon="7.02764">
        <ele>1789.3</ele>
        <time>2012-12-28T09:28:46Z</time>
      </trkpt>
      <trkpt lat="44.06987" lon="7.02764">
        <ele>1789.3</ele>
        <time>2012-12-28T09:28:47Z</time>
      </trkpt>
      <trkpt lat="44.06986" lon="7.02764">
        <ele>1789.7</ele>
        <time>2012-12-28T09:28:48Z</time>
      </trkpt>
      <trkpt lat="44.06986" lon="7.02764">
        <ele>1789.7</ele>
        <time>2012-12-28T09:28:49Z</time>
      </trkpt>
      <trkpt lat="44.06986" lon="7.02764">
        <ele>1789.7</ele>
        <time>2012-12-28T09:28:50Z</time>
      </trkpt>
      <trkpt lat="44.06985" lon="7.02763">
        <ele>1790</ele>
        <time>2012-12-28T09:28:51Z</time>
      </trkpt>
      <trkpt lat="44.06985" lon="7.02763">
        <ele>1790.3</ele>
        <time>2012-12-28T09:28:52Z</time>
      </trkpt>
      <trkpt lat="44.06985" lon="7.02763">
        <ele>1790.3</ele>
        <time>2012-12-28T09:28:53Z</time>
      </trkpt>
      <trkpt lat="44.06984" lon="7.02762">
        <ele>1790.4</ele>
        <time>2012-12-28T09:28:54Z</time>
      </trkpt>
      <trkpt lat="44.06984" lon="7.02762">
        <ele>1790.4</ele>
        <time>2012-12-28T09:28:55Z</time>
      </trkpt>
      <trkpt lat="44.06984" lon="7.02762">
        <ele>1790.4</ele>
        <time>2012-12-28T09:28:56Z</time>
      </trkpt>
      <trkpt lat="44.06984" lon="7.02762">
        <ele>1790.4</ele>
        <time>2012-12-28T09:28:57Z</time>
      </trkpt>
      <trkpt lat="44.06983" lon="7.02762">
        <ele>1790.5</ele>
        <time>2012-12-28T09:28:58Z</time>
      </trkpt>
      <trkpt lat="44.06983" lon="7.02762">
        <ele>1790.5</ele>
        <time>2012-12-28T09:28:59Z</time>
      </trkpt>
      <trkpt lat="44.06983" lon="7.02761">
        <ele>1790.9</ele>
        <time>2012-12-28T09:29:00Z</time>
      </trkpt>
      <trkpt lat="44.06983" lon="7.02761">
        <ele>1790.9</ele>
        <time>2012-12-28T09:29:01Z</time>
      </trkpt>
      <trkpt lat="44.06982" lon="7.02761">
        <ele>1791.4</ele>
        <time>2012-12-28T09:29:02Z</time>
      </trkpt>
      <trkpt lat="44.06982" lon="7.02761">
        <ele>1791.4</ele>
        <time>2012-12-28T09:29:03Z</time>
      </trkpt>
      <trkpt lat="44.06982" lon="7.02761">
        <ele>1791.4</ele>
        <time>2012-12-28T09:29:04Z</time>
      </trkpt>
      <trkpt lat="44.06981" lon="7.02761">
        <ele>1791.9</ele>
        <time>2012-12-28T09:29:05Z</time>
      </trkpt>
      <trkpt lat="44.0698" lon="7.02761">
        <ele>1792.5</ele>
        <time>2012-12-28T09:29:06Z</time>
      </trkpt>
      <trkpt lat="44.06979" lon="7.02761">
        <ele>1792.9</ele>
        <time>2012-12-28T09:29:07Z</time>
      </trkpt>
      <trkpt lat="44.06978" lon="7.0276">
        <ele>1793.5</ele>
        <time>2012-12-28T09:29:08Z</time>
      </trkpt>
      <trkpt lat="44.06978" lon="7.0276">
        <ele>1793.5</ele>
        <time>2012-12-28T09:29:09Z</time>
      </trkpt>
      <trkpt lat="44.06978" lon="7.0276">
        <ele>1793.5</ele>
        <time>2012-12-28T09:29:10Z</time>
      </trkpt>
      <trkpt lat="44.06977" lon="7.0276">
        <ele>1793.9</ele>
        <time>2012-12-28T09:29:11Z</time>
      </trkpt>
      <trkpt lat="44.06975" lon="7.02759">
        <ele>1794</ele>
        <time>2012-12-28T09:29:12Z</time>
      </trkpt>
      <trkpt lat="44.06975" lon="7.02759">
        <ele>1794</ele>
        <time>2012-12-28T09:29:13Z</time>
      </trkpt>
      <trkpt lat="44.06974" lon="7.02759">
        <ele>1794.6</ele>
        <time>2012-12-28T09:29:14Z</time>
      </trkpt>
      <trkpt lat="44.06974" lon="7.02759">
        <ele>1794.6</ele>
        <time>2012-12-28T09:29:15Z</time>
      </trkpt>
      <trkpt lat="44.06973" lon="7.02759">
        <ele>1795.4</ele>
        <time>2012-12-28T09:29:16Z</time>
      </trkpt>
      <trkpt lat="44.06973" lon="7.02759">
        <ele>1795.4</ele>
        <time>2012-12-28T09:29:17Z</time>
      </trkpt>
      <trkpt lat="44.06973" lon="7.02759">
        <ele>1795.4</ele>
        <time>2012-12-28T09:29:18Z</time>
      </trkpt>
      <trkpt lat="44.06973" lon="7.02759">
        <ele>1795.3</ele>
        <time>2012-12-28T09:29:19Z</time>
      </trkpt>
      <trkpt lat="44.06973" lon="7.02759">
        <ele>1795.3</ele>
        <time>2012-12-28T09:29:20Z</time>
      </trkpt>
      <trkpt lat="44.06972" lon="7.02758">
        <ele>1795.7</ele>
        <time>2012-12-28T09:29:21Z</time>
      </trkpt>
      <trkpt lat="44.06972" lon="7.02758">
        <ele>1795.7</ele>
        <time>2012-12-28T09:29:22Z</time>
      </trkpt>
      <trkpt lat="44.06972" lon="7.02758">
        <ele>1795.7</ele>
        <time>2012-12-28T09:29:23Z</time>
      </trkpt>
      <trkpt lat="44.06971" lon="7.02758">
        <ele>1796.1</ele>
        <time>2012-12-28T09:29:24Z</time>
      </trkpt>
      <trkpt lat="44.06971" lon="7.02758">
        <ele>1796.1</ele>
        <time>2012-12-28T09:29:25Z</time>
      </trkpt>
      <trkpt lat="44.0697" lon="7.02758">
        <ele>1796.4</ele>
        <time>2012-12-28T09:29:26Z</time>
      </trkpt>
      <trkpt lat="44.06969" lon="7.02758">
        <ele>1796.2</ele>
        <time>2012-12-28T09:29:27Z</time>
      </trkpt>
      <trkpt lat="44.06969" lon="7.02758">
        <ele>1796.2</ele>
        <time>2012-12-28T09:29:28Z</time>
      </trkpt>
      <trkpt lat="44.06968" lon="7.02757">
        <ele>1796.5</ele>
        <time>2012-12-28T09:29:29Z</time>
      </trkpt>
      <trkpt lat="44.06968" lon="7.02757">
        <ele>1796.5</ele>
        <time>2012-12-28T09:29:30Z</time>
      </trkpt>
      <trkpt lat="44.06968" lon="7.02757">
        <ele>1796.5</ele>
        <time>2012-12-28T09:29:31Z</time>
      </trkpt>
      <trkpt lat="44.06968" lon="7.02757">
        <ele>1796.5</ele>
        <time>2012-12-28T09:29:32Z</time>
      </trkpt>
      <trkpt lat="44.06968" lon="7.02757">
        <ele>1796.5</ele>
        <time>2012-12-28T09:29:33Z</time>
      </trkpt>
      <trkpt lat="44.06968" lon="7.02757">
        <ele>1796.5</ele>
        <time>2012-12-28T09:29:34Z</time>
      </trkpt>
      <trkpt lat="44.06968" lon="7.02757">
        <ele>1796.5</ele>
        <time>2012-12-28T09:29:35Z</time>
      </trkpt>
      <trkpt lat="44.06968" lon="7.02757">
        <ele>1796.5</ele>
        <time>2012-12-28T09:29:36Z</time>
      </trkpt>
      <trkpt lat="44.06967" lon="7.02757">
        <ele>1796.4</ele>
        <time>2012-12-28T09:29:37Z</time>
      </trkpt>
      <trkpt lat="44.06967" lon="7.02757">
        <ele>1796.4</ele>
        <time>2012-12-28T09:29:38Z</time>
      </trkpt>
      <trkpt lat="44.06965" lon="7.02757">
        <ele>1797</ele>
        <time>2012-12-28T09:29:39Z</time>
      </trkpt>
      <trkpt lat="44.06965" lon="7.02757">
        <ele>1797</ele>
        <time>2012-12-28T09:29:40Z</time>
      </trkpt>
      <trkpt lat="44.06965" lon="7.02757">
        <ele>1797</ele>
        <time>2012-12-28T09:29:41Z</time>
      </trkpt>
      <trkpt lat="44.06965" lon="7.02757">
        <ele>1797.4</ele>
        <time>2012-12-28T09:29:42Z</time>
      </trkpt>
      <trkpt lat="44.06965" lon="7.02757">
        <ele>1797.4</ele>
        <time>2012-12-28T09:29:43Z</time>
      </trkpt>
      <trkpt lat="44.06964" lon="7.02757">
        <ele>1797.7</ele>
        <time>2012-12-28T09:29:44Z</time>
      </trkpt>
      <trkpt lat="44.06964" lon="7.02757">
        <ele>1797.7</ele>
        <time>2012-12-28T09:29:45Z</time>
      </trkpt>
      <trkpt lat="44.06964" lon="7.02757">
        <ele>1797.7</ele>
        <time>2012-12-28T09:29:46Z</time>
      </trkpt>
      <trkpt lat="44.06964" lon="7.02757">
        <ele>1797.7</ele>
        <time>2012-12-28T09:29:47Z</time>
      </trkpt>
      <trkpt lat="44.06964" lon="7.02757">
        <ele>1797.7</ele>
        <time>2012-12-28T09:29:48Z</time>
      </trkpt>
      <trkpt lat="44.06963" lon="7.02757">
        <ele>1798</ele>
        <time>2012-12-28T09:29:49Z</time>
      </trkpt>
      <trkpt lat="44.06963" lon="7.02757">
        <ele>1798</ele>
        <time>2012-12-28T09:29:50Z</time>
      </trkpt>
      <trkpt lat="44.06963" lon="7.02757">
        <ele>1798</ele>
        <time>2012-12-28T09:29:51Z</time>
      </trkpt>
      <trkpt lat="44.06963" lon="7.02757">
        <ele>1798</ele>
        <time>2012-12-28T09:29:52Z</time>
      </trkpt>
      <trkpt lat="44.06962" lon="7.02756">
        <ele>1798.4</ele>
        <time>2012-12-28T09:29:53Z</time>
      </trkpt>
      <trkpt lat="44.06962" lon="7.02756">
        <ele>1798.4</ele>
        <time>2012-12-28T09:29:54Z</time>
      </trkpt>
      <trkpt lat="44.06961" lon="7.02756">
        <ele>1798.8</ele>
        <time>2012-12-28T09:29:55Z</time>
      </trkpt>
      <trkpt lat="44.06961" lon="7.02756">
        <ele>1798.8</ele>
        <time>2012-12-28T09:29:56Z</time>
      </trkpt>
      <trkpt lat="44.06961" lon="7.02755">
        <ele>1798.8</ele>
        <time>2012-12-28T09:29:57Z</time>
      </trkpt>
      <trkpt lat="44.0696" lon="7.02755">
        <ele>1799.1</ele>
        <time>2012-12-28T09:29:58Z</time>
      </trkpt>
      <trkpt lat="44.0696" lon="7.02755">
        <ele>1799.1</ele>
        <time>2012-12-28T09:29:59Z</time>
      </trkpt>
      <trkpt lat="44.0696" lon="7.02755">
        <ele>1799.1</ele>
        <time>2012-12-28T09:30:00Z</time>
      </trkpt>
      <trkpt lat="44.0696" lon="7.02755">
        <ele>1799.1</ele>
        <time>2012-12-28T09:30:01Z</time>
      </trkpt>
      <trkpt lat="44.06959" lon="7.02754">
        <ele>1799.3</ele>
        <time>2012-12-28T09:30:02Z</time>
      </trkpt>
      <trkpt lat="44.06959" lon="7.02754">
        <ele>1799.3</ele>
        <time>2012-12-28T09:30:03Z</time>
      </trkpt>
      <trkpt lat="44.06959" lon="7.02754">
        <ele>1799.3</ele>
        <time>2012-12-28T09:30:04Z</time>
      </trkpt>
      <trkpt lat="44.06959" lon="7.02754">
        <ele>1799.3</ele>
        <time>2012-12-28T09:30:05Z</time>
      </trkpt>
      <trkpt lat="44.06958" lon="7.02754">
        <ele>1799.7</ele>
        <time>2012-12-28T09:30:06Z</time>
      </trkpt>
      <trkpt lat="44.06958" lon="7.02754">
        <ele>1799.7</ele>
        <time>2012-12-28T09:30:07Z</time>
      </trkpt>
      <trkpt lat="44.06958" lon="7.02754">
        <ele>1799.7</ele>
        <time>2012-12-28T09:30:08Z</time>
      </trkpt>
      <trkpt lat="44.06958" lon="7.02754">
        <ele>1799.7</ele>
        <time>2012-12-28T09:30:09Z</time>
      </trkpt>
      <trkpt lat="44.06958" lon="7.02754">
        <ele>1799.7</ele>
        <time>2012-12-28T09:30:10Z</time>
      </trkpt>
      <trkpt lat="44.06957" lon="7.02754">
        <ele>1800</ele>
        <time>2012-12-28T09:30:11Z</time>
      </trkpt>
      <trkpt lat="44.06957" lon="7.02754">
        <ele>1800</ele>
        <time>2012-12-28T09:30:12Z</time>
      </trkpt>
      <trkpt lat="44.06956" lon="7.02753">
        <ele>1799.9</ele>
        <time>2012-12-28T09:30:13Z</time>
      </trkpt>
      <trkpt lat="44.06956" lon="7.02753">
        <ele>1799.9</ele>
        <time>2012-12-28T09:30:14Z</time>
      </trkpt>
      <trkpt lat="44.06956" lon="7.02753">
        <ele>1799.9</ele>
        <time>2012-12-28T09:30:15Z</time>
      </trkpt>
      <trkpt lat="44.06956" lon="7.02753">
        <ele>1799.9</ele>
        <time>2012-12-28T09:30:16Z</time>
      </trkpt>
      <trkpt lat="44.06955" lon="7.02753">
        <ele>1800.3</ele>
        <time>2012-12-28T09:30:17Z</time>
      </trkpt>
      <trkpt lat="44.06955" lon="7.02753">
        <ele>1800.3</ele>
        <time>2012-12-28T09:30:18Z</time>
      </trkpt>
      <trkpt lat="44.06954" lon="7.02753">
        <ele>1800.3</ele>
        <time>2012-12-28T09:30:19Z</time>
      </trkpt>
      <trkpt lat="44.06953" lon="7.02752">
        <ele>1800.8</ele>
        <time>2012-12-28T09:30:20Z</time>
      </trkpt>
      <trkpt lat="44.06951" lon="7.02751">
        <ele>1801.1</ele>
        <time>2012-12-28T09:30:21Z</time>
      </trkpt>
      <trkpt lat="44.0695" lon="7.02751">
        <ele>1801.6</ele>
        <time>2012-12-28T09:30:22Z</time>
      </trkpt>
      <trkpt lat="44.06949" lon="7.02751">
        <ele>1802</ele>
        <time>2012-12-28T09:30:23Z</time>
      </trkpt>
      <trkpt lat="44.06949" lon="7.0275">
        <ele>1801.8</ele>
        <time>2012-12-28T09:30:24Z</time>
      </trkpt>
      <trkpt lat="44.06949" lon="7.0275">
        <ele>1801.8</ele>
        <time>2012-12-28T09:30:25Z</time>
      </trkpt>
      <trkpt lat="44.06948" lon="7.02749">
        <ele>1801.9</ele>
        <time>2012-12-28T09:30:26Z</time>
      </trkpt>
      <trkpt lat="44.06946" lon="7.02749">
        <ele>1802.1</ele>
        <time>2012-12-28T09:30:27Z</time>
      </trkpt>
      <trkpt lat="44.06946" lon="7.02749">
        <ele>1802.1</ele>
        <time>2012-12-28T09:30:28Z</time>
      </trkpt>
      <trkpt lat="44.06946" lon="7.02748">
        <ele>1802.5</ele>
        <time>2012-12-28T09:30:29Z</time>
      </trkpt>
      <trkpt lat="44.06945" lon="7.02748">
        <ele>1803.1</ele>
        <time>2012-12-28T09:30:30Z</time>
      </trkpt>
      <trkpt lat="44.06944" lon="7.02748">
        <ele>1803.5</ele>
        <time>2012-12-28T09:30:31Z</time>
      </trkpt>
      <trkpt lat="44.06944" lon="7.02748">
        <ele>1803.5</ele>
        <time>2012-12-28T09:30:32Z</time>
      </trkpt>
      <trkpt lat="44.06943" lon="7.02747">
        <ele>1803.8</ele>
        <time>2012-12-28T09:30:33Z</time>
      </trkpt>
      <trkpt lat="44.06942" lon="7.02747">
        <ele>1804.3</ele>
        <time>2012-12-28T09:30:34Z</time>
      </trkpt>
      <trkpt lat="44.06942" lon="7.02747">
        <ele>1804.3</ele>
        <time>2012-12-28T09:30:35Z</time>
      </trkpt>
      <trkpt lat="44.06942" lon="7.02747">
        <ele>1804.3</ele>
        <time>2012-12-28T09:30:36Z</time>
      </trkpt>
      <trkpt lat="44.06942" lon="7.02747">
        <ele>1804.3</ele>
        <time>2012-12-28T09:30:37Z</time>
      </trkpt>
      <trkpt lat="44.06941" lon="7.02747">
        <ele>1804.7</ele>
        <time>2012-12-28T09:30:38Z</time>
      </trkpt>
      <trkpt lat="44.0694" lon="7.02747">
        <ele>1804.9</ele>
        <time>2012-12-28T09:30:39Z</time>
      </trkpt>
      <trkpt lat="44.06939" lon="7.02746">
        <ele>1805.1</ele>
        <time>2012-12-28T09:30:40Z</time>
      </trkpt>
      <trkpt lat="44.06939" lon="7.02746">
        <ele>1805.1</ele>
        <time>2012-12-28T09:30:41Z</time>
      </trkpt>
      <trkpt lat="44.06938" lon="7.02745">
        <ele>1805.4</ele>
        <time>2012-12-28T09:30:42Z</time>
      </trkpt>
      <trkpt lat="44.06936" lon="7.02745">
        <ele>1805.7</ele>
        <time>2012-12-28T09:30:43Z</time>
      </trkpt>
      <trkpt lat="44.06935" lon="7.02744">
        <ele>1805.9</ele>
        <time>2012-12-28T09:30:44Z</time>
      </trkpt>
      <trkpt lat="44.06935" lon="7.02744">
        <ele>1805.9</ele>
        <time>2012-12-28T09:30:45Z</time>
      </trkpt>
      <trkpt lat="44.06935" lon="7.02743">
        <ele>1806.3</ele>
        <time>2012-12-28T09:30:46Z</time>
      </trkpt>
      <trkpt lat="44.06934" lon="7.02743">
        <ele>1806.9</ele>
        <time>2012-12-28T09:30:47Z</time>
      </trkpt>
      <trkpt lat="44.06931" lon="7.02742">
        <ele>1807.2</ele>
        <time>2012-12-28T09:30:49Z</time>
      </trkpt>
      <trkpt lat="44.0693" lon="7.02741">
        <ele>1807.7</ele>
        <time>2012-12-28T09:30:50Z</time>
      </trkpt>
      <trkpt lat="44.06929" lon="7.02741">
        <ele>1807.8</ele>
        <time>2012-12-28T09:30:51Z</time>
      </trkpt>
      <trkpt lat="44.06928" lon="7.02741">
        <ele>1808.2</ele>
        <time>2012-12-28T09:30:52Z</time>
      </trkpt>
      <trkpt lat="44.06923" lon="7.02739">
        <ele>1810.1</ele>
        <time>2012-12-28T09:31:03Z</time>
      </trkpt>
      <trkpt lat="44.06923" lon="7.02739">
        <ele>1810.1</ele>
        <time>2012-12-28T09:31:04Z</time>
      </trkpt>
      <trkpt lat="44.06922" lon="7.02739">
        <ele>1810.2</ele>
        <time>2012-12-28T09:31:05Z</time>
      </trkpt>
      <trkpt lat="44.06922" lon="7.02739">
        <ele>1810.2</ele>
        <time>2012-12-28T09:31:06Z</time>
      </trkpt>
      <trkpt lat="44.06921" lon="7.02739">
        <ele>1810.2</ele>
        <time>2012-12-28T09:31:07Z</time>
      </trkpt>
      <trkpt lat="44.06921" lon="7.02739">
        <ele>1810.2</ele>
        <time>2012-12-28T09:31:08Z</time>
      </trkpt>
      <trkpt lat="44.0692" lon="7.02739">
        <ele>1810.3</ele>
        <time>2012-12-28T09:31:09Z</time>
      </trkpt>
      <trkpt lat="44.06918" lon="7.0274">
        <ele>1810.6</ele>
        <time>2012-12-28T09:31:10Z</time>
      </trkpt>
      <trkpt lat="44.06918" lon="7.0274">
        <ele>1810.6</ele>
        <time>2012-12-28T09:31:11Z</time>
      </trkpt>
      <trkpt lat="44.06917" lon="7.0274">
        <ele>1810.9</ele>
        <time>2012-12-28T09:31:12Z</time>
      </trkpt>
      <trkpt lat="44.06916" lon="7.0274">
        <ele>1811.3</ele>
        <time>2012-12-28T09:31:13Z</time>
      </trkpt>
      <trkpt lat="44.06915" lon="7.0274">
        <ele>1811.6</ele>
        <time>2012-12-28T09:31:14Z</time>
      </trkpt>
      <trkpt lat="44.06913" lon="7.0274">
        <ele>1812.3</ele>
        <time>2012-12-28T09:31:15Z</time>
      </trkpt>
      <trkpt lat="44.06912" lon="7.02741">
        <ele>1812.6</ele>
        <time>2012-12-28T09:31:16Z</time>
      </trkpt>
      <trkpt lat="44.06912" lon="7.02741">
        <ele>1812.6</ele>
        <time>2012-12-28T09:31:17Z</time>
      </trkpt>
      <trkpt lat="44.06911" lon="7.02741">
        <ele>1812.7</ele>
        <time>2012-12-28T09:31:18Z</time>
      </trkpt>
      <trkpt lat="44.06909" lon="7.02741">
        <ele>1813.4</ele>
        <time>2012-12-28T09:31:19Z</time>
      </trkpt>
      <trkpt lat="44.06909" lon="7.02741">
        <ele>1813.4</ele>
        <time>2012-12-28T09:31:20Z</time>
      </trkpt>
      <trkpt lat="44.06909" lon="7.02741">
        <ele>1813.5</ele>
        <time>2012-12-28T09:31:21Z</time>
      </trkpt>
      <trkpt lat="44.06907" lon="7.02741">
        <ele>1813.3</ele>
        <time>2012-12-28T09:31:22Z</time>
      </trkpt>
      <trkpt lat="44.06907" lon="7.02741">
        <ele>1813.6</ele>
        <time>2012-12-28T09:31:23Z</time>
      </trkpt>
      <trkpt lat="44.06905" lon="7.02742">
        <ele>1814.2</ele>
        <time>2012-12-28T09:31:24Z</time>
      </trkpt>
      <trkpt lat="44.06904" lon="7.02742">
        <ele>1814.6</ele>
        <time>2012-12-28T09:31:25Z</time>
      </trkpt>
      <trkpt lat="44.06904" lon="7.02742">
        <ele>1814.6</ele>
        <time>2012-12-28T09:31:26Z</time>
      </trkpt>
      <trkpt lat="44.06904" lon="7.02742">
        <ele>1814.6</ele>
        <time>2012-12-28T09:31:27Z</time>
      </trkpt>
      <trkpt lat="44.06904" lon="7.02742">
        <ele>1814.6</ele>
        <time>2012-12-28T09:31:28Z</time>
      </trkpt>
      <trkpt lat="44.06904" lon="7.02742">
        <ele>1814.6</ele>
        <time>2012-12-28T09:31:29Z</time>
      </trkpt>
      <trkpt lat="44.06904" lon="7.02742">
        <ele>1814.6</ele>
        <time>2012-12-28T09:31:30Z</time>
      </trkpt>
      <trkpt lat="44.06903" lon="7.02742">
        <ele>1815.1</ele>
        <time>2012-12-28T09:31:31Z</time>
      </trkpt>
      <trkpt lat="44.06902" lon="7.02742">
        <ele>1815.7</ele>
        <time>2012-12-28T09:31:32Z</time>
      </trkpt>
      <trkpt lat="44.06901" lon="7.02742">
        <ele>1815.9</ele>
        <time>2012-12-28T09:31:33Z</time>
      </trkpt>
      <trkpt lat="44.06901" lon="7.02742">
        <ele>1815.9</ele>
        <time>2012-12-28T09:31:34Z</time>
      </trkpt>
      <trkpt lat="44.069" lon="7.02742">
        <ele>1816.2</ele>
        <time>2012-12-28T09:31:35Z</time>
      </trkpt>
      <trkpt lat="44.069" lon="7.02742">
        <ele>1816.2</ele>
        <time>2012-12-28T09:31:36Z</time>
      </trkpt>
      <trkpt lat="44.069" lon="7.02742">
        <ele>1816.7</ele>
        <time>2012-12-28T09:31:37Z</time>
      </trkpt>
      <trkpt lat="44.06899" lon="7.02742">
        <ele>1817</ele>
        <time>2012-12-28T09:31:38Z</time>
      </trkpt>
      <trkpt lat="44.06899" lon="7.02742">
        <ele>1817</ele>
        <time>2012-12-28T09:31:39Z</time>
      </trkpt>
      <trkpt lat="44.06899" lon="7.02742">
        <ele>1817</ele>
        <time>2012-12-28T09:31:40Z</time>
      </trkpt>
      <trkpt lat="44.06899" lon="7.02742">
        <ele>1817</ele>
        <time>2012-12-28T09:31:41Z</time>
      </trkpt>
      <trkpt lat="44.06899" lon="7.02742">
        <ele>1817</ele>
        <time>2012-12-28T09:31:42Z</time>
      </trkpt>
      <trkpt lat="44.06899" lon="7.02742">
        <ele>1817</ele>
        <time>2012-12-28T09:31:43Z</time>
      </trkpt>
      <trkpt lat="44.06898" lon="7.02742">
        <ele>1817.1</ele>
        <time>2012-12-28T09:31:44Z</time>
      </trkpt>
      <trkpt lat="44.06898" lon="7.02742">
        <ele>1817.1</ele>
        <time>2012-12-28T09:31:45Z</time>
      </trkpt>
      <trkpt lat="44.06898" lon="7.02742">
        <ele>1817.1</ele>
        <time>2012-12-28T09:31:46Z</time>
      </trkpt>
      <trkpt lat="44.06898" lon="7.02742">
        <ele>1817.1</ele>
        <time>2012-12-28T09:31:47Z</time>
      </trkpt>
      <trkpt lat="44.06898" lon="7.02742">
        <ele>1817.1</ele>
        <time>2012-12-28T09:31:48Z</time>
      </trkpt>
      <trkpt lat="44.06898" lon="7.02742">
        <ele>1817.1</ele>
        <time>2012-12-28T09:31:49Z</time>
      </trkpt>
      <trkpt lat="44.06897" lon="7.02742">
        <ele>1817.5</ele>
        <time>2012-12-28T09:31:50Z</time>
      </trkpt>
      <trkpt lat="44.06897" lon="7.02742">
        <ele>1817.5</ele>
        <time>2012-12-28T09:31:51Z</time>
      </trkpt>
      <trkpt lat="44.06897" lon="7.02742">
        <ele>1817.5</ele>
        <time>2012-12-28T09:31:52Z</time>
      </trkpt>
      <trkpt lat="44.06897" lon="7.02742">
        <ele>1817.5</ele>
        <time>2012-12-28T09:31:53Z</time>
      </trkpt>
      <trkpt lat="44.06897" lon="7.02742">
        <ele>1817.5</ele>
        <time>2012-12-28T09:31:54Z</time>
      </trkpt>
      <trkpt lat="44.06897" lon="7.02742">
        <ele>1817.5</ele>
        <time>2012-12-28T09:31:55Z</time>
      </trkpt>
      <trkpt lat="44.06897" lon="7.02742">
        <ele>1817.5</ele>
        <time>2012-12-28T09:31:56Z</time>
      </trkpt>
      <trkpt lat="44.06896" lon="7.02743">
        <ele>1817.9</ele>
        <time>2012-12-28T09:31:57Z</time>
      </trkpt>
      <trkpt lat="44.06896" lon="7.02743">
        <ele>1817.9</ele>
        <time>2012-12-28T09:31:58Z</time>
      </trkpt>
      <trkpt lat="44.06895" lon="7.02743">
        <ele>1818.2</ele>
        <time>2012-12-28T09:31:59Z</time>
      </trkpt>
      <trkpt lat="44.06895" lon="7.02743">
        <ele>1818.2</ele>
        <time>2012-12-28T09:32:00Z</time>
      </trkpt>
      <trkpt lat="44.06895" lon="7.02743">
        <ele>1818.2</ele>
        <time>2012-12-28T09:32:01Z</time>
      </trkpt>
      <trkpt lat="44.06895" lon="7.02743">
        <ele>1818.2</ele>
        <time>2012-12-28T09:32:02Z</time>
      </trkpt>
      <trkpt lat="44.06895" lon="7.02743">
        <ele>1818.2</ele>
        <time>2012-12-28T09:32:03Z</time>
      </trkpt>
      <trkpt lat="44.06895" lon="7.02743">
        <ele>1818.2</ele>
        <time>2012-12-28T09:32:04Z</time>
      </trkpt>
      <trkpt lat="44.06895" lon="7.02743">
        <ele>1818.2</ele>
        <time>2012-12-28T09:32:05Z</time>
      </trkpt>
      <trkpt lat="44.06894" lon="7.02743">
        <ele>1818.4</ele>
        <time>2012-12-28T09:32:06Z</time>
      </trkpt>
      <trkpt lat="44.06893" lon="7.02744">
        <ele>1819.2</ele>
        <time>2012-12-28T09:32:12Z</time>
      </trkpt>
      <trkpt lat="44.06892" lon="7.02743">
        <ele>1819.8</ele>
        <time>2012-12-28T09:32:13Z</time>
      </trkpt>
      <trkpt lat="44.06891" lon="7.02743">
        <ele>1820.1</ele>
        <time>2012-12-28T09:32:14Z</time>
      </trkpt>
      <trkpt lat="44.0689" lon="7.02743">
        <ele>1820.4</ele>
        <time>2012-12-28T09:32:15Z</time>
      </trkpt>
      <trkpt lat="44.0689" lon="7.02743">
        <ele>1820.4</ele>
        <time>2012-12-28T09:32:16Z</time>
      </trkpt>
      <trkpt lat="44.06889" lon="7.02743">
        <ele>1820.5</ele>
        <time>2012-12-28T09:32:17Z</time>
      </trkpt>
      <trkpt lat="44.06889" lon="7.02743">
        <ele>1820.5</ele>
        <time>2012-12-28T09:32:18Z</time>
      </trkpt>
      <trkpt lat="44.06889" lon="7.02743">
        <ele>1820.5</ele>
        <time>2012-12-28T09:32:19Z</time>
      </trkpt>
      <trkpt lat="44.06888" lon="7.02743">
        <ele>1820.6</ele>
        <time>2012-12-28T09:32:20Z</time>
      </trkpt>
      <trkpt lat="44.06883" lon="7.02742">
        <ele>1821.8</ele>
        <time>2012-12-28T09:32:32Z</time>
      </trkpt>
      <trkpt lat="44.06882" lon="7.02742">
        <ele>1822</ele>
        <time>2012-12-28T09:32:33Z</time>
      </trkpt>
      <trkpt lat="44.06881" lon="7.02742">
        <ele>1822.3</ele>
        <time>2012-12-28T09:32:41Z</time>
      </trkpt>
      <trkpt lat="44.0688" lon="7.02742">
        <ele>1822.3</ele>
        <time>2012-12-28T09:32:42Z</time>
      </trkpt>
      <trkpt lat="44.0688" lon="7.02742">
        <ele>1822.3</ele>
        <time>2012-12-28T09:32:43Z</time>
      </trkpt>
      <trkpt lat="44.06879" lon="7.02742">
        <ele>1822.7</ele>
        <time>2012-12-28T09:32:44Z</time>
      </trkpt>
      <trkpt lat="44.06879" lon="7.02742">
        <ele>1822.7</ele>
        <time>2012-12-28T09:32:45Z</time>
      </trkpt>
      <trkpt lat="44.06879" lon="7.02742">
        <ele>1822.7</ele>
        <time>2012-12-28T09:32:46Z</time>
      </trkpt>
      <trkpt lat="44.06879" lon="7.02742">
        <ele>1822.7</ele>
        <time>2012-12-28T09:32:47Z</time>
      </trkpt>
      <trkpt lat="44.06879" lon="7.02742">
        <ele>1822.7</ele>
        <time>2012-12-28T09:32:48Z</time>
      </trkpt>
      <trkpt lat="44.06878" lon="7.02742">
        <ele>1822.9</ele>
        <time>2012-12-28T09:32:49Z</time>
      </trkpt>
      <trkpt lat="44.06878" lon="7.02742">
        <ele>1822.9</ele>
        <time>2012-12-28T09:32:50Z</time>
      </trkpt>
      <trkpt lat="44.06877" lon="7.02742">
        <ele>1822.8</ele>
        <time>2012-12-28T09:32:51Z</time>
      </trkpt>
      <trkpt lat="44.06877" lon="7.02742">
        <ele>1822.8</ele>
        <time>2012-12-28T09:32:52Z</time>
      </trkpt>
      <trkpt lat="44.06877" lon="7.02742">
        <ele>1822.8</ele>
        <time>2012-12-28T09:32:53Z</time>
      </trkpt>
      <trkpt lat="44.06877" lon="7.02742">
        <ele>1822.8</ele>
        <time>2012-12-28T09:32:54Z</time>
      </trkpt>
      <trkpt lat="44.06877" lon="7.02742">
        <ele>1822.8</ele>
        <time>2012-12-28T09:32:55Z</time>
      </trkpt>
      <trkpt lat="44.06877" lon="7.02742">
        <ele>1822.8</ele>
        <time>2012-12-28T09:32:56Z</time>
      </trkpt>
      <trkpt lat="44.06876" lon="7.02741">
        <ele>1822.5</ele>
        <time>2012-12-28T09:32:57Z</time>
      </trkpt>
      <trkpt lat="44.06876" lon="7.02741">
        <ele>1822.5</ele>
        <time>2012-12-28T09:32:58Z</time>
      </trkpt>
      <trkpt lat="44.06876" lon="7.02741">
        <ele>1822.5</ele>
        <time>2012-12-28T09:32:59Z</time>
      </trkpt>
      <trkpt lat="44.06876" lon="7.02741">
        <ele>1822.5</ele>
        <time>2012-12-28T09:33:00Z</time>
      </trkpt>
      <trkpt lat="44.06876" lon="7.02741">
        <ele>1822.5</ele>
        <time>2012-12-28T09:33:01Z</time>
      </trkpt>
      <trkpt lat="44.06876" lon="7.02741">
        <ele>1822.5</ele>
        <time>2012-12-28T09:33:02Z</time>
      </trkpt>
      <trkpt lat="44.06875" lon="7.02741">
        <ele>1822.7</ele>
        <time>2012-12-28T09:33:03Z</time>
      </trkpt>
      <trkpt lat="44.06875" lon="7.02741">
        <ele>1822.7</ele>
        <time>2012-12-28T09:33:04Z</time>
      </trkpt>
      <trkpt lat="44.06875" lon="7.02741">
        <ele>1822.7</ele>
        <time>2012-12-28T09:33:05Z</time>
      </trkpt>
      <trkpt lat="44.06875" lon="7.02741">
        <ele>1822.7</ele>
        <time>2012-12-28T09:33:06Z</time>
      </trkpt>
      <trkpt lat="44.06874" lon="7.02741">
        <ele>1823.1</ele>
        <time>2012-12-28T09:33:07Z</time>
      </trkpt>
      <trkpt lat="44.06874" lon="7.02741">
        <ele>1823.1</ele>
        <time>2012-12-28T09:33:08Z</time>
      </trkpt>
      <trkpt lat="44.06874" lon="7.02741">
        <ele>1823.1</ele>
        <time>2012-12-28T09:33:09Z</time>
      </trkpt>
      <trkpt lat="44.06873" lon="7.02741">
        <ele>1823.1</ele>
        <time>2012-12-28T09:33:10Z</time>
      </trkpt>
      <trkpt lat="44.06873" lon="7.02741">
        <ele>1823.1</ele>
        <time>2012-12-28T09:33:11Z</time>
      </trkpt>
      <trkpt lat="44.06872" lon="7.0274">
        <ele>1823</ele>
        <time>2012-12-28T09:33:12Z</time>
      </trkpt>
      <trkpt lat="44.06871" lon="7.0274">
        <ele>1823.3</ele>
        <time>2012-12-28T09:33:13Z</time>
      </trkpt>
      <trkpt lat="44.0687" lon="7.02739">
        <ele>1823.6</ele>
        <time>2012-12-28T09:33:14Z</time>
      </trkpt>
      <trkpt lat="44.0687" lon="7.02739">
        <ele>1823.6</ele>
        <time>2012-12-28T09:33:15Z</time>
      </trkpt>
      <trkpt lat="44.06869" lon="7.02739">
        <ele>1823.9</ele>
        <time>2012-12-28T09:33:16Z</time>
      </trkpt>
      <trkpt lat="44.06869" lon="7.02739">
        <ele>1823.9</ele>
        <time>2012-12-28T09:33:17Z</time>
      </trkpt>
      <trkpt lat="44.06868" lon="7.02739">
        <ele>1824.1</ele>
        <time>2012-12-28T09:33:18Z</time>
      </trkpt>
      <trkpt lat="44.06868" lon="7.02739">
        <ele>1824.1</ele>
        <time>2012-12-28T09:33:19Z</time>
      </trkpt>
      <trkpt lat="44.06868" lon="7.02738">
        <ele>1824.4</ele>
        <time>2012-12-28T09:33:20Z</time>
      </trkpt>
      <trkpt lat="44.06868" lon="7.02738">
        <ele>1824.4</ele>
        <time>2012-12-28T09:33:21Z</time>
      </trkpt>
      <trkpt lat="44.06867" lon="7.02738">
        <ele>1824.3</ele>
        <time>2012-12-28T09:33:22Z</time>
      </trkpt>
      <trkpt lat="44.06867" lon="7.02738">
        <ele>1824.3</ele>
        <time>2012-12-28T09:33:23Z</time>
      </trkpt>
      <trkpt lat="44.06866" lon="7.02737">
        <ele>1824.3</ele>
        <time>2012-12-28T09:33:24Z</time>
      </trkpt>
      <trkpt lat="44.06866" lon="7.02737">
        <ele>1824.3</ele>
        <time>2012-12-28T09:33:25Z</time>
      </trkpt>
      <trkpt lat="44.06866" lon="7.02737">
        <ele>1824.8</ele>
        <time>2012-12-28T09:33:26Z</time>
      </trkpt>
      <trkpt lat="44.06865" lon="7.02736">
        <ele>1825.2</ele>
        <time>2012-12-28T09:33:27Z</time>
      </trkpt>
      <trkpt lat="44.06865" lon="7.02736">
        <ele>1825.2</ele>
        <time>2012-12-28T09:33:28Z</time>
      </trkpt>
      <trkpt lat="44.06864" lon="7.02736">
        <ele>1825.6</ele>
        <time>2012-12-28T09:33:29Z</time>
      </trkpt>
      <trkpt lat="44.06863" lon="7.02735">
        <ele>1826.1</ele>
        <time>2012-12-28T09:33:30Z</time>
      </trkpt>
      <trkpt lat="44.06862" lon="7.02735">
        <ele>1826.5</ele>
        <time>2012-12-28T09:33:31Z</time>
      </trkpt>
      <trkpt lat="44.06862" lon="7.02735">
        <ele>1826.5</ele>
        <time>2012-12-28T09:33:32Z</time>
      </trkpt>
      <trkpt lat="44.06861" lon="7.02734">
        <ele>1826.7</ele>
        <time>2012-12-28T09:33:33Z</time>
      </trkpt>
      <trkpt lat="44.06861" lon="7.02734">
        <ele>1826.7</ele>
        <time>2012-12-28T09:33:34Z</time>
      </trkpt>
      <trkpt lat="44.06861" lon="7.02734">
        <ele>1826.7</ele>
        <time>2012-12-28T09:33:35Z</time>
      </trkpt>
      <trkpt lat="44.06861" lon="7.02734">
        <ele>1826.7</ele>
        <time>2012-12-28T09:33:36Z</time>
      </trkpt>
      <trkpt lat="44.0686" lon="7.02734">
        <ele>1827.1</ele>
        <time>2012-12-28T09:33:37Z</time>
      </trkpt>
      <trkpt lat="44.06859" lon="7.02734">
        <ele>1827.4</ele>
        <time>2012-12-28T09:33:38Z</time>
      </trkpt>
      <trkpt lat="44.06859" lon="7.02734">
        <ele>1827.4</ele>
        <time>2012-12-28T09:33:39Z</time>
      </trkpt>
      <trkpt lat="44.06858" lon="7.02733">
        <ele>1827.6</ele>
        <time>2012-12-28T09:33:40Z</time>
      </trkpt>
      <trkpt lat="44.06858" lon="7.02733">
        <ele>1827.6</ele>
        <time>2012-12-28T09:33:41Z</time>
      </trkpt>
      <trkpt lat="44.06858" lon="7.02733">
        <ele>1828</ele>
        <time>2012-12-28T09:33:42Z</time>
      </trkpt>
      <trkpt lat="44.06857" lon="7.02733">
        <ele>1828.2</ele>
        <time>2012-12-28T09:33:43Z</time>
      </trkpt>
      <trkpt lat="44.06856" lon="7.02732">
        <ele>1828.6</ele>
        <time>2012-12-28T09:33:44Z</time>
      </trkpt>
      <trkpt lat="44.06856" lon="7.02732">
        <ele>1828.6</ele>
        <time>2012-12-28T09:33:45Z</time>
      </trkpt>
      <trkpt lat="44.06856" lon="7.02732">
        <ele>1828.6</ele>
        <time>2012-12-28T09:33:46Z</time>
      </trkpt>
      <trkpt lat="44.06855" lon="7.02732">
        <ele>1828.8</ele>
        <time>2012-12-28T09:33:47Z</time>
      </trkpt>
      <trkpt lat="44.06853" lon="7.02731">
        <ele>1829.4</ele>
        <time>2012-12-28T09:33:48Z</time>
      </trkpt>
      <trkpt lat="44.06853" lon="7.02731">
        <ele>1829.4</ele>
        <time>2012-12-28T09:33:49Z</time>
      </trkpt>
      <trkpt lat="44.06853" lon="7.02731">
        <ele>1829.4</ele>
        <time>2012-12-28T09:33:50Z</time>
      </trkpt>
      <trkpt lat="44.06853" lon="7.02731">
        <ele>1829.4</ele>
        <time>2012-12-28T09:33:51Z</time>
      </trkpt>
      <trkpt lat="44.06853" lon="7.02731">
        <ele>1829.4</ele>
        <time>2012-12-28T09:33:52Z</time>
      </trkpt>
      <trkpt lat="44.06853" lon="7.02731">
        <ele>1829.4</ele>
        <time>2012-12-28T09:33:53Z</time>
      </trkpt>
      <trkpt lat="44.06853" lon="7.02731">
        <ele>1829.4</ele>
        <time>2012-12-28T09:33:54Z</time>
      </trkpt>
      <trkpt lat="44.06853" lon="7.02731">
        <ele>1829.4</ele>
        <time>2012-12-28T09:33:55Z</time>
      </trkpt>
      <trkpt lat="44.06853" lon="7.02731">
        <ele>1829.4</ele>
        <time>2012-12-28T09:33:56Z</time>
      </trkpt>
      <trkpt lat="44.06853" lon="7.02731">
        <ele>1829.4</ele>
        <time>2012-12-28T09:33:57Z</time>
      </trkpt>
      <trkpt lat="44.06853" lon="7.02731">
        <ele>1829.8</ele>
        <time>2012-12-28T09:33:58Z</time>
      </trkpt>
      <trkpt lat="44.06853" lon="7.02731">
        <ele>1829.8</ele>
        <time>2012-12-28T09:33:59Z</time>
      </trkpt>
      <trkpt lat="44.06853" lon="7.02731">
        <ele>1829.8</ele>
        <time>2012-12-28T09:34:00Z</time>
      </trkpt>
      <trkpt lat="44.06852" lon="7.02731">
        <ele>1830</ele>
        <time>2012-12-28T09:34:01Z</time>
      </trkpt>
      <trkpt lat="44.06851" lon="7.0273">
        <ele>1830.4</ele>
        <time>2012-12-28T09:34:02Z</time>
      </trkpt>
      <trkpt lat="44.0685" lon="7.0273">
        <ele>1831</ele>
        <time>2012-12-28T09:34:03Z</time>
      </trkpt>
      <trkpt lat="44.0685" lon="7.0273">
        <ele>1831</ele>
        <time>2012-12-28T09:34:04Z</time>
      </trkpt>
      <trkpt lat="44.0685" lon="7.0273">
        <ele>1831</ele>
        <time>2012-12-28T09:34:05Z</time>
      </trkpt>
      <trkpt lat="44.0685" lon="7.0273">
        <ele>1831</ele>
        <time>2012-12-28T09:34:06Z</time>
      </trkpt>
      <trkpt lat="44.06849" lon="7.0273">
        <ele>1830.9</ele>
        <time>2012-12-28T09:34:07Z</time>
      </trkpt>
      <trkpt lat="44.06849" lon="7.0273">
        <ele>1830.9</ele>
        <time>2012-12-28T09:34:08Z</time>
      </trkpt>
      <trkpt lat="44.06848" lon="7.02729">
        <ele>1831.2</ele>
        <time>2012-12-28T09:34:09Z</time>
      </trkpt>
      <trkpt lat="44.06848" lon="7.02729">
        <ele>1831.2</ele>
        <time>2012-12-28T09:34:10Z</time>
      </trkpt>
      <trkpt lat="44.06847" lon="7.02729">
        <ele>1831.5</ele>
        <time>2012-12-28T09:34:11Z</time>
      </trkpt>
      <trkpt lat="44.06845" lon="7.02729">
        <ele>1831.9</ele>
        <time>2012-12-28T09:34:12Z</time>
      </trkpt>
      <trkpt lat="44.06842" lon="7.02728">
        <ele>1832.4</ele>
        <time>2012-12-28T09:34:19Z</time>
      </trkpt>
      <trkpt lat="44.06841" lon="7.02728">
        <ele>1832.8</ele>
        <time>2012-12-28T09:34:20Z</time>
      </trkpt>
      <trkpt lat="44.06839" lon="7.02728">
        <ele>1833</ele>
        <time>2012-12-28T09:34:21Z</time>
      </trkpt>
      <trkpt lat="44.06838" lon="7.02727">
        <ele>1833.1</ele>
        <time>2012-12-28T09:34:22Z</time>
      </trkpt>
      <trkpt lat="44.06837" lon="7.02727">
        <ele>1833.3</ele>
        <time>2012-12-28T09:34:23Z</time>
      </trkpt>
      <trkpt lat="44.06837" lon="7.02727">
        <ele>1833.3</ele>
        <time>2012-12-28T09:34:24Z</time>
      </trkpt>
      <trkpt lat="44.06837" lon="7.02727">
        <ele>1833.3</ele>
        <time>2012-12-28T09:34:25Z</time>
      </trkpt>
      <trkpt lat="44.06837" lon="7.02727">
        <ele>1833.3</ele>
        <time>2012-12-28T09:34:26Z</time>
      </trkpt>
      <trkpt lat="44.06837" lon="7.02727">
        <ele>1833.3</ele>
        <time>2012-12-28T09:34:27Z</time>
      </trkpt>
      <trkpt lat="44.06837" lon="7.02727">
        <ele>1833.3</ele>
        <time>2012-12-28T09:34:28Z</time>
      </trkpt>
      <trkpt lat="44.06837" lon="7.02727">
        <ele>1833.3</ele>
        <time>2012-12-28T09:34:29Z</time>
      </trkpt>
      <trkpt lat="44.06837" lon="7.02727">
        <ele>1833.3</ele>
        <time>2012-12-28T09:34:30Z</time>
      </trkpt>
      <trkpt lat="44.06837" lon="7.02727">
        <ele>1833.3</ele>
        <time>2012-12-28T09:34:31Z</time>
      </trkpt>
      <trkpt lat="44.06837" lon="7.02727">
        <ele>1833.3</ele>
        <time>2012-12-28T09:34:32Z</time>
      </trkpt>
      <trkpt lat="44.06837" lon="7.02727">
        <ele>1833.3</ele>
        <time>2012-12-28T09:34:33Z</time>
      </trkpt>
      <trkpt lat="44.06837" lon="7.02727">
        <ele>1833.3</ele>
        <time>2012-12-28T09:34:34Z</time>
      </trkpt>
      <trkpt lat="44.06837" lon="7.02727">
        <ele>1833.3</ele>
        <time>2012-12-28T09:34:35Z</time>
      </trkpt>
      <trkpt lat="44.06837" lon="7.02727">
        <ele>1833.3</ele>
        <time>2012-12-28T09:34:36Z</time>
      </trkpt>
      <trkpt lat="44.06836" lon="7.02727">
        <ele>1833.6</ele>
        <time>2012-12-28T09:34:37Z</time>
      </trkpt>
      <trkpt lat="44.06836" lon="7.02727">
        <ele>1833.6</ele>
        <time>2012-12-28T09:34:38Z</time>
      </trkpt>
      <trkpt lat="44.06836" lon="7.02727">
        <ele>1833.6</ele>
        <time>2012-12-28T09:34:39Z</time>
      </trkpt>
      <trkpt lat="44.06835" lon="7.02727">
        <ele>1833.9</ele>
        <time>2012-12-28T09:34:40Z</time>
      </trkpt>
      <trkpt lat="44.068" lon="7.02701">
        <ele>1846.7</ele>
        <time>2012-12-28T09:36:22Z</time>
      </trkpt>
      <trkpt lat="44.06799" lon="7.02701">
        <ele>1846.8</ele>
        <time>2012-12-28T09:36:23Z</time>
      </trkpt>
      <trkpt lat="44.06792" lon="7.02694">
        <ele>1849.7</ele>
        <time>2012-12-28T09:36:43Z</time>
      </trkpt>
      <trkpt lat="44.06772" lon="7.02663">
        <ele>1858.5</ele>
        <time>2012-12-28T09:37:23Z</time>
      </trkpt>
      <trkpt lat="44.06771" lon="7.02663">
        <ele>1858.7</ele>
        <time>2012-12-28T09:37:24Z</time>
      </trkpt>
      <trkpt lat="44.06759" lon="7.02653">
        <ele>1862.2</ele>
        <time>2012-12-28T09:37:49Z</time>
      </trkpt>
      <trkpt lat="44.06758" lon="7.02653">
        <ele>1862.7</ele>
        <time>2012-12-28T09:37:50Z</time>
      </trkpt>
      <trkpt lat="44.06749" lon="7.02647">
        <ele>1864.7</ele>
        <time>2012-12-28T09:38:03Z</time>
      </trkpt>
      <trkpt lat="44.06748" lon="7.02646">
        <ele>1864.9</ele>
        <time>2012-12-28T09:38:04Z</time>
      </trkpt>
      <trkpt lat="44.06747" lon="7.02646">
        <ele>1864.7</ele>
        <time>2012-12-28T09:38:05Z</time>
      </trkpt>
      <trkpt lat="44.06737" lon="7.02637">
        <ele>1866.4</ele>
        <time>2012-12-28T09:38:17Z</time>
      </trkpt>
      <trkpt lat="44.06736" lon="7.02636">
        <ele>1866.6</ele>
        <time>2012-12-28T09:38:18Z</time>
      </trkpt>
      <trkpt lat="44.06735" lon="7.02636">
        <ele>1866.8</ele>
        <time>2012-12-28T09:38:19Z</time>
      </trkpt>
      <trkpt lat="44.06728" lon="7.0263">
        <ele>1868.7</ele>
        <time>2012-12-28T09:38:28Z</time>
      </trkpt>
      <trkpt lat="44.06727" lon="7.02629">
        <ele>1868.7</ele>
        <time>2012-12-28T09:38:29Z</time>
      </trkpt>
      <trkpt lat="44.06724" lon="7.02627">
        <ele>1869.1</ele>
        <time>2012-12-28T09:38:33Z</time>
      </trkpt>
      <trkpt lat="44.0672" lon="7.02623">
        <ele>1870.2</ele>
        <time>2012-12-28T09:38:38Z</time>
      </trkpt>
      <trkpt lat="44.06712" lon="7.02613">
        <ele>1872.4</ele>
        <time>2012-12-28T09:38:50Z</time>
      </trkpt>
      <trkpt lat="44.06688" lon="7.02521">
        <ele>1887</ele>
        <time>2012-12-28T09:41:20Z</time>
      </trkpt>
      <trkpt lat="44.06688" lon="7.02519">
        <ele>1887.1</ele>
        <time>2012-12-28T09:41:21Z</time>
      </trkpt>
      <trkpt lat="44.06677" lon="7.02458">
        <ele>1894.5</ele>
        <time>2012-12-28T09:42:22Z</time>
      </trkpt>
      <trkpt lat="44.06672" lon="7.02407">
        <ele>1901.3</ele>
        <time>2012-12-28T09:43:13Z</time>
      </trkpt>
      <trkpt lat="44.06672" lon="7.02407">
        <ele>1901.3</ele>
        <time>2012-12-28T09:43:14Z</time>
      </trkpt>
      <trkpt lat="44.06672" lon="7.02407">
        <ele>1901.3</ele>
        <time>2012-12-28T09:43:15Z</time>
      </trkpt>
      <trkpt lat="44.06672" lon="7.02407">
        <ele>1901.3</ele>
        <time>2012-12-28T09:43:16Z</time>
      </trkpt>
      <trkpt lat="44.06672" lon="7.02407">
        <ele>1901.3</ele>
        <time>2012-12-28T09:43:17Z</time>
      </trkpt>
      <trkpt lat="44.06672" lon="7.02407">
        <ele>1901.3</ele>
        <time>2012-12-28T09:43:18Z</time>
      </trkpt>
      <trkpt lat="44.06672" lon="7.02407">
        <ele>1901.3</ele>
        <time>2012-12-28T09:43:19Z</time>
      </trkpt>
      <trkpt lat="44.06672" lon="7.02407">
        <ele>1901.3</ele>
        <time>2012-12-28T09:43:20Z</time>
      </trkpt>
      <trkpt lat="44.06672" lon="7.02407">
        <ele>1901.3</ele>
        <time>2012-12-28T09:43:21Z</time>
      </trkpt>
      <trkpt lat="44.06672" lon="7.02407">
        <ele>1901.3</ele>
        <time>2012-12-28T09:43:22Z</time>
      </trkpt>
      <trkpt lat="44.06672" lon="7.02407">
        <ele>1901.3</ele>
        <time>2012-12-28T09:43:23Z</time>
      </trkpt>
      <trkpt lat="44.06672" lon="7.02407">
        <ele>1901.3</ele>
        <time>2012-12-28T09:43:24Z</time>
      </trkpt>
      <trkpt lat="44.06672" lon="7.02407">
        <ele>1901.3</ele>
        <time>2012-12-28T09:43:25Z</time>
      </trkpt>
      <trkpt lat="44.06672" lon="7.02407">
        <ele>1901.3</ele>
        <time>2012-12-28T09:43:26Z</time>
      </trkpt>
      <trkpt lat="44.06672" lon="7.02407">
        <ele>1901.3</ele>
        <time>2012-12-28T09:43:27Z</time>
      </trkpt>
      <trkpt lat="44.06672" lon="7.02407">
        <ele>1901.3</ele>
        <time>2012-12-28T09:43:28Z</time>
      </trkpt>
      <trkpt lat="44.06672" lon="7.02407">
        <ele>1901.3</ele>
        <time>2012-12-28T09:43:29Z</time>
      </trkpt>
      <trkpt lat="44.06672" lon="7.02407">
        <ele>1901.3</ele>
        <time>2012-12-28T09:43:30Z</time>
      </trkpt>
      <trkpt lat="44.06672" lon="7.02407">
        <ele>1901.3</ele>
        <time>2012-12-28T09:43:31Z</time>
      </trkpt>
      <trkpt lat="44.06672" lon="7.02407">
        <ele>1901.3</ele>
        <time>2012-12-28T09:43:32Z</time>
      </trkpt>
      <trkpt lat="44.06672" lon="7.02407">
        <ele>1901.3</ele>
        <time>2012-12-28T09:43:33Z</time>
      </trkpt>
      <trkpt lat="44.06672" lon="7.02406">
        <ele>1901.7</ele>
        <time>2012-12-28T09:43:34Z</time>
      </trkpt>
      <trkpt lat="44.06673" lon="7.02406">
        <ele>1902.1</ele>
        <time>2012-12-28T09:43:35Z</time>
      </trkpt>
      <trkpt lat="44.06674" lon="7.02405">
        <ele>1902.4</ele>
        <time>2012-12-28T09:43:36Z</time>
      </trkpt>
      <trkpt lat="44.06674" lon="7.02404">
        <ele>1902.5</ele>
        <time>2012-12-28T09:43:37Z</time>
      </trkpt>
      <trkpt lat="44.06674" lon="7.02403">
        <ele>1902.5</ele>
        <time>2012-12-28T09:43:38Z</time>
      </trkpt>
      <trkpt lat="44.06674" lon="7.02402">
        <ele>1902.7</ele>
        <time>2012-12-28T09:43:39Z</time>
      </trkpt>
      <trkpt lat="44.06674" lon="7.02401">
        <ele>1902.7</ele>
        <time>2012-12-28T09:43:40Z</time>
      </trkpt>
      <trkpt lat="44.06671" lon="7.02378">
        <ele>1904.8</ele>
        <time>2012-12-28T09:44:04Z</time>
      </trkpt>
      <trkpt lat="44.06671" lon="7.02376">
        <ele>1904.7</ele>
        <time>2012-12-28T09:44:05Z</time>
      </trkpt>
      <trkpt lat="44.0667" lon="7.02371">
        <ele>1904.8</ele>
        <time>2012-12-28T09:44:10Z</time>
      </trkpt>
      <trkpt lat="44.0667" lon="7.02366">
        <ele>1905.2</ele>
        <time>2012-12-28T09:44:14Z</time>
      </trkpt>
      <trkpt lat="44.0667" lon="7.02365">
        <ele>1905.4</ele>
        <time>2012-12-28T09:44:15Z</time>
      </trkpt>
      <trkpt lat="44.0667" lon="7.02363">
        <ele>1905.4</ele>
        <time>2012-12-28T09:44:16Z</time>
      </trkpt>
      <trkpt lat="44.0667" lon="7.02362">
        <ele>1905.4</ele>
        <time>2012-12-28T09:44:17Z</time>
      </trkpt>
      <trkpt lat="44.0667" lon="7.02356">
        <ele>1905.7</ele>
        <time>2012-12-28T09:44:22Z</time>
      </trkpt>
      <trkpt lat="44.0667" lon="7.02354">
        <ele>1905.7</ele>
        <time>2012-12-28T09:44:23Z</time>
      </trkpt>
      <trkpt lat="44.0667" lon="7.02353">
        <ele>1905.8</ele>
        <time>2012-12-28T09:44:24Z</time>
      </trkpt>
      <trkpt lat="44.0667" lon="7.02352">
        <ele>1906</ele>
        <time>2012-12-28T09:44:25Z</time>
      </trkpt>
      <trkpt lat="44.0667" lon="7.0235">
        <ele>1906</ele>
        <time>2012-12-28T09:44:26Z</time>
      </trkpt>
      <trkpt lat="44.0667" lon="7.0235">
        <ele>1906</ele>
        <time>2012-12-28T09:44:27Z</time>
      </trkpt>
      <trkpt lat="44.0667" lon="7.0235">
        <ele>1906</ele>
        <time>2012-12-28T09:44:28Z</time>
      </trkpt>
      <trkpt lat="44.0667" lon="7.0235">
        <ele>1906</ele>
        <time>2012-12-28T09:44:29Z</time>
      </trkpt>
      <trkpt lat="44.0667" lon="7.0235">
        <ele>1906</ele>
        <time>2012-12-28T09:44:30Z</time>
      </trkpt>
      <trkpt lat="44.0667" lon="7.0235">
        <ele>1906</ele>
        <time>2012-12-28T09:44:31Z</time>
      </trkpt>
      <trkpt lat="44.0667" lon="7.0235">
        <ele>1906</ele>
        <time>2012-12-28T09:44:32Z</time>
      </trkpt>
      <trkpt lat="44.0667" lon="7.0235">
        <ele>1906</ele>
        <time>2012-12-28T09:44:33Z</time>
      </trkpt>
      <trkpt lat="44.0667" lon="7.0235">
        <ele>1906</ele>
        <time>2012-12-28T09:44:34Z</time>
      </trkpt>
      <trkpt lat="44.06669" lon="7.0235">
        <ele>1906.1</ele>
        <time>2012-12-28T09:44:35Z</time>
      </trkpt>
      <trkpt lat="44.06669" lon="7.0235">
        <ele>1906.1</ele>
        <time>2012-12-28T09:44:36Z</time>
      </trkpt>
      <trkpt lat="44.06669" lon="7.0235">
        <ele>1906</ele>
        <time>2012-12-28T09:44:37Z</time>
      </trkpt>
      <trkpt lat="44.06669" lon="7.0235">
        <ele>1906</ele>
        <time>2012-12-28T09:44:38Z</time>
      </trkpt>
      <trkpt lat="44.06669" lon="7.0235">
        <ele>1906</ele>
        <time>2012-12-28T09:44:39Z</time>
      </trkpt>
      <trkpt lat="44.06669" lon="7.0235">
        <ele>1906</ele>
        <time>2012-12-28T09:44:40Z</time>
      </trkpt>
      <trkpt lat="44.06669" lon="7.0235">
        <ele>1906</ele>
        <time>2012-12-28T09:44:41Z</time>
      </trkpt>
      <trkpt lat="44.06669" lon="7.0235">
        <ele>1906</ele>
        <time>2012-12-28T09:44:42Z</time>
      </trkpt>
      <trkpt lat="44.06669" lon="7.0235">
        <ele>1906</ele>
        <time>2012-12-28T09:44:43Z</time>
      </trkpt>
      <trkpt lat="44.06669" lon="7.0235">
        <ele>1906</ele>
        <time>2012-12-28T09:44:44Z</time>
      </trkpt>
      <trkpt lat="44.06669" lon="7.0235">
        <ele>1906</ele>
        <time>2012-12-28T09:44:45Z</time>
      </trkpt>
      <trkpt lat="44.06669" lon="7.0235">
        <ele>1906</ele>
        <time>2012-12-28T09:44:46Z</time>
      </trkpt>
      <trkpt lat="44.06669" lon="7.0235">
        <ele>1906</ele>
        <time>2012-12-28T09:44:47Z</time>
      </trkpt>
      <trkpt lat="44.06669" lon="7.0235">
        <ele>1906</ele>
        <time>2012-12-28T09:44:48Z</time>
      </trkpt>
      <trkpt lat="44.06669" lon="7.0235">
        <ele>1906</ele>
        <time>2012-12-28T09:44:49Z</time>
      </trkpt>
      <trkpt lat="44.06669" lon="7.0235">
        <ele>1906</ele>
        <time>2012-12-28T09:44:50Z</time>
      </trkpt>
      <trkpt lat="44.06669" lon="7.0235">
        <ele>1906</ele>
        <time>2012-12-28T09:44:51Z</time>
      </trkpt>
      <trkpt lat="44.06669" lon="7.0235">
        <ele>1906</ele>
        <time>2012-12-28T09:44:52Z</time>
      </trkpt>
      <trkpt lat="44.06669" lon="7.0235">
        <ele>1906</ele>
        <time>2012-12-28T09:44:53Z</time>
      </trkpt>
      <trkpt lat="44.06669" lon="7.0235">
        <ele>1906</ele>
        <time>2012-12-28T09:44:54Z</time>
      </trkpt>
      <trkpt lat="44.06669" lon="7.0235">
        <ele>1906</ele>
        <time>2012-12-28T09:44:55Z</time>
      </trkpt>
      <trkpt lat="44.06669" lon="7.0235">
        <ele>1906</ele>
        <time>2012-12-28T09:44:56Z</time>
      </trkpt>
      <trkpt lat="44.06669" lon="7.0235">
        <ele>1906</ele>
        <time>2012-12-28T09:44:57Z</time>
      </trkpt>
      <trkpt lat="44.06669" lon="7.0235">
        <ele>1906</ele>
        <time>2012-12-28T09:44:58Z</time>
      </trkpt>
      <trkpt lat="44.06669" lon="7.0235">
        <ele>1906</ele>
        <time>2012-12-28T09:44:59Z</time>
      </trkpt>
      <trkpt lat="44.06669" lon="7.0235">
        <ele>1906</ele>
        <time>2012-12-28T09:45:00Z</time>
      </trkpt>
      <trkpt lat="44.06669" lon="7.0235">
        <ele>1906</ele>
        <time>2012-12-28T09:45:01Z</time>
      </trkpt>
      <trkpt lat="44.06669" lon="7.0235">
        <ele>1906</ele>
        <time>2012-12-28T09:45:02Z</time>
      </trkpt>
      <trkpt lat="44.06669" lon="7.0235">
        <ele>1906</ele>
        <time>2012-12-28T09:45:03Z</time>
      </trkpt>
      <trkpt lat="44.06669" lon="7.0235">
        <ele>1906</ele>
        <time>2012-12-28T09:45:04Z</time>
      </trkpt>
      <trkpt lat="44.06669" lon="7.0235">
        <ele>1906</ele>
        <time>2012-12-28T09:45:05Z</time>
      </trkpt>
      <trkpt lat="44.06669" lon="7.0235">
        <ele>1906.2</ele>
        <time>2012-12-28T09:45:06Z</time>
      </trkpt>
      <trkpt lat="44.06669" lon="7.02349">
        <ele>1906.1</ele>
        <time>2012-12-28T09:45:07Z</time>
      </trkpt>
      <trkpt lat="44.06667" lon="7.02341">
        <ele>1906.1</ele>
        <time>2012-12-28T09:45:13Z</time>
      </trkpt>
      <trkpt lat="44.06666" lon="7.0234">
        <ele>1906.1</ele>
        <time>2012-12-28T09:45:14Z</time>
      </trkpt>
      <trkpt lat="44.06666" lon="7.02339">
        <ele>1906.1</ele>
        <time>2012-12-28T09:45:15Z</time>
      </trkpt>
      <trkpt lat="44.06666" lon="7.02337">
        <ele>1906.1</ele>
        <time>2012-12-28T09:45:16Z</time>
      </trkpt>
      <trkpt lat="44.06665" lon="7.02336">
        <ele>1906.2</ele>
        <time>2012-12-28T09:45:17Z</time>
      </trkpt>
      <trkpt lat="44.06665" lon="7.02335">
        <ele>1906.2</ele>
        <time>2012-12-28T09:45:18Z</time>
      </trkpt>
      <trkpt lat="44.06665" lon="7.02334">
        <ele>1906.4</ele>
        <time>2012-12-28T09:45:19Z</time>
      </trkpt>
      <trkpt lat="44.06665" lon="7.02332">
        <ele>1906.6</ele>
        <time>2012-12-28T09:45:20Z</time>
      </trkpt>
      <trkpt lat="44.06665" lon="7.02331">
        <ele>1906.7</ele>
        <time>2012-12-28T09:45:21Z</time>
      </trkpt>
      <trkpt lat="44.06665" lon="7.02329">
        <ele>1906.6</ele>
        <time>2012-12-28T09:45:22Z</time>
      </trkpt>
      <trkpt lat="44.06665" lon="7.02328">
        <ele>1906.7</ele>
        <time>2012-12-28T09:45:23Z</time>
      </trkpt>
      <trkpt lat="44.06665" lon="7.02327">
        <ele>1906.9</ele>
        <time>2012-12-28T09:45:24Z</time>
      </trkpt>
      <trkpt lat="44.06665" lon="7.02326">
        <ele>1907</ele>
        <time>2012-12-28T09:45:25Z</time>
      </trkpt>
      <trkpt lat="44.06665" lon="7.02324">
        <ele>1907</ele>
        <time>2012-12-28T09:45:26Z</time>
      </trkpt>
      <trkpt lat="44.06666" lon="7.02306">
        <ele>1907.9</ele>
        <time>2012-12-28T09:50:20Z</time>
      </trkpt>
      <trkpt lat="44.06665" lon="7.02305">
        <ele>1907.7</ele>
        <time>2012-12-28T09:50:21Z</time>
      </trkpt>
      <trkpt lat="44.06664" lon="7.02303">
        <ele>1907.9</ele>
        <time>2012-12-28T09:50:23Z</time>
      </trkpt>
      <trkpt lat="44.06662" lon="7.02302">
        <ele>1907.8</ele>
        <time>2012-12-28T09:50:25Z</time>
      </trkpt>
      <trkpt lat="44.06662" lon="7.02301">
        <ele>1907.8</ele>
        <time>2012-12-28T09:50:26Z</time>
      </trkpt>
      <trkpt lat="44.06661" lon="7.023">
        <ele>1907.8</ele>
        <time>2012-12-28T09:50:27Z</time>
      </trkpt>
      <trkpt lat="44.06661" lon="7.02299">
        <ele>1907.9</ele>
        <time>2012-12-28T09:50:28Z</time>
      </trkpt>
      <trkpt lat="44.0666" lon="7.02298">
        <ele>1907.9</ele>
        <time>2012-12-28T09:50:29Z</time>
      </trkpt>
      <trkpt lat="44.06659" lon="7.02297">
        <ele>1907.7</ele>
        <time>2012-12-28T09:50:30Z</time>
      </trkpt>
      <trkpt lat="44.06658" lon="7.02296">
        <ele>1907.7</ele>
        <time>2012-12-28T09:50:31Z</time>
      </trkpt>
      <trkpt lat="44.06657" lon="7.02295">
        <ele>1907.7</ele>
        <time>2012-12-28T09:50:32Z</time>
      </trkpt>
      <trkpt lat="44.06657" lon="7.02294">
        <ele>1907.8</ele>
        <time>2012-12-28T09:50:33Z</time>
      </trkpt>
      <trkpt lat="44.06656" lon="7.02292">
        <ele>1907.8</ele>
        <time>2012-12-28T09:50:34Z</time>
      </trkpt>
      <trkpt lat="44.06655" lon="7.0229">
        <ele>1908</ele>
        <time>2012-12-28T09:50:36Z</time>
      </trkpt>
      <trkpt lat="44.06655" lon="7.0229">
        <ele>1907.9</ele>
        <time>2012-12-28T09:50:37Z</time>
      </trkpt>
      <trkpt lat="44.06653" lon="7.02287">
        <ele>1907.6</ele>
        <time>2012-12-28T09:50:39Z</time>
      </trkpt>
      <trkpt lat="44.06647" lon="7.0228">
        <ele>1907.8</ele>
        <time>2012-12-28T09:50:48Z</time>
      </trkpt>
      <trkpt lat="44.06646" lon="7.02279">
        <ele>1907.8</ele>
        <time>2012-12-28T09:50:49Z</time>
      </trkpt>
      <trkpt lat="44.06645" lon="7.02278">
        <ele>1907.9</ele>
        <time>2012-12-28T09:50:50Z</time>
      </trkpt>
      <trkpt lat="44.06645" lon="7.02277">
        <ele>1908.3</ele>
        <time>2012-12-28T09:50:51Z</time>
      </trkpt>
      <trkpt lat="44.06644" lon="7.02276">
        <ele>1908.4</ele>
        <time>2012-12-28T09:50:52Z</time>
      </trkpt>
      <trkpt lat="44.06643" lon="7.02275">
        <ele>1908.5</ele>
        <time>2012-12-28T09:50:53Z</time>
      </trkpt>
      <trkpt lat="44.06642" lon="7.02274">
        <ele>1908.3</ele>
        <time>2012-12-28T09:50:54Z</time>
      </trkpt>
      <trkpt lat="44.06642" lon="7.02274">
        <ele>1908.3</ele>
        <time>2012-12-28T09:50:55Z</time>
      </trkpt>
      <trkpt lat="44.06642" lon="7.02274">
        <ele>1908.3</ele>
        <time>2012-12-28T09:50:56Z</time>
      </trkpt>
      <trkpt lat="44.06642" lon="7.02274">
        <ele>1908.3</ele>
        <time>2012-12-28T09:50:57Z</time>
      </trkpt>
      <trkpt lat="44.06642" lon="7.02274">
        <ele>1908.3</ele>
        <time>2012-12-28T09:50:58Z</time>
      </trkpt>
      <trkpt lat="44.06642" lon="7.02274">
        <ele>1908.3</ele>
        <time>2012-12-28T09:50:59Z</time>
      </trkpt>
      <trkpt lat="44.06641" lon="7.02273">
        <ele>1908.3</ele>
        <time>2012-12-28T09:51:00Z</time>
      </trkpt>
      <trkpt lat="44.0664" lon="7.02272">
        <ele>1908.4</ele>
        <time>2012-12-28T09:51:01Z</time>
      </trkpt>
      <trkpt lat="44.0664" lon="7.02272">
        <ele>1908.5</ele>
        <time>2012-12-28T09:51:02Z</time>
      </trkpt>
      <trkpt lat="44.06639" lon="7.02271">
        <ele>1908.7</ele>
        <time>2012-12-28T09:51:03Z</time>
      </trkpt>
      <trkpt lat="44.06638" lon="7.02269">
        <ele>1908.7</ele>
        <time>2012-12-28T09:51:04Z</time>
      </trkpt>
      <trkpt lat="44.06637" lon="7.02268">
        <ele>1908.7</ele>
        <time>2012-12-28T09:51:05Z</time>
      </trkpt>
      <trkpt lat="44.06637" lon="7.02267">
        <ele>1908.8</ele>
        <time>2012-12-28T09:51:06Z</time>
      </trkpt>
      <trkpt lat="44.06635" lon="7.02265">
        <ele>1908.9</ele>
        <time>2012-12-28T09:51:08Z</time>
      </trkpt>
      <trkpt lat="44.06635" lon="7.02264">
        <ele>1909</ele>
        <time>2012-12-28T09:51:09Z</time>
      </trkpt>
      <trkpt lat="44.06632" lon="7.0226">
        <ele>1908.9</ele>
        <time>2012-12-28T09:51:13Z</time>
      </trkpt>
      <trkpt lat="44.06632" lon="7.02259">
        <ele>1909.2</ele>
        <time>2012-12-28T09:51:14Z</time>
      </trkpt>
      <trkpt lat="44.06631" lon="7.02257">
        <ele>1909.1</ele>
        <time>2012-12-28T09:51:15Z</time>
      </trkpt>
      <trkpt lat="44.06631" lon="7.02257">
        <ele>1908.8</ele>
        <time>2012-12-28T09:51:16Z</time>
      </trkpt>
      <trkpt lat="44.0663" lon="7.02256">
        <ele>1908.5</ele>
        <time>2012-12-28T09:51:17Z</time>
      </trkpt>
      <trkpt lat="44.0663" lon="7.02256">
        <ele>1908.5</ele>
        <time>2012-12-28T09:51:18Z</time>
      </trkpt>
      <trkpt lat="44.0663" lon="7.02256">
        <ele>1908.5</ele>
        <time>2012-12-28T09:51:19Z</time>
      </trkpt>
      <trkpt lat="44.0663" lon="7.02256">
        <ele>1908.5</ele>
        <time>2012-12-28T09:51:20Z</time>
      </trkpt>
      <trkpt lat="44.0663" lon="7.02256">
        <ele>1908.5</ele>
        <time>2012-12-28T09:51:21Z</time>
      </trkpt>
      <trkpt lat="44.0663" lon="7.02256">
        <ele>1908.5</ele>
        <time>2012-12-28T09:51:22Z</time>
      </trkpt>
      <trkpt lat="44.0663" lon="7.02256">
        <ele>1908.5</ele>
        <time>2012-12-28T09:51:23Z</time>
      </trkpt>
      <trkpt lat="44.0663" lon="7.02256">
        <ele>1908.5</ele>
        <time>2012-12-28T09:51:24Z</time>
      </trkpt>
      <trkpt lat="44.0663" lon="7.02256">
        <ele>1908.5</ele>
        <time>2012-12-28T09:51:25Z</time>
      </trkpt>
      <trkpt lat="44.06629" lon="7.02256">
        <ele>1908.2</ele>
        <time>2012-12-28T09:51:26Z</time>
      </trkpt>
      <trkpt lat="44.06625" lon="7.02255">
        <ele>1908.3</ele>
        <time>2012-12-28T09:51:30Z</time>
      </trkpt>
      <trkpt lat="44.06624" lon="7.02255">
        <ele>1908.3</ele>
        <time>2012-12-28T09:51:31Z</time>
      </trkpt>
      <trkpt lat="44.06616" lon="7.02252">
        <ele>1907.7</ele>
        <time>2012-12-28T09:52:20Z</time>
      </trkpt>
      <trkpt lat="44.06615" lon="7.02252">
        <ele>1907.8</ele>
        <time>2012-12-28T09:52:21Z</time>
      </trkpt>
      <trkpt lat="44.06614" lon="7.02252">
        <ele>1907.8</ele>
        <time>2012-12-28T09:52:22Z</time>
      </trkpt>
      <trkpt lat="44.06613" lon="7.02252">
        <ele>1907.8</ele>
        <time>2012-12-28T09:52:23Z</time>
      </trkpt>
      <trkpt lat="44.06612" lon="7.02252">
        <ele>1907.8</ele>
        <time>2012-12-28T09:52:24Z</time>
      </trkpt>
      <trkpt lat="44.06611" lon="7.02252">
        <ele>1907.7</ele>
        <time>2012-12-28T09:52:25Z</time>
      </trkpt>
      <trkpt lat="44.06605" lon="7.0225">
        <ele>1907.8</ele>
        <time>2012-12-28T09:52:33Z</time>
      </trkpt>
      <trkpt lat="44.06604" lon="7.0225">
        <ele>1907.6</ele>
        <time>2012-12-28T09:52:34Z</time>
      </trkpt>
      <trkpt lat="44.06604" lon="7.0225">
        <ele>1907.5</ele>
        <time>2012-12-28T09:52:35Z</time>
      </trkpt>
      <trkpt lat="44.06603" lon="7.02249">
        <ele>1907.6</ele>
        <time>2012-12-28T09:52:36Z</time>
      </trkpt>
      <trkpt lat="44.06601" lon="7.02249">
        <ele>1907.2</ele>
        <time>2012-12-28T09:52:38Z</time>
      </trkpt>
      <trkpt lat="44.06598" lon="7.02247">
        <ele>1906.8</ele>
        <time>2012-12-28T09:52:41Z</time>
      </trkpt>
      <trkpt lat="44.06597" lon="7.02247">
        <ele>1906.7</ele>
        <time>2012-12-28T09:52:42Z</time>
      </trkpt>
      <trkpt lat="44.06591" lon="7.02247">
        <ele>1905.6</ele>
        <time>2012-12-28T09:52:48Z</time>
      </trkpt>
      <trkpt lat="44.06589" lon="7.02247">
        <ele>1905.2</ele>
        <time>2012-12-28T09:52:51Z</time>
      </trkpt>
      <trkpt lat="44.06588" lon="7.02247">
        <ele>1905.2</ele>
        <time>2012-12-28T09:52:52Z</time>
      </trkpt>
      <trkpt lat="44.06585" lon="7.02247">
        <ele>1904.8</ele>
        <time>2012-12-28T09:52:55Z</time>
      </trkpt>
      <trkpt lat="44.06581" lon="7.02247">
        <ele>1903.6</ele>
        <time>2012-12-28T09:53:00Z</time>
      </trkpt>
      <trkpt lat="44.0658" lon="7.02247">
        <ele>1903.5</ele>
        <time>2012-12-28T09:53:01Z</time>
      </trkpt>
      <trkpt lat="44.06575" lon="7.02246">
        <ele>1902</ele>
        <time>2012-12-28T09:53:10Z</time>
      </trkpt>
      <trkpt lat="44.06576" lon="7.02244">
        <ele>1902</ele>
        <time>2012-12-28T09:53:11Z</time>
      </trkpt>
      <trkpt lat="44.06576" lon="7.02243">
        <ele>1901.7</ele>
        <time>2012-12-28T09:53:12Z</time>
      </trkpt>
      <trkpt lat="44.06573" lon="7.02239">
        <ele>1900.9</ele>
        <time>2012-12-28T09:53:17Z</time>
      </trkpt>
      <trkpt lat="44.06573" lon="7.02238">
        <ele>1900.7</ele>
        <time>2012-12-28T09:53:18Z</time>
      </trkpt>
      <trkpt lat="44.06572" lon="7.02238">
        <ele>1900.4</ele>
        <time>2012-12-28T09:53:19Z</time>
      </trkpt>
      <trkpt lat="44.06571" lon="7.02239">
        <ele>1900.3</ele>
        <time>2012-12-28T09:53:20Z</time>
      </trkpt>
      <trkpt lat="44.0657" lon="7.02238">
        <ele>1900.1</ele>
        <time>2012-12-28T09:53:21Z</time>
      </trkpt>
      <trkpt lat="44.06564" lon="7.02237">
        <ele>1899.1</ele>
        <time>2012-12-28T09:53:26Z</time>
      </trkpt>
      <trkpt lat="44.06563" lon="7.02237">
        <ele>1899</ele>
        <time>2012-12-28T09:53:27Z</time>
      </trkpt>
      <trkpt lat="44.06556" lon="7.02236">
        <ele>1898</ele>
        <time>2012-12-28T09:53:37Z</time>
      </trkpt>
      <trkpt lat="44.06553" lon="7.02235">
        <ele>1897.3</ele>
        <time>2012-12-28T09:53:41Z</time>
      </trkpt>
      <trkpt lat="44.06552" lon="7.02234">
        <ele>1897.3</ele>
        <time>2012-12-28T09:53:42Z</time>
      </trkpt>
      <trkpt lat="44.0655" lon="7.02232">
        <ele>1896.3</ele>
        <time>2012-12-28T09:53:45Z</time>
      </trkpt>
      <trkpt lat="44.06541" lon="7.02223">
        <ele>1894.6</ele>
        <time>2012-12-28T09:54:00Z</time>
      </trkpt>
      <trkpt lat="44.06541" lon="7.02222">
        <ele>1894.5</ele>
        <time>2012-12-28T09:54:01Z</time>
      </trkpt>
      <trkpt lat="44.06539" lon="7.0222">
        <ele>1893.8</ele>
        <time>2012-12-28T09:54:04Z</time>
      </trkpt>
      <trkpt lat="44.06506" lon="7.02178">
        <ele>1886.1</ele>
        <time>2012-12-28T09:55:22Z</time>
      </trkpt>
      <trkpt lat="44.06505" lon="7.02176">
        <ele>1885.9</ele>
        <time>2012-12-28T09:55:23Z</time>
      </trkpt>
      <trkpt lat="44.06504" lon="7.02174">
        <ele>1885.9</ele>
        <time>2012-12-28T09:55:25Z</time>
      </trkpt>
      <trkpt lat="44.06503" lon="7.02174">
        <ele>1885.7</ele>
        <time>2012-12-28T09:55:26Z</time>
      </trkpt>
      <trkpt lat="44.06503" lon="7.02173">
        <ele>1885.7</ele>
        <time>2012-12-28T09:55:27Z</time>
      </trkpt>
      <trkpt lat="44.06502" lon="7.02172">
        <ele>1885.6</ele>
        <time>2012-12-28T09:55:28Z</time>
      </trkpt>
      <trkpt lat="44.06501" lon="7.02171">
        <ele>1885.2</ele>
        <time>2012-12-28T09:55:29Z</time>
      </trkpt>
      <trkpt lat="44.0649" lon="7.02151">
        <ele>1882</ele>
        <time>2012-12-28T09:55:49Z</time>
      </trkpt>
      <trkpt lat="44.06488" lon="7.02147">
        <ele>1882</ele>
        <time>2012-12-28T09:55:53Z</time>
      </trkpt>
      <trkpt lat="44.06487" lon="7.02146">
        <ele>1881.9</ele>
        <time>2012-12-28T09:55:54Z</time>
      </trkpt>
      <trkpt lat="44.06486" lon="7.02145">
        <ele>1881.6</ele>
        <time>2012-12-28T09:55:55Z</time>
      </trkpt>
      <trkpt lat="44.06479" lon="7.02136">
        <ele>1880.1</ele>
        <time>2012-12-28T09:56:04Z</time>
      </trkpt>
      <trkpt lat="44.06478" lon="7.02135">
        <ele>1880</ele>
        <time>2012-12-28T09:56:05Z</time>
      </trkpt>
      <trkpt lat="44.06477" lon="7.02134">
        <ele>1879.8</ele>
        <time>2012-12-28T09:56:06Z</time>
      </trkpt>
      <trkpt lat="44.06476" lon="7.02134">
        <ele>1879.7</ele>
        <time>2012-12-28T09:56:07Z</time>
      </trkpt>
      <trkpt lat="44.06476" lon="7.02133">
        <ele>1879.5</ele>
        <time>2012-12-28T09:56:08Z</time>
      </trkpt>
      <trkpt lat="44.06474" lon="7.02131">
        <ele>1878.9</ele>
        <time>2012-12-28T09:56:10Z</time>
      </trkpt>
      <trkpt lat="44.06474" lon="7.0213">
        <ele>1879</ele>
        <time>2012-12-28T09:56:11Z</time>
      </trkpt>
      <trkpt lat="44.06473" lon="7.0213">
        <ele>1879.1</ele>
        <time>2012-12-28T09:56:12Z</time>
      </trkpt>
      <trkpt lat="44.06472" lon="7.0213">
        <ele>1879.4</ele>
        <time>2012-12-28T09:56:13Z</time>
      </trkpt>
      <trkpt lat="44.06471" lon="7.02129">
        <ele>1879.2</ele>
        <time>2012-12-28T09:56:14Z</time>
      </trkpt>
      <trkpt lat="44.06464" lon="7.02126">
        <ele>1879.3</ele>
        <time>2012-12-28T09:56:21Z</time>
      </trkpt>
      <trkpt lat="44.06462" lon="7.02121">
        <ele>1879.4</ele>
        <time>2012-12-28T09:56:27Z</time>
      </trkpt>
      <trkpt lat="44.06462" lon="7.0212">
        <ele>1879.2</ele>
        <time>2012-12-28T09:56:28Z</time>
      </trkpt>
      <trkpt lat="44.06462" lon="7.02118">
        <ele>1878.8</ele>
        <time>2012-12-28T09:56:30Z</time>
      </trkpt>
      <trkpt lat="44.06462" lon="7.02117">
        <ele>1878.7</ele>
        <time>2012-12-28T09:56:31Z</time>
      </trkpt>
      <trkpt lat="44.06461" lon="7.02115">
        <ele>1878.7</ele>
        <time>2012-12-28T09:56:32Z</time>
      </trkpt>
      <trkpt lat="44.06461" lon="7.02114">
        <ele>1878.8</ele>
        <time>2012-12-28T09:56:33Z</time>
      </trkpt>
      <trkpt lat="44.0646" lon="7.02113">
        <ele>1878.6</ele>
        <time>2012-12-28T09:56:34Z</time>
      </trkpt>
      <trkpt lat="44.06459" lon="7.02112">
        <ele>1878.6</ele>
        <time>2012-12-28T09:56:35Z</time>
      </trkpt>
      <trkpt lat="44.06459" lon="7.02112">
        <ele>1878.1</ele>
        <time>2012-12-28T09:56:36Z</time>
      </trkpt>
      <trkpt lat="44.06458" lon="7.02111">
        <ele>1877.8</ele>
        <time>2012-12-28T09:56:37Z</time>
      </trkpt>
      <trkpt lat="44.06452" lon="7.02104">
        <ele>1876.7</ele>
        <time>2012-12-28T09:56:45Z</time>
      </trkpt>
      <trkpt lat="44.06449" lon="7.02099">
        <ele>1876.4</ele>
        <time>2012-12-28T09:56:51Z</time>
      </trkpt>
      <trkpt lat="44.06448" lon="7.02098">
        <ele>1876.5</ele>
        <time>2012-12-28T09:56:52Z</time>
      </trkpt>
      <trkpt lat="44.06446" lon="7.02097">
        <ele>1876.2</ele>
        <time>2012-12-28T09:56:54Z</time>
      </trkpt>
      <trkpt lat="44.06445" lon="7.02096">
        <ele>1875.8</ele>
        <time>2012-12-28T09:56:55Z</time>
      </trkpt>
      <trkpt lat="44.06445" lon="7.02094">
        <ele>1875.6</ele>
        <time>2012-12-28T09:56:56Z</time>
      </trkpt>
      <trkpt lat="44.06442" lon="7.02088">
        <ele>1876</ele>
        <time>2012-12-28T09:57:03Z</time>
      </trkpt>
      <trkpt lat="44.06441" lon="7.02087">
        <ele>1876.1</ele>
        <time>2012-12-28T09:57:04Z</time>
      </trkpt>
      <trkpt lat="44.06439" lon="7.02086">
        <ele>1875.6</ele>
        <time>2012-12-28T09:57:06Z</time>
      </trkpt>
      <trkpt lat="44.06438" lon="7.02084">
        <ele>1875.4</ele>
        <time>2012-12-28T09:57:08Z</time>
      </trkpt>
      <trkpt lat="44.06433" lon="7.02076">
        <ele>1875.3</ele>
        <time>2012-12-28T09:57:15Z</time>
      </trkpt>
      <trkpt lat="44.06432" lon="7.02074">
        <ele>1874.8</ele>
        <time>2012-12-28T09:57:17Z</time>
      </trkpt>
      <trkpt lat="44.06431" lon="7.02073">
        <ele>1874.6</ele>
        <time>2012-12-28T09:57:18Z</time>
      </trkpt>
      <trkpt lat="44.06423" lon="7.02062">
        <ele>1874.2</ele>
        <time>2012-12-28T09:57:30Z</time>
      </trkpt>
      <trkpt lat="44.06423" lon="7.02061">
        <ele>1874</ele>
        <time>2012-12-28T09:57:31Z</time>
      </trkpt>
      <trkpt lat="44.06416" lon="7.02053">
        <ele>1873.5</ele>
        <time>2012-12-28T09:57:42Z</time>
      </trkpt>
      <trkpt lat="44.06416" lon="7.02052">
        <ele>1873.7</ele>
        <time>2012-12-28T09:57:43Z</time>
      </trkpt>
      <trkpt lat="44.06416" lon="7.02052">
        <ele>1873.7</ele>
        <time>2012-12-28T09:57:44Z</time>
      </trkpt>
      <trkpt lat="44.06415" lon="7.02051">
        <ele>1873.7</ele>
        <time>2012-12-28T09:57:45Z</time>
      </trkpt>
      <trkpt lat="44.06415" lon="7.02051">
        <ele>1873.6</ele>
        <time>2012-12-28T09:57:46Z</time>
      </trkpt>
      <trkpt lat="44.06414" lon="7.02049">
        <ele>1873.7</ele>
        <time>2012-12-28T09:57:47Z</time>
      </trkpt>
      <trkpt lat="44.06414" lon="7.02048">
        <ele>1873.8</ele>
        <time>2012-12-28T09:57:48Z</time>
      </trkpt>
      <trkpt lat="44.06413" lon="7.02048">
        <ele>1873.7</ele>
        <time>2012-12-28T09:57:49Z</time>
      </trkpt>
      <trkpt lat="44.06412" lon="7.02047">
        <ele>1873.6</ele>
        <time>2012-12-28T09:57:50Z</time>
      </trkpt>
      <trkpt lat="44.06411" lon="7.02046">
        <ele>1873.3</ele>
        <time>2012-12-28T09:57:51Z</time>
      </trkpt>
      <trkpt lat="44.06411" lon="7.02045">
        <ele>1873.3</ele>
        <time>2012-12-28T09:57:52Z</time>
      </trkpt>
      <trkpt lat="44.06407" lon="7.02039">
        <ele>1872.2</ele>
        <time>2012-12-28T09:57:58Z</time>
      </trkpt>
      <trkpt lat="44.06407" lon="7.02038">
        <ele>1872.3</ele>
        <time>2012-12-28T09:57:59Z</time>
      </trkpt>
      <trkpt lat="44.06404" lon="7.02034">
        <ele>1872.1</ele>
        <time>2012-12-28T09:58:03Z</time>
      </trkpt>
      <trkpt lat="44.06404" lon="7.02033">
        <ele>1871.9</ele>
        <time>2012-12-28T09:58:04Z</time>
      </trkpt>
      <trkpt lat="44.06403" lon="7.02032">
        <ele>1872</ele>
        <time>2012-12-28T09:58:05Z</time>
      </trkpt>
      <trkpt lat="44.06403" lon="7.02031">
        <ele>1872</ele>
        <time>2012-12-28T09:58:06Z</time>
      </trkpt>
      <trkpt lat="44.06401" lon="7.0203">
        <ele>1871.3</ele>
        <time>2012-12-28T09:58:08Z</time>
      </trkpt>
      <trkpt lat="44.06398" lon="7.02026">
        <ele>1871.4</ele>
        <time>2012-12-28T09:58:12Z</time>
      </trkpt>
      <trkpt lat="44.06398" lon="7.02025">
        <ele>1871.4</ele>
        <time>2012-12-28T09:58:13Z</time>
      </trkpt>
      <trkpt lat="44.06384" lon="7.01995">
        <ele>1873.8</ele>
        <time>2012-12-28T09:58:49Z</time>
      </trkpt>
      <trkpt lat="44.06384" lon="7.01994">
        <ele>1874</ele>
        <time>2012-12-28T09:58:50Z</time>
      </trkpt>
      <trkpt lat="44.06384" lon="7.01993">
        <ele>1874</ele>
        <time>2012-12-28T09:58:51Z</time>
      </trkpt>
      <trkpt lat="44.06384" lon="7.01992">
        <ele>1874</ele>
        <time>2012-12-28T09:58:52Z</time>
      </trkpt>
      <trkpt lat="44.06383" lon="7.01991">
        <ele>1873.9</ele>
        <time>2012-12-28T09:58:53Z</time>
      </trkpt>
      <trkpt lat="44.06382" lon="7.0199">
        <ele>1874.1</ele>
        <time>2012-12-28T09:58:54Z</time>
      </trkpt>
      <trkpt lat="44.06382" lon="7.0199">
        <ele>1874.1</ele>
        <time>2012-12-28T09:58:55Z</time>
      </trkpt>
      <trkpt lat="44.06381" lon="7.01989">
        <ele>1874</ele>
        <time>2012-12-28T09:58:56Z</time>
      </trkpt>
      <trkpt lat="44.06366" lon="7.01971">
        <ele>1874.7</ele>
        <time>2012-12-28T09:59:25Z</time>
      </trkpt>
      <trkpt lat="44.06365" lon="7.0197">
        <ele>1875</ele>
        <time>2012-12-28T09:59:26Z</time>
      </trkpt>
      <trkpt lat="44.06364" lon="7.01969">
        <ele>1875</ele>
        <time>2012-12-28T09:59:27Z</time>
      </trkpt>
      <trkpt lat="44.06364" lon="7.01969">
        <ele>1875.1</ele>
        <time>2012-12-28T09:59:28Z</time>
      </trkpt>
      <trkpt lat="44.06364" lon="7.01968">
        <ele>1875</ele>
        <time>2012-12-28T09:59:29Z</time>
      </trkpt>
      <trkpt lat="44.06363" lon="7.01967">
        <ele>1874.9</ele>
        <time>2012-12-28T09:59:30Z</time>
      </trkpt>
      <trkpt lat="44.06362" lon="7.01966">
        <ele>1874.9</ele>
        <time>2012-12-28T09:59:31Z</time>
      </trkpt>
      <trkpt lat="44.06356" lon="7.01956">
        <ele>1876.7</ele>
        <time>2012-12-28T09:59:52Z</time>
      </trkpt>
      <trkpt lat="44.06355" lon="7.01955">
        <ele>1876.8</ele>
        <time>2012-12-28T09:59:53Z</time>
      </trkpt>
      <trkpt lat="44.06354" lon="7.01954">
        <ele>1876.8</ele>
        <time>2012-12-28T09:59:54Z</time>
      </trkpt>
      <trkpt lat="44.06346" lon="7.01939">
        <ele>1878.9</ele>
        <time>2012-12-28T10:00:12Z</time>
      </trkpt>
      <trkpt lat="44.06346" lon="7.01938">
        <ele>1879.2</ele>
        <time>2012-12-28T10:00:13Z</time>
      </trkpt>
      <trkpt lat="44.06344" lon="7.01936">
        <ele>1879.2</ele>
        <time>2012-12-28T10:00:16Z</time>
      </trkpt>
      <trkpt lat="44.06341" lon="7.01929">
        <ele>1879.5</ele>
        <time>2012-12-28T10:00:23Z</time>
      </trkpt>
      <trkpt lat="44.06341" lon="7.01929">
        <ele>1879.5</ele>
        <time>2012-12-28T10:00:24Z</time>
      </trkpt>
      <trkpt lat="44.06341" lon="7.01929">
        <ele>1879.5</ele>
        <time>2012-12-28T10:00:25Z</time>
      </trkpt>
      <trkpt lat="44.06341" lon="7.01929">
        <ele>1879.5</ele>
        <time>2012-12-28T10:00:26Z</time>
      </trkpt>
      <trkpt lat="44.06341" lon="7.01929">
        <ele>1879.5</ele>
        <time>2012-12-28T10:00:27Z</time>
      </trkpt>
      <trkpt lat="44.06341" lon="7.01929">
        <ele>1879.5</ele>
        <time>2012-12-28T10:00:28Z</time>
      </trkpt>
      <trkpt lat="44.06341" lon="7.01929">
        <ele>1879.5</ele>
        <time>2012-12-28T10:00:29Z</time>
      </trkpt>
      <trkpt lat="44.06341" lon="7.01928">
        <ele>1879.3</ele>
        <time>2012-12-28T10:00:30Z</time>
      </trkpt>
      <trkpt lat="44.0634" lon="7.01928">
        <ele>1879.3</ele>
        <time>2012-12-28T10:00:31Z</time>
      </trkpt>
      <trkpt lat="44.06339" lon="7.01926">
        <ele>1879.2</ele>
        <time>2012-12-28T10:00:33Z</time>
      </trkpt>
      <trkpt lat="44.06337" lon="7.01925">
        <ele>1879.2</ele>
        <time>2012-12-28T10:00:37Z</time>
      </trkpt>
      <trkpt lat="44.06336" lon="7.01924">
        <ele>1878.9</ele>
        <time>2012-12-28T10:00:38Z</time>
      </trkpt>
      <trkpt lat="44.06335" lon="7.01923">
        <ele>1878.8</ele>
        <time>2012-12-28T10:00:39Z</time>
      </trkpt>
      <trkpt lat="44.06335" lon="7.01922">
        <ele>1879.1</ele>
        <time>2012-12-28T10:00:40Z</time>
      </trkpt>
      <trkpt lat="44.06334" lon="7.01921">
        <ele>1879.4</ele>
        <time>2012-12-28T10:00:41Z</time>
      </trkpt>
      <trkpt lat="44.06326" lon="7.01909">
        <ele>1879.1</ele>
        <time>2012-12-28T10:00:55Z</time>
      </trkpt>
      <trkpt lat="44.06326" lon="7.01908">
        <ele>1879.4</ele>
        <time>2012-12-28T10:00:56Z</time>
      </trkpt>
      <trkpt lat="44.06316" lon="7.01899">
        <ele>1879.7</ele>
        <time>2012-12-28T10:01:13Z</time>
      </trkpt>
      <trkpt lat="44.06315" lon="7.01898">
        <ele>1880.1</ele>
        <time>2012-12-28T10:01:14Z</time>
      </trkpt>
      <trkpt lat="44.06314" lon="7.01898">
        <ele>1880.1</ele>
        <time>2012-12-28T10:01:15Z</time>
      </trkpt>
      <trkpt lat="44.06306" lon="7.0189">
        <ele>1881.3</ele>
        <time>2012-12-28T10:01:29Z</time>
      </trkpt>
      <trkpt lat="44.06298" lon="7.01882">
        <ele>1882.5</ele>
        <time>2012-12-28T10:01:43Z</time>
      </trkpt>
      <trkpt lat="44.06297" lon="7.01881">
        <ele>1882.4</ele>
        <time>2012-12-28T10:01:44Z</time>
      </trkpt>
      <trkpt lat="44.06296" lon="7.0188">
        <ele>1882.7</ele>
        <time>2012-12-28T10:01:45Z</time>
      </trkpt>
      <trkpt lat="44.06296" lon="7.0188">
        <ele>1882.7</ele>
        <time>2012-12-28T10:01:46Z</time>
      </trkpt>
      <trkpt lat="44.06296" lon="7.0188">
        <ele>1882.6</ele>
        <time>2012-12-28T10:01:47Z</time>
      </trkpt>
      <trkpt lat="44.06293" lon="7.01877">
        <ele>1882.6</ele>
        <time>2012-12-28T10:01:51Z</time>
      </trkpt>
      <trkpt lat="44.06267" lon="7.01848">
        <ele>1884.9</ele>
        <time>2012-12-28T10:02:47Z</time>
      </trkpt>
      <trkpt lat="44.06266" lon="7.01847">
        <ele>1885.1</ele>
        <time>2012-12-28T10:02:48Z</time>
      </trkpt>
      <trkpt lat="44.06266" lon="7.01846">
        <ele>1885.3</ele>
        <time>2012-12-28T10:02:49Z</time>
      </trkpt>
      <trkpt lat="44.06265" lon="7.01845">
        <ele>1885.2</ele>
        <time>2012-12-28T10:02:50Z</time>
      </trkpt>
      <trkpt lat="44.06265" lon="7.01844">
        <ele>1885.4</ele>
        <time>2012-12-28T10:02:51Z</time>
      </trkpt>
      <trkpt lat="44.06264" lon="7.01844">
        <ele>1885.5</ele>
        <time>2012-12-28T10:02:52Z</time>
      </trkpt>
      <trkpt lat="44.06259" lon="7.0184">
        <ele>1886</ele>
        <time>2012-12-28T10:02:58Z</time>
      </trkpt>
      <trkpt lat="44.06255" lon="7.01835">
        <ele>1886.7</ele>
        <time>2012-12-28T10:03:05Z</time>
      </trkpt>
      <trkpt lat="44.06247" lon="7.01824">
        <ele>1886</ele>
        <time>2012-12-28T10:03:32Z</time>
      </trkpt>
      <trkpt lat="44.0624" lon="7.01811">
        <ele>1886.1</ele>
        <time>2012-12-28T10:03:48Z</time>
      </trkpt>
      <trkpt lat="44.0624" lon="7.01811">
        <ele>1886.1</ele>
        <time>2012-12-28T10:03:49Z</time>
      </trkpt>
      <trkpt lat="44.06237" lon="7.01803">
        <ele>1885.9</ele>
        <time>2012-12-28T10:03:57Z</time>
      </trkpt>
      <trkpt lat="44.06237" lon="7.01803">
        <ele>1886</ele>
        <time>2012-12-28T10:03:58Z</time>
      </trkpt>
      <trkpt lat="44.06227" lon="7.01785">
        <ele>1888.6</ele>
        <time>2012-12-28T10:04:32Z</time>
      </trkpt>
      <trkpt lat="44.06226" lon="7.01785">
        <ele>1888.6</ele>
        <time>2012-12-28T10:04:33Z</time>
      </trkpt>
      <trkpt lat="44.06225" lon="7.01784">
        <ele>1888.5</ele>
        <time>2012-12-28T10:04:34Z</time>
      </trkpt>
      <trkpt lat="44.06207" lon="7.01746">
        <ele>1892.3</ele>
        <time>2012-12-28T10:05:15Z</time>
      </trkpt>
      <trkpt lat="44.06206" lon="7.01745">
        <ele>1892.2</ele>
        <time>2012-12-28T10:05:16Z</time>
      </trkpt>
      <trkpt lat="44.06198" lon="7.01731">
        <ele>1894.1</ele>
        <time>2012-12-28T10:05:38Z</time>
      </trkpt>
      <trkpt lat="44.06197" lon="7.01731">
        <ele>1894.2</ele>
        <time>2012-12-28T10:05:39Z</time>
      </trkpt>
      <trkpt lat="44.06196" lon="7.0173">
        <ele>1894.2</ele>
        <time>2012-12-28T10:05:40Z</time>
      </trkpt>
      <trkpt lat="44.06196" lon="7.01729">
        <ele>1894.2</ele>
        <time>2012-12-28T10:05:41Z</time>
      </trkpt>
      <trkpt lat="44.06194" lon="7.01723">
        <ele>1895.4</ele>
        <time>2012-12-28T10:05:49Z</time>
      </trkpt>
      <trkpt lat="44.06193" lon="7.01722">
        <ele>1895.6</ele>
        <time>2012-12-28T10:05:50Z</time>
      </trkpt>
      <trkpt lat="44.06192" lon="7.01713">
        <ele>1896.9</ele>
        <time>2012-12-28T10:06:00Z</time>
      </trkpt>
      <trkpt lat="44.06192" lon="7.01712">
        <ele>1897</ele>
        <time>2012-12-28T10:06:01Z</time>
      </trkpt>
      <trkpt lat="44.06191" lon="7.01711">
        <ele>1897.1</ele>
        <time>2012-12-28T10:06:02Z</time>
      </trkpt>
      <trkpt lat="44.06191" lon="7.01711">
        <ele>1897.1</ele>
        <time>2012-12-28T10:06:03Z</time>
      </trkpt>
      <trkpt lat="44.06191" lon="7.01711">
        <ele>1897.1</ele>
        <time>2012-12-28T10:06:04Z</time>
      </trkpt>
      <trkpt lat="44.06191" lon="7.01711">
        <ele>1897.1</ele>
        <time>2012-12-28T10:06:05Z</time>
      </trkpt>
      <trkpt lat="44.06191" lon="7.0171">
        <ele>1897.2</ele>
        <time>2012-12-28T10:06:06Z</time>
      </trkpt>
      <trkpt lat="44.06191" lon="7.01709">
        <ele>1897.3</ele>
        <time>2012-12-28T10:06:07Z</time>
      </trkpt>
      <trkpt lat="44.06191" lon="7.01708">
        <ele>1897.3</ele>
        <time>2012-12-28T10:06:08Z</time>
      </trkpt>
      <trkpt lat="44.0619" lon="7.01707">
        <ele>1897.3</ele>
        <time>2012-12-28T10:06:09Z</time>
      </trkpt>
      <trkpt lat="44.0618" lon="7.01693">
        <ele>1898.9</ele>
        <time>2012-12-28T10:06:31Z</time>
      </trkpt>
      <trkpt lat="44.06179" lon="7.01692">
        <ele>1898.9</ele>
        <time>2012-12-28T10:06:32Z</time>
      </trkpt>
      <trkpt lat="44.06179" lon="7.01691">
        <ele>1899.1</ele>
        <time>2012-12-28T10:06:33Z</time>
      </trkpt>
      <trkpt lat="44.06177" lon="7.01687">
        <ele>1899.2</ele>
        <time>2012-12-28T10:06:41Z</time>
      </trkpt>
      <trkpt lat="44.06176" lon="7.01686">
        <ele>1899.3</ele>
        <time>2012-12-28T10:06:42Z</time>
      </trkpt>
      <trkpt lat="44.06176" lon="7.01685">
        <ele>1899.5</ele>
        <time>2012-12-28T10:06:43Z</time>
      </trkpt>
      <trkpt lat="44.06175" lon="7.01683">
        <ele>1899.6</ele>
        <time>2012-12-28T10:06:45Z</time>
      </trkpt>
      <trkpt lat="44.06167" lon="7.01671">
        <ele>1903.5</ele>
        <time>2012-12-28T10:07:04Z</time>
      </trkpt>
      <trkpt lat="44.06166" lon="7.0167">
        <ele>1903.6</ele>
        <time>2012-12-28T10:07:05Z</time>
      </trkpt>
      <trkpt lat="44.06163" lon="7.01666">
        <ele>1904</ele>
        <time>2012-12-28T10:07:12Z</time>
      </trkpt>
      <trkpt lat="44.06162" lon="7.01664">
        <ele>1904.3</ele>
        <time>2012-12-28T10:07:13Z</time>
      </trkpt>
      <trkpt lat="44.0616" lon="7.01662">
        <ele>1904.8</ele>
        <time>2012-12-28T10:07:16Z</time>
      </trkpt>
      <trkpt lat="44.06137" lon="7.01512">
        <ele>1924.6</ele>
        <time>2012-12-28T10:11:42Z</time>
      </trkpt>
      <trkpt lat="44.06136" lon="7.01511">
        <ele>1924.8</ele>
        <time>2012-12-28T10:11:43Z</time>
      </trkpt>
      <trkpt lat="44.06136" lon="7.01511">
        <ele>1924.7</ele>
        <time>2012-12-28T10:11:44Z</time>
      </trkpt>
      <trkpt lat="44.06135" lon="7.0151">
        <ele>1924.7</ele>
        <time>2012-12-28T10:11:45Z</time>
      </trkpt>
      <trkpt lat="44.06135" lon="7.01509">
        <ele>1924.6</ele>
        <time>2012-12-28T10:11:46Z</time>
      </trkpt>
      <trkpt lat="44.06135" lon="7.01508">
        <ele>1924.6</ele>
        <time>2012-12-28T10:11:47Z</time>
      </trkpt>
      <trkpt lat="44.06134" lon="7.01507">
        <ele>1924.9</ele>
        <time>2012-12-28T10:11:48Z</time>
      </trkpt>
      <trkpt lat="44.06134" lon="7.01506">
        <ele>1924.7</ele>
        <time>2012-12-28T10:11:49Z</time>
      </trkpt>
      <trkpt lat="44.06075" lon="7.01387">
        <ele>1950.8</ele>
        <time>2012-12-28T10:16:43Z</time>
      </trkpt>
      <trkpt lat="44.06074" lon="7.01387">
        <ele>1951</ele>
        <time>2012-12-28T10:16:44Z</time>
      </trkpt>
      <trkpt lat="44.06066" lon="7.01382">
        <ele>1952.9</ele>
        <time>2012-12-28T10:16:56Z</time>
      </trkpt>
      <trkpt lat="44.06066" lon="7.01382">
        <ele>1952.9</ele>
        <time>2012-12-28T10:16:57Z</time>
      </trkpt>
      <trkpt lat="44.06066" lon="7.01382">
        <ele>1953.3</ele>
        <time>2012-12-28T10:16:58Z</time>
      </trkpt>
      <trkpt lat="44.06066" lon="7.01382">
        <ele>1953.3</ele>
        <time>2012-12-28T10:16:59Z</time>
      </trkpt>
      <trkpt lat="44.06066" lon="7.01382">
        <ele>1953.3</ele>
        <time>2012-12-28T10:17:00Z</time>
      </trkpt>
      <trkpt lat="44.06066" lon="7.01382">
        <ele>1953.3</ele>
        <time>2012-12-28T10:17:01Z</time>
      </trkpt>
      <trkpt lat="44.06066" lon="7.01381">
        <ele>1953.3</ele>
        <time>2012-12-28T10:17:02Z</time>
      </trkpt>
      <trkpt lat="44.06066" lon="7.0138">
        <ele>1953.1</ele>
        <time>2012-12-28T10:17:03Z</time>
      </trkpt>
      <trkpt lat="44.06065" lon="7.0138">
        <ele>1953.3</ele>
        <time>2012-12-28T10:17:04Z</time>
      </trkpt>
      <trkpt lat="44.06065" lon="7.0138">
        <ele>1953.3</ele>
        <time>2012-12-28T10:17:05Z</time>
      </trkpt>
      <trkpt lat="44.06065" lon="7.0138">
        <ele>1953.3</ele>
        <time>2012-12-28T10:17:06Z</time>
      </trkpt>
      <trkpt lat="44.06065" lon="7.01379">
        <ele>1953.1</ele>
        <time>2012-12-28T10:17:07Z</time>
      </trkpt>
      <trkpt lat="44.06065" lon="7.01379">
        <ele>1953.2</ele>
        <time>2012-12-28T10:17:08Z</time>
      </trkpt>
      <trkpt lat="44.06065" lon="7.01378">
        <ele>1953.4</ele>
        <time>2012-12-28T10:17:09Z</time>
      </trkpt>
      <trkpt lat="44.06065" lon="7.01377">
        <ele>1953.5</ele>
        <time>2012-12-28T10:17:10Z</time>
      </trkpt>
      <trkpt lat="44.06065" lon="7.01377">
        <ele>1953.5</ele>
        <time>2012-12-28T10:17:11Z</time>
      </trkpt>
      <trkpt lat="44.06065" lon="7.01376">
        <ele>1953.9</ele>
        <time>2012-12-28T10:17:12Z</time>
      </trkpt>
      <trkpt lat="44.06064" lon="7.01376">
        <ele>1954</ele>
        <time>2012-12-28T10:17:13Z</time>
      </trkpt>
      <trkpt lat="44.06064" lon="7.01376">
        <ele>1954</ele>
        <time>2012-12-28T10:17:14Z</time>
      </trkpt>
      <trkpt lat="44.06064" lon="7.01376">
        <ele>1954</ele>
        <time>2012-12-28T10:17:15Z</time>
      </trkpt>
      <trkpt lat="44.06064" lon="7.01376">
        <ele>1954</ele>
        <time>2012-12-28T10:17:16Z</time>
      </trkpt>
      <trkpt lat="44.06064" lon="7.01376">
        <ele>1954</ele>
        <time>2012-12-28T10:17:17Z</time>
      </trkpt>
      <trkpt lat="44.06064" lon="7.01376">
        <ele>1954</ele>
        <time>2012-12-28T10:17:18Z</time>
      </trkpt>
      <trkpt lat="44.06064" lon="7.01376">
        <ele>1954</ele>
        <time>2012-12-28T10:17:19Z</time>
      </trkpt>
      <trkpt lat="44.06064" lon="7.01376">
        <ele>1954</ele>
        <time>2012-12-28T10:17:20Z</time>
      </trkpt>
      <trkpt lat="44.06064" lon="7.01376">
        <ele>1954</ele>
        <time>2012-12-28T10:17:21Z</time>
      </trkpt>
      <trkpt lat="44.06064" lon="7.01376">
        <ele>1954</ele>
        <time>2012-12-28T10:17:22Z</time>
      </trkpt>
      <trkpt lat="44.06064" lon="7.01376">
        <ele>1954</ele>
        <time>2012-12-28T10:17:23Z</time>
      </trkpt>
      <trkpt lat="44.06064" lon="7.01376">
        <ele>1954</ele>
        <time>2012-12-28T10:17:24Z</time>
      </trkpt>
      <trkpt lat="44.06064" lon="7.01376">
        <ele>1954</ele>
        <time>2012-12-28T10:17:25Z</time>
      </trkpt>
      <trkpt lat="44.06064" lon="7.01376">
        <ele>1954</ele>
        <time>2012-12-28T10:17:26Z</time>
      </trkpt>
      <trkpt lat="44.06064" lon="7.01376">
        <ele>1954</ele>
        <time>2012-12-28T10:17:27Z</time>
      </trkpt>
      <trkpt lat="44.06064" lon="7.01376">
        <ele>1954</ele>
        <time>2012-12-28T10:17:28Z</time>
      </trkpt>
      <trkpt lat="44.06064" lon="7.01376">
        <ele>1954</ele>
        <time>2012-12-28T10:17:29Z</time>
      </trkpt>
      <trkpt lat="44.06064" lon="7.01376">
        <ele>1954</ele>
        <time>2012-12-28T10:17:30Z</time>
      </trkpt>
      <trkpt lat="44.06064" lon="7.01376">
        <ele>1954</ele>
        <time>2012-12-28T10:17:31Z</time>
      </trkpt>
      <trkpt lat="44.06064" lon="7.01376">
        <ele>1954</ele>
        <time>2012-12-28T10:17:32Z</time>
      </trkpt>
      <trkpt lat="44.06064" lon="7.01376">
        <ele>1954</ele>
        <time>2012-12-28T10:17:33Z</time>
      </trkpt>
      <trkpt lat="44.06064" lon="7.01376">
        <ele>1954</ele>
        <time>2012-12-28T10:17:34Z</time>
      </trkpt>
      <trkpt lat="44.06064" lon="7.01376">
        <ele>1954</ele>
        <time>2012-12-28T10:17:35Z</time>
      </trkpt>
      <trkpt lat="44.06064" lon="7.01376">
        <ele>1954</ele>
        <time>2012-12-28T10:17:36Z</time>
      </trkpt>
      <trkpt lat="44.06064" lon="7.01376">
        <ele>1954</ele>
        <time>2012-12-28T10:17:37Z</time>
      </trkpt>
      <trkpt lat="44.06064" lon="7.01376">
        <ele>1954</ele>
        <time>2012-12-28T10:17:38Z</time>
      </trkpt>
      <trkpt lat="44.06064" lon="7.01376">
        <ele>1954</ele>
        <time>2012-12-28T10:17:39Z</time>
      </trkpt>
      <trkpt lat="44.06064" lon="7.01376">
        <ele>1954</ele>
        <time>2012-12-28T10:17:40Z</time>
      </trkpt>
      <trkpt lat="44.06064" lon="7.01375">
        <ele>1954.3</ele>
        <time>2012-12-28T10:17:41Z</time>
      </trkpt>
      <trkpt lat="44.06063" lon="7.01374">
        <ele>1954.1</ele>
        <time>2012-12-28T10:17:42Z</time>
      </trkpt>
      <trkpt lat="44.06063" lon="7.01373">
        <ele>1954.2</ele>
        <time>2012-12-28T10:17:43Z</time>
      </trkpt>
      <trkpt lat="44.05974" lon="7.01342">
        <ele>1976.5</ele>
        <time>2012-12-28T10:23:21Z</time>
      </trkpt>
      <trkpt lat="44.05973" lon="7.01342">
        <ele>1976.8</ele>
        <time>2012-12-28T10:23:22Z</time>
      </trkpt>
      <trkpt lat="44.05972" lon="7.01342">
        <ele>1976.5</ele>
        <time>2012-12-28T10:23:24Z</time>
      </trkpt>
      <trkpt lat="44.0597" lon="7.01342">
        <ele>1976.4</ele>
        <time>2012-12-28T10:23:25Z</time>
      </trkpt>
      <trkpt lat="44.05958" lon="7.01339">
        <ele>1977.2</ele>
        <time>2012-12-28T10:23:39Z</time>
      </trkpt>
      <trkpt lat="44.05956" lon="7.01338">
        <ele>1977</ele>
        <time>2012-12-28T10:23:41Z</time>
      </trkpt>
      <trkpt lat="44.05953" lon="7.01336">
        <ele>1977.4</ele>
        <time>2012-12-28T10:23:44Z</time>
      </trkpt>
      <trkpt lat="44.05952" lon="7.01335">
        <ele>1977.6</ele>
        <time>2012-12-28T10:23:45Z</time>
      </trkpt>
      <trkpt lat="44.05949" lon="7.01333">
        <ele>1977.7</ele>
        <time>2012-12-28T10:23:49Z</time>
      </trkpt>
      <trkpt lat="44.05948" lon="7.01332">
        <ele>1977.9</ele>
        <time>2012-12-28T10:23:50Z</time>
      </trkpt>
      <trkpt lat="44.05946" lon="7.01331">
        <ele>1977.9</ele>
        <time>2012-12-28T10:23:53Z</time>
      </trkpt>
      <trkpt lat="44.05945" lon="7.01331">
        <ele>1978</ele>
        <time>2012-12-28T10:23:54Z</time>
      </trkpt>
      <trkpt lat="44.05943" lon="7.01329">
        <ele>1978.4</ele>
        <time>2012-12-28T10:23:58Z</time>
      </trkpt>
      <trkpt lat="44.05916" lon="7.01311">
        <ele>1982.9</ele>
        <time>2012-12-28T10:24:41Z</time>
      </trkpt>
      <trkpt lat="44.05915" lon="7.0131">
        <ele>1982.9</ele>
        <time>2012-12-28T10:24:42Z</time>
      </trkpt>
      <trkpt lat="44.05914" lon="7.01309">
        <ele>1982.8</ele>
        <time>2012-12-28T10:24:43Z</time>
      </trkpt>
      <trkpt lat="44.05913" lon="7.01308">
        <ele>1983.1</ele>
        <time>2012-12-28T10:24:44Z</time>
      </trkpt>
      <trkpt lat="44.05913" lon="7.01308">
        <ele>1983.5</ele>
        <time>2012-12-28T10:24:45Z</time>
      </trkpt>
      <trkpt lat="44.05911" lon="7.01306">
        <ele>1983.6</ele>
        <time>2012-12-28T10:24:47Z</time>
      </trkpt>
      <trkpt lat="44.05909" lon="7.01304">
        <ele>1984.5</ele>
        <time>2012-12-28T10:24:51Z</time>
      </trkpt>
      <trkpt lat="44.05909" lon="7.01304">
        <ele>1984.5</ele>
        <time>2012-12-28T10:24:52Z</time>
      </trkpt>
      <trkpt lat="44.05908" lon="7.01304">
        <ele>1984.6</ele>
        <time>2012-12-28T10:24:53Z</time>
      </trkpt>
      <trkpt lat="44.05907" lon="7.01303">
        <ele>1984.7</ele>
        <time>2012-12-28T10:24:54Z</time>
      </trkpt>
      <trkpt lat="44.05894" lon="7.01295">
        <ele>1986.9</ele>
        <time>2012-12-28T10:26:10Z</time>
      </trkpt>
      <trkpt lat="44.05893" lon="7.01294">
        <ele>1986.8</ele>
        <time>2012-12-28T10:26:11Z</time>
      </trkpt>
      <trkpt lat="44.0589" lon="7.01293">
        <ele>1987.2</ele>
        <time>2012-12-28T10:26:14Z</time>
      </trkpt>
      <trkpt lat="44.05881" lon="7.01289">
        <ele>1988.1</ele>
        <time>2012-12-28T10:26:24Z</time>
      </trkpt>
      <trkpt lat="44.0588" lon="7.01289">
        <ele>1988.2</ele>
        <time>2012-12-28T10:26:25Z</time>
      </trkpt>
      <trkpt lat="44.05878" lon="7.01288">
        <ele>1988.9</ele>
        <time>2012-12-28T10:26:28Z</time>
      </trkpt>
      <trkpt lat="44.05872" lon="7.01285">
        <ele>1989.6</ele>
        <time>2012-12-28T10:26:34Z</time>
      </trkpt>
      <trkpt lat="44.05871" lon="7.01285">
        <ele>1989.6</ele>
        <time>2012-12-28T10:26:35Z</time>
      </trkpt>
      <trkpt lat="44.05868" lon="7.01284">
        <ele>1990</ele>
        <time>2012-12-28T10:26:39Z</time>
      </trkpt>
      <trkpt lat="44.05861" lon="7.01279">
        <ele>1990.9</ele>
        <time>2012-12-28T10:26:48Z</time>
      </trkpt>
      <trkpt lat="44.0586" lon="7.01279">
        <ele>1991.1</ele>
        <time>2012-12-28T10:26:49Z</time>
      </trkpt>
      <trkpt lat="44.05858" lon="7.01279">
        <ele>1991.3</ele>
        <time>2012-12-28T10:26:50Z</time>
      </trkpt>
      <trkpt lat="44.05857" lon="7.01278">
        <ele>1991.6</ele>
        <time>2012-12-28T10:26:51Z</time>
      </trkpt>
      <trkpt lat="44.05857" lon="7.01278">
        <ele>1991.4</ele>
        <time>2012-12-28T10:26:52Z</time>
      </trkpt>
      <trkpt lat="44.05856" lon="7.01278">
        <ele>1991.6</ele>
        <time>2012-12-28T10:26:53Z</time>
      </trkpt>
      <trkpt lat="44.05855" lon="7.01278">
        <ele>1991.6</ele>
        <time>2012-12-28T10:26:54Z</time>
      </trkpt>
      <trkpt lat="44.05854" lon="7.01277">
        <ele>1991.8</ele>
        <time>2012-12-28T10:26:55Z</time>
      </trkpt>
      <trkpt lat="44.05852" lon="7.01276">
        <ele>1991.6</ele>
        <time>2012-12-28T10:26:59Z</time>
      </trkpt>
      <trkpt lat="44.05852" lon="7.01275">
        <ele>1991.6</ele>
        <time>2012-12-28T10:27:00Z</time>
      </trkpt>
      <trkpt lat="44.0585" lon="7.01274">
        <ele>1992.1</ele>
        <time>2012-12-28T10:27:04Z</time>
      </trkpt>
      <trkpt lat="44.05849" lon="7.01274">
        <ele>1992</ele>
        <time>2012-12-28T10:27:05Z</time>
      </trkpt>
      <trkpt lat="44.05849" lon="7.01274">
        <ele>1992</ele>
        <time>2012-12-28T10:27:06Z</time>
      </trkpt>
      <trkpt lat="44.05848" lon="7.01273">
        <ele>1992.2</ele>
        <time>2012-12-28T10:27:07Z</time>
      </trkpt>
      <trkpt lat="44.05848" lon="7.01273">
        <ele>1992.2</ele>
        <time>2012-12-28T10:27:08Z</time>
      </trkpt>
      <trkpt lat="44.05848" lon="7.01273">
        <ele>1992</ele>
        <time>2012-12-28T10:27:09Z</time>
      </trkpt>
      <trkpt lat="44.05847" lon="7.01272">
        <ele>1992</ele>
        <time>2012-12-28T10:27:10Z</time>
      </trkpt>
      <trkpt lat="44.05846" lon="7.01272">
        <ele>1991.7</ele>
        <time>2012-12-28T10:27:11Z</time>
      </trkpt>
      <trkpt lat="44.05845" lon="7.01271">
        <ele>1991.7</ele>
        <time>2012-12-28T10:27:12Z</time>
      </trkpt>
      <trkpt lat="44.05845" lon="7.01271">
        <ele>1991.7</ele>
        <time>2012-12-28T10:27:13Z</time>
      </trkpt>
      <trkpt lat="44.05843" lon="7.01266">
        <ele>1992</ele>
        <time>2012-12-28T10:27:19Z</time>
      </trkpt>
      <trkpt lat="44.05843" lon="7.01265">
        <ele>1992.1</ele>
        <time>2012-12-28T10:27:20Z</time>
      </trkpt>
      <trkpt lat="44.05843" lon="7.01265">
        <ele>1992.1</ele>
        <time>2012-12-28T10:27:21Z</time>
      </trkpt>
      <trkpt lat="44.05842" lon="7.01264">
        <ele>1992.1</ele>
        <time>2012-12-28T10:27:22Z</time>
      </trkpt>
      <trkpt lat="44.05841" lon="7.01264">
        <ele>1992.4</ele>
        <time>2012-12-28T10:27:23Z</time>
      </trkpt>
      <trkpt lat="44.05837" lon="7.01259">
        <ele>1992.8</ele>
        <time>2012-12-28T10:27:31Z</time>
      </trkpt>
      <trkpt lat="44.0583" lon="7.01251">
        <ele>1993.5</ele>
        <time>2012-12-28T10:27:44Z</time>
      </trkpt>
      <trkpt lat="44.0583" lon="7.01251">
        <ele>1993.5</ele>
        <time>2012-12-28T10:27:45Z</time>
      </trkpt>
      <trkpt lat="44.0583" lon="7.01251">
        <ele>1993.5</ele>
        <time>2012-12-28T10:27:46Z</time>
      </trkpt>
      <trkpt lat="44.0583" lon="7.01251">
        <ele>1993.5</ele>
        <time>2012-12-28T10:27:47Z</time>
      </trkpt>
      <trkpt lat="44.0583" lon="7.01251">
        <ele>1993.5</ele>
        <time>2012-12-28T10:27:48Z</time>
      </trkpt>
      <trkpt lat="44.05829" lon="7.0125">
        <ele>1993.6</ele>
        <time>2012-12-28T10:27:49Z</time>
      </trkpt>
      <trkpt lat="44.05829" lon="7.01249">
        <ele>1994</ele>
        <time>2012-12-28T10:27:50Z</time>
      </trkpt>
      <trkpt lat="44.05828" lon="7.01248">
        <ele>1994.2</ele>
        <time>2012-12-28T10:27:51Z</time>
      </trkpt>
      <trkpt lat="44.05821" lon="7.01242">
        <ele>1994.8</ele>
        <time>2012-12-28T10:28:28Z</time>
      </trkpt>
      <trkpt lat="44.0582" lon="7.01242">
        <ele>1995.1</ele>
        <time>2012-12-28T10:28:29Z</time>
      </trkpt>
      <trkpt lat="44.05819" lon="7.01241">
        <ele>1995.4</ele>
        <time>2012-12-28T10:28:30Z</time>
      </trkpt>
      <trkpt lat="44.05817" lon="7.01239">
        <ele>1996.2</ele>
        <time>2012-12-28T10:28:32Z</time>
      </trkpt>
      <trkpt lat="44.05816" lon="7.01238">
        <ele>1996.6</ele>
        <time>2012-12-28T10:28:33Z</time>
      </trkpt>
      <trkpt lat="44.05815" lon="7.01237">
        <ele>1996.5</ele>
        <time>2012-12-28T10:28:34Z</time>
      </trkpt>
      <trkpt lat="44.05814" lon="7.01237">
        <ele>1996.3</ele>
        <time>2012-12-28T10:28:35Z</time>
      </trkpt>
      <trkpt lat="44.05813" lon="7.01236">
        <ele>1996.2</ele>
        <time>2012-12-28T10:28:36Z</time>
      </trkpt>
      <trkpt lat="44.05797" lon="7.01223">
        <ele>1994.9</ele>
        <time>2012-12-28T10:28:54Z</time>
      </trkpt>
      <trkpt lat="44.05792" lon="7.0122">
        <ele>1994.6</ele>
        <time>2012-12-28T10:29:00Z</time>
      </trkpt>
      <trkpt lat="44.05786" lon="7.01217">
        <ele>1994.5</ele>
        <time>2012-12-28T10:29:06Z</time>
      </trkpt>
      <trkpt lat="44.05781" lon="7.01213">
        <ele>1994.5</ele>
        <time>2012-12-28T10:29:12Z</time>
      </trkpt>
      <trkpt lat="44.05778" lon="7.01211">
        <ele>1994.1</ele>
        <time>2012-12-28T10:29:15Z</time>
      </trkpt>
      <trkpt lat="44.05768" lon="7.01203">
        <ele>1994.9</ele>
        <time>2012-12-28T10:29:29Z</time>
      </trkpt>
      <trkpt lat="44.05768" lon="7.01202">
        <ele>1995</ele>
        <time>2012-12-28T10:29:30Z</time>
      </trkpt>
      <trkpt lat="44.05767" lon="7.01202">
        <ele>1995.2</ele>
        <time>2012-12-28T10:29:31Z</time>
      </trkpt>
      <trkpt lat="44.05767" lon="7.01202">
        <ele>1995.2</ele>
        <time>2012-12-28T10:29:32Z</time>
      </trkpt>
      <trkpt lat="44.05766" lon="7.01201">
        <ele>1995</ele>
        <time>2012-12-28T10:29:33Z</time>
      </trkpt>
      <trkpt lat="44.05763" lon="7.012">
        <ele>1995.3</ele>
        <time>2012-12-28T10:29:37Z</time>
      </trkpt>
      <trkpt lat="44.05762" lon="7.01199">
        <ele>1995.3</ele>
        <time>2012-12-28T10:29:38Z</time>
      </trkpt>
      <trkpt lat="44.05761" lon="7.01198">
        <ele>1995.5</ele>
        <time>2012-12-28T10:29:39Z</time>
      </trkpt>
      <trkpt lat="44.05751" lon="7.01193">
        <ele>1995.5</ele>
        <time>2012-12-28T10:29:53Z</time>
      </trkpt>
      <trkpt lat="44.0575" lon="7.01193">
        <ele>1995.3</ele>
        <time>2012-12-28T10:29:54Z</time>
      </trkpt>
      <trkpt lat="44.0575" lon="7.01193">
        <ele>1995.2</ele>
        <time>2012-12-28T10:29:55Z</time>
      </trkpt>
      <trkpt lat="44.05749" lon="7.01192">
        <ele>1995.3</ele>
        <time>2012-12-28T10:29:56Z</time>
      </trkpt>
      <trkpt lat="44.05743" lon="7.01189">
        <ele>1995.5</ele>
        <time>2012-12-28T10:30:04Z</time>
      </trkpt>
      <trkpt lat="44.0574" lon="7.01188">
        <ele>1995.1</ele>
        <time>2012-12-28T10:30:09Z</time>
      </trkpt>
      <trkpt lat="44.05728" lon="7.01184">
        <ele>1994.2</ele>
        <time>2012-12-28T10:30:23Z</time>
      </trkpt>
      <trkpt lat="44.05721" lon="7.01182">
        <ele>1993.4</ele>
        <time>2012-12-28T10:30:31Z</time>
      </trkpt>
      <trkpt lat="44.05713" lon="7.01179">
        <ele>1992.8</ele>
        <time>2012-12-28T10:30:40Z</time>
      </trkpt>
      <trkpt lat="44.05713" lon="7.01179">
        <ele>1992.8</ele>
        <time>2012-12-28T10:30:41Z</time>
      </trkpt>
      <trkpt lat="44.05713" lon="7.01178">
        <ele>1992.8</ele>
        <time>2012-12-28T10:30:42Z</time>
      </trkpt>
      <trkpt lat="44.05708" lon="7.01173">
        <ele>1993.1</ele>
        <time>2012-12-28T10:30:55Z</time>
      </trkpt>
      <trkpt lat="44.05702" lon="7.01164">
        <ele>1992.7</ele>
        <time>2012-12-28T10:32:11Z</time>
      </trkpt>
      <trkpt lat="44.05702" lon="7.01164">
        <ele>1992.7</ele>
        <time>2012-12-28T10:32:12Z</time>
      </trkpt>
      <trkpt lat="44.05702" lon="7.01164">
        <ele>1992.7</ele>
        <time>2012-12-28T10:32:13Z</time>
      </trkpt>
      <trkpt lat="44.05699" lon="7.01159">
        <ele>1992.2</ele>
        <time>2012-12-28T10:32:19Z</time>
      </trkpt>
      <trkpt lat="44.05696" lon="7.01155">
        <ele>1992.1</ele>
        <time>2012-12-28T10:32:24Z</time>
      </trkpt>
      <trkpt lat="44.05696" lon="7.01155">
        <ele>1992.1</ele>
        <time>2012-12-28T10:32:25Z</time>
      </trkpt>
      <trkpt lat="44.05695" lon="7.01154">
        <ele>1992.2</ele>
        <time>2012-12-28T10:32:26Z</time>
      </trkpt>
      <trkpt lat="44.05691" lon="7.01149">
        <ele>1991.6</ele>
        <time>2012-12-28T10:32:33Z</time>
      </trkpt>
      <trkpt lat="44.05683" lon="7.01141">
        <ele>1990.6</ele>
        <time>2012-12-28T10:32:44Z</time>
      </trkpt>
      <trkpt lat="44.05682" lon="7.0114">
        <ele>1990.5</ele>
        <time>2012-12-28T10:32:45Z</time>
      </trkpt>
      <trkpt lat="44.05667" lon="7.01135">
        <ele>1989.4</ele>
        <time>2012-12-28T10:33:09Z</time>
      </trkpt>
      <trkpt lat="44.05666" lon="7.01135">
        <ele>1989.2</ele>
        <time>2012-12-28T10:33:10Z</time>
      </trkpt>
      <trkpt lat="44.05657" lon="7.01127">
        <ele>1989</ele>
        <time>2012-12-28T10:33:29Z</time>
      </trkpt>
      <trkpt lat="44.05656" lon="7.01126">
        <ele>1989</ele>
        <time>2012-12-28T10:33:30Z</time>
      </trkpt>
      <trkpt lat="44.05655" lon="7.01126">
        <ele>1988.7</ele>
        <time>2012-12-28T10:33:31Z</time>
      </trkpt>
      <trkpt lat="44.05654" lon="7.01125">
        <ele>1988.6</ele>
        <time>2012-12-28T10:33:32Z</time>
      </trkpt>
      <trkpt lat="44.05654" lon="7.01125">
        <ele>1988.6</ele>
        <time>2012-12-28T10:33:33Z</time>
      </trkpt>
      <trkpt lat="44.05632" lon="7.0112">
        <ele>1981.6</ele>
        <time>2012-12-28T10:34:07Z</time>
      </trkpt>
      <trkpt lat="44.05632" lon="7.0112">
        <ele>1981.6</ele>
        <time>2012-12-28T10:34:08Z</time>
      </trkpt>
      <trkpt lat="44.05632" lon="7.0112">
        <ele>1981.6</ele>
        <time>2012-12-28T10:34:09Z</time>
      </trkpt>
      <trkpt lat="44.05632" lon="7.0112">
        <ele>1981.6</ele>
        <time>2012-12-28T10:34:10Z</time>
      </trkpt>
      <trkpt lat="44.05632" lon="7.0112">
        <ele>1981.6</ele>
        <time>2012-12-28T10:34:11Z</time>
      </trkpt>
      <trkpt lat="44.05632" lon="7.0112">
        <ele>1981.6</ele>
        <time>2012-12-28T10:34:12Z</time>
      </trkpt>
      <trkpt lat="44.05632" lon="7.0112">
        <ele>1981.6</ele>
        <time>2012-12-28T10:34:13Z</time>
      </trkpt>
      <trkpt lat="44.05632" lon="7.0112">
        <ele>1981.6</ele>
        <time>2012-12-28T10:34:14Z</time>
      </trkpt>
      <trkpt lat="44.05632" lon="7.0112">
        <ele>1981.6</ele>
        <time>2012-12-28T10:34:15Z</time>
      </trkpt>
      <trkpt lat="44.05632" lon="7.0112">
        <ele>1981.6</ele>
        <time>2012-12-28T10:34:16Z</time>
      </trkpt>
      <trkpt lat="44.05632" lon="7.0112">
        <ele>1981.6</ele>
        <time>2012-12-28T10:34:17Z</time>
      </trkpt>
      <trkpt lat="44.05632" lon="7.0112">
        <ele>1981.6</ele>
        <time>2012-12-28T10:34:18Z</time>
      </trkpt>
      <trkpt lat="44.05632" lon="7.0112">
        <ele>1981.5</ele>
        <time>2012-12-28T10:34:19Z</time>
      </trkpt>
      <trkpt lat="44.05631" lon="7.01119">
        <ele>1981.5</ele>
        <time>2012-12-28T10:34:20Z</time>
      </trkpt>
      <trkpt lat="44.0563" lon="7.01118">
        <ele>1981.2</ele>
        <time>2012-12-28T10:34:21Z</time>
      </trkpt>
      <trkpt lat="44.05629" lon="7.01118">
        <ele>1981.3</ele>
        <time>2012-12-28T10:34:22Z</time>
      </trkpt>
      <trkpt lat="44.05627" lon="7.01115">
        <ele>1980.8</ele>
        <time>2012-12-28T10:34:25Z</time>
      </trkpt>
      <trkpt lat="44.05624" lon="7.01112">
        <ele>1980.8</ele>
        <time>2012-12-28T10:34:28Z</time>
      </trkpt>
      <trkpt lat="44.05624" lon="7.01112">
        <ele>1980.8</ele>
        <time>2012-12-28T10:34:29Z</time>
      </trkpt>
      <trkpt lat="44.05623" lon="7.01112">
        <ele>1980.8</ele>
        <time>2012-12-28T10:34:30Z</time>
      </trkpt>
      <trkpt lat="44.05622" lon="7.01111">
        <ele>1980.8</ele>
        <time>2012-12-28T10:34:31Z</time>
      </trkpt>
      <trkpt lat="44.05622" lon="7.01111">
        <ele>1980.8</ele>
        <time>2012-12-28T10:34:32Z</time>
      </trkpt>
      <trkpt lat="44.05622" lon="7.01111">
        <ele>1980.7</ele>
        <time>2012-12-28T10:34:33Z</time>
      </trkpt>
      <trkpt lat="44.05622" lon="7.01111">
        <ele>1980.7</ele>
        <time>2012-12-28T10:34:34Z</time>
      </trkpt>
      <trkpt lat="44.05622" lon="7.01111">
        <ele>1980.7</ele>
        <time>2012-12-28T10:34:35Z</time>
      </trkpt>
      <trkpt lat="44.05622" lon="7.01111">
        <ele>1980.7</ele>
        <time>2012-12-28T10:34:36Z</time>
      </trkpt>
      <trkpt lat="44.05622" lon="7.01111">
        <ele>1980.7</ele>
        <time>2012-12-28T10:34:37Z</time>
      </trkpt>
      <trkpt lat="44.05622" lon="7.01111">
        <ele>1980.7</ele>
        <time>2012-12-28T10:34:38Z</time>
      </trkpt>
      <trkpt lat="44.05622" lon="7.01111">
        <ele>1980.7</ele>
        <time>2012-12-28T10:34:39Z</time>
      </trkpt>
      <trkpt lat="44.05622" lon="7.01111">
        <ele>1980.7</ele>
        <time>2012-12-28T10:34:40Z</time>
      </trkpt>
      <trkpt lat="44.05622" lon="7.01111">
        <ele>1980.7</ele>
        <time>2012-12-28T10:34:41Z</time>
      </trkpt>
      <trkpt lat="44.05622" lon="7.01111">
        <ele>1980.7</ele>
        <time>2012-12-28T10:34:42Z</time>
      </trkpt>
      <trkpt lat="44.05622" lon="7.01111">
        <ele>1980.7</ele>
        <time>2012-12-28T10:34:43Z</time>
      </trkpt>
      <trkpt lat="44.05622" lon="7.01111">
        <ele>1980.5</ele>
        <time>2012-12-28T10:34:44Z</time>
      </trkpt>
      <trkpt lat="44.05622" lon="7.01111">
        <ele>1980.5</ele>
        <time>2012-12-28T10:34:45Z</time>
      </trkpt>
      <trkpt lat="44.05621" lon="7.01112">
        <ele>1980.2</ele>
        <time>2012-12-28T10:34:46Z</time>
      </trkpt>
      <trkpt lat="44.05621" lon="7.01113">
        <ele>1979.9</ele>
        <time>2012-12-28T10:34:47Z</time>
      </trkpt>
      <trkpt lat="44.0562" lon="7.01114">
        <ele>1979.7</ele>
        <time>2012-12-28T10:34:48Z</time>
      </trkpt>
      <trkpt lat="44.0562" lon="7.01115">
        <ele>1979.8</ele>
        <time>2012-12-28T10:34:49Z</time>
      </trkpt>
      <trkpt lat="44.05619" lon="7.01116">
        <ele>1979.9</ele>
        <time>2012-12-28T10:34:50Z</time>
      </trkpt>
      <trkpt lat="44.05618" lon="7.01116">
        <ele>1979.6</ele>
        <time>2012-12-28T10:34:51Z</time>
      </trkpt>
      <trkpt lat="44.05617" lon="7.01117">
        <ele>1979.7</ele>
        <time>2012-12-28T10:34:52Z</time>
      </trkpt>
      <trkpt lat="44.05617" lon="7.01118">
        <ele>1979.6</ele>
        <time>2012-12-28T10:34:53Z</time>
      </trkpt>
      <trkpt lat="44.05616" lon="7.01119">
        <ele>1979.5</ele>
        <time>2012-12-28T10:34:54Z</time>
      </trkpt>
      <trkpt lat="44.05615" lon="7.0112">
        <ele>1979.4</ele>
        <time>2012-12-28T10:34:55Z</time>
      </trkpt>
      <trkpt lat="44.05615" lon="7.01121">
        <ele>1979.4</ele>
        <time>2012-12-28T10:34:56Z</time>
      </trkpt>
      <trkpt lat="44.05614" lon="7.01122">
        <ele>1979.3</ele>
        <time>2012-12-28T10:34:57Z</time>
      </trkpt>
      <trkpt lat="44.05613" lon="7.01123">
        <ele>1978.8</ele>
        <time>2012-12-28T10:34:58Z</time>
      </trkpt>
      <trkpt lat="44.05613" lon="7.01124">
        <ele>1978.9</ele>
        <time>2012-12-28T10:34:59Z</time>
      </trkpt>
      <trkpt lat="44.05612" lon="7.01125">
        <ele>1978.9</ele>
        <time>2012-12-28T10:35:00Z</time>
      </trkpt>
      <trkpt lat="44.05612" lon="7.01125">
        <ele>1978.8</ele>
        <time>2012-12-28T10:35:01Z</time>
      </trkpt>
      <trkpt lat="44.05611" lon="7.01126">
        <ele>1978.6</ele>
        <time>2012-12-28T10:35:02Z</time>
      </trkpt>
      <trkpt lat="44.05606" lon="7.01133">
        <ele>1977.7</ele>
        <time>2012-12-28T10:35:10Z</time>
      </trkpt>
      <trkpt lat="44.05599" lon="7.0114">
        <ele>1975.9</ele>
        <time>2012-12-28T10:35:20Z</time>
      </trkpt>
      <trkpt lat="44.05594" lon="7.01142">
        <ele>1975.9</ele>
        <time>2012-12-28T10:35:26Z</time>
      </trkpt>
      <trkpt lat="44.05594" lon="7.01143">
        <ele>1975.7</ele>
        <time>2012-12-28T10:35:27Z</time>
      </trkpt>
      <trkpt lat="44.05592" lon="7.01145">
        <ele>1975.6</ele>
        <time>2012-12-28T10:35:29Z</time>
      </trkpt>
      <trkpt lat="44.05585" lon="7.01149">
        <ele>1974.9</ele>
        <time>2012-12-28T10:35:38Z</time>
      </trkpt>
      <trkpt lat="44.05584" lon="7.0115">
        <ele>1974.9</ele>
        <time>2012-12-28T10:35:39Z</time>
      </trkpt>
      <trkpt lat="44.05581" lon="7.01151">
        <ele>1974.6</ele>
        <time>2012-12-28T10:35:42Z</time>
      </trkpt>
      <trkpt lat="44.0558" lon="7.01152">
        <ele>1974.6</ele>
        <time>2012-12-28T10:35:43Z</time>
      </trkpt>
      <trkpt lat="44.05567" lon="7.01157">
        <ele>1972.8</ele>
        <time>2012-12-28T10:36:01Z</time>
      </trkpt>
      <trkpt lat="44.05567" lon="7.01157">
        <ele>1972.4</ele>
        <time>2012-12-28T10:36:02Z</time>
      </trkpt>
      <trkpt lat="44.05566" lon="7.01157">
        <ele>1972.2</ele>
        <time>2012-12-28T10:36:03Z</time>
      </trkpt>
      <trkpt lat="44.0555" lon="7.0116">
        <ele>1971.3</ele>
        <time>2012-12-28T10:36:29Z</time>
      </trkpt>
      <trkpt lat="44.0555" lon="7.0116">
        <ele>1971.6</ele>
        <time>2012-12-28T10:36:30Z</time>
      </trkpt>
      <trkpt lat="44.05549" lon="7.0116">
        <ele>1971.6</ele>
        <time>2012-12-28T10:36:31Z</time>
      </trkpt>
      <trkpt lat="44.05548" lon="7.01161">
        <ele>1971.4</ele>
        <time>2012-12-28T10:36:32Z</time>
      </trkpt>
      <trkpt lat="44.05539" lon="7.01164">
        <ele>1970.5</ele>
        <time>2012-12-28T10:36:50Z</time>
      </trkpt>
      <trkpt lat="44.05538" lon="7.01165">
        <ele>1970.2</ele>
        <time>2012-12-28T10:36:51Z</time>
      </trkpt>
      <trkpt lat="44.05534" lon="7.01166">
        <ele>1970.1</ele>
        <time>2012-12-28T10:36:56Z</time>
      </trkpt>
      <trkpt lat="44.05533" lon="7.01166">
        <ele>1970</ele>
        <time>2012-12-28T10:36:57Z</time>
      </trkpt>
      <trkpt lat="44.05532" lon="7.01166">
        <ele>1970.1</ele>
        <time>2012-12-28T10:36:58Z</time>
      </trkpt>
      <trkpt lat="44.05531" lon="7.01167">
        <ele>1969.9</ele>
        <time>2012-12-28T10:36:59Z</time>
      </trkpt>
      <trkpt lat="44.05531" lon="7.01167">
        <ele>1969.9</ele>
        <time>2012-12-28T10:37:00Z</time>
      </trkpt>
      <trkpt lat="44.0553" lon="7.01167">
        <ele>1969.9</ele>
        <time>2012-12-28T10:37:01Z</time>
      </trkpt>
      <trkpt lat="44.05529" lon="7.01167">
        <ele>1969.9</ele>
        <time>2012-12-28T10:37:02Z</time>
      </trkpt>
      <trkpt lat="44.05515" lon="7.01174">
        <ele>1969.5</ele>
        <time>2012-12-28T10:37:26Z</time>
      </trkpt>
      <trkpt lat="44.05514" lon="7.01174">
        <ele>1969.3</ele>
        <time>2012-12-28T10:37:27Z</time>
      </trkpt>
      <trkpt lat="44.05511" lon="7.01176">
        <ele>1969.2</ele>
        <time>2012-12-28T10:37:30Z</time>
      </trkpt>
      <trkpt lat="44.0551" lon="7.01176">
        <ele>1969.2</ele>
        <time>2012-12-28T10:37:31Z</time>
      </trkpt>
      <trkpt lat="44.05509" lon="7.01176">
        <ele>1969.3</ele>
        <time>2012-12-28T10:37:32Z</time>
      </trkpt>
      <trkpt lat="44.05507" lon="7.01177">
        <ele>1969.3</ele>
        <time>2012-12-28T10:37:39Z</time>
      </trkpt>
      <trkpt lat="44.05471" lon="7.01159">
        <ele>1971</ele>
        <time>2012-12-28T10:39:06Z</time>
      </trkpt>
      <trkpt lat="44.05471" lon="7.01159">
        <ele>1971</ele>
        <time>2012-12-28T10:39:07Z</time>
      </trkpt>
      <trkpt lat="44.0547" lon="7.01158">
        <ele>1970.8</ele>
        <time>2012-12-28T10:39:08Z</time>
      </trkpt>
      <trkpt lat="44.05416" lon="7.01117">
        <ele>1974</ele>
        <time>2012-12-28T10:41:38Z</time>
      </trkpt>
      <trkpt lat="44.05415" lon="7.01116">
        <ele>1973.8</ele>
        <time>2012-12-28T10:41:39Z</time>
      </trkpt>
      <trkpt lat="44.05412" lon="7.01114">
        <ele>1974.5</ele>
        <time>2012-12-28T10:42:05Z</time>
      </trkpt>
      <trkpt lat="44.05411" lon="7.01113">
        <ele>1974.3</ele>
        <time>2012-12-28T10:42:06Z</time>
      </trkpt>
      <trkpt lat="44.05411" lon="7.01113">
        <ele>1974.3</ele>
        <time>2012-12-28T10:42:07Z</time>
      </trkpt>
      <trkpt lat="44.05411" lon="7.01112">
        <ele>1974.4</ele>
        <time>2012-12-28T10:42:08Z</time>
      </trkpt>
      <trkpt lat="44.05411" lon="7.01112">
        <ele>1974.4</ele>
        <time>2012-12-28T10:42:09Z</time>
      </trkpt>
      <trkpt lat="44.0541" lon="7.01111">
        <ele>1974.3</ele>
        <time>2012-12-28T10:42:10Z</time>
      </trkpt>
      <trkpt lat="44.0541" lon="7.01111">
        <ele>1974.3</ele>
        <time>2012-12-28T10:42:11Z</time>
      </trkpt>
      <trkpt lat="44.0541" lon="7.01111">
        <ele>1974.7</ele>
        <time>2012-12-28T10:42:12Z</time>
      </trkpt>
      <trkpt lat="44.05408" lon="7.0111">
        <ele>1974.9</ele>
        <time>2012-12-28T10:42:13Z</time>
      </trkpt>
      <trkpt lat="44.05407" lon="7.01109">
        <ele>1975.1</ele>
        <time>2012-12-28T10:42:14Z</time>
      </trkpt>
      <trkpt lat="44.05407" lon="7.01109">
        <ele>1975.1</ele>
        <time>2012-12-28T10:42:15Z</time>
      </trkpt>
      <trkpt lat="44.05406" lon="7.01108">
        <ele>1975</ele>
        <time>2012-12-28T10:42:16Z</time>
      </trkpt>
      <trkpt lat="44.05406" lon="7.01108">
        <ele>1975</ele>
        <time>2012-12-28T10:42:17Z</time>
      </trkpt>
      <trkpt lat="44.05406" lon="7.01107">
        <ele>1974.7</ele>
        <time>2012-12-28T10:42:18Z</time>
      </trkpt>
      <trkpt lat="44.05406" lon="7.01107">
        <ele>1974.7</ele>
        <time>2012-12-28T10:42:19Z</time>
      </trkpt>
      <trkpt lat="44.05405" lon="7.01106">
        <ele>1974.8</ele>
        <time>2012-12-28T10:42:20Z</time>
      </trkpt>
      <trkpt lat="44.05405" lon="7.01106">
        <ele>1974.8</ele>
        <time>2012-12-28T10:42:21Z</time>
      </trkpt>
      <trkpt lat="44.05405" lon="7.01106">
        <ele>1974.8</ele>
        <time>2012-12-28T10:42:22Z</time>
      </trkpt>
      <trkpt lat="44.05405" lon="7.01106">
        <ele>1974.8</ele>
        <time>2012-12-28T10:42:23Z</time>
      </trkpt>
      <trkpt lat="44.05404" lon="7.01105">
        <ele>1975.2</ele>
        <time>2012-12-28T10:42:24Z</time>
      </trkpt>
      <trkpt lat="44.05403" lon="7.01103">
        <ele>1975.4</ele>
        <time>2012-12-28T10:42:25Z</time>
      </trkpt>
      <trkpt lat="44.05401" lon="7.01102">
        <ele>1975.3</ele>
        <time>2012-12-28T10:42:26Z</time>
      </trkpt>
      <trkpt lat="44.054" lon="7.01101">
        <ele>1975.3</ele>
        <time>2012-12-28T10:42:27Z</time>
      </trkpt>
      <trkpt lat="44.054" lon="7.01101">
        <ele>1975.3</ele>
        <time>2012-12-28T10:42:28Z</time>
      </trkpt>
      <trkpt lat="44.054" lon="7.011">
        <ele>1975.3</ele>
        <time>2012-12-28T10:42:29Z</time>
      </trkpt>
      <trkpt lat="44.05399" lon="7.01099">
        <ele>1975.2</ele>
        <time>2012-12-28T10:42:30Z</time>
      </trkpt>
      <trkpt lat="44.05399" lon="7.01099">
        <ele>1975.2</ele>
        <time>2012-12-28T10:42:31Z</time>
      </trkpt>
      <trkpt lat="44.05398" lon="7.01099">
        <ele>1975.6</ele>
        <time>2012-12-28T10:42:32Z</time>
      </trkpt>
      <trkpt lat="44.05398" lon="7.01099">
        <ele>1975.6</ele>
        <time>2012-12-28T10:42:33Z</time>
      </trkpt>
      <trkpt lat="44.05398" lon="7.01098">
        <ele>1975.5</ele>
        <time>2012-12-28T10:42:34Z</time>
      </trkpt>
      <trkpt lat="44.05398" lon="7.01098">
        <ele>1975.5</ele>
        <time>2012-12-28T10:42:35Z</time>
      </trkpt>
      <trkpt lat="44.05397" lon="7.01097">
        <ele>1975.5</ele>
        <time>2012-12-28T10:42:36Z</time>
      </trkpt>
      <trkpt lat="44.05397" lon="7.01097">
        <ele>1975.5</ele>
        <time>2012-12-28T10:42:37Z</time>
      </trkpt>
      <trkpt lat="44.05396" lon="7.01097">
        <ele>1975.6</ele>
        <time>2012-12-28T10:42:38Z</time>
      </trkpt>
      <trkpt lat="44.05396" lon="7.01097">
        <ele>1975.6</ele>
        <time>2012-12-28T10:42:39Z</time>
      </trkpt>
      <trkpt lat="44.05396" lon="7.01097">
        <ele>1975.6</ele>
        <time>2012-12-28T10:42:40Z</time>
      </trkpt>
      <trkpt lat="44.05396" lon="7.01096">
        <ele>1975.5</ele>
        <time>2012-12-28T10:42:41Z</time>
      </trkpt>
      <trkpt lat="44.05396" lon="7.01096">
        <ele>1975.5</ele>
        <time>2012-12-28T10:42:42Z</time>
      </trkpt>
      <trkpt lat="44.05395" lon="7.01096">
        <ele>1975.4</ele>
        <time>2012-12-28T10:42:43Z</time>
      </trkpt>
      <trkpt lat="44.05395" lon="7.01096">
        <ele>1975.4</ele>
        <time>2012-12-28T10:42:44Z</time>
      </trkpt>
      <trkpt lat="44.05395" lon="7.01096">
        <ele>1975.4</ele>
        <time>2012-12-28T10:42:45Z</time>
      </trkpt>
      <trkpt lat="44.05395" lon="7.01096">
        <ele>1975.4</ele>
        <time>2012-12-28T10:42:46Z</time>
      </trkpt>
      <trkpt lat="44.05395" lon="7.01096">
        <ele>1975.4</ele>
        <time>2012-12-28T10:42:47Z</time>
      </trkpt>
      <trkpt lat="44.05395" lon="7.01096">
        <ele>1975.4</ele>
        <time>2012-12-28T10:42:48Z</time>
      </trkpt>
      <trkpt lat="44.05395" lon="7.01096">
        <ele>1975.4</ele>
        <time>2012-12-28T10:42:49Z</time>
      </trkpt>
      <trkpt lat="44.05395" lon="7.01096">
        <ele>1975.4</ele>
        <time>2012-12-28T10:42:50Z</time>
      </trkpt>
      <trkpt lat="44.05394" lon="7.01095">
        <ele>1975.5</ele>
        <time>2012-12-28T10:42:51Z</time>
      </trkpt>
      <trkpt lat="44.05393" lon="7.01094">
        <ele>1975.9</ele>
        <time>2012-12-28T10:42:52Z</time>
      </trkpt>
      <trkpt lat="44.05393" lon="7.01094">
        <ele>1975.9</ele>
        <time>2012-12-28T10:42:53Z</time>
      </trkpt>
      <trkpt lat="44.05393" lon="7.01093">
        <ele>1976.1</ele>
        <time>2012-12-28T10:42:54Z</time>
      </trkpt>
      <trkpt lat="44.05393" lon="7.01093">
        <ele>1976.1</ele>
        <time>2012-12-28T10:42:55Z</time>
      </trkpt>
      <trkpt lat="44.05392" lon="7.01092">
        <ele>1976.4</ele>
        <time>2012-12-28T10:42:56Z</time>
      </trkpt>
      <trkpt lat="44.05391" lon="7.01091">
        <ele>1976.7</ele>
        <time>2012-12-28T10:42:57Z</time>
      </trkpt>
      <trkpt lat="44.05389" lon="7.0109">
        <ele>1977.1</ele>
        <time>2012-12-28T10:42:58Z</time>
      </trkpt>
      <trkpt lat="44.05388" lon="7.01089">
        <ele>1977.3</ele>
        <time>2012-12-28T10:42:59Z</time>
      </trkpt>
      <trkpt lat="44.05387" lon="7.01088">
        <ele>1977.5</ele>
        <time>2012-12-28T10:43:00Z</time>
      </trkpt>
      <trkpt lat="44.05387" lon="7.01088">
        <ele>1977.5</ele>
        <time>2012-12-28T10:43:01Z</time>
      </trkpt>
      <trkpt lat="44.05387" lon="7.01087">
        <ele>1977.7</ele>
        <time>2012-12-28T10:43:02Z</time>
      </trkpt>
      <trkpt lat="44.05387" lon="7.01087">
        <ele>1977.7</ele>
        <time>2012-12-28T10:43:03Z</time>
      </trkpt>
      <trkpt lat="44.05386" lon="7.01087">
        <ele>1977.8</ele>
        <time>2012-12-28T10:43:04Z</time>
      </trkpt>
      <trkpt lat="44.05386" lon="7.01087">
        <ele>1977.8</ele>
        <time>2012-12-28T10:43:05Z</time>
      </trkpt>
      <trkpt lat="44.05385" lon="7.01086">
        <ele>1978.2</ele>
        <time>2012-12-28T10:43:06Z</time>
      </trkpt>
      <trkpt lat="44.05385" lon="7.01086">
        <ele>1978.2</ele>
        <time>2012-12-28T10:43:07Z</time>
      </trkpt>
      <trkpt lat="44.05385" lon="7.01086">
        <ele>1978.4</ele>
        <time>2012-12-28T10:43:08Z</time>
      </trkpt>
      <trkpt lat="44.05385" lon="7.01086">
        <ele>1978.4</ele>
        <time>2012-12-28T10:43:09Z</time>
      </trkpt>
      <trkpt lat="44.05384" lon="7.01085">
        <ele>1978.8</ele>
        <time>2012-12-28T10:43:10Z</time>
      </trkpt>
      <trkpt lat="44.05383" lon="7.01084">
        <ele>1978.8</ele>
        <time>2012-12-28T10:43:11Z</time>
      </trkpt>
      <trkpt lat="44.05383" lon="7.01084">
        <ele>1978.8</ele>
        <time>2012-12-28T10:43:12Z</time>
      </trkpt>
      <trkpt lat="44.05383" lon="7.01084">
        <ele>1978.8</ele>
        <time>2012-12-28T10:43:13Z</time>
      </trkpt>
      <trkpt lat="44.05383" lon="7.01084">
        <ele>1978.8</ele>
        <time>2012-12-28T10:43:14Z</time>
      </trkpt>
      <trkpt lat="44.05383" lon="7.01084">
        <ele>1978.8</ele>
        <time>2012-12-28T10:43:15Z</time>
      </trkpt>
      <trkpt lat="44.05382" lon="7.01084">
        <ele>1979</ele>
        <time>2012-12-28T10:43:16Z</time>
      </trkpt>
      <trkpt lat="44.05382" lon="7.01084">
        <ele>1979</ele>
        <time>2012-12-28T10:43:17Z</time>
      </trkpt>
      <trkpt lat="44.05382" lon="7.01084">
        <ele>1979</ele>
        <time>2012-12-28T10:43:18Z</time>
      </trkpt>
      <trkpt lat="44.05382" lon="7.01083">
        <ele>1979.1</ele>
        <time>2012-12-28T10:43:19Z</time>
      </trkpt>
      <trkpt lat="44.05381" lon="7.01083">
        <ele>1979.2</ele>
        <time>2012-12-28T10:43:20Z</time>
      </trkpt>
      <trkpt lat="44.05381" lon="7.01083">
        <ele>1979.2</ele>
        <time>2012-12-28T10:43:21Z</time>
      </trkpt>
      <trkpt lat="44.05381" lon="7.01083">
        <ele>1979.2</ele>
        <time>2012-12-28T10:43:22Z</time>
      </trkpt>
      <trkpt lat="44.05381" lon="7.01083">
        <ele>1979.2</ele>
        <time>2012-12-28T10:43:23Z</time>
      </trkpt>
      <trkpt lat="44.0538" lon="7.01082">
        <ele>1979.6</ele>
        <time>2012-12-28T10:43:24Z</time>
      </trkpt>
      <trkpt lat="44.0538" lon="7.01082">
        <ele>1979.6</ele>
        <time>2012-12-28T10:43:25Z</time>
      </trkpt>
      <trkpt lat="44.05379" lon="7.01081">
        <ele>1979.8</ele>
        <time>2012-12-28T10:43:26Z</time>
      </trkpt>
      <trkpt lat="44.05379" lon="7.01081">
        <ele>1979.8</ele>
        <time>2012-12-28T10:43:27Z</time>
      </trkpt>
      <trkpt lat="44.05379" lon="7.01081">
        <ele>1979.8</ele>
        <time>2012-12-28T10:43:28Z</time>
      </trkpt>
      <trkpt lat="44.05379" lon="7.01081">
        <ele>1979.8</ele>
        <time>2012-12-28T10:43:29Z</time>
      </trkpt>
      <trkpt lat="44.05378" lon="7.0108">
        <ele>1980.2</ele>
        <time>2012-12-28T10:43:30Z</time>
      </trkpt>
      <trkpt lat="44.05378" lon="7.0108">
        <ele>1980.2</ele>
        <time>2012-12-28T10:43:31Z</time>
      </trkpt>
      <trkpt lat="44.05378" lon="7.0108">
        <ele>1980.2</ele>
        <time>2012-12-28T10:43:32Z</time>
      </trkpt>
      <trkpt lat="44.05378" lon="7.0108">
        <ele>1980.2</ele>
        <time>2012-12-28T10:43:33Z</time>
      </trkpt>
      <trkpt lat="44.05378" lon="7.0108">
        <ele>1980.2</ele>
        <time>2012-12-28T10:43:34Z</time>
      </trkpt>
      <trkpt lat="44.05378" lon="7.0108">
        <ele>1980.2</ele>
        <time>2012-12-28T10:43:35Z</time>
      </trkpt>
      <trkpt lat="44.05378" lon="7.0108">
        <ele>1980.2</ele>
        <time>2012-12-28T10:43:36Z</time>
      </trkpt>
      <trkpt lat="44.05378" lon="7.0108">
        <ele>1980.2</ele>
        <time>2012-12-28T10:43:37Z</time>
      </trkpt>
      <trkpt lat="44.05378" lon="7.0108">
        <ele>1980.2</ele>
        <time>2012-12-28T10:43:38Z</time>
      </trkpt>
      <trkpt lat="44.05378" lon="7.0108">
        <ele>1980.2</ele>
        <time>2012-12-28T10:43:39Z</time>
      </trkpt>
      <trkpt lat="44.05378" lon="7.0108">
        <ele>1980.2</ele>
        <time>2012-12-28T10:43:40Z</time>
      </trkpt>
      <trkpt lat="44.05377" lon="7.0108">
        <ele>1980.5</ele>
        <time>2012-12-28T10:43:41Z</time>
      </trkpt>
      <trkpt lat="44.05376" lon="7.01078">
        <ele>1980.2</ele>
        <time>2012-12-28T10:43:42Z</time>
      </trkpt>
      <trkpt lat="44.05375" lon="7.01077">
        <ele>1980.6</ele>
        <time>2012-12-28T10:43:43Z</time>
      </trkpt>
      <trkpt lat="44.05373" lon="7.01076">
        <ele>1980.5</ele>
        <time>2012-12-28T10:43:44Z</time>
      </trkpt>
      <trkpt lat="44.05373" lon="7.01076">
        <ele>1980.5</ele>
        <time>2012-12-28T10:43:45Z</time>
      </trkpt>
      <trkpt lat="44.05372" lon="7.01076">
        <ele>1980.6</ele>
        <time>2012-12-28T10:43:46Z</time>
      </trkpt>
      <trkpt lat="44.05371" lon="7.01075">
        <ele>1981.1</ele>
        <time>2012-12-28T10:43:47Z</time>
      </trkpt>
      <trkpt lat="44.0537" lon="7.01074">
        <ele>1981.3</ele>
        <time>2012-12-28T10:43:48Z</time>
      </trkpt>
      <trkpt lat="44.05368" lon="7.01072">
        <ele>1981.5</ele>
        <time>2012-12-28T10:43:49Z</time>
      </trkpt>
      <trkpt lat="44.05367" lon="7.01071">
        <ele>1981.5</ele>
        <time>2012-12-28T10:43:50Z</time>
      </trkpt>
      <trkpt lat="44.05365" lon="7.0107">
        <ele>1981.8</ele>
        <time>2012-12-28T10:43:51Z</time>
      </trkpt>
      <trkpt lat="44.05364" lon="7.01069">
        <ele>1981.8</ele>
        <time>2012-12-28T10:43:52Z</time>
      </trkpt>
      <trkpt lat="44.05364" lon="7.01069">
        <ele>1981.8</ele>
        <time>2012-12-28T10:43:53Z</time>
      </trkpt>
      <trkpt lat="44.05364" lon="7.01068">
        <ele>1981.9</ele>
        <time>2012-12-28T10:43:54Z</time>
      </trkpt>
      <trkpt lat="44.05362" lon="7.01067">
        <ele>1982.4</ele>
        <time>2012-12-28T10:43:55Z</time>
      </trkpt>
      <trkpt lat="44.05362" lon="7.01067">
        <ele>1982.4</ele>
        <time>2012-12-28T10:43:56Z</time>
      </trkpt>
      <trkpt lat="44.05362" lon="7.01067">
        <ele>1982.7</ele>
        <time>2012-12-28T10:43:57Z</time>
      </trkpt>
      <trkpt lat="44.05361" lon="7.01067">
        <ele>1982.7</ele>
        <time>2012-12-28T10:43:58Z</time>
      </trkpt>
      <trkpt lat="44.05359" lon="7.01066">
        <ele>1982.7</ele>
        <time>2012-12-28T10:43:59Z</time>
      </trkpt>
      <trkpt lat="44.05358" lon="7.01065">
        <ele>1983</ele>
        <time>2012-12-28T10:44:00Z</time>
      </trkpt>
      <trkpt lat="44.05357" lon="7.01065">
        <ele>1983.1</ele>
        <time>2012-12-28T10:44:01Z</time>
      </trkpt>
      <trkpt lat="44.05356" lon="7.01064">
        <ele>1983.3</ele>
        <time>2012-12-28T10:44:02Z</time>
      </trkpt>
      <trkpt lat="44.05355" lon="7.01063">
        <ele>1983.6</ele>
        <time>2012-12-28T10:44:03Z</time>
      </trkpt>
      <trkpt lat="44.05355" lon="7.01063">
        <ele>1983.6</ele>
        <time>2012-12-28T10:44:04Z</time>
      </trkpt>
      <trkpt lat="44.05355" lon="7.01063">
        <ele>1983.6</ele>
        <time>2012-12-28T10:44:05Z</time>
      </trkpt>
      <trkpt lat="44.05354" lon="7.01063">
        <ele>1984.1</ele>
        <time>2012-12-28T10:44:06Z</time>
      </trkpt>
      <trkpt lat="44.05353" lon="7.01062">
        <ele>1984.5</ele>
        <time>2012-12-28T10:44:07Z</time>
      </trkpt>
      <trkpt lat="44.05353" lon="7.01062">
        <ele>1984.5</ele>
        <time>2012-12-28T10:44:08Z</time>
      </trkpt>
      <trkpt lat="44.05353" lon="7.01062">
        <ele>1984.5</ele>
        <time>2012-12-28T10:44:09Z</time>
      </trkpt>
      <trkpt lat="44.05352" lon="7.01062">
        <ele>1984.7</ele>
        <time>2012-12-28T10:44:10Z</time>
      </trkpt>
      <trkpt lat="44.05352" lon="7.01062">
        <ele>1984.7</ele>
        <time>2012-12-28T10:44:11Z</time>
      </trkpt>
      <trkpt lat="44.05352" lon="7.01062">
        <ele>1984.7</ele>
        <time>2012-12-28T10:44:12Z</time>
      </trkpt>
      <trkpt lat="44.05352" lon="7.01062">
        <ele>1984.5</ele>
        <time>2012-12-28T10:44:13Z</time>
      </trkpt>
      <trkpt lat="44.05352" lon="7.01062">
        <ele>1984.5</ele>
        <time>2012-12-28T10:44:14Z</time>
      </trkpt>
      <trkpt lat="44.05352" lon="7.01062">
        <ele>1984.5</ele>
        <time>2012-12-28T10:44:15Z</time>
      </trkpt>
      <trkpt lat="44.05352" lon="7.01062">
        <ele>1984.5</ele>
        <time>2012-12-28T10:44:16Z</time>
      </trkpt>
      <trkpt lat="44.05352" lon="7.01062">
        <ele>1984.5</ele>
        <time>2012-12-28T10:44:17Z</time>
      </trkpt>
      <trkpt lat="44.05352" lon="7.01062">
        <ele>1984.5</ele>
        <time>2012-12-28T10:44:18Z</time>
      </trkpt>
      <trkpt lat="44.05352" lon="7.01062">
        <ele>1984.5</ele>
        <time>2012-12-28T10:44:19Z</time>
      </trkpt>
      <trkpt lat="44.05352" lon="7.01062">
        <ele>1984.5</ele>
        <time>2012-12-28T10:44:20Z</time>
      </trkpt>
      <trkpt lat="44.05352" lon="7.01062">
        <ele>1984.5</ele>
        <time>2012-12-28T10:44:21Z</time>
      </trkpt>
      <trkpt lat="44.05352" lon="7.01062">
        <ele>1984.5</ele>
        <time>2012-12-28T10:44:22Z</time>
      </trkpt>
      <trkpt lat="44.05352" lon="7.01062">
        <ele>1984.5</ele>
        <time>2012-12-28T10:44:23Z</time>
      </trkpt>
      <trkpt lat="44.05352" lon="7.01062">
        <ele>1984.5</ele>
        <time>2012-12-28T10:44:24Z</time>
      </trkpt>
      <trkpt lat="44.05352" lon="7.01062">
        <ele>1984.5</ele>
        <time>2012-12-28T10:44:25Z</time>
      </trkpt>
      <trkpt lat="44.05352" lon="7.01062">
        <ele>1984.5</ele>
        <time>2012-12-28T10:44:26Z</time>
      </trkpt>
      <trkpt lat="44.05352" lon="7.01062">
        <ele>1984.5</ele>
        <time>2012-12-28T10:44:27Z</time>
      </trkpt>
      <trkpt lat="44.05352" lon="7.01062">
        <ele>1984.5</ele>
        <time>2012-12-28T10:44:28Z</time>
      </trkpt>
      <trkpt lat="44.05352" lon="7.01062">
        <ele>1984.5</ele>
        <time>2012-12-28T10:44:29Z</time>
      </trkpt>
      <trkpt lat="44.05352" lon="7.01062">
        <ele>1984.5</ele>
        <time>2012-12-28T10:44:30Z</time>
      </trkpt>
      <trkpt lat="44.05352" lon="7.01062">
        <ele>1984.5</ele>
        <time>2012-12-28T10:44:31Z</time>
      </trkpt>
      <trkpt lat="44.05352" lon="7.01062">
        <ele>1984.5</ele>
        <time>2012-12-28T10:44:32Z</time>
      </trkpt>
      <trkpt lat="44.05352" lon="7.01062">
        <ele>1984.5</ele>
        <time>2012-12-28T10:44:33Z</time>
      </trkpt>
      <trkpt lat="44.05352" lon="7.01062">
        <ele>1984.5</ele>
        <time>2012-12-28T10:44:34Z</time>
      </trkpt>
      <trkpt lat="44.05352" lon="7.01062">
        <ele>1984.5</ele>
        <time>2012-12-28T10:44:35Z</time>
      </trkpt>
      <trkpt lat="44.05352" lon="7.01062">
        <ele>1984.5</ele>
        <time>2012-12-28T10:44:36Z</time>
      </trkpt>
      <trkpt lat="44.05352" lon="7.01062">
        <ele>1984.5</ele>
        <time>2012-12-28T10:44:37Z</time>
      </trkpt>
      <trkpt lat="44.05352" lon="7.01062">
        <ele>1984.5</ele>
        <time>2012-12-28T10:44:38Z</time>
      </trkpt>
      <trkpt lat="44.05352" lon="7.01062">
        <ele>1984.5</ele>
        <time>2012-12-28T10:44:39Z</time>
      </trkpt>
      <trkpt lat="44.05352" lon="7.01062">
        <ele>1984.5</ele>
        <time>2012-12-28T10:44:40Z</time>
      </trkpt>
      <trkpt lat="44.05352" lon="7.01062">
        <ele>1984.5</ele>
        <time>2012-12-28T10:44:41Z</time>
      </trkpt>
      <trkpt lat="44.05352" lon="7.01062">
        <ele>1984.5</ele>
        <time>2012-12-28T10:44:42Z</time>
      </trkpt>
      <trkpt lat="44.05352" lon="7.01062">
        <ele>1984.5</ele>
        <time>2012-12-28T10:44:43Z</time>
      </trkpt>
      <trkpt lat="44.05352" lon="7.01062">
        <ele>1984.5</ele>
        <time>2012-12-28T10:44:44Z</time>
      </trkpt>
      <trkpt lat="44.05352" lon="7.01062">
        <ele>1984.5</ele>
        <time>2012-12-28T10:44:45Z</time>
      </trkpt>
      <trkpt lat="44.05352" lon="7.01062">
        <ele>1984.5</ele>
        <time>2012-12-28T10:44:46Z</time>
      </trkpt>
      <trkpt lat="44.05352" lon="7.01062">
        <ele>1984.5</ele>
        <time>2012-12-28T10:44:47Z</time>
      </trkpt>
      <trkpt lat="44.05352" lon="7.01062">
        <ele>1984.5</ele>
        <time>2012-12-28T10:44:48Z</time>
      </trkpt>
      <trkpt lat="44.05352" lon="7.01062">
        <ele>1984.5</ele>
        <time>2012-12-28T10:44:49Z</time>
      </trkpt>
      <trkpt lat="44.05352" lon="7.01062">
        <ele>1984.5</ele>
        <time>2012-12-28T10:44:50Z</time>
      </trkpt>
      <trkpt lat="44.05352" lon="7.01062">
        <ele>1984.5</ele>
        <time>2012-12-28T10:44:51Z</time>
      </trkpt>
      <trkpt lat="44.05352" lon="7.01062">
        <ele>1984.5</ele>
        <time>2012-12-28T10:44:52Z</time>
      </trkpt>
      <trkpt lat="44.05352" lon="7.01062">
        <ele>1984.5</ele>
        <time>2012-12-28T10:44:53Z</time>
      </trkpt>
      <trkpt lat="44.05351" lon="7.01061">
        <ele>1984.2</ele>
        <time>2012-12-28T10:44:54Z</time>
      </trkpt>
      <trkpt lat="44.0535" lon="7.01061">
        <ele>1984.3</ele>
        <time>2012-12-28T10:44:55Z</time>
      </trkpt>
      <trkpt lat="44.0535" lon="7.01061">
        <ele>1984.3</ele>
        <time>2012-12-28T10:44:56Z</time>
      </trkpt>
      <trkpt lat="44.0535" lon="7.0106">
        <ele>1984.3</ele>
        <time>2012-12-28T10:44:57Z</time>
      </trkpt>
      <trkpt lat="44.05349" lon="7.01059">
        <ele>1984.3</ele>
        <time>2012-12-28T10:44:58Z</time>
      </trkpt>
      <trkpt lat="44.05348" lon="7.01058">
        <ele>1984.4</ele>
        <time>2012-12-28T10:44:59Z</time>
      </trkpt>
      <trkpt lat="44.05347" lon="7.01057">
        <ele>1984.6</ele>
        <time>2012-12-28T10:45:00Z</time>
      </trkpt>
      <trkpt lat="44.05347" lon="7.01057">
        <ele>1984.7</ele>
        <time>2012-12-28T10:45:01Z</time>
      </trkpt>
      <trkpt lat="44.05347" lon="7.01057">
        <ele>1984.7</ele>
        <time>2012-12-28T10:45:02Z</time>
      </trkpt>
      <trkpt lat="44.05347" lon="7.01057">
        <ele>1984.7</ele>
        <time>2012-12-28T10:45:03Z</time>
      </trkpt>
      <trkpt lat="44.05347" lon="7.01057">
        <ele>1984.7</ele>
        <time>2012-12-28T10:45:04Z</time>
      </trkpt>
      <trkpt lat="44.05346" lon="7.01056">
        <ele>1984.7</ele>
        <time>2012-12-28T10:45:05Z</time>
      </trkpt>
      <trkpt lat="44.05345" lon="7.01056">
        <ele>1984.9</ele>
        <time>2012-12-28T10:45:06Z</time>
      </trkpt>
      <trkpt lat="44.05345" lon="7.01056">
        <ele>1984.9</ele>
        <time>2012-12-28T10:45:07Z</time>
      </trkpt>
      <trkpt lat="44.05344" lon="7.01055">
        <ele>1985</ele>
        <time>2012-12-28T10:45:08Z</time>
      </trkpt>
      <trkpt lat="44.05343" lon="7.01055">
        <ele>1985</ele>
        <time>2012-12-28T10:45:09Z</time>
      </trkpt>
      <trkpt lat="44.05342" lon="7.01054">
        <ele>1985.1</ele>
        <time>2012-12-28T10:45:10Z</time>
      </trkpt>
      <trkpt lat="44.05341" lon="7.01054">
        <ele>1985.2</ele>
        <time>2012-12-28T10:45:11Z</time>
      </trkpt>
      <trkpt lat="44.05341" lon="7.01054">
        <ele>1985.2</ele>
        <time>2012-12-28T10:45:12Z</time>
      </trkpt>
      <trkpt lat="44.0534" lon="7.01053">
        <ele>1985.3</ele>
        <time>2012-12-28T10:45:13Z</time>
      </trkpt>
      <trkpt lat="44.0534" lon="7.01053">
        <ele>1985.3</ele>
        <time>2012-12-28T10:45:14Z</time>
      </trkpt>
      <trkpt lat="44.05339" lon="7.01053">
        <ele>1985.5</ele>
        <time>2012-12-28T10:45:15Z</time>
      </trkpt>
      <trkpt lat="44.05338" lon="7.01052">
        <ele>1985.3</ele>
        <time>2012-12-28T10:45:16Z</time>
      </trkpt>
      <trkpt lat="44.05337" lon="7.01052">
        <ele>1985.3</ele>
        <time>2012-12-28T10:45:17Z</time>
      </trkpt>
      <trkpt lat="44.05337" lon="7.01052">
        <ele>1985.3</ele>
        <time>2012-12-28T10:45:18Z</time>
      </trkpt>
      <trkpt lat="44.05336" lon="7.01052">
        <ele>1985.5</ele>
        <time>2012-12-28T10:45:19Z</time>
      </trkpt>
      <trkpt lat="44.05325" lon="7.01046">
        <ele>1987.4</ele>
        <time>2012-12-28T10:45:31Z</time>
      </trkpt>
      <trkpt lat="44.05295" lon="7.01035">
        <ele>1992.3</ele>
        <time>2012-12-28T10:46:21Z</time>
      </trkpt>
      <trkpt lat="44.05295" lon="7.01035">
        <ele>1992.3</ele>
        <time>2012-12-28T10:46:22Z</time>
      </trkpt>
      <trkpt lat="44.05295" lon="7.01035">
        <ele>1992.4</ele>
        <time>2012-12-28T10:46:23Z</time>
      </trkpt>
      <trkpt lat="44.05294" lon="7.01035">
        <ele>1992.6</ele>
        <time>2012-12-28T10:46:24Z</time>
      </trkpt>
      <trkpt lat="44.05293" lon="7.01035">
        <ele>1992.8</ele>
        <time>2012-12-28T10:46:25Z</time>
      </trkpt>
      <trkpt lat="44.05292" lon="7.01035">
        <ele>1992.9</ele>
        <time>2012-12-28T10:46:26Z</time>
      </trkpt>
      <trkpt lat="44.05292" lon="7.01035">
        <ele>1992.9</ele>
        <time>2012-12-28T10:46:27Z</time>
      </trkpt>
      <trkpt lat="44.05291" lon="7.01035">
        <ele>1992.9</ele>
        <time>2012-12-28T10:46:28Z</time>
      </trkpt>
      <trkpt lat="44.05291" lon="7.01035">
        <ele>1993.2</ele>
        <time>2012-12-28T10:46:29Z</time>
      </trkpt>
      <trkpt lat="44.0529" lon="7.01034">
        <ele>1993.1</ele>
        <time>2012-12-28T10:46:30Z</time>
      </trkpt>
      <trkpt lat="44.0529" lon="7.01034">
        <ele>1993.1</ele>
        <time>2012-12-28T10:46:31Z</time>
      </trkpt>
      <trkpt lat="44.0529" lon="7.01034">
        <ele>1993.1</ele>
        <time>2012-12-28T10:46:32Z</time>
      </trkpt>
      <trkpt lat="44.05289" lon="7.01034">
        <ele>1993.1</ele>
        <time>2012-12-28T10:46:33Z</time>
      </trkpt>
      <trkpt lat="44.05288" lon="7.01033">
        <ele>1993.2</ele>
        <time>2012-12-28T10:46:34Z</time>
      </trkpt>
      <trkpt lat="44.05266" lon="7.01023">
        <ele>1995.5</ele>
        <time>2012-12-28T10:51:15Z</time>
      </trkpt>
      <trkpt lat="44.05265" lon="7.01022">
        <ele>1995.5</ele>
        <time>2012-12-28T10:51:16Z</time>
      </trkpt>
      <trkpt lat="44.05264" lon="7.01022">
        <ele>1995.5</ele>
        <time>2012-12-28T10:51:17Z</time>
      </trkpt>
      <trkpt lat="44.05263" lon="7.01021">
        <ele>1995.5</ele>
        <time>2012-12-28T10:51:18Z</time>
      </trkpt>
      <trkpt lat="44.05262" lon="7.01021">
        <ele>1995.5</ele>
        <time>2012-12-28T10:51:19Z</time>
      </trkpt>
      <trkpt lat="44.05261" lon="7.0102">
        <ele>1995.7</ele>
        <time>2012-12-28T10:51:20Z</time>
      </trkpt>
      <trkpt lat="44.0526" lon="7.01019">
        <ele>1995.8</ele>
        <time>2012-12-28T10:51:21Z</time>
      </trkpt>
      <trkpt lat="44.05259" lon="7.01019">
        <ele>1996</ele>
        <time>2012-12-28T10:51:22Z</time>
      </trkpt>
      <trkpt lat="44.05258" lon="7.01018">
        <ele>1996.3</ele>
        <time>2012-12-28T10:51:23Z</time>
      </trkpt>
      <trkpt lat="44.05258" lon="7.01018">
        <ele>1996.5</ele>
        <time>2012-12-28T10:51:24Z</time>
      </trkpt>
      <trkpt lat="44.05257" lon="7.01017">
        <ele>1996.5</ele>
        <time>2012-12-28T10:51:25Z</time>
      </trkpt>
      <trkpt lat="44.05248" lon="7.01013">
        <ele>1998</ele>
        <time>2012-12-28T10:51:56Z</time>
      </trkpt>
      <trkpt lat="44.05247" lon="7.01012">
        <ele>1998</ele>
        <time>2012-12-28T10:51:57Z</time>
      </trkpt>
      <trkpt lat="44.05231" lon="7.01027">
        <ele>2003.7</ele>
        <time>2012-12-28T10:53:04Z</time>
      </trkpt>
      <trkpt lat="44.0523" lon="7.01027">
        <ele>2004</ele>
        <time>2012-12-28T10:53:05Z</time>
      </trkpt>
      <trkpt lat="44.05181" lon="7.0101">
        <ele>2017.9</ele>
        <time>2012-12-28T10:54:32Z</time>
      </trkpt>
      <trkpt lat="44.0518" lon="7.01009">
        <ele>2018</ele>
        <time>2012-12-28T10:54:33Z</time>
      </trkpt>
      <trkpt lat="44.05179" lon="7.01009">
        <ele>2018</ele>
        <time>2012-12-28T10:54:34Z</time>
      </trkpt>
      <trkpt lat="44.05179" lon="7.01008">
        <ele>2018.1</ele>
        <time>2012-12-28T10:54:35Z</time>
      </trkpt>
      <trkpt lat="44.05174" lon="7.01007">
        <ele>2018.5</ele>
        <time>2012-12-28T10:54:43Z</time>
      </trkpt>
      <trkpt lat="44.05153" lon="7.01001">
        <ele>2022.3</ele>
        <time>2012-12-28T10:55:13Z</time>
      </trkpt>
      <trkpt lat="44.05146" lon="7.00994">
        <ele>2024.2</ele>
        <time>2012-12-28T10:56:06Z</time>
      </trkpt>
      <trkpt lat="44.05146" lon="7.00994">
        <ele>2024.2</ele>
        <time>2012-12-28T10:56:07Z</time>
      </trkpt>
      <trkpt lat="44.05146" lon="7.00993">
        <ele>2024.1</ele>
        <time>2012-12-28T10:56:08Z</time>
      </trkpt>
      <trkpt lat="44.05146" lon="7.00992">
        <ele>2024</ele>
        <time>2012-12-28T10:56:09Z</time>
      </trkpt>
      <trkpt lat="44.05143" lon="7.00982">
        <ele>2024.3</ele>
        <time>2012-12-28T10:56:17Z</time>
      </trkpt>
      <trkpt lat="44.05143" lon="7.00981">
        <ele>2024.1</ele>
        <time>2012-12-28T10:56:18Z</time>
      </trkpt>
      <trkpt lat="44.05137" lon="7.0096">
        <ele>2024.7</ele>
        <time>2012-12-28T10:56:36Z</time>
      </trkpt>
      <trkpt lat="44.05136" lon="7.00957">
        <ele>2024.6</ele>
        <time>2012-12-28T10:56:38Z</time>
      </trkpt>
      <trkpt lat="44.05136" lon="7.00956">
        <ele>2024.7</ele>
        <time>2012-12-28T10:56:39Z</time>
      </trkpt>
      <trkpt lat="44.05136" lon="7.00956">
        <ele>2024.7</ele>
        <time>2012-12-28T10:56:40Z</time>
      </trkpt>
      <trkpt lat="44.05135" lon="7.00956">
        <ele>2024.7</ele>
        <time>2012-12-28T10:56:41Z</time>
      </trkpt>
      <trkpt lat="44.05135" lon="7.00956">
        <ele>2024.7</ele>
        <time>2012-12-28T10:56:42Z</time>
      </trkpt>
      <trkpt lat="44.05135" lon="7.00955">
        <ele>2024.9</ele>
        <time>2012-12-28T10:56:43Z</time>
      </trkpt>
      <trkpt lat="44.05135" lon="7.00954">
        <ele>2025</ele>
        <time>2012-12-28T10:56:44Z</time>
      </trkpt>
      <trkpt lat="44.05134" lon="7.00953">
        <ele>2025.3</ele>
        <time>2012-12-28T10:56:45Z</time>
      </trkpt>
      <trkpt lat="44.05134" lon="7.00952">
        <ele>2025.6</ele>
        <time>2012-12-28T10:56:46Z</time>
      </trkpt>
      <trkpt lat="44.05134" lon="7.00951">
        <ele>2025.7</ele>
        <time>2012-12-28T10:56:47Z</time>
      </trkpt>
      <trkpt lat="44.05134" lon="7.00949">
        <ele>2025.8</ele>
        <time>2012-12-28T10:56:48Z</time>
      </trkpt>
      <trkpt lat="44.05133" lon="7.00948">
        <ele>2025.9</ele>
        <time>2012-12-28T10:56:49Z</time>
      </trkpt>
      <trkpt lat="44.05133" lon="7.00947">
        <ele>2025.9</ele>
        <time>2012-12-28T10:56:50Z</time>
      </trkpt>
      <trkpt lat="44.05131" lon="7.00943">
        <ele>2026.7</ele>
        <time>2012-12-28T10:56:57Z</time>
      </trkpt>
      <trkpt lat="44.05124" lon="7.00929">
        <ele>2027.7</ele>
        <time>2012-12-28T10:57:38Z</time>
      </trkpt>
      <trkpt lat="44.05124" lon="7.00929">
        <ele>2027.7</ele>
        <time>2012-12-28T10:57:39Z</time>
      </trkpt>
      <trkpt lat="44.05124" lon="7.00928">
        <ele>2027.6</ele>
        <time>2012-12-28T10:57:40Z</time>
      </trkpt>
      <trkpt lat="44.05124" lon="7.00928">
        <ele>2027.6</ele>
        <time>2012-12-28T10:57:41Z</time>
      </trkpt>
      <trkpt lat="44.05124" lon="7.00928">
        <ele>2027.6</ele>
        <time>2012-12-28T10:57:42Z</time>
      </trkpt>
      <trkpt lat="44.05124" lon="7.00928">
        <ele>2027.6</ele>
        <time>2012-12-28T10:57:43Z</time>
      </trkpt>
      <trkpt lat="44.05124" lon="7.00928">
        <ele>2027.6</ele>
        <time>2012-12-28T10:57:44Z</time>
      </trkpt>
      <trkpt lat="44.05124" lon="7.00928">
        <ele>2027.6</ele>
        <time>2012-12-28T10:57:45Z</time>
      </trkpt>
      <trkpt lat="44.05123" lon="7.00927">
        <ele>2027.5</ele>
        <time>2012-12-28T10:57:46Z</time>
      </trkpt>
      <trkpt lat="44.05123" lon="7.00927">
        <ele>2027.5</ele>
        <time>2012-12-28T10:57:47Z</time>
      </trkpt>
      <trkpt lat="44.05123" lon="7.00927">
        <ele>2027.5</ele>
        <time>2012-12-28T10:57:48Z</time>
      </trkpt>
      <trkpt lat="44.05123" lon="7.00926">
        <ele>2027.5</ele>
        <time>2012-12-28T10:57:49Z</time>
      </trkpt>
      <trkpt lat="44.05123" lon="7.00926">
        <ele>2027.5</ele>
        <time>2012-12-28T10:57:50Z</time>
      </trkpt>
      <trkpt lat="44.05122" lon="7.00925">
        <ele>2027.7</ele>
        <time>2012-12-28T10:57:51Z</time>
      </trkpt>
      <trkpt lat="44.05122" lon="7.00925">
        <ele>2027.7</ele>
        <time>2012-12-28T10:57:52Z</time>
      </trkpt>
      <trkpt lat="44.05121" lon="7.00923">
        <ele>2028</ele>
        <time>2012-12-28T10:57:53Z</time>
      </trkpt>
      <trkpt lat="44.05121" lon="7.00923">
        <ele>2028</ele>
        <time>2012-12-28T10:57:54Z</time>
      </trkpt>
      <trkpt lat="44.05121" lon="7.00923">
        <ele>2028</ele>
        <time>2012-12-28T10:57:55Z</time>
      </trkpt>
      <trkpt lat="44.05121" lon="7.00922">
        <ele>2028.4</ele>
        <time>2012-12-28T10:57:56Z</time>
      </trkpt>
      <trkpt lat="44.0512" lon="7.00921">
        <ele>2028.1</ele>
        <time>2012-12-28T10:57:57Z</time>
      </trkpt>
      <trkpt lat="44.05119" lon="7.0092">
        <ele>2028.3</ele>
        <time>2012-12-28T10:57:58Z</time>
      </trkpt>
      <trkpt lat="44.05118" lon="7.00918">
        <ele>2027.8</ele>
        <time>2012-12-28T10:57:59Z</time>
      </trkpt>
      <trkpt lat="44.05118" lon="7.00917">
        <ele>2028</ele>
        <time>2012-12-28T10:58:00Z</time>
      </trkpt>
      <trkpt lat="44.05118" lon="7.00917">
        <ele>2028</ele>
        <time>2012-12-28T10:58:01Z</time>
      </trkpt>
      <trkpt lat="44.05117" lon="7.00916">
        <ele>2028.1</ele>
        <time>2012-12-28T10:58:02Z</time>
      </trkpt>
      <trkpt lat="44.05116" lon="7.00915">
        <ele>2028.4</ele>
        <time>2012-12-28T10:58:03Z</time>
      </trkpt>
      <trkpt lat="44.05115" lon="7.00913">
        <ele>2028.5</ele>
        <time>2012-12-28T10:58:04Z</time>
      </trkpt>
      <trkpt lat="44.05114" lon="7.00912">
        <ele>2028.9</ele>
        <time>2012-12-28T10:58:05Z</time>
      </trkpt>
      <trkpt lat="44.05113" lon="7.00911">
        <ele>2028.9</ele>
        <time>2012-12-28T10:58:06Z</time>
      </trkpt>
      <trkpt lat="44.05113" lon="7.0091">
        <ele>2029</ele>
        <time>2012-12-28T10:58:07Z</time>
      </trkpt>
      <trkpt lat="44.05107" lon="7.009">
        <ele>2029.3</ele>
        <time>2012-12-28T10:58:18Z</time>
      </trkpt>
      <trkpt lat="44.05106" lon="7.00899">
        <ele>2029.3</ele>
        <time>2012-12-28T10:58:19Z</time>
      </trkpt>
      <trkpt lat="44.05069" lon="7.00848">
        <ele>2029.7</ele>
        <time>2012-12-28T10:59:36Z</time>
      </trkpt>
      <trkpt lat="44.05069" lon="7.00848">
        <ele>2029.7</ele>
        <time>2012-12-28T10:59:37Z</time>
      </trkpt>
      <trkpt lat="44.05069" lon="7.00848">
        <ele>2029.6</ele>
        <time>2012-12-28T10:59:38Z</time>
      </trkpt>
      <trkpt lat="44.05068" lon="7.00847">
        <ele>2029.7</ele>
        <time>2012-12-28T10:59:39Z</time>
      </trkpt>
      <trkpt lat="44.05057" lon="7.00832">
        <ele>2030.2</ele>
        <time>2012-12-28T10:59:58Z</time>
      </trkpt>
      <trkpt lat="44.05056" lon="7.00831">
        <ele>2030.1</ele>
        <time>2012-12-28T10:59:59Z</time>
      </trkpt>
      <trkpt lat="44.05056" lon="7.00831">
        <ele>2030.1</ele>
        <time>2012-12-28T11:00:00Z</time>
      </trkpt>
      <trkpt lat="44.05056" lon="7.00831">
        <ele>2030.3</ele>
        <time>2012-12-28T11:00:01Z</time>
      </trkpt>
      <trkpt lat="44.05055" lon="7.0083">
        <ele>2030.3</ele>
        <time>2012-12-28T11:00:02Z</time>
      </trkpt>
      <trkpt lat="44.05048" lon="7.00824">
        <ele>2030.5</ele>
        <time>2012-12-28T11:00:09Z</time>
      </trkpt>
      <trkpt lat="44.05041" lon="7.00819">
        <ele>2030.9</ele>
        <time>2012-12-28T11:00:17Z</time>
      </trkpt>
      <trkpt lat="44.0504" lon="7.00818">
        <ele>2031</ele>
        <time>2012-12-28T11:00:18Z</time>
      </trkpt>
      <trkpt lat="44.05039" lon="7.00817">
        <ele>2031.2</ele>
        <time>2012-12-28T11:00:19Z</time>
      </trkpt>
      <trkpt lat="44.05039" lon="7.00817">
        <ele>2031.2</ele>
        <time>2012-12-28T11:00:20Z</time>
      </trkpt>
      <trkpt lat="44.05039" lon="7.00817">
        <ele>2031.1</ele>
        <time>2012-12-28T11:00:21Z</time>
      </trkpt>
      <trkpt lat="44.05022" lon="7.00799">
        <ele>2030.9</ele>
        <time>2012-12-28T11:00:55Z</time>
      </trkpt>
      <trkpt lat="44.05021" lon="7.00798">
        <ele>2031</ele>
        <time>2012-12-28T11:00:56Z</time>
      </trkpt>
      <trkpt lat="44.04988" lon="7.00766">
        <ele>2026.2</ele>
        <time>2012-12-28T11:02:15Z</time>
      </trkpt>
      <trkpt lat="44.04988" lon="7.00765">
        <ele>2025.9</ele>
        <time>2012-12-28T11:02:16Z</time>
      </trkpt>
      <trkpt lat="44.04987" lon="7.00765">
        <ele>2025.9</ele>
        <time>2012-12-28T11:02:17Z</time>
      </trkpt>
      <trkpt lat="44.04986" lon="7.00765">
        <ele>2025.7</ele>
        <time>2012-12-28T11:02:18Z</time>
      </trkpt>
      <trkpt lat="44.04985" lon="7.00764">
        <ele>2025.9</ele>
        <time>2012-12-28T11:02:19Z</time>
      </trkpt>
      <trkpt lat="44.04985" lon="7.00764">
        <ele>2025.6</ele>
        <time>2012-12-28T11:02:20Z</time>
      </trkpt>
      <trkpt lat="44.04984" lon="7.00763">
        <ele>2025.3</ele>
        <time>2012-12-28T11:02:21Z</time>
      </trkpt>
      <trkpt lat="44.04983" lon="7.00763">
        <ele>2025.4</ele>
        <time>2012-12-28T11:02:22Z</time>
      </trkpt>
      <trkpt lat="44.04982" lon="7.00762">
        <ele>2025.1</ele>
        <time>2012-12-28T11:02:23Z</time>
      </trkpt>
      <trkpt lat="44.04981" lon="7.00762">
        <ele>2025</ele>
        <time>2012-12-28T11:02:24Z</time>
      </trkpt>
      <trkpt lat="44.0498" lon="7.00762">
        <ele>2024.8</ele>
        <time>2012-12-28T11:02:25Z</time>
      </trkpt>
      <trkpt lat="44.04965" lon="7.00759">
        <ele>2022.6</ele>
        <time>2012-12-28T11:02:42Z</time>
      </trkpt>
      <trkpt lat="44.04964" lon="7.00759">
        <ele>2022.5</ele>
        <time>2012-12-28T11:02:43Z</time>
      </trkpt>
      <trkpt lat="44.04963" lon="7.00759">
        <ele>2022.3</ele>
        <time>2012-12-28T11:02:44Z</time>
      </trkpt>
      <trkpt lat="44.0496" lon="7.00758">
        <ele>2022.1</ele>
        <time>2012-12-28T11:02:48Z</time>
      </trkpt>
      <trkpt lat="44.04958" lon="7.00757">
        <ele>2021.5</ele>
        <time>2012-12-28T11:02:50Z</time>
      </trkpt>
      <trkpt lat="44.04957" lon="7.00758">
        <ele>2021.4</ele>
        <time>2012-12-28T11:02:51Z</time>
      </trkpt>
      <trkpt lat="44.04956" lon="7.00757">
        <ele>2021.3</ele>
        <time>2012-12-28T11:02:52Z</time>
      </trkpt>
      <trkpt lat="44.04944" lon="7.00752">
        <ele>2018.3</ele>
        <time>2012-12-28T11:03:08Z</time>
      </trkpt>
      <trkpt lat="44.04943" lon="7.00752">
        <ele>2018.1</ele>
        <time>2012-12-28T11:03:09Z</time>
      </trkpt>
      <trkpt lat="44.04938" lon="7.00751">
        <ele>2017.3</ele>
        <time>2012-12-28T11:03:14Z</time>
      </trkpt>
      <trkpt lat="44.04919" lon="7.00751">
        <ele>2014.8</ele>
        <time>2012-12-28T11:03:32Z</time>
      </trkpt>
      <trkpt lat="44.04919" lon="7.00751">
        <ele>2014.7</ele>
        <time>2012-12-28T11:03:33Z</time>
      </trkpt>
      <trkpt lat="44.04917" lon="7.00749">
        <ele>2014.3</ele>
        <time>2012-12-28T11:03:36Z</time>
      </trkpt>
      <trkpt lat="44.04915" lon="7.00749">
        <ele>2014.2</ele>
        <time>2012-12-28T11:03:38Z</time>
      </trkpt>
      <trkpt lat="44.04915" lon="7.00747">
        <ele>2014.1</ele>
        <time>2012-12-28T11:03:39Z</time>
      </trkpt>
      <trkpt lat="44.04908" lon="7.00746">
        <ele>2013.4</ele>
        <time>2012-12-28T11:03:51Z</time>
      </trkpt>
      <trkpt lat="44.04907" lon="7.00747">
        <ele>2013.3</ele>
        <time>2012-12-28T11:03:52Z</time>
      </trkpt>
      <trkpt lat="44.04906" lon="7.00748">
        <ele>2013.3</ele>
        <time>2012-12-28T11:03:54Z</time>
      </trkpt>
      <trkpt lat="44.04887" lon="7.00747">
        <ele>2012.6</ele>
        <time>2012-12-28T11:04:49Z</time>
      </trkpt>
      <trkpt lat="44.04886" lon="7.00746">
        <ele>2012.5</ele>
        <time>2012-12-28T11:04:50Z</time>
      </trkpt>
      <trkpt lat="44.04886" lon="7.00746">
        <ele>2012.5</ele>
        <time>2012-12-28T11:04:51Z</time>
      </trkpt>
      <trkpt lat="44.04886" lon="7.00746">
        <ele>2012.5</ele>
        <time>2012-12-28T11:04:52Z</time>
      </trkpt>
      <trkpt lat="44.04886" lon="7.00745">
        <ele>2012.7</ele>
        <time>2012-12-28T11:04:53Z</time>
      </trkpt>
      <trkpt lat="44.0482" lon="7.0073">
        <ele>2020.7</ele>
        <time>2012-12-28T11:08:00Z</time>
      </trkpt>
      <trkpt lat="44.04819" lon="7.00731">
        <ele>2020.4</ele>
        <time>2012-12-28T11:08:01Z</time>
      </trkpt>
      <trkpt lat="44.04808" lon="7.00735">
        <ele>2023.3</ele>
        <time>2012-12-28T11:09:07Z</time>
      </trkpt>
      <trkpt lat="44.04808" lon="7.00734">
        <ele>2023.4</ele>
        <time>2012-12-28T11:09:08Z</time>
      </trkpt>
      <trkpt lat="44.04807" lon="7.00734">
        <ele>2023.3</ele>
        <time>2012-12-28T11:09:09Z</time>
      </trkpt>
      <trkpt lat="44.04807" lon="7.00734">
        <ele>2023.3</ele>
        <time>2012-12-28T11:09:10Z</time>
      </trkpt>
      <trkpt lat="44.04807" lon="7.00733">
        <ele>2023</ele>
        <time>2012-12-28T11:09:11Z</time>
      </trkpt>
      <trkpt lat="44.04807" lon="7.00733">
        <ele>2023</ele>
        <time>2012-12-28T11:09:12Z</time>
      </trkpt>
      <trkpt lat="44.04807" lon="7.00733">
        <ele>2022.6</ele>
        <time>2012-12-28T11:09:13Z</time>
      </trkpt>
      <trkpt lat="44.04807" lon="7.00733">
        <ele>2022.6</ele>
        <time>2012-12-28T11:09:14Z</time>
      </trkpt>
      <trkpt lat="44.04806" lon="7.00733">
        <ele>2022.3</ele>
        <time>2012-12-28T11:09:15Z</time>
      </trkpt>
      <trkpt lat="44.04806" lon="7.00733">
        <ele>2022.3</ele>
        <time>2012-12-28T11:09:16Z</time>
      </trkpt>
      <trkpt lat="44.04806" lon="7.00733">
        <ele>2022.3</ele>
        <time>2012-12-28T11:09:17Z</time>
      </trkpt>
      <trkpt lat="44.04806" lon="7.00733">
        <ele>2022.3</ele>
        <time>2012-12-28T11:09:18Z</time>
      </trkpt>
      <trkpt lat="44.04806" lon="7.00733">
        <ele>2022.3</ele>
        <time>2012-12-28T11:09:19Z</time>
      </trkpt>
      <trkpt lat="44.04806" lon="7.00733">
        <ele>2022.3</ele>
        <time>2012-12-28T11:09:20Z</time>
      </trkpt>
      <trkpt lat="44.04806" lon="7.00733">
        <ele>2022.3</ele>
        <time>2012-12-28T11:09:21Z</time>
      </trkpt>
      <trkpt lat="44.04806" lon="7.00732">
        <ele>2022.5</ele>
        <time>2012-12-28T11:09:22Z</time>
      </trkpt>
      <trkpt lat="44.04805" lon="7.00731">
        <ele>2022.4</ele>
        <time>2012-12-28T11:09:23Z</time>
      </trkpt>
      <trkpt lat="44.04766" lon="7.00749">
        <ele>2032.6</ele>
        <time>2012-12-28T11:11:50Z</time>
      </trkpt>
      <trkpt lat="44.04765" lon="7.00749">
        <ele>2033</ele>
        <time>2012-12-28T11:11:51Z</time>
      </trkpt>
      <trkpt lat="44.04765" lon="7.00749">
        <ele>2033</ele>
        <time>2012-12-28T11:11:52Z</time>
      </trkpt>
      <trkpt lat="44.04764" lon="7.00748">
        <ele>2033.3</ele>
        <time>2012-12-28T11:11:53Z</time>
      </trkpt>
      <trkpt lat="44.04764" lon="7.00748">
        <ele>2033.3</ele>
        <time>2012-12-28T11:11:54Z</time>
      </trkpt>
      <trkpt lat="44.04763" lon="7.00748">
        <ele>2033.7</ele>
        <time>2012-12-28T11:11:55Z</time>
      </trkpt>
      <trkpt lat="44.04763" lon="7.00748">
        <ele>2033.7</ele>
        <time>2012-12-28T11:11:56Z</time>
      </trkpt>
      <trkpt lat="44.04763" lon="7.00748">
        <ele>2033.9</ele>
        <time>2012-12-28T11:11:57Z</time>
      </trkpt>
      <trkpt lat="44.04762" lon="7.00748">
        <ele>2033.9</ele>
        <time>2012-12-28T11:11:58Z</time>
      </trkpt>
      <trkpt lat="44.04762" lon="7.00748">
        <ele>2034.2</ele>
        <time>2012-12-28T11:11:59Z</time>
      </trkpt>
      <trkpt lat="44.04762" lon="7.00748">
        <ele>2034.2</ele>
        <time>2012-12-28T11:12:00Z</time>
      </trkpt>
      <trkpt lat="44.04761" lon="7.00747">
        <ele>2034.4</ele>
        <time>2012-12-28T11:12:01Z</time>
      </trkpt>
      <trkpt lat="44.04761" lon="7.00747">
        <ele>2034.9</ele>
        <time>2012-12-28T11:12:02Z</time>
      </trkpt>
      <trkpt lat="44.0476" lon="7.00746">
        <ele>2035.1</ele>
        <time>2012-12-28T11:12:03Z</time>
      </trkpt>
      <trkpt lat="44.0476" lon="7.00745">
        <ele>2035.4</ele>
        <time>2012-12-28T11:12:04Z</time>
      </trkpt>
      <trkpt lat="44.04759" lon="7.00745">
        <ele>2035.6</ele>
        <time>2012-12-28T11:12:05Z</time>
      </trkpt>
      <trkpt lat="44.04759" lon="7.00745">
        <ele>2035.6</ele>
        <time>2012-12-28T11:12:06Z</time>
      </trkpt>
      <trkpt lat="44.04759" lon="7.00744">
        <ele>2036.1</ele>
        <time>2012-12-28T11:12:07Z</time>
      </trkpt>
      <trkpt lat="44.04759" lon="7.00743">
        <ele>2036.4</ele>
        <time>2012-12-28T11:12:08Z</time>
      </trkpt>
      <trkpt lat="44.04758" lon="7.00743">
        <ele>2036.9</ele>
        <time>2012-12-28T11:12:09Z</time>
      </trkpt>
      <trkpt lat="44.04757" lon="7.00742">
        <ele>2037</ele>
        <time>2012-12-28T11:12:10Z</time>
      </trkpt>
      <trkpt lat="44.04757" lon="7.00741">
        <ele>2037</ele>
        <time>2012-12-28T11:12:11Z</time>
      </trkpt>
      <trkpt lat="44.04744" lon="7.00727">
        <ele>2040.9</ele>
        <time>2012-12-28T11:13:03Z</time>
      </trkpt>
      <trkpt lat="44.04744" lon="7.00726">
        <ele>2040.9</ele>
        <time>2012-12-28T11:13:04Z</time>
      </trkpt>
      <trkpt lat="44.04743" lon="7.00722">
        <ele>2041.5</ele>
        <time>2012-12-28T11:13:08Z</time>
      </trkpt>
      <trkpt lat="44.04743" lon="7.00721">
        <ele>2041.5</ele>
        <time>2012-12-28T11:13:09Z</time>
      </trkpt>
      <trkpt lat="44.04701" lon="7.00617">
        <ele>2063.3</ele>
        <time>2012-12-28T11:17:37Z</time>
      </trkpt>
      <trkpt lat="44.04701" lon="7.00616">
        <ele>2063.7</ele>
        <time>2012-12-28T11:17:38Z</time>
      </trkpt>
      <trkpt lat="44.04701" lon="7.00616">
        <ele>2063.7</ele>
        <time>2012-12-28T11:17:39Z</time>
      </trkpt>
      <trkpt lat="44.047" lon="7.00615">
        <ele>2064</ele>
        <time>2012-12-28T11:17:40Z</time>
      </trkpt>
      <trkpt lat="44.047" lon="7.00615">
        <ele>2064</ele>
        <time>2012-12-28T11:17:41Z</time>
      </trkpt>
      <trkpt lat="44.047" lon="7.00614">
        <ele>2063.9</ele>
        <time>2012-12-28T11:17:42Z</time>
      </trkpt>
      <trkpt lat="44.04699" lon="7.00613">
        <ele>2063.9</ele>
        <time>2012-12-28T11:17:43Z</time>
      </trkpt>
      <trkpt lat="44.04698" lon="7.00611">
        <ele>2064.1</ele>
        <time>2012-12-28T11:17:44Z</time>
      </trkpt>
      <trkpt lat="44.04698" lon="7.00611">
        <ele>2064.1</ele>
        <time>2012-12-28T11:17:45Z</time>
      </trkpt>
      <trkpt lat="44.04698" lon="7.0061">
        <ele>2064.3</ele>
        <time>2012-12-28T11:17:46Z</time>
      </trkpt>
      <trkpt lat="44.04697" lon="7.00609">
        <ele>2064.2</ele>
        <time>2012-12-28T11:17:47Z</time>
      </trkpt>
      <trkpt lat="44.04697" lon="7.00609">
        <ele>2064.2</ele>
        <time>2012-12-28T11:17:48Z</time>
      </trkpt>
      <trkpt lat="44.04697" lon="7.00609">
        <ele>2064.2</ele>
        <time>2012-12-28T11:17:49Z</time>
      </trkpt>
      <trkpt lat="44.04697" lon="7.00608">
        <ele>2064.4</ele>
        <time>2012-12-28T11:17:50Z</time>
      </trkpt>
      <trkpt lat="44.04697" lon="7.00608">
        <ele>2064.4</ele>
        <time>2012-12-28T11:17:51Z</time>
      </trkpt>
      <trkpt lat="44.04697" lon="7.00607">
        <ele>2064.6</ele>
        <time>2012-12-28T11:17:52Z</time>
      </trkpt>
      <trkpt lat="44.04697" lon="7.00607">
        <ele>2064.6</ele>
        <time>2012-12-28T11:17:53Z</time>
      </trkpt>
      <trkpt lat="44.04696" lon="7.00606">
        <ele>2064.7</ele>
        <time>2012-12-28T11:17:54Z</time>
      </trkpt>
      <trkpt lat="44.04696" lon="7.00605">
        <ele>2064.9</ele>
        <time>2012-12-28T11:17:55Z</time>
      </trkpt>
      <trkpt lat="44.04696" lon="7.00605">
        <ele>2064.9</ele>
        <time>2012-12-28T11:17:56Z</time>
      </trkpt>
      <trkpt lat="44.04695" lon="7.00604">
        <ele>2065</ele>
        <time>2012-12-28T11:17:57Z</time>
      </trkpt>
      <trkpt lat="44.04695" lon="7.00604">
        <ele>2065</ele>
        <time>2012-12-28T11:17:58Z</time>
      </trkpt>
      <trkpt lat="44.04695" lon="7.00604">
        <ele>2065</ele>
        <time>2012-12-28T11:17:59Z</time>
      </trkpt>
      <trkpt lat="44.04695" lon="7.00604">
        <ele>2065</ele>
        <time>2012-12-28T11:18:00Z</time>
      </trkpt>
      <trkpt lat="44.04695" lon="7.00603">
        <ele>2065.1</ele>
        <time>2012-12-28T11:18:01Z</time>
      </trkpt>
      <trkpt lat="44.04695" lon="7.00603">
        <ele>2065.1</ele>
        <time>2012-12-28T11:18:02Z</time>
      </trkpt>
      <trkpt lat="44.04695" lon="7.00603">
        <ele>2065.1</ele>
        <time>2012-12-28T11:18:03Z</time>
      </trkpt>
      <trkpt lat="44.04695" lon="7.00603">
        <ele>2065.1</ele>
        <time>2012-12-28T11:18:04Z</time>
      </trkpt>
      <trkpt lat="44.04694" lon="7.00601">
        <ele>2065.4</ele>
        <time>2012-12-28T11:18:05Z</time>
      </trkpt>
      <trkpt lat="44.04694" lon="7.00601">
        <ele>2065.4</ele>
        <time>2012-12-28T11:18:06Z</time>
      </trkpt>
      <trkpt lat="44.04694" lon="7.00601">
        <ele>2065.4</ele>
        <time>2012-12-28T11:18:07Z</time>
      </trkpt>
      <trkpt lat="44.04694" lon="7.00601">
        <ele>2065.4</ele>
        <time>2012-12-28T11:18:08Z</time>
      </trkpt>
      <trkpt lat="44.04694" lon="7.00601">
        <ele>2065.4</ele>
        <time>2012-12-28T11:18:09Z</time>
      </trkpt>
      <trkpt lat="44.04694" lon="7.006">
        <ele>2065.6</ele>
        <time>2012-12-28T11:18:10Z</time>
      </trkpt>
      <trkpt lat="44.04693" lon="7.00599">
        <ele>2065.7</ele>
        <time>2012-12-28T11:18:11Z</time>
      </trkpt>
      <trkpt lat="44.04693" lon="7.00599">
        <ele>2065.7</ele>
        <time>2012-12-28T11:18:12Z</time>
      </trkpt>
      <trkpt lat="44.04693" lon="7.00598">
        <ele>2065.8</ele>
        <time>2012-12-28T11:18:13Z</time>
      </trkpt>
      <trkpt lat="44.04693" lon="7.00598">
        <ele>2065.8</ele>
        <time>2012-12-28T11:18:14Z</time>
      </trkpt>
      <trkpt lat="44.04692" lon="7.00597">
        <ele>2065.8</ele>
        <time>2012-12-28T11:18:15Z</time>
      </trkpt>
      <trkpt lat="44.04692" lon="7.00596">
        <ele>2066.1</ele>
        <time>2012-12-28T11:18:16Z</time>
      </trkpt>
      <trkpt lat="44.04692" lon="7.00596">
        <ele>2066.1</ele>
        <time>2012-12-28T11:18:17Z</time>
      </trkpt>
      <trkpt lat="44.04692" lon="7.00596">
        <ele>2066.1</ele>
        <time>2012-12-28T11:18:18Z</time>
      </trkpt>
      <trkpt lat="44.04692" lon="7.00596">
        <ele>2066.1</ele>
        <time>2012-12-28T11:18:19Z</time>
      </trkpt>
      <trkpt lat="44.04692" lon="7.00596">
        <ele>2066.1</ele>
        <time>2012-12-28T11:18:20Z</time>
      </trkpt>
      <trkpt lat="44.04692" lon="7.00596">
        <ele>2066.1</ele>
        <time>2012-12-28T11:18:21Z</time>
      </trkpt>
      <trkpt lat="44.04692" lon="7.00596">
        <ele>2066.1</ele>
        <time>2012-12-28T11:18:22Z</time>
      </trkpt>
      <trkpt lat="44.04692" lon="7.00596">
        <ele>2066.1</ele>
        <time>2012-12-28T11:18:23Z</time>
      </trkpt>
      <trkpt lat="44.04692" lon="7.00596">
        <ele>2066.1</ele>
        <time>2012-12-28T11:18:24Z</time>
      </trkpt>
      <trkpt lat="44.04692" lon="7.00596">
        <ele>2066.1</ele>
        <time>2012-12-28T11:18:25Z</time>
      </trkpt>
      <trkpt lat="44.04692" lon="7.00596">
        <ele>2066.1</ele>
        <time>2012-12-28T11:18:26Z</time>
      </trkpt>
      <trkpt lat="44.04692" lon="7.00596">
        <ele>2066.1</ele>
        <time>2012-12-28T11:18:27Z</time>
      </trkpt>
      <trkpt lat="44.04692" lon="7.00595">
        <ele>2066.3</ele>
        <time>2012-12-28T11:18:28Z</time>
      </trkpt>
      <trkpt lat="44.04692" lon="7.00595">
        <ele>2066.3</ele>
        <time>2012-12-28T11:18:29Z</time>
      </trkpt>
      <trkpt lat="44.04692" lon="7.00595">
        <ele>2066.3</ele>
        <time>2012-12-28T11:18:30Z</time>
      </trkpt>
      <trkpt lat="44.04692" lon="7.00595">
        <ele>2066.3</ele>
        <time>2012-12-28T11:18:31Z</time>
      </trkpt>
      <trkpt lat="44.04692" lon="7.00595">
        <ele>2066.3</ele>
        <time>2012-12-28T11:18:32Z</time>
      </trkpt>
      <trkpt lat="44.04692" lon="7.00595">
        <ele>2066.3</ele>
        <time>2012-12-28T11:18:33Z</time>
      </trkpt>
      <trkpt lat="44.04692" lon="7.00595">
        <ele>2066.3</ele>
        <time>2012-12-28T11:18:34Z</time>
      </trkpt>
      <trkpt lat="44.04692" lon="7.00595">
        <ele>2066.3</ele>
        <time>2012-12-28T11:18:35Z</time>
      </trkpt>
      <trkpt lat="44.04692" lon="7.00595">
        <ele>2066.3</ele>
        <time>2012-12-28T11:18:36Z</time>
      </trkpt>
      <trkpt lat="44.04692" lon="7.00595">
        <ele>2066.3</ele>
        <time>2012-12-28T11:18:37Z</time>
      </trkpt>
      <trkpt lat="44.04692" lon="7.00595">
        <ele>2066.3</ele>
        <time>2012-12-28T11:18:38Z</time>
      </trkpt>
      <trkpt lat="44.04692" lon="7.00595">
        <ele>2066.3</ele>
        <time>2012-12-28T11:18:39Z</time>
      </trkpt>
      <trkpt lat="44.04691" lon="7.00594">
        <ele>2066.5</ele>
        <time>2012-12-28T11:18:40Z</time>
      </trkpt>
      <trkpt lat="44.0469" lon="7.00593">
        <ele>2066.8</ele>
        <time>2012-12-28T11:18:41Z</time>
      </trkpt>
      <trkpt lat="44.0469" lon="7.00592">
        <ele>2067.3</ele>
        <time>2012-12-28T11:18:42Z</time>
      </trkpt>
      <trkpt lat="44.0469" lon="7.00592">
        <ele>2067.3</ele>
        <time>2012-12-28T11:18:43Z</time>
      </trkpt>
      <trkpt lat="44.04689" lon="7.00591">
        <ele>2067.6</ele>
        <time>2012-12-28T11:18:44Z</time>
      </trkpt>
      <trkpt lat="44.04689" lon="7.00591">
        <ele>2067.6</ele>
        <time>2012-12-28T11:18:45Z</time>
      </trkpt>
      <trkpt lat="44.04689" lon="7.00591">
        <ele>2067.6</ele>
        <time>2012-12-28T11:18:46Z</time>
      </trkpt>
      <trkpt lat="44.04689" lon="7.00591">
        <ele>2067.6</ele>
        <time>2012-12-28T11:18:47Z</time>
      </trkpt>
      <trkpt lat="44.04689" lon="7.00591">
        <ele>2067.6</ele>
        <time>2012-12-28T11:18:48Z</time>
      </trkpt>
      <trkpt lat="44.04689" lon="7.0059">
        <ele>2068.1</ele>
        <time>2012-12-28T11:18:49Z</time>
      </trkpt>
      <trkpt lat="44.04689" lon="7.0059">
        <ele>2068.1</ele>
        <time>2012-12-28T11:18:50Z</time>
      </trkpt>
      <trkpt lat="44.04689" lon="7.00588">
        <ele>2068.2</ele>
        <time>2012-12-28T11:18:51Z</time>
      </trkpt>
      <trkpt lat="44.04688" lon="7.00587">
        <ele>2068.4</ele>
        <time>2012-12-28T11:18:52Z</time>
      </trkpt>
      <trkpt lat="44.04688" lon="7.00587">
        <ele>2068.4</ele>
        <time>2012-12-28T11:18:53Z</time>
      </trkpt>
      <trkpt lat="44.04688" lon="7.00586">
        <ele>2068.7</ele>
        <time>2012-12-28T11:18:54Z</time>
      </trkpt>
      <trkpt lat="44.04688" lon="7.00586">
        <ele>2068.7</ele>
        <time>2012-12-28T11:18:55Z</time>
      </trkpt>
      <trkpt lat="44.04688" lon="7.00586">
        <ele>2068.7</ele>
        <time>2012-12-28T11:18:56Z</time>
      </trkpt>
      <trkpt lat="44.04688" lon="7.00586">
        <ele>2068.7</ele>
        <time>2012-12-28T11:18:57Z</time>
      </trkpt>
      <trkpt lat="44.04687" lon="7.00584">
        <ele>2069.1</ele>
        <time>2012-12-28T11:18:58Z</time>
      </trkpt>
      <trkpt lat="44.04687" lon="7.00584">
        <ele>2069.1</ele>
        <time>2012-12-28T11:18:59Z</time>
      </trkpt>
      <trkpt lat="44.04687" lon="7.00583">
        <ele>2069.4</ele>
        <time>2012-12-28T11:19:00Z</time>
      </trkpt>
      <trkpt lat="44.04687" lon="7.00583">
        <ele>2069.4</ele>
        <time>2012-12-28T11:19:01Z</time>
      </trkpt>
      <trkpt lat="44.04686" lon="7.00582">
        <ele>2069.8</ele>
        <time>2012-12-28T11:19:02Z</time>
      </trkpt>
      <trkpt lat="44.04686" lon="7.00582">
        <ele>2069.8</ele>
        <time>2012-12-28T11:19:03Z</time>
      </trkpt>
      <trkpt lat="44.04686" lon="7.00581">
        <ele>2070.2</ele>
        <time>2012-12-28T11:19:04Z</time>
      </trkpt>
      <trkpt lat="44.04686" lon="7.00581">
        <ele>2070.2</ele>
        <time>2012-12-28T11:19:05Z</time>
      </trkpt>
      <trkpt lat="44.04685" lon="7.00579">
        <ele>2070.7</ele>
        <time>2012-12-28T11:19:06Z</time>
      </trkpt>
      <trkpt lat="44.04685" lon="7.00579">
        <ele>2070.7</ele>
        <time>2012-12-28T11:19:07Z</time>
      </trkpt>
      <trkpt lat="44.04685" lon="7.00579">
        <ele>2070.7</ele>
        <time>2012-12-28T11:19:08Z</time>
      </trkpt>
      <trkpt lat="44.04685" lon="7.00579">
        <ele>2070.7</ele>
        <time>2012-12-28T11:19:09Z</time>
      </trkpt>
      <trkpt lat="44.04685" lon="7.00578">
        <ele>2071.2</ele>
        <time>2012-12-28T11:19:10Z</time>
      </trkpt>
      <trkpt lat="44.04685" lon="7.00578">
        <ele>2071.2</ele>
        <time>2012-12-28T11:19:11Z</time>
      </trkpt>
      <trkpt lat="44.04685" lon="7.00577">
        <ele>2071.4</ele>
        <time>2012-12-28T11:19:12Z</time>
      </trkpt>
      <trkpt lat="44.04683" lon="7.00576">
        <ele>2072</ele>
        <time>2012-12-28T11:19:13Z</time>
      </trkpt>
      <trkpt lat="44.04682" lon="7.00574">
        <ele>2072.2</ele>
        <time>2012-12-28T11:19:14Z</time>
      </trkpt>
      <trkpt lat="44.04682" lon="7.00573">
        <ele>2072.4</ele>
        <time>2012-12-28T11:19:15Z</time>
      </trkpt>
      <trkpt lat="44.04682" lon="7.00573">
        <ele>2072.4</ele>
        <time>2012-12-28T11:19:16Z</time>
      </trkpt>
      <trkpt lat="44.04682" lon="7.00573">
        <ele>2072.4</ele>
        <time>2012-12-28T11:19:17Z</time>
      </trkpt>
      <trkpt lat="44.04682" lon="7.00573">
        <ele>2072.4</ele>
        <time>2012-12-28T11:19:18Z</time>
      </trkpt>
      <trkpt lat="44.04681" lon="7.00572">
        <ele>2072.8</ele>
        <time>2012-12-28T11:19:19Z</time>
      </trkpt>
      <trkpt lat="44.04681" lon="7.00572">
        <ele>2072.8</ele>
        <time>2012-12-28T11:19:20Z</time>
      </trkpt>
      <trkpt lat="44.04681" lon="7.00572">
        <ele>2072.8</ele>
        <time>2012-12-28T11:19:21Z</time>
      </trkpt>
      <trkpt lat="44.04681" lon="7.00571">
        <ele>2073.1</ele>
        <time>2012-12-28T11:19:22Z</time>
      </trkpt>
      <trkpt lat="44.04681" lon="7.00571">
        <ele>2073.1</ele>
        <time>2012-12-28T11:19:23Z</time>
      </trkpt>
      <trkpt lat="44.04681" lon="7.00569">
        <ele>2073.4</ele>
        <time>2012-12-28T11:19:24Z</time>
      </trkpt>
      <trkpt lat="44.04681" lon="7.00569">
        <ele>2073.4</ele>
        <time>2012-12-28T11:19:25Z</time>
      </trkpt>
      <trkpt lat="44.0468" lon="7.00568">
        <ele>2073.8</ele>
        <time>2012-12-28T11:19:26Z</time>
      </trkpt>
      <trkpt lat="44.0468" lon="7.00568">
        <ele>2073.8</ele>
        <time>2012-12-28T11:19:27Z</time>
      </trkpt>
      <trkpt lat="44.0468" lon="7.00567">
        <ele>2074</ele>
        <time>2012-12-28T11:19:28Z</time>
      </trkpt>
      <trkpt lat="44.0468" lon="7.00567">
        <ele>2074</ele>
        <time>2012-12-28T11:19:29Z</time>
      </trkpt>
      <trkpt lat="44.0468" lon="7.00567">
        <ele>2074.3</ele>
        <time>2012-12-28T11:19:30Z</time>
      </trkpt>
      <trkpt lat="44.04679" lon="7.00565">
        <ele>2074.5</ele>
        <time>2012-12-28T11:19:31Z</time>
      </trkpt>
      <trkpt lat="44.04679" lon="7.00564">
        <ele>2074.8</ele>
        <time>2012-12-28T11:19:32Z</time>
      </trkpt>
      <trkpt lat="44.04679" lon="7.00564">
        <ele>2074.8</ele>
        <time>2012-12-28T11:19:33Z</time>
      </trkpt>
      <trkpt lat="44.04679" lon="7.00564">
        <ele>2074.8</ele>
        <time>2012-12-28T11:19:34Z</time>
      </trkpt>
      <trkpt lat="44.04679" lon="7.00563">
        <ele>2075.3</ele>
        <time>2012-12-28T11:19:35Z</time>
      </trkpt>
      <trkpt lat="44.04679" lon="7.00563">
        <ele>2075.3</ele>
        <time>2012-12-28T11:19:36Z</time>
      </trkpt>
      <trkpt lat="44.04679" lon="7.00563">
        <ele>2075.3</ele>
        <time>2012-12-28T11:19:37Z</time>
      </trkpt>
      <trkpt lat="44.04679" lon="7.00563">
        <ele>2075.3</ele>
        <time>2012-12-28T11:19:38Z</time>
      </trkpt>
      <trkpt lat="44.04679" lon="7.00563">
        <ele>2075.3</ele>
        <time>2012-12-28T11:19:39Z</time>
      </trkpt>
      <trkpt lat="44.04678" lon="7.00561">
        <ele>2075.6</ele>
        <time>2012-12-28T11:19:40Z</time>
      </trkpt>
      <trkpt lat="44.04678" lon="7.00559">
        <ele>2075.7</ele>
        <time>2012-12-28T11:19:41Z</time>
      </trkpt>
      <trkpt lat="44.04677" lon="7.00557">
        <ele>2076</ele>
        <time>2012-12-28T11:19:42Z</time>
      </trkpt>
      <trkpt lat="44.04676" lon="7.00555">
        <ele>2076.3</ele>
        <time>2012-12-28T11:19:43Z</time>
      </trkpt>
      <trkpt lat="44.04676" lon="7.00555">
        <ele>2076.3</ele>
        <time>2012-12-28T11:19:44Z</time>
      </trkpt>
      <trkpt lat="44.04676" lon="7.00555">
        <ele>2076.3</ele>
        <time>2012-12-28T11:19:45Z</time>
      </trkpt>
      <trkpt lat="44.04676" lon="7.00555">
        <ele>2076.3</ele>
        <time>2012-12-28T11:19:46Z</time>
      </trkpt>
      <trkpt lat="44.04676" lon="7.00555">
        <ele>2076.3</ele>
        <time>2012-12-28T11:19:47Z</time>
      </trkpt>
      <trkpt lat="44.04676" lon="7.00555">
        <ele>2076.3</ele>
        <time>2012-12-28T11:19:48Z</time>
      </trkpt>
      <trkpt lat="44.04676" lon="7.00555">
        <ele>2076.3</ele>
        <time>2012-12-28T11:19:49Z</time>
      </trkpt>
      <trkpt lat="44.04676" lon="7.00555">
        <ele>2076.3</ele>
        <time>2012-12-28T11:19:50Z</time>
      </trkpt>
      <trkpt lat="44.04676" lon="7.00555">
        <ele>2076.3</ele>
        <time>2012-12-28T11:19:51Z</time>
      </trkpt>
      <trkpt lat="44.04676" lon="7.00555">
        <ele>2076.3</ele>
        <time>2012-12-28T11:19:52Z</time>
      </trkpt>
      <trkpt lat="44.04676" lon="7.00555">
        <ele>2076.3</ele>
        <time>2012-12-28T11:19:53Z</time>
      </trkpt>
      <trkpt lat="44.04676" lon="7.00555">
        <ele>2076.3</ele>
        <time>2012-12-28T11:19:54Z</time>
      </trkpt>
      <trkpt lat="44.04676" lon="7.00555">
        <ele>2076.3</ele>
        <time>2012-12-28T11:19:55Z</time>
      </trkpt>
      <trkpt lat="44.04676" lon="7.00555">
        <ele>2076.3</ele>
        <time>2012-12-28T11:19:56Z</time>
      </trkpt>
      <trkpt lat="44.04676" lon="7.00555">
        <ele>2076.3</ele>
        <time>2012-12-28T11:19:57Z</time>
      </trkpt>
      <trkpt lat="44.04676" lon="7.00555">
        <ele>2076.3</ele>
        <time>2012-12-28T11:19:58Z</time>
      </trkpt>
      <trkpt lat="44.04676" lon="7.00555">
        <ele>2076.3</ele>
        <time>2012-12-28T11:19:59Z</time>
      </trkpt>
      <trkpt lat="44.04676" lon="7.00555">
        <ele>2076.3</ele>
        <time>2012-12-28T11:20:00Z</time>
      </trkpt>
      <trkpt lat="44.04676" lon="7.00555">
        <ele>2076.3</ele>
        <time>2012-12-28T11:20:01Z</time>
      </trkpt>
      <trkpt lat="44.04676" lon="7.00555">
        <ele>2076.3</ele>
        <time>2012-12-28T11:20:02Z</time>
      </trkpt>
      <trkpt lat="44.04676" lon="7.00555">
        <ele>2076.3</ele>
        <time>2012-12-28T11:20:03Z</time>
      </trkpt>
      <trkpt lat="44.04676" lon="7.00555">
        <ele>2076.3</ele>
        <time>2012-12-28T11:20:04Z</time>
      </trkpt>
      <trkpt lat="44.04676" lon="7.00555">
        <ele>2076.3</ele>
        <time>2012-12-28T11:20:05Z</time>
      </trkpt>
      <trkpt lat="44.04676" lon="7.00555">
        <ele>2076.3</ele>
        <time>2012-12-28T11:20:06Z</time>
      </trkpt>
      <trkpt lat="44.04676" lon="7.00555">
        <ele>2076.3</ele>
        <time>2012-12-28T11:20:07Z</time>
      </trkpt>
      <trkpt lat="44.04676" lon="7.00555">
        <ele>2076.3</ele>
        <time>2012-12-28T11:20:08Z</time>
      </trkpt>
      <trkpt lat="44.04676" lon="7.00555">
        <ele>2076.3</ele>
        <time>2012-12-28T11:20:09Z</time>
      </trkpt>
      <trkpt lat="44.04676" lon="7.00555">
        <ele>2076.3</ele>
        <time>2012-12-28T11:20:10Z</time>
      </trkpt>
      <trkpt lat="44.04676" lon="7.00555">
        <ele>2076.3</ele>
        <time>2012-12-28T11:20:11Z</time>
      </trkpt>
      <trkpt lat="44.04676" lon="7.00555">
        <ele>2076.3</ele>
        <time>2012-12-28T11:20:12Z</time>
      </trkpt>
      <trkpt lat="44.04676" lon="7.00555">
        <ele>2076.3</ele>
        <time>2012-12-28T11:20:13Z</time>
      </trkpt>
      <trkpt lat="44.04676" lon="7.00555">
        <ele>2076.3</ele>
        <time>2012-12-28T11:20:14Z</time>
      </trkpt>
      <trkpt lat="44.04676" lon="7.00555">
        <ele>2076.3</ele>
        <time>2012-12-28T11:20:15Z</time>
      </trkpt>
      <trkpt lat="44.04676" lon="7.00555">
        <ele>2076.3</ele>
        <time>2012-12-28T11:20:16Z</time>
      </trkpt>
      <trkpt lat="44.04676" lon="7.00555">
        <ele>2076.3</ele>
        <time>2012-12-28T11:20:17Z</time>
      </trkpt>
      <trkpt lat="44.04676" lon="7.00555">
        <ele>2076.3</ele>
        <time>2012-12-28T11:20:18Z</time>
      </trkpt>
      <trkpt lat="44.04676" lon="7.00555">
        <ele>2076.3</ele>
        <time>2012-12-28T11:20:19Z</time>
      </trkpt>
      <trkpt lat="44.04676" lon="7.00555">
        <ele>2076.3</ele>
        <time>2012-12-28T11:20:20Z</time>
      </trkpt>
      <trkpt lat="44.04676" lon="7.00555">
        <ele>2076.3</ele>
        <time>2012-12-28T11:20:21Z</time>
      </trkpt>
      <trkpt lat="44.04676" lon="7.00555">
        <ele>2076.3</ele>
        <time>2012-12-28T11:20:22Z</time>
      </trkpt>
      <trkpt lat="44.04676" lon="7.00555">
        <ele>2076.3</ele>
        <time>2012-12-28T11:20:23Z</time>
      </trkpt>
      <trkpt lat="44.04676" lon="7.00555">
        <ele>2076.3</ele>
        <time>2012-12-28T11:20:24Z</time>
      </trkpt>
      <trkpt lat="44.04676" lon="7.00555">
        <ele>2076.3</ele>
        <time>2012-12-28T11:20:25Z</time>
      </trkpt>
      <trkpt lat="44.04676" lon="7.00555">
        <ele>2076.3</ele>
        <time>2012-12-28T11:20:26Z</time>
      </trkpt>
      <trkpt lat="44.04676" lon="7.00555">
        <ele>2076.3</ele>
        <time>2012-12-28T11:20:27Z</time>
      </trkpt>
      <trkpt lat="44.04676" lon="7.00555">
        <ele>2076.3</ele>
        <time>2012-12-28T11:20:28Z</time>
      </trkpt>
      <trkpt lat="44.04676" lon="7.00555">
        <ele>2076.3</ele>
        <time>2012-12-28T11:20:29Z</time>
      </trkpt>
      <trkpt lat="44.04676" lon="7.00555">
        <ele>2076.3</ele>
        <time>2012-12-28T11:20:30Z</time>
      </trkpt>
      <trkpt lat="44.04676" lon="7.00555">
        <ele>2076.3</ele>
        <time>2012-12-28T11:20:31Z</time>
      </trkpt>
      <trkpt lat="44.04676" lon="7.00555">
        <ele>2076.3</ele>
        <time>2012-12-28T11:20:32Z</time>
      </trkpt>
      <trkpt lat="44.04676" lon="7.00555">
        <ele>2076.3</ele>
        <time>2012-12-28T11:20:33Z</time>
      </trkpt>
      <trkpt lat="44.04676" lon="7.00555">
        <ele>2076.3</ele>
        <time>2012-12-28T11:20:34Z</time>
      </trkpt>
      <trkpt lat="44.04676" lon="7.00555">
        <ele>2076.3</ele>
        <time>2012-12-28T11:20:35Z</time>
      </trkpt>
      <trkpt lat="44.04676" lon="7.00555">
        <ele>2076.3</ele>
        <time>2012-12-28T11:20:36Z</time>
      </trkpt>
      <trkpt lat="44.04676" lon="7.00555">
        <ele>2076.3</ele>
        <time>2012-12-28T11:20:37Z</time>
      </trkpt>
      <trkpt lat="44.04676" lon="7.00555">
        <ele>2076.3</ele>
        <time>2012-12-28T11:20:38Z</time>
      </trkpt>
      <trkpt lat="44.04676" lon="7.00555">
        <ele>2076.3</ele>
        <time>2012-12-28T11:20:39Z</time>
      </trkpt>
      <trkpt lat="44.04676" lon="7.00555">
        <ele>2076.3</ele>
        <time>2012-12-28T11:20:40Z</time>
      </trkpt>
      <trkpt lat="44.04676" lon="7.00555">
        <ele>2076.3</ele>
        <time>2012-12-28T11:20:41Z</time>
      </trkpt>
      <trkpt lat="44.04676" lon="7.00555">
        <ele>2076.3</ele>
        <time>2012-12-28T11:20:42Z</time>
      </trkpt>
      <trkpt lat="44.04676" lon="7.00555">
        <ele>2076.3</ele>
        <time>2012-12-28T11:20:43Z</time>
      </trkpt>
      <trkpt lat="44.04676" lon="7.00555">
        <ele>2076.3</ele>
        <time>2012-12-28T11:20:44Z</time>
      </trkpt>
      <trkpt lat="44.04676" lon="7.00555">
        <ele>2076.3</ele>
        <time>2012-12-28T11:20:45Z</time>
      </trkpt>
      <trkpt lat="44.04676" lon="7.00555">
        <ele>2076.3</ele>
        <time>2012-12-28T11:20:46Z</time>
      </trkpt>
      <trkpt lat="44.04676" lon="7.00554">
        <ele>2076.7</ele>
        <time>2012-12-28T11:20:47Z</time>
      </trkpt>
      <trkpt lat="44.04676" lon="7.00553">
        <ele>2077</ele>
        <time>2012-12-28T11:20:48Z</time>
      </trkpt>
      <trkpt lat="44.04676" lon="7.00553">
        <ele>2077</ele>
        <time>2012-12-28T11:20:49Z</time>
      </trkpt>
      <trkpt lat="44.04676" lon="7.00553">
        <ele>2077</ele>
        <time>2012-12-28T11:20:50Z</time>
      </trkpt>
      <trkpt lat="44.04675" lon="7.00552">
        <ele>2077.4</ele>
        <time>2012-12-28T11:20:51Z</time>
      </trkpt>
      <trkpt lat="44.04675" lon="7.0055">
        <ele>2077.7</ele>
        <time>2012-12-28T11:20:52Z</time>
      </trkpt>
      <trkpt lat="44.04675" lon="7.00548">
        <ele>2078</ele>
        <time>2012-12-28T11:20:53Z</time>
      </trkpt>
      <trkpt lat="44.04674" lon="7.00546">
        <ele>2078.3</ele>
        <time>2012-12-28T11:20:54Z</time>
      </trkpt>
      <trkpt lat="44.04674" lon="7.00544">
        <ele>2078.4</ele>
        <time>2012-12-28T11:20:55Z</time>
      </trkpt>
      <trkpt lat="44.04674" lon="7.00542">
        <ele>2078.7</ele>
        <time>2012-12-28T11:20:56Z</time>
      </trkpt>
      <trkpt lat="44.04673" lon="7.00541">
        <ele>2079.1</ele>
        <time>2012-12-28T11:20:57Z</time>
      </trkpt>
      <trkpt lat="44.04673" lon="7.00539">
        <ele>2079.5</ele>
        <time>2012-12-28T11:20:58Z</time>
      </trkpt>
      <trkpt lat="44.04673" lon="7.00539">
        <ele>2079.5</ele>
        <time>2012-12-28T11:20:59Z</time>
      </trkpt>
      <trkpt lat="44.04673" lon="7.00538">
        <ele>2079.9</ele>
        <time>2012-12-28T11:21:00Z</time>
      </trkpt>
      <trkpt lat="44.04672" lon="7.00536">
        <ele>2080.2</ele>
        <time>2012-12-28T11:21:01Z</time>
      </trkpt>
      <trkpt lat="44.04672" lon="7.00535">
        <ele>2080.1</ele>
        <time>2012-12-28T11:21:02Z</time>
      </trkpt>
      <trkpt lat="44.04672" lon="7.00534">
        <ele>2080.3</ele>
        <time>2012-12-28T11:21:03Z</time>
      </trkpt>
      <trkpt lat="44.04672" lon="7.00534">
        <ele>2080.3</ele>
        <time>2012-12-28T11:21:04Z</time>
      </trkpt>
      <trkpt lat="44.04671" lon="7.00532">
        <ele>2080.6</ele>
        <time>2012-12-28T11:21:05Z</time>
      </trkpt>
      <trkpt lat="44.04671" lon="7.00531">
        <ele>2081.1</ele>
        <time>2012-12-28T11:21:06Z</time>
      </trkpt>
      <trkpt lat="44.04671" lon="7.00531">
        <ele>2081.1</ele>
        <time>2012-12-28T11:21:07Z</time>
      </trkpt>
      <trkpt lat="44.04671" lon="7.0053">
        <ele>2081.4</ele>
        <time>2012-12-28T11:21:08Z</time>
      </trkpt>
      <trkpt lat="44.04671" lon="7.00529">
        <ele>2081.7</ele>
        <time>2012-12-28T11:21:09Z</time>
      </trkpt>
      <trkpt lat="44.04668" lon="7.00506">
        <ele>2086.1</ele>
        <time>2012-12-28T11:21:31Z</time>
      </trkpt>
      <trkpt lat="44.04667" lon="7.00505">
        <ele>2086.3</ele>
        <time>2012-12-28T11:21:32Z</time>
      </trkpt>
      <trkpt lat="44.04667" lon="7.00503">
        <ele>2086.5</ele>
        <time>2012-12-28T11:21:33Z</time>
      </trkpt>
      <trkpt lat="44.04667" lon="7.00502">
        <ele>2087</ele>
        <time>2012-12-28T11:21:34Z</time>
      </trkpt>
      <trkpt lat="44.04667" lon="7.005">
        <ele>2087.5</ele>
        <time>2012-12-28T11:21:35Z</time>
      </trkpt>
      <trkpt lat="44.04666" lon="7.00499">
        <ele>2087.8</ele>
        <time>2012-12-28T11:21:36Z</time>
      </trkpt>
      <trkpt lat="44.04666" lon="7.00499">
        <ele>2087.8</ele>
        <time>2012-12-28T11:21:37Z</time>
      </trkpt>
      <trkpt lat="44.04666" lon="7.00498">
        <ele>2088.1</ele>
        <time>2012-12-28T11:21:38Z</time>
      </trkpt>
      <trkpt lat="44.04666" lon="7.00498">
        <ele>2088.1</ele>
        <time>2012-12-28T11:21:39Z</time>
      </trkpt>
      <trkpt lat="44.04666" lon="7.00497">
        <ele>2088.2</ele>
        <time>2012-12-28T11:21:40Z</time>
      </trkpt>
      <trkpt lat="44.04666" lon="7.00495">
        <ele>2088.7</ele>
        <time>2012-12-28T11:21:41Z</time>
      </trkpt>
      <trkpt lat="44.04666" lon="7.00495">
        <ele>2088.7</ele>
        <time>2012-12-28T11:21:42Z</time>
      </trkpt>
      <trkpt lat="44.04666" lon="7.00495">
        <ele>2088.7</ele>
        <time>2012-12-28T11:21:43Z</time>
      </trkpt>
      <trkpt lat="44.04666" lon="7.00495">
        <ele>2088.7</ele>
        <time>2012-12-28T11:21:44Z</time>
      </trkpt>
      <trkpt lat="44.04665" lon="7.00494">
        <ele>2088.8</ele>
        <time>2012-12-28T11:21:45Z</time>
      </trkpt>
      <trkpt lat="44.04663" lon="7.00479">
        <ele>2090</ele>
        <time>2012-12-28T11:22:00Z</time>
      </trkpt>
      <trkpt lat="44.04663" lon="7.00478">
        <ele>2090</ele>
        <time>2012-12-28T11:22:01Z</time>
      </trkpt>
      <trkpt lat="44.04663" lon="7.00478">
        <ele>2090</ele>
        <time>2012-12-28T11:22:02Z</time>
      </trkpt>
      <trkpt lat="44.04663" lon="7.00478">
        <ele>2090</ele>
        <time>2012-12-28T11:22:03Z</time>
      </trkpt>
      <trkpt lat="44.04663" lon="7.00478">
        <ele>2090.2</ele>
        <time>2012-12-28T11:22:04Z</time>
      </trkpt>
      <trkpt lat="44.04662" lon="7.00476">
        <ele>2090.4</ele>
        <time>2012-12-28T11:22:05Z</time>
      </trkpt>
      <trkpt lat="44.04662" lon="7.00476">
        <ele>2090.4</ele>
        <time>2012-12-28T11:22:06Z</time>
      </trkpt>
      <trkpt lat="44.04662" lon="7.00476">
        <ele>2090.4</ele>
        <time>2012-12-28T11:22:07Z</time>
      </trkpt>
      <trkpt lat="44.04662" lon="7.00476">
        <ele>2090.4</ele>
        <time>2012-12-28T11:22:08Z</time>
      </trkpt>
      <trkpt lat="44.04662" lon="7.00476">
        <ele>2090.4</ele>
        <time>2012-12-28T11:22:09Z</time>
      </trkpt>
      <trkpt lat="44.04662" lon="7.00476">
        <ele>2090.6</ele>
        <time>2012-12-28T11:22:10Z</time>
      </trkpt>
      <trkpt lat="44.04662" lon="7.00476">
        <ele>2090.6</ele>
        <time>2012-12-28T11:22:11Z</time>
      </trkpt>
      <trkpt lat="44.04662" lon="7.00476">
        <ele>2090.6</ele>
        <time>2012-12-28T11:22:12Z</time>
      </trkpt>
      <trkpt lat="44.04662" lon="7.00476">
        <ele>2090.6</ele>
        <time>2012-12-28T11:22:13Z</time>
      </trkpt>
      <trkpt lat="44.04662" lon="7.00476">
        <ele>2090.6</ele>
        <time>2012-12-28T11:22:14Z</time>
      </trkpt>
      <trkpt lat="44.04662" lon="7.00476">
        <ele>2090.6</ele>
        <time>2012-12-28T11:22:15Z</time>
      </trkpt>
      <trkpt lat="44.04662" lon="7.00476">
        <ele>2090.6</ele>
        <time>2012-12-28T11:22:16Z</time>
      </trkpt>
      <trkpt lat="44.04662" lon="7.00476">
        <ele>2090.6</ele>
        <time>2012-12-28T11:22:17Z</time>
      </trkpt>
      <trkpt lat="44.04662" lon="7.00476">
        <ele>2090.6</ele>
        <time>2012-12-28T11:22:18Z</time>
      </trkpt>
      <trkpt lat="44.04662" lon="7.00476">
        <ele>2090.6</ele>
        <time>2012-12-28T11:22:19Z</time>
      </trkpt>
      <trkpt lat="44.04662" lon="7.00476">
        <ele>2090.6</ele>
        <time>2012-12-28T11:22:20Z</time>
      </trkpt>
      <trkpt lat="44.04662" lon="7.00476">
        <ele>2090.6</ele>
        <time>2012-12-28T11:22:21Z</time>
      </trkpt>
      <trkpt lat="44.04662" lon="7.00476">
        <ele>2090.6</ele>
        <time>2012-12-28T11:22:22Z</time>
      </trkpt>
      <trkpt lat="44.04662" lon="7.00476">
        <ele>2090.6</ele>
        <time>2012-12-28T11:22:23Z</time>
      </trkpt>
      <trkpt lat="44.04662" lon="7.00476">
        <ele>2090.6</ele>
        <time>2012-12-28T11:22:24Z</time>
      </trkpt>
      <trkpt lat="44.04662" lon="7.00474">
        <ele>2090.9</ele>
        <time>2012-12-28T11:22:25Z</time>
      </trkpt>
      <trkpt lat="44.04661" lon="7.00473">
        <ele>2091.1</ele>
        <time>2012-12-28T11:22:26Z</time>
      </trkpt>
      <trkpt lat="44.04661" lon="7.00472">
        <ele>2091.7</ele>
        <time>2012-12-28T11:22:27Z</time>
      </trkpt>
      <trkpt lat="44.04661" lon="7.0047">
        <ele>2092.3</ele>
        <time>2012-12-28T11:22:28Z</time>
      </trkpt>
      <trkpt lat="44.04661" lon="7.0047">
        <ele>2092.3</ele>
        <time>2012-12-28T11:22:29Z</time>
      </trkpt>
      <trkpt lat="44.04661" lon="7.0047">
        <ele>2092.3</ele>
        <time>2012-12-28T11:22:30Z</time>
      </trkpt>
      <trkpt lat="44.04661" lon="7.0047">
        <ele>2092.3</ele>
        <time>2012-12-28T11:22:31Z</time>
      </trkpt>
      <trkpt lat="44.04661" lon="7.00469">
        <ele>2092.4</ele>
        <time>2012-12-28T11:22:32Z</time>
      </trkpt>
      <trkpt lat="44.04661" lon="7.00469">
        <ele>2092.4</ele>
        <time>2012-12-28T11:22:33Z</time>
      </trkpt>
      <trkpt lat="44.0466" lon="7.00468">
        <ele>2092.8</ele>
        <time>2012-12-28T11:22:34Z</time>
      </trkpt>
      <trkpt lat="44.0466" lon="7.00468">
        <ele>2092.8</ele>
        <time>2012-12-28T11:22:35Z</time>
      </trkpt>
      <trkpt lat="44.0466" lon="7.00467">
        <ele>2092.9</ele>
        <time>2012-12-28T11:22:36Z</time>
      </trkpt>
      <trkpt lat="44.0466" lon="7.00466">
        <ele>2093</ele>
        <time>2012-12-28T11:22:37Z</time>
      </trkpt>
      <trkpt lat="44.04659" lon="7.00447">
        <ele>2097.2</ele>
        <time>2012-12-28T11:26:57Z</time>
      </trkpt>
      <trkpt lat="44.04659" lon="7.00446">
        <ele>2097.3</ele>
        <time>2012-12-28T11:26:58Z</time>
      </trkpt>
      <trkpt lat="44.04659" lon="7.00446">
        <ele>2097.3</ele>
        <time>2012-12-28T11:26:59Z</time>
      </trkpt>
      <trkpt lat="44.04659" lon="7.00446">
        <ele>2097.3</ele>
        <time>2012-12-28T11:27:00Z</time>
      </trkpt>
      <trkpt lat="44.04659" lon="7.00446">
        <ele>2097.3</ele>
        <time>2012-12-28T11:27:01Z</time>
      </trkpt>
      <trkpt lat="44.04659" lon="7.00446">
        <ele>2097.3</ele>
        <time>2012-12-28T11:27:02Z</time>
      </trkpt>
      <trkpt lat="44.04659" lon="7.00446">
        <ele>2097.3</ele>
        <time>2012-12-28T11:27:03Z</time>
      </trkpt>
      <trkpt lat="44.04659" lon="7.00446">
        <ele>2097.3</ele>
        <time>2012-12-28T11:27:04Z</time>
      </trkpt>
      <trkpt lat="44.04659" lon="7.00446">
        <ele>2097.3</ele>
        <time>2012-12-28T11:27:05Z</time>
      </trkpt>
      <trkpt lat="44.04659" lon="7.00446">
        <ele>2097.3</ele>
        <time>2012-12-28T11:27:06Z</time>
      </trkpt>
      <trkpt lat="44.04659" lon="7.00446">
        <ele>2097.3</ele>
        <time>2012-12-28T11:27:07Z</time>
      </trkpt>
      <trkpt lat="44.04659" lon="7.00446">
        <ele>2097.3</ele>
        <time>2012-12-28T11:27:08Z</time>
      </trkpt>
      <trkpt lat="44.04659" lon="7.00446">
        <ele>2097.3</ele>
        <time>2012-12-28T11:27:09Z</time>
      </trkpt>
      <trkpt lat="44.04659" lon="7.00446">
        <ele>2097.3</ele>
        <time>2012-12-28T11:27:10Z</time>
      </trkpt>
      <trkpt lat="44.04659" lon="7.00446">
        <ele>2097.3</ele>
        <time>2012-12-28T11:27:11Z</time>
      </trkpt>
      <trkpt lat="44.04659" lon="7.00446">
        <ele>2097.3</ele>
        <time>2012-12-28T11:27:12Z</time>
      </trkpt>
      <trkpt lat="44.04659" lon="7.00446">
        <ele>2097.3</ele>
        <time>2012-12-28T11:27:13Z</time>
      </trkpt>
      <trkpt lat="44.04659" lon="7.00446">
        <ele>2097.3</ele>
        <time>2012-12-28T11:27:14Z</time>
      </trkpt>
      <trkpt lat="44.04659" lon="7.00446">
        <ele>2097.3</ele>
        <time>2012-12-28T11:27:15Z</time>
      </trkpt>
      <trkpt lat="44.04659" lon="7.00446">
        <ele>2097.3</ele>
        <time>2012-12-28T11:27:16Z</time>
      </trkpt>
      <trkpt lat="44.04659" lon="7.00446">
        <ele>2097.3</ele>
        <time>2012-12-28T11:27:17Z</time>
      </trkpt>
      <trkpt lat="44.04659" lon="7.00446">
        <ele>2097.3</ele>
        <time>2012-12-28T11:27:18Z</time>
      </trkpt>
      <trkpt lat="44.04659" lon="7.00446">
        <ele>2097.3</ele>
        <time>2012-12-28T11:27:19Z</time>
      </trkpt>
      <trkpt lat="44.04659" lon="7.00446">
        <ele>2097.3</ele>
        <time>2012-12-28T11:27:20Z</time>
      </trkpt>
      <trkpt lat="44.04659" lon="7.00446">
        <ele>2097.3</ele>
        <time>2012-12-28T11:27:21Z</time>
      </trkpt>
      <trkpt lat="44.04659" lon="7.00446">
        <ele>2097.3</ele>
        <time>2012-12-28T11:27:22Z</time>
      </trkpt>
      <trkpt lat="44.04659" lon="7.00446">
        <ele>2097.3</ele>
        <time>2012-12-28T11:27:23Z</time>
      </trkpt>
      <trkpt lat="44.04659" lon="7.00446">
        <ele>2097.3</ele>
        <time>2012-12-28T11:27:24Z</time>
      </trkpt>
      <trkpt lat="44.04659" lon="7.00446">
        <ele>2097.3</ele>
        <time>2012-12-28T11:27:25Z</time>
      </trkpt>
      <trkpt lat="44.04659" lon="7.00446">
        <ele>2097.3</ele>
        <time>2012-12-28T11:27:26Z</time>
      </trkpt>
      <trkpt lat="44.04659" lon="7.00446">
        <ele>2097.3</ele>
        <time>2012-12-28T11:27:27Z</time>
      </trkpt>
      <trkpt lat="44.04659" lon="7.00446">
        <ele>2097.3</ele>
        <time>2012-12-28T11:27:28Z</time>
      </trkpt>
      <trkpt lat="44.04659" lon="7.00446">
        <ele>2097.3</ele>
        <time>2012-12-28T11:27:29Z</time>
      </trkpt>
      <trkpt lat="44.04659" lon="7.00446">
        <ele>2097.3</ele>
        <time>2012-12-28T11:27:30Z</time>
      </trkpt>
      <trkpt lat="44.04659" lon="7.00446">
        <ele>2097.3</ele>
        <time>2012-12-28T11:27:31Z</time>
      </trkpt>
      <trkpt lat="44.04659" lon="7.00446">
        <ele>2097.3</ele>
        <time>2012-12-28T11:27:32Z</time>
      </trkpt>
      <trkpt lat="44.04659" lon="7.00446">
        <ele>2097.3</ele>
        <time>2012-12-28T11:27:33Z</time>
      </trkpt>
      <trkpt lat="44.04659" lon="7.00446">
        <ele>2097.3</ele>
        <time>2012-12-28T11:27:34Z</time>
      </trkpt>
      <trkpt lat="44.04659" lon="7.00446">
        <ele>2097.3</ele>
        <time>2012-12-28T11:27:35Z</time>
      </trkpt>
      <trkpt lat="44.04659" lon="7.00446">
        <ele>2097.3</ele>
        <time>2012-12-28T11:27:36Z</time>
      </trkpt>
      <trkpt lat="44.04659" lon="7.00446">
        <ele>2097.3</ele>
        <time>2012-12-28T11:27:37Z</time>
      </trkpt>
      <trkpt lat="44.04659" lon="7.00446">
        <ele>2097.3</ele>
        <time>2012-12-28T11:27:38Z</time>
      </trkpt>
      <trkpt lat="44.04659" lon="7.00446">
        <ele>2097.3</ele>
        <time>2012-12-28T11:27:39Z</time>
      </trkpt>
      <trkpt lat="44.04659" lon="7.00446">
        <ele>2097.3</ele>
        <time>2012-12-28T11:27:40Z</time>
      </trkpt>
      <trkpt lat="44.04659" lon="7.00446">
        <ele>2097.3</ele>
        <time>2012-12-28T11:27:41Z</time>
      </trkpt>
      <trkpt lat="44.04659" lon="7.00446">
        <ele>2097.3</ele>
        <time>2012-12-28T11:27:42Z</time>
      </trkpt>
      <trkpt lat="44.04659" lon="7.00446">
        <ele>2097.3</ele>
        <time>2012-12-28T11:27:43Z</time>
      </trkpt>
      <trkpt lat="44.04659" lon="7.00446">
        <ele>2097.3</ele>
        <time>2012-12-28T11:27:44Z</time>
      </trkpt>
      <trkpt lat="44.04659" lon="7.00446">
        <ele>2097.3</ele>
        <time>2012-12-28T11:27:45Z</time>
      </trkpt>
      <trkpt lat="44.04659" lon="7.00446">
        <ele>2097.3</ele>
        <time>2012-12-28T11:27:46Z</time>
      </trkpt>
      <trkpt lat="44.04659" lon="7.00446">
        <ele>2097.3</ele>
        <time>2012-12-28T11:27:47Z</time>
      </trkpt>
      <trkpt lat="44.04659" lon="7.00446">
        <ele>2097.3</ele>
        <time>2012-12-28T11:27:48Z</time>
      </trkpt>
      <trkpt lat="44.04659" lon="7.00446">
        <ele>2097.3</ele>
        <time>2012-12-28T11:27:49Z</time>
      </trkpt>
      <trkpt lat="44.04659" lon="7.00446">
        <ele>2097.3</ele>
        <time>2012-12-28T11:27:50Z</time>
      </trkpt>
      <trkpt lat="44.04659" lon="7.00446">
        <ele>2097.3</ele>
        <time>2012-12-28T11:27:51Z</time>
      </trkpt>
      <trkpt lat="44.04659" lon="7.00446">
        <ele>2097.3</ele>
        <time>2012-12-28T11:27:52Z</time>
      </trkpt>
      <trkpt lat="44.04659" lon="7.00446">
        <ele>2097.3</ele>
        <time>2012-12-28T11:27:53Z</time>
      </trkpt>
      <trkpt lat="44.04659" lon="7.00446">
        <ele>2097.3</ele>
        <time>2012-12-28T11:27:54Z</time>
      </trkpt>
      <trkpt lat="44.04659" lon="7.00446">
        <ele>2097.3</ele>
        <time>2012-12-28T11:27:55Z</time>
      </trkpt>
      <trkpt lat="44.04659" lon="7.00446">
        <ele>2097.3</ele>
        <time>2012-12-28T11:27:56Z</time>
      </trkpt>
      <trkpt lat="44.04659" lon="7.00446">
        <ele>2097.3</ele>
        <time>2012-12-28T11:27:57Z</time>
      </trkpt>
      <trkpt lat="44.04659" lon="7.00446">
        <ele>2097.3</ele>
        <time>2012-12-28T11:27:58Z</time>
      </trkpt>
      <trkpt lat="44.04659" lon="7.00446">
        <ele>2097.3</ele>
        <time>2012-12-28T11:27:59Z</time>
      </trkpt>
      <trkpt lat="44.04659" lon="7.00446">
        <ele>2097.3</ele>
        <time>2012-12-28T11:28:00Z</time>
      </trkpt>
      <trkpt lat="44.04659" lon="7.00446">
        <ele>2097.3</ele>
        <time>2012-12-28T11:28:01Z</time>
      </trkpt>
      <trkpt lat="44.04659" lon="7.00446">
        <ele>2097.3</ele>
        <time>2012-12-28T11:28:02Z</time>
      </trkpt>
      <trkpt lat="44.04659" lon="7.00446">
        <ele>2097.3</ele>
        <time>2012-12-28T11:28:03Z</time>
      </trkpt>
      <trkpt lat="44.04659" lon="7.00446">
        <ele>2097.3</ele>
        <time>2012-12-28T11:28:04Z</time>
      </trkpt>
      <trkpt lat="44.04659" lon="7.00446">
        <ele>2097.3</ele>
        <time>2012-12-28T11:28:05Z</time>
      </trkpt>
      <trkpt lat="44.04659" lon="7.00446">
        <ele>2097.3</ele>
        <time>2012-12-28T11:28:06Z</time>
      </trkpt>
      <trkpt lat="44.04659" lon="7.00446">
        <ele>2097.3</ele>
        <time>2012-12-28T11:28:07Z</time>
      </trkpt>
      <trkpt lat="44.04659" lon="7.00446">
        <ele>2097.3</ele>
        <time>2012-12-28T11:28:08Z</time>
      </trkpt>
      <trkpt lat="44.04659" lon="7.00446">
        <ele>2097.3</ele>
        <time>2012-12-28T11:28:09Z</time>
      </trkpt>
      <trkpt lat="44.04659" lon="7.00446">
        <ele>2097.3</ele>
        <time>2012-12-28T11:28:10Z</time>
      </trkpt>
      <trkpt lat="44.04659" lon="7.00446">
        <ele>2097.3</ele>
        <time>2012-12-28T11:28:11Z</time>
      </trkpt>
      <trkpt lat="44.04659" lon="7.00446">
        <ele>2097.3</ele>
        <time>2012-12-28T11:28:12Z</time>
      </trkpt>
      <trkpt lat="44.04659" lon="7.00446">
        <ele>2097.3</ele>
        <time>2012-12-28T11:28:13Z</time>
      </trkpt>
      <trkpt lat="44.04659" lon="7.00446">
        <ele>2097.3</ele>
        <time>2012-12-28T11:28:14Z</time>
      </trkpt>
      <trkpt lat="44.04659" lon="7.00446">
        <ele>2097.3</ele>
        <time>2012-12-28T11:28:15Z</time>
      </trkpt>
      <trkpt lat="44.04659" lon="7.00446">
        <ele>2097.5</ele>
        <time>2012-12-28T11:28:16Z</time>
      </trkpt>
      <trkpt lat="44.04658" lon="7.00445">
        <ele>2097.7</ele>
        <time>2012-12-28T11:28:17Z</time>
      </trkpt>
      <trkpt lat="44.04658" lon="7.00445">
        <ele>2097.7</ele>
        <time>2012-12-28T11:28:18Z</time>
      </trkpt>
      <trkpt lat="44.04658" lon="7.00445">
        <ele>2097.8</ele>
        <time>2012-12-28T11:28:19Z</time>
      </trkpt>
      <trkpt lat="44.04658" lon="7.00445">
        <ele>2097.8</ele>
        <time>2012-12-28T11:28:20Z</time>
      </trkpt>
      <trkpt lat="44.04658" lon="7.00445">
        <ele>2097.8</ele>
        <time>2012-12-28T11:28:21Z</time>
      </trkpt>
      <trkpt lat="44.04658" lon="7.00445">
        <ele>2097.8</ele>
        <time>2012-12-28T11:28:22Z</time>
      </trkpt>
      <trkpt lat="44.04658" lon="7.00445">
        <ele>2097.8</ele>
        <time>2012-12-28T11:28:23Z</time>
      </trkpt>
      <trkpt lat="44.04658" lon="7.00445">
        <ele>2097.8</ele>
        <time>2012-12-28T11:28:24Z</time>
      </trkpt>
      <trkpt lat="44.04658" lon="7.00445">
        <ele>2097.8</ele>
        <time>2012-12-28T11:28:25Z</time>
      </trkpt>
      <trkpt lat="44.04658" lon="7.00445">
        <ele>2097.8</ele>
        <time>2012-12-28T11:28:26Z</time>
      </trkpt>
      <trkpt lat="44.04658" lon="7.00445">
        <ele>2097.8</ele>
        <time>2012-12-28T11:28:27Z</time>
      </trkpt>
      <trkpt lat="44.04658" lon="7.00445">
        <ele>2097.8</ele>
        <time>2012-12-28T11:28:28Z</time>
      </trkpt>
      <trkpt lat="44.04658" lon="7.00445">
        <ele>2097.8</ele>
        <time>2012-12-28T11:28:29Z</time>
      </trkpt>
      <trkpt lat="44.04658" lon="7.00445">
        <ele>2097.8</ele>
        <time>2012-12-28T11:28:30Z</time>
      </trkpt>
      <trkpt lat="44.04658" lon="7.00445">
        <ele>2097.8</ele>
        <time>2012-12-28T11:28:31Z</time>
      </trkpt>
      <trkpt lat="44.04658" lon="7.00445">
        <ele>2097.8</ele>
        <time>2012-12-28T11:28:32Z</time>
      </trkpt>
      <trkpt lat="44.04658" lon="7.00445">
        <ele>2097.8</ele>
        <time>2012-12-28T11:28:33Z</time>
      </trkpt>
      <trkpt lat="44.04658" lon="7.00445">
        <ele>2097.8</ele>
        <time>2012-12-28T11:28:34Z</time>
      </trkpt>
      <trkpt lat="44.04658" lon="7.00445">
        <ele>2097.8</ele>
        <time>2012-12-28T11:28:35Z</time>
      </trkpt>
      <trkpt lat="44.04658" lon="7.00445">
        <ele>2097.8</ele>
        <time>2012-12-28T11:28:36Z</time>
      </trkpt>
      <trkpt lat="44.04658" lon="7.00445">
        <ele>2097.8</ele>
        <time>2012-12-28T11:28:37Z</time>
      </trkpt>
      <trkpt lat="44.04658" lon="7.00445">
        <ele>2097.8</ele>
        <time>2012-12-28T11:28:38Z</time>
      </trkpt>
      <trkpt lat="44.04658" lon="7.00445">
        <ele>2097.8</ele>
        <time>2012-12-28T11:28:39Z</time>
      </trkpt>
      <trkpt lat="44.04658" lon="7.00445">
        <ele>2097.8</ele>
        <time>2012-12-28T11:28:40Z</time>
      </trkpt>
      <trkpt lat="44.04658" lon="7.00445">
        <ele>2097.8</ele>
        <time>2012-12-28T11:28:41Z</time>
      </trkpt>
      <trkpt lat="44.04658" lon="7.00445">
        <ele>2097.8</ele>
        <time>2012-12-28T11:28:42Z</time>
      </trkpt>
      <trkpt lat="44.04658" lon="7.00445">
        <ele>2097.8</ele>
        <time>2012-12-28T11:28:43Z</time>
      </trkpt>
      <trkpt lat="44.04658" lon="7.00445">
        <ele>2097.8</ele>
        <time>2012-12-28T11:28:44Z</time>
      </trkpt>
      <trkpt lat="44.04658" lon="7.00445">
        <ele>2097.8</ele>
        <time>2012-12-28T11:28:45Z</time>
      </trkpt>
      <trkpt lat="44.04658" lon="7.00445">
        <ele>2097.8</ele>
        <time>2012-12-28T11:28:46Z</time>
      </trkpt>
      <trkpt lat="44.04658" lon="7.00445">
        <ele>2097.8</ele>
        <time>2012-12-28T11:28:47Z</time>
      </trkpt>
      <trkpt lat="44.04658" lon="7.00445">
        <ele>2097.8</ele>
        <time>2012-12-28T11:28:48Z</time>
      </trkpt>
      <trkpt lat="44.04658" lon="7.00445">
        <ele>2097.8</ele>
        <time>2012-12-28T11:28:49Z</time>
      </trkpt>
      <trkpt lat="44.04658" lon="7.00445">
        <ele>2097.8</ele>
        <time>2012-12-28T11:28:50Z</time>
      </trkpt>
      <trkpt lat="44.04658" lon="7.00445">
        <ele>2097.8</ele>
        <time>2012-12-28T11:28:51Z</time>
      </trkpt>
      <trkpt lat="44.04658" lon="7.00445">
        <ele>2097.8</ele>
        <time>2012-12-28T11:28:52Z</time>
      </trkpt>
      <trkpt lat="44.04658" lon="7.00445">
        <ele>2097.8</ele>
        <time>2012-12-28T11:28:53Z</time>
      </trkpt>
      <trkpt lat="44.04658" lon="7.00445">
        <ele>2097.8</ele>
        <time>2012-12-28T11:28:54Z</time>
      </trkpt>
      <trkpt lat="44.04658" lon="7.00445">
        <ele>2097.8</ele>
        <time>2012-12-28T11:28:55Z</time>
      </trkpt>
      <trkpt lat="44.04658" lon="7.00445">
        <ele>2097.8</ele>
        <time>2012-12-28T11:28:56Z</time>
      </trkpt>
      <trkpt lat="44.04658" lon="7.00445">
        <ele>2097.8</ele>
        <time>2012-12-28T11:28:57Z</time>
      </trkpt>
      <trkpt lat="44.04658" lon="7.00445">
        <ele>2097.8</ele>
        <time>2012-12-28T11:28:58Z</time>
      </trkpt>
      <trkpt lat="44.04658" lon="7.00445">
        <ele>2097.8</ele>
        <time>2012-12-28T11:28:59Z</time>
      </trkpt>
      <trkpt lat="44.04658" lon="7.00445">
        <ele>2097.8</ele>
        <time>2012-12-28T11:29:00Z</time>
      </trkpt>
      <trkpt lat="44.04658" lon="7.00445">
        <ele>2097.8</ele>
        <time>2012-12-28T11:29:01Z</time>
      </trkpt>
      <trkpt lat="44.04658" lon="7.00445">
        <ele>2097.8</ele>
        <time>2012-12-28T11:29:02Z</time>
      </trkpt>
      <trkpt lat="44.04658" lon="7.00445">
        <ele>2097.8</ele>
        <time>2012-12-28T11:29:03Z</time>
      </trkpt>
      <trkpt lat="44.04658" lon="7.00445">
        <ele>2097.8</ele>
        <time>2012-12-28T11:29:04Z</time>
      </trkpt>
      <trkpt lat="44.04658" lon="7.00445">
        <ele>2097.8</ele>
        <time>2012-12-28T11:29:05Z</time>
      </trkpt>
      <trkpt lat="44.04658" lon="7.00445">
        <ele>2097.8</ele>
        <time>2012-12-28T11:29:06Z</time>
      </trkpt>
      <trkpt lat="44.04658" lon="7.00445">
        <ele>2097.8</ele>
        <time>2012-12-28T11:29:07Z</time>
      </trkpt>
      <trkpt lat="44.04658" lon="7.00445">
        <ele>2097.8</ele>
        <time>2012-12-28T11:29:08Z</time>
      </trkpt>
      <trkpt lat="44.04658" lon="7.00445">
        <ele>2097.8</ele>
        <time>2012-12-28T11:29:09Z</time>
      </trkpt>
      <trkpt lat="44.04658" lon="7.00445">
        <ele>2097.8</ele>
        <time>2012-12-28T11:29:10Z</time>
      </trkpt>
      <trkpt lat="44.04658" lon="7.00445">
        <ele>2097.8</ele>
        <time>2012-12-28T11:29:11Z</time>
      </trkpt>
      <trkpt lat="44.04658" lon="7.00445">
        <ele>2097.8</ele>
        <time>2012-12-28T11:29:12Z</time>
      </trkpt>
      <trkpt lat="44.04658" lon="7.00445">
        <ele>2097.8</ele>
        <time>2012-12-28T11:29:13Z</time>
      </trkpt>
      <trkpt lat="44.04658" lon="7.00445">
        <ele>2097.8</ele>
        <time>2012-12-28T11:29:14Z</time>
      </trkpt>
      <trkpt lat="44.04658" lon="7.00445">
        <ele>2097.8</ele>
        <time>2012-12-28T11:29:15Z</time>
      </trkpt>
      <trkpt lat="44.04658" lon="7.00445">
        <ele>2097.8</ele>
        <time>2012-12-28T11:29:16Z</time>
      </trkpt>
      <trkpt lat="44.04658" lon="7.00445">
        <ele>2097.8</ele>
        <time>2012-12-28T11:29:17Z</time>
      </trkpt>
      <trkpt lat="44.04658" lon="7.00445">
        <ele>2097.8</ele>
        <time>2012-12-28T11:29:18Z</time>
      </trkpt>
      <trkpt lat="44.04658" lon="7.00445">
        <ele>2097.8</ele>
        <time>2012-12-28T11:29:19Z</time>
      </trkpt>
      <trkpt lat="44.04658" lon="7.00445">
        <ele>2097.8</ele>
        <time>2012-12-28T11:29:20Z</time>
      </trkpt>
      <trkpt lat="44.04658" lon="7.00445">
        <ele>2097.8</ele>
        <time>2012-12-28T11:29:21Z</time>
      </trkpt>
      <trkpt lat="44.04658" lon="7.00445">
        <ele>2097.8</ele>
        <time>2012-12-28T11:29:22Z</time>
      </trkpt>
      <trkpt lat="44.04658" lon="7.00445">
        <ele>2097.8</ele>
        <time>2012-12-28T11:29:23Z</time>
      </trkpt>
      <trkpt lat="44.04658" lon="7.00445">
        <ele>2097.8</ele>
        <time>2012-12-28T11:29:24Z</time>
      </trkpt>
      <trkpt lat="44.04658" lon="7.00445">
        <ele>2097.8</ele>
        <time>2012-12-28T11:29:25Z</time>
      </trkpt>
      <trkpt lat="44.04658" lon="7.00445">
        <ele>2097.8</ele>
        <time>2012-12-28T11:29:26Z</time>
      </trkpt>
      <trkpt lat="44.04658" lon="7.00445">
        <ele>2097.8</ele>
        <time>2012-12-28T11:29:27Z</time>
      </trkpt>
      <trkpt lat="44.04658" lon="7.00445">
        <ele>2097.8</ele>
        <time>2012-12-28T11:29:28Z</time>
      </trkpt>
      <trkpt lat="44.04658" lon="7.00445">
        <ele>2097.8</ele>
        <time>2012-12-28T11:29:29Z</time>
      </trkpt>
      <trkpt lat="44.04658" lon="7.00445">
        <ele>2097.8</ele>
        <time>2012-12-28T11:29:30Z</time>
      </trkpt>
      <trkpt lat="44.04658" lon="7.00445">
        <ele>2097.8</ele>
        <time>2012-12-28T11:29:31Z</time>
      </trkpt>
      <trkpt lat="44.04658" lon="7.00445">
        <ele>2097.8</ele>
        <time>2012-12-28T11:29:32Z</time>
      </trkpt>
      <trkpt lat="44.04658" lon="7.00445">
        <ele>2097.8</ele>
        <time>2012-12-28T11:29:33Z</time>
      </trkpt>
      <trkpt lat="44.04658" lon="7.00445">
        <ele>2097.8</ele>
        <time>2012-12-28T11:29:34Z</time>
      </trkpt>
      <trkpt lat="44.04658" lon="7.00445">
        <ele>2097.8</ele>
        <time>2012-12-28T11:29:35Z</time>
      </trkpt>
      <trkpt lat="44.04658" lon="7.00445">
        <ele>2097.8</ele>
        <time>2012-12-28T11:29:36Z</time>
      </trkpt>
      <trkpt lat="44.04658" lon="7.00445">
        <ele>2097.8</ele>
        <time>2012-12-28T11:29:37Z</time>
      </trkpt>
      <trkpt lat="44.04658" lon="7.00445">
        <ele>2097.8</ele>
        <time>2012-12-28T11:29:38Z</time>
      </trkpt>
      <trkpt lat="44.04658" lon="7.00445">
        <ele>2097.8</ele>
        <time>2012-12-28T11:29:39Z</time>
      </trkpt>
      <trkpt lat="44.04658" lon="7.00445">
        <ele>2097.8</ele>
        <time>2012-12-28T11:29:40Z</time>
      </trkpt>
      <trkpt lat="44.04658" lon="7.00445">
        <ele>2097.8</ele>
        <time>2012-12-28T11:29:41Z</time>
      </trkpt>
      <trkpt lat="44.04658" lon="7.00445">
        <ele>2097.8</ele>
        <time>2012-12-28T11:29:42Z</time>
      </trkpt>
      <trkpt lat="44.04658" lon="7.00445">
        <ele>2097.8</ele>
        <time>2012-12-28T11:29:43Z</time>
      </trkpt>
      <trkpt lat="44.04658" lon="7.00445">
        <ele>2097.8</ele>
        <time>2012-12-28T11:29:44Z</time>
      </trkpt>
      <trkpt lat="44.04658" lon="7.00445">
        <ele>2097.8</ele>
        <time>2012-12-28T11:29:45Z</time>
      </trkpt>
      <trkpt lat="44.04658" lon="7.00445">
        <ele>2097.8</ele>
        <time>2012-12-28T11:29:46Z</time>
      </trkpt>
      <trkpt lat="44.04658" lon="7.00445">
        <ele>2097.8</ele>
        <time>2012-12-28T11:29:47Z</time>
      </trkpt>
      <trkpt lat="44.04658" lon="7.00445">
        <ele>2097.8</ele>
        <time>2012-12-28T11:29:48Z</time>
      </trkpt>
      <trkpt lat="44.04658" lon="7.00445">
        <ele>2097.8</ele>
        <time>2012-12-28T11:29:49Z</time>
      </trkpt>
      <trkpt lat="44.04658" lon="7.00445">
        <ele>2097.8</ele>
        <time>2012-12-28T11:29:50Z</time>
      </trkpt>
      <trkpt lat="44.04658" lon="7.00445">
        <ele>2097.8</ele>
        <time>2012-12-28T11:29:51Z</time>
      </trkpt>
      <trkpt lat="44.04658" lon="7.00445">
        <ele>2097.8</ele>
        <time>2012-12-28T11:29:52Z</time>
      </trkpt>
      <trkpt lat="44.04658" lon="7.00445">
        <ele>2097.8</ele>
        <time>2012-12-28T11:29:53Z</time>
      </trkpt>
      <trkpt lat="44.04658" lon="7.00445">
        <ele>2097.8</ele>
        <time>2012-12-28T11:29:54Z</time>
      </trkpt>
      <trkpt lat="44.04658" lon="7.00445">
        <ele>2097.8</ele>
        <time>2012-12-28T11:29:55Z</time>
      </trkpt>
      <trkpt lat="44.04658" lon="7.00445">
        <ele>2097.8</ele>
        <time>2012-12-28T11:29:56Z</time>
      </trkpt>
      <trkpt lat="44.04658" lon="7.00445">
        <ele>2097.8</ele>
        <time>2012-12-28T11:29:57Z</time>
      </trkpt>
      <trkpt lat="44.04658" lon="7.00445">
        <ele>2097.8</ele>
        <time>2012-12-28T11:29:58Z</time>
      </trkpt>
      <trkpt lat="44.04658" lon="7.00445">
        <ele>2097.8</ele>
        <time>2012-12-28T11:29:59Z</time>
      </trkpt>
      <trkpt lat="44.04658" lon="7.00445">
        <ele>2097.8</ele>
        <time>2012-12-28T11:30:00Z</time>
      </trkpt>
      <trkpt lat="44.04658" lon="7.00445">
        <ele>2097.8</ele>
        <time>2012-12-28T11:30:01Z</time>
      </trkpt>
      <trkpt lat="44.04658" lon="7.00445">
        <ele>2097.8</ele>
        <time>2012-12-28T11:30:02Z</time>
      </trkpt>
      <trkpt lat="44.04658" lon="7.00445">
        <ele>2097.8</ele>
        <time>2012-12-28T11:30:03Z</time>
      </trkpt>
      <trkpt lat="44.04658" lon="7.00445">
        <ele>2097.8</ele>
        <time>2012-12-28T11:30:04Z</time>
      </trkpt>
      <trkpt lat="44.04658" lon="7.00445">
        <ele>2097.8</ele>
        <time>2012-12-28T11:30:05Z</time>
      </trkpt>
      <trkpt lat="44.04658" lon="7.00445">
        <ele>2097.8</ele>
        <time>2012-12-28T11:30:06Z</time>
      </trkpt>
      <trkpt lat="44.04658" lon="7.00445">
        <ele>2097.8</ele>
        <time>2012-12-28T11:30:07Z</time>
      </trkpt>
      <trkpt lat="44.04658" lon="7.00445">
        <ele>2097.8</ele>
        <time>2012-12-28T11:30:08Z</time>
      </trkpt>
      <trkpt lat="44.04658" lon="7.00445">
        <ele>2097.8</ele>
        <time>2012-12-28T11:30:09Z</time>
      </trkpt>
      <trkpt lat="44.04658" lon="7.00445">
        <ele>2097.8</ele>
        <time>2012-12-28T11:30:10Z</time>
      </trkpt>
      <trkpt lat="44.04658" lon="7.00445">
        <ele>2097.8</ele>
        <time>2012-12-28T11:30:11Z</time>
      </trkpt>
      <trkpt lat="44.04658" lon="7.00445">
        <ele>2097.8</ele>
        <time>2012-12-28T11:30:12Z</time>
      </trkpt>
      <trkpt lat="44.04658" lon="7.00445">
        <ele>2097.8</ele>
        <time>2012-12-28T11:30:13Z</time>
      </trkpt>
      <trkpt lat="44.04658" lon="7.00445">
        <ele>2097.8</ele>
        <time>2012-12-28T11:30:14Z</time>
      </trkpt>
      <trkpt lat="44.04658" lon="7.00445">
        <ele>2097.8</ele>
        <time>2012-12-28T11:30:15Z</time>
      </trkpt>
      <trkpt lat="44.04658" lon="7.00445">
        <ele>2097.8</ele>
        <time>2012-12-28T11:30:16Z</time>
      </trkpt>
      <trkpt lat="44.04658" lon="7.00445">
        <ele>2097.8</ele>
        <time>2012-12-28T11:30:17Z</time>
      </trkpt>
      <trkpt lat="44.04658" lon="7.00445">
        <ele>2097.8</ele>
        <time>2012-12-28T11:30:18Z</time>
      </trkpt>
      <trkpt lat="44.04658" lon="7.00445">
        <ele>2097.8</ele>
        <time>2012-12-28T11:30:19Z</time>
      </trkpt>
      <trkpt lat="44.04658" lon="7.00445">
        <ele>2097.8</ele>
        <time>2012-12-28T11:30:20Z</time>
      </trkpt>
      <trkpt lat="44.04658" lon="7.00445">
        <ele>2097.8</ele>
        <time>2012-12-28T11:30:21Z</time>
      </trkpt>
      <trkpt lat="44.04658" lon="7.00445">
        <ele>2097.8</ele>
        <time>2012-12-28T11:30:22Z</time>
      </trkpt>
      <trkpt lat="44.04658" lon="7.00445">
        <ele>2097.8</ele>
        <time>2012-12-28T11:30:23Z</time>
      </trkpt>
      <trkpt lat="44.04658" lon="7.00445">
        <ele>2097.8</ele>
        <time>2012-12-28T11:30:24Z</time>
      </trkpt>
      <trkpt lat="44.04658" lon="7.00445">
        <ele>2097.8</ele>
        <time>2012-12-28T11:30:25Z</time>
      </trkpt>
      <trkpt lat="44.04658" lon="7.00445">
        <ele>2097.8</ele>
        <time>2012-12-28T11:30:26Z</time>
      </trkpt>
      <trkpt lat="44.04658" lon="7.00445">
        <ele>2097.8</ele>
        <time>2012-12-28T11:30:27Z</time>
      </trkpt>
      <trkpt lat="44.04658" lon="7.00445">
        <ele>2097.8</ele>
        <time>2012-12-28T11:30:28Z</time>
      </trkpt>
      <trkpt lat="44.04658" lon="7.00445">
        <ele>2097.8</ele>
        <time>2012-12-28T11:30:29Z</time>
      </trkpt>
      <trkpt lat="44.04658" lon="7.00445">
        <ele>2097.8</ele>
        <time>2012-12-28T11:30:30Z</time>
      </trkpt>
      <trkpt lat="44.04658" lon="7.00445">
        <ele>2097.8</ele>
        <time>2012-12-28T11:30:31Z</time>
      </trkpt>
      <trkpt lat="44.04658" lon="7.00445">
        <ele>2097.8</ele>
        <time>2012-12-28T11:30:32Z</time>
      </trkpt>
      <trkpt lat="44.04658" lon="7.00445">
        <ele>2097.8</ele>
        <time>2012-12-28T11:30:33Z</time>
      </trkpt>
      <trkpt lat="44.04658" lon="7.00445">
        <ele>2097.8</ele>
        <time>2012-12-28T11:30:34Z</time>
      </trkpt>
      <trkpt lat="44.04658" lon="7.00445">
        <ele>2097.8</ele>
        <time>2012-12-28T11:30:35Z</time>
      </trkpt>
      <trkpt lat="44.04658" lon="7.00445">
        <ele>2097.8</ele>
        <time>2012-12-28T11:30:36Z</time>
      </trkpt>
      <trkpt lat="44.04658" lon="7.00445">
        <ele>2097.8</ele>
        <time>2012-12-28T11:30:37Z</time>
      </trkpt>
      <trkpt lat="44.04658" lon="7.00445">
        <ele>2097.8</ele>
        <time>2012-12-28T11:30:38Z</time>
      </trkpt>
      <trkpt lat="44.04658" lon="7.00445">
        <ele>2097.8</ele>
        <time>2012-12-28T11:30:39Z</time>
      </trkpt>
      <trkpt lat="44.04658" lon="7.00445">
        <ele>2097.8</ele>
        <time>2012-12-28T11:30:40Z</time>
      </trkpt>
      <trkpt lat="44.04658" lon="7.00445">
        <ele>2097.8</ele>
        <time>2012-12-28T11:30:41Z</time>
      </trkpt>
      <trkpt lat="44.04658" lon="7.00445">
        <ele>2097.8</ele>
        <time>2012-12-28T11:30:42Z</time>
      </trkpt>
      <trkpt lat="44.04658" lon="7.00445">
        <ele>2097.8</ele>
        <time>2012-12-28T11:30:43Z</time>
      </trkpt>
      <trkpt lat="44.04658" lon="7.00445">
        <ele>2097.8</ele>
        <time>2012-12-28T11:30:44Z</time>
      </trkpt>
      <trkpt lat="44.04658" lon="7.00445">
        <ele>2097.8</ele>
        <time>2012-12-28T11:30:45Z</time>
      </trkpt>
      <trkpt lat="44.04658" lon="7.00445">
        <ele>2097.8</ele>
        <time>2012-12-28T11:30:46Z</time>
      </trkpt>
      <trkpt lat="44.04658" lon="7.00445">
        <ele>2097.8</ele>
        <time>2012-12-28T11:30:47Z</time>
      </trkpt>
      <trkpt lat="44.04658" lon="7.00445">
        <ele>2097.8</ele>
        <time>2012-12-28T11:30:48Z</time>
      </trkpt>
      <trkpt lat="44.04658" lon="7.00445">
        <ele>2097.8</ele>
        <time>2012-12-28T11:30:49Z</time>
      </trkpt>
      <trkpt lat="44.04658" lon="7.00445">
        <ele>2097.8</ele>
        <time>2012-12-28T11:30:50Z</time>
      </trkpt>
      <trkpt lat="44.04658" lon="7.00445">
        <ele>2097.8</ele>
        <time>2012-12-28T11:30:51Z</time>
      </trkpt>
      <trkpt lat="44.04658" lon="7.00445">
        <ele>2097.8</ele>
        <time>2012-12-28T11:30:52Z</time>
      </trkpt>
      <trkpt lat="44.04658" lon="7.00445">
        <ele>2097.8</ele>
        <time>2012-12-28T11:30:53Z</time>
      </trkpt>
      <trkpt lat="44.04658" lon="7.00445">
        <ele>2097.8</ele>
        <time>2012-12-28T11:30:54Z</time>
      </trkpt>
      <trkpt lat="44.04658" lon="7.00445">
        <ele>2097.8</ele>
        <time>2012-12-28T11:30:55Z</time>
      </trkpt>
      <trkpt lat="44.04658" lon="7.00445">
        <ele>2097.8</ele>
        <time>2012-12-28T11:30:56Z</time>
      </trkpt>
      <trkpt lat="44.04658" lon="7.00445">
        <ele>2097.8</ele>
        <time>2012-12-28T11:30:57Z</time>
      </trkpt>
      <trkpt lat="44.04658" lon="7.00445">
        <ele>2097.8</ele>
        <time>2012-12-28T11:30:58Z</time>
      </trkpt>
      <trkpt lat="44.04658" lon="7.00445">
        <ele>2097.8</ele>
        <time>2012-12-28T11:30:59Z</time>
      </trkpt>
      <trkpt lat="44.04658" lon="7.00445">
        <ele>2097.8</ele>
        <time>2012-12-28T11:31:00Z</time>
      </trkpt>
      <trkpt lat="44.04658" lon="7.00445">
        <ele>2097.8</ele>
        <time>2012-12-28T11:31:01Z</time>
      </trkpt>
      <trkpt lat="44.04658" lon="7.00445">
        <ele>2097.8</ele>
        <time>2012-12-28T11:31:02Z</time>
      </trkpt>
      <trkpt lat="44.04658" lon="7.00445">
        <ele>2097.8</ele>
        <time>2012-12-28T11:31:03Z</time>
      </trkpt>
      <trkpt lat="44.04658" lon="7.00445">
        <ele>2097.8</ele>
        <time>2012-12-28T11:31:04Z</time>
      </trkpt>
      <trkpt lat="44.04658" lon="7.00445">
        <ele>2097.8</ele>
        <time>2012-12-28T11:31:05Z</time>
      </trkpt>
      <trkpt lat="44.04658" lon="7.00445">
        <ele>2097.8</ele>
        <time>2012-12-28T11:31:06Z</time>
      </trkpt>
      <trkpt lat="44.04658" lon="7.00445">
        <ele>2097.8</ele>
        <time>2012-12-28T11:31:07Z</time>
      </trkpt>
      <trkpt lat="44.04658" lon="7.00445">
        <ele>2097.8</ele>
        <time>2012-12-28T11:31:08Z</time>
      </trkpt>
      <trkpt lat="44.04658" lon="7.00445">
        <ele>2097.8</ele>
        <time>2012-12-28T11:31:09Z</time>
      </trkpt>
      <trkpt lat="44.04658" lon="7.00445">
        <ele>2097.8</ele>
        <time>2012-12-28T11:31:10Z</time>
      </trkpt>
      <trkpt lat="44.04658" lon="7.00445">
        <ele>2097.8</ele>
        <time>2012-12-28T11:31:11Z</time>
      </trkpt>
      <trkpt lat="44.04658" lon="7.00445">
        <ele>2097.8</ele>
        <time>2012-12-28T11:31:12Z</time>
      </trkpt>
      <trkpt lat="44.04658" lon="7.00445">
        <ele>2097.8</ele>
        <time>2012-12-28T11:31:13Z</time>
      </trkpt>
      <trkpt lat="44.04658" lon="7.00445">
        <ele>2097.8</ele>
        <time>2012-12-28T11:31:14Z</time>
      </trkpt>
      <trkpt lat="44.04658" lon="7.00445">
        <ele>2097.8</ele>
        <time>2012-12-28T11:31:15Z</time>
      </trkpt>
      <trkpt lat="44.04658" lon="7.00445">
        <ele>2097.8</ele>
        <time>2012-12-28T11:31:16Z</time>
      </trkpt>
      <trkpt lat="44.04658" lon="7.00445">
        <ele>2097.8</ele>
        <time>2012-12-28T11:31:17Z</time>
      </trkpt>
      <trkpt lat="44.04658" lon="7.00445">
        <ele>2097.8</ele>
        <time>2012-12-28T11:31:18Z</time>
      </trkpt>
      <trkpt lat="44.04658" lon="7.00445">
        <ele>2097.8</ele>
        <time>2012-12-28T11:31:19Z</time>
      </trkpt>
      <trkpt lat="44.04658" lon="7.00445">
        <ele>2097.8</ele>
        <time>2012-12-28T11:31:20Z</time>
      </trkpt>
      <trkpt lat="44.04658" lon="7.00445">
        <ele>2097.8</ele>
        <time>2012-12-28T11:31:21Z</time>
      </trkpt>
      <trkpt lat="44.04658" lon="7.00445">
        <ele>2097.8</ele>
        <time>2012-12-28T11:31:22Z</time>
      </trkpt>
      <trkpt lat="44.04658" lon="7.00445">
        <ele>2097.8</ele>
        <time>2012-12-28T11:31:23Z</time>
      </trkpt>
      <trkpt lat="44.04658" lon="7.00445">
        <ele>2097.8</ele>
        <time>2012-12-28T11:31:24Z</time>
      </trkpt>
      <trkpt lat="44.04658" lon="7.00445">
        <ele>2097.8</ele>
        <time>2012-12-28T11:31:25Z</time>
      </trkpt>
      <trkpt lat="44.04658" lon="7.00445">
        <ele>2097.8</ele>
        <time>2012-12-28T11:31:26Z</time>
      </trkpt>
      <trkpt lat="44.04658" lon="7.00445">
        <ele>2097.8</ele>
        <time>2012-12-28T11:31:27Z</time>
      </trkpt>
      <trkpt lat="44.04658" lon="7.00445">
        <ele>2097.8</ele>
        <time>2012-12-28T11:31:28Z</time>
      </trkpt>
      <trkpt lat="44.04658" lon="7.00445">
        <ele>2097.8</ele>
        <time>2012-12-28T11:31:29Z</time>
      </trkpt>
      <trkpt lat="44.04658" lon="7.00445">
        <ele>2097.8</ele>
        <time>2012-12-28T11:31:30Z</time>
      </trkpt>
      <trkpt lat="44.04658" lon="7.00445">
        <ele>2097.8</ele>
        <time>2012-12-28T11:31:31Z</time>
      </trkpt>
      <trkpt lat="44.04658" lon="7.00445">
        <ele>2097.8</ele>
        <time>2012-12-28T11:31:32Z</time>
      </trkpt>
      <trkpt lat="44.04658" lon="7.00445">
        <ele>2097.8</ele>
        <time>2012-12-28T11:31:33Z</time>
      </trkpt>
      <trkpt lat="44.04658" lon="7.00445">
        <ele>2097.8</ele>
        <time>2012-12-28T11:31:34Z</time>
      </trkpt>
      <trkpt lat="44.04658" lon="7.00445">
        <ele>2097.8</ele>
        <time>2012-12-28T11:31:35Z</time>
      </trkpt>
      <trkpt lat="44.04658" lon="7.00445">
        <ele>2097.8</ele>
        <time>2012-12-28T11:31:36Z</time>
      </trkpt>
      <trkpt lat="44.04658" lon="7.00445">
        <ele>2097.8</ele>
        <time>2012-12-28T11:31:37Z</time>
      </trkpt>
      <trkpt lat="44.04658" lon="7.00445">
        <ele>2097.8</ele>
        <time>2012-12-28T11:31:38Z</time>
      </trkpt>
      <trkpt lat="44.04658" lon="7.00445">
        <ele>2097.8</ele>
        <time>2012-12-28T11:31:39Z</time>
      </trkpt>
      <trkpt lat="44.04658" lon="7.00445">
        <ele>2097.8</ele>
        <time>2012-12-28T11:31:40Z</time>
      </trkpt>
      <trkpt lat="44.04658" lon="7.00445">
        <ele>2097.8</ele>
        <time>2012-12-28T11:31:41Z</time>
      </trkpt>
      <trkpt lat="44.04658" lon="7.00445">
        <ele>2097.8</ele>
        <time>2012-12-28T11:31:42Z</time>
      </trkpt>
      <trkpt lat="44.04658" lon="7.00445">
        <ele>2097.8</ele>
        <time>2012-12-28T11:31:43Z</time>
      </trkpt>
      <trkpt lat="44.04658" lon="7.00445">
        <ele>2097.8</ele>
        <time>2012-12-28T11:31:44Z</time>
      </trkpt>
      <trkpt lat="44.04658" lon="7.00445">
        <ele>2097.8</ele>
        <time>2012-12-28T11:31:45Z</time>
      </trkpt>
      <trkpt lat="44.04658" lon="7.00445">
        <ele>2097.8</ele>
        <time>2012-12-28T11:31:46Z</time>
      </trkpt>
      <trkpt lat="44.04658" lon="7.00445">
        <ele>2097.8</ele>
        <time>2012-12-28T11:31:47Z</time>
      </trkpt>
      <trkpt lat="44.04658" lon="7.00445">
        <ele>2097.8</ele>
        <time>2012-12-28T11:31:48Z</time>
      </trkpt>
      <trkpt lat="44.04658" lon="7.00445">
        <ele>2097.8</ele>
        <time>2012-12-28T11:31:49Z</time>
      </trkpt>
      <trkpt lat="44.04658" lon="7.00445">
        <ele>2097.8</ele>
        <time>2012-12-28T11:31:50Z</time>
      </trkpt>
      <trkpt lat="44.04658" lon="7.00445">
        <ele>2097.8</ele>
        <time>2012-12-28T11:31:51Z</time>
      </trkpt>
      <trkpt lat="44.04658" lon="7.00445">
        <ele>2097.8</ele>
        <time>2012-12-28T11:31:52Z</time>
      </trkpt>
      <trkpt lat="44.04658" lon="7.00445">
        <ele>2097.8</ele>
        <time>2012-12-28T11:31:53Z</time>
      </trkpt>
      <trkpt lat="44.04658" lon="7.00445">
        <ele>2097.8</ele>
        <time>2012-12-28T11:31:54Z</time>
      </trkpt>
      <trkpt lat="44.04658" lon="7.00445">
        <ele>2097.8</ele>
        <time>2012-12-28T11:31:55Z</time>
      </trkpt>
      <trkpt lat="44.04658" lon="7.00445">
        <ele>2097.8</ele>
        <time>2012-12-28T11:31:56Z</time>
      </trkpt>
      <trkpt lat="44.04658" lon="7.00445">
        <ele>2097.8</ele>
        <time>2012-12-28T11:31:57Z</time>
      </trkpt>
      <trkpt lat="44.04658" lon="7.00445">
        <ele>2097.8</ele>
        <time>2012-12-28T11:31:58Z</time>
      </trkpt>
      <trkpt lat="44.04658" lon="7.00445">
        <ele>2097.8</ele>
        <time>2012-12-28T11:31:59Z</time>
      </trkpt>
      <trkpt lat="44.04658" lon="7.00445">
        <ele>2097.8</ele>
        <time>2012-12-28T11:32:00Z</time>
      </trkpt>
      <trkpt lat="44.04658" lon="7.00445">
        <ele>2097.8</ele>
        <time>2012-12-28T11:32:01Z</time>
      </trkpt>
      <trkpt lat="44.04658" lon="7.00445">
        <ele>2097.8</ele>
        <time>2012-12-28T11:32:02Z</time>
      </trkpt>
      <trkpt lat="44.04658" lon="7.00445">
        <ele>2097.8</ele>
        <time>2012-12-28T11:32:03Z</time>
      </trkpt>
      <trkpt lat="44.04658" lon="7.00445">
        <ele>2097.8</ele>
        <time>2012-12-28T11:32:04Z</time>
      </trkpt>
      <trkpt lat="44.04658" lon="7.00445">
        <ele>2097.8</ele>
        <time>2012-12-28T11:32:05Z</time>
      </trkpt>
      <trkpt lat="44.04658" lon="7.00445">
        <ele>2097.8</ele>
        <time>2012-12-28T11:32:06Z</time>
      </trkpt>
      <trkpt lat="44.04658" lon="7.00445">
        <ele>2097.8</ele>
        <time>2012-12-28T11:32:07Z</time>
      </trkpt>
      <trkpt lat="44.04658" lon="7.00445">
        <ele>2097.8</ele>
        <time>2012-12-28T11:32:08Z</time>
      </trkpt>
      <trkpt lat="44.04658" lon="7.00445">
        <ele>2097.8</ele>
        <time>2012-12-28T11:32:09Z</time>
      </trkpt>
      <trkpt lat="44.04658" lon="7.00445">
        <ele>2097.8</ele>
        <time>2012-12-28T11:32:10Z</time>
      </trkpt>
      <trkpt lat="44.04658" lon="7.00445">
        <ele>2097.8</ele>
        <time>2012-12-28T11:32:11Z</time>
      </trkpt>
      <trkpt lat="44.04658" lon="7.00445">
        <ele>2097.8</ele>
        <time>2012-12-28T11:32:12Z</time>
      </trkpt>
      <trkpt lat="44.04658" lon="7.00445">
        <ele>2097.8</ele>
        <time>2012-12-28T11:32:13Z</time>
      </trkpt>
      <trkpt lat="44.04658" lon="7.00445">
        <ele>2097.8</ele>
        <time>2012-12-28T11:32:14Z</time>
      </trkpt>
      <trkpt lat="44.04658" lon="7.00445">
        <ele>2097.8</ele>
        <time>2012-12-28T11:32:15Z</time>
      </trkpt>
      <trkpt lat="44.04658" lon="7.00445">
        <ele>2097.8</ele>
        <time>2012-12-28T11:32:16Z</time>
      </trkpt>
      <trkpt lat="44.04658" lon="7.00445">
        <ele>2097.8</ele>
        <time>2012-12-28T11:32:17Z</time>
      </trkpt>
      <trkpt lat="44.04658" lon="7.00445">
        <ele>2097.8</ele>
        <time>2012-12-28T11:32:18Z</time>
      </trkpt>
      <trkpt lat="44.04658" lon="7.00445">
        <ele>2097.8</ele>
        <time>2012-12-28T11:32:19Z</time>
      </trkpt>
      <trkpt lat="44.04658" lon="7.00445">
        <ele>2097.8</ele>
        <time>2012-12-28T11:32:20Z</time>
      </trkpt>
      <trkpt lat="44.04658" lon="7.00445">
        <ele>2097.8</ele>
        <time>2012-12-28T11:32:21Z</time>
      </trkpt>
      <trkpt lat="44.04658" lon="7.00445">
        <ele>2097.8</ele>
        <time>2012-12-28T11:32:22Z</time>
      </trkpt>
      <trkpt lat="44.04658" lon="7.00445">
        <ele>2097.8</ele>
        <time>2012-12-28T11:32:23Z</time>
      </trkpt>
      <trkpt lat="44.04658" lon="7.00445">
        <ele>2097.8</ele>
        <time>2012-12-28T11:32:24Z</time>
      </trkpt>
      <trkpt lat="44.04658" lon="7.00445">
        <ele>2097.8</ele>
        <time>2012-12-28T11:32:25Z</time>
      </trkpt>
      <trkpt lat="44.04658" lon="7.00445">
        <ele>2097.8</ele>
        <time>2012-12-28T11:32:26Z</time>
      </trkpt>
      <trkpt lat="44.04658" lon="7.00445">
        <ele>2097.8</ele>
        <time>2012-12-28T11:32:27Z</time>
      </trkpt>
      <trkpt lat="44.04658" lon="7.00445">
        <ele>2097.8</ele>
        <time>2012-12-28T11:32:28Z</time>
      </trkpt>
      <trkpt lat="44.04658" lon="7.00445">
        <ele>2097.8</ele>
        <time>2012-12-28T11:32:29Z</time>
      </trkpt>
      <trkpt lat="44.04658" lon="7.00445">
        <ele>2097.8</ele>
        <time>2012-12-28T11:32:30Z</time>
      </trkpt>
      <trkpt lat="44.04658" lon="7.00445">
        <ele>2097.8</ele>
        <time>2012-12-28T11:32:31Z</time>
      </trkpt>
      <trkpt lat="44.04658" lon="7.00445">
        <ele>2097.8</ele>
        <time>2012-12-28T11:32:32Z</time>
      </trkpt>
      <trkpt lat="44.04658" lon="7.00445">
        <ele>2097.8</ele>
        <time>2012-12-28T11:32:33Z</time>
      </trkpt>
      <trkpt lat="44.04658" lon="7.00445">
        <ele>2097.8</ele>
        <time>2012-12-28T11:32:34Z</time>
      </trkpt>
      <trkpt lat="44.04658" lon="7.00445">
        <ele>2097.8</ele>
        <time>2012-12-28T11:32:35Z</time>
      </trkpt>
      <trkpt lat="44.04658" lon="7.00445">
        <ele>2097.8</ele>
        <time>2012-12-28T11:32:36Z</time>
      </trkpt>
      <trkpt lat="44.04658" lon="7.00445">
        <ele>2097.8</ele>
        <time>2012-12-28T11:32:37Z</time>
      </trkpt>
      <trkpt lat="44.04658" lon="7.00445">
        <ele>2097.8</ele>
        <time>2012-12-28T11:32:38Z</time>
      </trkpt>
      <trkpt lat="44.04658" lon="7.00445">
        <ele>2097.8</ele>
        <time>2012-12-28T11:32:39Z</time>
      </trkpt>
      <trkpt lat="44.04658" lon="7.00445">
        <ele>2097.8</ele>
        <time>2012-12-28T11:32:40Z</time>
      </trkpt>
      <trkpt lat="44.04658" lon="7.00445">
        <ele>2097.8</ele>
        <time>2012-12-28T11:32:41Z</time>
      </trkpt>
      <trkpt lat="44.04658" lon="7.00445">
        <ele>2097.8</ele>
        <time>2012-12-28T11:32:42Z</time>
      </trkpt>
      <trkpt lat="44.04658" lon="7.00445">
        <ele>2097.8</ele>
        <time>2012-12-28T11:32:43Z</time>
      </trkpt>
      <trkpt lat="44.04658" lon="7.00445">
        <ele>2097.8</ele>
        <time>2012-12-28T11:32:44Z</time>
      </trkpt>
      <trkpt lat="44.04658" lon="7.00445">
        <ele>2097.8</ele>
        <time>2012-12-28T11:32:45Z</time>
      </trkpt>
      <trkpt lat="44.04658" lon="7.00445">
        <ele>2097.8</ele>
        <time>2012-12-28T11:32:46Z</time>
      </trkpt>
      <trkpt lat="44.04658" lon="7.00445">
        <ele>2097.8</ele>
        <time>2012-12-28T11:32:47Z</time>
      </trkpt>
      <trkpt lat="44.04658" lon="7.00445">
        <ele>2097.8</ele>
        <time>2012-12-28T11:32:48Z</time>
      </trkpt>
      <trkpt lat="44.04658" lon="7.00445">
        <ele>2097.8</ele>
        <time>2012-12-28T11:32:49Z</time>
      </trkpt>
      <trkpt lat="44.04658" lon="7.00445">
        <ele>2097.8</ele>
        <time>2012-12-28T11:32:50Z</time>
      </trkpt>
      <trkpt lat="44.04658" lon="7.00445">
        <ele>2097.8</ele>
        <time>2012-12-28T11:32:51Z</time>
      </trkpt>
      <trkpt lat="44.04658" lon="7.00445">
        <ele>2097.8</ele>
        <time>2012-12-28T11:32:52Z</time>
      </trkpt>
      <trkpt lat="44.04658" lon="7.00445">
        <ele>2097.8</ele>
        <time>2012-12-28T11:32:53Z</time>
      </trkpt>
      <trkpt lat="44.04658" lon="7.00445">
        <ele>2097.8</ele>
        <time>2012-12-28T11:32:54Z</time>
      </trkpt>
      <trkpt lat="44.04658" lon="7.00445">
        <ele>2097.8</ele>
        <time>2012-12-28T11:32:55Z</time>
      </trkpt>
      <trkpt lat="44.04658" lon="7.00445">
        <ele>2097.8</ele>
        <time>2012-12-28T11:32:56Z</time>
      </trkpt>
      <trkpt lat="44.04658" lon="7.00445">
        <ele>2097.8</ele>
        <time>2012-12-28T11:32:57Z</time>
      </trkpt>
      <trkpt lat="44.04658" lon="7.00445">
        <ele>2097.8</ele>
        <time>2012-12-28T11:32:58Z</time>
      </trkpt>
      <trkpt lat="44.04658" lon="7.00445">
        <ele>2097.8</ele>
        <time>2012-12-28T11:32:59Z</time>
      </trkpt>
      <trkpt lat="44.04658" lon="7.00445">
        <ele>2097.8</ele>
        <time>2012-12-28T11:33:00Z</time>
      </trkpt>
      <trkpt lat="44.04658" lon="7.00445">
        <ele>2097.8</ele>
        <time>2012-12-28T11:33:01Z</time>
      </trkpt>
      <trkpt lat="44.04658" lon="7.00445">
        <ele>2097.8</ele>
        <time>2012-12-28T11:33:02Z</time>
      </trkpt>
      <trkpt lat="44.04658" lon="7.00444">
        <ele>2097.9</ele>
        <time>2012-12-28T11:33:03Z</time>
      </trkpt>
      <trkpt lat="44.04658" lon="7.00444">
        <ele>2098</ele>
        <time>2012-12-28T11:33:04Z</time>
      </trkpt>
      <trkpt lat="44.04658" lon="7.00443">
        <ele>2098.1</ele>
        <time>2012-12-28T11:33:05Z</time>
      </trkpt>
      <trkpt lat="44.04658" lon="7.00443">
        <ele>2098.1</ele>
        <time>2012-12-28T11:33:06Z</time>
      </trkpt>
      <trkpt lat="44.04658" lon="7.00443">
        <ele>2098.1</ele>
        <time>2012-12-28T11:33:07Z</time>
      </trkpt>
      <trkpt lat="44.04658" lon="7.00443">
        <ele>2098.1</ele>
        <time>2012-12-28T11:33:08Z</time>
      </trkpt>
      <trkpt lat="44.04658" lon="7.00443">
        <ele>2098.1</ele>
        <time>2012-12-28T11:33:09Z</time>
      </trkpt>
      <trkpt lat="44.04658" lon="7.00443">
        <ele>2098.1</ele>
        <time>2012-12-28T11:33:10Z</time>
      </trkpt>
      <trkpt lat="44.04658" lon="7.00443">
        <ele>2098.1</ele>
        <time>2012-12-28T11:33:11Z</time>
      </trkpt>
      <trkpt lat="44.04658" lon="7.00443">
        <ele>2098.1</ele>
        <time>2012-12-28T11:33:12Z</time>
      </trkpt>
      <trkpt lat="44.04658" lon="7.00443">
        <ele>2098.1</ele>
        <time>2012-12-28T11:33:13Z</time>
      </trkpt>
      <trkpt lat="44.04658" lon="7.00443">
        <ele>2098.1</ele>
        <time>2012-12-28T11:33:14Z</time>
      </trkpt>
      <trkpt lat="44.04658" lon="7.00443">
        <ele>2098.1</ele>
        <time>2012-12-28T11:33:15Z</time>
      </trkpt>
      <trkpt lat="44.04658" lon="7.00443">
        <ele>2098.1</ele>
        <time>2012-12-28T11:33:16Z</time>
      </trkpt>
      <trkpt lat="44.04658" lon="7.00443">
        <ele>2098.1</ele>
        <time>2012-12-28T11:33:17Z</time>
      </trkpt>
      <trkpt lat="44.04658" lon="7.00443">
        <ele>2098.1</ele>
        <time>2012-12-28T11:33:18Z</time>
      </trkpt>
      <trkpt lat="44.04658" lon="7.00443">
        <ele>2098.1</ele>
        <time>2012-12-28T11:33:19Z</time>
      </trkpt>
      <trkpt lat="44.04658" lon="7.00443">
        <ele>2098.1</ele>
        <time>2012-12-28T11:33:20Z</time>
      </trkpt>
      <trkpt lat="44.04658" lon="7.00443">
        <ele>2098.1</ele>
        <time>2012-12-28T11:33:21Z</time>
      </trkpt>
      <trkpt lat="44.04658" lon="7.00443">
        <ele>2098.1</ele>
        <time>2012-12-28T11:33:22Z</time>
      </trkpt>
      <trkpt lat="44.04658" lon="7.00443">
        <ele>2098.1</ele>
        <time>2012-12-28T11:33:23Z</time>
      </trkpt>
      <trkpt lat="44.04658" lon="7.00443">
        <ele>2098.1</ele>
        <time>2012-12-28T11:33:24Z</time>
      </trkpt>
      <trkpt lat="44.04658" lon="7.00443">
        <ele>2098.1</ele>
        <time>2012-12-28T11:33:25Z</time>
      </trkpt>
      <trkpt lat="44.04658" lon="7.00443">
        <ele>2098.1</ele>
        <time>2012-12-28T11:33:26Z</time>
      </trkpt>
      <trkpt lat="44.04658" lon="7.00443">
        <ele>2098.1</ele>
        <time>2012-12-28T11:33:27Z</time>
      </trkpt>
      <trkpt lat="44.04658" lon="7.00443">
        <ele>2098.1</ele>
        <time>2012-12-28T11:33:28Z</time>
      </trkpt>
      <trkpt lat="44.04658" lon="7.00443">
        <ele>2098.1</ele>
        <time>2012-12-28T11:33:29Z</time>
      </trkpt>
      <trkpt lat="44.04658" lon="7.00443">
        <ele>2098.1</ele>
        <time>2012-12-28T11:33:30Z</time>
      </trkpt>
      <trkpt lat="44.04658" lon="7.00443">
        <ele>2098.1</ele>
        <time>2012-12-28T11:33:31Z</time>
      </trkpt>
      <trkpt lat="44.04658" lon="7.00443">
        <ele>2098.1</ele>
        <time>2012-12-28T11:33:32Z</time>
      </trkpt>
      <trkpt lat="44.04658" lon="7.00443">
        <ele>2098.1</ele>
        <time>2012-12-28T11:33:33Z</time>
      </trkpt>
      <trkpt lat="44.04658" lon="7.00443">
        <ele>2098.1</ele>
        <time>2012-12-28T11:33:34Z</time>
      </trkpt>
      <trkpt lat="44.04658" lon="7.00443">
        <ele>2098.1</ele>
        <time>2012-12-28T11:33:35Z</time>
      </trkpt>
      <trkpt lat="44.04658" lon="7.00443">
        <ele>2098.1</ele>
        <time>2012-12-28T11:33:36Z</time>
      </trkpt>
      <trkpt lat="44.04658" lon="7.00443">
        <ele>2098.1</ele>
        <time>2012-12-28T11:33:37Z</time>
      </trkpt>
      <trkpt lat="44.04658" lon="7.00443">
        <ele>2098.1</ele>
        <time>2012-12-28T11:33:38Z</time>
      </trkpt>
      <trkpt lat="44.04658" lon="7.00443">
        <ele>2098.1</ele>
        <time>2012-12-28T11:33:39Z</time>
      </trkpt>
      <trkpt lat="44.04658" lon="7.00443">
        <ele>2098.1</ele>
        <time>2012-12-28T11:33:40Z</time>
      </trkpt>
      <trkpt lat="44.04658" lon="7.00443">
        <ele>2098.1</ele>
        <time>2012-12-28T11:33:41Z</time>
      </trkpt>
      <trkpt lat="44.04658" lon="7.00443">
        <ele>2098.1</ele>
        <time>2012-12-28T11:33:42Z</time>
      </trkpt>
      <trkpt lat="44.04658" lon="7.00443">
        <ele>2098.1</ele>
        <time>2012-12-28T11:33:43Z</time>
      </trkpt>
      <trkpt lat="44.04658" lon="7.00443">
        <ele>2098.1</ele>
        <time>2012-12-28T11:33:44Z</time>
      </trkpt>
      <trkpt lat="44.04658" lon="7.00443">
        <ele>2098.1</ele>
        <time>2012-12-28T11:33:45Z</time>
      </trkpt>
      <trkpt lat="44.04658" lon="7.00443">
        <ele>2098.1</ele>
        <time>2012-12-28T11:33:46Z</time>
      </trkpt>
      <trkpt lat="44.04658" lon="7.00443">
        <ele>2098.1</ele>
        <time>2012-12-28T11:33:47Z</time>
      </trkpt>
      <trkpt lat="44.04658" lon="7.00443">
        <ele>2098.1</ele>
        <time>2012-12-28T11:33:48Z</time>
      </trkpt>
      <trkpt lat="44.04658" lon="7.00443">
        <ele>2098.1</ele>
        <time>2012-12-28T11:33:49Z</time>
      </trkpt>
      <trkpt lat="44.04658" lon="7.00443">
        <ele>2098.1</ele>
        <time>2012-12-28T11:33:50Z</time>
      </trkpt>
      <trkpt lat="44.04658" lon="7.00443">
        <ele>2098.1</ele>
        <time>2012-12-28T11:33:51Z</time>
      </trkpt>
      <trkpt lat="44.04658" lon="7.00443">
        <ele>2098.1</ele>
        <time>2012-12-28T11:33:52Z</time>
      </trkpt>
      <trkpt lat="44.04658" lon="7.00443">
        <ele>2098.1</ele>
        <time>2012-12-28T11:33:53Z</time>
      </trkpt>
      <trkpt lat="44.04658" lon="7.00443">
        <ele>2098.1</ele>
        <time>2012-12-28T11:33:54Z</time>
      </trkpt>
      <trkpt lat="44.04658" lon="7.00443">
        <ele>2098.1</ele>
        <time>2012-12-28T11:33:55Z</time>
      </trkpt>
      <trkpt lat="44.04658" lon="7.00443">
        <ele>2098.1</ele>
        <time>2012-12-28T11:33:56Z</time>
      </trkpt>
      <trkpt lat="44.04658" lon="7.00443">
        <ele>2098.1</ele>
        <time>2012-12-28T11:33:57Z</time>
      </trkpt>
      <trkpt lat="44.04658" lon="7.00443">
        <ele>2098.1</ele>
        <time>2012-12-28T11:33:58Z</time>
      </trkpt>
      <trkpt lat="44.04658" lon="7.00443">
        <ele>2098.1</ele>
        <time>2012-12-28T11:33:59Z</time>
      </trkpt>
      <trkpt lat="44.04658" lon="7.00443">
        <ele>2098.1</ele>
        <time>2012-12-28T11:34:00Z</time>
      </trkpt>
      <trkpt lat="44.04658" lon="7.00443">
        <ele>2098.1</ele>
        <time>2012-12-28T11:34:01Z</time>
      </trkpt>
      <trkpt lat="44.04658" lon="7.00443">
        <ele>2098.1</ele>
        <time>2012-12-28T11:34:02Z</time>
      </trkpt>
      <trkpt lat="44.04658" lon="7.00443">
        <ele>2098.1</ele>
        <time>2012-12-28T11:34:03Z</time>
      </trkpt>
      <trkpt lat="44.04658" lon="7.00443">
        <ele>2098.1</ele>
        <time>2012-12-28T11:34:04Z</time>
      </trkpt>
      <trkpt lat="44.04658" lon="7.00443">
        <ele>2098.1</ele>
        <time>2012-12-28T11:34:05Z</time>
      </trkpt>
      <trkpt lat="44.04658" lon="7.00443">
        <ele>2098.1</ele>
        <time>2012-12-28T11:34:06Z</time>
      </trkpt>
      <trkpt lat="44.04658" lon="7.00443">
        <ele>2098.1</ele>
        <time>2012-12-28T11:34:07Z</time>
      </trkpt>
      <trkpt lat="44.04658" lon="7.00443">
        <ele>2098.1</ele>
        <time>2012-12-28T11:34:08Z</time>
      </trkpt>
      <trkpt lat="44.04658" lon="7.00443">
        <ele>2098.1</ele>
        <time>2012-12-28T11:34:09Z</time>
      </trkpt>
      <trkpt lat="44.04658" lon="7.00443">
        <ele>2098.1</ele>
        <time>2012-12-28T11:34:10Z</time>
      </trkpt>
      <trkpt lat="44.04658" lon="7.00443">
        <ele>2098.1</ele>
        <time>2012-12-28T11:34:11Z</time>
      </trkpt>
      <trkpt lat="44.04658" lon="7.00443">
        <ele>2098.1</ele>
        <time>2012-12-28T11:34:12Z</time>
      </trkpt>
      <trkpt lat="44.04658" lon="7.00443">
        <ele>2098.1</ele>
        <time>2012-12-28T11:34:13Z</time>
      </trkpt>
      <trkpt lat="44.04658" lon="7.00443">
        <ele>2098.1</ele>
        <time>2012-12-28T11:34:14Z</time>
      </trkpt>
      <trkpt lat="44.04658" lon="7.00443">
        <ele>2098.1</ele>
        <time>2012-12-28T11:34:15Z</time>
      </trkpt>
      <trkpt lat="44.04658" lon="7.00443">
        <ele>2098.1</ele>
        <time>2012-12-28T11:34:16Z</time>
      </trkpt>
      <trkpt lat="44.04658" lon="7.00443">
        <ele>2098.1</ele>
        <time>2012-12-28T11:34:17Z</time>
      </trkpt>
      <trkpt lat="44.04658" lon="7.00443">
        <ele>2098.1</ele>
        <time>2012-12-28T11:34:18Z</time>
      </trkpt>
      <trkpt lat="44.04658" lon="7.00443">
        <ele>2098.1</ele>
        <time>2012-12-28T11:34:19Z</time>
      </trkpt>
      <trkpt lat="44.04658" lon="7.00443">
        <ele>2098.1</ele>
        <time>2012-12-28T11:34:20Z</time>
      </trkpt>
      <trkpt lat="44.04658" lon="7.00443">
        <ele>2098.1</ele>
        <time>2012-12-28T11:34:21Z</time>
      </trkpt>
      <trkpt lat="44.04658" lon="7.00443">
        <ele>2098.1</ele>
        <time>2012-12-28T11:34:22Z</time>
      </trkpt>
      <trkpt lat="44.04658" lon="7.00443">
        <ele>2098.1</ele>
        <time>2012-12-28T11:34:22Z</time>
      </trkpt>
      <trkpt lat="44.04692" lon="7.00591">
        <ele>2066.2</ele>
        <time>2012-12-28T13:28:30Z</time>
      </trkpt>
      <trkpt lat="44.04692" lon="7.00591">
        <ele>2066.2</ele>
        <time>2012-12-28T13:28:31Z</time>
      </trkpt>
      <trkpt lat="44.04692" lon="7.00591">
        <ele>2066.2</ele>
        <time>2012-12-28T13:28:32Z</time>
      </trkpt>
      <trkpt lat="44.04692" lon="7.00591">
        <ele>2066.2</ele>
        <time>2012-12-28T13:28:33Z</time>
      </trkpt>
      <trkpt lat="44.04692" lon="7.00591">
        <ele>2066.2</ele>
        <time>2012-12-28T13:28:34Z</time>
      </trkpt>
      <trkpt lat="44.04692" lon="7.00591">
        <ele>2066.2</ele>
        <time>2012-12-28T13:28:35Z</time>
      </trkpt>
      <trkpt lat="44.04692" lon="7.00591">
        <ele>2066.2</ele>
        <time>2012-12-28T13:28:36Z</time>
      </trkpt>
      <trkpt lat="44.04692" lon="7.00591">
        <ele>2066.2</ele>
        <time>2012-12-28T13:28:37Z</time>
      </trkpt>
      <trkpt lat="44.04692" lon="7.00591">
        <ele>2066.2</ele>
        <time>2012-12-28T13:28:38Z</time>
      </trkpt>
      <trkpt lat="44.04692" lon="7.00591">
        <ele>2066.2</ele>
        <time>2012-12-28T13:28:39Z</time>
      </trkpt>
      <trkpt lat="44.04692" lon="7.00592">
        <ele>2065.6</ele>
        <time>2012-12-28T13:28:40Z</time>
      </trkpt>
      <trkpt lat="44.04692" lon="7.00592">
        <ele>2065.6</ele>
        <time>2012-12-28T13:28:41Z</time>
      </trkpt>
      <trkpt lat="44.04692" lon="7.00592">
        <ele>2065.6</ele>
        <time>2012-12-28T13:28:42Z</time>
      </trkpt>
      <trkpt lat="44.04692" lon="7.00592">
        <ele>2065.6</ele>
        <time>2012-12-28T13:28:43Z</time>
      </trkpt>
      <trkpt lat="44.04692" lon="7.00592">
        <ele>2065.6</ele>
        <time>2012-12-28T13:28:44Z</time>
      </trkpt>
      <trkpt lat="44.04692" lon="7.00592">
        <ele>2065.6</ele>
        <time>2012-12-28T13:28:45Z</time>
      </trkpt>
      <trkpt lat="44.04692" lon="7.00592">
        <ele>2065.6</ele>
        <time>2012-12-28T13:28:46Z</time>
      </trkpt>
      <trkpt lat="44.04692" lon="7.00592">
        <ele>2065.6</ele>
        <time>2012-12-28T13:28:47Z</time>
      </trkpt>
      <trkpt lat="44.04692" lon="7.00592">
        <ele>2065.6</ele>
        <time>2012-12-28T13:28:48Z</time>
      </trkpt>
      <trkpt lat="44.04692" lon="7.00591">
        <ele>2066.1</ele>
        <time>2012-12-28T13:28:49Z</time>
      </trkpt>
      <trkpt lat="44.04692" lon="7.00591">
        <ele>2066.1</ele>
        <time>2012-12-28T13:28:50Z</time>
      </trkpt>
      <trkpt lat="44.04692" lon="7.00591">
        <ele>2066.1</ele>
        <time>2012-12-28T13:28:51Z</time>
      </trkpt>
      <trkpt lat="44.04692" lon="7.0059">
        <ele>2067.9</ele>
        <time>2012-12-28T13:28:52Z</time>
      </trkpt>
      <trkpt lat="44.04692" lon="7.0059">
        <ele>2067.9</ele>
        <time>2012-12-28T13:28:53Z</time>
      </trkpt>
      <trkpt lat="44.04692" lon="7.0059">
        <ele>2067.9</ele>
        <time>2012-12-28T13:28:54Z</time>
      </trkpt>
      <trkpt lat="44.04692" lon="7.0059">
        <ele>2067.9</ele>
        <time>2012-12-28T13:28:55Z</time>
      </trkpt>
      <trkpt lat="44.04692" lon="7.0059">
        <ele>2067.9</ele>
        <time>2012-12-28T13:28:56Z</time>
      </trkpt>
      <trkpt lat="44.04692" lon="7.0059">
        <ele>2067.9</ele>
        <time>2012-12-28T13:28:57Z</time>
      </trkpt>
      <trkpt lat="44.04692" lon="7.0059">
        <ele>2067.9</ele>
        <time>2012-12-28T13:28:58Z</time>
      </trkpt>
      <trkpt lat="44.04692" lon="7.0059">
        <ele>2067.9</ele>
        <time>2012-12-28T13:28:59Z</time>
      </trkpt>
      <trkpt lat="44.04692" lon="7.0059">
        <ele>2067.9</ele>
        <time>2012-12-28T13:29:00Z</time>
      </trkpt>
      <trkpt lat="44.04692" lon="7.0059">
        <ele>2067.9</ele>
        <time>2012-12-28T13:29:01Z</time>
      </trkpt>
      <trkpt lat="44.04692" lon="7.0059">
        <ele>2067.9</ele>
        <time>2012-12-28T13:29:02Z</time>
      </trkpt>
      <trkpt lat="44.04692" lon="7.0059">
        <ele>2067.9</ele>
        <time>2012-12-28T13:29:03Z</time>
      </trkpt>
      <trkpt lat="44.04692" lon="7.0059">
        <ele>2067.9</ele>
        <time>2012-12-28T13:29:04Z</time>
      </trkpt>
      <trkpt lat="44.04692" lon="7.0059">
        <ele>2067.9</ele>
        <time>2012-12-28T13:29:05Z</time>
      </trkpt>
      <trkpt lat="44.04692" lon="7.0059">
        <ele>2067.9</ele>
        <time>2012-12-28T13:29:06Z</time>
      </trkpt>
      <trkpt lat="44.04692" lon="7.0059">
        <ele>2067.9</ele>
        <time>2012-12-28T13:29:07Z</time>
      </trkpt>
      <trkpt lat="44.04692" lon="7.0059">
        <ele>2067.9</ele>
        <time>2012-12-28T13:29:08Z</time>
      </trkpt>
      <trkpt lat="44.04692" lon="7.0059">
        <ele>2067.9</ele>
        <time>2012-12-28T13:29:09Z</time>
      </trkpt>
      <trkpt lat="44.04692" lon="7.0059">
        <ele>2067.9</ele>
        <time>2012-12-28T13:29:10Z</time>
      </trkpt>
      <trkpt lat="44.04692" lon="7.0059">
        <ele>2067.9</ele>
        <time>2012-12-28T13:29:11Z</time>
      </trkpt>
      <trkpt lat="44.04692" lon="7.0059">
        <ele>2067.9</ele>
        <time>2012-12-28T13:29:12Z</time>
      </trkpt>
      <trkpt lat="44.04692" lon="7.0059">
        <ele>2067.9</ele>
        <time>2012-12-28T13:29:13Z</time>
      </trkpt>
      <trkpt lat="44.04692" lon="7.0059">
        <ele>2067.9</ele>
        <time>2012-12-28T13:29:14Z</time>
      </trkpt>
      <trkpt lat="44.04692" lon="7.0059">
        <ele>2067.9</ele>
        <time>2012-12-28T13:29:15Z</time>
      </trkpt>
      <trkpt lat="44.04692" lon="7.0059">
        <ele>2067.9</ele>
        <time>2012-12-28T13:29:16Z</time>
      </trkpt>
      <trkpt lat="44.04692" lon="7.0059">
        <ele>2067.9</ele>
        <time>2012-12-28T13:29:17Z</time>
      </trkpt>
      <trkpt lat="44.04692" lon="7.0059">
        <ele>2067.9</ele>
        <time>2012-12-28T13:29:18Z</time>
      </trkpt>
      <trkpt lat="44.04692" lon="7.0059">
        <ele>2067.9</ele>
        <time>2012-12-28T13:29:19Z</time>
      </trkpt>
      <trkpt lat="44.04692" lon="7.0059">
        <ele>2067.9</ele>
        <time>2012-12-28T13:29:20Z</time>
      </trkpt>
      <trkpt lat="44.04692" lon="7.0059">
        <ele>2067.9</ele>
        <time>2012-12-28T13:29:21Z</time>
      </trkpt>
      <trkpt lat="44.04692" lon="7.0059">
        <ele>2067.9</ele>
        <time>2012-12-28T13:29:22Z</time>
      </trkpt>
      <trkpt lat="44.04692" lon="7.0059">
        <ele>2067.9</ele>
        <time>2012-12-28T13:29:23Z</time>
      </trkpt>
      <trkpt lat="44.04692" lon="7.0059">
        <ele>2067.9</ele>
        <time>2012-12-28T13:29:24Z</time>
      </trkpt>
      <trkpt lat="44.04692" lon="7.0059">
        <ele>2067.9</ele>
        <time>2012-12-28T13:29:25Z</time>
      </trkpt>
      <trkpt lat="44.04692" lon="7.0059">
        <ele>2067.9</ele>
        <time>2012-12-28T13:29:26Z</time>
      </trkpt>
      <trkpt lat="44.04692" lon="7.0059">
        <ele>2067.9</ele>
        <time>2012-12-28T13:29:27Z</time>
      </trkpt>
      <trkpt lat="44.04692" lon="7.0059">
        <ele>2067.9</ele>
        <time>2012-12-28T13:29:28Z</time>
      </trkpt>
      <trkpt lat="44.04692" lon="7.0059">
        <ele>2067.9</ele>
        <time>2012-12-28T13:29:29Z</time>
      </trkpt>
      <trkpt lat="44.04692" lon="7.0059">
        <ele>2067.9</ele>
        <time>2012-12-28T13:29:30Z</time>
      </trkpt>
      <trkpt lat="44.04692" lon="7.0059">
        <ele>2067.9</ele>
        <time>2012-12-28T13:29:31Z</time>
      </trkpt>
      <trkpt lat="44.04692" lon="7.0059">
        <ele>2067.9</ele>
        <time>2012-12-28T13:29:32Z</time>
      </trkpt>
      <trkpt lat="44.04692" lon="7.0059">
        <ele>2067.9</ele>
        <time>2012-12-28T13:29:33Z</time>
      </trkpt>
      <trkpt lat="44.04692" lon="7.0059">
        <ele>2067.9</ele>
        <time>2012-12-28T13:29:34Z</time>
      </trkpt>
      <trkpt lat="44.04692" lon="7.0059">
        <ele>2067.9</ele>
        <time>2012-12-28T13:29:35Z</time>
      </trkpt>
      <trkpt lat="44.04691" lon="7.00591">
        <ele>2068.3</ele>
        <time>2012-12-28T13:29:36Z</time>
      </trkpt>
      <trkpt lat="44.04691" lon="7.00591">
        <ele>2068.3</ele>
        <time>2012-12-28T13:29:37Z</time>
      </trkpt>
      <trkpt lat="44.04691" lon="7.00591">
        <ele>2068.3</ele>
        <time>2012-12-28T13:29:38Z</time>
      </trkpt>
      <trkpt lat="44.04691" lon="7.00591">
        <ele>2068.3</ele>
        <time>2012-12-28T13:29:39Z</time>
      </trkpt>
      <trkpt lat="44.04691" lon="7.00591">
        <ele>2068.3</ele>
        <time>2012-12-28T13:29:40Z</time>
      </trkpt>
      <trkpt lat="44.04691" lon="7.00591">
        <ele>2068.3</ele>
        <time>2012-12-28T13:29:41Z</time>
      </trkpt>
      <trkpt lat="44.04691" lon="7.00591">
        <ele>2068.3</ele>
        <time>2012-12-28T13:29:42Z</time>
      </trkpt>
      <trkpt lat="44.04691" lon="7.00591">
        <ele>2068.3</ele>
        <time>2012-12-28T13:29:43Z</time>
      </trkpt>
      <trkpt lat="44.04691" lon="7.00591">
        <ele>2068.3</ele>
        <time>2012-12-28T13:29:44Z</time>
      </trkpt>
      <trkpt lat="44.04691" lon="7.00591">
        <ele>2068.3</ele>
        <time>2012-12-28T13:29:45Z</time>
      </trkpt>
      <trkpt lat="44.04691" lon="7.00591">
        <ele>2068.3</ele>
        <time>2012-12-28T13:29:46Z</time>
      </trkpt>
      <trkpt lat="44.04691" lon="7.00591">
        <ele>2068.3</ele>
        <time>2012-12-28T13:29:47Z</time>
      </trkpt>
      <trkpt lat="44.04691" lon="7.00591">
        <ele>2068.3</ele>
        <time>2012-12-28T13:29:48Z</time>
      </trkpt>
      <trkpt lat="44.04691" lon="7.0059">
        <ele>2068.7</ele>
        <time>2012-12-28T13:29:49Z</time>
      </trkpt>
      <trkpt lat="44.04691" lon="7.0059">
        <ele>2068.7</ele>
        <time>2012-12-28T13:29:50Z</time>
      </trkpt>
      <trkpt lat="44.04691" lon="7.0059">
        <ele>2068.7</ele>
        <time>2012-12-28T13:29:51Z</time>
      </trkpt>
      <trkpt lat="44.04691" lon="7.0059">
        <ele>2068.7</ele>
        <time>2012-12-28T13:29:52Z</time>
      </trkpt>
      <trkpt lat="44.04691" lon="7.0059">
        <ele>2068.7</ele>
        <time>2012-12-28T13:29:53Z</time>
      </trkpt>
      <trkpt lat="44.04691" lon="7.0059">
        <ele>2068.7</ele>
        <time>2012-12-28T13:29:54Z</time>
      </trkpt>
      <trkpt lat="44.04691" lon="7.0059">
        <ele>2068.7</ele>
        <time>2012-12-28T13:29:55Z</time>
      </trkpt>
      <trkpt lat="44.04691" lon="7.0059">
        <ele>2068.7</ele>
        <time>2012-12-28T13:29:56Z</time>
      </trkpt>
      <trkpt lat="44.04691" lon="7.0059">
        <ele>2068.7</ele>
        <time>2012-12-28T13:29:57Z</time>
      </trkpt>
      <trkpt lat="44.04691" lon="7.0059">
        <ele>2068.7</ele>
        <time>2012-12-28T13:29:58Z</time>
      </trkpt>
      <trkpt lat="44.04691" lon="7.0059">
        <ele>2068.7</ele>
        <time>2012-12-28T13:29:59Z</time>
      </trkpt>
      <trkpt lat="44.04691" lon="7.0059">
        <ele>2068.7</ele>
        <time>2012-12-28T13:30:00Z</time>
      </trkpt>
      <trkpt lat="44.04691" lon="7.0059">
        <ele>2068.7</ele>
        <time>2012-12-28T13:30:01Z</time>
      </trkpt>
      <trkpt lat="44.04691" lon="7.0059">
        <ele>2068.7</ele>
        <time>2012-12-28T13:30:02Z</time>
      </trkpt>
      <trkpt lat="44.04691" lon="7.0059">
        <ele>2068.7</ele>
        <time>2012-12-28T13:30:03Z</time>
      </trkpt>
      <trkpt lat="44.04691" lon="7.0059">
        <ele>2068.7</ele>
        <time>2012-12-28T13:30:04Z</time>
      </trkpt>
      <trkpt lat="44.04691" lon="7.0059">
        <ele>2068.7</ele>
        <time>2012-12-28T13:30:05Z</time>
      </trkpt>
      <trkpt lat="44.04691" lon="7.0059">
        <ele>2068.7</ele>
        <time>2012-12-28T13:30:06Z</time>
      </trkpt>
      <trkpt lat="44.04691" lon="7.0059">
        <ele>2068.7</ele>
        <time>2012-12-28T13:30:07Z</time>
      </trkpt>
      <trkpt lat="44.04691" lon="7.0059">
        <ele>2068.7</ele>
        <time>2012-12-28T13:30:08Z</time>
      </trkpt>
      <trkpt lat="44.04691" lon="7.0059">
        <ele>2068.7</ele>
        <time>2012-12-28T13:30:09Z</time>
      </trkpt>
      <trkpt lat="44.04691" lon="7.0059">
        <ele>2068.7</ele>
        <time>2012-12-28T13:30:10Z</time>
      </trkpt>
      <trkpt lat="44.04691" lon="7.0059">
        <ele>2068.7</ele>
        <time>2012-12-28T13:30:11Z</time>
      </trkpt>
      <trkpt lat="44.04691" lon="7.0059">
        <ele>2068.7</ele>
        <time>2012-12-28T13:30:12Z</time>
      </trkpt>
      <trkpt lat="44.04691" lon="7.0059">
        <ele>2068.7</ele>
        <time>2012-12-28T13:30:13Z</time>
      </trkpt>
      <trkpt lat="44.04691" lon="7.00591">
        <ele>2068.6</ele>
        <time>2012-12-28T13:30:14Z</time>
      </trkpt>
      <trkpt lat="44.04691" lon="7.00591">
        <ele>2069.5</ele>
        <time>2012-12-28T13:30:15Z</time>
      </trkpt>
      <trkpt lat="44.04691" lon="7.00591">
        <ele>2069.5</ele>
        <time>2012-12-28T13:30:16Z</time>
      </trkpt>
      <trkpt lat="44.04691" lon="7.00591">
        <ele>2069.5</ele>
        <time>2012-12-28T13:30:17Z</time>
      </trkpt>
      <trkpt lat="44.04691" lon="7.00591">
        <ele>2069.5</ele>
        <time>2012-12-28T13:30:18Z</time>
      </trkpt>
      <trkpt lat="44.04691" lon="7.00591">
        <ele>2069.5</ele>
        <time>2012-12-28T13:30:19Z</time>
      </trkpt>
      <trkpt lat="44.04691" lon="7.00591">
        <ele>2069.5</ele>
        <time>2012-12-28T13:30:20Z</time>
      </trkpt>
      <trkpt lat="44.04691" lon="7.00591">
        <ele>2069.5</ele>
        <time>2012-12-28T13:30:21Z</time>
      </trkpt>
      <trkpt lat="44.04691" lon="7.00591">
        <ele>2069.5</ele>
        <time>2012-12-28T13:30:22Z</time>
      </trkpt>
      <trkpt lat="44.04691" lon="7.00591">
        <ele>2069.5</ele>
        <time>2012-12-28T13:30:23Z</time>
      </trkpt>
      <trkpt lat="44.04692" lon="7.00592">
        <ele>2069.6</ele>
        <time>2012-12-28T13:30:24Z</time>
      </trkpt>
      <trkpt lat="44.04692" lon="7.00593">
        <ele>2069.8</ele>
        <time>2012-12-28T13:30:25Z</time>
      </trkpt>
      <trkpt lat="44.04692" lon="7.00594">
        <ele>2070.2</ele>
        <time>2012-12-28T13:30:26Z</time>
      </trkpt>
      <trkpt lat="44.04692" lon="7.00594">
        <ele>2070.1</ele>
        <time>2012-12-28T13:30:27Z</time>
      </trkpt>
      <trkpt lat="44.04692" lon="7.00594">
        <ele>2070.1</ele>
        <time>2012-12-28T13:30:28Z</time>
      </trkpt>
      <trkpt lat="44.04692" lon="7.00595">
        <ele>2070.3</ele>
        <time>2012-12-28T13:30:29Z</time>
      </trkpt>
      <trkpt lat="44.04692" lon="7.00595">
        <ele>2070.3</ele>
        <time>2012-12-28T13:30:30Z</time>
      </trkpt>
      <trkpt lat="44.04692" lon="7.00595">
        <ele>2070.5</ele>
        <time>2012-12-28T13:30:31Z</time>
      </trkpt>
      <trkpt lat="44.04693" lon="7.00596">
        <ele>2071.2</ele>
        <time>2012-12-28T13:30:32Z</time>
      </trkpt>
      <trkpt lat="44.04693" lon="7.00597">
        <ele>2071.3</ele>
        <time>2012-12-28T13:30:33Z</time>
      </trkpt>
      <trkpt lat="44.04693" lon="7.00598">
        <ele>2071.3</ele>
        <time>2012-12-28T13:30:34Z</time>
      </trkpt>
      <trkpt lat="44.04694" lon="7.00599">
        <ele>2070.8</ele>
        <time>2012-12-28T13:30:35Z</time>
      </trkpt>
      <trkpt lat="44.04695" lon="7.006">
        <ele>2070.6</ele>
        <time>2012-12-28T13:30:40Z</time>
      </trkpt>
      <trkpt lat="44.04695" lon="7.00601">
        <ele>2070.5</ele>
        <time>2012-12-28T13:30:41Z</time>
      </trkpt>
      <trkpt lat="44.04696" lon="7.00603">
        <ele>2070.4</ele>
        <time>2012-12-28T13:30:43Z</time>
      </trkpt>
      <trkpt lat="44.04696" lon="7.00604">
        <ele>2070.4</ele>
        <time>2012-12-28T13:30:44Z</time>
      </trkpt>
      <trkpt lat="44.04697" lon="7.00604">
        <ele>2070.5</ele>
        <time>2012-12-28T13:30:45Z</time>
      </trkpt>
      <trkpt lat="44.04699" lon="7.0061">
        <ele>2069.9</ele>
        <time>2012-12-28T13:30:56Z</time>
      </trkpt>
      <trkpt lat="44.047" lon="7.00611">
        <ele>2070</ele>
        <time>2012-12-28T13:30:57Z</time>
      </trkpt>
      <trkpt lat="44.047" lon="7.00612">
        <ele>2070.2</ele>
        <time>2012-12-28T13:30:58Z</time>
      </trkpt>
      <trkpt lat="44.04701" lon="7.00613">
        <ele>2070.4</ele>
        <time>2012-12-28T13:30:59Z</time>
      </trkpt>
      <trkpt lat="44.04701" lon="7.00614">
        <ele>2070.6</ele>
        <time>2012-12-28T13:31:00Z</time>
      </trkpt>
      <trkpt lat="44.04701" lon="7.00614">
        <ele>2070.6</ele>
        <time>2012-12-28T13:31:01Z</time>
      </trkpt>
      <trkpt lat="44.04702" lon="7.00614">
        <ele>2070.2</ele>
        <time>2012-12-28T13:31:02Z</time>
      </trkpt>
      <trkpt lat="44.04704" lon="7.00618">
        <ele>2070.2</ele>
        <time>2012-12-28T13:31:10Z</time>
      </trkpt>
      <trkpt lat="44.04704" lon="7.00618">
        <ele>2070.2</ele>
        <time>2012-12-28T13:31:11Z</time>
      </trkpt>
      <trkpt lat="44.04705" lon="7.00618">
        <ele>2070.1</ele>
        <time>2012-12-28T13:31:12Z</time>
      </trkpt>
      <trkpt lat="44.04715" lon="7.00635">
        <ele>2065.1</ele>
        <time>2012-12-28T13:31:43Z</time>
      </trkpt>
      <trkpt lat="44.04716" lon="7.00636">
        <ele>2064.8</ele>
        <time>2012-12-28T13:31:44Z</time>
      </trkpt>
      <trkpt lat="44.04717" lon="7.0064">
        <ele>2064.3</ele>
        <time>2012-12-28T13:31:47Z</time>
      </trkpt>
      <trkpt lat="44.04717" lon="7.00642">
        <ele>2063.9</ele>
        <time>2012-12-28T13:31:48Z</time>
      </trkpt>
      <trkpt lat="44.04719" lon="7.00647">
        <ele>2063.6</ele>
        <time>2012-12-28T13:31:54Z</time>
      </trkpt>
      <trkpt lat="44.04719" lon="7.00652">
        <ele>2063.2</ele>
        <time>2012-12-28T13:31:57Z</time>
      </trkpt>
      <trkpt lat="44.04719" lon="7.00654">
        <ele>2063.1</ele>
        <time>2012-12-28T13:31:59Z</time>
      </trkpt>
      <trkpt lat="44.04719" lon="7.00656">
        <ele>2062.9</ele>
        <time>2012-12-28T13:32:00Z</time>
      </trkpt>
      <trkpt lat="44.04719" lon="7.00657">
        <ele>2063.1</ele>
        <time>2012-12-28T13:32:01Z</time>
      </trkpt>
      <trkpt lat="44.0472" lon="7.0066">
        <ele>2062.9</ele>
        <time>2012-12-28T13:32:03Z</time>
      </trkpt>
      <trkpt lat="44.0472" lon="7.00661">
        <ele>2063.2</ele>
        <time>2012-12-28T13:32:04Z</time>
      </trkpt>
      <trkpt lat="44.0472" lon="7.00662">
        <ele>2062.8</ele>
        <time>2012-12-28T13:32:05Z</time>
      </trkpt>
      <trkpt lat="44.04721" lon="7.00669">
        <ele>2062</ele>
        <time>2012-12-28T13:32:12Z</time>
      </trkpt>
      <trkpt lat="44.04721" lon="7.0067">
        <ele>2061.7</ele>
        <time>2012-12-28T13:32:13Z</time>
      </trkpt>
      <trkpt lat="44.04722" lon="7.00672">
        <ele>2061.9</ele>
        <time>2012-12-28T13:32:14Z</time>
      </trkpt>
      <trkpt lat="44.04724" lon="7.00678">
        <ele>2060.5</ele>
        <time>2012-12-28T13:32:19Z</time>
      </trkpt>
      <trkpt lat="44.04724" lon="7.00679">
        <ele>2060.4</ele>
        <time>2012-12-28T13:32:20Z</time>
      </trkpt>
      <trkpt lat="44.04725" lon="7.0068">
        <ele>2059.7</ele>
        <time>2012-12-28T13:32:21Z</time>
      </trkpt>
      <trkpt lat="44.04725" lon="7.00681">
        <ele>2059.6</ele>
        <time>2012-12-28T13:32:22Z</time>
      </trkpt>
      <trkpt lat="44.04729" lon="7.00692">
        <ele>2057</ele>
        <time>2012-12-28T13:32:37Z</time>
      </trkpt>
      <trkpt lat="44.04729" lon="7.00695">
        <ele>2056.8</ele>
        <time>2012-12-28T13:32:40Z</time>
      </trkpt>
      <trkpt lat="44.0473" lon="7.00699">
        <ele>2056.3</ele>
        <time>2012-12-28T13:32:44Z</time>
      </trkpt>
      <trkpt lat="44.0473" lon="7.007">
        <ele>2056.5</ele>
        <time>2012-12-28T13:32:45Z</time>
      </trkpt>
      <trkpt lat="44.0473" lon="7.00701">
        <ele>2056.5</ele>
        <time>2012-12-28T13:32:46Z</time>
      </trkpt>
      <trkpt lat="44.04731" lon="7.00708">
        <ele>2054.8</ele>
        <time>2012-12-28T13:32:53Z</time>
      </trkpt>
      <trkpt lat="44.04731" lon="7.00709">
        <ele>2054.9</ele>
        <time>2012-12-28T13:32:54Z</time>
      </trkpt>
      <trkpt lat="44.04731" lon="7.00715">
        <ele>2054.8</ele>
        <time>2012-12-28T13:32:59Z</time>
      </trkpt>
      <trkpt lat="44.04731" lon="7.00716">
        <ele>2054.7</ele>
        <time>2012-12-28T13:33:00Z</time>
      </trkpt>
      <trkpt lat="44.04731" lon="7.00718">
        <ele>2054.6</ele>
        <time>2012-12-28T13:33:01Z</time>
      </trkpt>
      <trkpt lat="44.04733" lon="7.00726">
        <ele>2054.2</ele>
        <time>2012-12-28T13:33:08Z</time>
      </trkpt>
      <trkpt lat="44.04733" lon="7.00727">
        <ele>2054.1</ele>
        <time>2012-12-28T13:33:09Z</time>
      </trkpt>
      <trkpt lat="44.04738" lon="7.0073">
        <ele>2053.1</ele>
        <time>2012-12-28T13:33:19Z</time>
      </trkpt>
      <trkpt lat="44.04738" lon="7.00731">
        <ele>2053</ele>
        <time>2012-12-28T13:33:20Z</time>
      </trkpt>
      <trkpt lat="44.04739" lon="7.00733">
        <ele>2052.9</ele>
        <time>2012-12-28T13:33:21Z</time>
      </trkpt>
      <trkpt lat="44.04739" lon="7.00734">
        <ele>2052.7</ele>
        <time>2012-12-28T13:33:22Z</time>
      </trkpt>
      <trkpt lat="44.0474" lon="7.00736">
        <ele>2052.8</ele>
        <time>2012-12-28T13:33:23Z</time>
      </trkpt>
      <trkpt lat="44.04741" lon="7.00741">
        <ele>2051.5</ele>
        <time>2012-12-28T13:33:27Z</time>
      </trkpt>
      <trkpt lat="44.04741" lon="7.00742">
        <ele>2051.3</ele>
        <time>2012-12-28T13:33:28Z</time>
      </trkpt>
      <trkpt lat="44.04743" lon="7.00751">
        <ele>2050.8</ele>
        <time>2012-12-28T13:33:39Z</time>
      </trkpt>
      <trkpt lat="44.04743" lon="7.00751">
        <ele>2050.8</ele>
        <time>2012-12-28T13:33:40Z</time>
      </trkpt>
      <trkpt lat="44.04743" lon="7.00751">
        <ele>2050.9</ele>
        <time>2012-12-28T13:33:41Z</time>
      </trkpt>
      <trkpt lat="44.04743" lon="7.00752">
        <ele>2050.9</ele>
        <time>2012-12-28T13:33:42Z</time>
      </trkpt>
      <trkpt lat="44.04743" lon="7.00753">
        <ele>2050.2</ele>
        <time>2012-12-28T13:33:43Z</time>
      </trkpt>
      <trkpt lat="44.04744" lon="7.00754">
        <ele>2049.8</ele>
        <time>2012-12-28T13:33:44Z</time>
      </trkpt>
      <trkpt lat="44.04748" lon="7.00753">
        <ele>2049.2</ele>
        <time>2012-12-28T13:33:58Z</time>
      </trkpt>
      <trkpt lat="44.04749" lon="7.00753">
        <ele>2048.3</ele>
        <time>2012-12-28T13:33:59Z</time>
      </trkpt>
      <trkpt lat="44.04749" lon="7.00752">
        <ele>2048.5</ele>
        <time>2012-12-28T13:34:00Z</time>
      </trkpt>
      <trkpt lat="44.04751" lon="7.0075">
        <ele>2048.8</ele>
        <time>2012-12-28T13:34:10Z</time>
      </trkpt>
      <trkpt lat="44.04752" lon="7.00749">
        <ele>2048.6</ele>
        <time>2012-12-28T13:34:11Z</time>
      </trkpt>
      <trkpt lat="44.04753" lon="7.00748">
        <ele>2048.1</ele>
        <time>2012-12-28T13:34:12Z</time>
      </trkpt>
      <trkpt lat="44.04754" lon="7.00748">
        <ele>2048.4</ele>
        <time>2012-12-28T13:34:13Z</time>
      </trkpt>
      <trkpt lat="44.04754" lon="7.00747">
        <ele>2048.4</ele>
        <time>2012-12-28T13:34:14Z</time>
      </trkpt>
      <trkpt lat="44.04755" lon="7.00746">
        <ele>2049.1</ele>
        <time>2012-12-28T13:34:15Z</time>
      </trkpt>
      <trkpt lat="44.04755" lon="7.00746">
        <ele>2049.4</ele>
        <time>2012-12-28T13:34:16Z</time>
      </trkpt>
      <trkpt lat="44.0476" lon="7.00739">
        <ele>2050.1</ele>
        <time>2012-12-28T13:34:24Z</time>
      </trkpt>
      <trkpt lat="44.04764" lon="7.00734">
        <ele>2050.2</ele>
        <time>2012-12-28T13:34:36Z</time>
      </trkpt>
      <trkpt lat="44.04771" lon="7.00729">
        <ele>2048.6</ele>
        <time>2012-12-28T13:34:47Z</time>
      </trkpt>
      <trkpt lat="44.04771" lon="7.00729">
        <ele>2048.6</ele>
        <time>2012-12-28T13:34:48Z</time>
      </trkpt>
      <trkpt lat="44.04771" lon="7.00728">
        <ele>2048.5</ele>
        <time>2012-12-28T13:34:49Z</time>
      </trkpt>
      <trkpt lat="44.04772" lon="7.00727">
        <ele>2048.4</ele>
        <time>2012-12-28T13:34:50Z</time>
      </trkpt>
      <trkpt lat="44.04785" lon="7.0073">
        <ele>2043.2</ele>
        <time>2012-12-28T13:35:11Z</time>
      </trkpt>
      <trkpt lat="44.04785" lon="7.00732">
        <ele>2042.9</ele>
        <time>2012-12-28T13:35:12Z</time>
      </trkpt>
      <trkpt lat="44.04786" lon="7.00732">
        <ele>2042.6</ele>
        <time>2012-12-28T13:35:13Z</time>
      </trkpt>
      <trkpt lat="44.04787" lon="7.00733">
        <ele>2042.5</ele>
        <time>2012-12-28T13:35:14Z</time>
      </trkpt>
      <trkpt lat="44.04787" lon="7.00735">
        <ele>2041.8</ele>
        <time>2012-12-28T13:35:16Z</time>
      </trkpt>
      <trkpt lat="44.04788" lon="7.00736">
        <ele>2041.4</ele>
        <time>2012-12-28T13:35:17Z</time>
      </trkpt>
      <trkpt lat="44.04794" lon="7.00746">
        <ele>2038.9</ele>
        <time>2012-12-28T13:35:34Z</time>
      </trkpt>
      <trkpt lat="44.04795" lon="7.00746">
        <ele>2038.6</ele>
        <time>2012-12-28T13:35:35Z</time>
      </trkpt>
      <trkpt lat="44.04797" lon="7.00744">
        <ele>2037.8</ele>
        <time>2012-12-28T13:35:38Z</time>
      </trkpt>
      <trkpt lat="44.04798" lon="7.00743">
        <ele>2037.9</ele>
        <time>2012-12-28T13:35:39Z</time>
      </trkpt>
      <trkpt lat="44.04799" lon="7.00741">
        <ele>2038.1</ele>
        <time>2012-12-28T13:35:41Z</time>
      </trkpt>
      <trkpt lat="44.04802" lon="7.00731">
        <ele>2039</ele>
        <time>2012-12-28T13:35:55Z</time>
      </trkpt>
      <trkpt lat="44.04803" lon="7.0073">
        <ele>2039.1</ele>
        <time>2012-12-28T13:35:56Z</time>
      </trkpt>
      <trkpt lat="44.04803" lon="7.00728">
        <ele>2039.2</ele>
        <time>2012-12-28T13:35:57Z</time>
      </trkpt>
      <trkpt lat="44.0481" lon="7.00728">
        <ele>2035.8</ele>
        <time>2012-12-28T13:36:20Z</time>
      </trkpt>
      <trkpt lat="44.04812" lon="7.00729">
        <ele>2035.5</ele>
        <time>2012-12-28T13:36:21Z</time>
      </trkpt>
      <trkpt lat="44.04812" lon="7.00729">
        <ele>2035.5</ele>
        <time>2012-12-28T13:36:22Z</time>
      </trkpt>
      <trkpt lat="44.04812" lon="7.00729">
        <ele>2035.1</ele>
        <time>2012-12-28T13:36:23Z</time>
      </trkpt>
      <trkpt lat="44.04812" lon="7.00729">
        <ele>2035.1</ele>
        <time>2012-12-28T13:36:24Z</time>
      </trkpt>
      <trkpt lat="44.04813" lon="7.0073">
        <ele>2035.2</ele>
        <time>2012-12-28T13:36:25Z</time>
      </trkpt>
      <trkpt lat="44.04814" lon="7.0073">
        <ele>2034.8</ele>
        <time>2012-12-28T13:36:26Z</time>
      </trkpt>
      <trkpt lat="44.04815" lon="7.00731">
        <ele>2034.6</ele>
        <time>2012-12-28T13:36:28Z</time>
      </trkpt>
      <trkpt lat="44.04824" lon="7.00737">
        <ele>2031.7</ele>
        <time>2012-12-28T13:36:37Z</time>
      </trkpt>
      <trkpt lat="44.04826" lon="7.00739">
        <ele>2031</ele>
        <time>2012-12-28T13:36:38Z</time>
      </trkpt>
      <trkpt lat="44.04835" lon="7.00743">
        <ele>2027.2</ele>
        <time>2012-12-28T13:36:52Z</time>
      </trkpt>
      <trkpt lat="44.04837" lon="7.00742">
        <ele>2027</ele>
        <time>2012-12-28T13:36:53Z</time>
      </trkpt>
      <trkpt lat="44.04838" lon="7.00742">
        <ele>2026.6</ele>
        <time>2012-12-28T13:36:54Z</time>
      </trkpt>
      <trkpt lat="44.0484" lon="7.00742">
        <ele>2026.7</ele>
        <time>2012-12-28T13:36:57Z</time>
      </trkpt>
      <trkpt lat="44.04855" lon="7.00738">
        <ele>2026.1</ele>
        <time>2012-12-28T13:37:14Z</time>
      </trkpt>
      <trkpt lat="44.04855" lon="7.00738">
        <ele>2026.1</ele>
        <time>2012-12-28T13:37:15Z</time>
      </trkpt>
      <trkpt lat="44.04855" lon="7.00738">
        <ele>2026.1</ele>
        <time>2012-12-28T13:37:16Z</time>
      </trkpt>
      <trkpt lat="44.04855" lon="7.00738">
        <ele>2026.3</ele>
        <time>2012-12-28T13:37:17Z</time>
      </trkpt>
      <trkpt lat="44.04856" lon="7.00737">
        <ele>2026.5</ele>
        <time>2012-12-28T13:37:18Z</time>
      </trkpt>
      <trkpt lat="44.04865" lon="7.00737">
        <ele>2024</ele>
        <time>2012-12-28T13:37:27Z</time>
      </trkpt>
      <trkpt lat="44.04866" lon="7.00737">
        <ele>2023.9</ele>
        <time>2012-12-28T13:37:28Z</time>
      </trkpt>
      <trkpt lat="44.04866" lon="7.00737">
        <ele>2023.5</ele>
        <time>2012-12-28T13:37:29Z</time>
      </trkpt>
      <trkpt lat="44.04868" lon="7.00737">
        <ele>2023.4</ele>
        <time>2012-12-28T13:37:30Z</time>
      </trkpt>
      <trkpt lat="44.04872" lon="7.00738">
        <ele>2021.5</ele>
        <time>2012-12-28T13:37:35Z</time>
      </trkpt>
      <trkpt lat="44.04873" lon="7.00739">
        <ele>2020.7</ele>
        <time>2012-12-28T13:37:36Z</time>
      </trkpt>
      <trkpt lat="44.04874" lon="7.0074">
        <ele>2020.3</ele>
        <time>2012-12-28T13:37:37Z</time>
      </trkpt>
      <trkpt lat="44.04875" lon="7.00741">
        <ele>2019.5</ele>
        <time>2012-12-28T13:37:38Z</time>
      </trkpt>
      <trkpt lat="44.04875" lon="7.00741">
        <ele>2019.5</ele>
        <time>2012-12-28T13:37:42Z</time>
      </trkpt>
      <trkpt lat="44.04887" lon="7.00749">
        <ele>2015.5</ele>
        <time>2012-12-28T13:37:56Z</time>
      </trkpt>
      <trkpt lat="44.04889" lon="7.0075">
        <ele>2015.1</ele>
        <time>2012-12-28T13:37:57Z</time>
      </trkpt>
      <trkpt lat="44.04891" lon="7.00751">
        <ele>2014.9</ele>
        <time>2012-12-28T13:37:59Z</time>
      </trkpt>
      <trkpt lat="44.04897" lon="7.00752">
        <ele>2014</ele>
        <time>2012-12-28T13:38:06Z</time>
      </trkpt>
      <trkpt lat="44.04898" lon="7.00751">
        <ele>2014.1</ele>
        <time>2012-12-28T13:38:07Z</time>
      </trkpt>
      <trkpt lat="44.04899" lon="7.0075">
        <ele>2014.2</ele>
        <time>2012-12-28T13:38:08Z</time>
      </trkpt>
      <trkpt lat="44.049" lon="7.00749">
        <ele>2014</ele>
        <time>2012-12-28T13:38:09Z</time>
      </trkpt>
      <trkpt lat="44.04901" lon="7.00749">
        <ele>2013.5</ele>
        <time>2012-12-28T13:38:10Z</time>
      </trkpt>
      <trkpt lat="44.04902" lon="7.00749">
        <ele>2013.3</ele>
        <time>2012-12-28T13:38:11Z</time>
      </trkpt>
      <trkpt lat="44.04903" lon="7.00748">
        <ele>2013.2</ele>
        <time>2012-12-28T13:38:12Z</time>
      </trkpt>
      <trkpt lat="44.04904" lon="7.00748">
        <ele>2013</ele>
        <time>2012-12-28T13:38:13Z</time>
      </trkpt>
      <trkpt lat="44.04904" lon="7.00748">
        <ele>2012.5</ele>
        <time>2012-12-28T13:38:14Z</time>
      </trkpt>
      <trkpt lat="44.04905" lon="7.00748">
        <ele>2011.8</ele>
        <time>2012-12-28T13:38:15Z</time>
      </trkpt>
      <trkpt lat="44.04906" lon="7.00749">
        <ele>2011.7</ele>
        <time>2012-12-28T13:38:16Z</time>
      </trkpt>
      <trkpt lat="44.04906" lon="7.00749">
        <ele>2011.7</ele>
        <time>2012-12-28T13:38:17Z</time>
      </trkpt>
      <trkpt lat="44.04906" lon="7.00748">
        <ele>2011.5</ele>
        <time>2012-12-28T13:38:18Z</time>
      </trkpt>
      <trkpt lat="44.04918" lon="7.00751">
        <ele>2011</ele>
        <time>2012-12-28T13:38:36Z</time>
      </trkpt>
      <trkpt lat="44.04919" lon="7.00751">
        <ele>2011</ele>
        <time>2012-12-28T13:38:37Z</time>
      </trkpt>
      <trkpt lat="44.04919" lon="7.0075">
        <ele>2011.1</ele>
        <time>2012-12-28T13:38:38Z</time>
      </trkpt>
      <trkpt lat="44.05002" lon="7.00777">
        <ele>2019.4</ele>
        <time>2012-12-28T13:43:19Z</time>
      </trkpt>
      <trkpt lat="44.05003" lon="7.00778">
        <ele>2019.5</ele>
        <time>2012-12-28T13:43:20Z</time>
      </trkpt>
      <trkpt lat="44.05004" lon="7.00779">
        <ele>2019.1</ele>
        <time>2012-12-28T13:43:21Z</time>
      </trkpt>
      <trkpt lat="44.05008" lon="7.00784">
        <ele>2018.9</ele>
        <time>2012-12-28T13:43:30Z</time>
      </trkpt>
      <trkpt lat="44.05009" lon="7.00785">
        <ele>2019.1</ele>
        <time>2012-12-28T13:43:31Z</time>
      </trkpt>
      <trkpt lat="44.05009" lon="7.00785">
        <ele>2019.1</ele>
        <time>2012-12-28T13:43:32Z</time>
      </trkpt>
      <trkpt lat="44.0501" lon="7.00785">
        <ele>2019.4</ele>
        <time>2012-12-28T13:43:33Z</time>
      </trkpt>
      <trkpt lat="44.0501" lon="7.00785">
        <ele>2019.4</ele>
        <time>2012-12-28T13:43:34Z</time>
      </trkpt>
      <trkpt lat="44.0501" lon="7.00786">
        <ele>2019.3</ele>
        <time>2012-12-28T13:43:35Z</time>
      </trkpt>
      <trkpt lat="44.05011" lon="7.00787">
        <ele>2019.1</ele>
        <time>2012-12-28T13:43:36Z</time>
      </trkpt>
      <trkpt lat="44.05024" lon="7.00799">
        <ele>2021</ele>
        <time>2012-12-28T13:43:54Z</time>
      </trkpt>
      <trkpt lat="44.05037" lon="7.00811">
        <ele>2021.1</ele>
        <time>2012-12-28T13:44:09Z</time>
      </trkpt>
      <trkpt lat="44.05048" lon="7.00819">
        <ele>2022.7</ele>
        <time>2012-12-28T13:44:30Z</time>
      </trkpt>
      <trkpt lat="44.05048" lon="7.0082">
        <ele>2022.8</ele>
        <time>2012-12-28T13:44:31Z</time>
      </trkpt>
      <trkpt lat="44.05062" lon="7.00836">
        <ele>2024.4</ele>
        <time>2012-12-28T13:45:00Z</time>
      </trkpt>
      <trkpt lat="44.05063" lon="7.00837">
        <ele>2024.1</ele>
        <time>2012-12-28T13:45:01Z</time>
      </trkpt>
      <trkpt lat="44.05065" lon="7.00839">
        <ele>2023.1</ele>
        <time>2012-12-28T13:45:05Z</time>
      </trkpt>
      <trkpt lat="44.05065" lon="7.0084">
        <ele>2023.2</ele>
        <time>2012-12-28T13:45:06Z</time>
      </trkpt>
      <trkpt lat="44.05074" lon="7.00847">
        <ele>2024.8</ele>
        <time>2012-12-28T13:45:19Z</time>
      </trkpt>
      <trkpt lat="44.05075" lon="7.00848">
        <ele>2025</ele>
        <time>2012-12-28T13:45:20Z</time>
      </trkpt>
      <trkpt lat="44.05075" lon="7.00849">
        <ele>2025</ele>
        <time>2012-12-28T13:45:21Z</time>
      </trkpt>
      <trkpt lat="44.05077" lon="7.0085">
        <ele>2025</ele>
        <time>2012-12-28T13:45:23Z</time>
      </trkpt>
      <trkpt lat="44.05077" lon="7.00851">
        <ele>2025.1</ele>
        <time>2012-12-28T13:45:24Z</time>
      </trkpt>
      <trkpt lat="44.0508" lon="7.00855">
        <ele>2026.1</ele>
        <time>2012-12-28T13:45:28Z</time>
      </trkpt>
      <trkpt lat="44.05091" lon="7.00867">
        <ele>2027.5</ele>
        <time>2012-12-28T13:45:46Z</time>
      </trkpt>
      <trkpt lat="44.05091" lon="7.00868">
        <ele>2027.6</ele>
        <time>2012-12-28T13:45:47Z</time>
      </trkpt>
      <trkpt lat="44.05093" lon="7.00871">
        <ele>2027.9</ele>
        <time>2012-12-28T13:45:50Z</time>
      </trkpt>
      <trkpt lat="44.05095" lon="7.00873">
        <ele>2028.4</ele>
        <time>2012-12-28T13:45:52Z</time>
      </trkpt>
      <trkpt lat="44.05095" lon="7.00874">
        <ele>2028.2</ele>
        <time>2012-12-28T13:45:53Z</time>
      </trkpt>
      <trkpt lat="44.05096" lon="7.00875">
        <ele>2028.5</ele>
        <time>2012-12-28T13:45:54Z</time>
      </trkpt>
      <trkpt lat="44.05097" lon="7.00876">
        <ele>2028.7</ele>
        <time>2012-12-28T13:45:55Z</time>
      </trkpt>
      <trkpt lat="44.05098" lon="7.00876">
        <ele>2028.9</ele>
        <time>2012-12-28T13:45:56Z</time>
      </trkpt>
      <trkpt lat="44.05099" lon="7.00877">
        <ele>2029.4</ele>
        <time>2012-12-28T13:45:57Z</time>
      </trkpt>
      <trkpt lat="44.05103" lon="7.00882">
        <ele>2029.5</ele>
        <time>2012-12-28T13:46:04Z</time>
      </trkpt>
      <trkpt lat="44.0511" lon="7.00889">
        <ele>2031.4</ele>
        <time>2012-12-28T13:46:15Z</time>
      </trkpt>
      <trkpt lat="44.05123" lon="7.00913">
        <ele>2031.1</ele>
        <time>2012-12-28T13:46:40Z</time>
      </trkpt>
      <trkpt lat="44.05131" lon="7.00922">
        <ele>2033.1</ele>
        <time>2012-12-28T13:46:49Z</time>
      </trkpt>
      <trkpt lat="44.05132" lon="7.00923">
        <ele>2033.2</ele>
        <time>2012-12-28T13:46:50Z</time>
      </trkpt>
      <trkpt lat="44.05142" lon="7.00942">
        <ele>2033.8</ele>
        <time>2012-12-28T13:47:16Z</time>
      </trkpt>
      <trkpt lat="44.05143" lon="7.00943">
        <ele>2034.1</ele>
        <time>2012-12-28T13:47:17Z</time>
      </trkpt>
      <trkpt lat="44.05144" lon="7.00945">
        <ele>2034.4</ele>
        <time>2012-12-28T13:47:18Z</time>
      </trkpt>
      <trkpt lat="44.05145" lon="7.00946">
        <ele>2034.5</ele>
        <time>2012-12-28T13:47:19Z</time>
      </trkpt>
      <trkpt lat="44.05145" lon="7.00946">
        <ele>2034.6</ele>
        <time>2012-12-28T13:47:20Z</time>
      </trkpt>
      <trkpt lat="44.05144" lon="7.00947">
        <ele>2034.4</ele>
        <time>2012-12-28T13:47:21Z</time>
      </trkpt>
      <trkpt lat="44.05145" lon="7.00947">
        <ele>2034.3</ele>
        <time>2012-12-28T13:47:22Z</time>
      </trkpt>
      <trkpt lat="44.05145" lon="7.00948">
        <ele>2034.4</ele>
        <time>2012-12-28T13:47:23Z</time>
      </trkpt>
      <trkpt lat="44.05145" lon="7.00949">
        <ele>2034.3</ele>
        <time>2012-12-28T13:47:24Z</time>
      </trkpt>
      <trkpt lat="44.05146" lon="7.0095">
        <ele>2034.6</ele>
        <time>2012-12-28T13:47:25Z</time>
      </trkpt>
      <trkpt lat="44.05146" lon="7.00951">
        <ele>2034.4</ele>
        <time>2012-12-28T13:47:26Z</time>
      </trkpt>
      <trkpt lat="44.05145" lon="7.00951">
        <ele>2034.5</ele>
        <time>2012-12-28T13:47:27Z</time>
      </trkpt>
      <trkpt lat="44.05146" lon="7.00953">
        <ele>2034.4</ele>
        <time>2012-12-28T13:47:28Z</time>
      </trkpt>
      <trkpt lat="44.05157" lon="7.00995">
        <ele>2033.5</ele>
        <time>2012-12-28T13:48:53Z</time>
      </trkpt>
      <trkpt lat="44.05158" lon="7.00996">
        <ele>2033.4</ele>
        <time>2012-12-28T13:48:54Z</time>
      </trkpt>
      <trkpt lat="44.05178" lon="7.01009">
        <ele>2029</ele>
        <time>2012-12-28T13:49:56Z</time>
      </trkpt>
      <trkpt lat="44.05179" lon="7.01009">
        <ele>2028.7</ele>
        <time>2012-12-28T13:49:57Z</time>
      </trkpt>
      <trkpt lat="44.0518" lon="7.0101">
        <ele>2028.3</ele>
        <time>2012-12-28T13:49:58Z</time>
      </trkpt>
      <trkpt lat="44.052" lon="7.01023">
        <ele>2023.4</ele>
        <time>2012-12-28T13:50:41Z</time>
      </trkpt>
      <trkpt lat="44.05201" lon="7.01024">
        <ele>2023.2</ele>
        <time>2012-12-28T13:50:42Z</time>
      </trkpt>
      <trkpt lat="44.05202" lon="7.01025">
        <ele>2022.9</ele>
        <time>2012-12-28T13:50:43Z</time>
      </trkpt>
      <trkpt lat="44.05203" lon="7.01026">
        <ele>2022.7</ele>
        <time>2012-12-28T13:50:44Z</time>
      </trkpt>
      <trkpt lat="44.05204" lon="7.01026">
        <ele>2022.2</ele>
        <time>2012-12-28T13:50:45Z</time>
      </trkpt>
      <trkpt lat="44.05204" lon="7.01026">
        <ele>2022.2</ele>
        <time>2012-12-28T13:50:46Z</time>
      </trkpt>
      <trkpt lat="44.05204" lon="7.01027">
        <ele>2021.7</ele>
        <time>2012-12-28T13:50:47Z</time>
      </trkpt>
      <trkpt lat="44.05204" lon="7.01027">
        <ele>2021.7</ele>
        <time>2012-12-28T13:50:48Z</time>
      </trkpt>
      <trkpt lat="44.05205" lon="7.01027">
        <ele>2021.9</ele>
        <time>2012-12-28T13:50:49Z</time>
      </trkpt>
      <trkpt lat="44.05206" lon="7.01028">
        <ele>2021.9</ele>
        <time>2012-12-28T13:50:50Z</time>
      </trkpt>
      <trkpt lat="44.05207" lon="7.01029">
        <ele>2021.8</ele>
        <time>2012-12-28T13:50:51Z</time>
      </trkpt>
      <trkpt lat="44.05208" lon="7.0103">
        <ele>2021.3</ele>
        <time>2012-12-28T13:50:52Z</time>
      </trkpt>
      <trkpt lat="44.05209" lon="7.01031">
        <ele>2021.1</ele>
        <time>2012-12-28T13:50:53Z</time>
      </trkpt>
      <trkpt lat="44.0521" lon="7.01031">
        <ele>2020.7</ele>
        <time>2012-12-28T13:50:54Z</time>
      </trkpt>
      <trkpt lat="44.0521" lon="7.01031">
        <ele>2020.7</ele>
        <time>2012-12-28T13:50:55Z</time>
      </trkpt>
      <trkpt lat="44.0521" lon="7.01031">
        <ele>2020.7</ele>
        <time>2012-12-28T13:50:56Z</time>
      </trkpt>
      <trkpt lat="44.05211" lon="7.01032">
        <ele>2020.5</ele>
        <time>2012-12-28T13:50:57Z</time>
      </trkpt>
      <trkpt lat="44.05212" lon="7.01032">
        <ele>2020.5</ele>
        <time>2012-12-28T13:50:58Z</time>
      </trkpt>
      <trkpt lat="44.05212" lon="7.01032">
        <ele>2020.5</ele>
        <time>2012-12-28T13:50:59Z</time>
      </trkpt>
      <trkpt lat="44.05212" lon="7.01032">
        <ele>2020.5</ele>
        <time>2012-12-28T13:51:00Z</time>
      </trkpt>
      <trkpt lat="44.05213" lon="7.01032">
        <ele>2020.5</ele>
        <time>2012-12-28T13:51:01Z</time>
      </trkpt>
      <trkpt lat="44.05214" lon="7.01031">
        <ele>2020.5</ele>
        <time>2012-12-28T13:51:02Z</time>
      </trkpt>
      <trkpt lat="44.05215" lon="7.0103">
        <ele>2020.5</ele>
        <time>2012-12-28T13:51:03Z</time>
      </trkpt>
      <trkpt lat="44.05215" lon="7.0103">
        <ele>2020.3</ele>
        <time>2012-12-28T13:51:04Z</time>
      </trkpt>
      <trkpt lat="44.05216" lon="7.01029">
        <ele>2020.5</ele>
        <time>2012-12-28T13:51:05Z</time>
      </trkpt>
      <trkpt lat="44.05216" lon="7.01029">
        <ele>2020.5</ele>
        <time>2012-12-28T13:51:06Z</time>
      </trkpt>
      <trkpt lat="44.05216" lon="7.01029">
        <ele>2020.5</ele>
        <time>2012-12-28T13:51:07Z</time>
      </trkpt>
      <trkpt lat="44.05216" lon="7.01029">
        <ele>2020.5</ele>
        <time>2012-12-28T13:51:08Z</time>
      </trkpt>
      <trkpt lat="44.05216" lon="7.01029">
        <ele>2020.5</ele>
        <time>2012-12-28T13:51:09Z</time>
      </trkpt>
      <trkpt lat="44.05216" lon="7.01029">
        <ele>2020.5</ele>
        <time>2012-12-28T13:51:10Z</time>
      </trkpt>
      <trkpt lat="44.05216" lon="7.01029">
        <ele>2020.5</ele>
        <time>2012-12-28T13:51:11Z</time>
      </trkpt>
      <trkpt lat="44.05216" lon="7.01029">
        <ele>2020.5</ele>
        <time>2012-12-28T13:51:12Z</time>
      </trkpt>
      <trkpt lat="44.05216" lon="7.01029">
        <ele>2020.5</ele>
        <time>2012-12-28T13:51:13Z</time>
      </trkpt>
      <trkpt lat="44.05216" lon="7.01029">
        <ele>2020.5</ele>
        <time>2012-12-28T13:51:14Z</time>
      </trkpt>
      <trkpt lat="44.05216" lon="7.01029">
        <ele>2020.5</ele>
        <time>2012-12-28T13:51:15Z</time>
      </trkpt>
      <trkpt lat="44.05216" lon="7.01029">
        <ele>2020.5</ele>
        <time>2012-12-28T13:51:16Z</time>
      </trkpt>
      <trkpt lat="44.05216" lon="7.01029">
        <ele>2020.5</ele>
        <time>2012-12-28T13:51:17Z</time>
      </trkpt>
      <trkpt lat="44.05216" lon="7.01029">
        <ele>2020.5</ele>
        <time>2012-12-28T13:51:18Z</time>
      </trkpt>
      <trkpt lat="44.05217" lon="7.01029">
        <ele>2020.5</ele>
        <time>2012-12-28T13:51:19Z</time>
      </trkpt>
      <trkpt lat="44.05217" lon="7.01028">
        <ele>2020.3</ele>
        <time>2012-12-28T13:51:20Z</time>
      </trkpt>
      <trkpt lat="44.05218" lon="7.01028">
        <ele>2020.3</ele>
        <time>2012-12-28T13:51:21Z</time>
      </trkpt>
      <trkpt lat="44.05219" lon="7.01027">
        <ele>2019.7</ele>
        <time>2012-12-28T13:51:22Z</time>
      </trkpt>
      <trkpt lat="44.0522" lon="7.01026">
        <ele>2019.4</ele>
        <time>2012-12-28T13:51:23Z</time>
      </trkpt>
      <trkpt lat="44.0522" lon="7.01026">
        <ele>2019.2</ele>
        <time>2012-12-28T13:51:24Z</time>
      </trkpt>
      <trkpt lat="44.05221" lon="7.01025">
        <ele>2018.8</ele>
        <time>2012-12-28T13:51:25Z</time>
      </trkpt>
      <trkpt lat="44.05221" lon="7.01024">
        <ele>2018.3</ele>
        <time>2012-12-28T13:51:26Z</time>
      </trkpt>
      <trkpt lat="44.05222" lon="7.01024">
        <ele>2017.7</ele>
        <time>2012-12-28T13:51:27Z</time>
      </trkpt>
      <trkpt lat="44.05222" lon="7.01023">
        <ele>2018</ele>
        <time>2012-12-28T13:51:28Z</time>
      </trkpt>
      <trkpt lat="44.05223" lon="7.01022">
        <ele>2017.3</ele>
        <time>2012-12-28T13:51:29Z</time>
      </trkpt>
      <trkpt lat="44.05223" lon="7.01022">
        <ele>2017.3</ele>
        <time>2012-12-28T13:51:30Z</time>
      </trkpt>
      <trkpt lat="44.05223" lon="7.01022">
        <ele>2017.2</ele>
        <time>2012-12-28T13:51:31Z</time>
      </trkpt>
      <trkpt lat="44.05224" lon="7.0102">
        <ele>2017</ele>
        <time>2012-12-28T13:51:32Z</time>
      </trkpt>
      <trkpt lat="44.05225" lon="7.01019">
        <ele>2016.8</ele>
        <time>2012-12-28T13:51:33Z</time>
      </trkpt>
      <trkpt lat="44.05225" lon="7.01019">
        <ele>2016.8</ele>
        <time>2012-12-28T13:51:34Z</time>
      </trkpt>
      <trkpt lat="44.05226" lon="7.01018">
        <ele>2016.5</ele>
        <time>2012-12-28T13:51:35Z</time>
      </trkpt>
      <trkpt lat="44.05226" lon="7.01017">
        <ele>2016.2</ele>
        <time>2012-12-28T13:51:36Z</time>
      </trkpt>
      <trkpt lat="44.05227" lon="7.01016">
        <ele>2015.9</ele>
        <time>2012-12-28T13:51:37Z</time>
      </trkpt>
      <trkpt lat="44.05227" lon="7.01016">
        <ele>2015.4</ele>
        <time>2012-12-28T13:51:38Z</time>
      </trkpt>
      <trkpt lat="44.05228" lon="7.01015">
        <ele>2015.4</ele>
        <time>2012-12-28T13:51:39Z</time>
      </trkpt>
      <trkpt lat="44.05228" lon="7.01014">
        <ele>2015</ele>
        <time>2012-12-28T13:51:40Z</time>
      </trkpt>
      <trkpt lat="44.05228" lon="7.01013">
        <ele>2014.2</ele>
        <time>2012-12-28T13:51:41Z</time>
      </trkpt>
      <trkpt lat="44.05229" lon="7.01012">
        <ele>2013.5</ele>
        <time>2012-12-28T13:51:42Z</time>
      </trkpt>
      <trkpt lat="44.05229" lon="7.01011">
        <ele>2013.5</ele>
        <time>2012-12-28T13:51:43Z</time>
      </trkpt>
      <trkpt lat="44.05229" lon="7.01011">
        <ele>2013.3</ele>
        <time>2012-12-28T13:51:44Z</time>
      </trkpt>
      <trkpt lat="44.05229" lon="7.01009">
        <ele>2012.9</ele>
        <time>2012-12-28T13:51:45Z</time>
      </trkpt>
      <trkpt lat="44.05229" lon="7.01009">
        <ele>2012.9</ele>
        <time>2012-12-28T13:51:46Z</time>
      </trkpt>
      <trkpt lat="44.0523" lon="7.01009">
        <ele>2012.6</ele>
        <time>2012-12-28T13:51:47Z</time>
      </trkpt>
      <trkpt lat="44.0523" lon="7.01008">
        <ele>2012.5</ele>
        <time>2012-12-28T13:51:48Z</time>
      </trkpt>
      <trkpt lat="44.0523" lon="7.01007">
        <ele>2012.4</ele>
        <time>2012-12-28T13:51:49Z</time>
      </trkpt>
      <trkpt lat="44.0523" lon="7.01007">
        <ele>2012.4</ele>
        <time>2012-12-28T13:51:50Z</time>
      </trkpt>
      <trkpt lat="44.05231" lon="7.01008">
        <ele>2012.2</ele>
        <time>2012-12-28T13:51:51Z</time>
      </trkpt>
      <trkpt lat="44.05232" lon="7.01008">
        <ele>2011.9</ele>
        <time>2012-12-28T13:51:52Z</time>
      </trkpt>
      <trkpt lat="44.05238" lon="7.01012">
        <ele>2011.1</ele>
        <time>2012-12-28T13:52:04Z</time>
      </trkpt>
      <trkpt lat="44.05239" lon="7.01013">
        <ele>2011.2</ele>
        <time>2012-12-28T13:52:05Z</time>
      </trkpt>
      <trkpt lat="44.05252" lon="7.01022">
        <ele>2008.1</ele>
        <time>2012-12-28T13:52:31Z</time>
      </trkpt>
      <trkpt lat="44.05257" lon="7.01025">
        <ele>2006.6</ele>
        <time>2012-12-28T13:52:38Z</time>
      </trkpt>
      <trkpt lat="44.05258" lon="7.01025">
        <ele>2006.5</ele>
        <time>2012-12-28T13:52:39Z</time>
      </trkpt>
      <trkpt lat="44.05265" lon="7.01028">
        <ele>2005.6</ele>
        <time>2012-12-28T13:52:47Z</time>
      </trkpt>
      <trkpt lat="44.05269" lon="7.01029">
        <ele>2005.1</ele>
        <time>2012-12-28T13:52:51Z</time>
      </trkpt>
      <trkpt lat="44.05273" lon="7.0103">
        <ele>2004.6</ele>
        <time>2012-12-28T13:52:55Z</time>
      </trkpt>
      <trkpt lat="44.05274" lon="7.01031">
        <ele>2004.3</ele>
        <time>2012-12-28T13:52:56Z</time>
      </trkpt>
      <trkpt lat="44.05294" lon="7.0104">
        <ele>2000.7</ele>
        <time>2012-12-28T13:53:22Z</time>
      </trkpt>
      <trkpt lat="44.05295" lon="7.01041">
        <ele>2000.8</ele>
        <time>2012-12-28T13:53:23Z</time>
      </trkpt>
      <trkpt lat="44.05296" lon="7.01041">
        <ele>2000.4</ele>
        <time>2012-12-28T13:53:24Z</time>
      </trkpt>
      <trkpt lat="44.05338" lon="7.01059">
        <ele>1990.5</ele>
        <time>2012-12-28T13:55:14Z</time>
      </trkpt>
      <trkpt lat="44.05338" lon="7.01059">
        <ele>1990.5</ele>
        <time>2012-12-28T13:55:15Z</time>
      </trkpt>
      <trkpt lat="44.05381" lon="7.01057">
        <ele>1980.4</ele>
        <time>2012-12-28T13:56:26Z</time>
      </trkpt>
      <trkpt lat="44.05406" lon="7.01059">
        <ele>1973.5</ele>
        <time>2012-12-28T13:56:54Z</time>
      </trkpt>
      <trkpt lat="44.05407" lon="7.01059">
        <ele>1973.3</ele>
        <time>2012-12-28T13:56:55Z</time>
      </trkpt>
      <trkpt lat="44.05494" lon="7.01045">
        <ele>1966.4</ele>
        <time>2012-12-28T13:59:12Z</time>
      </trkpt>
      <trkpt lat="44.05495" lon="7.01044">
        <ele>1966.1</ele>
        <time>2012-12-28T13:59:13Z</time>
      </trkpt>
      <trkpt lat="44.0552" lon="7.01031">
        <ele>1966.4</ele>
        <time>2012-12-28T13:59:56Z</time>
      </trkpt>
      <trkpt lat="44.05521" lon="7.0103">
        <ele>1966.2</ele>
        <time>2012-12-28T13:59:57Z</time>
      </trkpt>
      <trkpt lat="44.05522" lon="7.0103">
        <ele>1966.3</ele>
        <time>2012-12-28T13:59:58Z</time>
      </trkpt>
      <trkpt lat="44.05523" lon="7.0103">
        <ele>1966.3</ele>
        <time>2012-12-28T13:59:59Z</time>
      </trkpt>
      <trkpt lat="44.05524" lon="7.0103">
        <ele>1966.2</ele>
        <time>2012-12-28T14:00:00Z</time>
      </trkpt>
      <trkpt lat="44.05525" lon="7.01029">
        <ele>1966.1</ele>
        <time>2012-12-28T14:00:01Z</time>
      </trkpt>
      <trkpt lat="44.05525" lon="7.01029">
        <ele>1966.1</ele>
        <time>2012-12-28T14:00:02Z</time>
      </trkpt>
      <trkpt lat="44.05525" lon="7.01029">
        <ele>1966.2</ele>
        <time>2012-12-28T14:00:03Z</time>
      </trkpt>
      <trkpt lat="44.05534" lon="7.01023">
        <ele>1967.6</ele>
        <time>2012-12-28T14:01:15Z</time>
      </trkpt>
      <trkpt lat="44.05535" lon="7.01023">
        <ele>1967.8</ele>
        <time>2012-12-28T14:01:16Z</time>
      </trkpt>
      <trkpt lat="44.05536" lon="7.01024">
        <ele>1967.4</ele>
        <time>2012-12-28T14:01:21Z</time>
      </trkpt>
      <trkpt lat="44.05548" lon="7.01021">
        <ele>1970.1</ele>
        <time>2012-12-28T14:05:54Z</time>
      </trkpt>
      <trkpt lat="44.05549" lon="7.01021">
        <ele>1969.8</ele>
        <time>2012-12-28T14:05:55Z</time>
      </trkpt>
      <trkpt lat="44.05549" lon="7.0102">
        <ele>1969.8</ele>
        <time>2012-12-28T14:05:56Z</time>
      </trkpt>
      <trkpt lat="44.05551" lon="7.0102">
        <ele>1969.5</ele>
        <time>2012-12-28T14:05:57Z</time>
      </trkpt>
      <trkpt lat="44.05551" lon="7.0102">
        <ele>1969.5</ele>
        <time>2012-12-28T14:05:58Z</time>
      </trkpt>
      <trkpt lat="44.05551" lon="7.0102">
        <ele>1969.5</ele>
        <time>2012-12-28T14:05:59Z</time>
      </trkpt>
      <trkpt lat="44.05551" lon="7.0102">
        <ele>1969.5</ele>
        <time>2012-12-28T14:06:00Z</time>
      </trkpt>
      <trkpt lat="44.05551" lon="7.01019">
        <ele>1969.6</ele>
        <time>2012-12-28T14:06:01Z</time>
      </trkpt>
      <trkpt lat="44.05553" lon="7.01019">
        <ele>1969.6</ele>
        <time>2012-12-28T14:06:02Z</time>
      </trkpt>
      <trkpt lat="44.05554" lon="7.01019">
        <ele>1970</ele>
        <time>2012-12-28T14:06:03Z</time>
      </trkpt>
      <trkpt lat="44.05554" lon="7.01019">
        <ele>1970</ele>
        <time>2012-12-28T14:06:04Z</time>
      </trkpt>
      <trkpt lat="44.05554" lon="7.01018">
        <ele>1970.1</ele>
        <time>2012-12-28T14:06:05Z</time>
      </trkpt>
      <trkpt lat="44.05554" lon="7.01018">
        <ele>1970.1</ele>
        <time>2012-12-28T14:06:06Z</time>
      </trkpt>
      <trkpt lat="44.05555" lon="7.01018">
        <ele>1970.2</ele>
        <time>2012-12-28T14:06:07Z</time>
      </trkpt>
      <trkpt lat="44.05555" lon="7.01018">
        <ele>1970.2</ele>
        <time>2012-12-28T14:06:08Z</time>
      </trkpt>
      <trkpt lat="44.05556" lon="7.01017">
        <ele>1970.5</ele>
        <time>2012-12-28T14:06:09Z</time>
      </trkpt>
      <trkpt lat="44.05556" lon="7.01017">
        <ele>1970.5</ele>
        <time>2012-12-28T14:06:10Z</time>
      </trkpt>
      <trkpt lat="44.05556" lon="7.01017">
        <ele>1970.5</ele>
        <time>2012-12-28T14:06:11Z</time>
      </trkpt>
      <trkpt lat="44.05556" lon="7.01017">
        <ele>1970.5</ele>
        <time>2012-12-28T14:06:12Z</time>
      </trkpt>
      <trkpt lat="44.05556" lon="7.01017">
        <ele>1970.5</ele>
        <time>2012-12-28T14:06:13Z</time>
      </trkpt>
      <trkpt lat="44.05556" lon="7.01017">
        <ele>1970.5</ele>
        <time>2012-12-28T14:06:14Z</time>
      </trkpt>
      <trkpt lat="44.05556" lon="7.01017">
        <ele>1970.5</ele>
        <time>2012-12-28T14:06:15Z</time>
      </trkpt>
      <trkpt lat="44.05556" lon="7.01017">
        <ele>1970.5</ele>
        <time>2012-12-28T14:06:16Z</time>
      </trkpt>
      <trkpt lat="44.05556" lon="7.01017">
        <ele>1970.5</ele>
        <time>2012-12-28T14:06:17Z</time>
      </trkpt>
      <trkpt lat="44.05556" lon="7.01017">
        <ele>1970.6</ele>
        <time>2012-12-28T14:06:18Z</time>
      </trkpt>
      <trkpt lat="44.05556" lon="7.01017">
        <ele>1970.6</ele>
        <time>2012-12-28T14:06:19Z</time>
      </trkpt>
      <trkpt lat="44.05557" lon="7.01017">
        <ele>1970.7</ele>
        <time>2012-12-28T14:06:20Z</time>
      </trkpt>
      <trkpt lat="44.05557" lon="7.01017">
        <ele>1970.7</ele>
        <time>2012-12-28T14:06:21Z</time>
      </trkpt>
      <trkpt lat="44.05557" lon="7.01017">
        <ele>1970.7</ele>
        <time>2012-12-28T14:06:22Z</time>
      </trkpt>
      <trkpt lat="44.05558" lon="7.01016">
        <ele>1970.9</ele>
        <time>2012-12-28T14:06:23Z</time>
      </trkpt>
      <trkpt lat="44.05559" lon="7.01016">
        <ele>1971.3</ele>
        <time>2012-12-28T14:06:24Z</time>
      </trkpt>
      <trkpt lat="44.0556" lon="7.01015">
        <ele>1971.5</ele>
        <time>2012-12-28T14:06:25Z</time>
      </trkpt>
      <trkpt lat="44.05561" lon="7.01015">
        <ele>1971.6</ele>
        <time>2012-12-28T14:06:26Z</time>
      </trkpt>
      <trkpt lat="44.05563" lon="7.01014">
        <ele>1971.7</ele>
        <time>2012-12-28T14:06:27Z</time>
      </trkpt>
      <trkpt lat="44.05564" lon="7.01014">
        <ele>1971.6</ele>
        <time>2012-12-28T14:06:28Z</time>
      </trkpt>
      <trkpt lat="44.05564" lon="7.01014">
        <ele>1971.6</ele>
        <time>2012-12-28T14:06:29Z</time>
      </trkpt>
      <trkpt lat="44.05564" lon="7.01014">
        <ele>1971.6</ele>
        <time>2012-12-28T14:06:30Z</time>
      </trkpt>
      <trkpt lat="44.05564" lon="7.01014">
        <ele>1971.6</ele>
        <time>2012-12-28T14:06:31Z</time>
      </trkpt>
      <trkpt lat="44.05564" lon="7.01014">
        <ele>1971.6</ele>
        <time>2012-12-28T14:06:32Z</time>
      </trkpt>
      <trkpt lat="44.05564" lon="7.01014">
        <ele>1971.6</ele>
        <time>2012-12-28T14:06:33Z</time>
      </trkpt>
      <trkpt lat="44.05564" lon="7.01014">
        <ele>1971.6</ele>
        <time>2012-12-28T14:06:34Z</time>
      </trkpt>
      <trkpt lat="44.05564" lon="7.01014">
        <ele>1971.6</ele>
        <time>2012-12-28T14:06:35Z</time>
      </trkpt>
      <trkpt lat="44.05565" lon="7.01013">
        <ele>1971.8</ele>
        <time>2012-12-28T14:06:36Z</time>
      </trkpt>
      <trkpt lat="44.05566" lon="7.01013">
        <ele>1971.9</ele>
        <time>2012-12-28T14:06:37Z</time>
      </trkpt>
      <trkpt lat="44.05568" lon="7.01013">
        <ele>1972</ele>
        <time>2012-12-28T14:06:38Z</time>
      </trkpt>
      <trkpt lat="44.05568" lon="7.01013">
        <ele>1972</ele>
        <time>2012-12-28T14:06:39Z</time>
      </trkpt>
      <trkpt lat="44.05568" lon="7.01013">
        <ele>1972</ele>
        <time>2012-12-28T14:06:40Z</time>
      </trkpt>
      <trkpt lat="44.05569" lon="7.01013">
        <ele>1972</ele>
        <time>2012-12-28T14:06:41Z</time>
      </trkpt>
      <trkpt lat="44.05569" lon="7.01013">
        <ele>1972</ele>
        <time>2012-12-28T14:06:42Z</time>
      </trkpt>
      <trkpt lat="44.05569" lon="7.01013">
        <ele>1972.2</ele>
        <time>2012-12-28T14:06:43Z</time>
      </trkpt>
      <trkpt lat="44.05571" lon="7.01012">
        <ele>1972.1</ele>
        <time>2012-12-28T14:06:44Z</time>
      </trkpt>
      <trkpt lat="44.05571" lon="7.01012">
        <ele>1972.1</ele>
        <time>2012-12-28T14:06:45Z</time>
      </trkpt>
      <trkpt lat="44.05571" lon="7.01012">
        <ele>1972.2</ele>
        <time>2012-12-28T14:06:46Z</time>
      </trkpt>
      <trkpt lat="44.05586" lon="7.01007">
        <ele>1975</ele>
        <time>2012-12-28T14:07:11Z</time>
      </trkpt>
      <trkpt lat="44.05586" lon="7.01007">
        <ele>1975</ele>
        <time>2012-12-28T14:07:12Z</time>
      </trkpt>
      <trkpt lat="44.05587" lon="7.01007">
        <ele>1974.9</ele>
        <time>2012-12-28T14:07:13Z</time>
      </trkpt>
      <trkpt lat="44.05587" lon="7.01007">
        <ele>1974.9</ele>
        <time>2012-12-28T14:07:14Z</time>
      </trkpt>
      <trkpt lat="44.05587" lon="7.01007">
        <ele>1974.9</ele>
        <time>2012-12-28T14:07:15Z</time>
      </trkpt>
      <trkpt lat="44.05587" lon="7.01007">
        <ele>1974.9</ele>
        <time>2012-12-28T14:07:16Z</time>
      </trkpt>
      <trkpt lat="44.05587" lon="7.01007">
        <ele>1974.9</ele>
        <time>2012-12-28T14:07:17Z</time>
      </trkpt>
      <trkpt lat="44.05587" lon="7.01007">
        <ele>1974.9</ele>
        <time>2012-12-28T14:07:18Z</time>
      </trkpt>
      <trkpt lat="44.05588" lon="7.01006">
        <ele>1974.8</ele>
        <time>2012-12-28T14:07:19Z</time>
      </trkpt>
      <trkpt lat="44.05588" lon="7.01006">
        <ele>1974.8</ele>
        <time>2012-12-28T14:07:20Z</time>
      </trkpt>
      <trkpt lat="44.05589" lon="7.01006">
        <ele>1975.2</ele>
        <time>2012-12-28T14:07:21Z</time>
      </trkpt>
      <trkpt lat="44.05589" lon="7.01006">
        <ele>1975.2</ele>
        <time>2012-12-28T14:07:22Z</time>
      </trkpt>
      <trkpt lat="44.05589" lon="7.01006">
        <ele>1975.2</ele>
        <time>2012-12-28T14:07:23Z</time>
      </trkpt>
      <trkpt lat="44.05589" lon="7.01005">
        <ele>1975.2</ele>
        <time>2012-12-28T14:07:24Z</time>
      </trkpt>
      <trkpt lat="44.05589" lon="7.01005">
        <ele>1975.2</ele>
        <time>2012-12-28T14:07:25Z</time>
      </trkpt>
      <trkpt lat="44.05589" lon="7.01005">
        <ele>1975.2</ele>
        <time>2012-12-28T14:07:26Z</time>
      </trkpt>
      <trkpt lat="44.05589" lon="7.01005">
        <ele>1975.2</ele>
        <time>2012-12-28T14:07:27Z</time>
      </trkpt>
      <trkpt lat="44.05589" lon="7.01005">
        <ele>1975.2</ele>
        <time>2012-12-28T14:07:28Z</time>
      </trkpt>
      <trkpt lat="44.05589" lon="7.01005">
        <ele>1975.2</ele>
        <time>2012-12-28T14:07:29Z</time>
      </trkpt>
      <trkpt lat="44.05589" lon="7.01005">
        <ele>1975.2</ele>
        <time>2012-12-28T14:07:30Z</time>
      </trkpt>
      <trkpt lat="44.05589" lon="7.01005">
        <ele>1975.2</ele>
        <time>2012-12-28T14:07:31Z</time>
      </trkpt>
      <trkpt lat="44.05589" lon="7.01005">
        <ele>1975.2</ele>
        <time>2012-12-28T14:07:32Z</time>
      </trkpt>
      <trkpt lat="44.05589" lon="7.01005">
        <ele>1975.2</ele>
        <time>2012-12-28T14:07:33Z</time>
      </trkpt>
      <trkpt lat="44.05589" lon="7.01005">
        <ele>1975.2</ele>
        <time>2012-12-28T14:07:34Z</time>
      </trkpt>
      <trkpt lat="44.05589" lon="7.01005">
        <ele>1975.2</ele>
        <time>2012-12-28T14:07:35Z</time>
      </trkpt>
      <trkpt lat="44.0559" lon="7.01005">
        <ele>1975.6</ele>
        <time>2012-12-28T14:07:36Z</time>
      </trkpt>
      <trkpt lat="44.05592" lon="7.01004">
        <ele>1976.1</ele>
        <time>2012-12-28T14:07:37Z</time>
      </trkpt>
      <trkpt lat="44.05593" lon="7.01004">
        <ele>1976.3</ele>
        <time>2012-12-28T14:07:38Z</time>
      </trkpt>
      <trkpt lat="44.05593" lon="7.01004">
        <ele>1976.3</ele>
        <time>2012-12-28T14:07:39Z</time>
      </trkpt>
      <trkpt lat="44.05594" lon="7.01003">
        <ele>1976.5</ele>
        <time>2012-12-28T14:07:40Z</time>
      </trkpt>
      <trkpt lat="44.05594" lon="7.01003">
        <ele>1976.5</ele>
        <time>2012-12-28T14:07:41Z</time>
      </trkpt>
      <trkpt lat="44.05595" lon="7.01003">
        <ele>1976.5</ele>
        <time>2012-12-28T14:07:42Z</time>
      </trkpt>
      <trkpt lat="44.05596" lon="7.01002">
        <ele>1976.5</ele>
        <time>2012-12-28T14:07:43Z</time>
      </trkpt>
      <trkpt lat="44.05596" lon="7.01002">
        <ele>1976.5</ele>
        <time>2012-12-28T14:07:44Z</time>
      </trkpt>
      <trkpt lat="44.05596" lon="7.01002">
        <ele>1976.5</ele>
        <time>2012-12-28T14:07:45Z</time>
      </trkpt>
      <trkpt lat="44.05596" lon="7.01002">
        <ele>1976.5</ele>
        <time>2012-12-28T14:07:46Z</time>
      </trkpt>
      <trkpt lat="44.05597" lon="7.01002">
        <ele>1976.6</ele>
        <time>2012-12-28T14:07:47Z</time>
      </trkpt>
      <trkpt lat="44.05597" lon="7.01002">
        <ele>1976.6</ele>
        <time>2012-12-28T14:07:48Z</time>
      </trkpt>
      <trkpt lat="44.05599" lon="7.01002">
        <ele>1976.9</ele>
        <time>2012-12-28T14:07:49Z</time>
      </trkpt>
      <trkpt lat="44.056" lon="7.01001">
        <ele>1976.9</ele>
        <time>2012-12-28T14:07:50Z</time>
      </trkpt>
      <trkpt lat="44.056" lon="7.01001">
        <ele>1976.9</ele>
        <time>2012-12-28T14:07:51Z</time>
      </trkpt>
      <trkpt lat="44.05601" lon="7.01001">
        <ele>1977</ele>
        <time>2012-12-28T14:07:52Z</time>
      </trkpt>
      <trkpt lat="44.05601" lon="7.01001">
        <ele>1977</ele>
        <time>2012-12-28T14:07:53Z</time>
      </trkpt>
      <trkpt lat="44.05601" lon="7.01001">
        <ele>1977</ele>
        <time>2012-12-28T14:07:54Z</time>
      </trkpt>
      <trkpt lat="44.05601" lon="7.01001">
        <ele>1977</ele>
        <time>2012-12-28T14:07:55Z</time>
      </trkpt>
      <trkpt lat="44.05601" lon="7.01001">
        <ele>1977</ele>
        <time>2012-12-28T14:07:56Z</time>
      </trkpt>
      <trkpt lat="44.05601" lon="7.01001">
        <ele>1977</ele>
        <time>2012-12-28T14:07:57Z</time>
      </trkpt>
      <trkpt lat="44.05601" lon="7.01001">
        <ele>1977</ele>
        <time>2012-12-28T14:07:58Z</time>
      </trkpt>
      <trkpt lat="44.05601" lon="7.01001">
        <ele>1977</ele>
        <time>2012-12-28T14:07:59Z</time>
      </trkpt>
      <trkpt lat="44.05601" lon="7.01001">
        <ele>1977</ele>
        <time>2012-12-28T14:08:00Z</time>
      </trkpt>
      <trkpt lat="44.05601" lon="7.01001">
        <ele>1977</ele>
        <time>2012-12-28T14:08:01Z</time>
      </trkpt>
      <trkpt lat="44.05601" lon="7.01001">
        <ele>1977</ele>
        <time>2012-12-28T14:08:02Z</time>
      </trkpt>
      <trkpt lat="44.05601" lon="7.01001">
        <ele>1977</ele>
        <time>2012-12-28T14:08:03Z</time>
      </trkpt>
      <trkpt lat="44.05601" lon="7.01001">
        <ele>1977</ele>
        <time>2012-12-28T14:08:04Z</time>
      </trkpt>
      <trkpt lat="44.05601" lon="7.01001">
        <ele>1977</ele>
        <time>2012-12-28T14:08:05Z</time>
      </trkpt>
      <trkpt lat="44.05601" lon="7.01001">
        <ele>1977</ele>
        <time>2012-12-28T14:08:06Z</time>
      </trkpt>
      <trkpt lat="44.05601" lon="7.01001">
        <ele>1977</ele>
        <time>2012-12-28T14:08:07Z</time>
      </trkpt>
      <trkpt lat="44.05601" lon="7.01001">
        <ele>1977</ele>
        <time>2012-12-28T14:08:08Z</time>
      </trkpt>
      <trkpt lat="44.05601" lon="7.01001">
        <ele>1977</ele>
        <time>2012-12-28T14:08:09Z</time>
      </trkpt>
      <trkpt lat="44.05601" lon="7.01001">
        <ele>1977</ele>
        <time>2012-12-28T14:08:10Z</time>
      </trkpt>
      <trkpt lat="44.05602" lon="7.01001">
        <ele>1977.4</ele>
        <time>2012-12-28T14:08:11Z</time>
      </trkpt>
      <trkpt lat="44.05602" lon="7.01001">
        <ele>1977.4</ele>
        <time>2012-12-28T14:08:12Z</time>
      </trkpt>
      <trkpt lat="44.05603" lon="7.01">
        <ele>1977.2</ele>
        <time>2012-12-28T14:08:13Z</time>
      </trkpt>
      <trkpt lat="44.05604" lon="7.01">
        <ele>1977.3</ele>
        <time>2012-12-28T14:08:14Z</time>
      </trkpt>
      <trkpt lat="44.05605" lon="7.01">
        <ele>1977.4</ele>
        <time>2012-12-28T14:08:15Z</time>
      </trkpt>
      <trkpt lat="44.05607" lon="7.00999">
        <ele>1977.9</ele>
        <time>2012-12-28T14:08:16Z</time>
      </trkpt>
      <trkpt lat="44.05608" lon="7.00999">
        <ele>1977.8</ele>
        <time>2012-12-28T14:08:17Z</time>
      </trkpt>
      <trkpt lat="44.05608" lon="7.00999">
        <ele>1977.8</ele>
        <time>2012-12-28T14:08:18Z</time>
      </trkpt>
      <trkpt lat="44.05608" lon="7.00999">
        <ele>1977.8</ele>
        <time>2012-12-28T14:08:19Z</time>
      </trkpt>
      <trkpt lat="44.05609" lon="7.00998">
        <ele>1978</ele>
        <time>2012-12-28T14:08:20Z</time>
      </trkpt>
      <trkpt lat="44.05609" lon="7.00998">
        <ele>1978</ele>
        <time>2012-12-28T14:08:21Z</time>
      </trkpt>
      <trkpt lat="44.0561" lon="7.00998">
        <ele>1978</ele>
        <time>2012-12-28T14:08:22Z</time>
      </trkpt>
      <trkpt lat="44.0561" lon="7.00998">
        <ele>1978</ele>
        <time>2012-12-28T14:08:23Z</time>
      </trkpt>
      <trkpt lat="44.05611" lon="7.00998">
        <ele>1978.1</ele>
        <time>2012-12-28T14:08:24Z</time>
      </trkpt>
      <trkpt lat="44.05612" lon="7.00998">
        <ele>1978</ele>
        <time>2012-12-28T14:08:25Z</time>
      </trkpt>
      <trkpt lat="44.05614" lon="7.00997">
        <ele>1978.2</ele>
        <time>2012-12-28T14:08:26Z</time>
      </trkpt>
      <trkpt lat="44.05614" lon="7.00997">
        <ele>1978.2</ele>
        <time>2012-12-28T14:08:27Z</time>
      </trkpt>
      <trkpt lat="44.05614" lon="7.00997">
        <ele>1978.2</ele>
        <time>2012-12-28T14:08:28Z</time>
      </trkpt>
      <trkpt lat="44.05614" lon="7.00997">
        <ele>1978.2</ele>
        <time>2012-12-28T14:08:29Z</time>
      </trkpt>
      <trkpt lat="44.05614" lon="7.00997">
        <ele>1978.2</ele>
        <time>2012-12-28T14:08:30Z</time>
      </trkpt>
      <trkpt lat="44.05614" lon="7.00997">
        <ele>1978.2</ele>
        <time>2012-12-28T14:08:31Z</time>
      </trkpt>
      <trkpt lat="44.05614" lon="7.00997">
        <ele>1978.2</ele>
        <time>2012-12-28T14:08:32Z</time>
      </trkpt>
      <trkpt lat="44.05614" lon="7.00997">
        <ele>1978.2</ele>
        <time>2012-12-28T14:08:33Z</time>
      </trkpt>
      <trkpt lat="44.05615" lon="7.00997">
        <ele>1978.2</ele>
        <time>2012-12-28T14:08:34Z</time>
      </trkpt>
      <trkpt lat="44.05616" lon="7.00996">
        <ele>1978.5</ele>
        <time>2012-12-28T14:08:35Z</time>
      </trkpt>
      <trkpt lat="44.05616" lon="7.00996">
        <ele>1978.5</ele>
        <time>2012-12-28T14:08:36Z</time>
      </trkpt>
      <trkpt lat="44.05616" lon="7.00996">
        <ele>1978.5</ele>
        <time>2012-12-28T14:08:37Z</time>
      </trkpt>
      <trkpt lat="44.05616" lon="7.00996">
        <ele>1978.5</ele>
        <time>2012-12-28T14:08:38Z</time>
      </trkpt>
      <trkpt lat="44.05616" lon="7.00996">
        <ele>1978.5</ele>
        <time>2012-12-28T14:08:39Z</time>
      </trkpt>
      <trkpt lat="44.05617" lon="7.00996">
        <ele>1978.7</ele>
        <time>2012-12-28T14:08:40Z</time>
      </trkpt>
      <trkpt lat="44.05662" lon="7.00964">
        <ele>1987.2</ele>
        <time>2012-12-28T14:10:37Z</time>
      </trkpt>
      <trkpt lat="44.05664" lon="7.00964">
        <ele>1987.8</ele>
        <time>2012-12-28T14:10:38Z</time>
      </trkpt>
      <trkpt lat="44.05664" lon="7.00965">
        <ele>1988</ele>
        <time>2012-12-28T14:10:39Z</time>
      </trkpt>
      <trkpt lat="44.05665" lon="7.00965">
        <ele>1988.5</ele>
        <time>2012-12-28T14:10:40Z</time>
      </trkpt>
      <trkpt lat="44.05665" lon="7.00965">
        <ele>1988.5</ele>
        <time>2012-12-28T14:10:41Z</time>
      </trkpt>
      <trkpt lat="44.05666" lon="7.00965">
        <ele>1988.6</ele>
        <time>2012-12-28T14:10:42Z</time>
      </trkpt>
      <trkpt lat="44.05666" lon="7.00965">
        <ele>1988.6</ele>
        <time>2012-12-28T14:10:43Z</time>
      </trkpt>
      <trkpt lat="44.05666" lon="7.00966">
        <ele>1988.7</ele>
        <time>2012-12-28T14:10:44Z</time>
      </trkpt>
      <trkpt lat="44.05668" lon="7.00967">
        <ele>1989.1</ele>
        <time>2012-12-28T14:10:49Z</time>
      </trkpt>
      <trkpt lat="44.05669" lon="7.00968">
        <ele>1989.1</ele>
        <time>2012-12-28T14:10:50Z</time>
      </trkpt>
      <trkpt lat="44.05669" lon="7.00969">
        <ele>1988.9</ele>
        <time>2012-12-28T14:10:51Z</time>
      </trkpt>
      <trkpt lat="44.0567" lon="7.0097">
        <ele>1988.9</ele>
        <time>2012-12-28T14:10:52Z</time>
      </trkpt>
      <trkpt lat="44.05671" lon="7.0097">
        <ele>1989.2</ele>
        <time>2012-12-28T14:10:53Z</time>
      </trkpt>
      <trkpt lat="44.05671" lon="7.00971">
        <ele>1989.5</ele>
        <time>2012-12-28T14:10:54Z</time>
      </trkpt>
      <trkpt lat="44.05671" lon="7.00971">
        <ele>1989.5</ele>
        <time>2012-12-28T14:10:55Z</time>
      </trkpt>
      <trkpt lat="44.05672" lon="7.00971">
        <ele>1989.8</ele>
        <time>2012-12-28T14:10:56Z</time>
      </trkpt>
      <trkpt lat="44.05673" lon="7.00972">
        <ele>1990.2</ele>
        <time>2012-12-28T14:10:57Z</time>
      </trkpt>
      <trkpt lat="44.05673" lon="7.00972">
        <ele>1990.2</ele>
        <time>2012-12-28T14:10:58Z</time>
      </trkpt>
      <trkpt lat="44.05674" lon="7.00973">
        <ele>1990.5</ele>
        <time>2012-12-28T14:10:59Z</time>
      </trkpt>
      <trkpt lat="44.05674" lon="7.00973">
        <ele>1990.5</ele>
        <time>2012-12-28T14:11:00Z</time>
      </trkpt>
      <trkpt lat="44.05674" lon="7.00973">
        <ele>1990.8</ele>
        <time>2012-12-28T14:11:01Z</time>
      </trkpt>
      <trkpt lat="44.05674" lon="7.00973">
        <ele>1990.8</ele>
        <time>2012-12-28T14:11:02Z</time>
      </trkpt>
      <trkpt lat="44.05675" lon="7.00973">
        <ele>1991</ele>
        <time>2012-12-28T14:11:03Z</time>
      </trkpt>
      <trkpt lat="44.05676" lon="7.00974">
        <ele>1991.5</ele>
        <time>2012-12-28T14:11:04Z</time>
      </trkpt>
      <trkpt lat="44.05676" lon="7.00974">
        <ele>1991.5</ele>
        <time>2012-12-28T14:11:05Z</time>
      </trkpt>
      <trkpt lat="44.05676" lon="7.00975">
        <ele>1991.8</ele>
        <time>2012-12-28T14:11:06Z</time>
      </trkpt>
      <trkpt lat="44.05676" lon="7.00975">
        <ele>1991.8</ele>
        <time>2012-12-28T14:11:07Z</time>
      </trkpt>
      <trkpt lat="44.05677" lon="7.00975">
        <ele>1992</ele>
        <time>2012-12-28T14:11:08Z</time>
      </trkpt>
      <trkpt lat="44.05687" lon="7.00985">
        <ele>1993.8</ele>
        <time>2012-12-28T14:11:20Z</time>
      </trkpt>
      <trkpt lat="44.05687" lon="7.00986">
        <ele>1993.8</ele>
        <time>2012-12-28T14:11:21Z</time>
      </trkpt>
      <trkpt lat="44.05688" lon="7.00987">
        <ele>1994.2</ele>
        <time>2012-12-28T14:11:22Z</time>
      </trkpt>
      <trkpt lat="44.05689" lon="7.00988">
        <ele>1994.5</ele>
        <time>2012-12-28T14:11:23Z</time>
      </trkpt>
      <trkpt lat="44.0569" lon="7.00989">
        <ele>1994.7</ele>
        <time>2012-12-28T14:11:24Z</time>
      </trkpt>
      <trkpt lat="44.05691" lon="7.0099">
        <ele>1994.9</ele>
        <time>2012-12-28T14:11:25Z</time>
      </trkpt>
      <trkpt lat="44.05691" lon="7.0099">
        <ele>1994.9</ele>
        <time>2012-12-28T14:11:26Z</time>
      </trkpt>
      <trkpt lat="44.05691" lon="7.0099">
        <ele>1994.9</ele>
        <time>2012-12-28T14:11:27Z</time>
      </trkpt>
      <trkpt lat="44.05691" lon="7.0099">
        <ele>1994.9</ele>
        <time>2012-12-28T14:11:28Z</time>
      </trkpt>
      <trkpt lat="44.05692" lon="7.0099">
        <ele>1995.1</ele>
        <time>2012-12-28T14:11:29Z</time>
      </trkpt>
      <trkpt lat="44.05693" lon="7.00991">
        <ele>1995.4</ele>
        <time>2012-12-28T14:11:30Z</time>
      </trkpt>
      <trkpt lat="44.05693" lon="7.00991">
        <ele>1995.4</ele>
        <time>2012-12-28T14:11:31Z</time>
      </trkpt>
      <trkpt lat="44.05694" lon="7.00992">
        <ele>1995.6</ele>
        <time>2012-12-28T14:11:32Z</time>
      </trkpt>
      <trkpt lat="44.05695" lon="7.00993">
        <ele>1995.6</ele>
        <time>2012-12-28T14:11:33Z</time>
      </trkpt>
      <trkpt lat="44.05696" lon="7.00994">
        <ele>1996</ele>
        <time>2012-12-28T14:11:34Z</time>
      </trkpt>
      <trkpt lat="44.05697" lon="7.00995">
        <ele>1996.3</ele>
        <time>2012-12-28T14:11:35Z</time>
      </trkpt>
      <trkpt lat="44.05698" lon="7.00996">
        <ele>1996.6</ele>
        <time>2012-12-28T14:11:36Z</time>
      </trkpt>
      <trkpt lat="44.05699" lon="7.00996">
        <ele>1997</ele>
        <time>2012-12-28T14:11:37Z</time>
      </trkpt>
      <trkpt lat="44.05743" lon="7.01029">
        <ele>2002.6</ele>
        <time>2012-12-28T14:13:14Z</time>
      </trkpt>
      <trkpt lat="44.05743" lon="7.01029">
        <ele>2002.6</ele>
        <time>2012-12-28T14:13:15Z</time>
      </trkpt>
      <trkpt lat="44.05744" lon="7.01029">
        <ele>2002.6</ele>
        <time>2012-12-28T14:13:16Z</time>
      </trkpt>
      <trkpt lat="44.05757" lon="7.01022">
        <ele>2003.8</ele>
        <time>2012-12-28T14:13:37Z</time>
      </trkpt>
      <trkpt lat="44.05775" lon="7.01022">
        <ele>2004.3</ele>
        <time>2012-12-28T14:15:20Z</time>
      </trkpt>
      <trkpt lat="44.05776" lon="7.01022">
        <ele>2004.4</ele>
        <time>2012-12-28T14:15:21Z</time>
      </trkpt>
      <trkpt lat="44.05792" lon="7.01027">
        <ele>2005</ele>
        <time>2012-12-28T14:15:35Z</time>
      </trkpt>
      <trkpt lat="44.05793" lon="7.01027">
        <ele>2005</ele>
        <time>2012-12-28T14:15:36Z</time>
      </trkpt>
      <trkpt lat="44.05794" lon="7.01028">
        <ele>2005.3</ele>
        <time>2012-12-28T14:15:37Z</time>
      </trkpt>
      <trkpt lat="44.05795" lon="7.01028">
        <ele>2005.1</ele>
        <time>2012-12-28T14:15:38Z</time>
      </trkpt>
      <trkpt lat="44.05826" lon="7.01039">
        <ele>2008.3</ele>
        <time>2012-12-28T14:17:12Z</time>
      </trkpt>
      <trkpt lat="44.05827" lon="7.01039">
        <ele>2008.6</ele>
        <time>2012-12-28T14:17:13Z</time>
      </trkpt>
      <trkpt lat="44.05827" lon="7.01039">
        <ele>2008.6</ele>
        <time>2012-12-28T14:17:14Z</time>
      </trkpt>
      <trkpt lat="44.05827" lon="7.01039">
        <ele>2008.6</ele>
        <time>2012-12-28T14:17:15Z</time>
      </trkpt>
      <trkpt lat="44.05827" lon="7.01039">
        <ele>2008.6</ele>
        <time>2012-12-28T14:17:16Z</time>
      </trkpt>
      <trkpt lat="44.05828" lon="7.01039">
        <ele>2008.8</ele>
        <time>2012-12-28T14:17:17Z</time>
      </trkpt>
      <trkpt lat="44.05828" lon="7.01039">
        <ele>2008.8</ele>
        <time>2012-12-28T14:17:18Z</time>
      </trkpt>
      <trkpt lat="44.05828" lon="7.01039">
        <ele>2008.8</ele>
        <time>2012-12-28T14:17:19Z</time>
      </trkpt>
      <trkpt lat="44.05828" lon="7.0104">
        <ele>2008.8</ele>
        <time>2012-12-28T14:17:20Z</time>
      </trkpt>
      <trkpt lat="44.05828" lon="7.0104">
        <ele>2008.8</ele>
        <time>2012-12-28T14:17:21Z</time>
      </trkpt>
      <trkpt lat="44.05829" lon="7.0104">
        <ele>2008.8</ele>
        <time>2012-12-28T14:17:22Z</time>
      </trkpt>
      <trkpt lat="44.05829" lon="7.0104">
        <ele>2008.8</ele>
        <time>2012-12-28T14:17:23Z</time>
      </trkpt>
      <trkpt lat="44.05829" lon="7.0104">
        <ele>2008.8</ele>
        <time>2012-12-28T14:17:24Z</time>
      </trkpt>
      <trkpt lat="44.05829" lon="7.0104">
        <ele>2008.8</ele>
        <time>2012-12-28T14:17:25Z</time>
      </trkpt>
      <trkpt lat="44.05829" lon="7.0104">
        <ele>2008.8</ele>
        <time>2012-12-28T14:17:26Z</time>
      </trkpt>
      <trkpt lat="44.05829" lon="7.0104">
        <ele>2008.8</ele>
        <time>2012-12-28T14:17:27Z</time>
      </trkpt>
      <trkpt lat="44.05829" lon="7.0104">
        <ele>2008.8</ele>
        <time>2012-12-28T14:17:28Z</time>
      </trkpt>
      <trkpt lat="44.05829" lon="7.0104">
        <ele>2008.8</ele>
        <time>2012-12-28T14:17:29Z</time>
      </trkpt>
      <trkpt lat="44.05829" lon="7.0104">
        <ele>2008.8</ele>
        <time>2012-12-28T14:17:30Z</time>
      </trkpt>
      <trkpt lat="44.05829" lon="7.0104">
        <ele>2008.8</ele>
        <time>2012-12-28T14:17:31Z</time>
      </trkpt>
      <trkpt lat="44.05829" lon="7.0104">
        <ele>2008.8</ele>
        <time>2012-12-28T14:17:32Z</time>
      </trkpt>
      <trkpt lat="44.05829" lon="7.0104">
        <ele>2008.8</ele>
        <time>2012-12-28T14:17:33Z</time>
      </trkpt>
      <trkpt lat="44.05829" lon="7.0104">
        <ele>2008.8</ele>
        <time>2012-12-28T14:17:34Z</time>
      </trkpt>
      <trkpt lat="44.05829" lon="7.0104">
        <ele>2008.8</ele>
        <time>2012-12-28T14:17:35Z</time>
      </trkpt>
      <trkpt lat="44.05829" lon="7.0104">
        <ele>2008.8</ele>
        <time>2012-12-28T14:17:36Z</time>
      </trkpt>
      <trkpt lat="44.05829" lon="7.0104">
        <ele>2008.8</ele>
        <time>2012-12-28T14:17:37Z</time>
      </trkpt>
      <trkpt lat="44.05829" lon="7.0104">
        <ele>2008.8</ele>
        <time>2012-12-28T14:17:38Z</time>
      </trkpt>
      <trkpt lat="44.05829" lon="7.0104">
        <ele>2008.8</ele>
        <time>2012-12-28T14:17:39Z</time>
      </trkpt>
      <trkpt lat="44.05829" lon="7.0104">
        <ele>2008.8</ele>
        <time>2012-12-28T14:17:40Z</time>
      </trkpt>
      <trkpt lat="44.05829" lon="7.0104">
        <ele>2008.8</ele>
        <time>2012-12-28T14:17:41Z</time>
      </trkpt>
      <trkpt lat="44.05829" lon="7.01041">
        <ele>2008.7</ele>
        <time>2012-12-28T14:17:42Z</time>
      </trkpt>
      <trkpt lat="44.05829" lon="7.01041">
        <ele>2008.7</ele>
        <time>2012-12-28T14:17:43Z</time>
      </trkpt>
      <trkpt lat="44.05829" lon="7.01041">
        <ele>2008.7</ele>
        <time>2012-12-28T14:17:44Z</time>
      </trkpt>
      <trkpt lat="44.05829" lon="7.01041">
        <ele>2008.7</ele>
        <time>2012-12-28T14:17:45Z</time>
      </trkpt>
      <trkpt lat="44.05829" lon="7.01041">
        <ele>2008.7</ele>
        <time>2012-12-28T14:17:46Z</time>
      </trkpt>
      <trkpt lat="44.05829" lon="7.01041">
        <ele>2008.7</ele>
        <time>2012-12-28T14:17:47Z</time>
      </trkpt>
      <trkpt lat="44.05829" lon="7.01041">
        <ele>2008.7</ele>
        <time>2012-12-28T14:17:48Z</time>
      </trkpt>
      <trkpt lat="44.05829" lon="7.01041">
        <ele>2008.7</ele>
        <time>2012-12-28T14:17:49Z</time>
      </trkpt>
      <trkpt lat="44.05829" lon="7.01041">
        <ele>2008.7</ele>
        <time>2012-12-28T14:17:50Z</time>
      </trkpt>
      <trkpt lat="44.05829" lon="7.01041">
        <ele>2008.7</ele>
        <time>2012-12-28T14:17:51Z</time>
      </trkpt>
      <trkpt lat="44.05829" lon="7.01041">
        <ele>2008.7</ele>
        <time>2012-12-28T14:17:52Z</time>
      </trkpt>
      <trkpt lat="44.05829" lon="7.01041">
        <ele>2008.9</ele>
        <time>2012-12-28T14:17:53Z</time>
      </trkpt>
      <trkpt lat="44.05863" lon="7.0107">
        <ele>2008.7</ele>
        <time>2012-12-28T14:18:36Z</time>
      </trkpt>
      <trkpt lat="44.05864" lon="7.01071">
        <ele>2008.7</ele>
        <time>2012-12-28T14:18:37Z</time>
      </trkpt>
      <trkpt lat="44.05867" lon="7.01071">
        <ele>2008.1</ele>
        <time>2012-12-28T14:18:40Z</time>
      </trkpt>
      <trkpt lat="44.05868" lon="7.01072">
        <ele>2008.2</ele>
        <time>2012-12-28T14:18:41Z</time>
      </trkpt>
      <trkpt lat="44.05898" lon="7.01085">
        <ele>2002.8</ele>
        <time>2012-12-28T14:19:18Z</time>
      </trkpt>
      <trkpt lat="44.05899" lon="7.01086">
        <ele>2002.7</ele>
        <time>2012-12-28T14:19:19Z</time>
      </trkpt>
      <trkpt lat="44.05902" lon="7.01088">
        <ele>2002.6</ele>
        <time>2012-12-28T14:19:22Z</time>
      </trkpt>
      <trkpt lat="44.05904" lon="7.0109">
        <ele>2002.6</ele>
        <time>2012-12-28T14:19:24Z</time>
      </trkpt>
      <trkpt lat="44.05905" lon="7.0109">
        <ele>2002.5</ele>
        <time>2012-12-28T14:19:25Z</time>
      </trkpt>
      <trkpt lat="44.05906" lon="7.01091">
        <ele>2002.3</ele>
        <time>2012-12-28T14:19:26Z</time>
      </trkpt>
      <trkpt lat="44.0591" lon="7.01092">
        <ele>2001.7</ele>
        <time>2012-12-28T14:19:29Z</time>
      </trkpt>
      <trkpt lat="44.05911" lon="7.01093">
        <ele>2001.5</ele>
        <time>2012-12-28T14:19:30Z</time>
      </trkpt>
      <trkpt lat="44.05915" lon="7.01095">
        <ele>2001</ele>
        <time>2012-12-28T14:19:35Z</time>
      </trkpt>
      <trkpt lat="44.05916" lon="7.01096">
        <ele>2000.8</ele>
        <time>2012-12-28T14:19:36Z</time>
      </trkpt>
      <trkpt lat="44.05916" lon="7.01097">
        <ele>2000.9</ele>
        <time>2012-12-28T14:19:37Z</time>
      </trkpt>
      <trkpt lat="44.05917" lon="7.01097">
        <ele>2000.8</ele>
        <time>2012-12-28T14:19:38Z</time>
      </trkpt>
      <trkpt lat="44.05918" lon="7.01098">
        <ele>2000.4</ele>
        <time>2012-12-28T14:19:39Z</time>
      </trkpt>
      <trkpt lat="44.05927" lon="7.0111">
        <ele>1998</ele>
        <time>2012-12-28T14:19:51Z</time>
      </trkpt>
      <trkpt lat="44.05929" lon="7.01113">
        <ele>1997.9</ele>
        <time>2012-12-28T14:19:54Z</time>
      </trkpt>
      <trkpt lat="44.05929" lon="7.01113">
        <ele>1997.9</ele>
        <time>2012-12-28T14:19:55Z</time>
      </trkpt>
      <trkpt lat="44.05929" lon="7.01113">
        <ele>1997.4</ele>
        <time>2012-12-28T14:19:56Z</time>
      </trkpt>
      <trkpt lat="44.0593" lon="7.01114">
        <ele>1997.2</ele>
        <time>2012-12-28T14:19:57Z</time>
      </trkpt>
      <trkpt lat="44.0593" lon="7.01115">
        <ele>1997.3</ele>
        <time>2012-12-28T14:19:58Z</time>
      </trkpt>
      <trkpt lat="44.05931" lon="7.01116">
        <ele>1997.2</ele>
        <time>2012-12-28T14:19:59Z</time>
      </trkpt>
      <trkpt lat="44.05931" lon="7.01116">
        <ele>1997.2</ele>
        <time>2012-12-28T14:20:00Z</time>
      </trkpt>
      <trkpt lat="44.05931" lon="7.01116">
        <ele>1997.2</ele>
        <time>2012-12-28T14:20:01Z</time>
      </trkpt>
      <trkpt lat="44.05931" lon="7.01116">
        <ele>1997.2</ele>
        <time>2012-12-28T14:20:02Z</time>
      </trkpt>
      <trkpt lat="44.05931" lon="7.01116">
        <ele>1997.2</ele>
        <time>2012-12-28T14:20:03Z</time>
      </trkpt>
      <trkpt lat="44.05931" lon="7.01116">
        <ele>1997.2</ele>
        <time>2012-12-28T14:20:04Z</time>
      </trkpt>
      <trkpt lat="44.05931" lon="7.01116">
        <ele>1997.3</ele>
        <time>2012-12-28T14:20:05Z</time>
      </trkpt>
      <trkpt lat="44.05931" lon="7.01116">
        <ele>1997.3</ele>
        <time>2012-12-28T14:20:06Z</time>
      </trkpt>
      <trkpt lat="44.05931" lon="7.01116">
        <ele>1997.3</ele>
        <time>2012-12-28T14:20:07Z</time>
      </trkpt>
      <trkpt lat="44.05932" lon="7.01117">
        <ele>1997.1</ele>
        <time>2012-12-28T14:20:08Z</time>
      </trkpt>
      <trkpt lat="44.05941" lon="7.01127">
        <ele>1996.2</ele>
        <time>2012-12-28T14:20:22Z</time>
      </trkpt>
      <trkpt lat="44.05954" lon="7.01143">
        <ele>1994.2</ele>
        <time>2012-12-28T14:20:40Z</time>
      </trkpt>
      <trkpt lat="44.05954" lon="7.01144">
        <ele>1994.1</ele>
        <time>2012-12-28T14:20:41Z</time>
      </trkpt>
      <trkpt lat="44.05955" lon="7.01145">
        <ele>1994</ele>
        <time>2012-12-28T14:20:42Z</time>
      </trkpt>
      <trkpt lat="44.05958" lon="7.0115">
        <ele>1994.4</ele>
        <time>2012-12-28T14:20:47Z</time>
      </trkpt>
      <trkpt lat="44.05962" lon="7.01154">
        <ele>1994.4</ele>
        <time>2012-12-28T14:20:51Z</time>
      </trkpt>
      <trkpt lat="44.05962" lon="7.01155">
        <ele>1994.1</ele>
        <time>2012-12-28T14:20:52Z</time>
      </trkpt>
      <trkpt lat="44.05964" lon="7.01156">
        <ele>1993.6</ele>
        <time>2012-12-28T14:20:54Z</time>
      </trkpt>
      <trkpt lat="44.05971" lon="7.01165">
        <ele>1994.2</ele>
        <time>2012-12-28T14:21:04Z</time>
      </trkpt>
      <trkpt lat="44.05972" lon="7.01166">
        <ele>1994</ele>
        <time>2012-12-28T14:21:05Z</time>
      </trkpt>
      <trkpt lat="44.05973" lon="7.01168">
        <ele>1993.7</ele>
        <time>2012-12-28T14:21:06Z</time>
      </trkpt>
      <trkpt lat="44.05974" lon="7.01168">
        <ele>1993.7</ele>
        <time>2012-12-28T14:21:07Z</time>
      </trkpt>
      <trkpt lat="44.05977" lon="7.01172">
        <ele>1992.5</ele>
        <time>2012-12-28T14:21:12Z</time>
      </trkpt>
      <trkpt lat="44.05978" lon="7.01173">
        <ele>1992.3</ele>
        <time>2012-12-28T14:21:13Z</time>
      </trkpt>
      <trkpt lat="44.05987" lon="7.01184">
        <ele>1991.6</ele>
        <time>2012-12-28T14:21:27Z</time>
      </trkpt>
      <trkpt lat="44.05988" lon="7.01185">
        <ele>1991.5</ele>
        <time>2012-12-28T14:21:28Z</time>
      </trkpt>
      <trkpt lat="44.06029" lon="7.01262">
        <ele>1989.1</ele>
        <time>2012-12-28T14:23:09Z</time>
      </trkpt>
      <trkpt lat="44.0603" lon="7.01262">
        <ele>1989.1</ele>
        <time>2012-12-28T14:23:10Z</time>
      </trkpt>
      <trkpt lat="44.06033" lon="7.01264">
        <ele>1988.6</ele>
        <time>2012-12-28T14:23:13Z</time>
      </trkpt>
      <trkpt lat="44.06034" lon="7.01264">
        <ele>1988.4</ele>
        <time>2012-12-28T14:23:14Z</time>
      </trkpt>
      <trkpt lat="44.06035" lon="7.01265">
        <ele>1987.8</ele>
        <time>2012-12-28T14:23:16Z</time>
      </trkpt>
      <trkpt lat="44.06036" lon="7.01265">
        <ele>1988</ele>
        <time>2012-12-28T14:23:17Z</time>
      </trkpt>
      <trkpt lat="44.06042" lon="7.01269">
        <ele>1986.7</ele>
        <time>2012-12-28T14:23:26Z</time>
      </trkpt>
      <trkpt lat="44.06043" lon="7.01269">
        <ele>1986.3</ele>
        <time>2012-12-28T14:23:27Z</time>
      </trkpt>
      <trkpt lat="44.06043" lon="7.01269">
        <ele>1986.3</ele>
        <time>2012-12-28T14:23:28Z</time>
      </trkpt>
      <trkpt lat="44.06044" lon="7.0127">
        <ele>1986.3</ele>
        <time>2012-12-28T14:23:29Z</time>
      </trkpt>
      <trkpt lat="44.06044" lon="7.01271">
        <ele>1986.5</ele>
        <time>2012-12-28T14:23:30Z</time>
      </trkpt>
      <trkpt lat="44.06044" lon="7.01272">
        <ele>1986.4</ele>
        <time>2012-12-28T14:23:31Z</time>
      </trkpt>
      <trkpt lat="44.06045" lon="7.01273">
        <ele>1986.3</ele>
        <time>2012-12-28T14:23:32Z</time>
      </trkpt>
      <trkpt lat="44.06045" lon="7.01274">
        <ele>1986.1</ele>
        <time>2012-12-28T14:23:33Z</time>
      </trkpt>
      <trkpt lat="44.06092" lon="7.01396">
        <ele>1969</ele>
        <time>2012-12-28T14:27:45Z</time>
      </trkpt>
      <trkpt lat="44.06093" lon="7.01397">
        <ele>1968.8</ele>
        <time>2012-12-28T14:27:46Z</time>
      </trkpt>
      <trkpt lat="44.06093" lon="7.01397">
        <ele>1968.8</ele>
        <time>2012-12-28T14:27:47Z</time>
      </trkpt>
      <trkpt lat="44.06093" lon="7.01398">
        <ele>1968.6</ele>
        <time>2012-12-28T14:27:48Z</time>
      </trkpt>
      <trkpt lat="44.06094" lon="7.014">
        <ele>1968.2</ele>
        <time>2012-12-28T14:27:49Z</time>
      </trkpt>
      <trkpt lat="44.06094" lon="7.01402">
        <ele>1968.1</ele>
        <time>2012-12-28T14:27:50Z</time>
      </trkpt>
      <trkpt lat="44.06095" lon="7.01404">
        <ele>1967.8</ele>
        <time>2012-12-28T14:27:51Z</time>
      </trkpt>
      <trkpt lat="44.06095" lon="7.01404">
        <ele>1967.8</ele>
        <time>2012-12-28T14:27:52Z</time>
      </trkpt>
      <trkpt lat="44.06095" lon="7.01405">
        <ele>1967.5</ele>
        <time>2012-12-28T14:27:53Z</time>
      </trkpt>
      <trkpt lat="44.06096" lon="7.01406">
        <ele>1966.9</ele>
        <time>2012-12-28T14:27:54Z</time>
      </trkpt>
      <trkpt lat="44.06097" lon="7.0141">
        <ele>1966.5</ele>
        <time>2012-12-28T14:27:57Z</time>
      </trkpt>
      <trkpt lat="44.06098" lon="7.01411">
        <ele>1966.3</ele>
        <time>2012-12-28T14:27:58Z</time>
      </trkpt>
      <trkpt lat="44.06098" lon="7.01412">
        <ele>1966</ele>
        <time>2012-12-28T14:27:59Z</time>
      </trkpt>
      <trkpt lat="44.06099" lon="7.01414">
        <ele>1966</ele>
        <time>2012-12-28T14:28:00Z</time>
      </trkpt>
      <trkpt lat="44.06099" lon="7.01415">
        <ele>1965.7</ele>
        <time>2012-12-28T14:28:01Z</time>
      </trkpt>
      <trkpt lat="44.061" lon="7.01417">
        <ele>1965.7</ele>
        <time>2012-12-28T14:28:02Z</time>
      </trkpt>
      <trkpt lat="44.061" lon="7.01418">
        <ele>1965.8</ele>
        <time>2012-12-28T14:28:03Z</time>
      </trkpt>
      <trkpt lat="44.061" lon="7.0142">
        <ele>1965.5</ele>
        <time>2012-12-28T14:28:04Z</time>
      </trkpt>
      <trkpt lat="44.06101" lon="7.01421">
        <ele>1965.6</ele>
        <time>2012-12-28T14:28:05Z</time>
      </trkpt>
      <trkpt lat="44.06101" lon="7.01423">
        <ele>1965.2</ele>
        <time>2012-12-28T14:28:06Z</time>
      </trkpt>
      <trkpt lat="44.06101" lon="7.01424">
        <ele>1964.7</ele>
        <time>2012-12-28T14:28:07Z</time>
      </trkpt>
      <trkpt lat="44.06102" lon="7.01426">
        <ele>1964.5</ele>
        <time>2012-12-28T14:28:08Z</time>
      </trkpt>
      <trkpt lat="44.06102" lon="7.01426">
        <ele>1964.5</ele>
        <time>2012-12-28T14:28:09Z</time>
      </trkpt>
      <trkpt lat="44.06102" lon="7.01427">
        <ele>1964.3</ele>
        <time>2012-12-28T14:28:10Z</time>
      </trkpt>
      <trkpt lat="44.06103" lon="7.01428">
        <ele>1964.2</ele>
        <time>2012-12-28T14:28:11Z</time>
      </trkpt>
      <trkpt lat="44.06103" lon="7.0143">
        <ele>1964.3</ele>
        <time>2012-12-28T14:28:12Z</time>
      </trkpt>
      <trkpt lat="44.06103" lon="7.0143">
        <ele>1964.3</ele>
        <time>2012-12-28T14:28:13Z</time>
      </trkpt>
      <trkpt lat="44.06103" lon="7.01431">
        <ele>1964.1</ele>
        <time>2012-12-28T14:28:14Z</time>
      </trkpt>
      <trkpt lat="44.06104" lon="7.01432">
        <ele>1963.7</ele>
        <time>2012-12-28T14:28:15Z</time>
      </trkpt>
      <trkpt lat="44.06105" lon="7.01433">
        <ele>1963.7</ele>
        <time>2012-12-28T14:28:16Z</time>
      </trkpt>
      <trkpt lat="44.06105" lon="7.01435">
        <ele>1963.2</ele>
        <time>2012-12-28T14:28:17Z</time>
      </trkpt>
      <trkpt lat="44.06106" lon="7.01436">
        <ele>1962.8</ele>
        <time>2012-12-28T14:28:18Z</time>
      </trkpt>
      <trkpt lat="44.06106" lon="7.01437">
        <ele>1962.6</ele>
        <time>2012-12-28T14:28:19Z</time>
      </trkpt>
      <trkpt lat="44.06107" lon="7.01438">
        <ele>1962.1</ele>
        <time>2012-12-28T14:28:20Z</time>
      </trkpt>
      <trkpt lat="44.06107" lon="7.0144">
        <ele>1961.9</ele>
        <time>2012-12-28T14:28:21Z</time>
      </trkpt>
      <trkpt lat="44.06108" lon="7.01441">
        <ele>1961.7</ele>
        <time>2012-12-28T14:28:22Z</time>
      </trkpt>
      <trkpt lat="44.06108" lon="7.01441">
        <ele>1961.7</ele>
        <time>2012-12-28T14:28:23Z</time>
      </trkpt>
      <trkpt lat="44.06108" lon="7.01441">
        <ele>1961.7</ele>
        <time>2012-12-28T14:28:24Z</time>
      </trkpt>
      <trkpt lat="44.06108" lon="7.01442">
        <ele>1961.6</ele>
        <time>2012-12-28T14:28:25Z</time>
      </trkpt>
      <trkpt lat="44.06108" lon="7.01444">
        <ele>1961.4</ele>
        <time>2012-12-28T14:28:26Z</time>
      </trkpt>
      <trkpt lat="44.06109" lon="7.01445">
        <ele>1961</ele>
        <time>2012-12-28T14:28:27Z</time>
      </trkpt>
      <trkpt lat="44.06109" lon="7.01446">
        <ele>1960.9</ele>
        <time>2012-12-28T14:28:28Z</time>
      </trkpt>
      <trkpt lat="44.06109" lon="7.01447">
        <ele>1960.7</ele>
        <time>2012-12-28T14:28:29Z</time>
      </trkpt>
      <trkpt lat="44.06109" lon="7.01449">
        <ele>1960.5</ele>
        <time>2012-12-28T14:28:30Z</time>
      </trkpt>
      <trkpt lat="44.0611" lon="7.0145">
        <ele>1960.3</ele>
        <time>2012-12-28T14:28:31Z</time>
      </trkpt>
      <trkpt lat="44.0611" lon="7.01451">
        <ele>1960.2</ele>
        <time>2012-12-28T14:28:32Z</time>
      </trkpt>
      <trkpt lat="44.06111" lon="7.01452">
        <ele>1960.1</ele>
        <time>2012-12-28T14:28:33Z</time>
      </trkpt>
      <trkpt lat="44.06111" lon="7.01453">
        <ele>1959.9</ele>
        <time>2012-12-28T14:28:34Z</time>
      </trkpt>
      <trkpt lat="44.06111" lon="7.01454">
        <ele>1959.7</ele>
        <time>2012-12-28T14:28:35Z</time>
      </trkpt>
      <trkpt lat="44.06112" lon="7.01456">
        <ele>1959.6</ele>
        <time>2012-12-28T14:28:36Z</time>
      </trkpt>
      <trkpt lat="44.06112" lon="7.01457">
        <ele>1959.3</ele>
        <time>2012-12-28T14:28:37Z</time>
      </trkpt>
      <trkpt lat="44.06113" lon="7.01458">
        <ele>1959.2</ele>
        <time>2012-12-28T14:28:38Z</time>
      </trkpt>
      <trkpt lat="44.06114" lon="7.01459">
        <ele>1958.9</ele>
        <time>2012-12-28T14:28:39Z</time>
      </trkpt>
      <trkpt lat="44.06114" lon="7.01459">
        <ele>1958.9</ele>
        <time>2012-12-28T14:28:40Z</time>
      </trkpt>
      <trkpt lat="44.06114" lon="7.01459">
        <ele>1958.9</ele>
        <time>2012-12-28T14:28:41Z</time>
      </trkpt>
      <trkpt lat="44.06114" lon="7.01459">
        <ele>1958.9</ele>
        <time>2012-12-28T14:28:42Z</time>
      </trkpt>
      <trkpt lat="44.06114" lon="7.01459">
        <ele>1958.9</ele>
        <time>2012-12-28T14:28:43Z</time>
      </trkpt>
      <trkpt lat="44.06114" lon="7.01459">
        <ele>1958.9</ele>
        <time>2012-12-28T14:28:44Z</time>
      </trkpt>
      <trkpt lat="44.06114" lon="7.0146">
        <ele>1958.6</ele>
        <time>2012-12-28T14:28:45Z</time>
      </trkpt>
      <trkpt lat="44.06114" lon="7.01461">
        <ele>1958.8</ele>
        <time>2012-12-28T14:28:46Z</time>
      </trkpt>
      <trkpt lat="44.06114" lon="7.01463">
        <ele>1958.7</ele>
        <time>2012-12-28T14:28:47Z</time>
      </trkpt>
      <trkpt lat="44.06115" lon="7.01464">
        <ele>1958.8</ele>
        <time>2012-12-28T14:28:48Z</time>
      </trkpt>
      <trkpt lat="44.06125" lon="7.01491">
        <ele>1954.1</ele>
        <time>2012-12-28T14:29:07Z</time>
      </trkpt>
      <trkpt lat="44.06129" lon="7.01502">
        <ele>1953</ele>
        <time>2012-12-28T14:29:15Z</time>
      </trkpt>
      <trkpt lat="44.0613" lon="7.01505">
        <ele>1952.7</ele>
        <time>2012-12-28T14:29:17Z</time>
      </trkpt>
      <trkpt lat="44.0613" lon="7.01511">
        <ele>1951.8</ele>
        <time>2012-12-28T14:29:22Z</time>
      </trkpt>
      <trkpt lat="44.0613" lon="7.01513">
        <ele>1951.4</ele>
        <time>2012-12-28T14:29:23Z</time>
      </trkpt>
      <trkpt lat="44.06131" lon="7.01514">
        <ele>1951.3</ele>
        <time>2012-12-28T14:29:24Z</time>
      </trkpt>
      <trkpt lat="44.06132" lon="7.01515">
        <ele>1950.9</ele>
        <time>2012-12-28T14:29:25Z</time>
      </trkpt>
      <trkpt lat="44.06132" lon="7.01517">
        <ele>1950.6</ele>
        <time>2012-12-28T14:29:26Z</time>
      </trkpt>
      <trkpt lat="44.06132" lon="7.01517">
        <ele>1950.6</ele>
        <time>2012-12-28T14:29:27Z</time>
      </trkpt>
      <trkpt lat="44.06132" lon="7.01517">
        <ele>1950.7</ele>
        <time>2012-12-28T14:29:28Z</time>
      </trkpt>
      <trkpt lat="44.06133" lon="7.01518">
        <ele>1950.7</ele>
        <time>2012-12-28T14:29:29Z</time>
      </trkpt>
      <trkpt lat="44.06135" lon="7.01577">
        <ele>1941.9</ele>
        <time>2012-12-28T14:32:43Z</time>
      </trkpt>
      <trkpt lat="44.06135" lon="7.01578">
        <ele>1941.8</ele>
        <time>2012-12-28T14:32:44Z</time>
      </trkpt>
      <trkpt lat="44.06136" lon="7.01588">
        <ele>1940</ele>
        <time>2012-12-28T14:32:51Z</time>
      </trkpt>
      <trkpt lat="44.06136" lon="7.01589">
        <ele>1939.8</ele>
        <time>2012-12-28T14:32:52Z</time>
      </trkpt>
      <trkpt lat="44.06136" lon="7.01591">
        <ele>1939.4</ele>
        <time>2012-12-28T14:32:53Z</time>
      </trkpt>
      <trkpt lat="44.06136" lon="7.01592">
        <ele>1939.3</ele>
        <time>2012-12-28T14:32:54Z</time>
      </trkpt>
      <trkpt lat="44.06136" lon="7.01594">
        <ele>1939</ele>
        <time>2012-12-28T14:32:55Z</time>
      </trkpt>
      <trkpt lat="44.06136" lon="7.01595">
        <ele>1938.6</ele>
        <time>2012-12-28T14:32:56Z</time>
      </trkpt>
      <trkpt lat="44.06136" lon="7.01597">
        <ele>1938.5</ele>
        <time>2012-12-28T14:32:57Z</time>
      </trkpt>
      <trkpt lat="44.06136" lon="7.01598">
        <ele>1938.3</ele>
        <time>2012-12-28T14:32:58Z</time>
      </trkpt>
      <trkpt lat="44.06137" lon="7.01605">
        <ele>1937.2</ele>
        <time>2012-12-28T14:33:04Z</time>
      </trkpt>
      <trkpt lat="44.06137" lon="7.01606">
        <ele>1936.6</ele>
        <time>2012-12-28T14:33:05Z</time>
      </trkpt>
      <trkpt lat="44.06137" lon="7.01608">
        <ele>1936.2</ele>
        <time>2012-12-28T14:33:06Z</time>
      </trkpt>
      <trkpt lat="44.06137" lon="7.01609">
        <ele>1935.8</ele>
        <time>2012-12-28T14:33:07Z</time>
      </trkpt>
      <trkpt lat="44.06138" lon="7.0161">
        <ele>1935.7</ele>
        <time>2012-12-28T14:33:08Z</time>
      </trkpt>
      <trkpt lat="44.06138" lon="7.01612">
        <ele>1935.6</ele>
        <time>2012-12-28T14:33:09Z</time>
      </trkpt>
      <trkpt lat="44.06138" lon="7.01613">
        <ele>1935.5</ele>
        <time>2012-12-28T14:33:10Z</time>
      </trkpt>
      <trkpt lat="44.06139" lon="7.01625">
        <ele>1932.5</ele>
        <time>2012-12-28T14:33:20Z</time>
      </trkpt>
      <trkpt lat="44.0614" lon="7.01626">
        <ele>1932.3</ele>
        <time>2012-12-28T14:33:21Z</time>
      </trkpt>
      <trkpt lat="44.0614" lon="7.01628">
        <ele>1931.9</ele>
        <time>2012-12-28T14:33:22Z</time>
      </trkpt>
      <trkpt lat="44.06143" lon="7.01637">
        <ele>1930.5</ele>
        <time>2012-12-28T14:33:28Z</time>
      </trkpt>
      <trkpt lat="44.06144" lon="7.01638">
        <ele>1930.4</ele>
        <time>2012-12-28T14:33:29Z</time>
      </trkpt>
      <trkpt lat="44.06145" lon="7.01641">
        <ele>1930</ele>
        <time>2012-12-28T14:33:31Z</time>
      </trkpt>
      <trkpt lat="44.06146" lon="7.01642">
        <ele>1929.7</ele>
        <time>2012-12-28T14:33:32Z</time>
      </trkpt>
      <trkpt lat="44.06148" lon="7.01646">
        <ele>1928.3</ele>
        <time>2012-12-28T14:33:35Z</time>
      </trkpt>
      <trkpt lat="44.06149" lon="7.01647">
        <ele>1928</ele>
        <time>2012-12-28T14:33:36Z</time>
      </trkpt>
      <trkpt lat="44.06149" lon="7.01648">
        <ele>1927.6</ele>
        <time>2012-12-28T14:33:37Z</time>
      </trkpt>
      <trkpt lat="44.06155" lon="7.01654">
        <ele>1925.6</ele>
        <time>2012-12-28T14:33:44Z</time>
      </trkpt>
      <trkpt lat="44.06155" lon="7.01655">
        <ele>1925.3</ele>
        <time>2012-12-28T14:33:45Z</time>
      </trkpt>
      <trkpt lat="44.06156" lon="7.01657">
        <ele>1925</ele>
        <time>2012-12-28T14:33:46Z</time>
      </trkpt>
      <trkpt lat="44.06156" lon="7.01659">
        <ele>1924.4</ele>
        <time>2012-12-28T14:33:47Z</time>
      </trkpt>
      <trkpt lat="44.06157" lon="7.0166">
        <ele>1924.4</ele>
        <time>2012-12-28T14:33:48Z</time>
      </trkpt>
      <trkpt lat="44.06162" lon="7.01666">
        <ele>1923.9</ele>
        <time>2012-12-28T14:33:53Z</time>
      </trkpt>
      <trkpt lat="44.06162" lon="7.01667">
        <ele>1923.7</ele>
        <time>2012-12-28T14:33:54Z</time>
      </trkpt>
      <trkpt lat="44.06167" lon="7.01674">
        <ele>1921.5</ele>
        <time>2012-12-28T14:34:02Z</time>
      </trkpt>
      <trkpt lat="44.06168" lon="7.01675">
        <ele>1921.1</ele>
        <time>2012-12-28T14:34:03Z</time>
      </trkpt>
      <trkpt lat="44.06171" lon="7.01678">
        <ele>1920.4</ele>
        <time>2012-12-28T14:34:06Z</time>
      </trkpt>
      <trkpt lat="44.06172" lon="7.01681">
        <ele>1919.8</ele>
        <time>2012-12-28T14:34:08Z</time>
      </trkpt>
      <trkpt lat="44.06173" lon="7.01682">
        <ele>1919.7</ele>
        <time>2012-12-28T14:34:09Z</time>
      </trkpt>
      <trkpt lat="44.06176" lon="7.01688">
        <ele>1918.6</ele>
        <time>2012-12-28T14:34:15Z</time>
      </trkpt>
      <trkpt lat="44.06177" lon="7.0169">
        <ele>1918.7</ele>
        <time>2012-12-28T14:34:16Z</time>
      </trkpt>
      <trkpt lat="44.06177" lon="7.01691">
        <ele>1918.7</ele>
        <time>2012-12-28T14:34:17Z</time>
      </trkpt>
      <trkpt lat="44.06178" lon="7.01694">
        <ele>1917.9</ele>
        <time>2012-12-28T14:34:19Z</time>
      </trkpt>
      <trkpt lat="44.06181" lon="7.01698">
        <ele>1916.9</ele>
        <time>2012-12-28T14:34:23Z</time>
      </trkpt>
      <trkpt lat="44.06181" lon="7.01699">
        <ele>1916.9</ele>
        <time>2012-12-28T14:34:24Z</time>
      </trkpt>
      <trkpt lat="44.06182" lon="7.017">
        <ele>1916.7</ele>
        <time>2012-12-28T14:34:25Z</time>
      </trkpt>
      <trkpt lat="44.06183" lon="7.01701">
        <ele>1916.3</ele>
        <time>2012-12-28T14:34:26Z</time>
      </trkpt>
      <trkpt lat="44.06184" lon="7.01702">
        <ele>1915.9</ele>
        <time>2012-12-28T14:34:29Z</time>
      </trkpt>
      <trkpt lat="44.06189" lon="7.01714">
        <ele>1913.4</ele>
        <time>2012-12-28T14:34:40Z</time>
      </trkpt>
      <trkpt lat="44.06191" lon="7.01719">
        <ele>1912.7</ele>
        <time>2012-12-28T14:34:44Z</time>
      </trkpt>
      <trkpt lat="44.06193" lon="7.01724">
        <ele>1912.7</ele>
        <time>2012-12-28T14:34:48Z</time>
      </trkpt>
      <trkpt lat="44.06194" lon="7.01725">
        <ele>1912.5</ele>
        <time>2012-12-28T14:34:49Z</time>
      </trkpt>
      <trkpt lat="44.06194" lon="7.01726">
        <ele>1912.5</ele>
        <time>2012-12-28T14:34:50Z</time>
      </trkpt>
      <trkpt lat="44.06197" lon="7.0173">
        <ele>1912.4</ele>
        <time>2012-12-28T14:34:54Z</time>
      </trkpt>
      <trkpt lat="44.06198" lon="7.01731">
        <ele>1912.3</ele>
        <time>2012-12-28T14:34:55Z</time>
      </trkpt>
      <trkpt lat="44.06199" lon="7.01733">
        <ele>1911.8</ele>
        <time>2012-12-28T14:34:57Z</time>
      </trkpt>
      <trkpt lat="44.062" lon="7.01734">
        <ele>1911.6</ele>
        <time>2012-12-28T14:34:58Z</time>
      </trkpt>
      <trkpt lat="44.06202" lon="7.01737">
        <ele>1911</ele>
        <time>2012-12-28T14:35:01Z</time>
      </trkpt>
      <trkpt lat="44.06205" lon="7.01742">
        <ele>1910.3</ele>
        <time>2012-12-28T14:35:05Z</time>
      </trkpt>
      <trkpt lat="44.06205" lon="7.01743">
        <ele>1910.2</ele>
        <time>2012-12-28T14:35:06Z</time>
      </trkpt>
      <trkpt lat="44.06207" lon="7.01745">
        <ele>1909.9</ele>
        <time>2012-12-28T14:35:08Z</time>
      </trkpt>
      <trkpt lat="44.0621" lon="7.01751">
        <ele>1908.9</ele>
        <time>2012-12-28T14:35:12Z</time>
      </trkpt>
      <trkpt lat="44.06212" lon="7.01754">
        <ele>1908.3</ele>
        <time>2012-12-28T14:35:15Z</time>
      </trkpt>
      <trkpt lat="44.06212" lon="7.01755">
        <ele>1908.2</ele>
        <time>2012-12-28T14:35:16Z</time>
      </trkpt>
      <trkpt lat="44.06213" lon="7.01757">
        <ele>1908.1</ele>
        <time>2012-12-28T14:35:19Z</time>
      </trkpt>
      <trkpt lat="44.06215" lon="7.01763">
        <ele>1907.7</ele>
        <time>2012-12-28T14:35:24Z</time>
      </trkpt>
      <trkpt lat="44.06217" lon="7.01766">
        <ele>1908</ele>
        <time>2012-12-28T14:35:26Z</time>
      </trkpt>
      <trkpt lat="44.06217" lon="7.01767">
        <ele>1907.9</ele>
        <time>2012-12-28T14:35:27Z</time>
      </trkpt>
      <trkpt lat="44.06221" lon="7.01774">
        <ele>1907.6</ele>
        <time>2012-12-28T14:35:33Z</time>
      </trkpt>
      <trkpt lat="44.06222" lon="7.01775">
        <ele>1907.5</ele>
        <time>2012-12-28T14:35:34Z</time>
      </trkpt>
      <trkpt lat="44.06224" lon="7.01777">
        <ele>1907.1</ele>
        <time>2012-12-28T14:35:36Z</time>
      </trkpt>
      <trkpt lat="44.06226" lon="7.0178">
        <ele>1906.6</ele>
        <time>2012-12-28T14:35:39Z</time>
      </trkpt>
      <trkpt lat="44.06227" lon="7.01783">
        <ele>1906.5</ele>
        <time>2012-12-28T14:35:41Z</time>
      </trkpt>
      <trkpt lat="44.06228" lon="7.01786">
        <ele>1906</ele>
        <time>2012-12-28T14:35:43Z</time>
      </trkpt>
      <trkpt lat="44.06228" lon="7.01787">
        <ele>1906.2</ele>
        <time>2012-12-28T14:35:44Z</time>
      </trkpt>
      <trkpt lat="44.06228" lon="7.01788">
        <ele>1906.2</ele>
        <time>2012-12-28T14:35:45Z</time>
      </trkpt>
      <trkpt lat="44.06229" lon="7.01791">
        <ele>1905.8</ele>
        <time>2012-12-28T14:35:47Z</time>
      </trkpt>
      <trkpt lat="44.0623" lon="7.01793">
        <ele>1905.8</ele>
        <time>2012-12-28T14:35:49Z</time>
      </trkpt>
      <trkpt lat="44.06231" lon="7.01796">
        <ele>1905.4</ele>
        <time>2012-12-28T14:35:51Z</time>
      </trkpt>
      <trkpt lat="44.06232" lon="7.01797">
        <ele>1905.4</ele>
        <time>2012-12-28T14:35:52Z</time>
      </trkpt>
      <trkpt lat="44.06241" lon="7.01813">
        <ele>1905</ele>
        <time>2012-12-28T14:36:07Z</time>
      </trkpt>
      <trkpt lat="44.06244" lon="7.0182">
        <ele>1904.4</ele>
        <time>2012-12-28T14:36:13Z</time>
      </trkpt>
      <trkpt lat="44.06246" lon="7.01823">
        <ele>1904.6</ele>
        <time>2012-12-28T14:36:16Z</time>
      </trkpt>
      <trkpt lat="44.06251" lon="7.01829">
        <ele>1903.5</ele>
        <time>2012-12-28T14:36:22Z</time>
      </trkpt>
      <trkpt lat="44.06252" lon="7.01829">
        <ele>1903.2</ele>
        <time>2012-12-28T14:36:23Z</time>
      </trkpt>
      <trkpt lat="44.06253" lon="7.01831">
        <ele>1902.7</ele>
        <time>2012-12-28T14:36:24Z</time>
      </trkpt>
      <trkpt lat="44.06254" lon="7.01832">
        <ele>1902.6</ele>
        <time>2012-12-28T14:36:25Z</time>
      </trkpt>
      <trkpt lat="44.06254" lon="7.01833">
        <ele>1902.7</ele>
        <time>2012-12-28T14:36:26Z</time>
      </trkpt>
      <trkpt lat="44.06255" lon="7.01833">
        <ele>1902.4</ele>
        <time>2012-12-28T14:36:27Z</time>
      </trkpt>
      <trkpt lat="44.06259" lon="7.01841">
        <ele>1902.2</ele>
        <time>2012-12-28T14:36:34Z</time>
      </trkpt>
      <trkpt lat="44.0626" lon="7.01842">
        <ele>1901.8</ele>
        <time>2012-12-28T14:36:35Z</time>
      </trkpt>
      <trkpt lat="44.06264" lon="7.01847">
        <ele>1900.3</ele>
        <time>2012-12-28T14:36:41Z</time>
      </trkpt>
      <trkpt lat="44.0628" lon="7.01863">
        <ele>1899.2</ele>
        <time>2012-12-28T14:37:02Z</time>
      </trkpt>
      <trkpt lat="44.06281" lon="7.01864">
        <ele>1899.4</ele>
        <time>2012-12-28T14:37:03Z</time>
      </trkpt>
      <trkpt lat="44.06288" lon="7.01871">
        <ele>1898.6</ele>
        <time>2012-12-28T14:37:13Z</time>
      </trkpt>
      <trkpt lat="44.063" lon="7.01887">
        <ele>1897.7</ele>
        <time>2012-12-28T14:37:33Z</time>
      </trkpt>
      <trkpt lat="44.06301" lon="7.01887">
        <ele>1897.7</ele>
        <time>2012-12-28T14:37:34Z</time>
      </trkpt>
      <trkpt lat="44.06302" lon="7.01887">
        <ele>1897.5</ele>
        <time>2012-12-28T14:37:35Z</time>
      </trkpt>
      <trkpt lat="44.06303" lon="7.01888">
        <ele>1897.4</ele>
        <time>2012-12-28T14:37:36Z</time>
      </trkpt>
      <trkpt lat="44.06305" lon="7.0189">
        <ele>1897.1</ele>
        <time>2012-12-28T14:37:39Z</time>
      </trkpt>
      <trkpt lat="44.0631" lon="7.01895">
        <ele>1896.8</ele>
        <time>2012-12-28T14:37:46Z</time>
      </trkpt>
      <trkpt lat="44.06315" lon="7.01898">
        <ele>1896.2</ele>
        <time>2012-12-28T14:37:52Z</time>
      </trkpt>
      <trkpt lat="44.06328" lon="7.01912">
        <ele>1893.7</ele>
        <time>2012-12-28T14:38:25Z</time>
      </trkpt>
      <trkpt lat="44.06329" lon="7.01914">
        <ele>1893.6</ele>
        <time>2012-12-28T14:38:26Z</time>
      </trkpt>
      <trkpt lat="44.06331" lon="7.01917">
        <ele>1893.7</ele>
        <time>2012-12-28T14:38:29Z</time>
      </trkpt>
      <trkpt lat="44.06336" lon="7.01925">
        <ele>1894.1</ele>
        <time>2012-12-28T14:38:41Z</time>
      </trkpt>
      <trkpt lat="44.06338" lon="7.01926">
        <ele>1893.9</ele>
        <time>2012-12-28T14:38:43Z</time>
      </trkpt>
      <trkpt lat="44.06338" lon="7.01927">
        <ele>1893.7</ele>
        <time>2012-12-28T14:38:44Z</time>
      </trkpt>
      <trkpt lat="44.06343" lon="7.01933">
        <ele>1893.3</ele>
        <time>2012-12-28T14:38:50Z</time>
      </trkpt>
      <trkpt lat="44.06343" lon="7.01934">
        <ele>1893.1</ele>
        <time>2012-12-28T14:38:51Z</time>
      </trkpt>
      <trkpt lat="44.06346" lon="7.01941">
        <ele>1892.6</ele>
        <time>2012-12-28T14:38:57Z</time>
      </trkpt>
      <trkpt lat="44.06347" lon="7.01943">
        <ele>1892.9</ele>
        <time>2012-12-28T14:38:59Z</time>
      </trkpt>
      <trkpt lat="44.06347" lon="7.01944">
        <ele>1892.9</ele>
        <time>2012-12-28T14:39:00Z</time>
      </trkpt>
      <trkpt lat="44.06348" lon="7.01946">
        <ele>1892.8</ele>
        <time>2012-12-28T14:39:01Z</time>
      </trkpt>
      <trkpt lat="44.06348" lon="7.01946">
        <ele>1892.9</ele>
        <time>2012-12-28T14:39:02Z</time>
      </trkpt>
      <trkpt lat="44.06349" lon="7.01947">
        <ele>1892.7</ele>
        <time>2012-12-28T14:39:03Z</time>
      </trkpt>
      <trkpt lat="44.06349" lon="7.01948">
        <ele>1892.6</ele>
        <time>2012-12-28T14:39:04Z</time>
      </trkpt>
      <trkpt lat="44.06351" lon="7.01951">
        <ele>1892</ele>
        <time>2012-12-28T14:39:07Z</time>
      </trkpt>
      <trkpt lat="44.06352" lon="7.01952">
        <ele>1891.8</ele>
        <time>2012-12-28T14:39:08Z</time>
      </trkpt>
      <trkpt lat="44.06353" lon="7.01955">
        <ele>1891.4</ele>
        <time>2012-12-28T14:39:10Z</time>
      </trkpt>
      <trkpt lat="44.06355" lon="7.01958">
        <ele>1891.7</ele>
        <time>2012-12-28T14:39:13Z</time>
      </trkpt>
      <trkpt lat="44.06355" lon="7.01959">
        <ele>1891.7</ele>
        <time>2012-12-28T14:39:14Z</time>
      </trkpt>
      <trkpt lat="44.06357" lon="7.01962">
        <ele>1891.4</ele>
        <time>2012-12-28T14:39:18Z</time>
      </trkpt>
      <trkpt lat="44.06357" lon="7.01963">
        <ele>1891.5</ele>
        <time>2012-12-28T14:39:19Z</time>
      </trkpt>
      <trkpt lat="44.06358" lon="7.01963">
        <ele>1891.3</ele>
        <time>2012-12-28T14:39:20Z</time>
      </trkpt>
      <trkpt lat="44.06362" lon="7.0197">
        <ele>1891.1</ele>
        <time>2012-12-28T14:39:27Z</time>
      </trkpt>
      <trkpt lat="44.06363" lon="7.01971">
        <ele>1890.5</ele>
        <time>2012-12-28T14:39:28Z</time>
      </trkpt>
      <trkpt lat="44.06365" lon="7.01975">
        <ele>1890.2</ele>
        <time>2012-12-28T14:39:32Z</time>
      </trkpt>
      <trkpt lat="44.06368" lon="7.01978">
        <ele>1889.4</ele>
        <time>2012-12-28T14:39:36Z</time>
      </trkpt>
      <trkpt lat="44.0637" lon="7.01982">
        <ele>1889.5</ele>
        <time>2012-12-28T14:39:42Z</time>
      </trkpt>
      <trkpt lat="44.06371" lon="7.01984">
        <ele>1889.7</ele>
        <time>2012-12-28T14:39:44Z</time>
      </trkpt>
      <trkpt lat="44.06372" lon="7.01987">
        <ele>1889.5</ele>
        <time>2012-12-28T14:39:46Z</time>
      </trkpt>
      <trkpt lat="44.06373" lon="7.01989">
        <ele>1889.5</ele>
        <time>2012-12-28T14:39:47Z</time>
      </trkpt>
      <trkpt lat="44.06374" lon="7.01993">
        <ele>1889.6</ele>
        <time>2012-12-28T14:39:50Z</time>
      </trkpt>
      <trkpt lat="44.06376" lon="7.01996">
        <ele>1889.4</ele>
        <time>2012-12-28T14:39:53Z</time>
      </trkpt>
      <trkpt lat="44.06377" lon="7.01997">
        <ele>1889.1</ele>
        <time>2012-12-28T14:39:54Z</time>
      </trkpt>
      <trkpt lat="44.0638" lon="7.02003">
        <ele>1888.6</ele>
        <time>2012-12-28T14:39:59Z</time>
      </trkpt>
      <trkpt lat="44.06381" lon="7.02006">
        <ele>1888.1</ele>
        <time>2012-12-28T14:40:01Z</time>
      </trkpt>
      <trkpt lat="44.06382" lon="7.02007">
        <ele>1887.9</ele>
        <time>2012-12-28T14:40:02Z</time>
      </trkpt>
      <trkpt lat="44.06383" lon="7.02008">
        <ele>1887.6</ele>
        <time>2012-12-28T14:40:03Z</time>
      </trkpt>
      <trkpt lat="44.06383" lon="7.02009">
        <ele>1887.2</ele>
        <time>2012-12-28T14:40:04Z</time>
      </trkpt>
      <trkpt lat="44.06385" lon="7.02012">
        <ele>1887.4</ele>
        <time>2012-12-28T14:40:07Z</time>
      </trkpt>
      <trkpt lat="44.06388" lon="7.02015">
        <ele>1887</ele>
        <time>2012-12-28T14:40:10Z</time>
      </trkpt>
      <trkpt lat="44.06388" lon="7.02017">
        <ele>1886.9</ele>
        <time>2012-12-28T14:40:11Z</time>
      </trkpt>
      <trkpt lat="44.06389" lon="7.02018">
        <ele>1886.9</ele>
        <time>2012-12-28T14:40:12Z</time>
      </trkpt>
      <trkpt lat="44.06389" lon="7.02019">
        <ele>1886.8</ele>
        <time>2012-12-28T14:40:13Z</time>
      </trkpt>
      <trkpt lat="44.0639" lon="7.02021">
        <ele>1887.1</ele>
        <time>2012-12-28T14:40:15Z</time>
      </trkpt>
      <trkpt lat="44.06391" lon="7.02022">
        <ele>1886.9</ele>
        <time>2012-12-28T14:40:16Z</time>
      </trkpt>
      <trkpt lat="44.06395" lon="7.02028">
        <ele>1886.7</ele>
        <time>2012-12-28T14:40:28Z</time>
      </trkpt>
      <trkpt lat="44.06396" lon="7.02029">
        <ele>1886.7</ele>
        <time>2012-12-28T14:40:29Z</time>
      </trkpt>
      <trkpt lat="44.06398" lon="7.02033">
        <ele>1886.1</ele>
        <time>2012-12-28T14:40:33Z</time>
      </trkpt>
      <trkpt lat="44.06425" lon="7.02068">
        <ele>1885.8</ele>
        <time>2012-12-28T14:41:49Z</time>
      </trkpt>
      <trkpt lat="44.06426" lon="7.02069">
        <ele>1885.9</ele>
        <time>2012-12-28T14:41:50Z</time>
      </trkpt>
      <trkpt lat="44.06434" lon="7.02081">
        <ele>1885.4</ele>
        <time>2012-12-28T14:42:15Z</time>
      </trkpt>
      <trkpt lat="44.06435" lon="7.02082">
        <ele>1885.2</ele>
        <time>2012-12-28T14:42:16Z</time>
      </trkpt>
      <trkpt lat="44.06441" lon="7.0209">
        <ele>1885</ele>
        <time>2012-12-28T14:42:24Z</time>
      </trkpt>
      <trkpt lat="44.06467" lon="7.02127">
        <ele>1884.8</ele>
        <time>2012-12-28T14:43:09Z</time>
      </trkpt>
      <trkpt lat="44.06467" lon="7.02128">
        <ele>1884.8</ele>
        <time>2012-12-28T14:43:10Z</time>
      </trkpt>
      <trkpt lat="44.0647" lon="7.02132">
        <ele>1884.3</ele>
        <time>2012-12-28T14:43:15Z</time>
      </trkpt>
      <trkpt lat="44.06478" lon="7.02142">
        <ele>1884.7</ele>
        <time>2012-12-28T14:43:29Z</time>
      </trkpt>
      <trkpt lat="44.06478" lon="7.02143">
        <ele>1885</ele>
        <time>2012-12-28T14:43:30Z</time>
      </trkpt>
      <trkpt lat="44.06478" lon="7.02143">
        <ele>1885</ele>
        <time>2012-12-28T14:43:31Z</time>
      </trkpt>
      <trkpt lat="44.06479" lon="7.02144">
        <ele>1885</ele>
        <time>2012-12-28T14:43:32Z</time>
      </trkpt>
      <trkpt lat="44.0655" lon="7.02235">
        <ele>1899.7</ele>
        <time>2012-12-28T14:46:10Z</time>
      </trkpt>
      <trkpt lat="44.06551" lon="7.02236">
        <ele>1899.8</ele>
        <time>2012-12-28T14:46:11Z</time>
      </trkpt>
      <trkpt lat="44.06566" lon="7.0224">
        <ele>1901.3</ele>
        <time>2012-12-28T14:46:41Z</time>
      </trkpt>
      <trkpt lat="44.06566" lon="7.0224">
        <ele>1901.7</ele>
        <time>2012-12-28T14:46:42Z</time>
      </trkpt>
      <trkpt lat="44.06567" lon="7.0224">
        <ele>1901.8</ele>
        <time>2012-12-28T14:46:43Z</time>
      </trkpt>
      <trkpt lat="44.06567" lon="7.02241">
        <ele>1902.1</ele>
        <time>2012-12-28T14:46:44Z</time>
      </trkpt>
      <trkpt lat="44.06568" lon="7.0224">
        <ele>1901.9</ele>
        <time>2012-12-28T14:46:45Z</time>
      </trkpt>
      <trkpt lat="44.06574" lon="7.02245">
        <ele>1903.6</ele>
        <time>2012-12-28T14:46:59Z</time>
      </trkpt>
      <trkpt lat="44.06574" lon="7.02246">
        <ele>1903.8</ele>
        <time>2012-12-28T14:47:00Z</time>
      </trkpt>
      <trkpt lat="44.06577" lon="7.02249">
        <ele>1905</ele>
        <time>2012-12-28T14:47:08Z</time>
      </trkpt>
      <trkpt lat="44.06577" lon="7.02249">
        <ele>1905</ele>
        <time>2012-12-28T14:47:09Z</time>
      </trkpt>
      <trkpt lat="44.06582" lon="7.02248">
        <ele>1905.5</ele>
        <time>2012-12-28T14:47:16Z</time>
      </trkpt>
      <trkpt lat="44.06583" lon="7.02248">
        <ele>1905.7</ele>
        <time>2012-12-28T14:47:17Z</time>
      </trkpt>
      <trkpt lat="44.06585" lon="7.02248">
        <ele>1905.9</ele>
        <time>2012-12-28T14:47:20Z</time>
      </trkpt>
      <trkpt lat="44.06588" lon="7.02248">
        <ele>1906.2</ele>
        <time>2012-12-28T14:47:24Z</time>
      </trkpt>
      <trkpt lat="44.06594" lon="7.02247">
        <ele>1907.2</ele>
        <time>2012-12-28T14:47:32Z</time>
      </trkpt>
      <trkpt lat="44.06595" lon="7.02248">
        <ele>1907.6</ele>
        <time>2012-12-28T14:47:33Z</time>
      </trkpt>
      <trkpt lat="44.06596" lon="7.02249">
        <ele>1907.8</ele>
        <time>2012-12-28T14:47:34Z</time>
      </trkpt>
      <trkpt lat="44.06597" lon="7.02249">
        <ele>1907.7</ele>
        <time>2012-12-28T14:47:35Z</time>
      </trkpt>
      <trkpt lat="44.06601" lon="7.0225">
        <ele>1908.5</ele>
        <time>2012-12-28T14:47:40Z</time>
      </trkpt>
      <trkpt lat="44.06602" lon="7.0225">
        <ele>1908.9</ele>
        <time>2012-12-28T14:47:41Z</time>
      </trkpt>
      <trkpt lat="44.06602" lon="7.02251">
        <ele>1908.8</ele>
        <time>2012-12-28T14:47:42Z</time>
      </trkpt>
      <trkpt lat="44.06603" lon="7.02251">
        <ele>1909</ele>
        <time>2012-12-28T14:47:43Z</time>
      </trkpt>
      <trkpt lat="44.06604" lon="7.02251">
        <ele>1908.8</ele>
        <time>2012-12-28T14:47:44Z</time>
      </trkpt>
      <trkpt lat="44.06604" lon="7.02252">
        <ele>1909.1</ele>
        <time>2012-12-28T14:47:45Z</time>
      </trkpt>
      <trkpt lat="44.06605" lon="7.02252">
        <ele>1909.1</ele>
        <time>2012-12-28T14:47:46Z</time>
      </trkpt>
      <trkpt lat="44.06605" lon="7.02252">
        <ele>1909.4</ele>
        <time>2012-12-28T14:47:47Z</time>
      </trkpt>
      <trkpt lat="44.06605" lon="7.02252">
        <ele>1909.4</ele>
        <time>2012-12-28T14:47:48Z</time>
      </trkpt>
      <trkpt lat="44.06606" lon="7.02252">
        <ele>1909.5</ele>
        <time>2012-12-28T14:47:49Z</time>
      </trkpt>
      <trkpt lat="44.06606" lon="7.02252">
        <ele>1909.1</ele>
        <time>2012-12-28T14:47:50Z</time>
      </trkpt>
      <trkpt lat="44.06607" lon="7.02252">
        <ele>1909.3</ele>
        <time>2012-12-28T14:47:51Z</time>
      </trkpt>
      <trkpt lat="44.06608" lon="7.02253">
        <ele>1909.2</ele>
        <time>2012-12-28T14:47:52Z</time>
      </trkpt>
      <trkpt lat="44.06609" lon="7.02253">
        <ele>1909.2</ele>
        <time>2012-12-28T14:47:53Z</time>
      </trkpt>
      <trkpt lat="44.06609" lon="7.02253">
        <ele>1909.1</ele>
        <time>2012-12-28T14:47:54Z</time>
      </trkpt>
      <trkpt lat="44.0661" lon="7.02254">
        <ele>1909.1</ele>
        <time>2012-12-28T14:47:55Z</time>
      </trkpt>
      <trkpt lat="44.06611" lon="7.02254">
        <ele>1909.3</ele>
        <time>2012-12-28T14:47:56Z</time>
      </trkpt>
      <trkpt lat="44.06611" lon="7.02254">
        <ele>1909.4</ele>
        <time>2012-12-28T14:47:57Z</time>
      </trkpt>
      <trkpt lat="44.06612" lon="7.02255">
        <ele>1909.5</ele>
        <time>2012-12-28T14:47:58Z</time>
      </trkpt>
      <trkpt lat="44.06613" lon="7.02255">
        <ele>1909.8</ele>
        <time>2012-12-28T14:47:59Z</time>
      </trkpt>
      <trkpt lat="44.06614" lon="7.02255">
        <ele>1910</ele>
        <time>2012-12-28T14:48:00Z</time>
      </trkpt>
      <trkpt lat="44.06614" lon="7.02255">
        <ele>1910.1</ele>
        <time>2012-12-28T14:48:01Z</time>
      </trkpt>
      <trkpt lat="44.06615" lon="7.02255">
        <ele>1910.4</ele>
        <time>2012-12-28T14:48:02Z</time>
      </trkpt>
      <trkpt lat="44.06616" lon="7.02256">
        <ele>1910.6</ele>
        <time>2012-12-28T14:48:03Z</time>
      </trkpt>
      <trkpt lat="44.06616" lon="7.02256">
        <ele>1910.7</ele>
        <time>2012-12-28T14:48:04Z</time>
      </trkpt>
      <trkpt lat="44.06617" lon="7.02257">
        <ele>1910.8</ele>
        <time>2012-12-28T14:48:05Z</time>
      </trkpt>
      <trkpt lat="44.06618" lon="7.02257">
        <ele>1910.8</ele>
        <time>2012-12-28T14:48:06Z</time>
      </trkpt>
      <trkpt lat="44.06618" lon="7.02257">
        <ele>1911</ele>
        <time>2012-12-28T14:48:07Z</time>
      </trkpt>
      <trkpt lat="44.06618" lon="7.02257">
        <ele>1911</ele>
        <time>2012-12-28T14:48:08Z</time>
      </trkpt>
      <trkpt lat="44.06619" lon="7.02257">
        <ele>1910.9</ele>
        <time>2012-12-28T14:48:09Z</time>
      </trkpt>
      <trkpt lat="44.06619" lon="7.02257">
        <ele>1911</ele>
        <time>2012-12-28T14:48:10Z</time>
      </trkpt>
      <trkpt lat="44.0662" lon="7.02257">
        <ele>1911</ele>
        <time>2012-12-28T14:48:11Z</time>
      </trkpt>
      <trkpt lat="44.06633" lon="7.02264">
        <ele>1913.4</ele>
        <time>2012-12-28T14:48:33Z</time>
      </trkpt>
      <trkpt lat="44.06634" lon="7.02264">
        <ele>1913.3</ele>
        <time>2012-12-28T14:48:34Z</time>
      </trkpt>
      <trkpt lat="44.06638" lon="7.0227">
        <ele>1913.7</ele>
        <time>2012-12-28T14:48:42Z</time>
      </trkpt>
      <trkpt lat="44.06639" lon="7.0227">
        <ele>1913.6</ele>
        <time>2012-12-28T14:48:43Z</time>
      </trkpt>
      <trkpt lat="44.06644" lon="7.02276">
        <ele>1913.9</ele>
        <time>2012-12-28T14:48:53Z</time>
      </trkpt>
      <trkpt lat="44.0668" lon="7.02346">
        <ele>1919.7</ele>
        <time>2012-12-28T15:00:46Z</time>
      </trkpt>
      <trkpt lat="44.0668" lon="7.02346">
        <ele>1919.7</ele>
        <time>2012-12-28T15:00:47Z</time>
      </trkpt>
      <trkpt lat="44.0668" lon="7.02347">
        <ele>1919.5</ele>
        <time>2012-12-28T15:00:48Z</time>
      </trkpt>
      <trkpt lat="44.0668" lon="7.02348">
        <ele>1919.7</ele>
        <time>2012-12-28T15:00:49Z</time>
      </trkpt>
      <trkpt lat="44.0668" lon="7.02349">
        <ele>1919.7</ele>
        <time>2012-12-28T15:00:50Z</time>
      </trkpt>
      <trkpt lat="44.0668" lon="7.02349">
        <ele>1919.7</ele>
        <time>2012-12-28T15:00:51Z</time>
      </trkpt>
      <trkpt lat="44.0668" lon="7.0235">
        <ele>1919.3</ele>
        <time>2012-12-28T15:00:52Z</time>
      </trkpt>
      <trkpt lat="44.0668" lon="7.0235">
        <ele>1919.3</ele>
        <time>2012-12-28T15:00:53Z</time>
      </trkpt>
      <trkpt lat="44.0668" lon="7.0235">
        <ele>1919.3</ele>
        <time>2012-12-28T15:00:54Z</time>
      </trkpt>
      <trkpt lat="44.0668" lon="7.0235">
        <ele>1919.3</ele>
        <time>2012-12-28T15:00:55Z</time>
      </trkpt>
      <trkpt lat="44.0668" lon="7.0235">
        <ele>1919.3</ele>
        <time>2012-12-28T15:00:56Z</time>
      </trkpt>
      <trkpt lat="44.0668" lon="7.0235">
        <ele>1919.3</ele>
        <time>2012-12-28T15:00:57Z</time>
      </trkpt>
      <trkpt lat="44.0668" lon="7.0235">
        <ele>1919.3</ele>
        <time>2012-12-28T15:00:58Z</time>
      </trkpt>
      <trkpt lat="44.0668" lon="7.0235">
        <ele>1919.3</ele>
        <time>2012-12-28T15:00:59Z</time>
      </trkpt>
      <trkpt lat="44.0668" lon="7.0235">
        <ele>1919.2</ele>
        <time>2012-12-28T15:01:00Z</time>
      </trkpt>
      <trkpt lat="44.0668" lon="7.02351">
        <ele>1919.2</ele>
        <time>2012-12-28T15:01:01Z</time>
      </trkpt>
      <trkpt lat="44.0668" lon="7.02352">
        <ele>1919</ele>
        <time>2012-12-28T15:01:02Z</time>
      </trkpt>
      <trkpt lat="44.0668" lon="7.02353">
        <ele>1919.2</ele>
        <time>2012-12-28T15:01:03Z</time>
      </trkpt>
      <trkpt lat="44.0668" lon="7.02354">
        <ele>1919.3</ele>
        <time>2012-12-28T15:01:04Z</time>
      </trkpt>
      <trkpt lat="44.0668" lon="7.02355">
        <ele>1919.4</ele>
        <time>2012-12-28T15:01:05Z</time>
      </trkpt>
      <trkpt lat="44.06679" lon="7.02356">
        <ele>1919.5</ele>
        <time>2012-12-28T15:01:06Z</time>
      </trkpt>
      <trkpt lat="44.06679" lon="7.02357">
        <ele>1919.7</ele>
        <time>2012-12-28T15:01:07Z</time>
      </trkpt>
      <trkpt lat="44.06679" lon="7.02358">
        <ele>1919.6</ele>
        <time>2012-12-28T15:01:08Z</time>
      </trkpt>
      <trkpt lat="44.06679" lon="7.02359">
        <ele>1919.3</ele>
        <time>2012-12-28T15:01:09Z</time>
      </trkpt>
      <trkpt lat="44.06679" lon="7.0236">
        <ele>1919.3</ele>
        <time>2012-12-28T15:01:10Z</time>
      </trkpt>
      <trkpt lat="44.06679" lon="7.02361">
        <ele>1919.3</ele>
        <time>2012-12-28T15:01:11Z</time>
      </trkpt>
      <trkpt lat="44.06679" lon="7.02361">
        <ele>1919.4</ele>
        <time>2012-12-28T15:01:12Z</time>
      </trkpt>
      <trkpt lat="44.06679" lon="7.02361">
        <ele>1919.4</ele>
        <time>2012-12-28T15:01:13Z</time>
      </trkpt>
      <trkpt lat="44.06679" lon="7.02362">
        <ele>1919.4</ele>
        <time>2012-12-28T15:01:14Z</time>
      </trkpt>
      <trkpt lat="44.06679" lon="7.02362">
        <ele>1919.3</ele>
        <time>2012-12-28T15:01:15Z</time>
      </trkpt>
      <trkpt lat="44.06679" lon="7.02363">
        <ele>1919.1</ele>
        <time>2012-12-28T15:01:16Z</time>
      </trkpt>
      <trkpt lat="44.06679" lon="7.02365">
        <ele>1918.8</ele>
        <time>2012-12-28T15:01:18Z</time>
      </trkpt>
      <trkpt lat="44.06679" lon="7.02367">
        <ele>1918.6</ele>
        <time>2012-12-28T15:01:19Z</time>
      </trkpt>
      <trkpt lat="44.06679" lon="7.02368">
        <ele>1918.1</ele>
        <time>2012-12-28T15:01:20Z</time>
      </trkpt>
      <trkpt lat="44.0668" lon="7.02371">
        <ele>1917.1</ele>
        <time>2012-12-28T15:01:23Z</time>
      </trkpt>
      <trkpt lat="44.0668" lon="7.02372">
        <ele>1917.3</ele>
        <time>2012-12-28T15:01:24Z</time>
      </trkpt>
      <trkpt lat="44.0668" lon="7.02373">
        <ele>1917.4</ele>
        <time>2012-12-28T15:01:25Z</time>
      </trkpt>
      <trkpt lat="44.06682" lon="7.02378">
        <ele>1917.2</ele>
        <time>2012-12-28T15:01:30Z</time>
      </trkpt>
      <trkpt lat="44.06683" lon="7.02389">
        <ele>1917</ele>
        <time>2012-12-28T15:01:43Z</time>
      </trkpt>
      <trkpt lat="44.06683" lon="7.02403">
        <ele>1916</ele>
        <time>2012-12-28T15:01:55Z</time>
      </trkpt>
      <trkpt lat="44.06683" lon="7.02403">
        <ele>1916</ele>
        <time>2012-12-28T15:01:56Z</time>
      </trkpt>
      <trkpt lat="44.06683" lon="7.02404">
        <ele>1915.7</ele>
        <time>2012-12-28T15:01:57Z</time>
      </trkpt>
      <trkpt lat="44.06683" lon="7.02405">
        <ele>1915.7</ele>
        <time>2012-12-28T15:01:58Z</time>
      </trkpt>
      <trkpt lat="44.06683" lon="7.02406">
        <ele>1915.4</ele>
        <time>2012-12-28T15:01:59Z</time>
      </trkpt>
      <trkpt lat="44.06684" lon="7.02407">
        <ele>1915.3</ele>
        <time>2012-12-28T15:02:00Z</time>
      </trkpt>
      <trkpt lat="44.06684" lon="7.02409">
        <ele>1915.3</ele>
        <time>2012-12-28T15:02:01Z</time>
      </trkpt>
      <trkpt lat="44.06688" lon="7.02424">
        <ele>1913.7</ele>
        <time>2012-12-28T15:02:16Z</time>
      </trkpt>
      <trkpt lat="44.06688" lon="7.02424">
        <ele>1913.7</ele>
        <time>2012-12-28T15:02:17Z</time>
      </trkpt>
      <trkpt lat="44.06688" lon="7.02425">
        <ele>1913.6</ele>
        <time>2012-12-28T15:02:18Z</time>
      </trkpt>
      <trkpt lat="44.06688" lon="7.02426">
        <ele>1913.5</ele>
        <time>2012-12-28T15:02:19Z</time>
      </trkpt>
      <trkpt lat="44.06691" lon="7.02448">
        <ele>1909.9</ele>
        <time>2012-12-28T15:02:42Z</time>
      </trkpt>
      <trkpt lat="44.06691" lon="7.02449">
        <ele>1909.6</ele>
        <time>2012-12-28T15:02:43Z</time>
      </trkpt>
      <trkpt lat="44.06691" lon="7.0245">
        <ele>1909.5</ele>
        <time>2012-12-28T15:02:44Z</time>
      </trkpt>
      <trkpt lat="44.06691" lon="7.02479">
        <ele>1907.1</ele>
        <time>2012-12-28T15:03:10Z</time>
      </trkpt>
      <trkpt lat="44.06691" lon="7.0248">
        <ele>1906.8</ele>
        <time>2012-12-28T15:03:11Z</time>
      </trkpt>
      <trkpt lat="44.06691" lon="7.02481">
        <ele>1906.7</ele>
        <time>2012-12-28T15:03:12Z</time>
      </trkpt>
      <trkpt lat="44.06691" lon="7.02482">
        <ele>1906.6</ele>
        <time>2012-12-28T15:03:13Z</time>
      </trkpt>
      <trkpt lat="44.06697" lon="7.02509">
        <ele>1902.9</ele>
        <time>2012-12-28T15:03:43Z</time>
      </trkpt>
      <trkpt lat="44.06697" lon="7.0251">
        <ele>1902.6</ele>
        <time>2012-12-28T15:03:44Z</time>
      </trkpt>
      <trkpt lat="44.06699" lon="7.02521">
        <ele>1901</ele>
        <time>2012-12-28T15:03:53Z</time>
      </trkpt>
      <trkpt lat="44.06699" lon="7.02526">
        <ele>1900.7</ele>
        <time>2012-12-28T15:03:57Z</time>
      </trkpt>
      <trkpt lat="44.067" lon="7.02527">
        <ele>1900.3</ele>
        <time>2012-12-28T15:03:58Z</time>
      </trkpt>
      <trkpt lat="44.06701" lon="7.02535">
        <ele>1899.5</ele>
        <time>2012-12-28T15:04:05Z</time>
      </trkpt>
      <trkpt lat="44.06702" lon="7.02537">
        <ele>1899.2</ele>
        <time>2012-12-28T15:04:07Z</time>
      </trkpt>
      <trkpt lat="44.06711" lon="7.02561">
        <ele>1895.8</ele>
        <time>2012-12-28T15:04:42Z</time>
      </trkpt>
      <trkpt lat="44.06711" lon="7.02563">
        <ele>1895.8</ele>
        <time>2012-12-28T15:04:43Z</time>
      </trkpt>
      <trkpt lat="44.06721" lon="7.02587">
        <ele>1891.8</ele>
        <time>2012-12-28T15:05:06Z</time>
      </trkpt>
      <trkpt lat="44.06731" lon="7.02612">
        <ele>1887.6</ele>
        <time>2012-12-28T15:05:31Z</time>
      </trkpt>
      <trkpt lat="44.06732" lon="7.02613">
        <ele>1887.5</ele>
        <time>2012-12-28T15:05:32Z</time>
      </trkpt>
      <trkpt lat="44.06737" lon="7.02625">
        <ele>1886.2</ele>
        <time>2012-12-28T15:05:45Z</time>
      </trkpt>
      <trkpt lat="44.06738" lon="7.02627">
        <ele>1886</ele>
        <time>2012-12-28T15:05:46Z</time>
      </trkpt>
      <trkpt lat="44.06739" lon="7.02631">
        <ele>1885</ele>
        <time>2012-12-28T15:05:50Z</time>
      </trkpt>
      <trkpt lat="44.06742" lon="7.02639">
        <ele>1883.9</ele>
        <time>2012-12-28T15:05:57Z</time>
      </trkpt>
      <trkpt lat="44.06743" lon="7.0264">
        <ele>1883.7</ele>
        <time>2012-12-28T15:05:58Z</time>
      </trkpt>
      <trkpt lat="44.06745" lon="7.02649">
        <ele>1882.3</ele>
        <time>2012-12-28T15:06:05Z</time>
      </trkpt>
      <trkpt lat="44.06746" lon="7.02651">
        <ele>1882.3</ele>
        <time>2012-12-28T15:06:06Z</time>
      </trkpt>
      <trkpt lat="44.06748" lon="7.0266">
        <ele>1881.4</ele>
        <time>2012-12-28T15:06:14Z</time>
      </trkpt>
      <trkpt lat="44.06749" lon="7.02661">
        <ele>1880.9</ele>
        <time>2012-12-28T15:06:15Z</time>
      </trkpt>
      <trkpt lat="44.06751" lon="7.02667">
        <ele>1879.8</ele>
        <time>2012-12-28T15:06:28Z</time>
      </trkpt>
      <trkpt lat="44.06754" lon="7.02677">
        <ele>1878.5</ele>
        <time>2012-12-28T15:06:36Z</time>
      </trkpt>
      <trkpt lat="44.06754" lon="7.02678">
        <ele>1878.5</ele>
        <time>2012-12-28T15:06:37Z</time>
      </trkpt>
      <trkpt lat="44.06755" lon="7.02679">
        <ele>1878.3</ele>
        <time>2012-12-28T15:06:38Z</time>
      </trkpt>
      <trkpt lat="44.06755" lon="7.02681">
        <ele>1878.1</ele>
        <time>2012-12-28T15:06:39Z</time>
      </trkpt>
      <trkpt lat="44.06755" lon="7.02682">
        <ele>1877.8</ele>
        <time>2012-12-28T15:06:40Z</time>
      </trkpt>
      <trkpt lat="44.06757" lon="7.02699">
        <ele>1875.8</ele>
        <time>2012-12-28T15:07:57Z</time>
      </trkpt>
      <trkpt lat="44.06757" lon="7.02699">
        <ele>1875.8</ele>
        <time>2012-12-28T15:07:58Z</time>
      </trkpt>
      <trkpt lat="44.06757" lon="7.02704">
        <ele>1874.8</ele>
        <time>2012-12-28T15:08:02Z</time>
      </trkpt>
      <trkpt lat="44.06755" lon="7.02708">
        <ele>1874.6</ele>
        <time>2012-12-28T15:08:06Z</time>
      </trkpt>
      <trkpt lat="44.06755" lon="7.02709">
        <ele>1874.4</ele>
        <time>2012-12-28T15:08:07Z</time>
      </trkpt>
      <trkpt lat="44.06755" lon="7.0271">
        <ele>1874.2</ele>
        <time>2012-12-28T15:08:08Z</time>
      </trkpt>
      <trkpt lat="44.06755" lon="7.02711">
        <ele>1874.4</ele>
        <time>2012-12-28T15:08:09Z</time>
      </trkpt>
      <trkpt lat="44.06754" lon="7.02718">
        <ele>1874</ele>
        <time>2012-12-28T15:08:15Z</time>
      </trkpt>
      <trkpt lat="44.06753" lon="7.02719">
        <ele>1874.2</ele>
        <time>2012-12-28T15:08:16Z</time>
      </trkpt>
      <trkpt lat="44.06751" lon="7.02725">
        <ele>1874.3</ele>
        <time>2012-12-28T15:08:23Z</time>
      </trkpt>
      <trkpt lat="44.0675" lon="7.02729">
        <ele>1874</ele>
        <time>2012-12-28T15:08:26Z</time>
      </trkpt>
      <trkpt lat="44.0675" lon="7.02731">
        <ele>1873.9</ele>
        <time>2012-12-28T15:08:27Z</time>
      </trkpt>
      <trkpt lat="44.06749" lon="7.02732">
        <ele>1874.1</ele>
        <time>2012-12-28T15:08:28Z</time>
      </trkpt>
      <trkpt lat="44.06749" lon="7.02733">
        <ele>1873.9</ele>
        <time>2012-12-28T15:08:29Z</time>
      </trkpt>
      <trkpt lat="44.06749" lon="7.02733">
        <ele>1873.9</ele>
        <time>2012-12-28T15:08:30Z</time>
      </trkpt>
      <trkpt lat="44.06749" lon="7.02734">
        <ele>1873.8</ele>
        <time>2012-12-28T15:08:31Z</time>
      </trkpt>
      <trkpt lat="44.06746" lon="7.02739">
        <ele>1873.6</ele>
        <time>2012-12-28T15:08:41Z</time>
      </trkpt>
      <trkpt lat="44.06744" lon="7.02744">
        <ele>1873.5</ele>
        <time>2012-12-28T15:08:46Z</time>
      </trkpt>
      <trkpt lat="44.06744" lon="7.02745">
        <ele>1873.7</ele>
        <time>2012-12-28T15:08:47Z</time>
      </trkpt>
      <trkpt lat="44.06745" lon="7.02748">
        <ele>1872.5</ele>
        <time>2012-12-28T15:09:05Z</time>
      </trkpt>
      <trkpt lat="44.06746" lon="7.02747">
        <ele>1872.3</ele>
        <time>2012-12-28T15:09:06Z</time>
      </trkpt>
      <trkpt lat="44.06746" lon="7.02747">
        <ele>1872</ele>
        <time>2012-12-28T15:09:07Z</time>
      </trkpt>
      <trkpt lat="44.06747" lon="7.02747">
        <ele>1871.7</ele>
        <time>2012-12-28T15:09:08Z</time>
      </trkpt>
      <trkpt lat="44.0675" lon="7.02746">
        <ele>1871.3</ele>
        <time>2012-12-28T15:09:11Z</time>
      </trkpt>
      <trkpt lat="44.0675" lon="7.02746">
        <ele>1871.7</ele>
        <time>2012-12-28T15:09:12Z</time>
      </trkpt>
      <trkpt lat="44.06751" lon="7.02745">
        <ele>1871.7</ele>
        <time>2012-12-28T15:09:13Z</time>
      </trkpt>
      <trkpt lat="44.06752" lon="7.02744">
        <ele>1871.7</ele>
        <time>2012-12-28T15:09:15Z</time>
      </trkpt>
      <trkpt lat="44.06758" lon="7.0274">
        <ele>1871.7</ele>
        <time>2012-12-28T15:09:23Z</time>
      </trkpt>
      <trkpt lat="44.06759" lon="7.0274">
        <ele>1871.6</ele>
        <time>2012-12-28T15:09:24Z</time>
      </trkpt>
      <trkpt lat="44.06762" lon="7.02737">
        <ele>1871.4</ele>
        <time>2012-12-28T15:09:30Z</time>
      </trkpt>
      <trkpt lat="44.06762" lon="7.02737">
        <ele>1871.1</ele>
        <time>2012-12-28T15:09:31Z</time>
      </trkpt>
      <trkpt lat="44.06764" lon="7.02735">
        <ele>1870.7</ele>
        <time>2012-12-28T15:09:33Z</time>
      </trkpt>
      <trkpt lat="44.06764" lon="7.02735">
        <ele>1870.4</ele>
        <time>2012-12-28T15:09:34Z</time>
      </trkpt>
      <trkpt lat="44.06765" lon="7.02734">
        <ele>1870.3</ele>
        <time>2012-12-28T15:09:35Z</time>
      </trkpt>
      <trkpt lat="44.06766" lon="7.02734">
        <ele>1870.3</ele>
        <time>2012-12-28T15:09:36Z</time>
      </trkpt>
      <trkpt lat="44.06776" lon="7.0273">
        <ele>1868.2</ele>
        <time>2012-12-28T15:09:49Z</time>
      </trkpt>
      <trkpt lat="44.06776" lon="7.0273">
        <ele>1868.2</ele>
        <time>2012-12-28T15:09:50Z</time>
      </trkpt>
      <trkpt lat="44.06777" lon="7.02729">
        <ele>1868.1</ele>
        <time>2012-12-28T15:09:51Z</time>
      </trkpt>
      <trkpt lat="44.06779" lon="7.02728">
        <ele>1867.8</ele>
        <time>2012-12-28T15:09:54Z</time>
      </trkpt>
      <trkpt lat="44.06779" lon="7.02727">
        <ele>1867.6</ele>
        <time>2012-12-28T15:09:55Z</time>
      </trkpt>
      <trkpt lat="44.0678" lon="7.02726">
        <ele>1867</ele>
        <time>2012-12-28T15:09:56Z</time>
      </trkpt>
      <trkpt lat="44.06781" lon="7.02726">
        <ele>1867</ele>
        <time>2012-12-28T15:09:57Z</time>
      </trkpt>
      <trkpt lat="44.06782" lon="7.02726">
        <ele>1866.9</ele>
        <time>2012-12-28T15:09:58Z</time>
      </trkpt>
      <trkpt lat="44.06782" lon="7.02725">
        <ele>1866.9</ele>
        <time>2012-12-28T15:09:59Z</time>
      </trkpt>
      <trkpt lat="44.06783" lon="7.02725">
        <ele>1866.8</ele>
        <time>2012-12-28T15:10:00Z</time>
      </trkpt>
      <trkpt lat="44.06783" lon="7.02725">
        <ele>1866.5</ele>
        <time>2012-12-28T15:10:01Z</time>
      </trkpt>
      <trkpt lat="44.06784" lon="7.02725">
        <ele>1866.4</ele>
        <time>2012-12-28T15:10:02Z</time>
      </trkpt>
      <trkpt lat="44.06784" lon="7.02725">
        <ele>1866.4</ele>
        <time>2012-12-28T15:10:03Z</time>
      </trkpt>
      <trkpt lat="44.06784" lon="7.02725">
        <ele>1866.2</ele>
        <time>2012-12-28T15:10:04Z</time>
      </trkpt>
      <trkpt lat="44.06785" lon="7.02725">
        <ele>1866.1</ele>
        <time>2012-12-28T15:10:05Z</time>
      </trkpt>
      <trkpt lat="44.06786" lon="7.02725">
        <ele>1866</ele>
        <time>2012-12-28T15:10:06Z</time>
      </trkpt>
      <trkpt lat="44.06786" lon="7.02725">
        <ele>1866.1</ele>
        <time>2012-12-28T15:10:07Z</time>
      </trkpt>
      <trkpt lat="44.06818" lon="7.02727">
        <ele>1857.6</ele>
        <time>2012-12-28T15:11:23Z</time>
      </trkpt>
      <trkpt lat="44.06824" lon="7.0273">
        <ele>1856.7</ele>
        <time>2012-12-28T15:11:31Z</time>
      </trkpt>
      <trkpt lat="44.06824" lon="7.0273">
        <ele>1856.7</ele>
        <time>2012-12-28T15:11:32Z</time>
      </trkpt>
      <trkpt lat="44.06825" lon="7.0273">
        <ele>1856.5</ele>
        <time>2012-12-28T15:11:33Z</time>
      </trkpt>
      <trkpt lat="44.06833" lon="7.02732">
        <ele>1855.4</ele>
        <time>2012-12-28T15:11:48Z</time>
      </trkpt>
      <trkpt lat="44.06834" lon="7.02733">
        <ele>1855</ele>
        <time>2012-12-28T15:11:49Z</time>
      </trkpt>
      <trkpt lat="44.06834" lon="7.02733">
        <ele>1855</ele>
        <time>2012-12-28T15:11:50Z</time>
      </trkpt>
      <trkpt lat="44.06834" lon="7.02733">
        <ele>1855</ele>
        <time>2012-12-28T15:11:51Z</time>
      </trkpt>
      <trkpt lat="44.06834" lon="7.02733">
        <ele>1855</ele>
        <time>2012-12-28T15:11:52Z</time>
      </trkpt>
      <trkpt lat="44.06834" lon="7.02733">
        <ele>1854.9</ele>
        <time>2012-12-28T15:11:53Z</time>
      </trkpt>
      <trkpt lat="44.06869" lon="7.02741">
        <ele>1845</ele>
        <time>2012-12-28T15:12:48Z</time>
      </trkpt>
      <trkpt lat="44.06869" lon="7.02741">
        <ele>1845</ele>
        <time>2012-12-28T15:12:49Z</time>
      </trkpt>
      <trkpt lat="44.06869" lon="7.02741">
        <ele>1845</ele>
        <time>2012-12-28T15:12:50Z</time>
      </trkpt>
      <trkpt lat="44.06869" lon="7.02741">
        <ele>1845</ele>
        <time>2012-12-28T15:12:51Z</time>
      </trkpt>
      <trkpt lat="44.06869" lon="7.02741">
        <ele>1845</ele>
        <time>2012-12-28T15:12:52Z</time>
      </trkpt>
      <trkpt lat="44.06869" lon="7.02741">
        <ele>1845</ele>
        <time>2012-12-28T15:12:53Z</time>
      </trkpt>
      <trkpt lat="44.06869" lon="7.02741">
        <ele>1845</ele>
        <time>2012-12-28T15:12:54Z</time>
      </trkpt>
      <trkpt lat="44.06869" lon="7.02741">
        <ele>1844.9</ele>
        <time>2012-12-28T15:12:55Z</time>
      </trkpt>
      <trkpt lat="44.06869" lon="7.02741">
        <ele>1844.9</ele>
        <time>2012-12-28T15:12:56Z</time>
      </trkpt>
      <trkpt lat="44.0687" lon="7.02741">
        <ele>1844.7</ele>
        <time>2012-12-28T15:12:57Z</time>
      </trkpt>
      <trkpt lat="44.06871" lon="7.02741">
        <ele>1844.5</ele>
        <time>2012-12-28T15:12:58Z</time>
      </trkpt>
      <trkpt lat="44.06872" lon="7.0274">
        <ele>1844.2</ele>
        <time>2012-12-28T15:12:59Z</time>
      </trkpt>
      <trkpt lat="44.06874" lon="7.02739">
        <ele>1843.4</ele>
        <time>2012-12-28T15:13:01Z</time>
      </trkpt>
      <trkpt lat="44.06875" lon="7.0274">
        <ele>1843.4</ele>
        <time>2012-12-28T15:13:02Z</time>
      </trkpt>
      <trkpt lat="44.06876" lon="7.0274">
        <ele>1843.3</ele>
        <time>2012-12-28T15:13:03Z</time>
      </trkpt>
      <trkpt lat="44.06877" lon="7.0274">
        <ele>1842.7</ele>
        <time>2012-12-28T15:13:04Z</time>
      </trkpt>
      <trkpt lat="44.06881" lon="7.02739">
        <ele>1842</ele>
        <time>2012-12-28T15:13:08Z</time>
      </trkpt>
      <trkpt lat="44.06882" lon="7.02738">
        <ele>1841.8</ele>
        <time>2012-12-28T15:13:09Z</time>
      </trkpt>
      <trkpt lat="44.06888" lon="7.02741">
        <ele>1839.7</ele>
        <time>2012-12-28T15:13:21Z</time>
      </trkpt>
      <trkpt lat="44.0689" lon="7.02741">
        <ele>1839.5</ele>
        <time>2012-12-28T15:13:22Z</time>
      </trkpt>
      <trkpt lat="44.069" lon="7.02745">
        <ele>1836.3</ele>
        <time>2012-12-28T15:13:54Z</time>
      </trkpt>
      <trkpt lat="44.06901" lon="7.02745">
        <ele>1836.1</ele>
        <time>2012-12-28T15:13:55Z</time>
      </trkpt>
      <trkpt lat="44.06901" lon="7.02745">
        <ele>1836.1</ele>
        <time>2012-12-28T15:13:56Z</time>
      </trkpt>
      <trkpt lat="44.06901" lon="7.02745">
        <ele>1836.1</ele>
        <time>2012-12-28T15:13:57Z</time>
      </trkpt>
      <trkpt lat="44.06901" lon="7.02745">
        <ele>1836.1</ele>
        <time>2012-12-28T15:13:58Z</time>
      </trkpt>
      <trkpt lat="44.06902" lon="7.02745">
        <ele>1836</ele>
        <time>2012-12-28T15:13:59Z</time>
      </trkpt>
      <trkpt lat="44.0692" lon="7.02754">
        <ele>1830.9</ele>
        <time>2012-12-28T15:14:31Z</time>
      </trkpt>
      <trkpt lat="44.06921" lon="7.02754">
        <ele>1830.7</ele>
        <time>2012-12-28T15:14:32Z</time>
      </trkpt>
      <trkpt lat="44.06922" lon="7.02755">
        <ele>1830.5</ele>
        <time>2012-12-28T15:14:33Z</time>
      </trkpt>
      <trkpt lat="44.06924" lon="7.02755">
        <ele>1830.6</ele>
        <time>2012-12-28T15:14:34Z</time>
      </trkpt>
      <trkpt lat="44.06934" lon="7.02757">
        <ele>1827.7</ele>
        <time>2012-12-28T15:14:49Z</time>
      </trkpt>
      <trkpt lat="44.06935" lon="7.02757">
        <ele>1827.4</ele>
        <time>2012-12-28T15:14:50Z</time>
      </trkpt>
      <trkpt lat="44.06936" lon="7.02757">
        <ele>1827</ele>
        <time>2012-12-28T15:14:51Z</time>
      </trkpt>
      <trkpt lat="44.06937" lon="7.02757">
        <ele>1826.8</ele>
        <time>2012-12-28T15:14:52Z</time>
      </trkpt>
      <trkpt lat="44.06939" lon="7.02757">
        <ele>1826.4</ele>
        <time>2012-12-28T15:14:53Z</time>
      </trkpt>
      <trkpt lat="44.0694" lon="7.02756">
        <ele>1826</ele>
        <time>2012-12-28T15:14:54Z</time>
      </trkpt>
      <trkpt lat="44.0694" lon="7.02756">
        <ele>1826</ele>
        <time>2012-12-28T15:14:55Z</time>
      </trkpt>
      <trkpt lat="44.0694" lon="7.02756">
        <ele>1826</ele>
        <time>2012-12-28T15:14:56Z</time>
      </trkpt>
      <trkpt lat="44.06941" lon="7.02756">
        <ele>1825.8</ele>
        <time>2012-12-28T15:14:57Z</time>
      </trkpt>
      <trkpt lat="44.06942" lon="7.02756">
        <ele>1825.8</ele>
        <time>2012-12-28T15:14:58Z</time>
      </trkpt>
      <trkpt lat="44.06954" lon="7.02761">
        <ele>1822.3</ele>
        <time>2012-12-28T15:15:30Z</time>
      </trkpt>
      <trkpt lat="44.06954" lon="7.02761">
        <ele>1822.3</ele>
        <time>2012-12-28T15:15:31Z</time>
      </trkpt>
      <trkpt lat="44.06954" lon="7.02761">
        <ele>1822.3</ele>
        <time>2012-12-28T15:15:32Z</time>
      </trkpt>
      <trkpt lat="44.06954" lon="7.02761">
        <ele>1822.3</ele>
        <time>2012-12-28T15:15:33Z</time>
      </trkpt>
      <trkpt lat="44.06955" lon="7.02761">
        <ele>1821.8</ele>
        <time>2012-12-28T15:15:34Z</time>
      </trkpt>
      <trkpt lat="44.06957" lon="7.02761">
        <ele>1821.4</ele>
        <time>2012-12-28T15:15:38Z</time>
      </trkpt>
      <trkpt lat="44.06958" lon="7.02761">
        <ele>1821.5</ele>
        <time>2012-12-28T15:15:39Z</time>
      </trkpt>
      <trkpt lat="44.06967" lon="7.02768">
        <ele>1820.5</ele>
        <time>2012-12-28T15:15:56Z</time>
      </trkpt>
      <trkpt lat="44.06968" lon="7.02768">
        <ele>1820.3</ele>
        <time>2012-12-28T15:15:57Z</time>
      </trkpt>
      <trkpt lat="44.06969" lon="7.02769">
        <ele>1820</ele>
        <time>2012-12-28T15:15:58Z</time>
      </trkpt>
      <trkpt lat="44.0697" lon="7.0277">
        <ele>1819.9</ele>
        <time>2012-12-28T15:15:59Z</time>
      </trkpt>
      <trkpt lat="44.06971" lon="7.0277">
        <ele>1819.5</ele>
        <time>2012-12-28T15:16:00Z</time>
      </trkpt>
      <trkpt lat="44.06973" lon="7.02771">
        <ele>1819.2</ele>
        <time>2012-12-28T15:16:02Z</time>
      </trkpt>
      <trkpt lat="44.0698" lon="7.02773">
        <ele>1817.5</ele>
        <time>2012-12-28T15:16:10Z</time>
      </trkpt>
      <trkpt lat="44.0698" lon="7.02773">
        <ele>1817.5</ele>
        <time>2012-12-28T15:16:11Z</time>
      </trkpt>
      <trkpt lat="44.0698" lon="7.02773">
        <ele>1817.1</ele>
        <time>2012-12-28T15:16:12Z</time>
      </trkpt>
      <trkpt lat="44.0698" lon="7.02773">
        <ele>1817.1</ele>
        <time>2012-12-28T15:16:13Z</time>
      </trkpt>
      <trkpt lat="44.0698" lon="7.02773">
        <ele>1817.1</ele>
        <time>2012-12-28T15:16:14Z</time>
      </trkpt>
      <trkpt lat="44.06981" lon="7.02773">
        <ele>1816.8</ele>
        <time>2012-12-28T15:16:15Z</time>
      </trkpt>
      <trkpt lat="44.06982" lon="7.02773">
        <ele>1816.5</ele>
        <time>2012-12-28T15:16:16Z</time>
      </trkpt>
      <trkpt lat="44.06983" lon="7.02773">
        <ele>1816</ele>
        <time>2012-12-28T15:16:17Z</time>
      </trkpt>
      <trkpt lat="44.06984" lon="7.02773">
        <ele>1815.2</ele>
        <time>2012-12-28T15:16:18Z</time>
      </trkpt>
      <trkpt lat="44.07002" lon="7.02782">
        <ele>1806.8</ele>
        <time>2012-12-28T15:17:00Z</time>
      </trkpt>
      <trkpt lat="44.07002" lon="7.02782">
        <ele>1806.8</ele>
        <time>2012-12-28T15:17:01Z</time>
      </trkpt>
      <trkpt lat="44.07018" lon="7.02791">
        <ele>1797.2</ele>
        <time>2012-12-28T15:17:56Z</time>
      </trkpt>
      <trkpt lat="44.07018" lon="7.02791">
        <ele>1797.2</ele>
        <time>2012-12-28T15:17:57Z</time>
      </trkpt>
      <trkpt lat="44.07018" lon="7.02791">
        <ele>1797.2</ele>
        <time>2012-12-28T15:17:58Z</time>
      </trkpt>
      <trkpt lat="44.07018" lon="7.02791">
        <ele>1797.2</ele>
        <time>2012-12-28T15:17:59Z</time>
      </trkpt>
      <trkpt lat="44.07018" lon="7.02791">
        <ele>1797.2</ele>
        <time>2012-12-28T15:18:00Z</time>
      </trkpt>
      <trkpt lat="44.07018" lon="7.02791">
        <ele>1797.2</ele>
        <time>2012-12-28T15:18:01Z</time>
      </trkpt>
      <trkpt lat="44.07018" lon="7.02791">
        <ele>1797.2</ele>
        <time>2012-12-28T15:18:02Z</time>
      </trkpt>
      <trkpt lat="44.07018" lon="7.02791">
        <ele>1797.2</ele>
        <time>2012-12-28T15:18:03Z</time>
      </trkpt>
      <trkpt lat="44.07018" lon="7.02791">
        <ele>1797.2</ele>
        <time>2012-12-28T15:18:04Z</time>
      </trkpt>
      <trkpt lat="44.07018" lon="7.02791">
        <ele>1797.2</ele>
        <time>2012-12-28T15:18:05Z</time>
      </trkpt>
      <trkpt lat="44.07018" lon="7.02791">
        <ele>1797.2</ele>
        <time>2012-12-28T15:18:06Z</time>
      </trkpt>
      <trkpt lat="44.07018" lon="7.02791">
        <ele>1797.2</ele>
        <time>2012-12-28T15:18:07Z</time>
      </trkpt>
      <trkpt lat="44.07018" lon="7.02791">
        <ele>1797.2</ele>
        <time>2012-12-28T15:18:08Z</time>
      </trkpt>
      <trkpt lat="44.07018" lon="7.02791">
        <ele>1797.2</ele>
        <time>2012-12-28T15:18:09Z</time>
      </trkpt>
      <trkpt lat="44.07018" lon="7.02791">
        <ele>1797.1</ele>
        <time>2012-12-28T15:18:10Z</time>
      </trkpt>
      <trkpt lat="44.07018" lon="7.02791">
        <ele>1797.1</ele>
        <time>2012-12-28T15:18:11Z</time>
      </trkpt>
      <trkpt lat="44.07018" lon="7.02791">
        <ele>1797.1</ele>
        <time>2012-12-28T15:18:12Z</time>
      </trkpt>
      <trkpt lat="44.07018" lon="7.02791">
        <ele>1797.1</ele>
        <time>2012-12-28T15:18:13Z</time>
      </trkpt>
      <trkpt lat="44.07018" lon="7.02791">
        <ele>1797.1</ele>
        <time>2012-12-28T15:18:14Z</time>
      </trkpt>
      <trkpt lat="44.07018" lon="7.02791">
        <ele>1797.1</ele>
        <time>2012-12-28T15:18:15Z</time>
      </trkpt>
      <trkpt lat="44.07019" lon="7.02792">
        <ele>1796.7</ele>
        <time>2012-12-28T15:18:16Z</time>
      </trkpt>
      <trkpt lat="44.07019" lon="7.02792">
        <ele>1796.7</ele>
        <time>2012-12-28T15:18:17Z</time>
      </trkpt>
      <trkpt lat="44.07019" lon="7.02792">
        <ele>1796.7</ele>
        <time>2012-12-28T15:18:18Z</time>
      </trkpt>
      <trkpt lat="44.07019" lon="7.02792">
        <ele>1796.7</ele>
        <time>2012-12-28T15:18:19Z</time>
      </trkpt>
      <trkpt lat="44.07019" lon="7.02792">
        <ele>1796.7</ele>
        <time>2012-12-28T15:18:20Z</time>
      </trkpt>
      <trkpt lat="44.07019" lon="7.02792">
        <ele>1796.7</ele>
        <time>2012-12-28T15:18:21Z</time>
      </trkpt>
      <trkpt lat="44.07019" lon="7.02792">
        <ele>1796.7</ele>
        <time>2012-12-28T15:18:22Z</time>
      </trkpt>
      <trkpt lat="44.0702" lon="7.02792">
        <ele>1796.7</ele>
        <time>2012-12-28T15:18:23Z</time>
      </trkpt>
      <trkpt lat="44.0702" lon="7.02792">
        <ele>1796.7</ele>
        <time>2012-12-28T15:18:24Z</time>
      </trkpt>
      <trkpt lat="44.0702" lon="7.02792">
        <ele>1796.7</ele>
        <time>2012-12-28T15:18:25Z</time>
      </trkpt>
      <trkpt lat="44.0702" lon="7.02792">
        <ele>1796.7</ele>
        <time>2012-12-28T15:18:26Z</time>
      </trkpt>
      <trkpt lat="44.0702" lon="7.02792">
        <ele>1796.7</ele>
        <time>2012-12-28T15:18:27Z</time>
      </trkpt>
      <trkpt lat="44.0702" lon="7.02792">
        <ele>1796.7</ele>
        <time>2012-12-28T15:18:28Z</time>
      </trkpt>
      <trkpt lat="44.0702" lon="7.02792">
        <ele>1796.7</ele>
        <time>2012-12-28T15:18:29Z</time>
      </trkpt>
      <trkpt lat="44.0702" lon="7.02792">
        <ele>1796.7</ele>
        <time>2012-12-28T15:18:30Z</time>
      </trkpt>
      <trkpt lat="44.0702" lon="7.02793">
        <ele>1796.9</ele>
        <time>2012-12-28T15:18:31Z</time>
      </trkpt>
      <trkpt lat="44.0702" lon="7.02793">
        <ele>1796.9</ele>
        <time>2012-12-28T15:18:32Z</time>
      </trkpt>
      <trkpt lat="44.07021" lon="7.02793">
        <ele>1796.5</ele>
        <time>2012-12-28T15:18:33Z</time>
      </trkpt>
      <trkpt lat="44.07021" lon="7.02793">
        <ele>1796.5</ele>
        <time>2012-12-28T15:18:34Z</time>
      </trkpt>
      <trkpt lat="44.07021" lon="7.02793">
        <ele>1796.5</ele>
        <time>2012-12-28T15:18:35Z</time>
      </trkpt>
      <trkpt lat="44.07021" lon="7.02793">
        <ele>1796.5</ele>
        <time>2012-12-28T15:18:36Z</time>
      </trkpt>
      <trkpt lat="44.07021" lon="7.02793">
        <ele>1796.5</ele>
        <time>2012-12-28T15:18:37Z</time>
      </trkpt>
      <trkpt lat="44.07021" lon="7.02793">
        <ele>1796.5</ele>
        <time>2012-12-28T15:18:38Z</time>
      </trkpt>
      <trkpt lat="44.07021" lon="7.02793">
        <ele>1796.5</ele>
        <time>2012-12-28T15:18:39Z</time>
      </trkpt>
      <trkpt lat="44.07021" lon="7.02793">
        <ele>1796.5</ele>
        <time>2012-12-28T15:18:40Z</time>
      </trkpt>
      <trkpt lat="44.07021" lon="7.02793">
        <ele>1795.9</ele>
        <time>2012-12-28T15:18:41Z</time>
      </trkpt>
      <trkpt lat="44.07021" lon="7.02793">
        <ele>1795.9</ele>
        <time>2012-12-28T15:18:42Z</time>
      </trkpt>
      <trkpt lat="44.07021" lon="7.02793">
        <ele>1795.9</ele>
        <time>2012-12-28T15:18:43Z</time>
      </trkpt>
      <trkpt lat="44.07021" lon="7.02793">
        <ele>1795.9</ele>
        <time>2012-12-28T15:18:44Z</time>
      </trkpt>
      <trkpt lat="44.07021" lon="7.02793">
        <ele>1795.9</ele>
        <time>2012-12-28T15:18:45Z</time>
      </trkpt>
      <trkpt lat="44.07021" lon="7.02793">
        <ele>1795.9</ele>
        <time>2012-12-28T15:18:46Z</time>
      </trkpt>
      <trkpt lat="44.07021" lon="7.02793">
        <ele>1795.9</ele>
        <time>2012-12-28T15:18:47Z</time>
      </trkpt>
      <trkpt lat="44.07021" lon="7.02793">
        <ele>1795.9</ele>
        <time>2012-12-28T15:18:48Z</time>
      </trkpt>
      <trkpt lat="44.07021" lon="7.02793">
        <ele>1795.9</ele>
        <time>2012-12-28T15:18:49Z</time>
      </trkpt>
      <trkpt lat="44.07021" lon="7.02793">
        <ele>1795.9</ele>
        <time>2012-12-28T15:18:50Z</time>
      </trkpt>
      <trkpt lat="44.07021" lon="7.02793">
        <ele>1795.9</ele>
        <time>2012-12-28T15:18:51Z</time>
      </trkpt>
      <trkpt lat="44.07021" lon="7.02793">
        <ele>1795.9</ele>
        <time>2012-12-28T15:18:52Z</time>
      </trkpt>
      <trkpt lat="44.07021" lon="7.02793">
        <ele>1795.9</ele>
        <time>2012-12-28T15:18:53Z</time>
      </trkpt>
      <trkpt lat="44.07021" lon="7.02793">
        <ele>1795.9</ele>
        <time>2012-12-28T15:18:54Z</time>
      </trkpt>
      <trkpt lat="44.07021" lon="7.02793">
        <ele>1795.9</ele>
        <time>2012-12-28T15:18:55Z</time>
      </trkpt>
      <trkpt lat="44.07021" lon="7.02793">
        <ele>1795.9</ele>
        <time>2012-12-28T15:18:56Z</time>
      </trkpt>
      <trkpt lat="44.07021" lon="7.02793">
        <ele>1795.9</ele>
        <time>2012-12-28T15:18:57Z</time>
      </trkpt>
      <trkpt lat="44.07021" lon="7.02793">
        <ele>1795.9</ele>
        <time>2012-12-28T15:18:58Z</time>
      </trkpt>
      <trkpt lat="44.07021" lon="7.02793">
        <ele>1795.9</ele>
        <time>2012-12-28T15:18:59Z</time>
      </trkpt>
      <trkpt lat="44.07021" lon="7.02793">
        <ele>1795.9</ele>
        <time>2012-12-28T15:19:00Z</time>
      </trkpt>
      <trkpt lat="44.07021" lon="7.02793">
        <ele>1795.5</ele>
        <time>2012-12-28T15:19:01Z</time>
      </trkpt>
      <trkpt lat="44.07021" lon="7.02793">
        <ele>1795.5</ele>
        <time>2012-12-28T15:19:02Z</time>
      </trkpt>
      <trkpt lat="44.07021" lon="7.02793">
        <ele>1795.5</ele>
        <time>2012-12-28T15:19:03Z</time>
      </trkpt>
      <trkpt lat="44.07021" lon="7.02793">
        <ele>1795.5</ele>
        <time>2012-12-28T15:19:04Z</time>
      </trkpt>
      <trkpt lat="44.07021" lon="7.02793">
        <ele>1795.5</ele>
        <time>2012-12-28T15:19:05Z</time>
      </trkpt>
      <trkpt lat="44.07022" lon="7.02793">
        <ele>1795</ele>
        <time>2012-12-28T15:19:06Z</time>
      </trkpt>
      <trkpt lat="44.07023" lon="7.02794">
        <ele>1794.4</ele>
        <time>2012-12-28T15:19:21Z</time>
      </trkpt>
      <trkpt lat="44.07024" lon="7.02795">
        <ele>1794.4</ele>
        <time>2012-12-28T15:19:22Z</time>
      </trkpt>
      <trkpt lat="44.07025" lon="7.02796">
        <ele>1794.4</ele>
        <time>2012-12-28T15:19:23Z</time>
      </trkpt>
      <trkpt lat="44.07025" lon="7.02796">
        <ele>1794.4</ele>
        <time>2012-12-28T15:19:24Z</time>
      </trkpt>
      <trkpt lat="44.07025" lon="7.02796">
        <ele>1794.4</ele>
        <time>2012-12-28T15:19:25Z</time>
      </trkpt>
      <trkpt lat="44.07025" lon="7.02796">
        <ele>1794.4</ele>
        <time>2012-12-28T15:19:26Z</time>
      </trkpt>
      <trkpt lat="44.07025" lon="7.02796">
        <ele>1794.4</ele>
        <time>2012-12-28T15:19:27Z</time>
      </trkpt>
      <trkpt lat="44.07026" lon="7.02797">
        <ele>1794.4</ele>
        <time>2012-12-28T15:19:28Z</time>
      </trkpt>
      <trkpt lat="44.07026" lon="7.02798">
        <ele>1794.1</ele>
        <time>2012-12-28T15:19:29Z</time>
      </trkpt>
      <trkpt lat="44.07026" lon="7.02798">
        <ele>1794.1</ele>
        <time>2012-12-28T15:19:30Z</time>
      </trkpt>
      <trkpt lat="44.07026" lon="7.02798">
        <ele>1794.1</ele>
        <time>2012-12-28T15:19:31Z</time>
      </trkpt>
      <trkpt lat="44.07026" lon="7.02798">
        <ele>1794.1</ele>
        <time>2012-12-28T15:19:32Z</time>
      </trkpt>
      <trkpt lat="44.07027" lon="7.02798">
        <ele>1794</ele>
        <time>2012-12-28T15:19:33Z</time>
      </trkpt>
      <trkpt lat="44.07027" lon="7.02798">
        <ele>1794</ele>
        <time>2012-12-28T15:19:34Z</time>
      </trkpt>
      <trkpt lat="44.07027" lon="7.02798">
        <ele>1794</ele>
        <time>2012-12-28T15:19:35Z</time>
      </trkpt>
      <trkpt lat="44.07027" lon="7.02798">
        <ele>1794</ele>
        <time>2012-12-28T15:19:36Z</time>
      </trkpt>
      <trkpt lat="44.07027" lon="7.02798">
        <ele>1794</ele>
        <time>2012-12-28T15:19:37Z</time>
      </trkpt>
      <trkpt lat="44.07027" lon="7.02798">
        <ele>1794</ele>
        <time>2012-12-28T15:19:38Z</time>
      </trkpt>
      <trkpt lat="44.07028" lon="7.02798">
        <ele>1794</ele>
        <time>2012-12-28T15:19:39Z</time>
      </trkpt>
      <trkpt lat="44.07028" lon="7.02798">
        <ele>1794</ele>
        <time>2012-12-28T15:19:40Z</time>
      </trkpt>
      <trkpt lat="44.07028" lon="7.02798">
        <ele>1794</ele>
        <time>2012-12-28T15:19:41Z</time>
      </trkpt>
      <trkpt lat="44.07028" lon="7.02798">
        <ele>1794</ele>
        <time>2012-12-28T15:19:42Z</time>
      </trkpt>
      <trkpt lat="44.07028" lon="7.02799">
        <ele>1793.8</ele>
        <time>2012-12-28T15:19:43Z</time>
      </trkpt>
      <trkpt lat="44.07028" lon="7.02799">
        <ele>1793.8</ele>
        <time>2012-12-28T15:19:44Z</time>
      </trkpt>
      <trkpt lat="44.07028" lon="7.02799">
        <ele>1793.8</ele>
        <time>2012-12-28T15:19:45Z</time>
      </trkpt>
      <trkpt lat="44.07028" lon="7.02799">
        <ele>1793.8</ele>
        <time>2012-12-28T15:19:46Z</time>
      </trkpt>
      <trkpt lat="44.07029" lon="7.028">
        <ele>1793.7</ele>
        <time>2012-12-28T15:19:47Z</time>
      </trkpt>
      <trkpt lat="44.07029" lon="7.028">
        <ele>1793.7</ele>
        <time>2012-12-28T15:19:48Z</time>
      </trkpt>
      <trkpt lat="44.0703" lon="7.028">
        <ele>1793.6</ele>
        <time>2012-12-28T15:19:49Z</time>
      </trkpt>
      <trkpt lat="44.0703" lon="7.028">
        <ele>1793.6</ele>
        <time>2012-12-28T15:19:50Z</time>
      </trkpt>
      <trkpt lat="44.0703" lon="7.02801">
        <ele>1793.8</ele>
        <time>2012-12-28T15:19:51Z</time>
      </trkpt>
      <trkpt lat="44.07031" lon="7.02802">
        <ele>1793.8</ele>
        <time>2012-12-28T15:19:52Z</time>
      </trkpt>
      <trkpt lat="44.07031" lon="7.02802">
        <ele>1793.5</ele>
        <time>2012-12-28T15:19:53Z</time>
      </trkpt>
      <trkpt lat="44.07031" lon="7.02802">
        <ele>1793.5</ele>
        <time>2012-12-28T15:19:54Z</time>
      </trkpt>
      <trkpt lat="44.07032" lon="7.02803">
        <ele>1793.5</ele>
        <time>2012-12-28T15:19:55Z</time>
      </trkpt>
      <trkpt lat="44.07032" lon="7.02803">
        <ele>1793.5</ele>
        <time>2012-12-28T15:19:56Z</time>
      </trkpt>
      <trkpt lat="44.07032" lon="7.02803">
        <ele>1793.5</ele>
        <time>2012-12-28T15:19:57Z</time>
      </trkpt>
      <trkpt lat="44.07032" lon="7.02803">
        <ele>1793.5</ele>
        <time>2012-12-28T15:19:58Z</time>
      </trkpt>
      <trkpt lat="44.07033" lon="7.02803">
        <ele>1793.3</ele>
        <time>2012-12-28T15:19:59Z</time>
      </trkpt>
      <trkpt lat="44.07034" lon="7.02804">
        <ele>1792.6</ele>
        <time>2012-12-28T15:20:00Z</time>
      </trkpt>
      <trkpt lat="44.07034" lon="7.02804">
        <ele>1792.6</ele>
        <time>2012-12-28T15:20:01Z</time>
      </trkpt>
      <trkpt lat="44.07035" lon="7.02805">
        <ele>1792.8</ele>
        <time>2012-12-28T15:20:02Z</time>
      </trkpt>
      <trkpt lat="44.07036" lon="7.02806">
        <ele>1792.8</ele>
        <time>2012-12-28T15:20:03Z</time>
      </trkpt>
      <trkpt lat="44.07036" lon="7.02806">
        <ele>1792.4</ele>
        <time>2012-12-28T15:20:04Z</time>
      </trkpt>
      <trkpt lat="44.07037" lon="7.02807">
        <ele>1792.3</ele>
        <time>2012-12-28T15:20:05Z</time>
      </trkpt>
      <trkpt lat="44.07038" lon="7.02808">
        <ele>1792.4</ele>
        <time>2012-12-28T15:20:06Z</time>
      </trkpt>
      <trkpt lat="44.07039" lon="7.02809">
        <ele>1792.8</ele>
        <time>2012-12-28T15:20:07Z</time>
      </trkpt>
      <trkpt lat="44.07039" lon="7.02809">
        <ele>1792.8</ele>
        <time>2012-12-28T15:20:08Z</time>
      </trkpt>
      <trkpt lat="44.0704" lon="7.02809">
        <ele>1792.6</ele>
        <time>2012-12-28T15:20:09Z</time>
      </trkpt>
      <trkpt lat="44.07041" lon="7.0281">
        <ele>1791.7</ele>
        <time>2012-12-28T15:20:10Z</time>
      </trkpt>
      <trkpt lat="44.07042" lon="7.0281">
        <ele>1791</ele>
        <time>2012-12-28T15:20:11Z</time>
      </trkpt>
      <trkpt lat="44.07042" lon="7.0281">
        <ele>1791</ele>
        <time>2012-12-28T15:20:12Z</time>
      </trkpt>
      <trkpt lat="44.07042" lon="7.0281">
        <ele>1791</ele>
        <time>2012-12-28T15:20:13Z</time>
      </trkpt>
      <trkpt lat="44.07043" lon="7.02811">
        <ele>1790.7</ele>
        <time>2012-12-28T15:20:14Z</time>
      </trkpt>
      <trkpt lat="44.07044" lon="7.02812">
        <ele>1790.7</ele>
        <time>2012-12-28T15:20:15Z</time>
      </trkpt>
      <trkpt lat="44.07045" lon="7.02813">
        <ele>1791</ele>
        <time>2012-12-28T15:20:16Z</time>
      </trkpt>
      <trkpt lat="44.07045" lon="7.02813">
        <ele>1791</ele>
        <time>2012-12-28T15:20:17Z</time>
      </trkpt>
      <trkpt lat="44.07045" lon="7.02813">
        <ele>1791</ele>
        <time>2012-12-28T15:20:18Z</time>
      </trkpt>
      <trkpt lat="44.07045" lon="7.02813">
        <ele>1791</ele>
        <time>2012-12-28T15:20:19Z</time>
      </trkpt>
      <trkpt lat="44.07046" lon="7.02813">
        <ele>1790.6</ele>
        <time>2012-12-28T15:20:20Z</time>
      </trkpt>
      <trkpt lat="44.07046" lon="7.02813">
        <ele>1790.6</ele>
        <time>2012-12-28T15:20:21Z</time>
      </trkpt>
      <trkpt lat="44.07046" lon="7.02814">
        <ele>1790.4</ele>
        <time>2012-12-28T15:20:22Z</time>
      </trkpt>
      <trkpt lat="44.07047" lon="7.02815">
        <ele>1790.3</ele>
        <time>2012-12-28T15:20:23Z</time>
      </trkpt>
      <trkpt lat="44.07049" lon="7.02815">
        <ele>1789.9</ele>
        <time>2012-12-28T15:20:24Z</time>
      </trkpt>
      <trkpt lat="44.0705" lon="7.02816">
        <ele>1789.6</ele>
        <time>2012-12-28T15:20:25Z</time>
      </trkpt>
      <trkpt lat="44.07051" lon="7.02817">
        <ele>1789.3</ele>
        <time>2012-12-28T15:20:26Z</time>
      </trkpt>
      <trkpt lat="44.07053" lon="7.02818">
        <ele>1789.1</ele>
        <time>2012-12-28T15:20:27Z</time>
      </trkpt>
      <trkpt lat="44.07053" lon="7.02818">
        <ele>1789.1</ele>
        <time>2012-12-28T15:20:28Z</time>
      </trkpt>
      <trkpt lat="44.07054" lon="7.02818">
        <ele>1788.8</ele>
        <time>2012-12-28T15:20:29Z</time>
      </trkpt>
      <trkpt lat="44.07055" lon="7.02819">
        <ele>1787.9</ele>
        <time>2012-12-28T15:20:30Z</time>
      </trkpt>
      <trkpt lat="44.07056" lon="7.0282">
        <ele>1787.8</ele>
        <time>2012-12-28T15:20:31Z</time>
      </trkpt>
      <trkpt lat="44.07056" lon="7.0282">
        <ele>1787.8</ele>
        <time>2012-12-28T15:20:32Z</time>
      </trkpt>
      <trkpt lat="44.07057" lon="7.0282">
        <ele>1787.6</ele>
        <time>2012-12-28T15:20:33Z</time>
      </trkpt>
      <trkpt lat="44.07057" lon="7.0282">
        <ele>1787.6</ele>
        <time>2012-12-28T15:20:34Z</time>
      </trkpt>
      <trkpt lat="44.07057" lon="7.0282">
        <ele>1787.6</ele>
        <time>2012-12-28T15:20:35Z</time>
      </trkpt>
      <trkpt lat="44.07057" lon="7.0282">
        <ele>1787.6</ele>
        <time>2012-12-28T15:20:36Z</time>
      </trkpt>
      <trkpt lat="44.07057" lon="7.0282">
        <ele>1787.6</ele>
        <time>2012-12-28T15:20:37Z</time>
      </trkpt>
      <trkpt lat="44.07058" lon="7.02821">
        <ele>1787.8</ele>
        <time>2012-12-28T15:20:38Z</time>
      </trkpt>
      <trkpt lat="44.07058" lon="7.02821">
        <ele>1787.8</ele>
        <time>2012-12-28T15:20:43Z</time>
      </trkpt>
      <trkpt lat="44.07059" lon="7.02822">
        <ele>1787.2</ele>
        <time>2012-12-28T15:20:44Z</time>
      </trkpt>
      <trkpt lat="44.0706" lon="7.02823">
        <ele>1787</ele>
        <time>2012-12-28T15:20:45Z</time>
      </trkpt>
      <trkpt lat="44.0706" lon="7.02823">
        <ele>1787</ele>
        <time>2012-12-28T15:20:46Z</time>
      </trkpt>
      <trkpt lat="44.0706" lon="7.02823">
        <ele>1787</ele>
        <time>2012-12-28T15:20:47Z</time>
      </trkpt>
      <trkpt lat="44.07061" lon="7.02823">
        <ele>1786.7</ele>
        <time>2012-12-28T15:20:48Z</time>
      </trkpt>
      <trkpt lat="44.07062" lon="7.02824">
        <ele>1786.3</ele>
        <time>2012-12-28T15:20:49Z</time>
      </trkpt>
      <trkpt lat="44.07064" lon="7.02824">
        <ele>1785.8</ele>
        <time>2012-12-28T15:20:50Z</time>
      </trkpt>
      <trkpt lat="44.07065" lon="7.02825">
        <ele>1785.5</ele>
        <time>2012-12-28T15:20:51Z</time>
      </trkpt>
      <trkpt lat="44.07066" lon="7.02825">
        <ele>1785.2</ele>
        <time>2012-12-28T15:20:52Z</time>
      </trkpt>
      <trkpt lat="44.07069" lon="7.02825">
        <ele>1784.6</ele>
        <time>2012-12-28T15:20:54Z</time>
      </trkpt>
      <trkpt lat="44.07071" lon="7.02825">
        <ele>1784.1</ele>
        <time>2012-12-28T15:20:55Z</time>
      </trkpt>
      <trkpt lat="44.07073" lon="7.02825">
        <ele>1783.2</ele>
        <time>2012-12-28T15:20:56Z</time>
      </trkpt>
      <trkpt lat="44.07074" lon="7.02826">
        <ele>1782.6</ele>
        <time>2012-12-28T15:20:57Z</time>
      </trkpt>
      <trkpt lat="44.07075" lon="7.02828">
        <ele>1781.6</ele>
        <time>2012-12-28T15:20:58Z</time>
      </trkpt>
      <trkpt lat="44.07076" lon="7.02829">
        <ele>1781.1</ele>
        <time>2012-12-28T15:20:59Z</time>
      </trkpt>
      <trkpt lat="44.07077" lon="7.0283">
        <ele>1780.6</ele>
        <time>2012-12-28T15:21:00Z</time>
      </trkpt>
      <trkpt lat="44.07084" lon="7.02831">
        <ele>1778.6</ele>
        <time>2012-12-28T15:21:10Z</time>
      </trkpt>
      <trkpt lat="44.07084" lon="7.02831">
        <ele>1778.6</ele>
        <time>2012-12-28T15:21:11Z</time>
      </trkpt>
      <trkpt lat="44.07084" lon="7.02831">
        <ele>1778.6</ele>
        <time>2012-12-28T15:21:12Z</time>
      </trkpt>
      <trkpt lat="44.07084" lon="7.02832">
        <ele>1778.5</ele>
        <time>2012-12-28T15:21:13Z</time>
      </trkpt>
      <trkpt lat="44.07086" lon="7.02832">
        <ele>1778.1</ele>
        <time>2012-12-28T15:21:14Z</time>
      </trkpt>
      <trkpt lat="44.07088" lon="7.02832">
        <ele>1777.3</ele>
        <time>2012-12-28T15:21:17Z</time>
      </trkpt>
      <trkpt lat="44.07101" lon="7.02831">
        <ele>1772.7</ele>
        <time>2012-12-28T15:21:35Z</time>
      </trkpt>
      <trkpt lat="44.07106" lon="7.0283">
        <ele>1770.2</ele>
        <time>2012-12-28T15:21:46Z</time>
      </trkpt>
      <trkpt lat="44.07107" lon="7.0283">
        <ele>1769.5</ele>
        <time>2012-12-28T15:21:47Z</time>
      </trkpt>
      <trkpt lat="44.07108" lon="7.0283">
        <ele>1768.5</ele>
        <time>2012-12-28T15:21:48Z</time>
      </trkpt>
      <trkpt lat="44.0711" lon="7.0283">
        <ele>1767.4</ele>
        <time>2012-12-28T15:21:49Z</time>
      </trkpt>
      <trkpt lat="44.07112" lon="7.0283">
        <ele>1766.5</ele>
        <time>2012-12-28T15:21:50Z</time>
      </trkpt>
      <trkpt lat="44.07114" lon="7.02829">
        <ele>1765.7</ele>
        <time>2012-12-28T15:21:57Z</time>
      </trkpt>
      <trkpt lat="44.07115" lon="7.02829">
        <ele>1765.1</ele>
        <time>2012-12-28T15:21:58Z</time>
      </trkpt>
      <trkpt lat="44.07116" lon="7.0283">
        <ele>1764.6</ele>
        <time>2012-12-28T15:21:59Z</time>
      </trkpt>
      <trkpt lat="44.07116" lon="7.0283">
        <ele>1764.6</ele>
        <time>2012-12-28T15:22:00Z</time>
      </trkpt>
      <trkpt lat="44.07117" lon="7.0283">
        <ele>1764.5</ele>
        <time>2012-12-28T15:22:01Z</time>
      </trkpt>
      <trkpt lat="44.07119" lon="7.0283">
        <ele>1764.3</ele>
        <time>2012-12-28T15:22:02Z</time>
      </trkpt>
      <trkpt lat="44.0712" lon="7.0283">
        <ele>1763.9</ele>
        <time>2012-12-28T15:22:03Z</time>
      </trkpt>
      <trkpt lat="44.0712" lon="7.0283">
        <ele>1763.9</ele>
        <time>2012-12-28T15:22:04Z</time>
      </trkpt>
      <trkpt lat="44.07121" lon="7.0283">
        <ele>1763.4</ele>
        <time>2012-12-28T15:22:05Z</time>
      </trkpt>
      <trkpt lat="44.07122" lon="7.0283">
        <ele>1763</ele>
        <time>2012-12-28T15:22:06Z</time>
      </trkpt>
      <trkpt lat="44.07124" lon="7.02831">
        <ele>1761.5</ele>
        <time>2012-12-28T15:22:09Z</time>
      </trkpt>
      <trkpt lat="44.07125" lon="7.02831">
        <ele>1760.5</ele>
        <time>2012-12-28T15:22:11Z</time>
      </trkpt>
      <trkpt lat="44.07139" lon="7.02833">
        <ele>1754.6</ele>
        <time>2012-12-28T15:22:27Z</time>
      </trkpt>
      <trkpt lat="44.0714" lon="7.02834">
        <ele>1754.7</ele>
        <time>2012-12-28T15:22:28Z</time>
      </trkpt>
      <trkpt lat="44.07148" lon="7.02837">
        <ele>1751.2</ele>
        <time>2012-12-28T15:23:07Z</time>
      </trkpt>
      <trkpt lat="44.07148" lon="7.02837">
        <ele>1751.2</ele>
        <time>2012-12-28T15:23:08Z</time>
      </trkpt>
      <trkpt lat="44.07148" lon="7.02837">
        <ele>1751.2</ele>
        <time>2012-12-28T15:23:09Z</time>
      </trkpt>
      <trkpt lat="44.07148" lon="7.02837">
        <ele>1751.2</ele>
        <time>2012-12-28T15:23:10Z</time>
      </trkpt>
      <trkpt lat="44.07149" lon="7.02837">
        <ele>1750.9</ele>
        <time>2012-12-28T15:23:11Z</time>
      </trkpt>
      <trkpt lat="44.07153" lon="7.02839">
        <ele>1750.5</ele>
        <time>2012-12-28T15:23:16Z</time>
      </trkpt>
      <trkpt lat="44.07154" lon="7.0284">
        <ele>1749.8</ele>
        <time>2012-12-28T15:23:17Z</time>
      </trkpt>
      <trkpt lat="44.07157" lon="7.02841">
        <ele>1748.9</ele>
        <time>2012-12-28T15:23:19Z</time>
      </trkpt>
      <trkpt lat="44.07158" lon="7.02842">
        <ele>1748.6</ele>
        <time>2012-12-28T15:23:20Z</time>
      </trkpt>
      <trkpt lat="44.07159" lon="7.02843">
        <ele>1748.6</ele>
        <time>2012-12-28T15:23:21Z</time>
      </trkpt>
      <trkpt lat="44.0716" lon="7.02844">
        <ele>1748.2</ele>
        <time>2012-12-28T15:23:22Z</time>
      </trkpt>
      <trkpt lat="44.07162" lon="7.02845">
        <ele>1747.8</ele>
        <time>2012-12-28T15:23:23Z</time>
      </trkpt>
      <trkpt lat="44.07163" lon="7.02846">
        <ele>1747.7</ele>
        <time>2012-12-28T15:23:24Z</time>
      </trkpt>
      <trkpt lat="44.07163" lon="7.02846">
        <ele>1747.7</ele>
        <time>2012-12-28T15:23:25Z</time>
      </trkpt>
      <trkpt lat="44.07163" lon="7.02846">
        <ele>1747.4</ele>
        <time>2012-12-28T15:23:26Z</time>
      </trkpt>
      <trkpt lat="44.07164" lon="7.02846">
        <ele>1746.8</ele>
        <time>2012-12-28T15:23:27Z</time>
      </trkpt>
      <trkpt lat="44.07165" lon="7.02847">
        <ele>1746.6</ele>
        <time>2012-12-28T15:23:28Z</time>
      </trkpt>
      <trkpt lat="44.07165" lon="7.02847">
        <ele>1746.6</ele>
        <time>2012-12-28T15:23:29Z</time>
      </trkpt>
      <trkpt lat="44.07166" lon="7.02848">
        <ele>1746.3</ele>
        <time>2012-12-28T15:23:30Z</time>
      </trkpt>
      <trkpt lat="44.07167" lon="7.02849">
        <ele>1746</ele>
        <time>2012-12-28T15:23:31Z</time>
      </trkpt>
      <trkpt lat="44.0717" lon="7.02852">
        <ele>1745.5</ele>
        <time>2012-12-28T15:23:33Z</time>
      </trkpt>
      <trkpt lat="44.07171" lon="7.02853">
        <ele>1745.2</ele>
        <time>2012-12-28T15:23:34Z</time>
      </trkpt>
      <trkpt lat="44.07172" lon="7.02854">
        <ele>1744.9</ele>
        <time>2012-12-28T15:23:35Z</time>
      </trkpt>
      <trkpt lat="44.07175" lon="7.02856">
        <ele>1744.7</ele>
        <time>2012-12-28T15:23:37Z</time>
      </trkpt>
      <trkpt lat="44.07179" lon="7.02861">
        <ele>1744.3</ele>
        <time>2012-12-28T15:23:44Z</time>
      </trkpt>
      <trkpt lat="44.0718" lon="7.02862">
        <ele>1744.1</ele>
        <time>2012-12-28T15:23:45Z</time>
      </trkpt>
      <trkpt lat="44.07185" lon="7.02867">
        <ele>1742.8</ele>
        <time>2012-12-28T15:23:53Z</time>
      </trkpt>
      <trkpt lat="44.07186" lon="7.02868">
        <ele>1742.4</ele>
        <time>2012-12-28T15:23:54Z</time>
      </trkpt>
      <trkpt lat="44.07187" lon="7.02869">
        <ele>1742.7</ele>
        <time>2012-12-28T15:23:55Z</time>
      </trkpt>
      <trkpt lat="44.0719" lon="7.02874">
        <ele>1741.5</ele>
        <time>2012-12-28T15:23:59Z</time>
      </trkpt>
      <trkpt lat="44.0719" lon="7.02875">
        <ele>1741.4</ele>
        <time>2012-12-28T15:24:00Z</time>
      </trkpt>
      <trkpt lat="44.07191" lon="7.02876">
        <ele>1741.3</ele>
        <time>2012-12-28T15:24:01Z</time>
      </trkpt>
      <trkpt lat="44.07192" lon="7.02877">
        <ele>1741.3</ele>
        <time>2012-12-28T15:24:02Z</time>
      </trkpt>
      <trkpt lat="44.07194" lon="7.02879">
        <ele>1741.3</ele>
        <time>2012-12-28T15:24:04Z</time>
      </trkpt>
      <trkpt lat="44.07197" lon="7.02884">
        <ele>1740.8</ele>
        <time>2012-12-28T15:24:08Z</time>
      </trkpt>
      <trkpt lat="44.07197" lon="7.02884">
        <ele>1740.8</ele>
        <time>2012-12-28T15:24:09Z</time>
      </trkpt>
      <trkpt lat="44.07197" lon="7.02885">
        <ele>1740.3</ele>
        <time>2012-12-28T15:24:10Z</time>
      </trkpt>
      <trkpt lat="44.07198" lon="7.02886">
        <ele>1739.7</ele>
        <time>2012-12-28T15:24:11Z</time>
      </trkpt>
      <trkpt lat="44.07198" lon="7.02887">
        <ele>1739</ele>
        <time>2012-12-28T15:24:12Z</time>
      </trkpt>
      <trkpt lat="44.07199" lon="7.02888">
        <ele>1738.5</ele>
        <time>2012-12-28T15:24:13Z</time>
      </trkpt>
      <trkpt lat="44.072" lon="7.02889">
        <ele>1738.5</ele>
        <time>2012-12-28T15:24:14Z</time>
      </trkpt>
      <trkpt lat="44.07201" lon="7.02892">
        <ele>1738.5</ele>
        <time>2012-12-28T15:24:16Z</time>
      </trkpt>
      <trkpt lat="44.07201" lon="7.02893">
        <ele>1738.5</ele>
        <time>2012-12-28T15:24:17Z</time>
      </trkpt>
      <trkpt lat="44.07202" lon="7.02894">
        <ele>1738.1</ele>
        <time>2012-12-28T15:24:18Z</time>
      </trkpt>
      <trkpt lat="44.07203" lon="7.02895">
        <ele>1738.1</ele>
        <time>2012-12-28T15:24:21Z</time>
      </trkpt>
      <trkpt lat="44.07204" lon="7.02896">
        <ele>1738.1</ele>
        <time>2012-12-28T15:24:22Z</time>
      </trkpt>
      <trkpt lat="44.07204" lon="7.02896">
        <ele>1738.1</ele>
        <time>2012-12-28T15:24:23Z</time>
      </trkpt>
      <trkpt lat="44.07204" lon="7.02896">
        <ele>1737.8</ele>
        <time>2012-12-28T15:24:24Z</time>
      </trkpt>
      <trkpt lat="44.07205" lon="7.02897">
        <ele>1737.5</ele>
        <time>2012-12-28T15:24:25Z</time>
      </trkpt>
      <trkpt lat="44.07205" lon="7.02898">
        <ele>1737.2</ele>
        <time>2012-12-28T15:24:26Z</time>
      </trkpt>
      <trkpt lat="44.07209" lon="7.02901">
        <ele>1736.5</ele>
        <time>2012-12-28T15:26:28Z</time>
      </trkpt>
      <trkpt lat="44.0721" lon="7.02901">
        <ele>1736.4</ele>
        <time>2012-12-28T15:26:29Z</time>
      </trkpt>
      <trkpt lat="44.07212" lon="7.02903">
        <ele>1736</ele>
        <time>2012-12-28T15:26:36Z</time>
      </trkpt>
      <trkpt lat="44.07213" lon="7.02904">
        <ele>1736</ele>
        <time>2012-12-28T15:26:37Z</time>
      </trkpt>
      <trkpt lat="44.07214" lon="7.02904">
        <ele>1735.8</ele>
        <time>2012-12-28T15:26:38Z</time>
      </trkpt>
      <trkpt lat="44.07215" lon="7.02905">
        <ele>1735.4</ele>
        <time>2012-12-28T15:26:39Z</time>
      </trkpt>
      <trkpt lat="44.07217" lon="7.02906">
        <ele>1735</ele>
        <time>2012-12-28T15:26:43Z</time>
      </trkpt>
      <trkpt lat="44.07218" lon="7.02908">
        <ele>1735</ele>
        <time>2012-12-28T15:26:44Z</time>
      </trkpt>
      <trkpt lat="44.07218" lon="7.02908">
        <ele>1735</ele>
        <time>2012-12-28T15:26:45Z</time>
      </trkpt>
      <trkpt lat="44.07219" lon="7.02908">
        <ele>1734.9</ele>
        <time>2012-12-28T15:26:46Z</time>
      </trkpt>
      <trkpt lat="44.0722" lon="7.02909">
        <ele>1734.5</ele>
        <time>2012-12-28T15:26:47Z</time>
      </trkpt>
      <trkpt lat="44.07221" lon="7.0291">
        <ele>1734.5</ele>
        <time>2012-12-28T15:26:48Z</time>
      </trkpt>
      <trkpt lat="44.07223" lon="7.02912">
        <ele>1734.7</ele>
        <time>2012-12-28T15:26:49Z</time>
      </trkpt>
      <trkpt lat="44.07223" lon="7.02913">
        <ele>1735.2</ele>
        <time>2012-12-28T15:26:50Z</time>
      </trkpt>
      <trkpt lat="44.07225" lon="7.02916">
        <ele>1735.1</ele>
        <time>2012-12-28T15:26:52Z</time>
      </trkpt>
      <trkpt lat="44.07226" lon="7.02917">
        <ele>1734.8</ele>
        <time>2012-12-28T15:26:53Z</time>
      </trkpt>
      <trkpt lat="44.07227" lon="7.02917">
        <ele>1734.9</ele>
        <time>2012-12-28T15:26:54Z</time>
      </trkpt>
      <trkpt lat="44.07234" lon="7.02924">
        <ele>1734.5</ele>
        <time>2012-12-28T15:27:01Z</time>
      </trkpt>
      <trkpt lat="44.07235" lon="7.02925">
        <ele>1734.4</ele>
        <time>2012-12-28T15:27:02Z</time>
      </trkpt>
      <trkpt lat="44.07238" lon="7.02927">
        <ele>1733.7</ele>
        <time>2012-12-28T15:27:05Z</time>
      </trkpt>
      <trkpt lat="44.07239" lon="7.02928">
        <ele>1733.5</ele>
        <time>2012-12-28T15:27:06Z</time>
      </trkpt>
      <trkpt lat="44.07245" lon="7.02935">
        <ele>1731.2</ele>
        <time>2012-12-28T15:27:12Z</time>
      </trkpt>
      <trkpt lat="44.07246" lon="7.02936">
        <ele>1731.5</ele>
        <time>2012-12-28T15:27:16Z</time>
      </trkpt>
      <trkpt lat="44.07246" lon="7.02937">
        <ele>1731.4</ele>
        <time>2012-12-28T15:27:18Z</time>
      </trkpt>
      <trkpt lat="44.07247" lon="7.02938">
        <ele>1731.2</ele>
        <time>2012-12-28T15:27:19Z</time>
      </trkpt>
      <trkpt lat="44.07254" lon="7.02947">
        <ele>1728.6</ele>
        <time>2012-12-28T15:27:28Z</time>
      </trkpt>
      <trkpt lat="44.07257" lon="7.0295">
        <ele>1728.7</ele>
        <time>2012-12-28T15:27:30Z</time>
      </trkpt>
      <trkpt lat="44.07257" lon="7.0295">
        <ele>1728.7</ele>
        <time>2012-12-28T15:27:31Z</time>
      </trkpt>
      <trkpt lat="44.07257" lon="7.0295">
        <ele>1728.2</ele>
        <time>2012-12-28T15:27:32Z</time>
      </trkpt>
      <trkpt lat="44.07259" lon="7.02952">
        <ele>1727</ele>
        <time>2012-12-28T15:27:34Z</time>
      </trkpt>
      <trkpt lat="44.07261" lon="7.02956">
        <ele>1726.4</ele>
        <time>2012-12-28T15:27:37Z</time>
      </trkpt>
      <trkpt lat="44.07264" lon="7.02959">
        <ele>1725.7</ele>
        <time>2012-12-28T15:27:40Z</time>
      </trkpt>
      <trkpt lat="44.07265" lon="7.0296">
        <ele>1725.1</ele>
        <time>2012-12-28T15:27:41Z</time>
      </trkpt>
      <trkpt lat="44.07265" lon="7.02962">
        <ele>1724.9</ele>
        <time>2012-12-28T15:27:42Z</time>
      </trkpt>
      <trkpt lat="44.07266" lon="7.02963">
        <ele>1725.3</ele>
        <time>2012-12-28T15:27:43Z</time>
      </trkpt>
      <trkpt lat="44.07267" lon="7.02964">
        <ele>1725</ele>
        <time>2012-12-28T15:27:44Z</time>
      </trkpt>
      <trkpt lat="44.07269" lon="7.02965">
        <ele>1724.2</ele>
        <time>2012-12-28T15:27:45Z</time>
      </trkpt>
      <trkpt lat="44.07269" lon="7.02965">
        <ele>1724.2</ele>
        <time>2012-12-28T15:27:46Z</time>
      </trkpt>
      <trkpt lat="44.07269" lon="7.02966">
        <ele>1724.3</ele>
        <time>2012-12-28T15:27:47Z</time>
      </trkpt>
      <trkpt lat="44.0727" lon="7.02967">
        <ele>1724.2</ele>
        <time>2012-12-28T15:27:48Z</time>
      </trkpt>
      <trkpt lat="44.07272" lon="7.02969">
        <ele>1722.3</ele>
        <time>2012-12-28T15:27:50Z</time>
      </trkpt>
      <trkpt lat="44.07273" lon="7.0297">
        <ele>1721.5</ele>
        <time>2012-12-28T15:27:51Z</time>
      </trkpt>
      <trkpt lat="44.07276" lon="7.02973">
        <ele>1719.5</ele>
        <time>2012-12-28T15:27:54Z</time>
      </trkpt>
      <trkpt lat="44.07279" lon="7.02975">
        <ele>1720</ele>
        <time>2012-12-28T15:27:57Z</time>
      </trkpt>
      <trkpt lat="44.07281" lon="7.02978">
        <ele>1719.9</ele>
        <time>2012-12-28T15:27:59Z</time>
      </trkpt>
      <trkpt lat="44.07286" lon="7.02984">
        <ele>1719.5</ele>
        <time>2012-12-28T15:28:04Z</time>
      </trkpt>
      <trkpt lat="44.07287" lon="7.02985">
        <ele>1719.2</ele>
        <time>2012-12-28T15:28:05Z</time>
      </trkpt>
      <trkpt lat="44.07288" lon="7.02988">
        <ele>1718.4</ele>
        <time>2012-12-28T15:28:09Z</time>
      </trkpt>
      <trkpt lat="44.07289" lon="7.02989">
        <ele>1718.4</ele>
        <time>2012-12-28T15:28:10Z</time>
      </trkpt>
      <trkpt lat="44.0729" lon="7.0299">
        <ele>1718.4</ele>
        <time>2012-12-28T15:28:11Z</time>
      </trkpt>
      <trkpt lat="44.07291" lon="7.02992">
        <ele>1718.7</ele>
        <time>2012-12-28T15:28:12Z</time>
      </trkpt>
      <trkpt lat="44.07292" lon="7.02993">
        <ele>1718</ele>
        <time>2012-12-28T15:28:13Z</time>
      </trkpt>
      <trkpt lat="44.07294" lon="7.02995">
        <ele>1717.3</ele>
        <time>2012-12-28T15:28:15Z</time>
      </trkpt>
      <trkpt lat="44.073" lon="7.03003">
        <ele>1716.2</ele>
        <time>2012-12-28T15:28:22Z</time>
      </trkpt>
      <trkpt lat="44.07304" lon="7.03009">
        <ele>1715.9</ele>
        <time>2012-12-28T15:28:27Z</time>
      </trkpt>
      <trkpt lat="44.07304" lon="7.0301">
        <ele>1715.6</ele>
        <time>2012-12-28T15:28:28Z</time>
      </trkpt>
      <trkpt lat="44.07304" lon="7.03011">
        <ele>1715.3</ele>
        <time>2012-12-28T15:28:29Z</time>
      </trkpt>
      <trkpt lat="44.07305" lon="7.03012">
        <ele>1714.9</ele>
        <time>2012-12-28T15:28:30Z</time>
      </trkpt>
      <trkpt lat="44.07306" lon="7.03013">
        <ele>1714.4</ele>
        <time>2012-12-28T15:28:31Z</time>
      </trkpt>
      <trkpt lat="44.07307" lon="7.03014">
        <ele>1714</ele>
        <time>2012-12-28T15:28:32Z</time>
      </trkpt>
      <trkpt lat="44.07309" lon="7.03016">
        <ele>1713.5</ele>
        <time>2012-12-28T15:28:34Z</time>
      </trkpt>
      <trkpt lat="44.07312" lon="7.03021">
        <ele>1712.9</ele>
        <time>2012-12-28T15:28:39Z</time>
      </trkpt>
      <trkpt lat="44.07315" lon="7.03026">
        <ele>1711.9</ele>
        <time>2012-12-28T15:28:44Z</time>
      </trkpt>
      <trkpt lat="44.07315" lon="7.03027">
        <ele>1711.6</ele>
        <time>2012-12-28T15:28:45Z</time>
      </trkpt>
      <trkpt lat="44.0732" lon="7.03034">
        <ele>1710.7</ele>
        <time>2012-12-28T15:28:54Z</time>
      </trkpt>
      <trkpt lat="44.0732" lon="7.03036">
        <ele>1710.4</ele>
        <time>2012-12-28T15:28:55Z</time>
      </trkpt>
      <trkpt lat="44.07322" lon="7.03039">
        <ele>1709.9</ele>
        <time>2012-12-28T15:28:58Z</time>
      </trkpt>
      <trkpt lat="44.07322" lon="7.0304">
        <ele>1710.1</ele>
        <time>2012-12-28T15:28:59Z</time>
      </trkpt>
      <trkpt lat="44.07323" lon="7.03041">
        <ele>1709.9</ele>
        <time>2012-12-28T15:29:00Z</time>
      </trkpt>
      <trkpt lat="44.0733" lon="7.03052">
        <ele>1707.8</ele>
        <time>2012-12-28T15:29:11Z</time>
      </trkpt>
      <trkpt lat="44.07331" lon="7.03053">
        <ele>1707.9</ele>
        <time>2012-12-28T15:29:12Z</time>
      </trkpt>
      <trkpt lat="44.07332" lon="7.03055">
        <ele>1706.8</ele>
        <time>2012-12-28T15:29:14Z</time>
      </trkpt>
      <trkpt lat="44.07332" lon="7.03057">
        <ele>1707</ele>
        <time>2012-12-28T15:29:15Z</time>
      </trkpt>
      <trkpt lat="44.07333" lon="7.03058">
        <ele>1707.1</ele>
        <time>2012-12-28T15:29:16Z</time>
      </trkpt>
      <trkpt lat="44.07335" lon="7.0306">
        <ele>1707</ele>
        <time>2012-12-28T15:29:18Z</time>
      </trkpt>
      <trkpt lat="44.07336" lon="7.03061">
        <ele>1707</ele>
        <time>2012-12-28T15:29:19Z</time>
      </trkpt>
      <trkpt lat="44.07338" lon="7.03067">
        <ele>1707.1</ele>
        <time>2012-12-28T15:29:25Z</time>
      </trkpt>
      <trkpt lat="44.07338" lon="7.03068">
        <ele>1707.3</ele>
        <time>2012-12-28T15:29:26Z</time>
      </trkpt>
      <trkpt lat="44.07338" lon="7.03069">
        <ele>1707.4</ele>
        <time>2012-12-28T15:29:27Z</time>
      </trkpt>
      <trkpt lat="44.07339" lon="7.0307">
        <ele>1707.5</ele>
        <time>2012-12-28T15:29:28Z</time>
      </trkpt>
      <trkpt lat="44.07338" lon="7.03071">
        <ele>1707</ele>
        <time>2012-12-28T15:29:29Z</time>
      </trkpt>
      <trkpt lat="44.07338" lon="7.03072">
        <ele>1706.2</ele>
        <time>2012-12-28T15:29:30Z</time>
      </trkpt>
      <trkpt lat="44.07338" lon="7.03073">
        <ele>1706.1</ele>
        <time>2012-12-28T15:29:31Z</time>
      </trkpt>
      <trkpt lat="44.07338" lon="7.03074">
        <ele>1706.2</ele>
        <time>2012-12-28T15:29:32Z</time>
      </trkpt>
      <trkpt lat="44.07338" lon="7.03075">
        <ele>1706.7</ele>
        <time>2012-12-28T15:29:33Z</time>
      </trkpt>
      <trkpt lat="44.07339" lon="7.03076">
        <ele>1706.6</ele>
        <time>2012-12-28T15:29:34Z</time>
      </trkpt>
      <trkpt lat="44.07339" lon="7.03077">
        <ele>1706.3</ele>
        <time>2012-12-28T15:29:35Z</time>
      </trkpt>
      <trkpt lat="44.07338" lon="7.03078">
        <ele>1706.1</ele>
        <time>2012-12-28T15:29:36Z</time>
      </trkpt>
      <trkpt lat="44.07336" lon="7.03087">
        <ele>1703.8</ele>
        <time>2012-12-28T15:29:44Z</time>
      </trkpt>
      <trkpt lat="44.07336" lon="7.03088">
        <ele>1703.4</ele>
        <time>2012-12-28T15:29:45Z</time>
      </trkpt>
      <trkpt lat="44.07336" lon="7.0309">
        <ele>1703.1</ele>
        <time>2012-12-28T15:29:46Z</time>
      </trkpt>
      <trkpt lat="44.07336" lon="7.03091">
        <ele>1703.3</ele>
        <time>2012-12-28T15:29:47Z</time>
      </trkpt>
      <trkpt lat="44.07336" lon="7.03097">
        <ele>1702.8</ele>
        <time>2012-12-28T15:29:52Z</time>
      </trkpt>
      <trkpt lat="44.07336" lon="7.03099">
        <ele>1702.6</ele>
        <time>2012-12-28T15:29:53Z</time>
      </trkpt>
      <trkpt lat="44.07337" lon="7.0311">
        <ele>1700</ele>
        <time>2012-12-28T15:30:05Z</time>
      </trkpt>
      <trkpt lat="44.07337" lon="7.03111">
        <ele>1699.8</ele>
        <time>2012-12-28T15:30:06Z</time>
      </trkpt>
      <trkpt lat="44.07338" lon="7.03112">
        <ele>1699.9</ele>
        <time>2012-12-28T15:30:07Z</time>
      </trkpt>
      <trkpt lat="44.07339" lon="7.03115">
        <ele>1698.9</ele>
        <time>2012-12-28T15:30:09Z</time>
      </trkpt>
      <trkpt lat="44.07341" lon="7.03118">
        <ele>1698.1</ele>
        <time>2012-12-28T15:30:13Z</time>
      </trkpt>
      <trkpt lat="44.07344" lon="7.03123">
        <ele>1697.3</ele>
        <time>2012-12-28T15:30:18Z</time>
      </trkpt>
      <trkpt lat="44.07344" lon="7.03124">
        <ele>1696.8</ele>
        <time>2012-12-28T15:30:19Z</time>
      </trkpt>
      <trkpt lat="44.07344" lon="7.03124">
        <ele>1696.8</ele>
        <time>2012-12-28T15:30:20Z</time>
      </trkpt>
      <trkpt lat="44.07344" lon="7.03124">
        <ele>1696.7</ele>
        <time>2012-12-28T15:30:21Z</time>
      </trkpt>
      <trkpt lat="44.07345" lon="7.03125">
        <ele>1696.6</ele>
        <time>2012-12-28T15:30:22Z</time>
      </trkpt>
      <trkpt lat="44.07345" lon="7.03127">
        <ele>1696</ele>
        <time>2012-12-28T15:30:23Z</time>
      </trkpt>
      <trkpt lat="44.07346" lon="7.03128">
        <ele>1695.7</ele>
        <time>2012-12-28T15:30:24Z</time>
      </trkpt>
      <trkpt lat="44.07347" lon="7.03129">
        <ele>1695.8</ele>
        <time>2012-12-28T15:30:25Z</time>
      </trkpt>
      <trkpt lat="44.07348" lon="7.0313">
        <ele>1695.5</ele>
        <time>2012-12-28T15:30:26Z</time>
      </trkpt>
      <trkpt lat="44.0735" lon="7.03135">
        <ele>1693.8</ele>
        <time>2012-12-28T15:30:32Z</time>
      </trkpt>
      <trkpt lat="44.07352" lon="7.03138">
        <ele>1693.3</ele>
        <time>2012-12-28T15:30:35Z</time>
      </trkpt>
      <trkpt lat="44.07353" lon="7.0314">
        <ele>1693.8</ele>
        <time>2012-12-28T15:30:36Z</time>
      </trkpt>
      <trkpt lat="44.0736" lon="7.03159">
        <ele>1692.1</ele>
        <time>2012-12-28T15:31:08Z</time>
      </trkpt>
      <trkpt lat="44.07364" lon="7.0318">
        <ele>1689.3</ele>
        <time>2012-12-28T15:32:54Z</time>
      </trkpt>
      <trkpt lat="44.07364" lon="7.03181">
        <ele>1689</ele>
        <time>2012-12-28T15:32:55Z</time>
      </trkpt>
      <trkpt lat="44.07366" lon="7.03197">
        <ele>1686.8</ele>
        <time>2012-12-28T15:33:14Z</time>
      </trkpt>
      <trkpt lat="44.07366" lon="7.03198">
        <ele>1686.7</ele>
        <time>2012-12-28T15:33:15Z</time>
      </trkpt>
      <trkpt lat="44.07366" lon="7.03198">
        <ele>1686.2</ele>
        <time>2012-12-28T15:33:16Z</time>
      </trkpt>
      <trkpt lat="44.07366" lon="7.03206">
        <ele>1685.7</ele>
        <time>2012-12-28T15:33:21Z</time>
      </trkpt>
      <trkpt lat="44.07366" lon="7.03207">
        <ele>1685.6</ele>
        <time>2012-12-28T15:33:22Z</time>
      </trkpt>
      <trkpt lat="44.07366" lon="7.03217">
        <ele>1685.8</ele>
        <time>2012-12-28T15:33:35Z</time>
      </trkpt>
      <trkpt lat="44.07366" lon="7.03219">
        <ele>1685.9</ele>
        <time>2012-12-28T15:33:36Z</time>
      </trkpt>
      <trkpt lat="44.07367" lon="7.0322">
        <ele>1685.8</ele>
        <time>2012-12-28T15:33:37Z</time>
      </trkpt>
      <trkpt lat="44.07367" lon="7.03221">
        <ele>1685.5</ele>
        <time>2012-12-28T15:33:38Z</time>
      </trkpt>
      <trkpt lat="44.07367" lon="7.03222">
        <ele>1685.8</ele>
        <time>2012-12-28T15:33:39Z</time>
      </trkpt>
      <trkpt lat="44.07367" lon="7.03224">
        <ele>1685.7</ele>
        <time>2012-12-28T15:33:40Z</time>
      </trkpt>
      <trkpt lat="44.07368" lon="7.03232">
        <ele>1685.7</ele>
        <time>2012-12-28T15:33:48Z</time>
      </trkpt>
      <trkpt lat="44.07368" lon="7.03234">
        <ele>1685.8</ele>
        <time>2012-12-28T15:33:49Z</time>
      </trkpt>
      <trkpt lat="44.07368" lon="7.03236">
        <ele>1686</ele>
        <time>2012-12-28T15:33:50Z</time>
      </trkpt>
      <trkpt lat="44.07368" lon="7.03236">
        <ele>1686</ele>
        <time>2012-12-28T15:33:51Z</time>
      </trkpt>
      <trkpt lat="44.07367" lon="7.03236">
        <ele>1686.2</ele>
        <time>2012-12-28T15:33:52Z</time>
      </trkpt>
      <trkpt lat="44.07368" lon="7.03241">
        <ele>1686.9</ele>
        <time>2012-12-28T15:33:56Z</time>
      </trkpt>
      <trkpt lat="44.07368" lon="7.03243">
        <ele>1686.9</ele>
        <time>2012-12-28T15:33:57Z</time>
      </trkpt>
      <trkpt lat="44.07369" lon="7.03249">
        <ele>1686.8</ele>
        <time>2012-12-28T15:34:01Z</time>
      </trkpt>
      <trkpt lat="44.07369" lon="7.03251">
        <ele>1686.5</ele>
        <time>2012-12-28T15:34:02Z</time>
      </trkpt>
      <trkpt lat="44.07369" lon="7.03252">
        <ele>1686.4</ele>
        <time>2012-12-28T15:34:03Z</time>
      </trkpt>
      <trkpt lat="44.07369" lon="7.03255">
        <ele>1686.1</ele>
        <time>2012-12-28T15:34:06Z</time>
      </trkpt>
      <trkpt lat="44.0737" lon="7.03257">
        <ele>1686</ele>
        <time>2012-12-28T15:34:07Z</time>
      </trkpt>
      <trkpt lat="44.0737" lon="7.03258">
        <ele>1686</ele>
        <time>2012-12-28T15:34:08Z</time>
      </trkpt>
      <trkpt lat="44.0737" lon="7.03259">
        <ele>1686.1</ele>
        <time>2012-12-28T15:34:09Z</time>
      </trkpt>
      <trkpt lat="44.0737" lon="7.03262">
        <ele>1685.3</ele>
        <time>2012-12-28T15:34:11Z</time>
      </trkpt>
      <trkpt lat="44.07371" lon="7.03264">
        <ele>1685.3</ele>
        <time>2012-12-28T15:34:12Z</time>
      </trkpt>
      <trkpt lat="44.0737" lon="7.03266">
        <ele>1684.3</ele>
        <time>2012-12-28T15:34:14Z</time>
      </trkpt>
      <trkpt lat="44.07371" lon="7.03268">
        <ele>1684.2</ele>
        <time>2012-12-28T15:34:15Z</time>
      </trkpt>
      <trkpt lat="44.07372" lon="7.03271">
        <ele>1684.3</ele>
        <time>2012-12-28T15:34:16Z</time>
      </trkpt>
      <trkpt lat="44.07374" lon="7.0328">
        <ele>1684.4</ele>
        <time>2012-12-28T15:34:22Z</time>
      </trkpt>
      <trkpt lat="44.07374" lon="7.03281">
        <ele>1684.3</ele>
        <time>2012-12-28T15:34:23Z</time>
      </trkpt>
      <trkpt lat="44.07374" lon="7.03282">
        <ele>1684</ele>
        <time>2012-12-28T15:34:24Z</time>
      </trkpt>
      <trkpt lat="44.07375" lon="7.03284">
        <ele>1684</ele>
        <time>2012-12-28T15:34:25Z</time>
      </trkpt>
      <trkpt lat="44.07374" lon="7.03285">
        <ele>1684</ele>
        <time>2012-12-28T15:34:26Z</time>
      </trkpt>
      <trkpt lat="44.07374" lon="7.03286">
        <ele>1684.3</ele>
        <time>2012-12-28T15:34:27Z</time>
      </trkpt>
      <trkpt lat="44.07374" lon="7.03288">
        <ele>1684.2</ele>
        <time>2012-12-28T15:34:28Z</time>
      </trkpt>
      <trkpt lat="44.07374" lon="7.03289">
        <ele>1684.8</ele>
        <time>2012-12-28T15:34:29Z</time>
      </trkpt>
      <trkpt lat="44.07374" lon="7.03291">
        <ele>1684.9</ele>
        <time>2012-12-28T15:34:30Z</time>
      </trkpt>
      <trkpt lat="44.07374" lon="7.03296">
        <ele>1684.9</ele>
        <time>2012-12-28T15:34:34Z</time>
      </trkpt>
      <trkpt lat="44.07375" lon="7.03302">
        <ele>1685.2</ele>
        <time>2012-12-28T15:34:38Z</time>
      </trkpt>
      <trkpt lat="44.07375" lon="7.03304">
        <ele>1685.2</ele>
        <time>2012-12-28T15:34:39Z</time>
      </trkpt>
      <trkpt lat="44.07375" lon="7.03305">
        <ele>1685.2</ele>
        <time>2012-12-28T15:34:40Z</time>
      </trkpt>
      <trkpt lat="44.07376" lon="7.03308">
        <ele>1684.8</ele>
        <time>2012-12-28T15:34:42Z</time>
      </trkpt>
      <trkpt lat="44.07376" lon="7.03309">
        <ele>1684.9</ele>
        <time>2012-12-28T15:34:43Z</time>
      </trkpt>
      <trkpt lat="44.07376" lon="7.03309">
        <ele>1684.9</ele>
        <time>2012-12-28T15:34:44Z</time>
      </trkpt>
      <trkpt lat="44.07377" lon="7.03323">
        <ele>1683.7</ele>
        <time>2012-12-28T15:34:54Z</time>
      </trkpt>
      <trkpt lat="44.07377" lon="7.03325">
        <ele>1683.4</ele>
        <time>2012-12-28T15:34:55Z</time>
      </trkpt>
      <trkpt lat="44.07378" lon="7.03327">
        <ele>1682.5</ele>
        <time>2012-12-28T15:34:57Z</time>
      </trkpt>
      <trkpt lat="44.07378" lon="7.03329">
        <ele>1682.5</ele>
        <time>2012-12-28T15:34:58Z</time>
      </trkpt>
      <trkpt lat="44.07378" lon="7.0333">
        <ele>1682.3</ele>
        <time>2012-12-28T15:34:59Z</time>
      </trkpt>
      <trkpt lat="44.07378" lon="7.03335">
        <ele>1681.4</ele>
        <time>2012-12-28T15:35:02Z</time>
      </trkpt>
      <trkpt lat="44.07378" lon="7.03337">
        <ele>1681.2</ele>
        <time>2012-12-28T15:35:03Z</time>
      </trkpt>
      <trkpt lat="44.07379" lon="7.03338">
        <ele>1680.9</ele>
        <time>2012-12-28T15:35:04Z</time>
      </trkpt>
      <trkpt lat="44.0738" lon="7.03353">
        <ele>1679.3</ele>
        <time>2012-12-28T15:35:16Z</time>
      </trkpt>
      <trkpt lat="44.0738" lon="7.03355">
        <ele>1678.6</ele>
        <time>2012-12-28T15:35:18Z</time>
      </trkpt>
      <trkpt lat="44.0738" lon="7.03358">
        <ele>1678.1</ele>
        <time>2012-12-28T15:35:20Z</time>
      </trkpt>
      <trkpt lat="44.07381" lon="7.0336">
        <ele>1678.2</ele>
        <time>2012-12-28T15:35:21Z</time>
      </trkpt>
      <trkpt lat="44.07381" lon="7.03361">
        <ele>1678.4</ele>
        <time>2012-12-28T15:35:22Z</time>
      </trkpt>
      <trkpt lat="44.07381" lon="7.03363">
        <ele>1678.8</ele>
        <time>2012-12-28T15:35:23Z</time>
      </trkpt>
      <trkpt lat="44.07381" lon="7.03364">
        <ele>1678.8</ele>
        <time>2012-12-28T15:35:24Z</time>
      </trkpt>
      <trkpt lat="44.07382" lon="7.03368">
        <ele>1678.1</ele>
        <time>2012-12-28T15:35:29Z</time>
      </trkpt>
      <trkpt lat="44.07382" lon="7.03369">
        <ele>1677.8</ele>
        <time>2012-12-28T15:35:30Z</time>
      </trkpt>
      <trkpt lat="44.07382" lon="7.03372">
        <ele>1677.4</ele>
        <time>2012-12-28T15:35:31Z</time>
      </trkpt>
      <trkpt lat="44.07382" lon="7.03377">
        <ele>1677.8</ele>
        <time>2012-12-28T15:35:36Z</time>
      </trkpt>
      <trkpt lat="44.07382" lon="7.03382">
        <ele>1677.8</ele>
        <time>2012-12-28T15:35:39Z</time>
      </trkpt>
      <trkpt lat="44.07381" lon="7.03383">
        <ele>1677.6</ele>
        <time>2012-12-28T15:35:40Z</time>
      </trkpt>
      <trkpt lat="44.0738" lon="7.03384">
        <ele>1676.9</ele>
        <time>2012-12-28T15:35:41Z</time>
      </trkpt>
      <trkpt lat="44.0738" lon="7.03386">
        <ele>1676.2</ele>
        <time>2012-12-28T15:35:42Z</time>
      </trkpt>
      <trkpt lat="44.0738" lon="7.03388">
        <ele>1676.8</ele>
        <time>2012-12-28T15:35:43Z</time>
      </trkpt>
      <trkpt lat="44.07379" lon="7.03389">
        <ele>1677</ele>
        <time>2012-12-28T15:35:44Z</time>
      </trkpt>
      <trkpt lat="44.07379" lon="7.03391">
        <ele>1676.7</ele>
        <time>2012-12-28T15:35:45Z</time>
      </trkpt>
      <trkpt lat="44.07379" lon="7.03392">
        <ele>1676.1</ele>
        <time>2012-12-28T15:35:46Z</time>
      </trkpt>
      <trkpt lat="44.07379" lon="7.03394">
        <ele>1675.7</ele>
        <time>2012-12-28T15:35:47Z</time>
      </trkpt>
      <trkpt lat="44.07379" lon="7.03395">
        <ele>1675.7</ele>
        <time>2012-12-28T15:35:48Z</time>
      </trkpt>
      <trkpt lat="44.07379" lon="7.034">
        <ele>1675</ele>
        <time>2012-12-28T15:35:52Z</time>
      </trkpt>
      <trkpt lat="44.07378" lon="7.03403">
        <ele>1675</ele>
        <time>2012-12-28T15:35:54Z</time>
      </trkpt>
      <trkpt lat="44.07377" lon="7.03407">
        <ele>1673.3</ele>
        <time>2012-12-28T15:35:58Z</time>
      </trkpt>
      <trkpt lat="44.07376" lon="7.03411">
        <ele>1674.1</ele>
        <time>2012-12-28T15:36:01Z</time>
      </trkpt>
      <trkpt lat="44.07376" lon="7.03412">
        <ele>1674</ele>
        <time>2012-12-28T15:36:02Z</time>
      </trkpt>
      <trkpt lat="44.07376" lon="7.03414">
        <ele>1673.4</ele>
        <time>2012-12-28T15:36:03Z</time>
      </trkpt>
      <trkpt lat="44.07376" lon="7.03417">
        <ele>1673.6</ele>
        <time>2012-12-28T15:36:05Z</time>
      </trkpt>
      <trkpt lat="44.07376" lon="7.03419">
        <ele>1673.3</ele>
        <time>2012-12-28T15:36:06Z</time>
      </trkpt>
      <trkpt lat="44.07378" lon="7.03423">
        <ele>1672.8</ele>
        <time>2012-12-28T15:36:07Z</time>
      </trkpt>
      <trkpt lat="44.07379" lon="7.03429">
        <ele>1672.4</ele>
        <time>2012-12-28T15:36:09Z</time>
      </trkpt>
      <trkpt lat="44.07379" lon="7.03432">
        <ele>1672.5</ele>
        <time>2012-12-28T15:36:13Z</time>
      </trkpt>
      <trkpt lat="44.07378" lon="7.03433">
        <ele>1672.8</ele>
        <time>2012-12-28T15:36:14Z</time>
      </trkpt>
      <trkpt lat="44.07379" lon="7.03436">
        <ele>1673</ele>
        <time>2012-12-28T15:36:15Z</time>
      </trkpt>
      <trkpt lat="44.07379" lon="7.03438">
        <ele>1673.3</ele>
        <time>2012-12-28T15:36:16Z</time>
      </trkpt>
      <trkpt lat="44.07379" lon="7.03439">
        <ele>1673.6</ele>
        <time>2012-12-28T15:36:17Z</time>
      </trkpt>
      <trkpt lat="44.07379" lon="7.0344">
        <ele>1673.6</ele>
        <time>2012-12-28T15:36:18Z</time>
      </trkpt>
      <trkpt lat="44.07379" lon="7.03442">
        <ele>1673.7</ele>
        <time>2012-12-28T15:36:19Z</time>
      </trkpt>
      <trkpt lat="44.07379" lon="7.03444">
        <ele>1673.9</ele>
        <time>2012-12-28T15:36:20Z</time>
      </trkpt>
      <trkpt lat="44.07379" lon="7.03444">
        <ele>1673.9</ele>
        <time>2012-12-28T15:36:21Z</time>
      </trkpt>
      <trkpt lat="44.07379" lon="7.03445">
        <ele>1673.8</ele>
        <time>2012-12-28T15:36:22Z</time>
      </trkpt>
      <trkpt lat="44.0738" lon="7.03448">
        <ele>1674.2</ele>
        <time>2012-12-28T15:36:23Z</time>
      </trkpt>
      <trkpt lat="44.07381" lon="7.03449">
        <ele>1675.1</ele>
        <time>2012-12-28T15:36:24Z</time>
      </trkpt>
      <trkpt lat="44.07383" lon="7.0346">
        <ele>1675.5</ele>
        <time>2012-12-28T15:36:35Z</time>
      </trkpt>
      <trkpt lat="44.07384" lon="7.03465">
        <ele>1675.5</ele>
        <time>2012-12-28T15:36:37Z</time>
      </trkpt>
      <trkpt lat="44.07386" lon="7.03473">
        <ele>1676.6</ele>
        <time>2012-12-28T15:36:42Z</time>
      </trkpt>
      <trkpt lat="44.07387" lon="7.03476">
        <ele>1676.4</ele>
        <time>2012-12-28T15:36:43Z</time>
      </trkpt>
      <trkpt lat="44.07388" lon="7.03479">
        <ele>1675.7</ele>
        <time>2012-12-28T15:36:46Z</time>
      </trkpt>
      <trkpt lat="44.07388" lon="7.0348">
        <ele>1676</ele>
        <time>2012-12-28T15:36:47Z</time>
      </trkpt>
      <trkpt lat="44.07388" lon="7.03482">
        <ele>1675.9</ele>
        <time>2012-12-28T15:36:48Z</time>
      </trkpt>
      <trkpt lat="44.07388" lon="7.03483">
        <ele>1675.5</ele>
        <time>2012-12-28T15:36:49Z</time>
      </trkpt>
      <trkpt lat="44.07389" lon="7.03484">
        <ele>1675.1</ele>
        <time>2012-12-28T15:36:50Z</time>
      </trkpt>
      <trkpt lat="44.07389" lon="7.03485">
        <ele>1674.8</ele>
        <time>2012-12-28T15:36:51Z</time>
      </trkpt>
      <trkpt lat="44.07389" lon="7.03487">
        <ele>1674.4</ele>
        <time>2012-12-28T15:36:52Z</time>
      </trkpt>
      <trkpt lat="44.07389" lon="7.03487">
        <ele>1674.4</ele>
        <time>2012-12-28T15:36:53Z</time>
      </trkpt>
      <trkpt lat="44.07389" lon="7.03487">
        <ele>1674.4</ele>
        <time>2012-12-28T15:36:54Z</time>
      </trkpt>
      <trkpt lat="44.07389" lon="7.03487">
        <ele>1674.4</ele>
        <time>2012-12-28T15:36:55Z</time>
      </trkpt>
      <trkpt lat="44.07389" lon="7.03487">
        <ele>1674.4</ele>
        <time>2012-12-28T15:36:56Z</time>
      </trkpt>
      <trkpt lat="44.07389" lon="7.03487">
        <ele>1674.4</ele>
        <time>2012-12-28T15:36:57Z</time>
      </trkpt>
      <trkpt lat="44.07389" lon="7.03487">
        <ele>1674.4</ele>
        <time>2012-12-28T15:36:58Z</time>
      </trkpt>
      <trkpt lat="44.07389" lon="7.03487">
        <ele>1674.4</ele>
        <time>2012-12-28T15:36:59Z</time>
      </trkpt>
      <trkpt lat="44.07389" lon="7.03487">
        <ele>1674.4</ele>
        <time>2012-12-28T15:37:00Z</time>
      </trkpt>
      <trkpt lat="44.07389" lon="7.03487">
        <ele>1674.4</ele>
        <time>2012-12-28T15:37:01Z</time>
      </trkpt>
      <trkpt lat="44.07389" lon="7.03487">
        <ele>1674.4</ele>
        <time>2012-12-28T15:37:02Z</time>
      </trkpt>
      <trkpt lat="44.07389" lon="7.03487">
        <ele>1674.4</ele>
        <time>2012-12-28T15:37:03Z</time>
      </trkpt>
      <trkpt lat="44.07389" lon="7.03487">
        <ele>1674.4</ele>
        <time>2012-12-28T15:37:04Z</time>
      </trkpt>
      <trkpt lat="44.07389" lon="7.03487">
        <ele>1674.4</ele>
        <time>2012-12-28T15:37:05Z</time>
      </trkpt>
      <trkpt lat="44.07389" lon="7.03487">
        <ele>1674.4</ele>
        <time>2012-12-28T15:37:06Z</time>
      </trkpt>
      <trkpt lat="44.07389" lon="7.03487">
        <ele>1674.4</ele>
        <time>2012-12-28T15:37:07Z</time>
      </trkpt>
      <trkpt lat="44.07389" lon="7.03487">
        <ele>1674.4</ele>
        <time>2012-12-28T15:37:08Z</time>
      </trkpt>
      <trkpt lat="44.07389" lon="7.03487">
        <ele>1674.4</ele>
        <time>2012-12-28T15:37:09Z</time>
      </trkpt>
      <trkpt lat="44.07389" lon="7.03487">
        <ele>1674.4</ele>
        <time>2012-12-28T15:37:10Z</time>
      </trkpt>
      <trkpt lat="44.07389" lon="7.03487">
        <ele>1674.4</ele>
        <time>2012-12-28T15:37:11Z</time>
      </trkpt>
      <trkpt lat="44.07389" lon="7.03487">
        <ele>1674.4</ele>
        <time>2012-12-28T15:37:12Z</time>
      </trkpt>
      <trkpt lat="44.07389" lon="7.03487">
        <ele>1674.4</ele>
        <time>2012-12-28T15:37:13Z</time>
      </trkpt>
      <trkpt lat="44.07389" lon="7.03487">
        <ele>1674.4</ele>
        <time>2012-12-28T15:37:14Z</time>
      </trkpt>
      <trkpt lat="44.07389" lon="7.03487">
        <ele>1674.4</ele>
        <time>2012-12-28T15:37:15Z</time>
      </trkpt>
      <trkpt lat="44.07389" lon="7.03487">
        <ele>1674.4</ele>
        <time>2012-12-28T15:37:16Z</time>
      </trkpt>
      <trkpt lat="44.07389" lon="7.03487">
        <ele>1674.4</ele>
        <time>2012-12-28T15:37:17Z</time>
      </trkpt>
      <trkpt lat="44.07389" lon="7.03487">
        <ele>1674.4</ele>
        <time>2012-12-28T15:37:18Z</time>
      </trkpt>
      <trkpt lat="44.07389" lon="7.03487">
        <ele>1674.4</ele>
        <time>2012-12-28T15:37:19Z</time>
      </trkpt>
      <trkpt lat="44.07389" lon="7.03487">
        <ele>1674.4</ele>
        <time>2012-12-28T15:37:20Z</time>
      </trkpt>
      <trkpt lat="44.07389" lon="7.03487">
        <ele>1674.4</ele>
        <time>2012-12-28T15:37:21Z</time>
      </trkpt>
      <trkpt lat="44.07389" lon="7.03487">
        <ele>1674.4</ele>
        <time>2012-12-28T15:37:22Z</time>
      </trkpt>
      <trkpt lat="44.07389" lon="7.03487">
        <ele>1674.4</ele>
        <time>2012-12-28T15:37:23Z</time>
      </trkpt>
      <trkpt lat="44.07389" lon="7.03487">
        <ele>1674.4</ele>
        <time>2012-12-28T15:37:24Z</time>
      </trkpt>
      <trkpt lat="44.07389" lon="7.03487">
        <ele>1674.4</ele>
        <time>2012-12-28T15:37:25Z</time>
      </trkpt>
      <trkpt lat="44.07389" lon="7.03487">
        <ele>1674.4</ele>
        <time>2012-12-28T15:37:26Z</time>
      </trkpt>
      <trkpt lat="44.07389" lon="7.03487">
        <ele>1674.4</ele>
        <time>2012-12-28T15:37:27Z</time>
      </trkpt>
      <trkpt lat="44.07389" lon="7.03487">
        <ele>1674.4</ele>
        <time>2012-12-28T15:37:28Z</time>
      </trkpt>
      <trkpt lat="44.07389" lon="7.03487">
        <ele>1674.4</ele>
        <time>2012-12-28T15:37:29Z</time>
      </trkpt>
      <trkpt lat="44.07389" lon="7.03487">
        <ele>1674.4</ele>
        <time>2012-12-28T15:37:30Z</time>
      </trkpt>
      <trkpt lat="44.07389" lon="7.03487">
        <ele>1674.4</ele>
        <time>2012-12-28T15:37:31Z</time>
      </trkpt>
      <trkpt lat="44.07389" lon="7.03487">
        <ele>1674.4</ele>
        <time>2012-12-28T15:37:32Z</time>
      </trkpt>
      <trkpt lat="44.07389" lon="7.03487">
        <ele>1674.4</ele>
        <time>2012-12-28T15:37:33Z</time>
      </trkpt>
      <trkpt lat="44.07389" lon="7.03487">
        <ele>1674.6</ele>
        <time>2012-12-28T15:37:34Z</time>
      </trkpt>
      <trkpt lat="44.07389" lon="7.03487">
        <ele>1674.6</ele>
        <time>2012-12-28T15:37:35Z</time>
      </trkpt>
      <trkpt lat="44.07389" lon="7.03487">
        <ele>1674.6</ele>
        <time>2012-12-28T15:37:36Z</time>
      </trkpt>
      <trkpt lat="44.07389" lon="7.03487">
        <ele>1674.7</ele>
        <time>2012-12-28T15:37:37Z</time>
      </trkpt>
      <trkpt lat="44.07389" lon="7.03488">
        <ele>1674.8</ele>
        <time>2012-12-28T15:37:38Z</time>
      </trkpt>
      <trkpt lat="44.07389" lon="7.0349">
        <ele>1675.1</ele>
        <time>2012-12-28T15:37:39Z</time>
      </trkpt>
      <trkpt lat="44.07389" lon="7.03491">
        <ele>1674.9</ele>
        <time>2012-12-28T15:37:40Z</time>
      </trkpt>
      <trkpt lat="44.0739" lon="7.03493">
        <ele>1675</ele>
        <time>2012-12-28T15:37:42Z</time>
      </trkpt>
      <trkpt lat="44.07391" lon="7.03494">
        <ele>1675.4</ele>
        <time>2012-12-28T15:37:43Z</time>
      </trkpt>
      <trkpt lat="44.07394" lon="7.035">
        <ele>1675.3</ele>
        <time>2012-12-28T15:37:50Z</time>
      </trkpt>
      <trkpt lat="44.07394" lon="7.03501">
        <ele>1675.3</ele>
        <time>2012-12-28T15:37:51Z</time>
      </trkpt>
      <trkpt lat="44.07395" lon="7.03502">
        <ele>1675.3</ele>
        <time>2012-12-28T15:37:52Z</time>
      </trkpt>
      <trkpt lat="44.07395" lon="7.03503">
        <ele>1675.4</ele>
        <time>2012-12-28T15:37:53Z</time>
      </trkpt>
      <trkpt lat="44.07399" lon="7.0351">
        <ele>1675.4</ele>
        <time>2012-12-28T15:38:00Z</time>
      </trkpt>
      <trkpt lat="44.07399" lon="7.03512">
        <ele>1675.6</ele>
        <time>2012-12-28T15:38:01Z</time>
      </trkpt>
      <trkpt lat="44.074" lon="7.03514">
        <ele>1675.8</ele>
        <time>2012-12-28T15:38:02Z</time>
      </trkpt>
      <trkpt lat="44.074" lon="7.03515">
        <ele>1675.7</ele>
        <time>2012-12-28T15:38:03Z</time>
      </trkpt>
      <trkpt lat="44.07402" lon="7.03522">
        <ele>1676</ele>
        <time>2012-12-28T15:38:10Z</time>
      </trkpt>
      <trkpt lat="44.07402" lon="7.03525">
        <ele>1676</ele>
        <time>2012-12-28T15:38:11Z</time>
      </trkpt>
      <trkpt lat="44.07402" lon="7.03526">
        <ele>1676.2</ele>
        <time>2012-12-28T15:38:12Z</time>
      </trkpt>
      <trkpt lat="44.07402" lon="7.03528">
        <ele>1676.3</ele>
        <time>2012-12-28T15:38:13Z</time>
      </trkpt>
      <trkpt lat="44.07404" lon="7.03537">
        <ele>1676.8</ele>
        <time>2012-12-28T15:38:19Z</time>
      </trkpt>
      <trkpt lat="44.07404" lon="7.03538">
        <ele>1676.7</ele>
        <time>2012-12-28T15:38:20Z</time>
      </trkpt>
      <trkpt lat="44.07405" lon="7.03543">
        <ele>1676.4</ele>
        <time>2012-12-28T15:38:23Z</time>
      </trkpt>
      <trkpt lat="44.07405" lon="7.03544">
        <ele>1676.3</ele>
        <time>2012-12-28T15:38:24Z</time>
      </trkpt>
      <trkpt lat="44.07405" lon="7.03546">
        <ele>1676.2</ele>
        <time>2012-12-28T15:38:25Z</time>
      </trkpt>
      <trkpt lat="44.07406" lon="7.03547">
        <ele>1675.7</ele>
        <time>2012-12-28T15:38:26Z</time>
      </trkpt>
      <trkpt lat="44.07406" lon="7.03549">
        <ele>1675.5</ele>
        <time>2012-12-28T15:38:27Z</time>
      </trkpt>
      <trkpt lat="44.07407" lon="7.03552">
        <ele>1676</ele>
        <time>2012-12-28T15:38:29Z</time>
      </trkpt>
      <trkpt lat="44.07407" lon="7.03553">
        <ele>1675.9</ele>
        <time>2012-12-28T15:38:30Z</time>
      </trkpt>
      <trkpt lat="44.07407" lon="7.03555">
        <ele>1675.7</ele>
        <time>2012-12-28T15:38:31Z</time>
      </trkpt>
      <trkpt lat="44.07407" lon="7.03556">
        <ele>1675.9</ele>
        <time>2012-12-28T15:38:32Z</time>
      </trkpt>
      <trkpt lat="44.07407" lon="7.03557">
        <ele>1676.1</ele>
        <time>2012-12-28T15:38:33Z</time>
      </trkpt>
      <trkpt lat="44.07407" lon="7.03561">
        <ele>1676.2</ele>
        <time>2012-12-28T15:38:35Z</time>
      </trkpt>
      <trkpt lat="44.07407" lon="7.03562">
        <ele>1676.4</ele>
        <time>2012-12-28T15:38:36Z</time>
      </trkpt>
      <trkpt lat="44.07407" lon="7.03562">
        <ele>1676.5</ele>
        <time>2012-12-28T15:38:37Z</time>
      </trkpt>
      <trkpt lat="44.07407" lon="7.03568">
        <ele>1676.8</ele>
        <time>2012-12-28T15:38:43Z</time>
      </trkpt>
      <trkpt lat="44.07408" lon="7.0357">
        <ele>1676.8</ele>
        <time>2012-12-28T15:38:44Z</time>
      </trkpt>
      <trkpt lat="44.0741" lon="7.03582">
        <ele>1677.5</ele>
        <time>2012-12-28T15:38:51Z</time>
      </trkpt>
      <trkpt lat="44.07411" lon="7.03584">
        <ele>1677.1</ele>
        <time>2012-12-28T15:38:52Z</time>
      </trkpt>
      <trkpt lat="44.07412" lon="7.03585">
        <ele>1677.1</ele>
        <time>2012-12-28T15:38:53Z</time>
      </trkpt>
      <trkpt lat="44.07412" lon="7.03586">
        <ele>1676.8</ele>
        <time>2012-12-28T15:38:54Z</time>
      </trkpt>
      <trkpt lat="44.07412" lon="7.03588">
        <ele>1676.5</ele>
        <time>2012-12-28T15:38:55Z</time>
      </trkpt>
      <trkpt lat="44.07413" lon="7.0359">
        <ele>1676.5</ele>
        <time>2012-12-28T15:38:56Z</time>
      </trkpt>
      <trkpt lat="44.07413" lon="7.03591">
        <ele>1676.1</ele>
        <time>2012-12-28T15:38:57Z</time>
      </trkpt>
      <trkpt lat="44.07415" lon="7.03596">
        <ele>1676.2</ele>
        <time>2012-12-28T15:39:00Z</time>
      </trkpt>
      <trkpt lat="44.07415" lon="7.03599">
        <ele>1675.9</ele>
        <time>2012-12-28T15:39:01Z</time>
      </trkpt>
      <trkpt lat="44.07417" lon="7.03611">
        <ele>1675.6</ele>
        <time>2012-12-28T15:39:08Z</time>
      </trkpt>
      <trkpt lat="44.07418" lon="7.03612">
        <ele>1675.8</ele>
        <time>2012-12-28T15:39:09Z</time>
      </trkpt>
      <trkpt lat="44.07419" lon="7.03613">
        <ele>1675.6</ele>
        <time>2012-12-28T15:39:10Z</time>
      </trkpt>
      <trkpt lat="44.07419" lon="7.03615">
        <ele>1675.6</ele>
        <time>2012-12-28T15:39:11Z</time>
      </trkpt>
      <trkpt lat="44.07422" lon="7.03624">
        <ele>1675.4</ele>
        <time>2012-12-28T15:39:16Z</time>
      </trkpt>
      <trkpt lat="44.07423" lon="7.03626">
        <ele>1675.5</ele>
        <time>2012-12-28T15:39:17Z</time>
      </trkpt>
      <trkpt lat="44.07424" lon="7.03627">
        <ele>1675.4</ele>
        <time>2012-12-28T15:39:18Z</time>
      </trkpt>
      <trkpt lat="44.07427" lon="7.03633">
        <ele>1674.8</ele>
        <time>2012-12-28T15:39:22Z</time>
      </trkpt>
      <trkpt lat="44.07428" lon="7.03635">
        <ele>1674.9</ele>
        <time>2012-12-28T15:39:23Z</time>
      </trkpt>
      <trkpt lat="44.07429" lon="7.03637">
        <ele>1674.9</ele>
        <time>2012-12-28T15:39:24Z</time>
      </trkpt>
      <trkpt lat="44.07431" lon="7.03643">
        <ele>1674.2</ele>
        <time>2012-12-28T15:39:28Z</time>
      </trkpt>
      <trkpt lat="44.07431" lon="7.03645">
        <ele>1673.7</ele>
        <time>2012-12-28T15:39:29Z</time>
      </trkpt>
      <trkpt lat="44.07432" lon="7.03646">
        <ele>1672.8</ele>
        <time>2012-12-28T15:39:30Z</time>
      </trkpt>
      <trkpt lat="44.07434" lon="7.0365">
        <ele>1671.1</ele>
        <time>2012-12-28T15:39:33Z</time>
      </trkpt>
      <trkpt lat="44.07435" lon="7.03652">
        <ele>1671.2</ele>
        <time>2012-12-28T15:39:34Z</time>
      </trkpt>
      <trkpt lat="44.07436" lon="7.03654">
        <ele>1671.5</ele>
        <time>2012-12-28T15:39:35Z</time>
      </trkpt>
      <trkpt lat="44.07436" lon="7.03655">
        <ele>1671.7</ele>
        <time>2012-12-28T15:39:36Z</time>
      </trkpt>
      <trkpt lat="44.07438" lon="7.03661">
        <ele>1671.3</ele>
        <time>2012-12-28T15:39:40Z</time>
      </trkpt>
      <trkpt lat="44.07439" lon="7.03662">
        <ele>1672.3</ele>
        <time>2012-12-28T15:39:41Z</time>
      </trkpt>
      <trkpt lat="44.0744" lon="7.03664">
        <ele>1672.7</ele>
        <time>2012-12-28T15:39:42Z</time>
      </trkpt>
      <trkpt lat="44.0744" lon="7.03666">
        <ele>1672.5</ele>
        <time>2012-12-28T15:39:43Z</time>
      </trkpt>
      <trkpt lat="44.07441" lon="7.03667">
        <ele>1671.9</ele>
        <time>2012-12-28T15:39:44Z</time>
      </trkpt>
      <trkpt lat="44.07442" lon="7.03668">
        <ele>1671.3</ele>
        <time>2012-12-28T15:39:45Z</time>
      </trkpt>
      <trkpt lat="44.07443" lon="7.0367">
        <ele>1671.2</ele>
        <time>2012-12-28T15:39:46Z</time>
      </trkpt>
      <trkpt lat="44.07443" lon="7.03671">
        <ele>1671</ele>
        <time>2012-12-28T15:39:47Z</time>
      </trkpt>
      <trkpt lat="44.07444" lon="7.03673">
        <ele>1670.5</ele>
        <time>2012-12-28T15:39:48Z</time>
      </trkpt>
      <trkpt lat="44.07445" lon="7.03675">
        <ele>1670.1</ele>
        <time>2012-12-28T15:39:50Z</time>
      </trkpt>
      <trkpt lat="44.07446" lon="7.03678">
        <ele>1670</ele>
        <time>2012-12-28T15:39:52Z</time>
      </trkpt>
      <trkpt lat="44.07447" lon="7.03679">
        <ele>1669.8</ele>
        <time>2012-12-28T15:39:53Z</time>
      </trkpt>
      <trkpt lat="44.07451" lon="7.03689">
        <ele>1669</ele>
        <time>2012-12-28T15:39:59Z</time>
      </trkpt>
      <trkpt lat="44.07453" lon="7.03692">
        <ele>1668.7</ele>
        <time>2012-12-28T15:40:01Z</time>
      </trkpt>
      <trkpt lat="44.07453" lon="7.03693">
        <ele>1668.7</ele>
        <time>2012-12-28T15:40:02Z</time>
      </trkpt>
      <trkpt lat="44.07454" lon="7.03695">
        <ele>1668.5</ele>
        <time>2012-12-28T15:40:03Z</time>
      </trkpt>
      <trkpt lat="44.07455" lon="7.03698">
        <ele>1667.9</ele>
        <time>2012-12-28T15:40:05Z</time>
      </trkpt>
      <trkpt lat="44.07457" lon="7.03704">
        <ele>1666.2</ele>
        <time>2012-12-28T15:40:09Z</time>
      </trkpt>
      <trkpt lat="44.07458" lon="7.03705">
        <ele>1665.9</ele>
        <time>2012-12-28T15:40:10Z</time>
      </trkpt>
      <trkpt lat="44.07459" lon="7.03706">
        <ele>1665.5</ele>
        <time>2012-12-28T15:40:11Z</time>
      </trkpt>
      <trkpt lat="44.07459" lon="7.03707">
        <ele>1665</ele>
        <time>2012-12-28T15:40:12Z</time>
      </trkpt>
      <trkpt lat="44.0746" lon="7.03708">
        <ele>1664.9</ele>
        <time>2012-12-28T15:40:13Z</time>
      </trkpt>
      <trkpt lat="44.07462" lon="7.03711">
        <ele>1665.1</ele>
        <time>2012-12-28T15:40:15Z</time>
      </trkpt>
      <trkpt lat="44.07462" lon="7.03711">
        <ele>1665.1</ele>
        <time>2012-12-28T15:40:16Z</time>
      </trkpt>
      <trkpt lat="44.07462" lon="7.03711">
        <ele>1665.1</ele>
        <time>2012-12-28T15:40:17Z</time>
      </trkpt>
      <trkpt lat="44.07462" lon="7.03711">
        <ele>1665.2</ele>
        <time>2012-12-28T15:40:18Z</time>
      </trkpt>
      <trkpt lat="44.07462" lon="7.03711">
        <ele>1665.2</ele>
        <time>2012-12-28T15:40:19Z</time>
      </trkpt>
      <trkpt lat="44.07462" lon="7.03712">
        <ele>1664.9</ele>
        <time>2012-12-28T15:40:20Z</time>
      </trkpt>
      <trkpt lat="44.07464" lon="7.03715">
        <ele>1664.3</ele>
        <time>2012-12-28T15:40:29Z</time>
      </trkpt>
      <trkpt lat="44.07465" lon="7.03716">
        <ele>1664.2</ele>
        <time>2012-12-28T15:40:30Z</time>
      </trkpt>
      <trkpt lat="44.07465" lon="7.03717">
        <ele>1664</ele>
        <time>2012-12-28T15:40:31Z</time>
      </trkpt>
      <trkpt lat="44.07466" lon="7.03718">
        <ele>1664</ele>
        <time>2012-12-28T15:40:32Z</time>
      </trkpt>
      <trkpt lat="44.07468" lon="7.0372">
        <ele>1663.3</ele>
        <time>2012-12-28T15:40:33Z</time>
      </trkpt>
      <trkpt lat="44.07468" lon="7.03721">
        <ele>1663</ele>
        <time>2012-12-28T15:40:34Z</time>
      </trkpt>
      <trkpt lat="44.07469" lon="7.03723">
        <ele>1662.6</ele>
        <time>2012-12-28T15:40:35Z</time>
      </trkpt>
      <trkpt lat="44.07469" lon="7.03724">
        <ele>1662.6</ele>
        <time>2012-12-28T15:40:36Z</time>
      </trkpt>
      <trkpt lat="44.0747" lon="7.03726">
        <ele>1662.5</ele>
        <time>2012-12-28T15:40:37Z</time>
      </trkpt>
      <trkpt lat="44.07471" lon="7.0373">
        <ele>1662.6</ele>
        <time>2012-12-28T15:40:39Z</time>
      </trkpt>
      <trkpt lat="44.07472" lon="7.03731">
        <ele>1662.8</ele>
        <time>2012-12-28T15:40:40Z</time>
      </trkpt>
      <trkpt lat="44.07472" lon="7.03732">
        <ele>1663</ele>
        <time>2012-12-28T15:40:41Z</time>
      </trkpt>
      <trkpt lat="44.07473" lon="7.03733">
        <ele>1663.2</ele>
        <time>2012-12-28T15:40:42Z</time>
      </trkpt>
      <trkpt lat="44.07475" lon="7.03736">
        <ele>1663.1</ele>
        <time>2012-12-28T15:40:45Z</time>
      </trkpt>
      <trkpt lat="44.07478" lon="7.03741">
        <ele>1663.7</ele>
        <time>2012-12-28T15:40:49Z</time>
      </trkpt>
      <trkpt lat="44.0748" lon="7.03745">
        <ele>1661.9</ele>
        <time>2012-12-28T15:40:54Z</time>
      </trkpt>
      <trkpt lat="44.07482" lon="7.03746">
        <ele>1661.5</ele>
        <time>2012-12-28T15:40:55Z</time>
      </trkpt>
      <trkpt lat="44.07483" lon="7.03748">
        <ele>1661.1</ele>
        <time>2012-12-28T15:40:56Z</time>
      </trkpt>
      <trkpt lat="44.07485" lon="7.0375">
        <ele>1661.5</ele>
        <time>2012-12-28T15:40:58Z</time>
      </trkpt>
      <trkpt lat="44.07485" lon="7.03751">
        <ele>1661.6</ele>
        <time>2012-12-28T15:40:59Z</time>
      </trkpt>
      <trkpt lat="44.07485" lon="7.03752">
        <ele>1662.2</ele>
        <time>2012-12-28T15:41:00Z</time>
      </trkpt>
      <trkpt lat="44.07485" lon="7.03752">
        <ele>1662.2</ele>
        <time>2012-12-28T15:41:01Z</time>
      </trkpt>
      <trkpt lat="44.07485" lon="7.03752">
        <ele>1662.2</ele>
        <time>2012-12-28T15:41:02Z</time>
      </trkpt>
      <trkpt lat="44.07486" lon="7.03753">
        <ele>1662.7</ele>
        <time>2012-12-28T15:41:03Z</time>
      </trkpt>
      <trkpt lat="44.07488" lon="7.03756">
        <ele>1663.1</ele>
        <time>2012-12-28T15:41:06Z</time>
      </trkpt>
      <trkpt lat="44.07488" lon="7.03756">
        <ele>1663.1</ele>
        <time>2012-12-28T15:41:07Z</time>
      </trkpt>
      <trkpt lat="44.07488" lon="7.03758">
        <ele>1662.9</ele>
        <time>2012-12-28T15:41:08Z</time>
      </trkpt>
      <trkpt lat="44.07489" lon="7.03759">
        <ele>1662.8</ele>
        <time>2012-12-28T15:41:09Z</time>
      </trkpt>
      <trkpt lat="44.07489" lon="7.0376">
        <ele>1662.6</ele>
        <time>2012-12-28T15:41:10Z</time>
      </trkpt>
      <trkpt lat="44.0749" lon="7.03761">
        <ele>1662.6</ele>
        <time>2012-12-28T15:41:11Z</time>
      </trkpt>
      <trkpt lat="44.0749" lon="7.03761">
        <ele>1662.6</ele>
        <time>2012-12-28T15:41:12Z</time>
      </trkpt>
      <trkpt lat="44.07491" lon="7.03762">
        <ele>1662.6</ele>
        <time>2012-12-28T15:41:13Z</time>
      </trkpt>
      <trkpt lat="44.07492" lon="7.03763">
        <ele>1662.2</ele>
        <time>2012-12-28T15:41:14Z</time>
      </trkpt>
      <trkpt lat="44.07492" lon="7.03764">
        <ele>1662</ele>
        <time>2012-12-28T15:41:15Z</time>
      </trkpt>
      <trkpt lat="44.07493" lon="7.03766">
        <ele>1662</ele>
        <time>2012-12-28T15:41:16Z</time>
      </trkpt>
      <trkpt lat="44.07493" lon="7.03766">
        <ele>1662</ele>
        <time>2012-12-28T15:41:17Z</time>
      </trkpt>
      <trkpt lat="44.07494" lon="7.03768">
        <ele>1662.3</ele>
        <time>2012-12-28T15:41:18Z</time>
      </trkpt>
      <trkpt lat="44.07498" lon="7.03775">
        <ele>1660.7</ele>
        <time>2012-12-28T15:41:24Z</time>
      </trkpt>
      <trkpt lat="44.07499" lon="7.03776">
        <ele>1661</ele>
        <time>2012-12-28T15:41:25Z</time>
      </trkpt>
      <trkpt lat="44.07499" lon="7.03777">
        <ele>1660.3</ele>
        <time>2012-12-28T15:41:26Z</time>
      </trkpt>
      <trkpt lat="44.07501" lon="7.0378">
        <ele>1659.3</ele>
        <time>2012-12-28T15:41:28Z</time>
      </trkpt>
      <trkpt lat="44.07503" lon="7.03782">
        <ele>1658.5</ele>
        <time>2012-12-28T15:41:32Z</time>
      </trkpt>
      <trkpt lat="44.07504" lon="7.03784">
        <ele>1658.1</ele>
        <time>2012-12-28T15:41:33Z</time>
      </trkpt>
      <trkpt lat="44.07505" lon="7.03788">
        <ele>1658.1</ele>
        <time>2012-12-28T15:41:36Z</time>
      </trkpt>
      <trkpt lat="44.07508" lon="7.03791">
        <ele>1659.4</ele>
        <time>2012-12-28T15:41:39Z</time>
      </trkpt>
      <trkpt lat="44.07509" lon="7.03793">
        <ele>1659.5</ele>
        <time>2012-12-28T15:41:40Z</time>
      </trkpt>
      <trkpt lat="44.07509" lon="7.03793">
        <ele>1659.5</ele>
        <time>2012-12-28T15:41:41Z</time>
      </trkpt>
      <trkpt lat="44.07509" lon="7.03793">
        <ele>1659.5</ele>
        <time>2012-12-28T15:41:42Z</time>
      </trkpt>
      <trkpt lat="44.0751" lon="7.03794">
        <ele>1659.6</ele>
        <time>2012-12-28T15:41:43Z</time>
      </trkpt>
      <trkpt lat="44.07511" lon="7.03795">
        <ele>1659.3</ele>
        <time>2012-12-28T15:41:44Z</time>
      </trkpt>
      <trkpt lat="44.07512" lon="7.03796">
        <ele>1659</ele>
        <time>2012-12-28T15:41:45Z</time>
      </trkpt>
      <trkpt lat="44.07513" lon="7.03798">
        <ele>1658.8</ele>
        <time>2012-12-28T15:41:46Z</time>
      </trkpt>
      <trkpt lat="44.07513" lon="7.03799">
        <ele>1658.2</ele>
        <time>2012-12-28T15:41:47Z</time>
      </trkpt>
      <trkpt lat="44.07514" lon="7.03803">
        <ele>1659.1</ele>
        <time>2012-12-28T15:41:50Z</time>
      </trkpt>
      <trkpt lat="44.07514" lon="7.03805">
        <ele>1659.8</ele>
        <time>2012-12-28T15:41:51Z</time>
      </trkpt>
      <trkpt lat="44.07514" lon="7.03805">
        <ele>1659.7</ele>
        <time>2012-12-28T15:41:52Z</time>
      </trkpt>
      <trkpt lat="44.07517" lon="7.0381">
        <ele>1658.9</ele>
        <time>2012-12-28T15:41:56Z</time>
      </trkpt>
      <trkpt lat="44.07518" lon="7.03811">
        <ele>1658.5</ele>
        <time>2012-12-28T15:41:57Z</time>
      </trkpt>
      <trkpt lat="44.07518" lon="7.03812">
        <ele>1658</ele>
        <time>2012-12-28T15:41:58Z</time>
      </trkpt>
      <trkpt lat="44.07521" lon="7.03815">
        <ele>1656.6</ele>
        <time>2012-12-28T15:42:02Z</time>
      </trkpt>
      <trkpt lat="44.07521" lon="7.03816">
        <ele>1656.7</ele>
        <time>2012-12-28T15:42:03Z</time>
      </trkpt>
      <trkpt lat="44.07522" lon="7.03817">
        <ele>1657.3</ele>
        <time>2012-12-28T15:42:04Z</time>
      </trkpt>
      <trkpt lat="44.07523" lon="7.03818">
        <ele>1657.3</ele>
        <time>2012-12-28T15:42:05Z</time>
      </trkpt>
      <trkpt lat="44.07523" lon="7.03819">
        <ele>1657.1</ele>
        <time>2012-12-28T15:42:06Z</time>
      </trkpt>
      <trkpt lat="44.07527" lon="7.03824">
        <ele>1657.5</ele>
        <time>2012-12-28T15:42:10Z</time>
      </trkpt>
      <trkpt lat="44.07528" lon="7.03826">
        <ele>1658.1</ele>
        <time>2012-12-28T15:42:11Z</time>
      </trkpt>
      <trkpt lat="44.07529" lon="7.03827">
        <ele>1658.6</ele>
        <time>2012-12-28T15:42:12Z</time>
      </trkpt>
      <trkpt lat="44.0753" lon="7.03829">
        <ele>1659.9</ele>
        <time>2012-12-28T15:42:14Z</time>
      </trkpt>
      <trkpt lat="44.07531" lon="7.03831">
        <ele>1660</ele>
        <time>2012-12-28T15:42:15Z</time>
      </trkpt>
      <trkpt lat="44.07532" lon="7.03832">
        <ele>1660</ele>
        <time>2012-12-28T15:42:16Z</time>
      </trkpt>
      <trkpt lat="44.07534" lon="7.03834">
        <ele>1660.3</ele>
        <time>2012-12-28T15:42:18Z</time>
      </trkpt>
      <trkpt lat="44.07535" lon="7.03836">
        <ele>1660.5</ele>
        <time>2012-12-28T15:42:19Z</time>
      </trkpt>
      <trkpt lat="44.07536" lon="7.03837">
        <ele>1660.7</ele>
        <time>2012-12-28T15:42:20Z</time>
      </trkpt>
      <trkpt lat="44.07536" lon="7.03837">
        <ele>1660.8</ele>
        <time>2012-12-28T15:42:21Z</time>
      </trkpt>
      <trkpt lat="44.07536" lon="7.03838">
        <ele>1661.1</ele>
        <time>2012-12-28T15:42:22Z</time>
      </trkpt>
      <trkpt lat="44.07537" lon="7.03839">
        <ele>1661.3</ele>
        <time>2012-12-28T15:42:23Z</time>
      </trkpt>
      <trkpt lat="44.07538" lon="7.03843">
        <ele>1662.2</ele>
        <time>2012-12-28T15:42:27Z</time>
      </trkpt>
      <trkpt lat="44.07539" lon="7.03844">
        <ele>1662.1</ele>
        <time>2012-12-28T15:42:28Z</time>
      </trkpt>
      <trkpt lat="44.0754" lon="7.03845">
        <ele>1662.1</ele>
        <time>2012-12-28T15:42:29Z</time>
      </trkpt>
      <trkpt lat="44.0754" lon="7.03847">
        <ele>1662.1</ele>
        <time>2012-12-28T15:42:32Z</time>
      </trkpt>
      <trkpt lat="44.07541" lon="7.03848">
        <ele>1662.4</ele>
        <time>2012-12-28T15:42:33Z</time>
      </trkpt>
      <trkpt lat="44.07543" lon="7.03851">
        <ele>1662.9</ele>
        <time>2012-12-28T15:42:37Z</time>
      </trkpt>
      <trkpt lat="44.07544" lon="7.03853">
        <ele>1662.9</ele>
        <time>2012-12-28T15:42:38Z</time>
      </trkpt>
      <trkpt lat="44.07544" lon="7.03854">
        <ele>1663.1</ele>
        <time>2012-12-28T15:42:39Z</time>
      </trkpt>
      <trkpt lat="44.07546" lon="7.03856">
        <ele>1662.9</ele>
        <time>2012-12-28T15:42:40Z</time>
      </trkpt>
      <trkpt lat="44.07547" lon="7.03857">
        <ele>1662.3</ele>
        <time>2012-12-28T15:42:41Z</time>
      </trkpt>
      <trkpt lat="44.07547" lon="7.03859">
        <ele>1662</ele>
        <time>2012-12-28T15:42:42Z</time>
      </trkpt>
      <trkpt lat="44.07548" lon="7.0386">
        <ele>1661.9</ele>
        <time>2012-12-28T15:42:43Z</time>
      </trkpt>
      <trkpt lat="44.07549" lon="7.03861">
        <ele>1661.6</ele>
        <time>2012-12-28T15:42:44Z</time>
      </trkpt>
      <trkpt lat="44.07549" lon="7.03862">
        <ele>1661.9</ele>
        <time>2012-12-28T15:42:45Z</time>
      </trkpt>
      <trkpt lat="44.0755" lon="7.03864">
        <ele>1661.5</ele>
        <time>2012-12-28T15:42:46Z</time>
      </trkpt>
      <trkpt lat="44.07551" lon="7.03865">
        <ele>1661.5</ele>
        <time>2012-12-28T15:42:47Z</time>
      </trkpt>
      <trkpt lat="44.07551" lon="7.03866">
        <ele>1662.3</ele>
        <time>2012-12-28T15:42:48Z</time>
      </trkpt>
      <trkpt lat="44.07552" lon="7.03867">
        <ele>1662.1</ele>
        <time>2012-12-28T15:42:49Z</time>
      </trkpt>
      <trkpt lat="44.07553" lon="7.03868">
        <ele>1661.6</ele>
        <time>2012-12-28T15:42:50Z</time>
      </trkpt>
      <trkpt lat="44.07555" lon="7.0387">
        <ele>1660.9</ele>
        <time>2012-12-28T15:42:52Z</time>
      </trkpt>
      <trkpt lat="44.07555" lon="7.03871">
        <ele>1660.8</ele>
        <time>2012-12-28T15:42:53Z</time>
      </trkpt>
      <trkpt lat="44.07556" lon="7.03873">
        <ele>1660.9</ele>
        <time>2012-12-28T15:42:54Z</time>
      </trkpt>
      <trkpt lat="44.07557" lon="7.03875">
        <ele>1660.9</ele>
        <time>2012-12-28T15:42:55Z</time>
      </trkpt>
      <trkpt lat="44.07558" lon="7.03876">
        <ele>1660.8</ele>
        <time>2012-12-28T15:42:56Z</time>
      </trkpt>
      <trkpt lat="44.07559" lon="7.03877">
        <ele>1660.7</ele>
        <time>2012-12-28T15:42:57Z</time>
      </trkpt>
      <trkpt lat="44.07561" lon="7.0388">
        <ele>1660.2</ele>
        <time>2012-12-28T15:43:02Z</time>
      </trkpt>
      <trkpt lat="44.07563" lon="7.03885">
        <ele>1660.6</ele>
        <time>2012-12-28T15:43:05Z</time>
      </trkpt>
      <trkpt lat="44.07564" lon="7.03886">
        <ele>1660.8</ele>
        <time>2012-12-28T15:43:06Z</time>
      </trkpt>
      <trkpt lat="44.07564" lon="7.03888">
        <ele>1660.8</ele>
        <time>2012-12-28T15:43:07Z</time>
      </trkpt>
      <trkpt lat="44.07565" lon="7.03892">
        <ele>1661.9</ele>
        <time>2012-12-28T15:43:09Z</time>
      </trkpt>
      <trkpt lat="44.07566" lon="7.03893">
        <ele>1661.6</ele>
        <time>2012-12-28T15:43:10Z</time>
      </trkpt>
      <trkpt lat="44.07567" lon="7.03896">
        <ele>1660.4</ele>
        <time>2012-12-28T15:43:12Z</time>
      </trkpt>
      <trkpt lat="44.07567" lon="7.03897">
        <ele>1660.4</ele>
        <time>2012-12-28T15:43:13Z</time>
      </trkpt>
      <trkpt lat="44.07568" lon="7.03898">
        <ele>1661.1</ele>
        <time>2012-12-28T15:43:14Z</time>
      </trkpt>
      <trkpt lat="44.07568" lon="7.03898">
        <ele>1661.1</ele>
        <time>2012-12-28T15:43:15Z</time>
      </trkpt>
      <trkpt lat="44.07568" lon="7.039">
        <ele>1661</ele>
        <time>2012-12-28T15:43:16Z</time>
      </trkpt>
      <trkpt lat="44.0757" lon="7.03905">
        <ele>1661.4</ele>
        <time>2012-12-28T15:43:20Z</time>
      </trkpt>
      <trkpt lat="44.0757" lon="7.03905">
        <ele>1661.4</ele>
        <time>2012-12-28T15:43:21Z</time>
      </trkpt>
      <trkpt lat="44.0757" lon="7.03905">
        <ele>1661.4</ele>
        <time>2012-12-28T15:43:22Z</time>
      </trkpt>
      <trkpt lat="44.0757" lon="7.03905">
        <ele>1661.2</ele>
        <time>2012-12-28T15:43:23Z</time>
      </trkpt>
      <trkpt lat="44.07571" lon="7.03906">
        <ele>1661.3</ele>
        <time>2012-12-28T15:43:24Z</time>
      </trkpt>
      <trkpt lat="44.07572" lon="7.03907">
        <ele>1661.5</ele>
        <time>2012-12-28T15:43:25Z</time>
      </trkpt>
      <trkpt lat="44.07574" lon="7.03912">
        <ele>1662.3</ele>
        <time>2012-12-28T15:43:28Z</time>
      </trkpt>
      <trkpt lat="44.07574" lon="7.03914">
        <ele>1663.1</ele>
        <time>2012-12-28T15:43:29Z</time>
      </trkpt>
      <trkpt lat="44.07576" lon="7.03915">
        <ele>1663</ele>
        <time>2012-12-28T15:43:30Z</time>
      </trkpt>
      <trkpt lat="44.07578" lon="7.03918">
        <ele>1663.2</ele>
        <time>2012-12-28T15:44:09Z</time>
      </trkpt>
      <trkpt lat="44.07578" lon="7.03918">
        <ele>1663.2</ele>
        <time>2012-12-28T15:44:10Z</time>
      </trkpt>
      <trkpt lat="44.07578" lon="7.03919">
        <ele>1663.2</ele>
        <time>2012-12-28T15:44:11Z</time>
      </trkpt>
      <trkpt lat="44.07579" lon="7.03919">
        <ele>1663.5</ele>
        <time>2012-12-28T15:44:12Z</time>
      </trkpt>
      <trkpt lat="44.07579" lon="7.0392">
        <ele>1663.5</ele>
        <time>2012-12-28T15:44:15Z</time>
      </trkpt>
      <trkpt lat="44.0758" lon="7.03921">
        <ele>1663.5</ele>
        <time>2012-12-28T15:44:16Z</time>
      </trkpt>
      <trkpt lat="44.07581" lon="7.03921">
        <ele>1663.6</ele>
        <time>2012-12-28T15:44:17Z</time>
      </trkpt>
      <trkpt lat="44.07583" lon="7.03922">
        <ele>1664.1</ele>
        <time>2012-12-28T15:44:19Z</time>
      </trkpt>
      <trkpt lat="44.07588" lon="7.03924">
        <ele>1663.9</ele>
        <time>2012-12-28T15:44:25Z</time>
      </trkpt>
      <trkpt lat="44.07596" lon="7.03931">
        <ele>1664.3</ele>
        <time>2012-12-28T15:44:34Z</time>
      </trkpt>
      <trkpt lat="44.07597" lon="7.03932">
        <ele>1664.5</ele>
        <time>2012-12-28T15:44:35Z</time>
      </trkpt>
      <trkpt lat="44.07597" lon="7.03932">
        <ele>1664.5</ele>
        <time>2012-12-28T15:44:36Z</time>
      </trkpt>
      <trkpt lat="44.07597" lon="7.03932">
        <ele>1664.3</ele>
        <time>2012-12-28T15:44:37Z</time>
      </trkpt>
      <trkpt lat="44.07598" lon="7.03933">
        <ele>1664.2</ele>
        <time>2012-12-28T15:44:38Z</time>
      </trkpt>
      <trkpt lat="44.07598" lon="7.03933">
        <ele>1664.2</ele>
        <time>2012-12-28T15:44:39Z</time>
      </trkpt>
      <trkpt lat="44.07599" lon="7.03933">
        <ele>1664.4</ele>
        <time>2012-12-28T15:44:40Z</time>
      </trkpt>
      <trkpt lat="44.0761" lon="7.03941">
        <ele>1662.5</ele>
        <time>2012-12-28T15:44:55Z</time>
      </trkpt>
      <trkpt lat="44.07611" lon="7.03942">
        <ele>1662.2</ele>
        <time>2012-12-28T15:44:56Z</time>
      </trkpt>
      <trkpt lat="44.07611" lon="7.03943">
        <ele>1662</ele>
        <time>2012-12-28T15:44:57Z</time>
      </trkpt>
      <trkpt lat="44.07612" lon="7.03944">
        <ele>1662</ele>
        <time>2012-12-28T15:44:58Z</time>
      </trkpt>
      <trkpt lat="44.07612" lon="7.03944">
        <ele>1662</ele>
        <time>2012-12-28T15:44:59Z</time>
      </trkpt>
      <trkpt lat="44.07613" lon="7.03944">
        <ele>1661.8</ele>
        <time>2012-12-28T15:45:00Z</time>
      </trkpt>
      <trkpt lat="44.07617" lon="7.03946">
        <ele>1661.3</ele>
        <time>2012-12-28T15:45:10Z</time>
      </trkpt>
      <trkpt lat="44.07618" lon="7.03946">
        <ele>1661.2</ele>
        <time>2012-12-28T15:45:11Z</time>
      </trkpt>
      <trkpt lat="44.07621" lon="7.03948">
        <ele>1660.7</ele>
        <time>2012-12-28T15:45:14Z</time>
      </trkpt>
      <trkpt lat="44.07626" lon="7.03949">
        <ele>1660.2</ele>
        <time>2012-12-28T15:45:33Z</time>
      </trkpt>
      <trkpt lat="44.07627" lon="7.03949">
        <ele>1660.1</ele>
        <time>2012-12-28T15:45:34Z</time>
      </trkpt>
      <trkpt lat="44.07633" lon="7.03948">
        <ele>1659.2</ele>
        <time>2012-12-28T15:45:41Z</time>
      </trkpt>
      <trkpt lat="44.07633" lon="7.03948">
        <ele>1659.2</ele>
        <time>2012-12-28T15:45:42Z</time>
      </trkpt>
      <trkpt lat="44.07633" lon="7.03948">
        <ele>1659.5</ele>
        <time>2012-12-28T15:45:43Z</time>
      </trkpt>
      <trkpt lat="44.07634" lon="7.03949">
        <ele>1659.7</ele>
        <time>2012-12-28T15:45:44Z</time>
      </trkpt>
      <trkpt lat="44.07634" lon="7.03949">
        <ele>1659.7</ele>
        <time>2012-12-28T15:45:45Z</time>
      </trkpt>
      <trkpt lat="44.07634" lon="7.03949">
        <ele>1659.7</ele>
        <time>2012-12-28T15:45:46Z</time>
      </trkpt>
      <trkpt lat="44.07635" lon="7.03949">
        <ele>1659.6</ele>
        <time>2012-12-28T15:45:47Z</time>
      </trkpt>
      <trkpt lat="44.07636" lon="7.03949">
        <ele>1659.2</ele>
        <time>2012-12-28T15:45:48Z</time>
      </trkpt>
      <trkpt lat="44.07637" lon="7.03949">
        <ele>1659.3</ele>
        <time>2012-12-28T15:45:49Z</time>
      </trkpt>
      <trkpt lat="44.0764" lon="7.0395">
        <ele>1658</ele>
        <time>2012-12-28T15:45:52Z</time>
      </trkpt>
      <trkpt lat="44.07641" lon="7.0395">
        <ele>1658.4</ele>
        <time>2012-12-28T15:45:53Z</time>
      </trkpt>
      <trkpt lat="44.07642" lon="7.0395">
        <ele>1658.9</ele>
        <time>2012-12-28T15:45:54Z</time>
      </trkpt>
      <trkpt lat="44.07643" lon="7.03951">
        <ele>1658.9</ele>
        <time>2012-12-28T15:45:55Z</time>
      </trkpt>
      <trkpt lat="44.07657" lon="7.03959">
        <ele>1656</ele>
        <time>2012-12-28T15:46:17Z</time>
      </trkpt>
      <trkpt lat="44.07658" lon="7.03959">
        <ele>1656.2</ele>
        <time>2012-12-28T15:46:18Z</time>
      </trkpt>
      <trkpt lat="44.07659" lon="7.03959">
        <ele>1655.6</ele>
        <time>2012-12-28T15:46:19Z</time>
      </trkpt>
      <trkpt lat="44.07659" lon="7.03959">
        <ele>1655.6</ele>
        <time>2012-12-28T15:46:20Z</time>
      </trkpt>
      <trkpt lat="44.07659" lon="7.03959">
        <ele>1655.6</ele>
        <time>2012-12-28T15:46:21Z</time>
      </trkpt>
      <trkpt lat="44.07659" lon="7.03959">
        <ele>1655.6</ele>
        <time>2012-12-28T15:46:22Z</time>
      </trkpt>
      <trkpt lat="44.07659" lon="7.03959">
        <ele>1655.9</ele>
        <time>2012-12-28T15:46:23Z</time>
      </trkpt>
      <trkpt lat="44.07659" lon="7.03959">
        <ele>1655.9</ele>
        <time>2012-12-28T15:46:24Z</time>
      </trkpt>
      <trkpt lat="44.07659" lon="7.03959">
        <ele>1655.9</ele>
        <time>2012-12-28T15:46:25Z</time>
      </trkpt>
      <trkpt lat="44.07659" lon="7.03959">
        <ele>1656.2</ele>
        <time>2012-12-28T15:46:26Z</time>
      </trkpt>
      <trkpt lat="44.07659" lon="7.03959">
        <ele>1656.2</ele>
        <time>2012-12-28T15:46:27Z</time>
      </trkpt>
      <trkpt lat="44.07659" lon="7.03959">
        <ele>1656.2</ele>
        <time>2012-12-28T15:46:28Z</time>
      </trkpt>
      <trkpt lat="44.07659" lon="7.03959">
        <ele>1656.2</ele>
        <time>2012-12-28T15:46:29Z</time>
      </trkpt>
      <trkpt lat="44.07659" lon="7.03959">
        <ele>1656.2</ele>
        <time>2012-12-28T15:46:30Z</time>
      </trkpt>
      <trkpt lat="44.07659" lon="7.03959">
        <ele>1656.2</ele>
        <time>2012-12-28T15:46:31Z</time>
      </trkpt>
      <trkpt lat="44.07659" lon="7.03959">
        <ele>1656.2</ele>
        <time>2012-12-28T15:46:32Z</time>
      </trkpt>
      <trkpt lat="44.07659" lon="7.03959">
        <ele>1656.2</ele>
        <time>2012-12-28T15:46:33Z</time>
      </trkpt>
      <trkpt lat="44.07659" lon="7.03959">
        <ele>1656.2</ele>
        <time>2012-12-28T15:46:34Z</time>
      </trkpt>
      <trkpt lat="44.07659" lon="7.03959">
        <ele>1656.2</ele>
        <time>2012-12-28T15:46:35Z</time>
      </trkpt>
      <trkpt lat="44.07659" lon="7.03959">
        <ele>1656.2</ele>
        <time>2012-12-28T15:46:36Z</time>
      </trkpt>
      <trkpt lat="44.07659" lon="7.03959">
        <ele>1656.2</ele>
        <time>2012-12-28T15:46:37Z</time>
      </trkpt>
      <trkpt lat="44.07659" lon="7.03959">
        <ele>1656.2</ele>
        <time>2012-12-28T15:46:38Z</time>
      </trkpt>
      <trkpt lat="44.07659" lon="7.03959">
        <ele>1656.2</ele>
        <time>2012-12-28T15:46:39Z</time>
      </trkpt>
      <trkpt lat="44.07659" lon="7.03959">
        <ele>1656.2</ele>
        <time>2012-12-28T15:46:40Z</time>
      </trkpt>
      <trkpt lat="44.07659" lon="7.03959">
        <ele>1656.2</ele>
        <time>2012-12-28T15:46:41Z</time>
      </trkpt>
      <trkpt lat="44.07659" lon="7.03959">
        <ele>1656.3</ele>
        <time>2012-12-28T15:46:42Z</time>
      </trkpt>
      <trkpt lat="44.07659" lon="7.03959">
        <ele>1656.3</ele>
        <time>2012-12-28T15:46:43Z</time>
      </trkpt>
      <trkpt lat="44.07659" lon="7.03959">
        <ele>1656.3</ele>
        <time>2012-12-28T15:46:44Z</time>
      </trkpt>
      <trkpt lat="44.07659" lon="7.03959">
        <ele>1656.3</ele>
        <time>2012-12-28T15:46:45Z</time>
      </trkpt>
      <trkpt lat="44.07659" lon="7.03959">
        <ele>1656.3</ele>
        <time>2012-12-28T15:46:46Z</time>
      </trkpt>
      <trkpt lat="44.07659" lon="7.03959">
        <ele>1656.3</ele>
        <time>2012-12-28T15:46:47Z</time>
      </trkpt>
      <trkpt lat="44.07659" lon="7.03959">
        <ele>1656.3</ele>
        <time>2012-12-28T15:46:48Z</time>
      </trkpt>
      <trkpt lat="44.07659" lon="7.03959">
        <ele>1656.3</ele>
        <time>2012-12-28T15:46:49Z</time>
      </trkpt>
      <trkpt lat="44.07659" lon="7.03959">
        <ele>1656.3</ele>
        <time>2012-12-28T15:46:50Z</time>
      </trkpt>
      <trkpt lat="44.07659" lon="7.03959">
        <ele>1656.3</ele>
        <time>2012-12-28T15:46:51Z</time>
      </trkpt>
      <trkpt lat="44.07659" lon="7.03959">
        <ele>1656.3</ele>
        <time>2012-12-28T15:46:52Z</time>
      </trkpt>
      <trkpt lat="44.07659" lon="7.03959">
        <ele>1656.3</ele>
        <time>2012-12-28T15:46:53Z</time>
      </trkpt>
      <trkpt lat="44.07659" lon="7.03959">
        <ele>1656.3</ele>
        <time>2012-12-28T15:46:54Z</time>
      </trkpt>
      <trkpt lat="44.07659" lon="7.03959">
        <ele>1656.3</ele>
        <time>2012-12-28T15:46:55Z</time>
      </trkpt>
      <trkpt lat="44.07659" lon="7.03959">
        <ele>1656.3</ele>
        <time>2012-12-28T15:46:56Z</time>
      </trkpt>
      <trkpt lat="44.07659" lon="7.03959">
        <ele>1656.3</ele>
        <time>2012-12-28T15:46:57Z</time>
      </trkpt>
      <trkpt lat="44.07659" lon="7.03959">
        <ele>1656.3</ele>
        <time>2012-12-28T15:46:58Z</time>
      </trkpt>
      <trkpt lat="44.07659" lon="7.03959">
        <ele>1656.3</ele>
        <time>2012-12-28T15:46:59Z</time>
      </trkpt>
      <trkpt lat="44.07659" lon="7.03959">
        <ele>1656.3</ele>
        <time>2012-12-28T15:47:00Z</time>
      </trkpt>
      <trkpt lat="44.07659" lon="7.03959">
        <ele>1656.3</ele>
        <time>2012-12-28T15:47:01Z</time>
      </trkpt>
      <trkpt lat="44.07659" lon="7.03959">
        <ele>1656.3</ele>
        <time>2012-12-28T15:47:02Z</time>
      </trkpt>
      <trkpt lat="44.07659" lon="7.03959">
        <ele>1656.3</ele>
        <time>2012-12-28T15:47:03Z</time>
      </trkpt>
      <trkpt lat="44.07659" lon="7.03959">
        <ele>1656.3</ele>
        <time>2012-12-28T15:47:04Z</time>
      </trkpt>
      <trkpt lat="44.07659" lon="7.03959">
        <ele>1656.3</ele>
        <time>2012-12-28T15:47:05Z</time>
      </trkpt>
      <trkpt lat="44.07659" lon="7.03959">
        <ele>1656.3</ele>
        <time>2012-12-28T15:47:06Z</time>
      </trkpt>
      <trkpt lat="44.07659" lon="7.03959">
        <ele>1656.3</ele>
        <time>2012-12-28T15:47:07Z</time>
      </trkpt>
      <trkpt lat="44.07659" lon="7.03959">
        <ele>1656.3</ele>
        <time>2012-12-28T15:47:08Z</time>
      </trkpt>
      <trkpt lat="44.07659" lon="7.03959">
        <ele>1656.3</ele>
        <time>2012-12-28T15:47:09Z</time>
      </trkpt>
      <trkpt lat="44.07659" lon="7.03959">
        <ele>1656.3</ele>
        <time>2012-12-28T15:47:10Z</time>
      </trkpt>
      <trkpt lat="44.07659" lon="7.03959">
        <ele>1656.3</ele>
        <time>2012-12-28T15:47:11Z</time>
      </trkpt>
      <trkpt lat="44.07659" lon="7.0396">
        <ele>1656.7</ele>
        <time>2012-12-28T15:47:12Z</time>
      </trkpt>
      <trkpt lat="44.0766" lon="7.0396">
        <ele>1656.7</ele>
        <time>2012-12-28T15:47:13Z</time>
      </trkpt>
      <trkpt lat="44.0766" lon="7.0396">
        <ele>1656.1</ele>
        <time>2012-12-28T15:47:14Z</time>
      </trkpt>
      <trkpt lat="44.07661" lon="7.03961">
        <ele>1655.8</ele>
        <time>2012-12-28T15:47:15Z</time>
      </trkpt>
      <trkpt lat="44.07661" lon="7.03961">
        <ele>1655.8</ele>
        <time>2012-12-28T15:47:16Z</time>
      </trkpt>
      <trkpt lat="44.07661" lon="7.03961">
        <ele>1655.8</ele>
        <time>2012-12-28T15:47:17Z</time>
      </trkpt>
      <trkpt lat="44.07661" lon="7.03961">
        <ele>1655.8</ele>
        <time>2012-12-28T15:47:18Z</time>
      </trkpt>
      <trkpt lat="44.07661" lon="7.03961">
        <ele>1655.6</ele>
        <time>2012-12-28T15:47:19Z</time>
      </trkpt>
      <trkpt lat="44.07661" lon="7.03962">
        <ele>1655.9</ele>
        <time>2012-12-28T15:47:20Z</time>
      </trkpt>
      <trkpt lat="44.07661" lon="7.03962">
        <ele>1655.9</ele>
        <time>2012-12-28T15:47:21Z</time>
      </trkpt>
      <trkpt lat="44.07662" lon="7.03962">
        <ele>1655.9</ele>
        <time>2012-12-28T15:47:22Z</time>
      </trkpt>
      <trkpt lat="44.07666" lon="7.03962">
        <ele>1653.8</ele>
        <time>2012-12-28T15:47:30Z</time>
      </trkpt>
      <trkpt lat="44.07667" lon="7.03962">
        <ele>1653.9</ele>
        <time>2012-12-28T15:47:31Z</time>
      </trkpt>
      <trkpt lat="44.07673" lon="7.03965">
        <ele>1653.4</ele>
        <time>2012-12-28T15:47:41Z</time>
      </trkpt>
      <trkpt lat="44.07674" lon="7.03966">
        <ele>1653.3</ele>
        <time>2012-12-28T15:47:42Z</time>
      </trkpt>
      <trkpt lat="44.0768" lon="7.0397">
        <ele>1651.8</ele>
        <time>2012-12-28T15:47:53Z</time>
      </trkpt>
      <trkpt lat="44.07681" lon="7.0397">
        <ele>1651.4</ele>
        <time>2012-12-28T15:47:54Z</time>
      </trkpt>
      <trkpt lat="44.07682" lon="7.03971">
        <ele>1651.3</ele>
        <time>2012-12-28T15:47:55Z</time>
      </trkpt>
      <trkpt lat="44.07683" lon="7.03971">
        <ele>1651.1</ele>
        <time>2012-12-28T15:47:56Z</time>
      </trkpt>
      <trkpt lat="44.07684" lon="7.03972">
        <ele>1650.2</ele>
        <time>2012-12-28T15:47:58Z</time>
      </trkpt>
      <trkpt lat="44.07685" lon="7.03973">
        <ele>1649.7</ele>
        <time>2012-12-28T15:47:59Z</time>
      </trkpt>
      <trkpt lat="44.07697" lon="7.03983">
        <ele>1646.2</ele>
        <time>2012-12-28T15:48:26Z</time>
      </trkpt>
      <trkpt lat="44.07698" lon="7.03984">
        <ele>1646.1</ele>
        <time>2012-12-28T15:48:27Z</time>
      </trkpt>
      <trkpt lat="44.07706" lon="7.03992">
        <ele>1643.9</ele>
        <time>2012-12-28T15:48:36Z</time>
      </trkpt>
      <trkpt lat="44.07707" lon="7.03992">
        <ele>1643.1</ele>
        <time>2012-12-28T15:48:37Z</time>
      </trkpt>
      <trkpt lat="44.07709" lon="7.03994">
        <ele>1642.7</ele>
        <time>2012-12-28T15:48:39Z</time>
      </trkpt>
      <trkpt lat="44.07713" lon="7.04">
        <ele>1642.4</ele>
        <time>2012-12-28T15:48:45Z</time>
      </trkpt>
      <trkpt lat="44.07714" lon="7.04001">
        <ele>1642</ele>
        <time>2012-12-28T15:48:46Z</time>
      </trkpt>
      <trkpt lat="44.07714" lon="7.04001">
        <ele>1642</ele>
        <time>2012-12-28T15:48:47Z</time>
      </trkpt>
      <trkpt lat="44.07715" lon="7.04001">
        <ele>1641.7</ele>
        <time>2012-12-28T15:48:48Z</time>
      </trkpt>
      <trkpt lat="44.07716" lon="7.04001">
        <ele>1641.2</ele>
        <time>2012-12-28T15:48:49Z</time>
      </trkpt>
      <trkpt lat="44.07716" lon="7.04002">
        <ele>1640.7</ele>
        <time>2012-12-28T15:48:50Z</time>
      </trkpt>
      <trkpt lat="44.07723" lon="7.04011">
        <ele>1638.8</ele>
        <time>2012-12-28T15:49:02Z</time>
      </trkpt>
      <trkpt lat="44.07724" lon="7.04012">
        <ele>1638.8</ele>
        <time>2012-12-28T15:49:03Z</time>
      </trkpt>
      <trkpt lat="44.07728" lon="7.04017">
        <ele>1637.3</ele>
        <time>2012-12-28T15:49:08Z</time>
      </trkpt>
      <trkpt lat="44.07728" lon="7.04017">
        <ele>1637.3</ele>
        <time>2012-12-28T15:49:09Z</time>
      </trkpt>
      <trkpt lat="44.07728" lon="7.04017">
        <ele>1637.3</ele>
        <time>2012-12-28T15:49:10Z</time>
      </trkpt>
      <trkpt lat="44.07728" lon="7.04017">
        <ele>1637.3</ele>
        <time>2012-12-28T15:49:11Z</time>
      </trkpt>
      <trkpt lat="44.07728" lon="7.04017">
        <ele>1637.3</ele>
        <time>2012-12-28T15:49:12Z</time>
      </trkpt>
      <trkpt lat="44.07728" lon="7.04017">
        <ele>1637.3</ele>
        <time>2012-12-28T15:49:13Z</time>
      </trkpt>
      <trkpt lat="44.07728" lon="7.04017">
        <ele>1637.3</ele>
        <time>2012-12-28T15:49:14Z</time>
      </trkpt>
      <trkpt lat="44.07728" lon="7.04017">
        <ele>1637.3</ele>
        <time>2012-12-28T15:49:15Z</time>
      </trkpt>
      <trkpt lat="44.07728" lon="7.04017">
        <ele>1637.3</ele>
        <time>2012-12-28T15:49:16Z</time>
      </trkpt>
      <trkpt lat="44.07728" lon="7.04017">
        <ele>1636.6</ele>
        <time>2012-12-28T15:49:17Z</time>
      </trkpt>
      <trkpt lat="44.07728" lon="7.04017">
        <ele>1636.6</ele>
        <time>2012-12-28T15:49:18Z</time>
      </trkpt>
      <trkpt lat="44.07728" lon="7.04017">
        <ele>1636.6</ele>
        <time>2012-12-28T15:49:19Z</time>
      </trkpt>
      <trkpt lat="44.07728" lon="7.04018">
        <ele>1636.7</ele>
        <time>2012-12-28T15:49:20Z</time>
      </trkpt>
      <trkpt lat="44.07732" lon="7.04021">
        <ele>1635.5</ele>
        <time>2012-12-28T15:49:25Z</time>
      </trkpt>
      <trkpt lat="44.07733" lon="7.04021">
        <ele>1635</ele>
        <time>2012-12-28T15:49:26Z</time>
      </trkpt>
      <trkpt lat="44.07733" lon="7.04021">
        <ele>1635</ele>
        <time>2012-12-28T15:49:27Z</time>
      </trkpt>
      <trkpt lat="44.07734" lon="7.04022">
        <ele>1634.6</ele>
        <time>2012-12-28T15:49:28Z</time>
      </trkpt>
      <trkpt lat="44.07735" lon="7.04023">
        <ele>1634.3</ele>
        <time>2012-12-28T15:49:29Z</time>
      </trkpt>
      <trkpt lat="44.07735" lon="7.04024">
        <ele>1634.3</ele>
        <time>2012-12-28T15:49:30Z</time>
      </trkpt>
      <trkpt lat="44.07736" lon="7.04025">
        <ele>1634.9</ele>
        <time>2012-12-28T15:49:31Z</time>
      </trkpt>
      <trkpt lat="44.0774" lon="7.04029">
        <ele>1634.9</ele>
        <time>2012-12-28T15:49:35Z</time>
      </trkpt>
      <trkpt lat="44.0774" lon="7.04029">
        <ele>1634.9</ele>
        <time>2012-12-28T15:49:36Z</time>
      </trkpt>
      <trkpt lat="44.0774" lon="7.04029">
        <ele>1635</ele>
        <time>2012-12-28T15:49:37Z</time>
      </trkpt>
      <trkpt lat="44.07741" lon="7.0403">
        <ele>1634.8</ele>
        <time>2012-12-28T15:49:38Z</time>
      </trkpt>
      <trkpt lat="44.07742" lon="7.04031">
        <ele>1634.7</ele>
        <time>2012-12-28T15:49:39Z</time>
      </trkpt>
      <trkpt lat="44.07744" lon="7.04031">
        <ele>1634.3</ele>
        <time>2012-12-28T15:49:40Z</time>
      </trkpt>
      <trkpt lat="44.07745" lon="7.04032">
        <ele>1633.8</ele>
        <time>2012-12-28T15:49:41Z</time>
      </trkpt>
      <trkpt lat="44.07745" lon="7.04033">
        <ele>1633.4</ele>
        <time>2012-12-28T15:49:42Z</time>
      </trkpt>
      <trkpt lat="44.07747" lon="7.04036">
        <ele>1632.3</ele>
        <time>2012-12-28T15:49:46Z</time>
      </trkpt>
      <trkpt lat="44.07748" lon="7.04037">
        <ele>1632</ele>
        <time>2012-12-28T15:49:47Z</time>
      </trkpt>
      <trkpt lat="44.07748" lon="7.04038">
        <ele>1631.6</ele>
        <time>2012-12-28T15:49:48Z</time>
      </trkpt>
      <trkpt lat="44.07749" lon="7.04039">
        <ele>1631.7</ele>
        <time>2012-12-28T15:49:49Z</time>
      </trkpt>
      <trkpt lat="44.07751" lon="7.04042">
        <ele>1631.3</ele>
        <time>2012-12-28T15:49:52Z</time>
      </trkpt>
      <trkpt lat="44.07752" lon="7.04043">
        <ele>1631.2</ele>
        <time>2012-12-28T15:49:53Z</time>
      </trkpt>
      <trkpt lat="44.07752" lon="7.04043">
        <ele>1631.2</ele>
        <time>2012-12-28T15:49:54Z</time>
      </trkpt>
      <trkpt lat="44.07752" lon="7.04044">
        <ele>1631.5</ele>
        <time>2012-12-28T15:49:55Z</time>
      </trkpt>
      <trkpt lat="44.07753" lon="7.04045">
        <ele>1631.4</ele>
        <time>2012-12-28T15:49:56Z</time>
      </trkpt>
      <trkpt lat="44.07754" lon="7.04046">
        <ele>1631.2</ele>
        <time>2012-12-28T15:49:57Z</time>
      </trkpt>
      <trkpt lat="44.07762" lon="7.04054">
        <ele>1628.8</ele>
        <time>2012-12-28T15:50:08Z</time>
      </trkpt>
      <trkpt lat="44.07762" lon="7.04054">
        <ele>1628.8</ele>
        <time>2012-12-28T15:50:09Z</time>
      </trkpt>
      <trkpt lat="44.07762" lon="7.04054">
        <ele>1628.8</ele>
        <time>2012-12-28T15:50:10Z</time>
      </trkpt>
      <trkpt lat="44.07762" lon="7.04054">
        <ele>1628.6</ele>
        <time>2012-12-28T15:50:11Z</time>
      </trkpt>
      <trkpt lat="44.07762" lon="7.04055">
        <ele>1628.6</ele>
        <time>2012-12-28T15:50:12Z</time>
      </trkpt>
      <trkpt lat="44.07763" lon="7.04056">
        <ele>1628.4</ele>
        <time>2012-12-28T15:50:13Z</time>
      </trkpt>
      <trkpt lat="44.07767" lon="7.04059">
        <ele>1625.9</ele>
        <time>2012-12-28T15:50:19Z</time>
      </trkpt>
      <trkpt lat="44.07772" lon="7.04065">
        <ele>1623.7</ele>
        <time>2012-12-28T15:50:26Z</time>
      </trkpt>
      <trkpt lat="44.07777" lon="7.04069">
        <ele>1623.1</ele>
        <time>2012-12-28T15:50:31Z</time>
      </trkpt>
      <trkpt lat="44.07781" lon="7.04074">
        <ele>1622.4</ele>
        <time>2012-12-28T15:50:36Z</time>
      </trkpt>
      <trkpt lat="44.07783" lon="7.04075">
        <ele>1621.4</ele>
        <time>2012-12-28T15:50:38Z</time>
      </trkpt>
      <trkpt lat="44.07785" lon="7.04078">
        <ele>1621.3</ele>
        <time>2012-12-28T15:50:40Z</time>
      </trkpt>
      <trkpt lat="44.07786" lon="7.0408">
        <ele>1621.6</ele>
        <time>2012-12-28T15:50:41Z</time>
      </trkpt>
      <trkpt lat="44.07786" lon="7.04081">
        <ele>1621.4</ele>
        <time>2012-12-28T15:50:42Z</time>
      </trkpt>
      <trkpt lat="44.07787" lon="7.04082">
        <ele>1621.6</ele>
        <time>2012-12-28T15:50:43Z</time>
      </trkpt>
      <trkpt lat="44.07788" lon="7.04083">
        <ele>1621.3</ele>
        <time>2012-12-28T15:50:44Z</time>
      </trkpt>
      <trkpt lat="44.07791" lon="7.04086">
        <ele>1619.8</ele>
        <time>2012-12-28T15:50:47Z</time>
      </trkpt>
      <trkpt lat="44.07795" lon="7.04092">
        <ele>1618</ele>
        <time>2012-12-28T15:50:54Z</time>
      </trkpt>
      <trkpt lat="44.07797" lon="7.04095">
        <ele>1616.7</ele>
        <time>2012-12-28T15:50:57Z</time>
      </trkpt>
      <trkpt lat="44.07798" lon="7.04097">
        <ele>1616.4</ele>
        <time>2012-12-28T15:50:59Z</time>
      </trkpt>
      <trkpt lat="44.078" lon="7.04099">
        <ele>1616.2</ele>
        <time>2012-12-28T15:51:01Z</time>
      </trkpt>
      <trkpt lat="44.07801" lon="7.04101">
        <ele>1616.1</ele>
        <time>2012-12-28T15:51:02Z</time>
      </trkpt>
      <trkpt lat="44.07802" lon="7.04102">
        <ele>1616.2</ele>
        <time>2012-12-28T15:51:03Z</time>
      </trkpt>
      <trkpt lat="44.07804" lon="7.04106">
        <ele>1615.5</ele>
        <time>2012-12-28T15:51:06Z</time>
      </trkpt>
      <trkpt lat="44.07805" lon="7.04108">
        <ele>1615.6</ele>
        <time>2012-12-28T15:51:07Z</time>
      </trkpt>
      <trkpt lat="44.07806" lon="7.04109">
        <ele>1615.7</ele>
        <time>2012-12-28T15:51:08Z</time>
      </trkpt>
      <trkpt lat="44.07807" lon="7.04111">
        <ele>1615.3</ele>
        <time>2012-12-28T15:51:10Z</time>
      </trkpt>
      <trkpt lat="44.07808" lon="7.04112">
        <ele>1614.7</ele>
        <time>2012-12-28T15:51:11Z</time>
      </trkpt>
      <trkpt lat="44.07815" lon="7.04124">
        <ele>1611.9</ele>
        <time>2012-12-28T15:51:22Z</time>
      </trkpt>
      <trkpt lat="44.07815" lon="7.04125">
        <ele>1611.8</ele>
        <time>2012-12-28T15:51:23Z</time>
      </trkpt>
      <trkpt lat="44.07817" lon="7.0413">
        <ele>1609.3</ele>
        <time>2012-12-28T15:51:29Z</time>
      </trkpt>
      <trkpt lat="44.07818" lon="7.04133">
        <ele>1607.2</ele>
        <time>2012-12-28T15:51:33Z</time>
      </trkpt>
      <trkpt lat="44.07818" lon="7.04134">
        <ele>1606.6</ele>
        <time>2012-12-28T15:51:34Z</time>
      </trkpt>
      <trkpt lat="44.07818" lon="7.04136">
        <ele>1605.9</ele>
        <time>2012-12-28T15:51:35Z</time>
      </trkpt>
      <trkpt lat="44.07818" lon="7.04137">
        <ele>1605.8</ele>
        <time>2012-12-28T15:51:36Z</time>
      </trkpt>
      <trkpt lat="44.07819" lon="7.04138">
        <ele>1605.2</ele>
        <time>2012-12-28T15:51:37Z</time>
      </trkpt>
      <trkpt lat="44.07819" lon="7.04139">
        <ele>1604.8</ele>
        <time>2012-12-28T15:51:38Z</time>
      </trkpt>
      <trkpt lat="44.07819" lon="7.0414">
        <ele>1604.6</ele>
        <time>2012-12-28T15:51:39Z</time>
      </trkpt>
      <trkpt lat="44.07819" lon="7.0414">
        <ele>1604</ele>
        <time>2012-12-28T15:51:40Z</time>
      </trkpt>
      <trkpt lat="44.07819" lon="7.04141">
        <ele>1603.3</ele>
        <time>2012-12-28T15:51:41Z</time>
      </trkpt>
      <trkpt lat="44.07819" lon="7.04143">
        <ele>1602.8</ele>
        <time>2012-12-28T15:51:42Z</time>
      </trkpt>
      <trkpt lat="44.07819" lon="7.04144">
        <ele>1602.9</ele>
        <time>2012-12-28T15:51:43Z</time>
      </trkpt>
      <trkpt lat="44.07819" lon="7.04149">
        <ele>1599.3</ele>
        <time>2012-12-28T15:51:49Z</time>
      </trkpt>
      <trkpt lat="44.07819" lon="7.04152">
        <ele>1599.2</ele>
        <time>2012-12-28T15:51:51Z</time>
      </trkpt>
      <trkpt lat="44.07819" lon="7.04153">
        <ele>1598.5</ele>
        <time>2012-12-28T15:51:52Z</time>
      </trkpt>
      <trkpt lat="44.07819" lon="7.04153">
        <ele>1598.5</ele>
        <time>2012-12-28T15:51:53Z</time>
      </trkpt>
      <trkpt lat="44.07819" lon="7.04154">
        <ele>1598.3</ele>
        <time>2012-12-28T15:51:54Z</time>
      </trkpt>
      <trkpt lat="44.07819" lon="7.04156">
        <ele>1598.1</ele>
        <time>2012-12-28T15:51:55Z</time>
      </trkpt>
      <trkpt lat="44.07819" lon="7.04157">
        <ele>1597.8</ele>
        <time>2012-12-28T15:51:56Z</time>
      </trkpt>
      <trkpt lat="44.0782" lon="7.04158">
        <ele>1597.3</ele>
        <time>2012-12-28T15:51:57Z</time>
      </trkpt>
      <trkpt lat="44.0782" lon="7.04159">
        <ele>1596.5</ele>
        <time>2012-12-28T15:51:58Z</time>
      </trkpt>
      <trkpt lat="44.0782" lon="7.0416">
        <ele>1596.3</ele>
        <time>2012-12-28T15:51:59Z</time>
      </trkpt>
      <trkpt lat="44.07821" lon="7.04166">
        <ele>1594.7</ele>
        <time>2012-12-28T15:52:04Z</time>
      </trkpt>
      <trkpt lat="44.07821" lon="7.0417">
        <ele>1594</ele>
        <time>2012-12-28T15:52:06Z</time>
      </trkpt>
      <trkpt lat="44.07822" lon="7.04174">
        <ele>1591.5</ele>
        <time>2012-12-28T15:52:10Z</time>
      </trkpt>
      <trkpt lat="44.07823" lon="7.04176">
        <ele>1591.8</ele>
        <time>2012-12-28T15:52:11Z</time>
      </trkpt>
      <trkpt lat="44.07845" lon="7.04229">
        <ele>1570.2</ele>
        <time>2012-12-28T15:53:13Z</time>
      </trkpt>
      <trkpt lat="44.07846" lon="7.0423">
        <ele>1569.9</ele>
        <time>2012-12-28T15:53:14Z</time>
      </trkpt>
      <trkpt lat="44.07847" lon="7.04231">
        <ele>1569.8</ele>
        <time>2012-12-28T15:53:17Z</time>
      </trkpt>
      <trkpt lat="44.07847" lon="7.04231">
        <ele>1569.7</ele>
        <time>2012-12-28T15:53:18Z</time>
      </trkpt>
      <trkpt lat="44.07848" lon="7.04232">
        <ele>1569.6</ele>
        <time>2012-12-28T15:53:19Z</time>
      </trkpt>
      <trkpt lat="44.07848" lon="7.04233">
        <ele>1569.5</ele>
        <time>2012-12-28T15:53:20Z</time>
      </trkpt>
      <trkpt lat="44.07849" lon="7.04234">
        <ele>1569.4</ele>
        <time>2012-12-28T15:53:21Z</time>
      </trkpt>
      <trkpt lat="44.07849" lon="7.04235">
        <ele>1569</ele>
        <time>2012-12-28T15:53:22Z</time>
      </trkpt>
      <trkpt lat="44.0785" lon="7.04235">
        <ele>1568.6</ele>
        <time>2012-12-28T15:53:23Z</time>
      </trkpt>
      <trkpt lat="44.0785" lon="7.04236">
        <ele>1568.3</ele>
        <time>2012-12-28T15:53:24Z</time>
      </trkpt>
      <trkpt lat="44.0785" lon="7.04237">
        <ele>1568.1</ele>
        <time>2012-12-28T15:53:25Z</time>
      </trkpt>
      <trkpt lat="44.07851" lon="7.04237">
        <ele>1567.8</ele>
        <time>2012-12-28T15:53:26Z</time>
      </trkpt>
      <trkpt lat="44.07851" lon="7.04238">
        <ele>1567.7</ele>
        <time>2012-12-28T15:53:27Z</time>
      </trkpt>
      <trkpt lat="44.07854" lon="7.04243">
        <ele>1566.1</ele>
        <time>2012-12-28T15:53:32Z</time>
      </trkpt>
      <trkpt lat="44.07854" lon="7.04243">
        <ele>1565.8</ele>
        <time>2012-12-28T15:53:33Z</time>
      </trkpt>
      <trkpt lat="44.07856" lon="7.04246">
        <ele>1566.3</ele>
        <time>2012-12-28T15:53:35Z</time>
      </trkpt>
      <trkpt lat="44.07856" lon="7.04246">
        <ele>1566.3</ele>
        <time>2012-12-28T15:53:36Z</time>
      </trkpt>
      <trkpt lat="44.07856" lon="7.04246">
        <ele>1565.7</ele>
        <time>2012-12-28T15:53:37Z</time>
      </trkpt>
      <trkpt lat="44.07856" lon="7.04247">
        <ele>1565.8</ele>
        <time>2012-12-28T15:53:38Z</time>
      </trkpt>
      <trkpt lat="44.07857" lon="7.04248">
        <ele>1565.7</ele>
        <time>2012-12-28T15:53:39Z</time>
      </trkpt>
      <trkpt lat="44.07858" lon="7.04249">
        <ele>1565.7</ele>
        <time>2012-12-28T15:53:40Z</time>
      </trkpt>
      <trkpt lat="44.07858" lon="7.0425">
        <ele>1565.9</ele>
        <time>2012-12-28T15:53:41Z</time>
      </trkpt>
      <trkpt lat="44.07859" lon="7.04251">
        <ele>1565.8</ele>
        <time>2012-12-28T15:53:42Z</time>
      </trkpt>
      <trkpt lat="44.0786" lon="7.04252">
        <ele>1565.9</ele>
        <time>2012-12-28T15:53:43Z</time>
      </trkpt>
      <trkpt lat="44.07864" lon="7.04257">
        <ele>1565.9</ele>
        <time>2012-12-28T15:53:47Z</time>
      </trkpt>
      <trkpt lat="44.07866" lon="7.04261">
        <ele>1566.2</ele>
        <time>2012-12-28T15:53:50Z</time>
      </trkpt>
      <trkpt lat="44.07869" lon="7.04266">
        <ele>1566.3</ele>
        <time>2012-12-28T15:53:55Z</time>
      </trkpt>
      <trkpt lat="44.07869" lon="7.04267">
        <ele>1566</ele>
        <time>2012-12-28T15:53:56Z</time>
      </trkpt>
      <trkpt lat="44.07869" lon="7.04267">
        <ele>1565.8</ele>
        <time>2012-12-28T15:53:57Z</time>
      </trkpt>
      <trkpt lat="44.0787" lon="7.04268">
        <ele>1565.7</ele>
        <time>2012-12-28T15:53:58Z</time>
      </trkpt>
      <trkpt lat="44.07873" lon="7.0427">
        <ele>1565.7</ele>
        <time>2012-12-28T15:54:01Z</time>
      </trkpt>
      <trkpt lat="44.07873" lon="7.0427">
        <ele>1565.7</ele>
        <time>2012-12-28T15:54:02Z</time>
      </trkpt>
      <trkpt lat="44.07873" lon="7.0427">
        <ele>1565.7</ele>
        <time>2012-12-28T15:54:03Z</time>
      </trkpt>
      <trkpt lat="44.07873" lon="7.04271">
        <ele>1565.6</ele>
        <time>2012-12-28T15:54:04Z</time>
      </trkpt>
      <trkpt lat="44.07876" lon="7.04275">
        <ele>1564.3</ele>
        <time>2012-12-28T15:54:09Z</time>
      </trkpt>
      <trkpt lat="44.07877" lon="7.04276">
        <ele>1564.2</ele>
        <time>2012-12-28T15:54:10Z</time>
      </trkpt>
      <trkpt lat="44.07879" lon="7.04278">
        <ele>1564</ele>
        <time>2012-12-28T15:54:14Z</time>
      </trkpt>
      <trkpt lat="44.07885" lon="7.04283">
        <ele>1561.6</ele>
        <time>2012-12-28T15:54:22Z</time>
      </trkpt>
      <trkpt lat="44.07886" lon="7.04284">
        <ele>1561.2</ele>
        <time>2012-12-28T15:54:23Z</time>
      </trkpt>
      <trkpt lat="44.07887" lon="7.04284">
        <ele>1560.5</ele>
        <time>2012-12-28T15:54:24Z</time>
      </trkpt>
      <trkpt lat="44.07889" lon="7.04286">
        <ele>1559.8</ele>
        <time>2012-12-28T15:54:26Z</time>
      </trkpt>
      <trkpt lat="44.07892" lon="7.04289">
        <ele>1558.5</ele>
        <time>2012-12-28T15:54:30Z</time>
      </trkpt>
      <trkpt lat="44.07893" lon="7.0429">
        <ele>1558.7</ele>
        <time>2012-12-28T15:54:31Z</time>
      </trkpt>
      <trkpt lat="44.07895" lon="7.04292">
        <ele>1559.3</ele>
        <time>2012-12-28T15:54:33Z</time>
      </trkpt>
      <trkpt lat="44.07897" lon="7.04294">
        <ele>1559.1</ele>
        <time>2012-12-28T15:54:37Z</time>
      </trkpt>
      <trkpt lat="44.07898" lon="7.04295">
        <ele>1559.1</ele>
        <time>2012-12-28T15:54:38Z</time>
      </trkpt>
      <trkpt lat="44.07899" lon="7.04296">
        <ele>1559.1</ele>
        <time>2012-12-28T15:54:39Z</time>
      </trkpt>
      <trkpt lat="44.07902" lon="7.04298">
        <ele>1558.4</ele>
        <time>2012-12-28T15:54:42Z</time>
      </trkpt>
      <trkpt lat="44.07907" lon="7.04302">
        <ele>1558.4</ele>
        <time>2012-12-28T15:54:47Z</time>
      </trkpt>
      <trkpt lat="44.07911" lon="7.04306">
        <ele>1556.5</ele>
        <time>2012-12-28T15:54:53Z</time>
      </trkpt>
      <trkpt lat="44.07912" lon="7.04306">
        <ele>1555.8</ele>
        <time>2012-12-28T15:54:54Z</time>
      </trkpt>
      <trkpt lat="44.07914" lon="7.04308">
        <ele>1556</ele>
        <time>2012-12-28T15:54:56Z</time>
      </trkpt>
      <trkpt lat="44.07916" lon="7.04309">
        <ele>1556</ele>
        <time>2012-12-28T15:54:57Z</time>
      </trkpt>
      <trkpt lat="44.07921" lon="7.04313">
        <ele>1554.8</ele>
        <time>2012-12-28T15:55:02Z</time>
      </trkpt>
      <trkpt lat="44.07922" lon="7.04314">
        <ele>1554.7</ele>
        <time>2012-12-28T15:55:03Z</time>
      </trkpt>
      <trkpt lat="44.07923" lon="7.04315">
        <ele>1555.5</ele>
        <time>2012-12-28T15:55:04Z</time>
      </trkpt>
      <trkpt lat="44.07924" lon="7.04315">
        <ele>1555.3</ele>
        <time>2012-12-28T15:55:05Z</time>
      </trkpt>
      <trkpt lat="44.07924" lon="7.04316">
        <ele>1554.6</ele>
        <time>2012-12-28T15:55:07Z</time>
      </trkpt>
      <trkpt lat="44.07925" lon="7.04317">
        <ele>1554.3</ele>
        <time>2012-12-28T15:55:08Z</time>
      </trkpt>
      <trkpt lat="44.07926" lon="7.04318">
        <ele>1553.9</ele>
        <time>2012-12-28T15:55:09Z</time>
      </trkpt>
      <trkpt lat="44.07926" lon="7.04318">
        <ele>1554</ele>
        <time>2012-12-28T15:55:10Z</time>
      </trkpt>
      <trkpt lat="44.07927" lon="7.04319">
        <ele>1554.4</ele>
        <time>2012-12-28T15:55:11Z</time>
      </trkpt>
      <trkpt lat="44.0793" lon="7.04322">
        <ele>1553.5</ele>
        <time>2012-12-28T15:55:15Z</time>
      </trkpt>
      <trkpt lat="44.07931" lon="7.04322">
        <ele>1553.2</ele>
        <time>2012-12-28T15:55:16Z</time>
      </trkpt>
      <trkpt lat="44.07931" lon="7.04322">
        <ele>1553.2</ele>
        <time>2012-12-28T15:55:17Z</time>
      </trkpt>
      <trkpt lat="44.07931" lon="7.04322">
        <ele>1553.2</ele>
        <time>2012-12-28T15:55:18Z</time>
      </trkpt>
      <trkpt lat="44.07931" lon="7.04322">
        <ele>1553.2</ele>
        <time>2012-12-28T15:55:19Z</time>
      </trkpt>
      <trkpt lat="44.07931" lon="7.04322">
        <ele>1553.2</ele>
        <time>2012-12-28T15:55:20Z</time>
      </trkpt>
      <trkpt lat="44.07931" lon="7.04322">
        <ele>1553.2</ele>
        <time>2012-12-28T15:55:21Z</time>
      </trkpt>
      <trkpt lat="44.07931" lon="7.04322">
        <ele>1553.2</ele>
        <time>2012-12-28T15:55:22Z</time>
      </trkpt>
      <trkpt lat="44.07931" lon="7.04322">
        <ele>1553.2</ele>
        <time>2012-12-28T15:55:23Z</time>
      </trkpt>
      <trkpt lat="44.07931" lon="7.04322">
        <ele>1553.2</ele>
        <time>2012-12-28T15:55:24Z</time>
      </trkpt>
      <trkpt lat="44.07931" lon="7.04322">
        <ele>1553.2</ele>
        <time>2012-12-28T15:55:25Z</time>
      </trkpt>
      <trkpt lat="44.07931" lon="7.04322">
        <ele>1553.2</ele>
        <time>2012-12-28T15:55:26Z</time>
      </trkpt>
      <trkpt lat="44.07931" lon="7.04322">
        <ele>1553.2</ele>
        <time>2012-12-28T15:55:27Z</time>
      </trkpt>
      <trkpt lat="44.07931" lon="7.04322">
        <ele>1553.2</ele>
        <time>2012-12-28T15:55:28Z</time>
      </trkpt>
      <trkpt lat="44.07931" lon="7.04322">
        <ele>1553.2</ele>
        <time>2012-12-28T15:55:29Z</time>
      </trkpt>
      <trkpt lat="44.07931" lon="7.04322">
        <ele>1553.2</ele>
        <time>2012-12-28T15:55:30Z</time>
      </trkpt>
      <trkpt lat="44.07931" lon="7.04322">
        <ele>1553.2</ele>
        <time>2012-12-28T15:55:31Z</time>
      </trkpt>
      <trkpt lat="44.07931" lon="7.04322">
        <ele>1553.2</ele>
        <time>2012-12-28T15:55:32Z</time>
      </trkpt>
      <trkpt lat="44.07931" lon="7.04322">
        <ele>1553.2</ele>
        <time>2012-12-28T15:55:33Z</time>
      </trkpt>
      <trkpt lat="44.07931" lon="7.04322">
        <ele>1553.2</ele>
        <time>2012-12-28T15:55:34Z</time>
      </trkpt>
      <trkpt lat="44.07931" lon="7.04322">
        <ele>1553.2</ele>
        <time>2012-12-28T15:55:35Z</time>
      </trkpt>
      <trkpt lat="44.07931" lon="7.04322">
        <ele>1553.2</ele>
        <time>2012-12-28T15:55:36Z</time>
      </trkpt>
      <trkpt lat="44.07931" lon="7.04322">
        <ele>1553.2</ele>
        <time>2012-12-28T15:55:37Z</time>
      </trkpt>
      <trkpt lat="44.07931" lon="7.04322">
        <ele>1553.2</ele>
        <time>2012-12-28T15:55:38Z</time>
      </trkpt>
      <trkpt lat="44.07931" lon="7.04322">
        <ele>1553.2</ele>
        <time>2012-12-28T15:55:39Z</time>
      </trkpt>
      <trkpt lat="44.07931" lon="7.04322">
        <ele>1553.3</ele>
        <time>2012-12-28T15:55:40Z</time>
      </trkpt>
      <trkpt lat="44.07931" lon="7.04322">
        <ele>1553.1</ele>
        <time>2012-12-28T15:55:41Z</time>
      </trkpt>
      <trkpt lat="44.07931" lon="7.04322">
        <ele>1552.8</ele>
        <time>2012-12-28T15:55:42Z</time>
      </trkpt>
      <trkpt lat="44.07932" lon="7.04324">
        <ele>1551.8</ele>
        <time>2012-12-28T15:55:49Z</time>
      </trkpt>
      <trkpt lat="44.07933" lon="7.04325">
        <ele>1551.6</ele>
        <time>2012-12-28T15:55:50Z</time>
      </trkpt>
      <trkpt lat="44.07933" lon="7.04325">
        <ele>1551.6</ele>
        <time>2012-12-28T15:55:51Z</time>
      </trkpt>
      <trkpt lat="44.07933" lon="7.04325">
        <ele>1551.6</ele>
        <time>2012-12-28T15:55:52Z</time>
      </trkpt>
      <trkpt lat="44.07933" lon="7.04325">
        <ele>1551.6</ele>
        <time>2012-12-28T15:55:53Z</time>
      </trkpt>
      <trkpt lat="44.07933" lon="7.04325">
        <ele>1551.6</ele>
        <time>2012-12-28T15:55:54Z</time>
      </trkpt>
      <trkpt lat="44.07933" lon="7.04325">
        <ele>1551.6</ele>
        <time>2012-12-28T15:55:55Z</time>
      </trkpt>
      <trkpt lat="44.07933" lon="7.04325">
        <ele>1551.6</ele>
        <time>2012-12-28T15:55:56Z</time>
      </trkpt>
      <trkpt lat="44.07933" lon="7.04325">
        <ele>1551.6</ele>
        <time>2012-12-28T15:55:57Z</time>
      </trkpt>
      <trkpt lat="44.07933" lon="7.04325">
        <ele>1551.6</ele>
        <time>2012-12-28T15:55:58Z</time>
      </trkpt>
      <trkpt lat="44.07933" lon="7.04325">
        <ele>1551.6</ele>
        <time>2012-12-28T15:55:59Z</time>
      </trkpt>
      <trkpt lat="44.07933" lon="7.04325">
        <ele>1551.6</ele>
        <time>2012-12-28T15:56:00Z</time>
      </trkpt>
      <trkpt lat="44.07933" lon="7.04325">
        <ele>1551.6</ele>
        <time>2012-12-28T15:56:01Z</time>
      </trkpt>
      <trkpt lat="44.07933" lon="7.04325">
        <ele>1551.6</ele>
        <time>2012-12-28T15:56:02Z</time>
      </trkpt>
      <trkpt lat="44.07933" lon="7.04325">
        <ele>1551.6</ele>
        <time>2012-12-28T15:56:03Z</time>
      </trkpt>
      <trkpt lat="44.07933" lon="7.04325">
        <ele>1551.6</ele>
        <time>2012-12-28T15:56:04Z</time>
      </trkpt>
      <trkpt lat="44.07933" lon="7.04325">
        <ele>1551.6</ele>
        <time>2012-12-28T15:56:05Z</time>
      </trkpt>
      <trkpt lat="44.07933" lon="7.04325">
        <ele>1551.6</ele>
        <time>2012-12-28T15:56:06Z</time>
      </trkpt>
      <trkpt lat="44.07933" lon="7.04325">
        <ele>1551.2</ele>
        <time>2012-12-28T15:56:07Z</time>
      </trkpt>
      <trkpt lat="44.07933" lon="7.04324">
        <ele>1550.4</ele>
        <time>2012-12-28T15:56:08Z</time>
      </trkpt>
      <trkpt lat="44.07933" lon="7.04323">
        <ele>1550</ele>
        <time>2012-12-28T15:56:09Z</time>
      </trkpt>
      <trkpt lat="44.07934" lon="7.04324">
        <ele>1549.6</ele>
        <time>2012-12-28T15:56:10Z</time>
      </trkpt>
      <trkpt lat="44.07934" lon="7.04324">
        <ele>1549</ele>
        <time>2012-12-28T15:56:11Z</time>
      </trkpt>
      <trkpt lat="44.07936" lon="7.04325">
        <ele>1548</ele>
        <time>2012-12-28T15:56:18Z</time>
      </trkpt>
      <trkpt lat="44.07939" lon="7.04326">
        <ele>1547.1</ele>
        <time>2012-12-28T15:56:23Z</time>
      </trkpt>
      <trkpt lat="44.0794" lon="7.04327">
        <ele>1546.4</ele>
        <time>2012-12-28T15:56:24Z</time>
      </trkpt>
      <trkpt lat="44.07941" lon="7.04328">
        <ele>1546.6</ele>
        <time>2012-12-28T15:56:25Z</time>
      </trkpt>
      <trkpt lat="44.07941" lon="7.04328">
        <ele>1546.6</ele>
        <time>2012-12-28T15:56:26Z</time>
      </trkpt>
      <trkpt lat="44.07941" lon="7.04329">
        <ele>1546.8</ele>
        <time>2012-12-28T15:56:27Z</time>
      </trkpt>
      <trkpt lat="44.07941" lon="7.04329">
        <ele>1546.8</ele>
        <time>2012-12-28T15:56:28Z</time>
      </trkpt>
      <trkpt lat="44.07951" lon="7.04346">
        <ele>1544.1</ele>
        <time>2012-12-28T15:56:52Z</time>
      </trkpt>
      <trkpt lat="44.07952" lon="7.04349">
        <ele>1543.5</ele>
        <time>2012-12-28T15:56:55Z</time>
      </trkpt>
      <trkpt lat="44.07954" lon="7.04355">
        <ele>1541.9</ele>
        <time>2012-12-28T15:57:02Z</time>
      </trkpt>
      <trkpt lat="44.07956" lon="7.04358">
        <ele>1540.6</ele>
        <time>2012-12-28T15:57:05Z</time>
      </trkpt>
      <trkpt lat="44.07956" lon="7.04359">
        <ele>1539.8</ele>
        <time>2012-12-28T15:57:06Z</time>
      </trkpt>
      <trkpt lat="44.07957" lon="7.04361">
        <ele>1538.9</ele>
        <time>2012-12-28T15:57:09Z</time>
      </trkpt>
      <trkpt lat="44.0796" lon="7.04365">
        <ele>1536.9</ele>
        <time>2012-12-28T15:57:15Z</time>
      </trkpt>
      <trkpt lat="44.07962" lon="7.04367">
        <ele>1536</ele>
        <time>2012-12-28T15:57:17Z</time>
      </trkpt>
      <trkpt lat="44.07963" lon="7.04368">
        <ele>1535.1</ele>
        <time>2012-12-28T15:57:18Z</time>
      </trkpt>
      <trkpt lat="44.07965" lon="7.04372">
        <ele>1531.5</ele>
        <time>2012-12-28T15:57:23Z</time>
      </trkpt>
      <trkpt lat="44.07965" lon="7.04373">
        <ele>1531.1</ele>
        <time>2012-12-28T15:57:24Z</time>
      </trkpt>
      <trkpt lat="44.07965" lon="7.04374">
        <ele>1530.5</ele>
        <time>2012-12-28T15:57:25Z</time>
      </trkpt>
      <trkpt lat="44.07965" lon="7.04375">
        <ele>1530.2</ele>
        <time>2012-12-28T15:57:26Z</time>
      </trkpt>
      <trkpt lat="44.07967" lon="7.04377">
        <ele>1528.1</ele>
        <time>2012-12-28T15:57:29Z</time>
      </trkpt>
      <trkpt lat="44.07967" lon="7.04377">
        <ele>1528.2</ele>
        <time>2012-12-28T15:57:30Z</time>
      </trkpt>
      <trkpt lat="44.07968" lon="7.04378">
        <ele>1528</ele>
        <time>2012-12-28T15:57:31Z</time>
      </trkpt>
      <trkpt lat="44.07976" lon="7.04388">
        <ele>1524.5</ele>
        <time>2012-12-28T15:57:47Z</time>
      </trkpt>
      <trkpt lat="44.07981" lon="7.04396">
        <ele>1523</ele>
        <time>2012-12-28T15:57:56Z</time>
      </trkpt>
      <trkpt lat="44.07981" lon="7.04398">
        <ele>1523</ele>
        <time>2012-12-28T15:57:57Z</time>
      </trkpt>
      <trkpt lat="44.07983" lon="7.04403">
        <ele>1520.6</ele>
        <time>2012-12-28T15:58:03Z</time>
      </trkpt>
      <trkpt lat="44.07988" lon="7.04413">
        <ele>1517.1</ele>
        <time>2012-12-28T15:58:14Z</time>
      </trkpt>
      <trkpt lat="44.07989" lon="7.04414">
        <ele>1517</ele>
        <time>2012-12-28T15:58:15Z</time>
      </trkpt>
      <trkpt lat="44.07989" lon="7.04415">
        <ele>1516.8</ele>
        <time>2012-12-28T15:58:16Z</time>
      </trkpt>
      <trkpt lat="44.0799" lon="7.04416">
        <ele>1516.3</ele>
        <time>2012-12-28T15:58:17Z</time>
      </trkpt>
      <trkpt lat="44.0799" lon="7.04416">
        <ele>1516.1</ele>
        <time>2012-12-28T15:58:18Z</time>
      </trkpt>
      <trkpt lat="44.07992" lon="7.04427">
        <ele>1513.1</ele>
        <time>2012-12-28T15:58:28Z</time>
      </trkpt>
      <trkpt lat="44.07993" lon="7.04428">
        <ele>1513</ele>
        <time>2012-12-28T15:58:29Z</time>
      </trkpt>
      <trkpt lat="44.07994" lon="7.04429">
        <ele>1512.1</ele>
        <time>2012-12-28T15:58:30Z</time>
      </trkpt>
      <trkpt lat="44.07994" lon="7.04434">
        <ele>1508.4</ele>
        <time>2012-12-28T15:58:36Z</time>
      </trkpt>
      <trkpt lat="44.07994" lon="7.04436">
        <ele>1508.2</ele>
        <time>2012-12-28T15:58:37Z</time>
      </trkpt>
      <trkpt lat="44.07994" lon="7.04436">
        <ele>1507.9</ele>
        <time>2012-12-28T15:58:38Z</time>
      </trkpt>
      <trkpt lat="44.07994" lon="7.04437">
        <ele>1507</ele>
        <time>2012-12-28T15:58:39Z</time>
      </trkpt>
      <trkpt lat="44.07994" lon="7.04438">
        <ele>1506.5</ele>
        <time>2012-12-28T15:58:40Z</time>
      </trkpt>
      <trkpt lat="44.07994" lon="7.0444">
        <ele>1506.4</ele>
        <time>2012-12-28T15:58:41Z</time>
      </trkpt>
      <trkpt lat="44.07997" lon="7.04445">
        <ele>1505.6</ele>
        <time>2012-12-28T15:58:47Z</time>
      </trkpt>
      <trkpt lat="44.07997" lon="7.04447">
        <ele>1505</ele>
        <time>2012-12-28T15:58:48Z</time>
      </trkpt>
      <trkpt lat="44.08" lon="7.04459">
        <ele>1500.4</ele>
        <time>2012-12-28T15:59:03Z</time>
      </trkpt>
      <trkpt lat="44.08001" lon="7.0446">
        <ele>1499.9</ele>
        <time>2012-12-28T15:59:04Z</time>
      </trkpt>
      <trkpt lat="44.08001" lon="7.04461">
        <ele>1499.8</ele>
        <time>2012-12-28T15:59:05Z</time>
      </trkpt>
      <trkpt lat="44.08001" lon="7.04462">
        <ele>1499.6</ele>
        <time>2012-12-28T15:59:06Z</time>
      </trkpt>
      <trkpt lat="44.08002" lon="7.04463">
        <ele>1499.7</ele>
        <time>2012-12-28T15:59:07Z</time>
      </trkpt>
      <trkpt lat="44.08002" lon="7.04463">
        <ele>1499.3</ele>
        <time>2012-12-28T15:59:08Z</time>
      </trkpt>
      <trkpt lat="44.08002" lon="7.04464">
        <ele>1499.6</ele>
        <time>2012-12-28T15:59:09Z</time>
      </trkpt>
      <trkpt lat="44.08003" lon="7.04465">
        <ele>1499.2</ele>
        <time>2012-12-28T15:59:10Z</time>
      </trkpt>
      <trkpt lat="44.08004" lon="7.04468">
        <ele>1498.5</ele>
        <time>2012-12-28T15:59:13Z</time>
      </trkpt>
      <trkpt lat="44.08005" lon="7.04471">
        <ele>1498.2</ele>
        <time>2012-12-28T15:59:15Z</time>
      </trkpt>
      <trkpt lat="44.08005" lon="7.04472">
        <ele>1497.9</ele>
        <time>2012-12-28T15:59:16Z</time>
      </trkpt>
      <trkpt lat="44.08009" lon="7.04478">
        <ele>1495.9</ele>
        <time>2012-12-28T15:59:22Z</time>
      </trkpt>
      <trkpt lat="44.08011" lon="7.04481">
        <ele>1495.4</ele>
        <time>2012-12-28T15:59:24Z</time>
      </trkpt>
      <trkpt lat="44.08011" lon="7.04482">
        <ele>1494.8</ele>
        <time>2012-12-28T15:59:25Z</time>
      </trkpt>
      <trkpt lat="44.08012" lon="7.04483">
        <ele>1494.3</ele>
        <time>2012-12-28T15:59:26Z</time>
      </trkpt>
      <trkpt lat="44.08012" lon="7.04484">
        <ele>1493.6</ele>
        <time>2012-12-28T15:59:27Z</time>
      </trkpt>
      <trkpt lat="44.08013" lon="7.04485">
        <ele>1493.4</ele>
        <time>2012-12-28T15:59:28Z</time>
      </trkpt>
      <trkpt lat="44.08015" lon="7.04489">
        <ele>1492.4</ele>
        <time>2012-12-28T15:59:32Z</time>
      </trkpt>
      <trkpt lat="44.08018" lon="7.04494">
        <ele>1492.6</ele>
        <time>2012-12-28T16:00:09Z</time>
      </trkpt>
      <trkpt lat="44.08019" lon="7.04496">
        <ele>1492.3</ele>
        <time>2012-12-28T16:00:10Z</time>
      </trkpt>
      <trkpt lat="44.08019" lon="7.04498">
        <ele>1492.2</ele>
        <time>2012-12-28T16:00:11Z</time>
      </trkpt>
      <trkpt lat="44.0802" lon="7.04499">
        <ele>1492</ele>
        <time>2012-12-28T16:00:12Z</time>
      </trkpt>
      <trkpt lat="44.08021" lon="7.04501">
        <ele>1491.7</ele>
        <time>2012-12-28T16:00:14Z</time>
      </trkpt>
      <trkpt lat="44.08022" lon="7.04502">
        <ele>1491.5</ele>
        <time>2012-12-28T16:00:15Z</time>
      </trkpt>
      <trkpt lat="44.08023" lon="7.04504">
        <ele>1491.1</ele>
        <time>2012-12-28T16:00:17Z</time>
      </trkpt>
      <trkpt lat="44.08024" lon="7.04505">
        <ele>1490.8</ele>
        <time>2012-12-28T16:00:18Z</time>
      </trkpt>
      <trkpt lat="44.08026" lon="7.04508">
        <ele>1490.6</ele>
        <time>2012-12-28T16:00:21Z</time>
      </trkpt>
      <trkpt lat="44.08027" lon="7.04509">
        <ele>1490.5</ele>
        <time>2012-12-28T16:00:22Z</time>
      </trkpt>
      <trkpt lat="44.08028" lon="7.04514">
        <ele>1488.5</ele>
        <time>2012-12-28T16:00:27Z</time>
      </trkpt>
      <trkpt lat="44.08028" lon="7.04516">
        <ele>1488.4</ele>
        <time>2012-12-28T16:00:28Z</time>
      </trkpt>
      <trkpt lat="44.08029" lon="7.04516">
        <ele>1487.8</ele>
        <time>2012-12-28T16:00:29Z</time>
      </trkpt>
      <trkpt lat="44.08029" lon="7.04517">
        <ele>1487.4</ele>
        <time>2012-12-28T16:00:30Z</time>
      </trkpt>
      <trkpt lat="44.0803" lon="7.04518">
        <ele>1487.2</ele>
        <time>2012-12-28T16:00:31Z</time>
      </trkpt>
      <trkpt lat="44.08033" lon="7.04523">
        <ele>1485.6</ele>
        <time>2012-12-28T16:00:44Z</time>
      </trkpt>
      <trkpt lat="44.08034" lon="7.04523">
        <ele>1485.2</ele>
        <time>2012-12-28T16:00:45Z</time>
      </trkpt>
      <trkpt lat="44.08035" lon="7.04524">
        <ele>1484.9</ele>
        <time>2012-12-28T16:00:46Z</time>
      </trkpt>
      <trkpt lat="44.0804" lon="7.0453">
        <ele>1482.1</ele>
        <time>2012-12-28T16:00:56Z</time>
      </trkpt>
      <trkpt lat="44.08043" lon="7.04532">
        <ele>1481.2</ele>
        <time>2012-12-28T16:01:01Z</time>
      </trkpt>
      <trkpt lat="44.08044" lon="7.04533">
        <ele>1480.8</ele>
        <time>2012-12-28T16:01:02Z</time>
      </trkpt>
      <trkpt lat="44.08045" lon="7.04535">
        <ele>1480.3</ele>
        <time>2012-12-28T16:01:04Z</time>
      </trkpt>
      <trkpt lat="44.08048" lon="7.04539">
        <ele>1479.7</ele>
        <time>2012-12-28T16:01:12Z</time>
      </trkpt>
      <trkpt lat="44.08049" lon="7.0454">
        <ele>1479.8</ele>
        <time>2012-12-28T16:01:13Z</time>
      </trkpt>
      <trkpt lat="44.0805" lon="7.04541">
        <ele>1479.9</ele>
        <time>2012-12-28T16:01:14Z</time>
      </trkpt>
      <trkpt lat="44.08051" lon="7.04541">
        <ele>1479.8</ele>
        <time>2012-12-28T16:01:15Z</time>
      </trkpt>
      <trkpt lat="44.08052" lon="7.04542">
        <ele>1479.6</ele>
        <time>2012-12-28T16:01:16Z</time>
      </trkpt>
      <trkpt lat="44.08052" lon="7.04542">
        <ele>1479.6</ele>
        <time>2012-12-28T16:01:17Z</time>
      </trkpt>
      <trkpt lat="44.08052" lon="7.04542">
        <ele>1479.5</ele>
        <time>2012-12-28T16:01:18Z</time>
      </trkpt>
      <trkpt lat="44.08053" lon="7.04542">
        <ele>1479.4</ele>
        <time>2012-12-28T16:01:19Z</time>
      </trkpt>
      <trkpt lat="44.08054" lon="7.04543">
        <ele>1479.2</ele>
        <time>2012-12-28T16:01:20Z</time>
      </trkpt>
      <trkpt lat="44.08054" lon="7.04543">
        <ele>1479.1</ele>
        <time>2012-12-28T16:01:21Z</time>
      </trkpt>
      <trkpt lat="44.08055" lon="7.04543">
        <ele>1478.9</ele>
        <time>2012-12-28T16:01:22Z</time>
      </trkpt>
      <trkpt lat="44.08058" lon="7.04541">
        <ele>1478.5</ele>
        <time>2012-12-28T16:01:32Z</time>
      </trkpt>
      <trkpt lat="44.08059" lon="7.0454">
        <ele>1477.7</ele>
        <time>2012-12-28T16:01:33Z</time>
      </trkpt>
      <trkpt lat="44.08059" lon="7.04539">
        <ele>1476.9</ele>
        <time>2012-12-28T16:01:34Z</time>
      </trkpt>
      <trkpt lat="44.08059" lon="7.04538">
        <ele>1476.7</ele>
        <time>2012-12-28T16:01:35Z</time>
      </trkpt>
      <trkpt lat="44.08059" lon="7.04536">
        <ele>1476.7</ele>
        <time>2012-12-28T16:01:36Z</time>
      </trkpt>
      <trkpt lat="44.08059" lon="7.04534">
        <ele>1476.6</ele>
        <time>2012-12-28T16:01:37Z</time>
      </trkpt>
      <trkpt lat="44.08061" lon="7.04532">
        <ele>1476</ele>
        <time>2012-12-28T16:01:44Z</time>
      </trkpt>
      <trkpt lat="44.08061" lon="7.04532">
        <ele>1476</ele>
        <time>2012-12-28T16:01:45Z</time>
      </trkpt>
      <trkpt lat="44.08061" lon="7.04532">
        <ele>1476</ele>
        <time>2012-12-28T16:01:46Z</time>
      </trkpt>
      <trkpt lat="44.08061" lon="7.04532">
        <ele>1476</ele>
        <time>2012-12-28T16:01:47Z</time>
      </trkpt>
      <trkpt lat="44.08061" lon="7.04532">
        <ele>1475.4</ele>
        <time>2012-12-28T16:01:48Z</time>
      </trkpt>
      <trkpt lat="44.08061" lon="7.04532">
        <ele>1475.4</ele>
        <time>2012-12-28T16:01:49Z</time>
      </trkpt>
      <trkpt lat="44.08061" lon="7.04532">
        <ele>1475.2</ele>
        <time>2012-12-28T16:01:50Z</time>
      </trkpt>
      <trkpt lat="44.08066" lon="7.04535">
        <ele>1476.1</ele>
        <time>2012-12-28T16:01:54Z</time>
      </trkpt>
      <trkpt lat="44.08067" lon="7.04536">
        <ele>1476.4</ele>
        <time>2012-12-28T16:01:55Z</time>
      </trkpt>
      <trkpt lat="44.08067" lon="7.04536">
        <ele>1476.5</ele>
        <time>2012-12-28T16:01:56Z</time>
      </trkpt>
      <trkpt lat="44.08067" lon="7.04537">
        <ele>1476.4</ele>
        <time>2012-12-28T16:01:57Z</time>
      </trkpt>
      <trkpt lat="44.08068" lon="7.04538">
        <ele>1476.4</ele>
        <time>2012-12-28T16:01:58Z</time>
      </trkpt>
      <trkpt lat="44.08071" lon="7.04539">
        <ele>1476.5</ele>
        <time>2012-12-28T16:02:02Z</time>
      </trkpt>
      <trkpt lat="44.08073" lon="7.0454">
        <ele>1476.4</ele>
        <time>2012-12-28T16:02:11Z</time>
      </trkpt>
      <trkpt lat="44.08073" lon="7.0454">
        <ele>1476.4</ele>
        <time>2012-12-28T16:02:12Z</time>
      </trkpt>
      <trkpt lat="44.08074" lon="7.0454">
        <ele>1476.4</ele>
        <time>2012-12-28T16:02:13Z</time>
      </trkpt>
      <trkpt lat="44.08074" lon="7.0454">
        <ele>1476.7</ele>
        <time>2012-12-28T16:02:14Z</time>
      </trkpt>
      <trkpt lat="44.08074" lon="7.0454">
        <ele>1476.7</ele>
        <time>2012-12-28T16:02:15Z</time>
      </trkpt>
      <trkpt lat="44.08074" lon="7.0454">
        <ele>1476.7</ele>
        <time>2012-12-28T16:02:16Z</time>
      </trkpt>
      <trkpt lat="44.08074" lon="7.04539">
        <ele>1476.6</ele>
        <time>2012-12-28T16:02:17Z</time>
      </trkpt>
      <trkpt lat="44.08075" lon="7.04538">
        <ele>1476.2</ele>
        <time>2012-12-28T16:02:18Z</time>
      </trkpt>
      <trkpt lat="44.08076" lon="7.04536">
        <ele>1475.3</ele>
        <time>2012-12-28T16:02:19Z</time>
      </trkpt>
      <trkpt lat="44.08076" lon="7.04534">
        <ele>1474.7</ele>
        <time>2012-12-28T16:02:20Z</time>
      </trkpt>
      <trkpt lat="44.08077" lon="7.04533">
        <ele>1474.5</ele>
        <time>2012-12-28T16:02:21Z</time>
      </trkpt>
      <trkpt lat="44.08077" lon="7.04532">
        <ele>1474.2</ele>
        <time>2012-12-28T16:02:22Z</time>
      </trkpt>
      <trkpt lat="44.08077" lon="7.0453">
        <ele>1473.5</ele>
        <time>2012-12-28T16:02:23Z</time>
      </trkpt>
      <trkpt lat="44.08077" lon="7.04529">
        <ele>1472.9</ele>
        <time>2012-12-28T16:02:24Z</time>
      </trkpt>
      <trkpt lat="44.08078" lon="7.04528">
        <ele>1472.6</ele>
        <time>2012-12-28T16:02:25Z</time>
      </trkpt>
      <trkpt lat="44.08078" lon="7.04528">
        <ele>1472.5</ele>
        <time>2012-12-28T16:02:26Z</time>
      </trkpt>
      <trkpt lat="44.08078" lon="7.04526">
        <ele>1471.8</ele>
        <time>2012-12-28T16:02:27Z</time>
      </trkpt>
      <trkpt lat="44.08078" lon="7.04526">
        <ele>1471.7</ele>
        <time>2012-12-28T16:02:28Z</time>
      </trkpt>
      <trkpt lat="44.08079" lon="7.04525">
        <ele>1471.8</ele>
        <time>2012-12-28T16:02:29Z</time>
      </trkpt>
      <trkpt lat="44.0808" lon="7.04524">
        <ele>1471.7</ele>
        <time>2012-12-28T16:02:30Z</time>
      </trkpt>
      <trkpt lat="44.08081" lon="7.04524">
        <ele>1470.8</ele>
        <time>2012-12-28T16:02:31Z</time>
      </trkpt>
      <trkpt lat="44.08081" lon="7.04524">
        <ele>1470.8</ele>
        <time>2012-12-28T16:02:32Z</time>
      </trkpt>
      <trkpt lat="44.08081" lon="7.04524">
        <ele>1470.8</ele>
        <time>2012-12-28T16:02:33Z</time>
      </trkpt>
      <trkpt lat="44.08081" lon="7.04524">
        <ele>1470.8</ele>
        <time>2012-12-28T16:02:34Z</time>
      </trkpt>
      <trkpt lat="44.08082" lon="7.04523">
        <ele>1471</ele>
        <time>2012-12-28T16:02:35Z</time>
      </trkpt>
      <trkpt lat="44.08082" lon="7.04523">
        <ele>1471</ele>
        <time>2012-12-28T16:02:36Z</time>
      </trkpt>
      <trkpt lat="44.08082" lon="7.04523">
        <ele>1470.9</ele>
        <time>2012-12-28T16:02:37Z</time>
      </trkpt>
      <trkpt lat="44.08082" lon="7.04523">
        <ele>1470.9</ele>
        <time>2012-12-28T16:02:38Z</time>
      </trkpt>
      <trkpt lat="44.08082" lon="7.04523">
        <ele>1470.9</ele>
        <time>2012-12-28T16:02:39Z</time>
      </trkpt>
      <trkpt lat="44.08082" lon="7.04523">
        <ele>1470.9</ele>
        <time>2012-12-28T16:02:40Z</time>
      </trkpt>
      <trkpt lat="44.08083" lon="7.04523">
        <ele>1470.7</ele>
        <time>2012-12-28T16:02:41Z</time>
      </trkpt>
      <trkpt lat="44.08083" lon="7.04523">
        <ele>1470.7</ele>
        <time>2012-12-28T16:02:42Z</time>
      </trkpt>
      <trkpt lat="44.08083" lon="7.04523">
        <ele>1470.7</ele>
        <time>2012-12-28T16:02:43Z</time>
      </trkpt>
      <trkpt lat="44.08083" lon="7.04522">
        <ele>1470.8</ele>
        <time>2012-12-28T16:02:44Z</time>
      </trkpt>
      <trkpt lat="44.08083" lon="7.04522">
        <ele>1470.8</ele>
        <time>2012-12-28T16:02:45Z</time>
      </trkpt>
      <trkpt lat="44.08084" lon="7.04521">
        <ele>1470.5</ele>
        <time>2012-12-28T16:02:46Z</time>
      </trkpt>
      <trkpt lat="44.08087" lon="7.04516">
        <ele>1469.1</ele>
        <time>2012-12-28T16:02:50Z</time>
      </trkpt>
      <trkpt lat="44.08096" lon="7.04504">
        <ele>1467.7</ele>
        <time>2012-12-28T16:03:17Z</time>
      </trkpt>
      <trkpt lat="44.08096" lon="7.04503">
        <ele>1467.7</ele>
        <time>2012-12-28T16:03:18Z</time>
      </trkpt>
      <trkpt lat="44.081" lon="7.04498">
        <ele>1468.2</ele>
        <time>2012-12-28T16:03:24Z</time>
      </trkpt>
      <trkpt lat="44.08101" lon="7.04497">
        <ele>1467.9</ele>
        <time>2012-12-28T16:03:25Z</time>
      </trkpt>
      <trkpt lat="44.08101" lon="7.04495">
        <ele>1467.5</ele>
        <time>2012-12-28T16:03:26Z</time>
      </trkpt>
      <trkpt lat="44.08102" lon="7.04495">
        <ele>1467.7</ele>
        <time>2012-12-28T16:03:27Z</time>
      </trkpt>
      <trkpt lat="44.08103" lon="7.04494">
        <ele>1467.8</ele>
        <time>2012-12-28T16:03:28Z</time>
      </trkpt>
      <trkpt lat="44.08106" lon="7.04491">
        <ele>1467.8</ele>
        <time>2012-12-28T16:03:31Z</time>
      </trkpt>
      <trkpt lat="44.08107" lon="7.04489">
        <ele>1467.4</ele>
        <time>2012-12-28T16:03:32Z</time>
      </trkpt>
      <trkpt lat="44.08107" lon="7.04489">
        <ele>1467.4</ele>
        <time>2012-12-28T16:03:33Z</time>
      </trkpt>
      <trkpt lat="44.08107" lon="7.04489">
        <ele>1467.4</ele>
        <time>2012-12-28T16:03:34Z</time>
      </trkpt>
      <trkpt lat="44.08107" lon="7.04489">
        <ele>1467.4</ele>
        <time>2012-12-28T16:03:35Z</time>
      </trkpt>
      <trkpt lat="44.08107" lon="7.04489">
        <ele>1467.4</ele>
        <time>2012-12-28T16:03:36Z</time>
      </trkpt>
      <trkpt lat="44.08108" lon="7.04488">
        <ele>1467.2</ele>
        <time>2012-12-28T16:03:37Z</time>
      </trkpt>
      <trkpt lat="44.08108" lon="7.04486">
        <ele>1466.9</ele>
        <time>2012-12-28T16:03:38Z</time>
      </trkpt>
      <trkpt lat="44.08112" lon="7.04483">
        <ele>1465.2</ele>
        <time>2012-12-28T16:03:42Z</time>
      </trkpt>
      <trkpt lat="44.08112" lon="7.04482">
        <ele>1465</ele>
        <time>2012-12-28T16:03:43Z</time>
      </trkpt>
      <trkpt lat="44.08112" lon="7.04482">
        <ele>1465</ele>
        <time>2012-12-28T16:03:44Z</time>
      </trkpt>
      <trkpt lat="44.08112" lon="7.04481">
        <ele>1464.6</ele>
        <time>2012-12-28T16:03:45Z</time>
      </trkpt>
      <trkpt lat="44.08113" lon="7.0448">
        <ele>1464.8</ele>
        <time>2012-12-28T16:03:46Z</time>
      </trkpt>
      <trkpt lat="44.08113" lon="7.04478">
        <ele>1464.3</ele>
        <time>2012-12-28T16:03:47Z</time>
      </trkpt>
      <trkpt lat="44.08114" lon="7.04477">
        <ele>1463.7</ele>
        <time>2012-12-28T16:03:48Z</time>
      </trkpt>
      <trkpt lat="44.08116" lon="7.04475">
        <ele>1462.6</ele>
        <time>2012-12-28T16:03:50Z</time>
      </trkpt>
      <trkpt lat="44.08116" lon="7.04474">
        <ele>1462.6</ele>
        <time>2012-12-28T16:03:51Z</time>
      </trkpt>
      <trkpt lat="44.08119" lon="7.04472">
        <ele>1462.4</ele>
        <time>2012-12-28T16:03:54Z</time>
      </trkpt>
      <trkpt lat="44.08119" lon="7.04471">
        <ele>1462.2</ele>
        <time>2012-12-28T16:03:55Z</time>
      </trkpt>
      <trkpt lat="44.0812" lon="7.0447">
        <ele>1462</ele>
        <time>2012-12-28T16:03:56Z</time>
      </trkpt>
      <trkpt lat="44.0812" lon="7.04468">
        <ele>1461.5</ele>
        <time>2012-12-28T16:03:57Z</time>
      </trkpt>
      <trkpt lat="44.08121" lon="7.04467">
        <ele>1461.5</ele>
        <time>2012-12-28T16:03:58Z</time>
      </trkpt>
      <trkpt lat="44.08122" lon="7.04466">
        <ele>1460.9</ele>
        <time>2012-12-28T16:04:01Z</time>
      </trkpt>
      <trkpt lat="44.08125" lon="7.0446">
        <ele>1458.4</ele>
        <time>2012-12-28T16:04:08Z</time>
      </trkpt>
      <trkpt lat="44.08126" lon="7.04459">
        <ele>1458.9</ele>
        <time>2012-12-28T16:04:09Z</time>
      </trkpt>
      <trkpt lat="44.08128" lon="7.04456">
        <ele>1460</ele>
        <time>2012-12-28T16:04:12Z</time>
      </trkpt>
      <trkpt lat="44.08131" lon="7.0445">
        <ele>1459.8</ele>
        <time>2012-12-28T16:04:16Z</time>
      </trkpt>
      <trkpt lat="44.08133" lon="7.04447">
        <ele>1459.7</ele>
        <time>2012-12-28T16:04:19Z</time>
      </trkpt>
      <trkpt lat="44.08134" lon="7.04446">
        <ele>1459.9</ele>
        <time>2012-12-28T16:04:20Z</time>
      </trkpt>
      <trkpt lat="44.08136" lon="7.04445">
        <ele>1459.8</ele>
        <time>2012-12-28T16:04:22Z</time>
      </trkpt>
      <trkpt lat="44.08137" lon="7.04444">
        <ele>1460</ele>
        <time>2012-12-28T16:04:23Z</time>
      </trkpt>
      <trkpt lat="44.0814" lon="7.0444">
        <ele>1459.9</ele>
        <time>2012-12-28T16:04:27Z</time>
      </trkpt>
      <trkpt lat="44.08142" lon="7.04437">
        <ele>1459.6</ele>
        <time>2012-12-28T16:04:29Z</time>
      </trkpt>
      <trkpt lat="44.08148" lon="7.04431">
        <ele>1459.7</ele>
        <time>2012-12-28T16:04:36Z</time>
      </trkpt>
      <trkpt lat="44.08151" lon="7.04429">
        <ele>1459.2</ele>
        <time>2012-12-28T16:04:39Z</time>
      </trkpt>
      <trkpt lat="44.08155" lon="7.04424">
        <ele>1459</ele>
        <time>2012-12-28T16:04:44Z</time>
      </trkpt>
      <trkpt lat="44.08156" lon="7.04422">
        <ele>1458.4</ele>
        <time>2012-12-28T16:04:45Z</time>
      </trkpt>
      <trkpt lat="44.08157" lon="7.0442">
        <ele>1458.2</ele>
        <time>2012-12-28T16:04:47Z</time>
      </trkpt>
      <trkpt lat="44.08158" lon="7.0442">
        <ele>1457.8</ele>
        <time>2012-12-28T16:04:48Z</time>
      </trkpt>
      <trkpt lat="44.08161" lon="7.04416">
        <ele>1457</ele>
        <time>2012-12-28T16:04:53Z</time>
      </trkpt>
      <trkpt lat="44.08161" lon="7.04415">
        <ele>1456.7</ele>
        <time>2012-12-28T16:04:54Z</time>
      </trkpt>
      <trkpt lat="44.08162" lon="7.04414">
        <ele>1456.3</ele>
        <time>2012-12-28T16:04:56Z</time>
      </trkpt>
      <trkpt lat="44.08163" lon="7.04413">
        <ele>1455.4</ele>
        <time>2012-12-28T16:04:57Z</time>
      </trkpt>
      <trkpt lat="44.0817" lon="7.04407">
        <ele>1453.8</ele>
        <time>2012-12-28T16:05:08Z</time>
      </trkpt>
      <trkpt lat="44.08174" lon="7.04402">
        <ele>1453</ele>
        <time>2012-12-28T16:05:12Z</time>
      </trkpt>
      <trkpt lat="44.08182" lon="7.04396">
        <ele>1451.5</ele>
        <time>2012-12-28T16:05:27Z</time>
      </trkpt>
      <trkpt lat="44.08183" lon="7.04395">
        <ele>1451.1</ele>
        <time>2012-12-28T16:05:28Z</time>
      </trkpt>
      <trkpt lat="44.08193" lon="7.04386">
        <ele>1448.4</ele>
        <time>2012-12-28T16:05:35Z</time>
      </trkpt>
      <trkpt lat="44.08196" lon="7.04382">
        <ele>1447.2</ele>
        <time>2012-12-28T16:05:40Z</time>
      </trkpt>
      <trkpt lat="44.08197" lon="7.0438">
        <ele>1447</ele>
        <time>2012-12-28T16:05:41Z</time>
      </trkpt>
      <trkpt lat="44.08198" lon="7.04379">
        <ele>1447.1</ele>
        <time>2012-12-28T16:05:42Z</time>
      </trkpt>
      <trkpt lat="44.08198" lon="7.04379">
        <ele>1447.4</ele>
        <time>2012-12-28T16:05:44Z</time>
      </trkpt>
      <trkpt lat="44.08199" lon="7.04378">
        <ele>1447.1</ele>
        <time>2012-12-28T16:05:45Z</time>
      </trkpt>
      <trkpt lat="44.08202" lon="7.04371">
        <ele>1445.5</ele>
        <time>2012-12-28T16:05:49Z</time>
      </trkpt>
      <trkpt lat="44.08203" lon="7.04369">
        <ele>1444.9</ele>
        <time>2012-12-28T16:05:50Z</time>
      </trkpt>
      <trkpt lat="44.08207" lon="7.04363">
        <ele>1442.7</ele>
        <time>2012-12-28T16:05:55Z</time>
      </trkpt>
      <trkpt lat="44.08208" lon="7.04362">
        <ele>1442.3</ele>
        <time>2012-12-28T16:05:56Z</time>
      </trkpt>
      <trkpt lat="44.08213" lon="7.04355">
        <ele>1440.3</ele>
        <time>2012-12-28T16:06:04Z</time>
      </trkpt>
      <trkpt lat="44.08214" lon="7.04353">
        <ele>1440.3</ele>
        <time>2012-12-28T16:06:05Z</time>
      </trkpt>
      <trkpt lat="44.08215" lon="7.04352">
        <ele>1440.3</ele>
        <time>2012-12-28T16:06:07Z</time>
      </trkpt>
      <trkpt lat="44.08216" lon="7.0435">
        <ele>1440.2</ele>
        <time>2012-12-28T16:06:08Z</time>
      </trkpt>
      <trkpt lat="44.08217" lon="7.04349">
        <ele>1439.9</ele>
        <time>2012-12-28T16:06:09Z</time>
      </trkpt>
      <trkpt lat="44.08217" lon="7.04348">
        <ele>1439.9</ele>
        <time>2012-12-28T16:06:10Z</time>
      </trkpt>
      <trkpt lat="44.08218" lon="7.04347">
        <ele>1439.8</ele>
        <time>2012-12-28T16:06:11Z</time>
      </trkpt>
      <trkpt lat="44.08218" lon="7.04345">
        <ele>1439.8</ele>
        <time>2012-12-28T16:06:12Z</time>
      </trkpt>
      <trkpt lat="44.08219" lon="7.04344">
        <ele>1439.9</ele>
        <time>2012-12-28T16:06:13Z</time>
      </trkpt>
      <trkpt lat="44.08219" lon="7.04344">
        <ele>1439.9</ele>
        <time>2012-12-28T16:06:14Z</time>
      </trkpt>
      <trkpt lat="44.08219" lon="7.04343">
        <ele>1439.7</ele>
        <time>2012-12-28T16:06:15Z</time>
      </trkpt>
      <trkpt lat="44.0822" lon="7.04343">
        <ele>1439.8</ele>
        <time>2012-12-28T16:06:16Z</time>
      </trkpt>
      <trkpt lat="44.08221" lon="7.04341">
        <ele>1439.7</ele>
        <time>2012-12-28T16:06:17Z</time>
      </trkpt>
      <trkpt lat="44.08223" lon="7.04338">
        <ele>1440.1</ele>
        <time>2012-12-28T16:06:19Z</time>
      </trkpt>
      <trkpt lat="44.08224" lon="7.04337">
        <ele>1440.2</ele>
        <time>2012-12-28T16:06:20Z</time>
      </trkpt>
      <trkpt lat="44.08227" lon="7.04334">
        <ele>1440.3</ele>
        <time>2012-12-28T16:06:35Z</time>
      </trkpt>
      <trkpt lat="44.08227" lon="7.04334">
        <ele>1440.3</ele>
        <time>2012-12-28T16:06:36Z</time>
      </trkpt>
      <trkpt lat="44.08227" lon="7.04334">
        <ele>1440.3</ele>
        <time>2012-12-28T16:06:37Z</time>
      </trkpt>
      <trkpt lat="44.08228" lon="7.04334">
        <ele>1439.5</ele>
        <time>2012-12-28T16:06:38Z</time>
      </trkpt>
      <trkpt lat="44.08228" lon="7.04335">
        <ele>1438.9</ele>
        <time>2012-12-28T16:06:39Z</time>
      </trkpt>
      <trkpt lat="44.08232" lon="7.04342">
        <ele>1438.9</ele>
        <time>2012-12-28T16:06:48Z</time>
      </trkpt>
      <trkpt lat="44.08232" lon="7.04343">
        <ele>1439</ele>
        <time>2012-12-28T16:06:49Z</time>
      </trkpt>
      <trkpt lat="44.08232" lon="7.04343">
        <ele>1439</ele>
        <time>2012-12-28T16:06:50Z</time>
      </trkpt>
      <trkpt lat="44.08233" lon="7.04343">
        <ele>1439.3</ele>
        <time>2012-12-28T16:06:51Z</time>
      </trkpt>
      <trkpt lat="44.08234" lon="7.04342">
        <ele>1438.9</ele>
        <time>2012-12-28T16:06:52Z</time>
      </trkpt>
      <trkpt lat="44.08236" lon="7.04338">
        <ele>1438.6</ele>
        <time>2012-12-28T16:06:55Z</time>
      </trkpt>
      <trkpt lat="44.08236" lon="7.04338">
        <ele>1438.6</ele>
        <time>2012-12-28T16:06:56Z</time>
      </trkpt>
      <trkpt lat="44.08237" lon="7.04337">
        <ele>1438.3</ele>
        <time>2012-12-28T16:06:57Z</time>
      </trkpt>
      <trkpt lat="44.08238" lon="7.04335">
        <ele>1437.8</ele>
        <time>2012-12-28T16:06:58Z</time>
      </trkpt>
      <trkpt lat="44.08238" lon="7.04333">
        <ele>1437.4</ele>
        <time>2012-12-28T16:06:59Z</time>
      </trkpt>
      <trkpt lat="44.0824" lon="7.04329">
        <ele>1435.2</ele>
        <time>2012-12-28T16:07:02Z</time>
      </trkpt>
      <trkpt lat="44.08241" lon="7.04325">
        <ele>1434.5</ele>
        <time>2012-12-28T16:07:04Z</time>
      </trkpt>
      <trkpt lat="44.08241" lon="7.04323">
        <ele>1434.2</ele>
        <time>2012-12-28T16:07:05Z</time>
      </trkpt>
      <trkpt lat="44.08242" lon="7.04318">
        <ele>1432.8</ele>
        <time>2012-12-28T16:07:09Z</time>
      </trkpt>
      <trkpt lat="44.08242" lon="7.04316">
        <ele>1433</ele>
        <time>2012-12-28T16:07:10Z</time>
      </trkpt>
      <trkpt lat="44.08242" lon="7.04315">
        <ele>1432</ele>
        <time>2012-12-28T16:07:11Z</time>
      </trkpt>
      <trkpt lat="44.08242" lon="7.04313">
        <ele>1431.6</ele>
        <time>2012-12-28T16:07:12Z</time>
      </trkpt>
      <trkpt lat="44.08242" lon="7.04312">
        <ele>1432.2</ele>
        <time>2012-12-28T16:07:13Z</time>
      </trkpt>
      <trkpt lat="44.08242" lon="7.04311">
        <ele>1432</ele>
        <time>2012-12-28T16:07:14Z</time>
      </trkpt>
      <trkpt lat="44.08242" lon="7.04307">
        <ele>1430.6</ele>
        <time>2012-12-28T16:07:16Z</time>
      </trkpt>
      <trkpt lat="44.08243" lon="7.04303">
        <ele>1428.8</ele>
        <time>2012-12-28T16:07:20Z</time>
      </trkpt>
      <trkpt lat="44.08244" lon="7.04301">
        <ele>1428.7</ele>
        <time>2012-12-28T16:07:21Z</time>
      </trkpt>
      <trkpt lat="44.08244" lon="7.043">
        <ele>1428.3</ele>
        <time>2012-12-28T16:07:22Z</time>
      </trkpt>
      <trkpt lat="44.08244" lon="7.04299">
        <ele>1427.7</ele>
        <time>2012-12-28T16:07:23Z</time>
      </trkpt>
      <trkpt lat="44.08244" lon="7.04297">
        <ele>1427.2</ele>
        <time>2012-12-28T16:07:24Z</time>
      </trkpt>
      <trkpt lat="44.08244" lon="7.04296">
        <ele>1426.7</ele>
        <time>2012-12-28T16:07:25Z</time>
      </trkpt>
      <trkpt lat="44.08246" lon="7.04286">
        <ele>1425.3</ele>
        <time>2012-12-28T16:07:31Z</time>
      </trkpt>
      <trkpt lat="44.08247" lon="7.04285">
        <ele>1425.1</ele>
        <time>2012-12-28T16:07:32Z</time>
      </trkpt>
      <trkpt lat="44.08247" lon="7.04284">
        <ele>1425.1</ele>
        <time>2012-12-28T16:07:33Z</time>
      </trkpt>
      <trkpt lat="44.08249" lon="7.04279">
        <ele>1423.7</ele>
        <time>2012-12-28T16:07:38Z</time>
      </trkpt>
      <trkpt lat="44.08249" lon="7.04278">
        <ele>1423.5</ele>
        <time>2012-12-28T16:07:39Z</time>
      </trkpt>
      <trkpt lat="44.08251" lon="7.04277">
        <ele>1422.8</ele>
        <time>2012-12-28T16:07:42Z</time>
      </trkpt>
      <trkpt lat="44.08252" lon="7.04276">
        <ele>1422.2</ele>
        <time>2012-12-28T16:07:43Z</time>
      </trkpt>
      <trkpt lat="44.08252" lon="7.04275">
        <ele>1422.3</ele>
        <time>2012-12-28T16:07:44Z</time>
      </trkpt>
      <trkpt lat="44.08254" lon="7.04273">
        <ele>1422</ele>
        <time>2012-12-28T16:07:46Z</time>
      </trkpt>
      <trkpt lat="44.08254" lon="7.04272">
        <ele>1421.9</ele>
        <time>2012-12-28T16:07:47Z</time>
      </trkpt>
      <trkpt lat="44.08255" lon="7.04271">
        <ele>1421.5</ele>
        <time>2012-12-28T16:07:48Z</time>
      </trkpt>
      <trkpt lat="44.08255" lon="7.0427">
        <ele>1421.4</ele>
        <time>2012-12-28T16:07:49Z</time>
      </trkpt>
      <trkpt lat="44.08256" lon="7.04269">
        <ele>1421.7</ele>
        <time>2012-12-28T16:07:50Z</time>
      </trkpt>
      <trkpt lat="44.08256" lon="7.04268">
        <ele>1421.6</ele>
        <time>2012-12-28T16:07:51Z</time>
      </trkpt>
      <trkpt lat="44.08256" lon="7.04267">
        <ele>1421.5</ele>
        <time>2012-12-28T16:07:52Z</time>
      </trkpt>
      <trkpt lat="44.08257" lon="7.04258">
        <ele>1420.1</ele>
        <time>2012-12-28T16:07:59Z</time>
      </trkpt>
      <trkpt lat="44.08257" lon="7.04256">
        <ele>1419.6</ele>
        <time>2012-12-28T16:08:00Z</time>
      </trkpt>
      <trkpt lat="44.08257" lon="7.04253">
        <ele>1419.2</ele>
        <time>2012-12-28T16:08:02Z</time>
      </trkpt>
      <trkpt lat="44.08257" lon="7.04253">
        <ele>1419.2</ele>
        <time>2012-12-28T16:08:03Z</time>
      </trkpt>
      <trkpt lat="44.08257" lon="7.04253">
        <ele>1419.1</ele>
        <time>2012-12-28T16:08:04Z</time>
      </trkpt>
      <trkpt lat="44.08258" lon="7.04252">
        <ele>1419.1</ele>
        <time>2012-12-28T16:08:05Z</time>
      </trkpt>
      <trkpt lat="44.08258" lon="7.0425">
        <ele>1418.5</ele>
        <time>2012-12-28T16:08:06Z</time>
      </trkpt>
      <trkpt lat="44.08259" lon="7.04249">
        <ele>1418.5</ele>
        <time>2012-12-28T16:08:07Z</time>
      </trkpt>
      <trkpt lat="44.0826" lon="7.04247">
        <ele>1417.6</ele>
        <time>2012-12-28T16:08:08Z</time>
      </trkpt>
      <trkpt lat="44.0826" lon="7.04246">
        <ele>1417.3</ele>
        <time>2012-12-28T16:08:09Z</time>
      </trkpt>
      <trkpt lat="44.0826" lon="7.04245">
        <ele>1417.3</ele>
        <time>2012-12-28T16:08:10Z</time>
      </trkpt>
      <trkpt lat="44.0826" lon="7.04244">
        <ele>1417</ele>
        <time>2012-12-28T16:08:11Z</time>
      </trkpt>
      <trkpt lat="44.08261" lon="7.04239">
        <ele>1415.2</ele>
        <time>2012-12-28T16:08:14Z</time>
      </trkpt>
      <trkpt lat="44.08262" lon="7.04237">
        <ele>1414.5</ele>
        <time>2012-12-28T16:08:15Z</time>
      </trkpt>
      <trkpt lat="44.08262" lon="7.04227">
        <ele>1413.9</ele>
        <time>2012-12-28T16:08:23Z</time>
      </trkpt>
      <trkpt lat="44.08263" lon="7.04225">
        <ele>1413.5</ele>
        <time>2012-12-28T16:08:24Z</time>
      </trkpt>
      <trkpt lat="44.08263" lon="7.04223">
        <ele>1412.9</ele>
        <time>2012-12-28T16:08:25Z</time>
      </trkpt>
      <trkpt lat="44.08263" lon="7.04221">
        <ele>1412.6</ele>
        <time>2012-12-28T16:08:26Z</time>
      </trkpt>
      <trkpt lat="44.08263" lon="7.04219">
        <ele>1412.3</ele>
        <time>2012-12-28T16:08:27Z</time>
      </trkpt>
      <trkpt lat="44.08264" lon="7.04217">
        <ele>1411.8</ele>
        <time>2012-12-28T16:08:28Z</time>
      </trkpt>
      <trkpt lat="44.08264" lon="7.04213">
        <ele>1410.6</ele>
        <time>2012-12-28T16:08:30Z</time>
      </trkpt>
      <trkpt lat="44.08264" lon="7.04211">
        <ele>1410.5</ele>
        <time>2012-12-28T16:08:31Z</time>
      </trkpt>
      <trkpt lat="44.08265" lon="7.04209">
        <ele>1410.6</ele>
        <time>2012-12-28T16:08:33Z</time>
      </trkpt>
      <trkpt lat="44.08266" lon="7.04203">
        <ele>1410.1</ele>
        <time>2012-12-28T16:08:36Z</time>
      </trkpt>
      <trkpt lat="44.08265" lon="7.04201">
        <ele>1410.2</ele>
        <time>2012-12-28T16:08:37Z</time>
      </trkpt>
      <trkpt lat="44.08265" lon="7.04199">
        <ele>1410.3</ele>
        <time>2012-12-28T16:08:38Z</time>
      </trkpt>
      <trkpt lat="44.08265" lon="7.04198">
        <ele>1410.8</ele>
        <time>2012-12-28T16:08:39Z</time>
      </trkpt>
      <trkpt lat="44.08265" lon="7.04196">
        <ele>1410.5</ele>
        <time>2012-12-28T16:08:40Z</time>
      </trkpt>
      <trkpt lat="44.08266" lon="7.04194">
        <ele>1410.1</ele>
        <time>2012-12-28T16:08:41Z</time>
      </trkpt>
      <trkpt lat="44.08267" lon="7.04187">
        <ele>1409.6</ele>
        <time>2012-12-28T16:08:48Z</time>
      </trkpt>
      <trkpt lat="44.08267" lon="7.04186">
        <ele>1409.9</ele>
        <time>2012-12-28T16:08:49Z</time>
      </trkpt>
      <trkpt lat="44.08267" lon="7.04185">
        <ele>1409.6</ele>
        <time>2012-12-28T16:08:50Z</time>
      </trkpt>
      <trkpt lat="44.08268" lon="7.04184">
        <ele>1409.7</ele>
        <time>2012-12-28T16:08:51Z</time>
      </trkpt>
      <trkpt lat="44.08268" lon="7.04183">
        <ele>1409.5</ele>
        <time>2012-12-28T16:08:52Z</time>
      </trkpt>
      <trkpt lat="44.08268" lon="7.04183">
        <ele>1409.5</ele>
        <time>2012-12-28T16:08:53Z</time>
      </trkpt>
      <trkpt lat="44.08268" lon="7.04183">
        <ele>1409.5</ele>
        <time>2012-12-28T16:08:54Z</time>
      </trkpt>
      <trkpt lat="44.08268" lon="7.04183">
        <ele>1409.5</ele>
        <time>2012-12-28T16:08:55Z</time>
      </trkpt>
      <trkpt lat="44.08268" lon="7.04183">
        <ele>1409.5</ele>
        <time>2012-12-28T16:08:56Z</time>
      </trkpt>
      <trkpt lat="44.08268" lon="7.04183">
        <ele>1409.5</ele>
        <time>2012-12-28T16:08:57Z</time>
      </trkpt>
      <trkpt lat="44.08268" lon="7.04183">
        <ele>1410.2</ele>
        <time>2012-12-28T16:08:58Z</time>
      </trkpt>
      <trkpt lat="44.08268" lon="7.04183">
        <ele>1410.2</ele>
        <time>2012-12-28T16:08:59Z</time>
      </trkpt>
      <trkpt lat="44.08268" lon="7.04183">
        <ele>1409.6</ele>
        <time>2012-12-28T16:09:00Z</time>
      </trkpt>
      <trkpt lat="44.08268" lon="7.04183">
        <ele>1409.6</ele>
        <time>2012-12-28T16:09:01Z</time>
      </trkpt>
      <trkpt lat="44.08268" lon="7.04183">
        <ele>1409.6</ele>
        <time>2012-12-28T16:09:02Z</time>
      </trkpt>
      <trkpt lat="44.08268" lon="7.04183">
        <ele>1409.6</ele>
        <time>2012-12-28T16:09:03Z</time>
      </trkpt>
      <trkpt lat="44.08268" lon="7.04183">
        <ele>1409.6</ele>
        <time>2012-12-28T16:09:04Z</time>
      </trkpt>
      <trkpt lat="44.08268" lon="7.04183">
        <ele>1409.7</ele>
        <time>2012-12-28T16:09:05Z</time>
      </trkpt>
      <trkpt lat="44.08268" lon="7.04184">
        <ele>1410</ele>
        <time>2012-12-28T16:09:06Z</time>
      </trkpt>
      <trkpt lat="44.08268" lon="7.04184">
        <ele>1410</ele>
        <time>2012-12-28T16:09:07Z</time>
      </trkpt>
      <trkpt lat="44.08268" lon="7.04184">
        <ele>1410</ele>
        <time>2012-12-28T16:09:08Z</time>
      </trkpt>
      <trkpt lat="44.08268" lon="7.04184">
        <ele>1410</ele>
        <time>2012-12-28T16:09:09Z</time>
      </trkpt>
      <trkpt lat="44.08268" lon="7.04184">
        <ele>1410</ele>
        <time>2012-12-28T16:09:10Z</time>
      </trkpt>
      <trkpt lat="44.08268" lon="7.04184">
        <ele>1410</ele>
        <time>2012-12-28T16:09:11Z</time>
      </trkpt>
      <trkpt lat="44.08268" lon="7.04184">
        <ele>1410.2</ele>
        <time>2012-12-28T16:09:12Z</time>
      </trkpt>
      <trkpt lat="44.08268" lon="7.04184">
        <ele>1410.1</ele>
        <time>2012-12-28T16:09:13Z</time>
      </trkpt>
      <trkpt lat="44.08268" lon="7.04185">
        <ele>1410</ele>
        <time>2012-12-28T16:09:14Z</time>
      </trkpt>
      <trkpt lat="44.08268" lon="7.04186">
        <ele>1409.9</ele>
        <time>2012-12-28T16:09:15Z</time>
      </trkpt>
      <trkpt lat="44.08268" lon="7.04186">
        <ele>1409.9</ele>
        <time>2012-12-28T16:09:16Z</time>
      </trkpt>
      <trkpt lat="44.08269" lon="7.04186">
        <ele>1410.3</ele>
        <time>2012-12-28T16:09:17Z</time>
      </trkpt>
      <trkpt lat="44.08269" lon="7.04186">
        <ele>1410.3</ele>
        <time>2012-12-28T16:09:18Z</time>
      </trkpt>
      <trkpt lat="44.08269" lon="7.04186">
        <ele>1410.6</ele>
        <time>2012-12-28T16:09:19Z</time>
      </trkpt>
      <trkpt lat="44.0827" lon="7.04186">
        <ele>1410.7</ele>
        <time>2012-12-28T16:09:20Z</time>
      </trkpt>
      <trkpt lat="44.08271" lon="7.04187">
        <ele>1411.2</ele>
        <time>2012-12-28T16:09:21Z</time>
      </trkpt>
      <trkpt lat="44.08274" lon="7.04187">
        <ele>1411.5</ele>
        <time>2012-12-28T16:09:26Z</time>
      </trkpt>
      <trkpt lat="44.08275" lon="7.04187">
        <ele>1411.9</ele>
        <time>2012-12-28T16:09:27Z</time>
      </trkpt>
      <trkpt lat="44.08275" lon="7.04188">
        <ele>1411.8</ele>
        <time>2012-12-28T16:09:28Z</time>
      </trkpt>
      <trkpt lat="44.08276" lon="7.04188">
        <ele>1412.4</ele>
        <time>2012-12-28T16:09:29Z</time>
      </trkpt>
      <trkpt lat="44.08276" lon="7.04188">
        <ele>1412.4</ele>
        <time>2012-12-28T16:09:30Z</time>
      </trkpt>
      <trkpt lat="44.08277" lon="7.04188">
        <ele>1413.1</ele>
        <time>2012-12-28T16:09:31Z</time>
      </trkpt>
      <trkpt lat="44.08277" lon="7.04188">
        <ele>1413.1</ele>
        <time>2012-12-28T16:09:32Z</time>
      </trkpt>
      <trkpt lat="44.08278" lon="7.04188">
        <ele>1413.6</ele>
        <time>2012-12-28T16:09:33Z</time>
      </trkpt>
      <trkpt lat="44.08278" lon="7.04188">
        <ele>1414.1</ele>
        <time>2012-12-28T16:09:34Z</time>
      </trkpt>
      <trkpt lat="44.08279" lon="7.04189">
        <ele>1414.1</ele>
        <time>2012-12-28T16:09:35Z</time>
      </trkpt>
      <trkpt lat="44.08279" lon="7.04189">
        <ele>1414.1</ele>
        <time>2012-12-28T16:09:36Z</time>
      </trkpt>
      <trkpt lat="44.08279" lon="7.04189">
        <ele>1414.1</ele>
        <time>2012-12-28T16:09:37Z</time>
      </trkpt>
      <trkpt lat="44.08279" lon="7.04189">
        <ele>1414.1</ele>
        <time>2012-12-28T16:09:38Z</time>
      </trkpt>
      <trkpt lat="44.08279" lon="7.04189">
        <ele>1414.1</ele>
        <time>2012-12-28T16:09:39Z</time>
      </trkpt>
      <trkpt lat="44.08279" lon="7.04189">
        <ele>1414.1</ele>
        <time>2012-12-28T16:09:40Z</time>
      </trkpt>
      <trkpt lat="44.08279" lon="7.04189">
        <ele>1414.1</ele>
        <time>2012-12-28T16:09:41Z</time>
      </trkpt>
      <trkpt lat="44.08279" lon="7.04189">
        <ele>1414.1</ele>
        <time>2012-12-28T16:09:42Z</time>
      </trkpt>
      <trkpt lat="44.08279" lon="7.04189">
        <ele>1414.1</ele>
        <time>2012-12-28T16:09:43Z</time>
      </trkpt>
      <trkpt lat="44.08279" lon="7.04189">
        <ele>1414.1</ele>
        <time>2012-12-28T16:09:44Z</time>
      </trkpt>
      <trkpt lat="44.08279" lon="7.04189">
        <ele>1414.1</ele>
        <time>2012-12-28T16:09:45Z</time>
      </trkpt>
      <trkpt lat="44.08279" lon="7.04189">
        <ele>1414.1</ele>
        <time>2012-12-28T16:09:46Z</time>
      </trkpt>
      <trkpt lat="44.08279" lon="7.04189">
        <ele>1414.1</ele>
        <time>2012-12-28T16:09:47Z</time>
      </trkpt>
      <trkpt lat="44.08279" lon="7.04189">
        <ele>1414.1</ele>
        <time>2012-12-28T16:09:48Z</time>
      </trkpt>
      <trkpt lat="44.08279" lon="7.04189">
        <ele>1414.1</ele>
        <time>2012-12-28T16:09:49Z</time>
      </trkpt>
      <trkpt lat="44.08279" lon="7.04189">
        <ele>1414.1</ele>
        <time>2012-12-28T16:09:50Z</time>
      </trkpt>
      <trkpt lat="44.08279" lon="7.04189">
        <ele>1414.1</ele>
        <time>2012-12-28T16:09:51Z</time>
      </trkpt>
      <trkpt lat="44.08279" lon="7.04189">
        <ele>1414.1</ele>
        <time>2012-12-28T16:09:52Z</time>
      </trkpt>
      <trkpt lat="44.08279" lon="7.04189">
        <ele>1414.1</ele>
        <time>2012-12-28T16:09:53Z</time>
      </trkpt>
      <trkpt lat="44.08279" lon="7.04189">
        <ele>1414.1</ele>
        <time>2012-12-28T16:09:54Z</time>
      </trkpt>
      <trkpt lat="44.08279" lon="7.04189">
        <ele>1414.1</ele>
        <time>2012-12-28T16:09:55Z</time>
      </trkpt>
      <trkpt lat="44.08279" lon="7.04189">
        <ele>1414.1</ele>
        <time>2012-12-28T16:09:56Z</time>
      </trkpt>
      <trkpt lat="44.08279" lon="7.04189">
        <ele>1414.1</ele>
        <time>2012-12-28T16:09:57Z</time>
      </trkpt>
      <trkpt lat="44.08279" lon="7.04189">
        <ele>1414.1</ele>
        <time>2012-12-28T16:09:58Z</time>
      </trkpt>
      <trkpt lat="44.08279" lon="7.04189">
        <ele>1414.1</ele>
        <time>2012-12-28T16:09:59Z</time>
      </trkpt>
      <trkpt lat="44.08279" lon="7.04189">
        <ele>1414.1</ele>
        <time>2012-12-28T16:10:00Z</time>
      </trkpt>
      <trkpt lat="44.08279" lon="7.04189">
        <ele>1414.1</ele>
        <time>2012-12-28T16:10:01Z</time>
      </trkpt>
      <trkpt lat="44.08279" lon="7.04189">
        <ele>1414.1</ele>
        <time>2012-12-28T16:10:02Z</time>
      </trkpt>
      <trkpt lat="44.08279" lon="7.04189">
        <ele>1414.1</ele>
        <time>2012-12-28T16:10:03Z</time>
      </trkpt>
      <trkpt lat="44.08279" lon="7.04189">
        <ele>1414.1</ele>
        <time>2012-12-28T16:10:04Z</time>
      </trkpt>
      <trkpt lat="44.08279" lon="7.04189">
        <ele>1414.1</ele>
        <time>2012-12-28T16:10:05Z</time>
      </trkpt>
      <trkpt lat="44.08279" lon="7.04189">
        <ele>1414.1</ele>
        <time>2012-12-28T16:10:06Z</time>
      </trkpt>
      <trkpt lat="44.08279" lon="7.04189">
        <ele>1414.1</ele>
        <time>2012-12-28T16:10:07Z</time>
      </trkpt>
      <trkpt lat="44.08279" lon="7.04189">
        <ele>1414.1</ele>
        <time>2012-12-28T16:10:08Z</time>
      </trkpt>
      <trkpt lat="44.08279" lon="7.04189">
        <ele>1414.1</ele>
        <time>2012-12-28T16:10:09Z</time>
      </trkpt>
      <trkpt lat="44.08279" lon="7.04189">
        <ele>1414.1</ele>
        <time>2012-12-28T16:10:10Z</time>
      </trkpt>
      <trkpt lat="44.08279" lon="7.04189">
        <ele>1414.1</ele>
        <time>2012-12-28T16:10:11Z</time>
      </trkpt>
    </trkseg>
  </trk>
</gpx>